<?xml version='1.0' encoding='UTF-8'?><gpx version="1.1" creator="JPX - https://github.com/jenetics/jpx" xmlns="http://www.topografix.com/GPX/1/1"><trk><trkseg><trkpt lat="45.1935417" lon="8.0689982"><ele>156.0</ele><time>2026-04-18T07:41:17.188Z</time></trkpt><trkpt lat="45.1935149" lon="8.0690816"><ele>156.0</ele><time>2026-04-18T07:41:20.188Z</time></trkpt><trkpt lat="45.1934366" lon="8.0691332"><ele>156.0</ele><time>2026-04-18T07:41:22.188Z</time></trkpt><trkpt lat="45.1933573" lon="8.0691585"><ele>156.0</ele><time>2026-04-18T07:41:24.189Z</time></trkpt><trkpt lat="45.1932844" lon="8.069215"><ele>156.0</ele><time>2026-04-18T07:41:27.188Z</time></trkpt><trkpt lat="45.1932451" lon="8.0693303"><ele>156.0</ele><time>2026-04-18T07:41:30.189Z</time></trkpt><trkpt lat="45.1932347" lon="8.0695104"><ele>156.2</ele><time>2026-04-18T07:41:32.189Z</time></trkpt><trkpt lat="45.1932317" lon="8.0696251"><ele>156.39999999999998</ele><time>2026-04-18T07:41:33.188Z</time></trkpt><trkpt lat="45.1932332" lon="8.0697459"><ele>156.6</ele><time>2026-04-18T07:41:34.188Z</time></trkpt><trkpt lat="45.1932376" lon="8.0698832"><ele>156.79999999999998</ele><time>2026-04-18T07:41:35.188Z</time></trkpt><trkpt lat="45.1932426" lon="8.0700445"><ele>157.0</ele><time>2026-04-18T07:41:36.188Z</time></trkpt><trkpt lat="45.1932493" lon="8.0702026"><ele>157.0</ele><time>2026-04-18T07:41:37.188Z</time></trkpt><trkpt lat="45.1932555" lon="8.0703702"><ele>157.0</ele><time>2026-04-18T07:41:38.189Z</time></trkpt><trkpt lat="45.1932628" lon="8.0705461"><ele>157.0</ele><time>2026-04-18T07:41:39.188Z</time></trkpt><trkpt lat="45.1932655" lon="8.0707332"><ele>157.0</ele><time>2026-04-18T07:41:40.189Z</time></trkpt><trkpt lat="45.1932678" lon="8.0709275"><ele>157.25</ele><time>2026-04-18T07:41:41.188Z</time></trkpt><trkpt lat="45.1932733" lon="8.0711295"><ele>157.5</ele><time>2026-04-18T07:41:42.188Z</time></trkpt><trkpt lat="45.1932791" lon="8.0713464"><ele>157.75</ele><time>2026-04-18T07:41:43.188Z</time></trkpt><trkpt lat="45.1932833" lon="8.0715586"><ele>158.0</ele><time>2026-04-18T07:41:44.188Z</time></trkpt><trkpt lat="45.1932891" lon="8.07178"><ele>158.0</ele><time>2026-04-18T07:41:45.189Z</time></trkpt><trkpt lat="45.1932984" lon="8.0720044"><ele>158.0</ele><time>2026-04-18T07:41:46.188Z</time></trkpt><trkpt lat="45.1933029" lon="8.07223"><ele>158.0</ele><time>2026-04-18T07:41:47.188Z</time></trkpt><trkpt lat="45.1933091" lon="8.0724638"><ele>158.33333333333331</ele><time>2026-04-18T07:41:48.188Z</time></trkpt><trkpt lat="45.1933161" lon="8.072692"><ele>158.66666666666666</ele><time>2026-04-18T07:41:49.189Z</time></trkpt><trkpt lat="45.1933216" lon="8.0729195"><ele>159.0</ele><time>2026-04-18T07:41:50.188Z</time></trkpt><trkpt lat="45.193329" lon="8.0731488"><ele>158.33333333333334</ele><time>2026-04-18T07:41:51.189Z</time></trkpt><trkpt lat="45.1933291" lon="8.073373"><ele>157.66666666666669</ele><time>2026-04-18T07:41:52.188Z</time></trkpt><trkpt lat="45.1933374" lon="8.0736088"><ele>157.0</ele><time>2026-04-18T07:41:53.188Z</time></trkpt><trkpt lat="45.1933421" lon="8.0738448"><ele>157.0</ele><time>2026-04-18T07:41:54.188Z</time></trkpt><trkpt lat="45.1933507" lon="8.0740753"><ele>157.0</ele><time>2026-04-18T07:41:55.188Z</time></trkpt><trkpt lat="45.1933577" lon="8.0743081"><ele>157.0</ele><time>2026-04-18T07:41:56.188Z</time></trkpt><trkpt lat="45.19336" lon="8.0745415"><ele>156.66666666666669</ele><time>2026-04-18T07:41:57.188Z</time></trkpt><trkpt lat="45.1933654" lon="8.0747695"><ele>156.33333333333334</ele><time>2026-04-18T07:41:58.188Z</time></trkpt><trkpt lat="45.1933703" lon="8.0750029"><ele>156.0</ele><time>2026-04-18T07:41:59.188Z</time></trkpt><trkpt lat="45.1933745" lon="8.0752347"><ele>156.0</ele><time>2026-04-18T07:42:00.188Z</time></trkpt><trkpt lat="45.193382" lon="8.0754719"><ele>156.0</ele><time>2026-04-18T07:42:01.188Z</time></trkpt><trkpt lat="45.193387" lon="8.0757079"><ele>156.0</ele><time>2026-04-18T07:42:02.188Z</time></trkpt><trkpt lat="45.1933975" lon="8.0759319"><ele>156.0</ele><time>2026-04-18T07:42:03.188Z</time></trkpt><trkpt lat="45.1934039" lon="8.0761614"><ele>156.0</ele><time>2026-04-18T07:42:04.188Z</time></trkpt><trkpt lat="45.1934106" lon="8.0763846"><ele>156.0</ele><time>2026-04-18T07:42:05.188Z</time></trkpt><trkpt lat="45.1934131" lon="8.0766139"><ele>155.66666666666666</ele><time>2026-04-18T07:42:06.188Z</time></trkpt><trkpt lat="45.1934235" lon="8.0768418"><ele>155.33333333333331</ele><time>2026-04-18T07:42:07.188Z</time></trkpt><trkpt lat="45.1934312" lon="8.0770802"><ele>155.0</ele><time>2026-04-18T07:42:08.188Z</time></trkpt><trkpt lat="45.1934417" lon="8.077317"><ele>156.0</ele><time>2026-04-18T07:42:09.188Z</time></trkpt><trkpt lat="45.1934466" lon="8.0775596"><ele>157.0</ele><time>2026-04-18T07:42:10.188Z</time></trkpt><trkpt lat="45.1934555" lon="8.0777999"><ele>158.0</ele><time>2026-04-18T07:42:11.188Z</time></trkpt><trkpt lat="45.1934623" lon="8.0780458"><ele>158.66666666666666</ele><time>2026-04-18T07:42:12.188Z</time></trkpt><trkpt lat="45.193463" lon="8.0782949"><ele>159.33333333333334</ele><time>2026-04-18T07:42:13.188Z</time></trkpt><trkpt lat="45.1934667" lon="8.0785389"><ele>160.0</ele><time>2026-04-18T07:42:14.188Z</time></trkpt><trkpt lat="45.1934694" lon="8.0787837"><ele>160.0</ele><time>2026-04-18T07:42:15.188Z</time></trkpt><trkpt lat="45.1934717" lon="8.079025"><ele>160.0</ele><time>2026-04-18T07:42:16.188Z</time></trkpt><trkpt lat="45.1934738" lon="8.0792636"><ele>160.0</ele><time>2026-04-18T07:42:17.188Z</time></trkpt><trkpt lat="45.1934796" lon="8.0794908"><ele>160.0</ele><time>2026-04-18T07:42:18.188Z</time></trkpt><trkpt lat="45.1934858" lon="8.0796978"><ele>160.0</ele><time>2026-04-18T07:42:19.188Z</time></trkpt><trkpt lat="45.1934911" lon="8.0798941"><ele>160.0</ele><time>2026-04-18T07:42:20.188Z</time></trkpt><trkpt lat="45.1934862" lon="8.0800705"><ele>160.0</ele><time>2026-04-18T07:42:21.188Z</time></trkpt><trkpt lat="45.193478" lon="8.0802357"><ele>159.5</ele><time>2026-04-18T07:42:22.188Z</time></trkpt><trkpt lat="45.1934593" lon="8.0804025"><ele>159.0</ele><time>2026-04-18T07:42:23.189Z</time></trkpt><trkpt lat="45.1934322" lon="8.0805727"><ele>158.5</ele><time>2026-04-18T07:42:24.188Z</time></trkpt><trkpt lat="45.1933917" lon="8.0807359"><ele>158.0</ele><time>2026-04-18T07:42:25.188Z</time></trkpt><trkpt lat="45.1933348" lon="8.0809006"><ele>158.0</ele><time>2026-04-18T07:42:26.188Z</time></trkpt><trkpt lat="45.1932583" lon="8.0810801"><ele>158.0</ele><time>2026-04-18T07:42:27.188Z</time></trkpt><trkpt lat="45.1931874" lon="8.0812641"><ele>158.0</ele><time>2026-04-18T07:42:28.188Z</time></trkpt><trkpt lat="45.1931197" lon="8.081474"><ele>157.0</ele><time>2026-04-18T07:42:29.189Z</time></trkpt><trkpt lat="45.1930514" lon="8.0816839"><ele>156.0</ele><time>2026-04-18T07:42:30.188Z</time></trkpt><trkpt lat="45.1929808" lon="8.081896"><ele>155.0</ele><time>2026-04-18T07:42:31.188Z</time></trkpt><trkpt lat="45.1929087" lon="8.0821142"><ele>155.0</ele><time>2026-04-18T07:42:32.188Z</time></trkpt><trkpt lat="45.192836" lon="8.0823346"><ele>155.0</ele><time>2026-04-18T07:42:33.188Z</time></trkpt><trkpt lat="45.1927541" lon="8.0825589"><ele>155.0</ele><time>2026-04-18T07:42:34.188Z</time></trkpt><trkpt lat="45.1926685" lon="8.0827805"><ele>155.0</ele><time>2026-04-18T07:42:35.188Z</time></trkpt><trkpt lat="45.1925779" lon="8.0829981"><ele>155.0</ele><time>2026-04-18T07:42:36.188Z</time></trkpt><trkpt lat="45.1924825" lon="8.0832166"><ele>155.0</ele><time>2026-04-18T07:42:37.188Z</time></trkpt><trkpt lat="45.1923876" lon="8.0834345"><ele>155.33333333333331</ele><time>2026-04-18T07:42:38.188Z</time></trkpt><trkpt lat="45.1922873" lon="8.0836474"><ele>155.66666666666666</ele><time>2026-04-18T07:42:39.188Z</time></trkpt><trkpt lat="45.1921896" lon="8.0838617"><ele>156.0</ele><time>2026-04-18T07:42:40.188Z</time></trkpt><trkpt lat="45.1920924" lon="8.0840765"><ele>155.33333333333334</ele><time>2026-04-18T07:42:41.188Z</time></trkpt><trkpt lat="45.192002" lon="8.0842936"><ele>154.66666666666669</ele><time>2026-04-18T07:42:42.188Z</time></trkpt><trkpt lat="45.1919068" lon="8.0845096"><ele>154.0</ele><time>2026-04-18T07:42:43.188Z</time></trkpt><trkpt lat="45.1918128" lon="8.0847257"><ele>154.33333333333334</ele><time>2026-04-18T07:42:44.189Z</time></trkpt><trkpt lat="45.1917178" lon="8.0849422"><ele>154.66666666666666</ele><time>2026-04-18T07:42:45.188Z</time></trkpt><trkpt lat="45.1916228" lon="8.0851589"><ele>155.0</ele><time>2026-04-18T07:42:46.189Z</time></trkpt><trkpt lat="45.1915281" lon="8.0853779"><ele>155.0</ele><time>2026-04-18T07:42:47.188Z</time></trkpt><trkpt lat="45.1914338" lon="8.0855965"><ele>155.0</ele><time>2026-04-18T07:42:48.188Z</time></trkpt><trkpt lat="45.1913401" lon="8.0858133"><ele>155.0</ele><time>2026-04-18T07:42:49.188Z</time></trkpt><trkpt lat="45.1912486" lon="8.0860317"><ele>155.0</ele><time>2026-04-18T07:42:50.188Z</time></trkpt><trkpt lat="45.191154" lon="8.0862499"><ele>155.0</ele><time>2026-04-18T07:42:51.188Z</time></trkpt><trkpt lat="45.1910586" lon="8.0864697"><ele>155.0</ele><time>2026-04-18T07:42:52.188Z</time></trkpt><trkpt lat="45.1909645" lon="8.0866915"><ele>155.0</ele><time>2026-04-18T07:42:53.188Z</time></trkpt><trkpt lat="45.1908678" lon="8.0869117"><ele>155.0</ele><time>2026-04-18T07:42:54.189Z</time></trkpt><trkpt lat="45.1907732" lon="8.0871305"><ele>155.0</ele><time>2026-04-18T07:42:55.188Z</time></trkpt><trkpt lat="45.1906789" lon="8.0873484"><ele>155.0</ele><time>2026-04-18T07:42:56.188Z</time></trkpt><trkpt lat="45.1905843" lon="8.0875662"><ele>155.0</ele><time>2026-04-18T07:42:57.188Z</time></trkpt><trkpt lat="45.1904874" lon="8.0877843"><ele>155.0</ele><time>2026-04-18T07:42:58.188Z</time></trkpt><trkpt lat="45.1903892" lon="8.0879982"><ele>155.0</ele><time>2026-04-18T07:42:59.188Z</time></trkpt><trkpt lat="45.1902952" lon="8.0882109"><ele>155.0</ele><time>2026-04-18T07:43:00.188Z</time></trkpt><trkpt lat="45.190199" lon="8.088427"><ele>155.0</ele><time>2026-04-18T07:43:01.188Z</time></trkpt><trkpt lat="45.1901026" lon="8.0886447"><ele>155.0</ele><time>2026-04-18T07:43:02.188Z</time></trkpt><trkpt lat="45.1900048" lon="8.0888641"><ele>155.0</ele><time>2026-04-18T07:43:03.188Z</time></trkpt><trkpt lat="45.1899083" lon="8.0890855"><ele>155.0</ele><time>2026-04-18T07:43:04.188Z</time></trkpt><trkpt lat="45.1898119" lon="8.0893078"><ele>155.0</ele><time>2026-04-18T07:43:05.188Z</time></trkpt><trkpt lat="45.1897148" lon="8.0895309"><ele>155.0</ele><time>2026-04-18T07:43:06.189Z</time></trkpt><trkpt lat="45.1896171" lon="8.0897572"><ele>155.0</ele><time>2026-04-18T07:43:07.188Z</time></trkpt><trkpt lat="45.1895195" lon="8.0899862"><ele>154.66666666666666</ele><time>2026-04-18T07:43:08.189Z</time></trkpt><trkpt lat="45.1894209" lon="8.0902126"><ele>154.33333333333334</ele><time>2026-04-18T07:43:09.188Z</time></trkpt><trkpt lat="45.1893212" lon="8.0904383"><ele>154.0</ele><time>2026-04-18T07:43:10.188Z</time></trkpt><trkpt lat="45.1892198" lon="8.0906658"><ele>154.0</ele><time>2026-04-18T07:43:11.189Z</time></trkpt><trkpt lat="45.1891198" lon="8.0908955"><ele>154.0</ele><time>2026-04-18T07:43:12.188Z</time></trkpt><trkpt lat="45.189019" lon="8.0911286"><ele>154.0</ele><time>2026-04-18T07:43:13.188Z</time></trkpt><trkpt lat="45.1889169" lon="8.0913574"><ele>153.33333333333334</ele><time>2026-04-18T07:43:14.188Z</time></trkpt><trkpt lat="45.1888151" lon="8.0915864"><ele>152.66666666666666</ele><time>2026-04-18T07:43:15.188Z</time></trkpt><trkpt lat="45.1887119" lon="8.0918197"><ele>152.0</ele><time>2026-04-18T07:43:16.188Z</time></trkpt><trkpt lat="45.1886126" lon="8.0920519"><ele>152.0</ele><time>2026-04-18T07:43:17.188Z</time></trkpt><trkpt lat="45.1885154" lon="8.0922834"><ele>152.0</ele><time>2026-04-18T07:43:18.188Z</time></trkpt><trkpt lat="45.1884161" lon="8.0925195"><ele>152.0</ele><time>2026-04-18T07:43:19.188Z</time></trkpt><trkpt lat="45.1883139" lon="8.0927534"><ele>152.0</ele><time>2026-04-18T07:43:20.188Z</time></trkpt><trkpt lat="45.1882156" lon="8.0929874"><ele>152.0</ele><time>2026-04-18T07:43:21.188Z</time></trkpt><trkpt lat="45.1881174" lon="8.0932145"><ele>152.0</ele><time>2026-04-18T07:43:22.188Z</time></trkpt><trkpt lat="45.1880129" lon="8.0934428"><ele>151.66666666666666</ele><time>2026-04-18T07:43:23.188Z</time></trkpt><trkpt lat="45.1879114" lon="8.0936698"><ele>151.33333333333334</ele><time>2026-04-18T07:43:24.188Z</time></trkpt><trkpt lat="45.1878134" lon="8.0939011"><ele>151.0</ele><time>2026-04-18T07:43:25.189Z</time></trkpt><trkpt lat="45.1877143" lon="8.0941321"><ele>151.0</ele><time>2026-04-18T07:43:26.188Z</time></trkpt><trkpt lat="45.1876149" lon="8.0943646"><ele>151.0</ele><time>2026-04-18T07:43:27.188Z</time></trkpt><trkpt lat="45.1875158" lon="8.094596"><ele>151.0</ele><time>2026-04-18T07:43:28.188Z</time></trkpt><trkpt lat="45.1874154" lon="8.0948227"><ele>151.0</ele><time>2026-04-18T07:43:29.188Z</time></trkpt><trkpt lat="45.1873201" lon="8.0950372"><ele>151.0</ele><time>2026-04-18T07:43:30.189Z</time></trkpt><trkpt lat="45.1872249" lon="8.0952488"><ele>151.0</ele><time>2026-04-18T07:43:31.188Z</time></trkpt><trkpt lat="45.1871372" lon="8.0954582"><ele>151.0</ele><time>2026-04-18T07:43:32.188Z</time></trkpt><trkpt lat="45.187062" lon="8.0956486"><ele>151.0</ele><time>2026-04-18T07:43:33.189Z</time></trkpt><trkpt lat="45.1869942" lon="8.0958276"><ele>151.0</ele><time>2026-04-18T07:43:34.188Z</time></trkpt><trkpt lat="45.1869323" lon="8.095994"><ele>151.0</ele><time>2026-04-18T07:43:35.188Z</time></trkpt><trkpt lat="45.1868762" lon="8.0961588"><ele>151.0</ele><time>2026-04-18T07:43:36.188Z</time></trkpt><trkpt lat="45.1868171" lon="8.0963257"><ele>151.0</ele><time>2026-04-18T07:43:37.188Z</time></trkpt><trkpt lat="45.1867596" lon="8.0964862"><ele>151.0</ele><time>2026-04-18T07:43:38.189Z</time></trkpt><trkpt lat="45.1867099" lon="8.0966302"><ele>151.0</ele><time>2026-04-18T07:43:39.188Z</time></trkpt><trkpt lat="45.1866653" lon="8.0967661"><ele>151.0</ele><time>2026-04-18T07:43:40.188Z</time></trkpt><trkpt lat="45.1866207" lon="8.0968878"><ele>151.0</ele><time>2026-04-18T07:43:41.188Z</time></trkpt><trkpt lat="45.1865775" lon="8.096994"><ele>151.0</ele><time>2026-04-18T07:43:42.188Z</time></trkpt><trkpt lat="45.1865354" lon="8.0970865"><ele>151.0</ele><time>2026-04-18T07:43:43.189Z</time></trkpt><trkpt lat="45.1864947" lon="8.0971655"><ele>151.0</ele><time>2026-04-18T07:43:44.188Z</time></trkpt><trkpt lat="45.1864361" lon="8.0972774"><ele>151.0</ele><time>2026-04-18T07:43:46.188Z</time></trkpt><trkpt lat="45.1864018" lon="8.09737"><ele>151.0</ele><time>2026-04-18T07:43:48.188Z</time></trkpt><trkpt lat="45.1863727" lon="8.0975118"><ele>151.0</ele><time>2026-04-18T07:46:35.189Z</time></trkpt><trkpt lat="45.1863281" lon="8.0977054"><ele>151.0</ele><time>2026-04-18T07:46:37.188Z</time></trkpt><trkpt lat="45.1861966" lon="8.09804"><ele>151.0</ele><time>2026-04-18T07:46:40.188Z</time></trkpt><trkpt lat="45.1861293" lon="8.098126"><ele>151.0</ele><time>2026-04-18T07:46:41.188Z</time></trkpt><trkpt lat="45.1860453" lon="8.0981652"><ele>151.0</ele><time>2026-04-18T07:46:42.188Z</time></trkpt><trkpt lat="45.1859545" lon="8.0981787"><ele>151.0</ele><time>2026-04-18T07:46:43.189Z</time></trkpt><trkpt lat="45.1858623" lon="8.0981771"><ele>151.0</ele><time>2026-04-18T07:46:44.188Z</time></trkpt><trkpt lat="45.1857731" lon="8.0981768"><ele>151.0</ele><time>2026-04-18T07:46:45.188Z</time></trkpt><trkpt lat="45.1856922" lon="8.0981981"><ele>151.0</ele><time>2026-04-18T07:46:46.188Z</time></trkpt><trkpt lat="45.1856158" lon="8.0982651"><ele>151.0</ele><time>2026-04-18T07:46:47.188Z</time></trkpt><trkpt lat="45.1855479" lon="8.0983533"><ele>151.0</ele><time>2026-04-18T07:46:48.188Z</time></trkpt><trkpt lat="45.1855057" lon="8.0984795"><ele>151.0</ele><time>2026-04-18T07:46:49.188Z</time></trkpt><trkpt lat="45.185478" lon="8.0986174"><ele>150.75</ele><time>2026-04-18T07:46:50.188Z</time></trkpt><trkpt lat="45.1854706" lon="8.0987864"><ele>150.5</ele><time>2026-04-18T07:46:51.189Z</time></trkpt><trkpt lat="45.1854701" lon="8.0989687"><ele>150.25</ele><time>2026-04-18T07:46:52.188Z</time></trkpt><trkpt lat="45.1854675" lon="8.0991521"><ele>150.0</ele><time>2026-04-18T07:46:53.188Z</time></trkpt><trkpt lat="45.185459" lon="8.0993369"><ele>150.25</ele><time>2026-04-18T07:46:54.188Z</time></trkpt><trkpt lat="45.1854514" lon="8.0995371"><ele>150.5</ele><time>2026-04-18T07:46:55.189Z</time></trkpt><trkpt lat="45.1854458" lon="8.0997512"><ele>150.75</ele><time>2026-04-18T07:46:56.188Z</time></trkpt><trkpt lat="45.1854403" lon="8.0999624"><ele>151.0</ele><time>2026-04-18T07:46:57.188Z</time></trkpt><trkpt lat="45.1854344" lon="8.1001554"><ele>151.0</ele><time>2026-04-18T07:46:58.189Z</time></trkpt><trkpt lat="45.1854241" lon="8.1003225"><ele>151.0</ele><time>2026-04-18T07:46:59.188Z</time></trkpt><trkpt lat="45.1854169" lon="8.1004586"><ele>151.0</ele><time>2026-04-18T07:47:00.188Z</time></trkpt><trkpt lat="45.1853999" lon="8.1005803"><ele>151.0</ele><time>2026-04-18T07:47:01.188Z</time></trkpt><trkpt lat="45.1853624" lon="8.1006964"><ele>151.0</ele><time>2026-04-18T07:47:02.188Z</time></trkpt><trkpt lat="45.1853088" lon="8.1007958"><ele>151.0</ele><time>2026-04-18T07:47:03.188Z</time></trkpt><trkpt lat="45.1852406" lon="8.1008839"><ele>151.0</ele><time>2026-04-18T07:47:04.188Z</time></trkpt><trkpt lat="45.1851689" lon="8.1009459"><ele>151.0</ele><time>2026-04-18T07:47:05.188Z</time></trkpt><trkpt lat="45.1850902" lon="8.1009717"><ele>151.0</ele><time>2026-04-18T07:47:06.188Z</time></trkpt><trkpt lat="45.1850032" lon="8.1009708"><ele>151.0</ele><time>2026-04-18T07:47:07.189Z</time></trkpt><trkpt lat="45.1849072" lon="8.1009495"><ele>151.0</ele><time>2026-04-18T07:47:08.188Z</time></trkpt><trkpt lat="45.1847941" lon="8.10092"><ele>151.0</ele><time>2026-04-18T07:47:09.188Z</time></trkpt><trkpt lat="45.1846648" lon="8.1008826"><ele>151.0</ele><time>2026-04-18T07:47:10.188Z</time></trkpt><trkpt lat="45.1845341" lon="8.1008571"><ele>151.0</ele><time>2026-04-18T07:47:11.188Z</time></trkpt><trkpt lat="45.184401" lon="8.1008274"><ele>151.0</ele><time>2026-04-18T07:47:12.188Z</time></trkpt><trkpt lat="45.1842551" lon="8.1008028"><ele>151.0</ele><time>2026-04-18T07:47:13.188Z</time></trkpt><trkpt lat="45.1841096" lon="8.1007782"><ele>151.0</ele><time>2026-04-18T07:47:14.188Z</time></trkpt><trkpt lat="45.183964" lon="8.1007428"><ele>151.0</ele><time>2026-04-18T07:47:15.189Z</time></trkpt><trkpt lat="45.1838122" lon="8.1007108"><ele>151.0</ele><time>2026-04-18T07:47:16.188Z</time></trkpt><trkpt lat="45.1836685" lon="8.1006767"><ele>152.25</ele><time>2026-04-18T07:47:17.188Z</time></trkpt><trkpt lat="45.183525" lon="8.1006447"><ele>153.5</ele><time>2026-04-18T07:47:18.188Z</time></trkpt><trkpt lat="45.1833813" lon="8.1006151"><ele>154.75</ele><time>2026-04-18T07:47:19.188Z</time></trkpt><trkpt lat="45.1832414" lon="8.1005845"><ele>156.0</ele><time>2026-04-18T07:47:20.188Z</time></trkpt><trkpt lat="45.1831039" lon="8.1005499"><ele>156.25</ele><time>2026-04-18T07:47:21.188Z</time></trkpt><trkpt lat="45.1829667" lon="8.1005122"><ele>156.5</ele><time>2026-04-18T07:47:22.188Z</time></trkpt><trkpt lat="45.1828273" lon="8.1004782"><ele>156.75</ele><time>2026-04-18T07:47:23.188Z</time></trkpt><trkpt lat="45.182693" lon="8.1004453"><ele>157.0</ele><time>2026-04-18T07:47:24.189Z</time></trkpt><trkpt lat="45.1825524" lon="8.1004171"><ele>157.0</ele><time>2026-04-18T07:47:25.188Z</time></trkpt><trkpt lat="45.1824146" lon="8.1003918"><ele>157.0</ele><time>2026-04-18T07:47:26.188Z</time></trkpt><trkpt lat="45.1822733" lon="8.1003612"><ele>157.0</ele><time>2026-04-18T07:47:27.188Z</time></trkpt><trkpt lat="45.18213" lon="8.1003291"><ele>157.0</ele><time>2026-04-18T07:47:28.188Z</time></trkpt><trkpt lat="45.1819846" lon="8.1002918"><ele>156.25</ele><time>2026-04-18T07:47:29.188Z</time></trkpt><trkpt lat="45.1818368" lon="8.1002541"><ele>155.5</ele><time>2026-04-18T07:47:30.189Z</time></trkpt><trkpt lat="45.1816905" lon="8.1002206"><ele>154.75</ele><time>2026-04-18T07:47:31.188Z</time></trkpt><trkpt lat="45.1815452" lon="8.1001853"><ele>154.0</ele><time>2026-04-18T07:47:32.188Z</time></trkpt><trkpt lat="45.1813997" lon="8.1001544"><ele>153.33333333333334</ele><time>2026-04-18T07:47:33.188Z</time></trkpt><trkpt lat="45.1812505" lon="8.1001232"><ele>152.66666666666666</ele><time>2026-04-18T07:47:34.188Z</time></trkpt><trkpt lat="45.1810997" lon="8.1000856"><ele>152.0</ele><time>2026-04-18T07:47:35.188Z</time></trkpt><trkpt lat="45.1809488" lon="8.1000539"><ele>152.0</ele><time>2026-04-18T07:47:36.188Z</time></trkpt><trkpt lat="45.1808043" lon="8.1000193"><ele>152.0</ele><time>2026-04-18T07:47:37.188Z</time></trkpt><trkpt lat="45.1806579" lon="8.0999816"><ele>152.0</ele><time>2026-04-18T07:47:38.188Z</time></trkpt><trkpt lat="45.1805136" lon="8.0999479"><ele>152.0</ele><time>2026-04-18T07:47:39.188Z</time></trkpt><trkpt lat="45.1803646" lon="8.0999153"><ele>151.5</ele><time>2026-04-18T07:47:40.188Z</time></trkpt><trkpt lat="45.180223" lon="8.0998799"><ele>151.0</ele><time>2026-04-18T07:47:41.188Z</time></trkpt><trkpt lat="45.1800793" lon="8.0998454"><ele>150.5</ele><time>2026-04-18T07:47:42.188Z</time></trkpt><trkpt lat="45.1799377" lon="8.0998074"><ele>150.0</ele><time>2026-04-18T07:47:43.188Z</time></trkpt><trkpt lat="45.1797927" lon="8.099767"><ele>149.0</ele><time>2026-04-18T07:47:44.188Z</time></trkpt><trkpt lat="45.1796409" lon="8.0997343"><ele>148.0</ele><time>2026-04-18T07:47:45.188Z</time></trkpt><trkpt lat="45.1794873" lon="8.0997002"><ele>147.0</ele><time>2026-04-18T07:47:46.188Z</time></trkpt><trkpt lat="45.1793424" lon="8.0996721"><ele>147.0</ele><time>2026-04-18T07:47:47.188Z</time></trkpt><trkpt lat="45.179204" lon="8.0996388"><ele>147.0</ele><time>2026-04-18T07:47:48.188Z</time></trkpt><trkpt lat="45.1790672" lon="8.0996061"><ele>147.0</ele><time>2026-04-18T07:47:49.188Z</time></trkpt><trkpt lat="45.1789355" lon="8.0995761"><ele>147.0</ele><time>2026-04-18T07:47:50.188Z</time></trkpt><trkpt lat="45.1788053" lon="8.0995475"><ele>147.25</ele><time>2026-04-18T07:47:51.188Z</time></trkpt><trkpt lat="45.1786805" lon="8.0995187"><ele>147.5</ele><time>2026-04-18T07:47:52.188Z</time></trkpt><trkpt lat="45.1785583" lon="8.0994879"><ele>147.75</ele><time>2026-04-18T07:47:53.188Z</time></trkpt><trkpt lat="45.1784344" lon="8.099456"><ele>148.0</ele><time>2026-04-18T07:47:54.188Z</time></trkpt><trkpt lat="45.1783091" lon="8.0994195"><ele>148.0</ele><time>2026-04-18T07:47:55.188Z</time></trkpt><trkpt lat="45.1781824" lon="8.099386"><ele>148.0</ele><time>2026-04-18T07:47:56.188Z</time></trkpt><trkpt lat="45.1780549" lon="8.0993574"><ele>148.0</ele><time>2026-04-18T07:47:57.188Z</time></trkpt><trkpt lat="45.1779222" lon="8.0993281"><ele>148.0</ele><time>2026-04-18T07:47:58.188Z</time></trkpt><trkpt lat="45.1777883" lon="8.0992936"><ele>148.0</ele><time>2026-04-18T07:47:59.188Z</time></trkpt><trkpt lat="45.1776555" lon="8.0992627"><ele>148.0</ele><time>2026-04-18T07:48:00.188Z</time></trkpt><trkpt lat="45.1775321" lon="8.0992335"><ele>148.0</ele><time>2026-04-18T07:48:01.188Z</time></trkpt><trkpt lat="45.1774157" lon="8.0992056"><ele>148.0</ele><time>2026-04-18T07:48:02.188Z</time></trkpt><trkpt lat="45.1772951" lon="8.0991811"><ele>148.0</ele><time>2026-04-18T07:48:03.188Z</time></trkpt><trkpt lat="45.1771799" lon="8.0991536"><ele>148.0</ele><time>2026-04-18T07:48:04.189Z</time></trkpt><trkpt lat="45.1770668" lon="8.0991239"><ele>148.0</ele><time>2026-04-18T07:48:05.188Z</time></trkpt><trkpt lat="45.1769482" lon="8.0990993"><ele>148.0</ele><time>2026-04-18T07:48:06.189Z</time></trkpt><trkpt lat="45.1768335" lon="8.0990741"><ele>148.0</ele><time>2026-04-18T07:48:07.188Z</time></trkpt><trkpt lat="45.1767118" lon="8.099045"><ele>148.0</ele><time>2026-04-18T07:48:08.188Z</time></trkpt><trkpt lat="45.176584" lon="8.0990156"><ele>148.0</ele><time>2026-04-18T07:48:09.188Z</time></trkpt><trkpt lat="45.1764491" lon="8.0989881"><ele>148.0</ele><time>2026-04-18T07:48:10.189Z</time></trkpt><trkpt lat="45.1763125" lon="8.0989579"><ele>148.6</ele><time>2026-04-18T07:48:11.189Z</time></trkpt><trkpt lat="45.1761753" lon="8.0989231"><ele>149.20000000000002</ele><time>2026-04-18T07:48:12.188Z</time></trkpt><trkpt lat="45.1760534" lon="8.0988921"><ele>149.8</ele><time>2026-04-18T07:48:13.189Z</time></trkpt><trkpt lat="45.1759523" lon="8.0988715"><ele>150.4</ele><time>2026-04-18T07:48:14.188Z</time></trkpt><trkpt lat="45.1758712" lon="8.0988599"><ele>151.0</ele><time>2026-04-18T07:48:15.188Z</time></trkpt><trkpt lat="45.1757753" lon="8.0988468"><ele>151.0</ele><time>2026-04-18T07:48:17.188Z</time></trkpt><trkpt lat="45.175694" lon="8.0988271"><ele>151.0</ele><time>2026-04-18T07:48:19.188Z</time></trkpt><trkpt lat="45.175595" lon="8.0987988"><ele>151.0</ele><time>2026-04-18T07:48:21.188Z</time></trkpt><trkpt lat="45.1755227" lon="8.0987843"><ele>151.0</ele><time>2026-04-18T07:48:22.188Z</time></trkpt><trkpt lat="45.1754425" lon="8.0987658"><ele>151.0</ele><time>2026-04-18T07:48:23.189Z</time></trkpt><trkpt lat="45.1753539" lon="8.0987439"><ele>151.0</ele><time>2026-04-18T07:48:24.188Z</time></trkpt><trkpt lat="45.1752544" lon="8.09872"><ele>152.0</ele><time>2026-04-18T07:48:25.188Z</time></trkpt><trkpt lat="45.1751512" lon="8.098696"><ele>153.0</ele><time>2026-04-18T07:48:26.188Z</time></trkpt><trkpt lat="45.1750443" lon="8.0986717"><ele>154.0</ele><time>2026-04-18T07:48:27.188Z</time></trkpt><trkpt lat="45.1749319" lon="8.0986462"><ele>155.0</ele><time>2026-04-18T07:48:28.188Z</time></trkpt><trkpt lat="45.1748148" lon="8.0986095"><ele>156.0</ele><time>2026-04-18T07:48:29.188Z</time></trkpt><trkpt lat="45.1746895" lon="8.0985644"><ele>158.0</ele><time>2026-04-18T07:48:30.188Z</time></trkpt><trkpt lat="45.1745624" lon="8.0985085"><ele>160.0</ele><time>2026-04-18T07:48:31.189Z</time></trkpt><trkpt lat="45.1744507" lon="8.0984396"><ele>162.0</ele><time>2026-04-18T07:48:32.188Z</time></trkpt><trkpt lat="45.1743468" lon="8.0983722"><ele>164.0</ele><time>2026-04-18T07:48:33.189Z</time></trkpt><trkpt lat="45.1742531" lon="8.0982965"><ele>164.2</ele><time>2026-04-18T07:48:34.188Z</time></trkpt><trkpt lat="45.1741693" lon="8.0982169"><ele>164.39999999999998</ele><time>2026-04-18T07:48:35.188Z</time></trkpt><trkpt lat="45.1740933" lon="8.0981334"><ele>164.6</ele><time>2026-04-18T07:48:36.189Z</time></trkpt><trkpt lat="45.1740314" lon="8.0980773"><ele>164.8</ele><time>2026-04-18T07:48:37.188Z</time></trkpt><trkpt lat="45.1739177" lon="8.0980696"><ele>165.0</ele><time>2026-04-18T07:48:39.189Z</time></trkpt><trkpt lat="45.1738102" lon="8.0981802"><ele>165.0</ele><time>2026-04-18T07:48:41.188Z</time></trkpt><trkpt lat="45.1738012" lon="8.0982846"><ele>165.0</ele><time>2026-04-18T07:48:42.189Z</time></trkpt><trkpt lat="45.1737671" lon="8.098383"><ele>165.0</ele><time>2026-04-18T07:48:43.189Z</time></trkpt><trkpt lat="45.1736912" lon="8.0984798"><ele>165.0</ele><time>2026-04-18T07:48:44.189Z</time></trkpt><trkpt lat="45.1735891" lon="8.0985487"><ele>165.0</ele><time>2026-04-18T07:48:45.188Z</time></trkpt><trkpt lat="45.1734868" lon="8.0985948"><ele>165.0</ele><time>2026-04-18T07:48:46.188Z</time></trkpt><trkpt lat="45.1733844" lon="8.0986051"><ele>165.0</ele><time>2026-04-18T07:48:47.188Z</time></trkpt><trkpt lat="45.1732666" lon="8.0985653"><ele>165.0</ele><time>2026-04-18T07:48:48.188Z</time></trkpt><trkpt lat="45.1731439" lon="8.0985109"><ele>165.0</ele><time>2026-04-18T07:48:49.188Z</time></trkpt><trkpt lat="45.1730188" lon="8.0984713"><ele>167.4</ele><time>2026-04-18T07:48:50.188Z</time></trkpt><trkpt lat="45.1728933" lon="8.0984518"><ele>169.8</ele><time>2026-04-18T07:48:51.188Z</time></trkpt><trkpt lat="45.1727771" lon="8.0984545"><ele>172.2</ele><time>2026-04-18T07:48:52.188Z</time></trkpt><trkpt lat="45.1726698" lon="8.0984881"><ele>174.6</ele><time>2026-04-18T07:48:53.188Z</time></trkpt><trkpt lat="45.1725901" lon="8.0985444"><ele>177.0</ele><time>2026-04-18T07:48:54.189Z</time></trkpt><trkpt lat="45.1725278" lon="8.0985944"><ele>177.0</ele><time>2026-04-18T07:48:55.188Z</time></trkpt><trkpt lat="45.1724932" lon="8.0986765"><ele>177.0</ele><time>2026-04-18T07:48:56.189Z</time></trkpt><trkpt lat="45.1724779" lon="8.0987814"><ele>177.0</ele><time>2026-04-18T07:48:57.188Z</time></trkpt><trkpt lat="45.1724872" lon="8.098902"><ele>177.0</ele><time>2026-04-18T07:48:58.188Z</time></trkpt><trkpt lat="45.1725152" lon="8.0990143"><ele>177.0</ele><time>2026-04-18T07:48:59.188Z</time></trkpt><trkpt lat="45.1725389" lon="8.0991344"><ele>177.0</ele><time>2026-04-18T07:49:00.189Z</time></trkpt><trkpt lat="45.1725389" lon="8.0992686"><ele>176.0</ele><time>2026-04-18T07:49:01.188Z</time></trkpt><trkpt lat="45.1725015" lon="8.099418"><ele>175.0</ele><time>2026-04-18T07:49:02.189Z</time></trkpt><trkpt lat="45.172447" lon="8.0995632"><ele>174.0</ele><time>2026-04-18T07:49:03.188Z</time></trkpt><trkpt lat="45.1723745" lon="8.0997193"><ele>173.0</ele><time>2026-04-18T07:49:04.188Z</time></trkpt><trkpt lat="45.1723061" lon="8.0998945"><ele>175.0</ele><time>2026-04-18T07:49:05.188Z</time></trkpt><trkpt lat="45.172229" lon="8.1000581"><ele>177.0</ele><time>2026-04-18T07:49:06.188Z</time></trkpt><trkpt lat="45.1721264" lon="8.1001992"><ele>179.0</ele><time>2026-04-18T07:49:07.188Z</time></trkpt><trkpt lat="45.1720017" lon="8.1003408"><ele>181.0</ele><time>2026-04-18T07:49:08.188Z</time></trkpt><trkpt lat="45.1718726" lon="8.1004696"><ele>181.0</ele><time>2026-04-18T07:49:09.189Z</time></trkpt><trkpt lat="45.1717462" lon="8.1005833"><ele>181.0</ele><time>2026-04-18T07:49:10.188Z</time></trkpt><trkpt lat="45.1716263" lon="8.1006606"><ele>181.0</ele><time>2026-04-18T07:49:11.188Z</time></trkpt><trkpt lat="45.1715201" lon="8.1007244"><ele>181.0</ele><time>2026-04-18T07:49:12.188Z</time></trkpt><trkpt lat="45.1714302" lon="8.1007762"><ele>182.14285714285714</ele><time>2026-04-18T07:49:13.188Z</time></trkpt><trkpt lat="45.171352" lon="8.100838"><ele>183.28571428571428</ele><time>2026-04-18T07:49:14.188Z</time></trkpt><trkpt lat="45.1712989" lon="8.1009175"><ele>184.42857142857144</ele><time>2026-04-18T07:49:15.188Z</time></trkpt><trkpt lat="45.1713032" lon="8.1010118"><ele>185.57142857142856</ele><time>2026-04-18T07:49:16.188Z</time></trkpt><trkpt lat="45.1713175" lon="8.1011042"><ele>186.71428571428572</ele><time>2026-04-18T07:49:17.188Z</time></trkpt><trkpt lat="45.1713772" lon="8.101172"><ele>187.85714285714286</ele><time>2026-04-18T07:49:18.188Z</time></trkpt><trkpt lat="45.1714326" lon="8.1012196"><ele>189.0</ele><time>2026-04-18T07:49:19.188Z</time></trkpt><trkpt lat="45.1714518" lon="8.1013837"><ele>189.0</ele><time>2026-04-18T07:49:21.188Z</time></trkpt><trkpt lat="45.1714173" lon="8.1014932"><ele>189.0</ele><time>2026-04-18T07:49:22.188Z</time></trkpt><trkpt lat="45.1713606" lon="8.101576"><ele>189.0</ele><time>2026-04-18T07:49:23.188Z</time></trkpt><trkpt lat="45.1712894" lon="8.1016257"><ele>189.0</ele><time>2026-04-18T07:49:24.188Z</time></trkpt><trkpt lat="45.1712158" lon="8.1016537"><ele>189.0</ele><time>2026-04-18T07:49:25.188Z</time></trkpt><trkpt lat="45.171122" lon="8.1016575"><ele>189.0</ele><time>2026-04-18T07:49:26.189Z</time></trkpt><trkpt lat="45.1710265" lon="8.101645"><ele>189.0</ele><time>2026-04-18T07:49:27.188Z</time></trkpt><trkpt lat="45.1709355" lon="8.1015864"><ele>189.0</ele><time>2026-04-18T07:49:28.188Z</time></trkpt><trkpt lat="45.1708277" lon="8.101506"><ele>189.0</ele><time>2026-04-18T07:49:29.188Z</time></trkpt><trkpt lat="45.1707221" lon="8.1014299"><ele>189.0</ele><time>2026-04-18T07:49:30.188Z</time></trkpt><trkpt lat="45.1706259" lon="8.1013646"><ele>189.0</ele><time>2026-04-18T07:49:31.188Z</time></trkpt><trkpt lat="45.1705462" lon="8.1013181"><ele>192.0</ele><time>2026-04-18T07:49:32.188Z</time></trkpt><trkpt lat="45.1704633" lon="8.1012917"><ele>195.0</ele><time>2026-04-18T07:49:33.188Z</time></trkpt><trkpt lat="45.1703769" lon="8.1013004"><ele>198.0</ele><time>2026-04-18T07:49:34.189Z</time></trkpt><trkpt lat="45.1702997" lon="8.1013278"><ele>201.0</ele><time>2026-04-18T07:49:35.188Z</time></trkpt><trkpt lat="45.1702347" lon="8.1014045"><ele>204.0</ele><time>2026-04-18T07:49:36.188Z</time></trkpt><trkpt lat="45.1701872" lon="8.1015071"><ele>207.0</ele><time>2026-04-18T07:49:37.188Z</time></trkpt><trkpt lat="45.1701704" lon="8.1016131"><ele>207.8</ele><time>2026-04-18T07:49:38.188Z</time></trkpt><trkpt lat="45.1701716" lon="8.1017377"><ele>208.6</ele><time>2026-04-18T07:49:39.188Z</time></trkpt><trkpt lat="45.1701931" lon="8.1018819"><ele>209.4</ele><time>2026-04-18T07:49:40.188Z</time></trkpt><trkpt lat="45.170236" lon="8.1020333"><ele>210.20000000000002</ele><time>2026-04-18T07:49:41.188Z</time></trkpt><trkpt lat="45.1703046" lon="8.1021785"><ele>211.0</ele><time>2026-04-18T07:49:42.188Z</time></trkpt><trkpt lat="45.1703675" lon="8.1023181"><ele>211.0</ele><time>2026-04-18T07:49:43.188Z</time></trkpt><trkpt lat="45.1704043" lon="8.1024631"><ele>211.0</ele><time>2026-04-18T07:49:44.188Z</time></trkpt><trkpt lat="45.1704203" lon="8.1026062"><ele>211.0</ele><time>2026-04-18T07:49:45.188Z</time></trkpt><trkpt lat="45.1703985" lon="8.1027498"><ele>211.0</ele><time>2026-04-18T07:49:46.188Z</time></trkpt><trkpt lat="45.1703583" lon="8.1029119"><ele>211.0</ele><time>2026-04-18T07:49:47.188Z</time></trkpt><trkpt lat="45.1702995" lon="8.1030718"><ele>211.0</ele><time>2026-04-18T07:49:48.188Z</time></trkpt><trkpt lat="45.1702333" lon="8.1032247"><ele>211.0</ele><time>2026-04-18T07:49:49.188Z</time></trkpt><trkpt lat="45.1701569" lon="8.1033634"><ele>211.0</ele><time>2026-04-18T07:49:50.188Z</time></trkpt><trkpt lat="45.1700606" lon="8.1034729"><ele>211.0</ele><time>2026-04-18T07:49:51.188Z</time></trkpt><trkpt lat="45.1699622" lon="8.1035416"><ele>215.75</ele><time>2026-04-18T07:49:52.188Z</time></trkpt><trkpt lat="45.1698418" lon="8.1035972"><ele>220.5</ele><time>2026-04-18T07:49:53.188Z</time></trkpt><trkpt lat="45.169706" lon="8.1036433"><ele>225.25</ele><time>2026-04-18T07:49:54.188Z</time></trkpt><trkpt lat="45.1695776" lon="8.1036768"><ele>230.0</ele><time>2026-04-18T07:49:55.189Z</time></trkpt><trkpt lat="45.1694611" lon="8.1037212"><ele>230.0</ele><time>2026-04-18T07:49:56.188Z</time></trkpt><trkpt lat="45.1693522" lon="8.103782"><ele>230.0</ele><time>2026-04-18T07:49:57.188Z</time></trkpt><trkpt lat="45.1692543" lon="8.1038998"><ele>230.0</ele><time>2026-04-18T07:49:58.188Z</time></trkpt><trkpt lat="45.1691802" lon="8.1040367"><ele>230.0</ele><time>2026-04-18T07:49:59.188Z</time></trkpt><trkpt lat="45.1691159" lon="8.1042008"><ele>229.75</ele><time>2026-04-18T07:50:00.188Z</time></trkpt><trkpt lat="45.1690746" lon="8.1043754"><ele>229.5</ele><time>2026-04-18T07:50:01.189Z</time></trkpt><trkpt lat="45.1690536" lon="8.1045724"><ele>229.25</ele><time>2026-04-18T07:50:02.188Z</time></trkpt><trkpt lat="45.1690292" lon="8.1047744"><ele>229.0</ele><time>2026-04-18T07:50:03.188Z</time></trkpt><trkpt lat="45.169007" lon="8.1049582"><ele>229.0</ele><time>2026-04-18T07:50:04.188Z</time></trkpt><trkpt lat="45.1689716" lon="8.1050972"><ele>228.99999999999997</ele><time>2026-04-18T07:50:05.188Z</time></trkpt><trkpt lat="45.1689105" lon="8.105229"><ele>228.99999999999997</ele><time>2026-04-18T07:50:06.188Z</time></trkpt><trkpt lat="45.168834" lon="8.1053392"><ele>229.0</ele><time>2026-04-18T07:50:07.189Z</time></trkpt><trkpt lat="45.1687212" lon="8.1054008"><ele>229.0</ele><time>2026-04-18T07:50:08.188Z</time></trkpt><trkpt lat="45.1686047" lon="8.1054523"><ele>229.0</ele><time>2026-04-18T07:50:09.189Z</time></trkpt><trkpt lat="45.1684742" lon="8.1054908"><ele>229.0</ele><time>2026-04-18T07:50:10.188Z</time></trkpt><trkpt lat="45.1683386" lon="8.1054932"><ele>229.0</ele><time>2026-04-18T07:50:11.188Z</time></trkpt><trkpt lat="45.1681999" lon="8.1054883"><ele>229.0</ele><time>2026-04-18T07:50:12.188Z</time></trkpt><trkpt lat="45.168055" lon="8.1054833"><ele>231.66666666666666</ele><time>2026-04-18T07:50:13.188Z</time></trkpt><trkpt lat="45.1678943" lon="8.1054774"><ele>234.33333333333331</ele><time>2026-04-18T07:50:14.188Z</time></trkpt><trkpt lat="45.1677317" lon="8.1054532"><ele>237.0</ele><time>2026-04-18T07:50:15.189Z</time></trkpt><trkpt lat="45.1675688" lon="8.1054093"><ele>237.0</ele><time>2026-04-18T07:50:16.188Z</time></trkpt><trkpt lat="45.1674003" lon="8.1053419"><ele>237.0</ele><time>2026-04-18T07:50:17.188Z</time></trkpt><trkpt lat="45.167238" lon="8.1052781"><ele>237.0</ele><time>2026-04-18T07:50:18.188Z</time></trkpt><trkpt lat="45.1670918" lon="8.1052471"><ele>237.25</ele><time>2026-04-18T07:50:19.188Z</time></trkpt><trkpt lat="45.1669462" lon="8.1052435"><ele>237.5</ele><time>2026-04-18T07:50:20.188Z</time></trkpt><trkpt lat="45.1667931" lon="8.1052612"><ele>237.75</ele><time>2026-04-18T07:50:21.188Z</time></trkpt><trkpt lat="45.166649" lon="8.105298"><ele>238.0</ele><time>2026-04-18T07:50:22.188Z</time></trkpt><trkpt lat="45.1665239" lon="8.1053529"><ele>238.0</ele><time>2026-04-18T07:50:23.188Z</time></trkpt><trkpt lat="45.1664153" lon="8.1053987"><ele>238.0</ele><time>2026-04-18T07:50:24.188Z</time></trkpt><trkpt lat="45.1663105" lon="8.1054078"><ele>238.0</ele><time>2026-04-18T07:50:25.188Z</time></trkpt><trkpt lat="45.1662139" lon="8.1053616"><ele>238.0</ele><time>2026-04-18T07:50:26.188Z</time></trkpt><trkpt lat="45.1661231" lon="8.105268"><ele>238.0</ele><time>2026-04-18T07:50:27.188Z</time></trkpt><trkpt lat="45.1660303" lon="8.1051441"><ele>238.0</ele><time>2026-04-18T07:50:28.188Z</time></trkpt><trkpt lat="45.1659279" lon="8.1050185"><ele>238.0</ele><time>2026-04-18T07:50:29.189Z</time></trkpt><trkpt lat="45.1658018" lon="8.1048979"><ele>238.0</ele><time>2026-04-18T07:50:30.188Z</time></trkpt><trkpt lat="45.1656615" lon="8.104805"><ele>238.0</ele><time>2026-04-18T07:50:31.188Z</time></trkpt><trkpt lat="45.1655259" lon="8.104739"><ele>239.25</ele><time>2026-04-18T07:50:32.188Z</time></trkpt><trkpt lat="45.1654128" lon="8.1046742"><ele>240.5</ele><time>2026-04-18T07:50:33.188Z</time></trkpt><trkpt lat="45.1653113" lon="8.1045732"><ele>241.75</ele><time>2026-04-18T07:50:34.189Z</time></trkpt><trkpt lat="45.1652289" lon="8.1044383"><ele>243.0</ele><time>2026-04-18T07:50:35.189Z</time></trkpt><trkpt lat="45.1651636" lon="8.1042699"><ele>243.0</ele><time>2026-04-18T07:50:36.188Z</time></trkpt><trkpt lat="45.1651063" lon="8.1040997"><ele>243.0</ele><time>2026-04-18T07:50:37.188Z</time></trkpt><trkpt lat="45.16504" lon="8.1039606"><ele>243.0</ele><time>2026-04-18T07:50:38.188Z</time></trkpt><trkpt lat="45.1649688" lon="8.1038609"><ele>243.0</ele><time>2026-04-18T07:50:39.189Z</time></trkpt><trkpt lat="45.1648878" lon="8.1038019"><ele>243.0</ele><time>2026-04-18T07:50:40.188Z</time></trkpt><trkpt lat="45.1647933" lon="8.1037996"><ele>247.25</ele><time>2026-04-18T07:50:41.188Z</time></trkpt><trkpt lat="45.1646917" lon="8.1038495"><ele>251.5</ele><time>2026-04-18T07:50:42.188Z</time></trkpt><trkpt lat="45.16459" lon="8.1039069"><ele>255.75</ele><time>2026-04-18T07:50:43.188Z</time></trkpt><trkpt lat="45.1644762" lon="8.1039506"><ele>260.0</ele><time>2026-04-18T07:50:44.188Z</time></trkpt><trkpt lat="45.1643538" lon="8.1039813"><ele>260.0</ele><time>2026-04-18T07:50:45.188Z</time></trkpt><trkpt lat="45.1642176" lon="8.1040047"><ele>260.0</ele><time>2026-04-18T07:50:46.188Z</time></trkpt><trkpt lat="45.1640738" lon="8.1039975"><ele>260.0</ele><time>2026-04-18T07:50:47.189Z</time></trkpt><trkpt lat="45.1639252" lon="8.1039827"><ele>260.0</ele><time>2026-04-18T07:50:48.188Z</time></trkpt><trkpt lat="45.1637786" lon="8.1040046"><ele>260.25</ele><time>2026-04-18T07:50:49.188Z</time></trkpt><trkpt lat="45.1636425" lon="8.1040621"><ele>260.5</ele><time>2026-04-18T07:50:50.188Z</time></trkpt><trkpt lat="45.1635197" lon="8.1041249"><ele>260.75</ele><time>2026-04-18T07:50:51.188Z</time></trkpt><trkpt lat="45.1634131" lon="8.1041699"><ele>261.0</ele><time>2026-04-18T07:50:52.189Z</time></trkpt><trkpt lat="45.1633135" lon="8.1041943"><ele>259.2</ele><time>2026-04-18T07:50:53.188Z</time></trkpt><trkpt lat="45.1632157" lon="8.104189"><ele>257.40000000000003</ele><time>2026-04-18T07:50:54.188Z</time></trkpt><trkpt lat="45.1631201" lon="8.1041605"><ele>255.6</ele><time>2026-04-18T07:50:55.188Z</time></trkpt><trkpt lat="45.1630425" lon="8.1040926"><ele>253.8</ele><time>2026-04-18T07:50:56.189Z</time></trkpt><trkpt lat="45.1629779" lon="8.1039899"><ele>252.0</ele><time>2026-04-18T07:50:57.188Z</time></trkpt><trkpt lat="45.162953" lon="8.1038579"><ele>250.5</ele><time>2026-04-18T07:50:58.189Z</time></trkpt><trkpt lat="45.1629466" lon="8.1037117"><ele>249.0</ele><time>2026-04-18T07:50:59.189Z</time></trkpt><trkpt lat="45.1629414" lon="8.1035453"><ele>247.5</ele><time>2026-04-18T07:51:00.188Z</time></trkpt><trkpt lat="45.1629392" lon="8.1033539"><ele>246.0</ele><time>2026-04-18T07:51:01.189Z</time></trkpt><trkpt lat="45.1629466" lon="8.1031335"><ele>245.0</ele><time>2026-04-18T07:51:02.189Z</time></trkpt><trkpt lat="45.1629629" lon="8.1029078"><ele>244.0</ele><time>2026-04-18T07:51:03.188Z</time></trkpt><trkpt lat="45.1629859" lon="8.1026934"><ele>243.0</ele><time>2026-04-18T07:51:04.188Z</time></trkpt><trkpt lat="45.1630187" lon="8.1024782"><ele>244.0</ele><time>2026-04-18T07:51:05.188Z</time></trkpt><trkpt lat="45.1630549" lon="8.1022426"><ele>245.0</ele><time>2026-04-18T07:51:06.189Z</time></trkpt><trkpt lat="45.1630984" lon="8.101992"><ele>246.0</ele><time>2026-04-18T07:51:07.188Z</time></trkpt><trkpt lat="45.1631372" lon="8.1017299"><ele>246.33333333333331</ele><time>2026-04-18T07:51:08.188Z</time></trkpt><trkpt lat="45.163174" lon="8.1014662"><ele>246.66666666666666</ele><time>2026-04-18T07:51:09.189Z</time></trkpt><trkpt lat="45.1632145" lon="8.1012017"><ele>247.0</ele><time>2026-04-18T07:51:10.188Z</time></trkpt><trkpt lat="45.163251" lon="8.1009331"><ele>251.33333333333331</ele><time>2026-04-18T07:51:11.188Z</time></trkpt><trkpt lat="45.1632914" lon="8.100659"><ele>255.66666666666669</ele><time>2026-04-18T07:51:12.188Z</time></trkpt><trkpt lat="45.163331" lon="8.1003882"><ele>260.0</ele><time>2026-04-18T07:51:13.188Z</time></trkpt><trkpt lat="45.1633717" lon="8.1001208"><ele>259.33333333333337</ele><time>2026-04-18T07:51:14.189Z</time></trkpt><trkpt lat="45.1634117" lon="8.0998516"><ele>258.6666666666667</ele><time>2026-04-18T07:51:15.188Z</time></trkpt><trkpt lat="45.1634491" lon="8.099596"><ele>258.0</ele><time>2026-04-18T07:51:16.188Z</time></trkpt><trkpt lat="45.1634847" lon="8.099352"><ele>258.0</ele><time>2026-04-18T07:51:17.188Z</time></trkpt><trkpt lat="45.163518" lon="8.0991303"><ele>258.0</ele><time>2026-04-18T07:51:18.188Z</time></trkpt><trkpt lat="45.1635461" lon="8.0989334"><ele>258.0</ele><time>2026-04-18T07:51:19.189Z</time></trkpt><trkpt lat="45.1635692" lon="8.0987458"><ele>258.0</ele><time>2026-04-18T07:51:20.188Z</time></trkpt><trkpt lat="45.1635979" lon="8.0985803"><ele>258.0</ele><time>2026-04-18T07:51:21.188Z</time></trkpt><trkpt lat="45.1636185" lon="8.0984331"><ele>258.0</ele><time>2026-04-18T07:51:22.188Z</time></trkpt><trkpt lat="45.1636174" lon="8.0982947"><ele>258.0</ele><time>2026-04-18T07:51:23.188Z</time></trkpt><trkpt lat="45.1635901" lon="8.098154"><ele>258.0</ele><time>2026-04-18T07:51:24.188Z</time></trkpt><trkpt lat="45.1635302" lon="8.0980018"><ele>258.0</ele><time>2026-04-18T07:51:25.189Z</time></trkpt><trkpt lat="45.1634458" lon="8.0978469"><ele>258.0</ele><time>2026-04-18T07:51:26.189Z</time></trkpt><trkpt lat="45.1633475" lon="8.0976919"><ele>258.0</ele><time>2026-04-18T07:51:27.188Z</time></trkpt><trkpt lat="45.1632394" lon="8.0975223"><ele>258.0</ele><time>2026-04-18T07:51:28.188Z</time></trkpt><trkpt lat="45.1631278" lon="8.0973435"><ele>258.3333333333333</ele><time>2026-04-18T07:51:29.188Z</time></trkpt><trkpt lat="45.1630098" lon="8.0971539"><ele>258.66666666666663</ele><time>2026-04-18T07:51:30.189Z</time></trkpt><trkpt lat="45.1628871" lon="8.0969706"><ele>259.0</ele><time>2026-04-18T07:51:31.188Z</time></trkpt><trkpt lat="45.1627783" lon="8.0967917"><ele>259.0</ele><time>2026-04-18T07:51:32.188Z</time></trkpt><trkpt lat="45.1626681" lon="8.0966213"><ele>259.0</ele><time>2026-04-18T07:51:33.188Z</time></trkpt><trkpt lat="45.1625453" lon="8.0964729"><ele>259.0</ele><time>2026-04-18T07:51:34.189Z</time></trkpt><trkpt lat="45.1624041" lon="8.0963376"><ele>260.0</ele><time>2026-04-18T07:51:35.188Z</time></trkpt><trkpt lat="45.162265" lon="8.0962011"><ele>261.0</ele><time>2026-04-18T07:51:36.188Z</time></trkpt><trkpt lat="45.1621385" lon="8.0960771"><ele>262.0</ele><time>2026-04-18T07:51:37.189Z</time></trkpt><trkpt lat="45.1620156" lon="8.0959667"><ele>262.0</ele><time>2026-04-18T07:51:38.189Z</time></trkpt><trkpt lat="45.1619089" lon="8.0958631"><ele>262.0</ele><time>2026-04-18T07:51:39.188Z</time></trkpt><trkpt lat="45.1618021" lon="8.0957785"><ele>262.0</ele><time>2026-04-18T07:51:40.188Z</time></trkpt><trkpt lat="45.1616771" lon="8.0957293"><ele>262.0</ele><time>2026-04-18T07:51:41.188Z</time></trkpt><trkpt lat="45.1615293" lon="8.0957025"><ele>260.0</ele><time>2026-04-18T07:51:42.188Z</time></trkpt><trkpt lat="45.1613756" lon="8.0956923"><ele>258.0</ele><time>2026-04-18T07:51:43.187Z</time></trkpt><trkpt lat="45.1612119" lon="8.0956883"><ele>256.0</ele><time>2026-04-18T07:51:44.187Z</time></trkpt><trkpt lat="45.1610491" lon="8.0956891"><ele>256.0</ele><time>2026-04-18T07:51:45.188Z</time></trkpt><trkpt lat="45.1608952" lon="8.0956962"><ele>256.0</ele><time>2026-04-18T07:51:46.187Z</time></trkpt><trkpt lat="45.1607558" lon="8.0956967"><ele>256.0</ele><time>2026-04-18T07:51:47.187Z</time></trkpt><trkpt lat="45.1606325" lon="8.0956879"><ele>256.0</ele><time>2026-04-18T07:51:48.187Z</time></trkpt><trkpt lat="45.1605082" lon="8.0956732"><ele>258.75</ele><time>2026-04-18T07:51:49.188Z</time></trkpt><trkpt lat="45.1603722" lon="8.0956395"><ele>261.5</ele><time>2026-04-18T07:51:50.187Z</time></trkpt><trkpt lat="45.1602332" lon="8.0955604"><ele>264.25</ele><time>2026-04-18T07:51:51.187Z</time></trkpt><trkpt lat="45.1600943" lon="8.0954482"><ele>267.0</ele><time>2026-04-18T07:51:52.187Z</time></trkpt><trkpt lat="45.1599477" lon="8.0953255"><ele>268.3333333333333</ele><time>2026-04-18T07:51:53.187Z</time></trkpt><trkpt lat="45.1597925" lon="8.0951844"><ele>269.66666666666663</ele><time>2026-04-18T07:51:54.187Z</time></trkpt><trkpt lat="45.1596265" lon="8.0950319"><ele>271.0</ele><time>2026-04-18T07:51:55.187Z</time></trkpt><trkpt lat="45.1594592" lon="8.0948716"><ele>271.3333333333333</ele><time>2026-04-18T07:51:56.187Z</time></trkpt><trkpt lat="45.1592958" lon="8.0947143"><ele>271.6666666666667</ele><time>2026-04-18T07:51:57.187Z</time></trkpt><trkpt lat="45.1591533" lon="8.0945833"><ele>272.0</ele><time>2026-04-18T07:51:58.187Z</time></trkpt><trkpt lat="45.1590158" lon="8.0944549"><ele>273.25</ele><time>2026-04-18T07:51:59.188Z</time></trkpt><trkpt lat="45.15888" lon="8.09435"><ele>274.5</ele><time>2026-04-18T07:52:00.187Z</time></trkpt><trkpt lat="45.1587548" lon="8.0942709"><ele>275.75</ele><time>2026-04-18T07:52:01.187Z</time></trkpt><trkpt lat="45.1586428" lon="8.0942028"><ele>277.0</ele><time>2026-04-18T07:52:02.187Z</time></trkpt><trkpt lat="45.1585521" lon="8.0941548"><ele>277.0</ele><time>2026-04-18T07:52:03.187Z</time></trkpt><trkpt lat="45.1584819" lon="8.0941098"><ele>277.0</ele><time>2026-04-18T07:52:04.187Z</time></trkpt><trkpt lat="45.15842" lon="8.0939998"><ele>277.0</ele><time>2026-04-18T07:52:06.187Z</time></trkpt><trkpt lat="45.1583784" lon="8.0938359"><ele>277.0</ele><time>2026-04-18T07:52:08.187Z</time></trkpt><trkpt lat="45.1583489" lon="8.0937507"><ele>277.0</ele><time>2026-04-18T07:52:09.188Z</time></trkpt><trkpt lat="45.1583199" lon="8.0936656"><ele>277.0</ele><time>2026-04-18T07:52:10.188Z</time></trkpt><trkpt lat="45.1582897" lon="8.0935828"><ele>277.3333333333333</ele><time>2026-04-18T07:52:11.187Z</time></trkpt><trkpt lat="45.1582709" lon="8.0934955"><ele>277.66666666666663</ele><time>2026-04-18T07:52:12.188Z</time></trkpt><trkpt lat="45.1582452" lon="8.0934091"><ele>278.0</ele><time>2026-04-18T07:52:13.187Z</time></trkpt><trkpt lat="45.158221" lon="8.0933194"><ele>278.3333333333333</ele><time>2026-04-18T07:52:14.187Z</time></trkpt><trkpt lat="45.1581752" lon="8.0931735"><ele>278.6666666666667</ele><time>2026-04-18T07:52:16.187Z</time></trkpt><trkpt lat="45.1581337" lon="8.093059"><ele>279.0</ele><time>2026-04-18T07:52:18.187Z</time></trkpt><trkpt lat="45.1581042" lon="8.0929523"><ele>279.0</ele><time>2026-04-18T07:52:20.187Z</time></trkpt><trkpt lat="45.1580565" lon="8.0927979"><ele>279.0</ele><time>2026-04-18T07:52:22.188Z</time></trkpt><trkpt lat="45.1580233" lon="8.0927151"><ele>279.0</ele><time>2026-04-18T07:52:23.187Z</time></trkpt><trkpt lat="45.1579821" lon="8.0926298"><ele>279.0</ele><time>2026-04-18T07:52:24.187Z</time></trkpt><trkpt lat="45.1579399" lon="8.0925444"><ele>279.0</ele><time>2026-04-18T07:52:25.188Z</time></trkpt><trkpt lat="45.1578911" lon="8.0924682"><ele>279.0</ele><time>2026-04-18T07:52:26.187Z</time></trkpt><trkpt lat="45.157844" lon="8.0923915"><ele>276.8333333333333</ele><time>2026-04-18T07:52:27.187Z</time></trkpt><trkpt lat="45.1577962" lon="8.092306"><ele>274.6666666666667</ele><time>2026-04-18T07:52:28.187Z</time></trkpt><trkpt lat="45.1577452" lon="8.092219"><ele>272.5</ele><time>2026-04-18T07:52:29.187Z</time></trkpt><trkpt lat="45.1576893" lon="8.0921244"><ele>270.33333333333337</ele><time>2026-04-18T07:52:30.187Z</time></trkpt><trkpt lat="45.1576314" lon="8.0920296"><ele>268.1666666666667</ele><time>2026-04-18T07:52:31.187Z</time></trkpt><trkpt lat="45.1575824" lon="8.0919488"><ele>266.0</ele><time>2026-04-18T07:52:32.187Z</time></trkpt><trkpt lat="45.1575375" lon="8.0918768"><ele>266.0</ele><time>2026-04-18T07:52:33.187Z</time></trkpt><trkpt lat="45.1574927" lon="8.0917846"><ele>266.0</ele><time>2026-04-18T07:52:34.188Z</time></trkpt><trkpt lat="45.1574607" lon="8.0916812"><ele>266.0</ele><time>2026-04-18T07:52:35.187Z</time></trkpt><trkpt lat="45.1574503" lon="8.0915874"><ele>266.0</ele><time>2026-04-18T07:52:36.188Z</time></trkpt><trkpt lat="45.1574319" lon="8.0914931"><ele>266.0</ele><time>2026-04-18T07:52:37.187Z</time></trkpt><trkpt lat="45.1574145" lon="8.0913986"><ele>266.0</ele><time>2026-04-18T07:52:38.187Z</time></trkpt><trkpt lat="45.1573614" lon="8.0912713"><ele>266.1666666666667</ele><time>2026-04-18T07:52:40.187Z</time></trkpt><trkpt lat="45.157307" lon="8.0912182"><ele>266.33333333333337</ele><time>2026-04-18T07:52:41.187Z</time></trkpt><trkpt lat="45.157237" lon="8.0911523"><ele>266.5</ele><time>2026-04-18T07:52:42.187Z</time></trkpt><trkpt lat="45.1571718" lon="8.0910806"><ele>266.6666666666667</ele><time>2026-04-18T07:52:43.188Z</time></trkpt><trkpt lat="45.1571261" lon="8.0909964"><ele>266.8333333333333</ele><time>2026-04-18T07:52:44.187Z</time></trkpt><trkpt lat="45.1571045" lon="8.090898"><ele>267.0</ele><time>2026-04-18T07:52:45.187Z</time></trkpt><trkpt lat="45.1570915" lon="8.0907912"><ele>266.0</ele><time>2026-04-18T07:52:46.187Z</time></trkpt><trkpt lat="45.1570767" lon="8.0906667"><ele>265.0</ele><time>2026-04-18T07:52:47.187Z</time></trkpt><trkpt lat="45.1570508" lon="8.0905405"><ele>264.0</ele><time>2026-04-18T07:52:48.187Z</time></trkpt><trkpt lat="45.1570104" lon="8.0904233"><ele>263.0</ele><time>2026-04-18T07:52:49.187Z</time></trkpt><trkpt lat="45.156962" lon="8.090306"><ele>262.0</ele><time>2026-04-18T07:52:50.187Z</time></trkpt><trkpt lat="45.1569269" lon="8.0901715"><ele>262.0</ele><time>2026-04-18T07:52:51.187Z</time></trkpt><trkpt lat="45.156912" lon="8.0900383"><ele>262.0</ele><time>2026-04-18T07:52:52.188Z</time></trkpt><trkpt lat="45.1568976" lon="8.0899132"><ele>262.0</ele><time>2026-04-18T07:52:53.187Z</time></trkpt><trkpt lat="45.1568683" lon="8.0897969"><ele>262.0</ele><time>2026-04-18T07:52:54.187Z</time></trkpt><trkpt lat="45.1568261" lon="8.0896938"><ele>262.0</ele><time>2026-04-18T07:52:55.187Z</time></trkpt><trkpt lat="45.1567762" lon="8.0895943"><ele>262.0</ele><time>2026-04-18T07:52:56.187Z</time></trkpt><trkpt lat="45.1567318" lon="8.0895025"><ele>260.8</ele><time>2026-04-18T07:52:57.188Z</time></trkpt><trkpt lat="45.1566847" lon="8.0894048"><ele>259.6</ele><time>2026-04-18T07:52:58.187Z</time></trkpt><trkpt lat="45.156638" lon="8.0892878"><ele>258.40000000000003</ele><time>2026-04-18T07:52:59.187Z</time></trkpt><trkpt lat="45.1565965" lon="8.0891685"><ele>257.2</ele><time>2026-04-18T07:53:00.187Z</time></trkpt><trkpt lat="45.1565594" lon="8.0890403"><ele>256.0</ele><time>2026-04-18T07:53:01.187Z</time></trkpt><trkpt lat="45.156521" lon="8.0889078"><ele>255.99999999999997</ele><time>2026-04-18T07:53:02.187Z</time></trkpt><trkpt lat="45.1564755" lon="8.088778"><ele>256.0</ele><time>2026-04-18T07:53:03.187Z</time></trkpt><trkpt lat="45.1564327" lon="8.0886645"><ele>256.0</ele><time>2026-04-18T07:53:04.187Z</time></trkpt><trkpt lat="45.1563877" lon="8.0885621"><ele>256.0</ele><time>2026-04-18T07:53:05.187Z</time></trkpt><trkpt lat="45.1563481" lon="8.0884653"><ele>255.99999999999997</ele><time>2026-04-18T07:53:06.187Z</time></trkpt><trkpt lat="45.156309" lon="8.0883742"><ele>256.0</ele><time>2026-04-18T07:53:07.187Z</time></trkpt><trkpt lat="45.1562618" lon="8.0882838"><ele>254.99999999999997</ele><time>2026-04-18T07:53:08.187Z</time></trkpt><trkpt lat="45.1562104" lon="8.0881946"><ele>254.0</ele><time>2026-04-18T07:53:09.187Z</time></trkpt><trkpt lat="45.1561675" lon="8.0881215"><ele>253.0</ele><time>2026-04-18T07:53:10.187Z</time></trkpt><trkpt lat="45.1561224" lon="8.0880508"><ele>252.0</ele><time>2026-04-18T07:53:11.187Z</time></trkpt><trkpt lat="45.1560769" lon="8.0879708"><ele>250.99999999999997</ele><time>2026-04-18T07:53:12.187Z</time></trkpt><trkpt lat="45.1560267" lon="8.0878758"><ele>250.0</ele><time>2026-04-18T07:53:13.187Z</time></trkpt><trkpt lat="45.1559816" lon="8.0877832"><ele>249.99999999999997</ele><time>2026-04-18T07:53:14.188Z</time></trkpt><trkpt lat="45.1559457" lon="8.0876932"><ele>250.0</ele><time>2026-04-18T07:53:15.188Z</time></trkpt><trkpt lat="45.1559193" lon="8.0875987"><ele>250.0</ele><time>2026-04-18T07:53:16.187Z</time></trkpt><trkpt lat="45.1559045" lon="8.087486"><ele>250.0</ele><time>2026-04-18T07:53:17.187Z</time></trkpt><trkpt lat="45.1558957" lon="8.0873388"><ele>249.99999999999997</ele><time>2026-04-18T07:53:18.187Z</time></trkpt><trkpt lat="45.155877" lon="8.0871841"><ele>250.0</ele><time>2026-04-18T07:53:19.187Z</time></trkpt><trkpt lat="45.1558298" lon="8.0870282"><ele>249.25</ele><time>2026-04-18T07:53:20.187Z</time></trkpt><trkpt lat="45.1557642" lon="8.0868672"><ele>248.5</ele><time>2026-04-18T07:53:21.187Z</time></trkpt><trkpt lat="45.155693" lon="8.0866966"><ele>247.75</ele><time>2026-04-18T07:53:22.187Z</time></trkpt><trkpt lat="45.1556333" lon="8.0864997"><ele>247.0</ele><time>2026-04-18T07:53:23.187Z</time></trkpt><trkpt lat="45.1555822" lon="8.086329"><ele>248.2</ele><time>2026-04-18T07:53:24.187Z</time></trkpt><trkpt lat="45.155532" lon="8.0861811"><ele>249.39999999999998</ele><time>2026-04-18T07:53:25.187Z</time></trkpt><trkpt lat="45.1554861" lon="8.0860482"><ele>250.60000000000002</ele><time>2026-04-18T07:53:26.187Z</time></trkpt><trkpt lat="45.1554499" lon="8.0859308"><ele>251.8</ele><time>2026-04-18T07:53:27.187Z</time></trkpt><trkpt lat="45.1554211" lon="8.0858427"><ele>253.0</ele><time>2026-04-18T07:53:28.187Z</time></trkpt><trkpt lat="45.1553824" lon="8.0857455"><ele>254.2</ele><time>2026-04-18T07:53:30.187Z</time></trkpt><trkpt lat="45.1552953" lon="8.0857717"><ele>255.4</ele><time>2026-04-18T07:53:33.188Z</time></trkpt><trkpt lat="45.1552698" lon="8.0859242"><ele>256.59999999999997</ele><time>2026-04-18T07:53:35.187Z</time></trkpt><trkpt lat="45.155258" lon="8.0860511"><ele>257.8</ele><time>2026-04-18T07:53:36.187Z</time></trkpt><trkpt lat="45.1552519" lon="8.0862033"><ele>259.0</ele><time>2026-04-18T07:53:37.187Z</time></trkpt><trkpt lat="45.1552559" lon="8.0863671"><ele>259.0</ele><time>2026-04-18T07:53:38.187Z</time></trkpt><trkpt lat="45.1552664" lon="8.0865675"><ele>259.0</ele><time>2026-04-18T07:53:39.187Z</time></trkpt><trkpt lat="45.1552798" lon="8.086753"><ele>259.0</ele><time>2026-04-18T07:53:40.188Z</time></trkpt><trkpt lat="45.1552773" lon="8.086938"><ele>259.0</ele><time>2026-04-18T07:53:41.187Z</time></trkpt><trkpt lat="45.1552528" lon="8.087114"><ele>258.75</ele><time>2026-04-18T07:53:42.187Z</time></trkpt><trkpt lat="45.155205" lon="8.0872794"><ele>258.5</ele><time>2026-04-18T07:53:43.187Z</time></trkpt><trkpt lat="45.15512" lon="8.0874222"><ele>258.25</ele><time>2026-04-18T07:53:44.187Z</time></trkpt><trkpt lat="45.1550294" lon="8.0875479"><ele>258.0</ele><time>2026-04-18T07:53:45.187Z</time></trkpt><trkpt lat="45.1549389" lon="8.0876623"><ele>258.6</ele><time>2026-04-18T07:53:46.187Z</time></trkpt><trkpt lat="45.154873" lon="8.0877865"><ele>259.20000000000005</ele><time>2026-04-18T07:53:47.187Z</time></trkpt><trkpt lat="45.1548257" lon="8.087933"><ele>259.8</ele><time>2026-04-18T07:53:48.187Z</time></trkpt><trkpt lat="45.1548072" lon="8.0880805"><ele>260.40000000000003</ele><time>2026-04-18T07:53:49.187Z</time></trkpt><trkpt lat="45.1548187" lon="8.0882464"><ele>261.0</ele><time>2026-04-18T07:53:50.187Z</time></trkpt><trkpt lat="45.1548661" lon="8.088401"><ele>261.0</ele><time>2026-04-18T07:53:51.187Z</time></trkpt><trkpt lat="45.1549318" lon="8.0885512"><ele>261.0</ele><time>2026-04-18T07:53:52.187Z</time></trkpt><trkpt lat="45.1550093" lon="8.0887128"><ele>261.0</ele><time>2026-04-18T07:53:53.187Z</time></trkpt><trkpt lat="45.1550943" lon="8.0889039"><ele>261.0</ele><time>2026-04-18T07:53:54.187Z</time></trkpt><trkpt lat="45.1551888" lon="8.0890922"><ele>263.6666666666667</ele><time>2026-04-18T07:53:55.188Z</time></trkpt><trkpt lat="45.1552784" lon="8.0892836"><ele>266.33333333333337</ele><time>2026-04-18T07:53:56.187Z</time></trkpt><trkpt lat="45.1553763" lon="8.0894941"><ele>269.0</ele><time>2026-04-18T07:53:57.187Z</time></trkpt><trkpt lat="45.1554878" lon="8.0896933"><ele>269.0</ele><time>2026-04-18T07:53:58.187Z</time></trkpt><trkpt lat="45.1556072" lon="8.0898696"><ele>269.0</ele><time>2026-04-18T07:53:59.188Z</time></trkpt><trkpt lat="45.1557242" lon="8.0900122"><ele>269.0</ele><time>2026-04-18T07:54:00.187Z</time></trkpt><trkpt lat="45.1558397" lon="8.0901434"><ele>269.6666666666667</ele><time>2026-04-18T07:54:01.187Z</time></trkpt><trkpt lat="45.1559492" lon="8.0902985"><ele>270.3333333333333</ele><time>2026-04-18T07:54:02.188Z</time></trkpt><trkpt lat="45.1560467" lon="8.0904811"><ele>271.0</ele><time>2026-04-18T07:54:03.188Z</time></trkpt><trkpt lat="45.1561466" lon="8.0906684"><ele>274.0</ele><time>2026-04-18T07:54:04.187Z</time></trkpt><trkpt lat="45.1562493" lon="8.0908585"><ele>277.0</ele><time>2026-04-18T07:54:05.187Z</time></trkpt><trkpt lat="45.1563493" lon="8.0910356"><ele>280.0</ele><time>2026-04-18T07:54:06.188Z</time></trkpt><trkpt lat="45.1564381" lon="8.0912058"><ele>280.0</ele><time>2026-04-18T07:54:07.187Z</time></trkpt><trkpt lat="45.1565235" lon="8.0913722"><ele>280.0</ele><time>2026-04-18T07:54:08.187Z</time></trkpt><trkpt lat="45.1566036" lon="8.0915369"><ele>280.0</ele><time>2026-04-18T07:54:09.187Z</time></trkpt><trkpt lat="45.1566837" lon="8.091707"><ele>280.0</ele><time>2026-04-18T07:54:10.187Z</time></trkpt><trkpt lat="45.1567443" lon="8.0918887"><ele>279.5</ele><time>2026-04-18T07:54:11.187Z</time></trkpt><trkpt lat="45.1568031" lon="8.0920762"><ele>279.0</ele><time>2026-04-18T07:54:12.187Z</time></trkpt><trkpt lat="45.1568687" lon="8.0922573"><ele>278.5</ele><time>2026-04-18T07:54:13.187Z</time></trkpt><trkpt lat="45.156949" lon="8.0924196"><ele>278.0</ele><time>2026-04-18T07:54:14.187Z</time></trkpt><trkpt lat="45.1570247" lon="8.0925702"><ele>280.0</ele><time>2026-04-18T07:54:15.187Z</time></trkpt><trkpt lat="45.1570914" lon="8.0927106"><ele>282.0</ele><time>2026-04-18T07:54:16.188Z</time></trkpt><trkpt lat="45.1571503" lon="8.0928415"><ele>284.0</ele><time>2026-04-18T07:54:17.187Z</time></trkpt><trkpt lat="45.1571966" lon="8.0929667"><ele>286.0</ele><time>2026-04-18T07:54:18.187Z</time></trkpt><trkpt lat="45.1572225" lon="8.0930793"><ele>288.0</ele><time>2026-04-18T07:54:19.187Z</time></trkpt><trkpt lat="45.1572316" lon="8.0931749"><ele>288.2</ele><time>2026-04-18T07:54:20.187Z</time></trkpt><trkpt lat="45.1571857" lon="8.0932949"><ele>288.4</ele><time>2026-04-18T07:54:22.187Z</time></trkpt><trkpt lat="45.157107" lon="8.0933488"><ele>288.59999999999997</ele><time>2026-04-18T07:54:24.187Z</time></trkpt><trkpt lat="45.1570315" lon="8.0933835"><ele>288.8</ele><time>2026-04-18T07:54:25.188Z</time></trkpt><trkpt lat="45.1569247" lon="8.0934064"><ele>289.0</ele><time>2026-04-18T07:54:26.187Z</time></trkpt><trkpt lat="45.1568121" lon="8.0934186"><ele>289.0</ele><time>2026-04-18T07:54:27.187Z</time></trkpt><trkpt lat="45.1566819" lon="8.0934331"><ele>289.0</ele><time>2026-04-18T07:54:28.187Z</time></trkpt><trkpt lat="45.1565446" lon="8.0934454"><ele>289.0</ele><time>2026-04-18T07:54:29.187Z</time></trkpt><trkpt lat="45.1563992" lon="8.0934598"><ele>289.0</ele><time>2026-04-18T07:54:30.187Z</time></trkpt><trkpt lat="45.1562404" lon="8.0934859"><ele>290.3333333333333</ele><time>2026-04-18T07:54:31.187Z</time></trkpt><trkpt lat="45.1560694" lon="8.093514"><ele>291.6666666666667</ele><time>2026-04-18T07:54:32.188Z</time></trkpt><trkpt lat="45.1558977" lon="8.0935535"><ele>293.0</ele><time>2026-04-18T07:54:33.187Z</time></trkpt><trkpt lat="45.1557392" lon="8.0935862"><ele>294.0</ele><time>2026-04-18T07:54:34.187Z</time></trkpt><trkpt lat="45.155599" lon="8.0936077"><ele>295.0</ele><time>2026-04-18T07:54:35.187Z</time></trkpt><trkpt lat="45.1554714" lon="8.0936176"><ele>296.0</ele><time>2026-04-18T07:54:36.187Z</time></trkpt><trkpt lat="45.1553598" lon="8.0936259"><ele>297.0</ele><time>2026-04-18T07:54:37.187Z</time></trkpt><trkpt lat="45.1552632" lon="8.0936459"><ele>297.0</ele><time>2026-04-18T07:54:38.187Z</time></trkpt><trkpt lat="45.1551845" lon="8.0936699"><ele>297.0</ele><time>2026-04-18T07:54:39.187Z</time></trkpt><trkpt lat="45.1551197" lon="8.0937011"><ele>297.0</ele><time>2026-04-18T07:54:40.187Z</time></trkpt><trkpt lat="45.1550742" lon="8.0937647"><ele>297.0</ele><time>2026-04-18T07:54:41.187Z</time></trkpt><trkpt lat="45.155054" lon="8.093869"><ele>297.0</ele><time>2026-04-18T07:54:42.187Z</time></trkpt><trkpt lat="45.1550446" lon="8.0939977"><ele>297.0</ele><time>2026-04-18T07:54:43.187Z</time></trkpt><trkpt lat="45.1550206" lon="8.0941451"><ele>297.0</ele><time>2026-04-18T07:54:44.187Z</time></trkpt><trkpt lat="45.1549822" lon="8.0943146"><ele>297.0</ele><time>2026-04-18T07:54:45.187Z</time></trkpt><trkpt lat="45.1549373" lon="8.0944926"><ele>297.0</ele><time>2026-04-18T07:54:46.187Z</time></trkpt><trkpt lat="45.1548993" lon="8.0946607"><ele>297.0</ele><time>2026-04-18T07:54:47.188Z</time></trkpt><trkpt lat="45.1548678" lon="8.0948049"><ele>296.3333333333333</ele><time>2026-04-18T07:54:48.187Z</time></trkpt><trkpt lat="45.1548466" lon="8.0949296"><ele>295.6666666666667</ele><time>2026-04-18T07:54:49.187Z</time></trkpt><trkpt lat="45.1548201" lon="8.0950308"><ele>295.0</ele><time>2026-04-18T07:54:50.187Z</time></trkpt><trkpt lat="45.1547663" lon="8.0950814"><ele>294.33333333333337</ele><time>2026-04-18T07:54:51.187Z</time></trkpt><trkpt lat="45.1546896" lon="8.0951131"><ele>293.6666666666667</ele><time>2026-04-18T07:54:52.188Z</time></trkpt><trkpt lat="45.1546015" lon="8.0951282"><ele>293.0</ele><time>2026-04-18T07:54:53.187Z</time></trkpt><trkpt lat="45.1544969" lon="8.0951251"><ele>293.0</ele><time>2026-04-18T07:54:54.187Z</time></trkpt><trkpt lat="45.1543869" lon="8.0951025"><ele>293.0</ele><time>2026-04-18T07:54:55.188Z</time></trkpt><trkpt lat="45.1542727" lon="8.0950571"><ele>293.0</ele><time>2026-04-18T07:54:56.187Z</time></trkpt><trkpt lat="45.1541569" lon="8.0950233"><ele>293.0</ele><time>2026-04-18T07:54:57.187Z</time></trkpt><trkpt lat="45.1540376" lon="8.0950136"><ele>295.25</ele><time>2026-04-18T07:54:58.187Z</time></trkpt><trkpt lat="45.1539108" lon="8.0950355"><ele>297.5</ele><time>2026-04-18T07:54:59.187Z</time></trkpt><trkpt lat="45.1537871" lon="8.0950922"><ele>299.75</ele><time>2026-04-18T07:55:00.187Z</time></trkpt><trkpt lat="45.1536594" lon="8.0951872"><ele>302.0</ele><time>2026-04-18T07:55:01.188Z</time></trkpt><trkpt lat="45.1535465" lon="8.0952854"><ele>302.0</ele><time>2026-04-18T07:55:02.187Z</time></trkpt><trkpt lat="45.1534466" lon="8.095359"><ele>302.0</ele><time>2026-04-18T07:55:03.188Z</time></trkpt><trkpt lat="45.1533488" lon="8.0954373"><ele>302.0</ele><time>2026-04-18T07:55:04.188Z</time></trkpt><trkpt lat="45.1532696" lon="8.0955262"><ele>302.0</ele><time>2026-04-18T07:55:05.187Z</time></trkpt><trkpt lat="45.1532068" lon="8.0956466"><ele>302.0</ele><time>2026-04-18T07:55:06.187Z</time></trkpt><trkpt lat="45.1531632" lon="8.0957867"><ele>302.8</ele><time>2026-04-18T07:55:07.187Z</time></trkpt><trkpt lat="45.1531225" lon="8.0959352"><ele>303.6</ele><time>2026-04-18T07:55:08.187Z</time></trkpt><trkpt lat="45.1530757" lon="8.0960804"><ele>304.40000000000003</ele><time>2026-04-18T07:55:09.187Z</time></trkpt><trkpt lat="45.1530208" lon="8.0962128"><ele>305.2</ele><time>2026-04-18T07:55:10.187Z</time></trkpt><trkpt lat="45.1529557" lon="8.096347"><ele>306.0</ele><time>2026-04-18T07:55:11.188Z</time></trkpt><trkpt lat="45.1528765" lon="8.0964747"><ele>304.75</ele><time>2026-04-18T07:55:12.187Z</time></trkpt><trkpt lat="45.1527981" lon="8.0966069"><ele>303.5</ele><time>2026-04-18T07:55:13.187Z</time></trkpt><trkpt lat="45.1527289" lon="8.0967458"><ele>302.25</ele><time>2026-04-18T07:55:14.187Z</time></trkpt><trkpt lat="45.1526578" lon="8.0969065"><ele>301.0</ele><time>2026-04-18T07:55:15.187Z</time></trkpt><trkpt lat="45.152586" lon="8.0970833"><ele>301.0</ele><time>2026-04-18T07:55:16.187Z</time></trkpt><trkpt lat="45.1525228" lon="8.0972741"><ele>301.0</ele><time>2026-04-18T07:55:17.187Z</time></trkpt><trkpt lat="45.1524603" lon="8.0974663"><ele>301.0</ele><time>2026-04-18T07:55:18.187Z</time></trkpt><trkpt lat="45.1523985" lon="8.0976416"><ele>301.0</ele><time>2026-04-18T07:55:19.187Z</time></trkpt><trkpt lat="45.1523372" lon="8.097797"><ele>300.8</ele><time>2026-04-18T07:55:20.187Z</time></trkpt><trkpt lat="45.1522812" lon="8.0979332"><ele>300.6</ele><time>2026-04-18T07:55:21.188Z</time></trkpt><trkpt lat="45.1522299" lon="8.0980567"><ele>300.4</ele><time>2026-04-18T07:55:22.188Z</time></trkpt><trkpt lat="45.1521787" lon="8.0981604"><ele>300.2</ele><time>2026-04-18T07:55:23.188Z</time></trkpt><trkpt lat="45.1521158" lon="8.0982508"><ele>300.0</ele><time>2026-04-18T07:55:24.187Z</time></trkpt><trkpt lat="45.1520487" lon="8.0983155"><ele>300.4</ele><time>2026-04-18T07:55:25.187Z</time></trkpt><trkpt lat="45.1519779" lon="8.098354"><ele>300.8</ele><time>2026-04-18T07:55:26.187Z</time></trkpt><trkpt lat="45.1518945" lon="8.0983672"><ele>301.2</ele><time>2026-04-18T07:55:27.188Z</time></trkpt><trkpt lat="45.1518016" lon="8.0983734"><ele>301.6</ele><time>2026-04-18T07:55:28.188Z</time></trkpt><trkpt lat="45.1516957" lon="8.0983718"><ele>302.0</ele><time>2026-04-18T07:55:29.187Z</time></trkpt><trkpt lat="45.151584" lon="8.0983647"><ele>302.4</ele><time>2026-04-18T07:55:30.187Z</time></trkpt><trkpt lat="45.1514754" lon="8.0983612"><ele>302.79999999999995</ele><time>2026-04-18T07:55:31.188Z</time></trkpt><trkpt lat="45.1513755" lon="8.0983647"><ele>303.2</ele><time>2026-04-18T07:55:32.187Z</time></trkpt><trkpt lat="45.1512882" lon="8.0983945"><ele>303.59999999999997</ele><time>2026-04-18T07:55:33.187Z</time></trkpt><trkpt lat="45.1512083" lon="8.0984571"><ele>304.0</ele><time>2026-04-18T07:55:34.187Z</time></trkpt><trkpt lat="45.1511268" lon="8.0985519"><ele>304.0</ele><time>2026-04-18T07:55:35.187Z</time></trkpt><trkpt lat="45.1510354" lon="8.0986556"><ele>304.0</ele><time>2026-04-18T07:55:36.187Z</time></trkpt><trkpt lat="45.1509489" lon="8.0987458"><ele>304.0</ele><time>2026-04-18T07:55:37.187Z</time></trkpt><trkpt lat="45.1508589" lon="8.0988154"><ele>304.0</ele><time>2026-04-18T07:55:38.187Z</time></trkpt><trkpt lat="45.1507643" lon="8.0988648"><ele>304.0</ele><time>2026-04-18T07:55:39.187Z</time></trkpt><trkpt lat="45.1506658" lon="8.0988904"><ele>304.2</ele><time>2026-04-18T07:55:40.187Z</time></trkpt><trkpt lat="45.1505764" lon="8.0989039"><ele>304.4</ele><time>2026-04-18T07:55:41.187Z</time></trkpt><trkpt lat="45.1505016" lon="8.0989144"><ele>304.6</ele><time>2026-04-18T07:55:42.187Z</time></trkpt><trkpt lat="45.1504293" lon="8.0989802"><ele>304.8</ele><time>2026-04-18T07:55:44.187Z</time></trkpt><trkpt lat="45.1503835" lon="8.0991368"><ele>305.0</ele><time>2026-04-18T07:55:46.187Z</time></trkpt><trkpt lat="45.1503364" lon="8.0992692"><ele>306.0</ele><time>2026-04-18T07:55:47.187Z</time></trkpt><trkpt lat="45.1502758" lon="8.0994279"><ele>307.0</ele><time>2026-04-18T07:55:48.187Z</time></trkpt><trkpt lat="45.1501964" lon="8.0996045"><ele>308.0</ele><time>2026-04-18T07:55:49.187Z</time></trkpt><trkpt lat="45.1501194" lon="8.0997851"><ele>309.0</ele><time>2026-04-18T07:55:50.187Z</time></trkpt><trkpt lat="45.1500586" lon="8.0999356"><ele>309.0</ele><time>2026-04-18T07:55:51.188Z</time></trkpt><trkpt lat="45.1500059" lon="8.1000652"><ele>309.0</ele><time>2026-04-18T07:55:52.187Z</time></trkpt><trkpt lat="45.1499484" lon="8.1001799"><ele>309.0</ele><time>2026-04-18T07:55:53.187Z</time></trkpt><trkpt lat="45.1498919" lon="8.1002791"><ele>309.0</ele><time>2026-04-18T07:55:54.187Z</time></trkpt><trkpt lat="45.1498346" lon="8.1003629"><ele>309.0</ele><time>2026-04-18T07:55:55.187Z</time></trkpt><trkpt lat="45.1497739" lon="8.1004332"><ele>312.1666666666667</ele><time>2026-04-18T07:55:56.187Z</time></trkpt><trkpt lat="45.1497101" lon="8.100505"><ele>315.3333333333333</ele><time>2026-04-18T07:55:57.187Z</time></trkpt><trkpt lat="45.1496606" lon="8.1005923"><ele>318.5</ele><time>2026-04-18T07:55:58.188Z</time></trkpt><trkpt lat="45.1496381" lon="8.1006974"><ele>321.66666666666663</ele><time>2026-04-18T07:55:59.187Z</time></trkpt><trkpt lat="45.1496388" lon="8.1008231"><ele>324.8333333333333</ele><time>2026-04-18T07:56:00.188Z</time></trkpt><trkpt lat="45.1496462" lon="8.1009544"><ele>328.0</ele><time>2026-04-18T07:56:01.187Z</time></trkpt><trkpt lat="45.1496629" lon="8.1010696"><ele>328.0</ele><time>2026-04-18T07:56:02.187Z</time></trkpt><trkpt lat="45.149664" lon="8.1011836"><ele>328.0</ele><time>2026-04-18T07:56:03.188Z</time></trkpt><trkpt lat="45.1496447" lon="8.1013016"><ele>328.0</ele><time>2026-04-18T07:56:04.187Z</time></trkpt><trkpt lat="45.1496213" lon="8.1014397"><ele>328.0</ele><time>2026-04-18T07:56:05.188Z</time></trkpt><trkpt lat="45.1495923" lon="8.1015756"><ele>328.0</ele><time>2026-04-18T07:56:06.187Z</time></trkpt><trkpt lat="45.149558" lon="8.1016864"><ele>327.16666666666663</ele><time>2026-04-18T07:56:07.187Z</time></trkpt><trkpt lat="45.1495127" lon="8.1017874"><ele>326.3333333333333</ele><time>2026-04-18T07:56:08.187Z</time></trkpt><trkpt lat="45.1494533" lon="8.101878"><ele>325.5</ele><time>2026-04-18T07:56:09.187Z</time></trkpt><trkpt lat="45.1493933" lon="8.101964"><ele>324.6666666666667</ele><time>2026-04-18T07:56:10.187Z</time></trkpt><trkpt lat="45.1493368" lon="8.1020569"><ele>323.83333333333337</ele><time>2026-04-18T07:56:11.187Z</time></trkpt><trkpt lat="45.1492948" lon="8.1021678"><ele>323.0</ele><time>2026-04-18T07:56:12.187Z</time></trkpt><trkpt lat="45.1492535" lon="8.1022947"><ele>320.6666666666667</ele><time>2026-04-18T07:56:13.187Z</time></trkpt><trkpt lat="45.1492362" lon="8.1024362"><ele>318.33333333333337</ele><time>2026-04-18T07:56:14.188Z</time></trkpt><trkpt lat="45.1492097" lon="8.1025513"><ele>316.0</ele><time>2026-04-18T07:56:15.187Z</time></trkpt><trkpt lat="45.1491831" lon="8.1026764"><ele>313.6666666666667</ele><time>2026-04-18T07:56:16.187Z</time></trkpt><trkpt lat="45.1491754" lon="8.1027813"><ele>311.3333333333333</ele><time>2026-04-18T07:56:17.187Z</time></trkpt><trkpt lat="45.1491653" lon="8.1028709"><ele>309.0</ele><time>2026-04-18T07:56:18.187Z</time></trkpt><trkpt lat="45.1491073" lon="8.103037"><ele>309.0</ele><time>2026-04-18T07:56:20.187Z</time></trkpt><trkpt lat="45.1490699" lon="8.1031161"><ele>309.0</ele><time>2026-04-18T07:56:21.188Z</time></trkpt><trkpt lat="45.1490282" lon="8.1032095"><ele>309.0</ele><time>2026-04-18T07:56:22.188Z</time></trkpt><trkpt lat="45.1489889" lon="8.1033044"><ele>309.0</ele><time>2026-04-18T07:56:23.187Z</time></trkpt><trkpt lat="45.1489474" lon="8.1033951"><ele>309.0</ele><time>2026-04-18T07:56:24.187Z</time></trkpt><trkpt lat="45.1489089" lon="8.1034916"><ele>309.0</ele><time>2026-04-18T07:56:25.188Z</time></trkpt><trkpt lat="45.1488733" lon="8.1035829"><ele>306.0</ele><time>2026-04-18T07:56:26.188Z</time></trkpt><trkpt lat="45.1488446" lon="8.1036726"><ele>303.0</ele><time>2026-04-18T07:56:27.187Z</time></trkpt><trkpt lat="45.1487997" lon="8.1037728"><ele>300.0</ele><time>2026-04-18T07:56:28.187Z</time></trkpt><trkpt lat="45.1487471" lon="8.103866"><ele>297.0</ele><time>2026-04-18T07:56:29.188Z</time></trkpt><trkpt lat="45.1486976" lon="8.1039582"><ele>294.0</ele><time>2026-04-18T07:56:30.188Z</time></trkpt><trkpt lat="45.1486368" lon="8.1040438"><ele>291.0</ele><time>2026-04-18T07:56:31.187Z</time></trkpt><trkpt lat="45.1485642" lon="8.1041381"><ele>289.8</ele><time>2026-04-18T07:56:32.187Z</time></trkpt><trkpt lat="45.148505" lon="8.1042191"><ele>288.6</ele><time>2026-04-18T07:56:33.188Z</time></trkpt><trkpt lat="45.1484465" lon="8.1043135"><ele>287.4</ele><time>2026-04-18T07:56:34.187Z</time></trkpt><trkpt lat="45.1483895" lon="8.1044199"><ele>286.2</ele><time>2026-04-18T07:56:35.187Z</time></trkpt><trkpt lat="45.1483422" lon="8.1045288"><ele>285.0</ele><time>2026-04-18T07:56:36.187Z</time></trkpt><trkpt lat="45.1482992" lon="8.10467"><ele>285.0</ele><time>2026-04-18T07:56:37.187Z</time></trkpt><trkpt lat="45.1482559" lon="8.1048268"><ele>285.0</ele><time>2026-04-18T07:56:38.188Z</time></trkpt><trkpt lat="45.1482166" lon="8.1049666"><ele>285.0</ele><time>2026-04-18T07:56:39.187Z</time></trkpt><trkpt lat="45.1481826" lon="8.1050855"><ele>285.0</ele><time>2026-04-18T07:56:40.187Z</time></trkpt><trkpt lat="45.1481569" lon="8.1052119"><ele>285.0</ele><time>2026-04-18T07:56:41.187Z</time></trkpt><trkpt lat="45.1481234" lon="8.1053324"><ele>284.4</ele><time>2026-04-18T07:56:42.187Z</time></trkpt><trkpt lat="45.1480881" lon="8.1054357"><ele>283.8</ele><time>2026-04-18T07:56:43.187Z</time></trkpt><trkpt lat="45.1480359" lon="8.1055394"><ele>283.2</ele><time>2026-04-18T07:56:44.187Z</time></trkpt><trkpt lat="45.1479702" lon="8.1056609"><ele>282.6</ele><time>2026-04-18T07:56:45.187Z</time></trkpt><trkpt lat="45.1479065" lon="8.1057842"><ele>282.0</ele><time>2026-04-18T07:56:46.187Z</time></trkpt><trkpt lat="45.1478455" lon="8.1059231"><ele>282.0</ele><time>2026-04-18T07:56:47.187Z</time></trkpt><trkpt lat="45.1477869" lon="8.1060392"><ele>282.0</ele><time>2026-04-18T07:56:48.187Z</time></trkpt><trkpt lat="45.1477233" lon="8.1061455"><ele>282.0</ele><time>2026-04-18T07:56:49.187Z</time></trkpt><trkpt lat="45.1476461" lon="8.1062199"><ele>282.0</ele><time>2026-04-18T07:56:50.187Z</time></trkpt><trkpt lat="45.1475517" lon="8.1062909"><ele>282.0</ele><time>2026-04-18T07:56:51.187Z</time></trkpt><trkpt lat="45.1474466" lon="8.1063604"><ele>282.1666666666667</ele><time>2026-04-18T07:56:52.187Z</time></trkpt><trkpt lat="45.1473564" lon="8.1063987"><ele>282.3333333333333</ele><time>2026-04-18T07:56:53.187Z</time></trkpt><trkpt lat="45.1472713" lon="8.1064313"><ele>282.5</ele><time>2026-04-18T07:56:54.187Z</time></trkpt><trkpt lat="45.1471886" lon="8.1064556"><ele>282.66666666666663</ele><time>2026-04-18T07:56:55.187Z</time></trkpt><trkpt lat="45.1471209" lon="8.1064958"><ele>282.8333333333333</ele><time>2026-04-18T07:56:56.188Z</time></trkpt><trkpt lat="45.1470695" lon="8.1065753"><ele>283.0</ele><time>2026-04-18T07:56:57.187Z</time></trkpt><trkpt lat="45.1470519" lon="8.106712"><ele>283.0</ele><time>2026-04-18T07:56:58.187Z</time></trkpt><trkpt lat="45.1470553" lon="8.106866"><ele>283.0</ele><time>2026-04-18T07:56:59.187Z</time></trkpt><trkpt lat="45.1470475" lon="8.1070329"><ele>283.0</ele><time>2026-04-18T07:57:00.187Z</time></trkpt><trkpt lat="45.147044" lon="8.107206"><ele>283.0</ele><time>2026-04-18T07:57:01.187Z</time></trkpt><trkpt lat="45.1470547" lon="8.1073669"><ele>285.66666666666663</ele><time>2026-04-18T07:57:02.187Z</time></trkpt><trkpt lat="45.1470715" lon="8.1074994"><ele>288.3333333333333</ele><time>2026-04-18T07:57:03.188Z</time></trkpt><trkpt lat="45.1470863" lon="8.1076203"><ele>291.0</ele><time>2026-04-18T07:57:04.187Z</time></trkpt><trkpt lat="45.1471059" lon="8.1077206"><ele>293.6666666666667</ele><time>2026-04-18T07:57:05.187Z</time></trkpt><trkpt lat="45.1470604" lon="8.1078439"><ele>296.33333333333337</ele><time>2026-04-18T07:57:07.187Z</time></trkpt><trkpt lat="45.1469996" lon="8.1078813"><ele>299.0</ele><time>2026-04-18T07:57:08.187Z</time></trkpt><trkpt lat="45.1469247" lon="8.107879"><ele>299.0</ele><time>2026-04-18T07:57:09.187Z</time></trkpt><trkpt lat="45.146849" lon="8.1078672"><ele>299.0</ele><time>2026-04-18T07:57:10.187Z</time></trkpt><trkpt lat="45.1467606" lon="8.1078477"><ele>299.0</ele><time>2026-04-18T07:57:11.187Z</time></trkpt><trkpt lat="45.1466699" lon="8.1078276"><ele>299.0</ele><time>2026-04-18T07:57:12.188Z</time></trkpt><trkpt lat="45.1465761" lon="8.1077981"><ele>299.0</ele><time>2026-04-18T07:57:13.187Z</time></trkpt><trkpt lat="45.1464823" lon="8.1077401"><ele>298.0</ele><time>2026-04-18T07:57:14.187Z</time></trkpt><trkpt lat="45.1464024" lon="8.1076734"><ele>297.0</ele><time>2026-04-18T07:57:15.187Z</time></trkpt><trkpt lat="45.1463356" lon="8.1076244"><ele>296.0</ele><time>2026-04-18T07:57:16.187Z</time></trkpt><trkpt lat="45.1462745" lon="8.1075999"><ele>295.0</ele><time>2026-04-18T07:57:17.187Z</time></trkpt><trkpt lat="45.1461974" lon="8.1076151"><ele>294.0</ele><time>2026-04-18T07:57:18.187Z</time></trkpt><trkpt lat="45.1461355" lon="8.1076678"><ele>293.0</ele><time>2026-04-18T07:57:19.187Z</time></trkpt><trkpt lat="45.1460764" lon="8.107748"><ele>293.0</ele><time>2026-04-18T07:57:20.187Z</time></trkpt><trkpt lat="45.1460259" lon="8.1078285"><ele>293.0</ele><time>2026-04-18T07:57:21.187Z</time></trkpt><trkpt lat="45.1459885" lon="8.1079324"><ele>293.0</ele><time>2026-04-18T07:57:22.187Z</time></trkpt><trkpt lat="45.1459619" lon="8.1080563"><ele>293.0</ele><time>2026-04-18T07:57:23.187Z</time></trkpt><trkpt lat="45.1459543" lon="8.1082044"><ele>293.0</ele><time>2026-04-18T07:57:24.187Z</time></trkpt><trkpt lat="45.1459448" lon="8.108337"><ele>293.0</ele><time>2026-04-18T07:57:25.188Z</time></trkpt><trkpt lat="45.1459511" lon="8.1084482"><ele>293.0</ele><time>2026-04-18T07:57:26.187Z</time></trkpt><trkpt lat="45.1459749" lon="8.1085731"><ele>293.0</ele><time>2026-04-18T07:57:27.187Z</time></trkpt><trkpt lat="45.145998" lon="8.1086834"><ele>293.0</ele><time>2026-04-18T07:57:28.187Z</time></trkpt><trkpt lat="45.1460514" lon="8.1087885"><ele>293.0</ele><time>2026-04-18T07:57:29.187Z</time></trkpt><trkpt lat="45.1461143" lon="8.1089022"><ele>293.0</ele><time>2026-04-18T07:57:30.187Z</time></trkpt><trkpt lat="45.1461778" lon="8.109011"><ele>291.33333333333337</ele><time>2026-04-18T07:57:31.187Z</time></trkpt><trkpt lat="45.1462511" lon="8.1091075"><ele>289.6666666666667</ele><time>2026-04-18T07:57:32.187Z</time></trkpt><trkpt lat="45.1463239" lon="8.1091977"><ele>288.0</ele><time>2026-04-18T07:57:33.187Z</time></trkpt><trkpt lat="45.1463863" lon="8.1092766"><ele>286.3333333333333</ele><time>2026-04-18T07:57:34.187Z</time></trkpt><trkpt lat="45.146428" lon="8.109362"><ele>284.66666666666663</ele><time>2026-04-18T07:57:35.187Z</time></trkpt><trkpt lat="45.146446" lon="8.1094732"><ele>283.0</ele><time>2026-04-18T07:57:36.187Z</time></trkpt><trkpt lat="45.1464465" lon="8.109593"><ele>283.0</ele><time>2026-04-18T07:57:37.187Z</time></trkpt><trkpt lat="45.1464578" lon="8.109712"><ele>283.0</ele><time>2026-04-18T07:57:38.187Z</time></trkpt><trkpt lat="45.1464836" lon="8.1098163"><ele>283.0</ele><time>2026-04-18T07:57:39.187Z</time></trkpt><trkpt lat="45.1465368" lon="8.109946"><ele>283.0</ele><time>2026-04-18T07:57:40.188Z</time></trkpt><trkpt lat="45.1465699" lon="8.1100483"><ele>283.0</ele><time>2026-04-18T07:57:41.187Z</time></trkpt><trkpt lat="45.1465812" lon="8.1101584"><ele>283.0</ele><time>2026-04-18T07:57:42.188Z</time></trkpt><trkpt lat="45.1465714" lon="8.1102644"><ele>281.8333333333333</ele><time>2026-04-18T07:57:43.187Z</time></trkpt><trkpt lat="45.146547" lon="8.1103644"><ele>280.66666666666663</ele><time>2026-04-18T07:57:44.187Z</time></trkpt><trkpt lat="45.1465189" lon="8.1104485"><ele>279.5</ele><time>2026-04-18T07:57:45.187Z</time></trkpt><trkpt lat="45.1464652" lon="8.1105277"><ele>278.3333333333333</ele><time>2026-04-18T07:57:46.187Z</time></trkpt><trkpt lat="45.146386" lon="8.1105973"><ele>277.1666666666667</ele><time>2026-04-18T07:57:47.187Z</time></trkpt><trkpt lat="45.146305" lon="8.1106358"><ele>276.0</ele><time>2026-04-18T07:57:48.187Z</time></trkpt><trkpt lat="45.1462195" lon="8.1106681"><ele>276.0</ele><time>2026-04-18T07:57:49.187Z</time></trkpt><trkpt lat="45.1461374" lon="8.1107203"><ele>276.0</ele><time>2026-04-18T07:57:50.187Z</time></trkpt><trkpt lat="45.1460805" lon="8.1107631"><ele>276.0</ele><time>2026-04-18T07:57:51.187Z</time></trkpt><trkpt lat="45.1460299" lon="8.1108188"><ele>276.0</ele><time>2026-04-18T07:57:52.187Z</time></trkpt><trkpt lat="45.1459826" lon="8.1108846"><ele>276.0</ele><time>2026-04-18T07:57:53.187Z</time></trkpt><trkpt lat="45.14593" lon="8.1109599"><ele>276.0</ele><time>2026-04-18T07:57:54.188Z</time></trkpt><trkpt lat="45.1458677" lon="8.1110439"><ele>276.0</ele><time>2026-04-18T07:57:55.187Z</time></trkpt><trkpt lat="45.1457968" lon="8.1111382"><ele>276.2</ele><time>2026-04-18T07:57:56.188Z</time></trkpt><trkpt lat="45.1457174" lon="8.1112229"><ele>276.40000000000003</ele><time>2026-04-18T07:57:57.187Z</time></trkpt><trkpt lat="45.1456414" lon="8.1112843"><ele>276.6</ele><time>2026-04-18T07:57:58.187Z</time></trkpt><trkpt lat="45.1455497" lon="8.1113271"><ele>276.8</ele><time>2026-04-18T07:57:59.187Z</time></trkpt><trkpt lat="45.1454321" lon="8.1113545"><ele>277.0</ele><time>2026-04-18T07:58:00.187Z</time></trkpt><trkpt lat="45.1453173" lon="8.111362"><ele>277.0</ele><time>2026-04-18T07:58:01.188Z</time></trkpt><trkpt lat="45.1452062" lon="8.1113529"><ele>277.0</ele><time>2026-04-18T07:58:02.188Z</time></trkpt><trkpt lat="45.1450955" lon="8.1113182"><ele>277.0</ele><time>2026-04-18T07:58:03.187Z</time></trkpt><trkpt lat="45.1449975" lon="8.111279"><ele>277.0</ele><time>2026-04-18T07:58:04.187Z</time></trkpt><trkpt lat="45.1449198" lon="8.1112389"><ele>277.0</ele><time>2026-04-18T07:58:05.187Z</time></trkpt><trkpt lat="45.1448384" lon="8.1112262"><ele>278.5</ele><time>2026-04-18T07:58:06.187Z</time></trkpt><trkpt lat="45.1447707" lon="8.111224"><ele>280.0</ele><time>2026-04-18T07:58:07.187Z</time></trkpt><trkpt lat="45.1446979" lon="8.1112067"><ele>281.5</ele><time>2026-04-18T07:58:08.188Z</time></trkpt><trkpt lat="45.144618" lon="8.1111664"><ele>283.0</ele><time>2026-04-18T07:58:09.187Z</time></trkpt><trkpt lat="45.1445395" lon="8.111107"><ele>284.5</ele><time>2026-04-18T07:58:10.187Z</time></trkpt><trkpt lat="45.1444615" lon="8.1110104"><ele>286.0</ele><time>2026-04-18T07:58:11.187Z</time></trkpt><trkpt lat="45.1443935" lon="8.1109171"><ele>286.0</ele><time>2026-04-18T07:58:12.187Z</time></trkpt><trkpt lat="45.1443378" lon="8.1108329"><ele>286.0</ele><time>2026-04-18T07:58:13.187Z</time></trkpt><trkpt lat="45.1442877" lon="8.110743"><ele>286.0</ele><time>2026-04-18T07:58:14.187Z</time></trkpt><trkpt lat="45.1442523" lon="8.1106431"><ele>286.0</ele><time>2026-04-18T07:58:15.188Z</time></trkpt><trkpt lat="45.14422" lon="8.1105479"><ele>286.0</ele><time>2026-04-18T07:58:16.188Z</time></trkpt><trkpt lat="45.1441857" lon="8.1104541"><ele>286.0</ele><time>2026-04-18T07:58:17.187Z</time></trkpt><trkpt lat="45.1441546" lon="8.1103716"><ele>283.8</ele><time>2026-04-18T07:58:18.187Z</time></trkpt><trkpt lat="45.1440962" lon="8.110243"><ele>281.6</ele><time>2026-04-18T07:58:20.187Z</time></trkpt><trkpt lat="45.1440415" lon="8.1101127"><ele>279.4</ele><time>2026-04-18T07:58:22.187Z</time></trkpt><trkpt lat="45.1439781" lon="8.109961"><ele>277.2</ele><time>2026-04-18T07:58:24.187Z</time></trkpt><trkpt lat="45.1439337" lon="8.1098776"><ele>275.0</ele><time>2026-04-18T07:58:25.187Z</time></trkpt><trkpt lat="45.1438768" lon="8.1097953"><ele>273.1666666666667</ele><time>2026-04-18T07:58:26.187Z</time></trkpt><trkpt lat="45.1438252" lon="8.1097158"><ele>271.33333333333337</ele><time>2026-04-18T07:58:27.187Z</time></trkpt><trkpt lat="45.1437708" lon="8.1096394"><ele>269.5</ele><time>2026-04-18T07:58:28.187Z</time></trkpt><trkpt lat="45.1437249" lon="8.1095727"><ele>267.6666666666667</ele><time>2026-04-18T07:58:29.187Z</time></trkpt><trkpt lat="45.1436734" lon="8.1095155"><ele>265.8333333333333</ele><time>2026-04-18T07:58:30.188Z</time></trkpt><trkpt lat="45.1436165" lon="8.109467"><ele>264.0</ele><time>2026-04-18T07:58:31.187Z</time></trkpt><trkpt lat="45.1435131" lon="8.1094357"><ele>264.0</ele><time>2026-04-18T07:58:33.187Z</time></trkpt><trkpt lat="45.1434176" lon="8.1094378"><ele>264.0</ele><time>2026-04-18T07:58:35.187Z</time></trkpt><trkpt lat="45.1433367" lon="8.1095278"><ele>264.0</ele><time>2026-04-18T07:58:37.187Z</time></trkpt><trkpt lat="45.1432994" lon="8.1096703"><ele>264.0</ele><time>2026-04-18T07:58:39.187Z</time></trkpt><trkpt lat="45.143295" lon="8.1097665"><ele>264.0</ele><time>2026-04-18T07:58:40.187Z</time></trkpt><trkpt lat="45.1433049" lon="8.1098652"><ele>264.0</ele><time>2026-04-18T07:58:41.187Z</time></trkpt><trkpt lat="45.1433272" lon="8.1099647"><ele>265.6666666666667</ele><time>2026-04-18T07:58:42.187Z</time></trkpt><trkpt lat="45.1433446" lon="8.1100693"><ele>267.3333333333333</ele><time>2026-04-18T07:58:43.187Z</time></trkpt><trkpt lat="45.1433525" lon="8.110178"><ele>269.0</ele><time>2026-04-18T07:58:44.187Z</time></trkpt><trkpt lat="45.1433496" lon="8.1102926"><ele>270.66666666666663</ele><time>2026-04-18T07:58:45.187Z</time></trkpt><trkpt lat="45.143337" lon="8.110413"><ele>272.3333333333333</ele><time>2026-04-18T07:58:46.188Z</time></trkpt><trkpt lat="45.1433278" lon="8.1105163"><ele>274.0</ele><time>2026-04-18T07:58:47.187Z</time></trkpt><trkpt lat="45.1433104" lon="8.110626"><ele>274.0</ele><time>2026-04-18T07:58:48.187Z</time></trkpt><trkpt lat="45.1432953" lon="8.1107252"><ele>274.0</ele><time>2026-04-18T07:58:49.187Z</time></trkpt><trkpt lat="45.1432626" lon="8.1108106"><ele>274.0</ele><time>2026-04-18T07:58:50.187Z</time></trkpt><trkpt lat="45.1431574" lon="8.1109174"><ele>274.0</ele><time>2026-04-18T07:58:52.187Z</time></trkpt><trkpt lat="45.1430821" lon="8.1109487"><ele>274.0</ele><time>2026-04-18T07:58:53.188Z</time></trkpt><trkpt lat="45.1429946" lon="8.1109631"><ele>274.0</ele><time>2026-04-18T07:58:54.187Z</time></trkpt><trkpt lat="45.1429151" lon="8.1109553"><ele>270.0</ele><time>2026-04-18T07:58:55.187Z</time></trkpt><trkpt lat="45.1428228" lon="8.1109122"><ele>266.0</ele><time>2026-04-18T07:58:56.187Z</time></trkpt><trkpt lat="45.1427283" lon="8.1108571"><ele>262.0</ele><time>2026-04-18T07:58:57.187Z</time></trkpt><trkpt lat="45.1426331" lon="8.1107973"><ele>258.0</ele><time>2026-04-18T07:58:58.188Z</time></trkpt><trkpt lat="45.1425377" lon="8.110737"><ele>254.0</ele><time>2026-04-18T07:58:59.188Z</time></trkpt><trkpt lat="45.1424492" lon="8.1106637"><ele>251.39999999999998</ele><time>2026-04-18T07:59:00.187Z</time></trkpt><trkpt lat="45.1423628" lon="8.1105857"><ele>248.79999999999998</ele><time>2026-04-18T07:59:01.188Z</time></trkpt><trkpt lat="45.1422885" lon="8.1105011"><ele>246.20000000000002</ele><time>2026-04-18T07:59:02.187Z</time></trkpt><trkpt lat="45.1422155" lon="8.1104019"><ele>243.60000000000002</ele><time>2026-04-18T07:59:03.187Z</time></trkpt><trkpt lat="45.1421534" lon="8.1102863"><ele>241.0</ele><time>2026-04-18T07:59:04.187Z</time></trkpt><trkpt lat="45.1420977" lon="8.1101682"><ele>241.0</ele><time>2026-04-18T07:59:05.187Z</time></trkpt><trkpt lat="45.1420457" lon="8.1100532"><ele>241.00000000000003</ele><time>2026-04-18T07:59:06.188Z</time></trkpt><trkpt lat="45.1420035" lon="8.1099434"><ele>241.00000000000003</ele><time>2026-04-18T07:59:07.187Z</time></trkpt><trkpt lat="45.1419817" lon="8.1098305"><ele>241.0</ele><time>2026-04-18T07:59:08.187Z</time></trkpt><trkpt lat="45.1419785" lon="8.1097062"><ele>241.0</ele><time>2026-04-18T07:59:09.188Z</time></trkpt><trkpt lat="45.1419863" lon="8.1095632"><ele>240.0</ele><time>2026-04-18T07:59:10.188Z</time></trkpt><trkpt lat="45.1419986" lon="8.1094215"><ele>239.00000000000003</ele><time>2026-04-18T07:59:11.188Z</time></trkpt><trkpt lat="45.1419959" lon="8.1092793"><ele>238.00000000000003</ele><time>2026-04-18T07:59:12.188Z</time></trkpt><trkpt lat="45.141977" lon="8.1091315"><ele>237.0</ele><time>2026-04-18T07:59:13.187Z</time></trkpt><trkpt lat="45.1419567" lon="8.1089866"><ele>236.0</ele><time>2026-04-18T07:59:14.187Z</time></trkpt><trkpt lat="45.1419313" lon="8.1088307"><ele>234.5</ele><time>2026-04-18T07:59:15.187Z</time></trkpt><trkpt lat="45.1418847" lon="8.1086832"><ele>233.0</ele><time>2026-04-18T07:59:16.187Z</time></trkpt><trkpt lat="45.1418288" lon="8.1085225"><ele>231.5</ele><time>2026-04-18T07:59:17.187Z</time></trkpt><trkpt lat="45.1417684" lon="8.1083591"><ele>230.0</ele><time>2026-04-18T07:59:18.187Z</time></trkpt><trkpt lat="45.141712" lon="8.1081973"><ele>228.0</ele><time>2026-04-18T07:59:19.187Z</time></trkpt><trkpt lat="45.141652" lon="8.1080304"><ele>226.0</ele><time>2026-04-18T07:59:20.187Z</time></trkpt><trkpt lat="45.1415831" lon="8.1078738"><ele>224.0</ele><time>2026-04-18T07:59:21.187Z</time></trkpt><trkpt lat="45.141525" lon="8.1077149"><ele>222.0</ele><time>2026-04-18T07:59:22.187Z</time></trkpt><trkpt lat="45.1414674" lon="8.1075823"><ele>221.66666666666666</ele><time>2026-04-18T07:59:23.188Z</time></trkpt><trkpt lat="45.1414127" lon="8.1074554"><ele>221.33333333333331</ele><time>2026-04-18T07:59:24.188Z</time></trkpt><trkpt lat="45.1413584" lon="8.1073557"><ele>221.0</ele><time>2026-04-18T07:59:25.187Z</time></trkpt><trkpt lat="45.1412981" lon="8.1072782"><ele>220.66666666666666</ele><time>2026-04-18T07:59:26.187Z</time></trkpt><trkpt lat="45.1412369" lon="8.1072283"><ele>220.33333333333331</ele><time>2026-04-18T07:59:27.187Z</time></trkpt><trkpt lat="45.1411652" lon="8.1072013"><ele>220.0</ele><time>2026-04-18T07:59:28.187Z</time></trkpt><trkpt lat="45.1410856" lon="8.1072114"><ele>220.4</ele><time>2026-04-18T07:59:29.187Z</time></trkpt><trkpt lat="45.1410087" lon="8.1072363"><ele>220.8</ele><time>2026-04-18T07:59:30.187Z</time></trkpt><trkpt lat="45.1409083" lon="8.1072715"><ele>221.2</ele><time>2026-04-18T07:59:31.187Z</time></trkpt><trkpt lat="45.1407971" lon="8.1073212"><ele>221.6</ele><time>2026-04-18T07:59:32.187Z</time></trkpt><trkpt lat="45.1406904" lon="8.107376"><ele>222.0</ele><time>2026-04-18T07:59:33.187Z</time></trkpt><trkpt lat="45.1405756" lon="8.1074519"><ele>222.0</ele><time>2026-04-18T07:59:34.187Z</time></trkpt><trkpt lat="45.1404599" lon="8.1075558"><ele>222.0</ele><time>2026-04-18T07:59:35.187Z</time></trkpt><trkpt lat="45.140347" lon="8.1076792"><ele>222.0</ele><time>2026-04-18T07:59:36.187Z</time></trkpt><trkpt lat="45.1402396" lon="8.1078113"><ele>222.0</ele><time>2026-04-18T07:59:37.187Z</time></trkpt><trkpt lat="45.1401245" lon="8.1079534"><ele>222.0</ele><time>2026-04-18T07:59:38.187Z</time></trkpt><trkpt lat="45.1400261" lon="8.1080881"><ele>222.0</ele><time>2026-04-18T07:59:39.187Z</time></trkpt><trkpt lat="45.139921" lon="8.1082119"><ele>222.0</ele><time>2026-04-18T07:59:40.187Z</time></trkpt><trkpt lat="45.1398237" lon="8.1083298"><ele>222.0</ele><time>2026-04-18T07:59:41.187Z</time></trkpt><trkpt lat="45.1397149" lon="8.1084177"><ele>220.5</ele><time>2026-04-18T07:59:42.187Z</time></trkpt><trkpt lat="45.1396023" lon="8.1084877"><ele>219.0</ele><time>2026-04-18T07:59:43.187Z</time></trkpt><trkpt lat="45.1394948" lon="8.1085585"><ele>217.5</ele><time>2026-04-18T07:59:44.187Z</time></trkpt><trkpt lat="45.1393916" lon="8.1086303"><ele>216.0</ele><time>2026-04-18T07:59:45.187Z</time></trkpt><trkpt lat="45.1393048" lon="8.1087193"><ele>216.0</ele><time>2026-04-18T07:59:46.187Z</time></trkpt><trkpt lat="45.139221" lon="8.1088208"><ele>216.0</ele><time>2026-04-18T07:59:47.188Z</time></trkpt><trkpt lat="45.1391364" lon="8.1089154"><ele>216.0</ele><time>2026-04-18T07:59:48.187Z</time></trkpt><trkpt lat="45.1390489" lon="8.1090253"><ele>216.0</ele><time>2026-04-18T07:59:49.187Z</time></trkpt><trkpt lat="45.1389685" lon="8.1091485"><ele>215.75</ele><time>2026-04-18T07:59:50.187Z</time></trkpt><trkpt lat="45.1388885" lon="8.1092854"><ele>215.5</ele><time>2026-04-18T07:59:51.188Z</time></trkpt><trkpt lat="45.1387973" lon="8.1094303"><ele>215.25</ele><time>2026-04-18T07:59:52.187Z</time></trkpt><trkpt lat="45.1387058" lon="8.1095735"><ele>215.0</ele><time>2026-04-18T07:59:53.187Z</time></trkpt><trkpt lat="45.1386054" lon="8.109709"><ele>215.0</ele><time>2026-04-18T07:59:54.187Z</time></trkpt><trkpt lat="45.1384954" lon="8.109837"><ele>215.0</ele><time>2026-04-18T07:59:55.187Z</time></trkpt><trkpt lat="45.1383679" lon="8.1099525"><ele>215.0</ele><time>2026-04-18T07:59:56.187Z</time></trkpt><trkpt lat="45.1382396" lon="8.1100596"><ele>215.0</ele><time>2026-04-18T07:59:57.187Z</time></trkpt><trkpt lat="45.1381136" lon="8.1101514"><ele>214.25</ele><time>2026-04-18T07:59:58.187Z</time></trkpt><trkpt lat="45.1380036" lon="8.1102342"><ele>213.5</ele><time>2026-04-18T07:59:59.187Z</time></trkpt><trkpt lat="45.137899" lon="8.1103126"><ele>212.75</ele><time>2026-04-18T08:00:00.187Z</time></trkpt><trkpt lat="45.1377927" lon="8.1103725"><ele>212.0</ele><time>2026-04-18T08:00:01.188Z</time></trkpt><trkpt lat="45.1376806" lon="8.1104133"><ele>212.0</ele><time>2026-04-18T08:00:02.187Z</time></trkpt><trkpt lat="45.1375699" lon="8.1104324"><ele>212.0</ele><time>2026-04-18T08:00:03.188Z</time></trkpt><trkpt lat="45.1374761" lon="8.110452"><ele>212.0</ele><time>2026-04-18T08:00:04.187Z</time></trkpt><trkpt lat="45.1373946" lon="8.1104842"><ele>212.0</ele><time>2026-04-18T08:00:05.187Z</time></trkpt><trkpt lat="45.1373136" lon="8.1105391"><ele>212.0</ele><time>2026-04-18T08:00:06.187Z</time></trkpt><trkpt lat="45.137245" lon="8.1106228"><ele>212.2</ele><time>2026-04-18T08:00:07.187Z</time></trkpt><trkpt lat="45.1371835" lon="8.1107198"><ele>212.39999999999998</ele><time>2026-04-18T08:00:08.187Z</time></trkpt><trkpt lat="45.1371298" lon="8.1108427"><ele>212.60000000000002</ele><time>2026-04-18T08:00:09.187Z</time></trkpt><trkpt lat="45.1370847" lon="8.1109667"><ele>212.8</ele><time>2026-04-18T08:00:10.188Z</time></trkpt><trkpt lat="45.1370367" lon="8.1111107"><ele>213.0</ele><time>2026-04-18T08:00:11.187Z</time></trkpt><trkpt lat="45.1369815" lon="8.1112826"><ele>211.75</ele><time>2026-04-18T08:00:12.188Z</time></trkpt><trkpt lat="45.1369239" lon="8.1114544"><ele>210.5</ele><time>2026-04-18T08:00:13.187Z</time></trkpt><trkpt lat="45.1368543" lon="8.1116077"><ele>209.25</ele><time>2026-04-18T08:00:14.187Z</time></trkpt><trkpt lat="45.1367699" lon="8.1117613"><ele>208.0</ele><time>2026-04-18T08:00:15.188Z</time></trkpt><trkpt lat="45.1366819" lon="8.1118894"><ele>207.4</ele><time>2026-04-18T08:00:16.188Z</time></trkpt><trkpt lat="45.136604" lon="8.1120088"><ele>206.8</ele><time>2026-04-18T08:00:17.187Z</time></trkpt><trkpt lat="45.1365319" lon="8.1121272"><ele>206.2</ele><time>2026-04-18T08:00:18.187Z</time></trkpt><trkpt lat="45.136469" lon="8.1122527"><ele>205.6</ele><time>2026-04-18T08:00:19.187Z</time></trkpt><trkpt lat="45.1364133" lon="8.1123828"><ele>205.0</ele><time>2026-04-18T08:00:20.187Z</time></trkpt><trkpt lat="45.1363462" lon="8.1125074"><ele>207.6</ele><time>2026-04-18T08:00:21.187Z</time></trkpt><trkpt lat="45.1362716" lon="8.1126116"><ele>210.2</ele><time>2026-04-18T08:00:22.187Z</time></trkpt><trkpt lat="45.1361978" lon="8.1127095"><ele>212.8</ele><time>2026-04-18T08:00:23.187Z</time></trkpt><trkpt lat="45.1361381" lon="8.1128071"><ele>215.4</ele><time>2026-04-18T08:00:24.188Z</time></trkpt><trkpt lat="45.136071" lon="8.1128956"><ele>218.0</ele><time>2026-04-18T08:00:25.187Z</time></trkpt><trkpt lat="45.1360073" lon="8.112978"><ele>218.00000000000003</ele><time>2026-04-18T08:00:26.187Z</time></trkpt><trkpt lat="45.1359494" lon="8.1130594"><ele>218.0</ele><time>2026-04-18T08:00:27.187Z</time></trkpt><trkpt lat="45.1359033" lon="8.1131476"><ele>218.0</ele><time>2026-04-18T08:00:28.187Z</time></trkpt><trkpt lat="45.1358698" lon="8.1132466"><ele>218.0</ele><time>2026-04-18T08:00:29.187Z</time></trkpt><trkpt lat="45.1358569" lon="8.1133631"><ele>218.00000000000003</ele><time>2026-04-18T08:00:30.187Z</time></trkpt><trkpt lat="45.1358386" lon="8.1134715"><ele>218.0</ele><time>2026-04-18T08:00:31.188Z</time></trkpt><trkpt lat="45.1358124" lon="8.1135721"><ele>217.16666666666669</ele><time>2026-04-18T08:00:32.187Z</time></trkpt><trkpt lat="45.1357775" lon="8.1136817"><ele>216.33333333333334</ele><time>2026-04-18T08:00:33.188Z</time></trkpt><trkpt lat="45.1357518" lon="8.1137802"><ele>215.5</ele><time>2026-04-18T08:00:34.187Z</time></trkpt><trkpt lat="45.1357369" lon="8.1139054"><ele>214.66666666666669</ele><time>2026-04-18T08:00:35.188Z</time></trkpt><trkpt lat="45.1357277" lon="8.1140255"><ele>213.83333333333334</ele><time>2026-04-18T08:00:36.187Z</time></trkpt><trkpt lat="45.1357034" lon="8.1141214"><ele>213.0</ele><time>2026-04-18T08:00:37.187Z</time></trkpt><trkpt lat="45.1356845" lon="8.1142124"><ele>213.0</ele><time>2026-04-18T08:00:38.187Z</time></trkpt><trkpt lat="45.1356529" lon="8.1143807"><ele>213.0</ele><time>2026-04-18T08:00:40.187Z</time></trkpt><trkpt lat="45.1356621" lon="8.1144908"><ele>213.0</ele><time>2026-04-18T08:00:41.187Z</time></trkpt><trkpt lat="45.135682" lon="8.1145893"><ele>213.0</ele><time>2026-04-18T08:00:42.187Z</time></trkpt><trkpt lat="45.1357132" lon="8.1146968"><ele>213.0</ele><time>2026-04-18T08:00:43.187Z</time></trkpt><trkpt lat="45.1357349" lon="8.1148029"><ele>213.0</ele><time>2026-04-18T08:00:44.187Z</time></trkpt><trkpt lat="45.1357569" lon="8.1149115"><ele>214.83333333333334</ele><time>2026-04-18T08:00:45.187Z</time></trkpt><trkpt lat="45.1357857" lon="8.115016"><ele>216.66666666666669</ele><time>2026-04-18T08:00:46.188Z</time></trkpt><trkpt lat="45.1358199" lon="8.1151157"><ele>218.5</ele><time>2026-04-18T08:00:47.187Z</time></trkpt><trkpt lat="45.135843" lon="8.1152276"><ele>220.33333333333334</ele><time>2026-04-18T08:00:48.187Z</time></trkpt><trkpt lat="45.1358497" lon="8.1153571"><ele>222.16666666666669</ele><time>2026-04-18T08:00:49.188Z</time></trkpt><trkpt lat="45.13582" lon="8.1154939"><ele>224.0</ele><time>2026-04-18T08:00:50.187Z</time></trkpt><trkpt lat="45.1357883" lon="8.1156273"><ele>223.0</ele><time>2026-04-18T08:00:51.188Z</time></trkpt><trkpt lat="45.1357712" lon="8.1157769"><ele>222.0</ele><time>2026-04-18T08:00:52.187Z</time></trkpt><trkpt lat="45.1357717" lon="8.1159435"><ele>221.0</ele><time>2026-04-18T08:00:53.187Z</time></trkpt><trkpt lat="45.1357813" lon="8.1161208"><ele>220.0</ele><time>2026-04-18T08:00:54.187Z</time></trkpt><trkpt lat="45.1357962" lon="8.1162811"><ele>220.0</ele><time>2026-04-18T08:00:55.187Z</time></trkpt><trkpt lat="45.1358152" lon="8.1164294"><ele>220.0</ele><time>2026-04-18T08:00:56.187Z</time></trkpt><trkpt lat="45.1358469" lon="8.1165717"><ele>220.0</ele><time>2026-04-18T08:00:57.188Z</time></trkpt><trkpt lat="45.1359023" lon="8.116713"><ele>220.0</ele><time>2026-04-18T08:00:58.187Z</time></trkpt><trkpt lat="45.135971" lon="8.116854"><ele>220.0</ele><time>2026-04-18T08:00:59.187Z</time></trkpt><trkpt lat="45.1360365" lon="8.1170155"><ele>219.5</ele><time>2026-04-18T08:01:00.188Z</time></trkpt><trkpt lat="45.1360923" lon="8.1171772"><ele>219.0</ele><time>2026-04-18T08:01:01.188Z</time></trkpt><trkpt lat="45.1361434" lon="8.117338"><ele>218.5</ele><time>2026-04-18T08:01:02.187Z</time></trkpt><trkpt lat="45.1361711" lon="8.1175046"><ele>218.0</ele><time>2026-04-18T08:01:03.188Z</time></trkpt><trkpt lat="45.1361687" lon="8.1176899"><ele>217.25</ele><time>2026-04-18T08:01:04.187Z</time></trkpt><trkpt lat="45.1361521" lon="8.1178793"><ele>216.5</ele><time>2026-04-18T08:01:05.187Z</time></trkpt><trkpt lat="45.1361408" lon="8.1180872"><ele>215.75</ele><time>2026-04-18T08:01:06.187Z</time></trkpt><trkpt lat="45.1361232" lon="8.1182911"><ele>215.0</ele><time>2026-04-18T08:01:07.187Z</time></trkpt><trkpt lat="45.1361179" lon="8.118482"><ele>213.25</ele><time>2026-04-18T08:01:08.188Z</time></trkpt><trkpt lat="45.1361102" lon="8.1186651"><ele>211.5</ele><time>2026-04-18T08:01:09.187Z</time></trkpt><trkpt lat="45.1361193" lon="8.1188533"><ele>209.75</ele><time>2026-04-18T08:01:10.187Z</time></trkpt><trkpt lat="45.1361346" lon="8.1190415"><ele>208.0</ele><time>2026-04-18T08:01:11.188Z</time></trkpt><trkpt lat="45.1361754" lon="8.1192347"><ele>206.33333333333331</ele><time>2026-04-18T08:01:12.187Z</time></trkpt><trkpt lat="45.1362289" lon="8.1194204"><ele>204.66666666666669</ele><time>2026-04-18T08:01:13.187Z</time></trkpt><trkpt lat="45.1362992" lon="8.1196185"><ele>203.0</ele><time>2026-04-18T08:01:14.187Z</time></trkpt><trkpt lat="45.1363757" lon="8.119809"><ele>203.0</ele><time>2026-04-18T08:01:15.187Z</time></trkpt><trkpt lat="45.1364501" lon="8.1200019"><ele>203.0</ele><time>2026-04-18T08:01:16.187Z</time></trkpt><trkpt lat="45.1365291" lon="8.120197"><ele>203.0</ele><time>2026-04-18T08:01:17.187Z</time></trkpt><trkpt lat="45.1366122" lon="8.1204001"><ele>203.0</ele><time>2026-04-18T08:01:18.187Z</time></trkpt><trkpt lat="45.136695" lon="8.1206063"><ele>203.0</ele><time>2026-04-18T08:01:19.187Z</time></trkpt><trkpt lat="45.136777" lon="8.1208139"><ele>203.0</ele><time>2026-04-18T08:01:20.187Z</time></trkpt><trkpt lat="45.1368569" lon="8.1210129"><ele>202.0</ele><time>2026-04-18T08:01:21.188Z</time></trkpt><trkpt lat="45.1369283" lon="8.1211944"><ele>201.0</ele><time>2026-04-18T08:01:22.187Z</time></trkpt><trkpt lat="45.136994" lon="8.1213625"><ele>200.0</ele><time>2026-04-18T08:01:23.188Z</time></trkpt><trkpt lat="45.1370562" lon="8.121525"><ele>199.0</ele><time>2026-04-18T08:01:24.187Z</time></trkpt><trkpt lat="45.1371214" lon="8.1216855"><ele>199.25</ele><time>2026-04-18T08:01:25.188Z</time></trkpt><trkpt lat="45.1371891" lon="8.1218423"><ele>199.5</ele><time>2026-04-18T08:01:26.188Z</time></trkpt><trkpt lat="45.1372602" lon="8.1220002"><ele>199.75</ele><time>2026-04-18T08:01:27.187Z</time></trkpt><trkpt lat="45.1373348" lon="8.1221562"><ele>200.0</ele><time>2026-04-18T08:01:28.187Z</time></trkpt><trkpt lat="45.1374219" lon="8.1222984"><ele>199.25</ele><time>2026-04-18T08:01:29.187Z</time></trkpt><trkpt lat="45.1375167" lon="8.1224397"><ele>198.5</ele><time>2026-04-18T08:01:30.187Z</time></trkpt><trkpt lat="45.1376069" lon="8.1225829"><ele>197.75</ele><time>2026-04-18T08:01:31.187Z</time></trkpt><trkpt lat="45.1376929" lon="8.1227156"><ele>197.0</ele><time>2026-04-18T08:01:32.188Z</time></trkpt><trkpt lat="45.137773" lon="8.1228371"><ele>197.0</ele><time>2026-04-18T08:01:33.187Z</time></trkpt><trkpt lat="45.1378477" lon="8.1229526"><ele>197.0</ele><time>2026-04-18T08:01:34.187Z</time></trkpt><trkpt lat="45.1379198" lon="8.1230628"><ele>197.0</ele><time>2026-04-18T08:01:35.187Z</time></trkpt><trkpt lat="45.1380038" lon="8.1231825"><ele>197.0</ele><time>2026-04-18T08:01:36.187Z</time></trkpt><trkpt lat="45.1380949" lon="8.1233172"><ele>196.33333333333334</ele><time>2026-04-18T08:01:37.188Z</time></trkpt><trkpt lat="45.1381949" lon="8.123468"><ele>195.66666666666669</ele><time>2026-04-18T08:01:38.187Z</time></trkpt><trkpt lat="45.1383039" lon="8.1236266"><ele>195.0</ele><time>2026-04-18T08:01:39.187Z</time></trkpt><trkpt lat="45.1384362" lon="8.1237837"><ele>195.0</ele><time>2026-04-18T08:01:40.187Z</time></trkpt><trkpt lat="45.1385848" lon="8.1239291"><ele>195.0</ele><time>2026-04-18T08:01:41.187Z</time></trkpt><trkpt lat="45.1387518" lon="8.1240725"><ele>195.0</ele><time>2026-04-18T08:01:42.187Z</time></trkpt><trkpt lat="45.1389275" lon="8.1242257"><ele>192.66666666666666</ele><time>2026-04-18T08:01:43.187Z</time></trkpt><trkpt lat="45.1391041" lon="8.1243782"><ele>190.33333333333331</ele><time>2026-04-18T08:01:44.187Z</time></trkpt><trkpt lat="45.1392792" lon="8.124523"><ele>188.0</ele><time>2026-04-18T08:01:45.187Z</time></trkpt><trkpt lat="45.1394456" lon="8.1246553"><ele>188.0</ele><time>2026-04-18T08:01:46.187Z</time></trkpt><trkpt lat="45.1396084" lon="8.1247794"><ele>188.0</ele><time>2026-04-18T08:01:47.187Z</time></trkpt><trkpt lat="45.1397794" lon="8.1248883"><ele>188.0</ele><time>2026-04-18T08:01:48.187Z</time></trkpt><trkpt lat="45.1399575" lon="8.1249845"><ele>185.66666666666666</ele><time>2026-04-18T08:01:49.187Z</time></trkpt><trkpt lat="45.140133" lon="8.1250664"><ele>183.33333333333334</ele><time>2026-04-18T08:01:50.187Z</time></trkpt><trkpt lat="45.1403106" lon="8.1251334"><ele>181.0</ele><time>2026-04-18T08:01:51.187Z</time></trkpt><trkpt lat="45.140491" lon="8.1251832"><ele>181.0</ele><time>2026-04-18T08:01:52.187Z</time></trkpt><trkpt lat="45.1406756" lon="8.1252193"><ele>181.0</ele><time>2026-04-18T08:01:53.187Z</time></trkpt><trkpt lat="45.1408582" lon="8.1252535"><ele>181.0</ele><time>2026-04-18T08:01:54.187Z</time></trkpt><trkpt lat="45.141041" lon="8.1252877"><ele>180.66666666666669</ele><time>2026-04-18T08:01:55.187Z</time></trkpt><trkpt lat="45.1412223" lon="8.1253274"><ele>180.33333333333334</ele><time>2026-04-18T08:01:56.188Z</time></trkpt><trkpt lat="45.1414047" lon="8.1253559"><ele>180.0</ele><time>2026-04-18T08:01:57.188Z</time></trkpt><trkpt lat="45.141586" lon="8.1253751"><ele>180.0</ele><time>2026-04-18T08:01:58.187Z</time></trkpt><trkpt lat="45.1417685" lon="8.1253915"><ele>180.0</ele><time>2026-04-18T08:01:59.188Z</time></trkpt><trkpt lat="45.1419481" lon="8.1254186"><ele>180.0</ele><time>2026-04-18T08:02:00.188Z</time></trkpt><trkpt lat="45.1421226" lon="8.125457"><ele>180.0</ele><time>2026-04-18T08:02:01.187Z</time></trkpt><trkpt lat="45.1422905" lon="8.1255053"><ele>180.0</ele><time>2026-04-18T08:02:02.187Z</time></trkpt><trkpt lat="45.1424498" lon="8.1255712"><ele>180.0</ele><time>2026-04-18T08:02:03.188Z</time></trkpt><trkpt lat="45.1426061" lon="8.125647"><ele>179.0</ele><time>2026-04-18T08:02:04.187Z</time></trkpt><trkpt lat="45.1427541" lon="8.1257492"><ele>178.0</ele><time>2026-04-18T08:02:05.187Z</time></trkpt><trkpt lat="45.1429001" lon="8.125868"><ele>177.0</ele><time>2026-04-18T08:02:06.187Z</time></trkpt><trkpt lat="45.1430517" lon="8.1260034"><ele>177.0</ele><time>2026-04-18T08:02:07.187Z</time></trkpt><trkpt lat="45.1432099" lon="8.1261443"><ele>177.0</ele><time>2026-04-18T08:02:08.188Z</time></trkpt><trkpt lat="45.1433633" lon="8.1262826"><ele>177.0</ele><time>2026-04-18T08:02:09.187Z</time></trkpt><trkpt lat="45.1435191" lon="8.1264176"><ele>176.66666666666666</ele><time>2026-04-18T08:02:10.187Z</time></trkpt><trkpt lat="45.1436824" lon="8.1265437"><ele>176.33333333333331</ele><time>2026-04-18T08:02:11.187Z</time></trkpt><trkpt lat="45.1438416" lon="8.1266767"><ele>176.0</ele><time>2026-04-18T08:02:12.187Z</time></trkpt><trkpt lat="45.1439994" lon="8.1268003"><ele>176.66666666666666</ele><time>2026-04-18T08:02:13.187Z</time></trkpt><trkpt lat="45.1441599" lon="8.1269288"><ele>177.33333333333334</ele><time>2026-04-18T08:02:14.187Z</time></trkpt><trkpt lat="45.1443112" lon="8.1270487"><ele>178.0</ele><time>2026-04-18T08:02:15.187Z</time></trkpt><trkpt lat="45.1444502" lon="8.1271637"><ele>178.0</ele><time>2026-04-18T08:02:16.187Z</time></trkpt><trkpt lat="45.1445807" lon="8.1272699"><ele>178.0</ele><time>2026-04-18T08:02:17.187Z</time></trkpt><trkpt lat="45.1446981" lon="8.1273714"><ele>178.0</ele><time>2026-04-18T08:02:18.187Z</time></trkpt><trkpt lat="45.1448091" lon="8.127457"><ele>178.0</ele><time>2026-04-18T08:02:19.187Z</time></trkpt><trkpt lat="45.1449095" lon="8.1275326"><ele>177.0</ele><time>2026-04-18T08:02:20.187Z</time></trkpt><trkpt lat="45.1450131" lon="8.1276192"><ele>176.0</ele><time>2026-04-18T08:02:21.187Z</time></trkpt><trkpt lat="45.1451295" lon="8.1277082"><ele>175.0</ele><time>2026-04-18T08:02:22.187Z</time></trkpt><trkpt lat="45.1452532" lon="8.1277952"><ele>174.0</ele><time>2026-04-18T08:02:23.187Z</time></trkpt><trkpt lat="45.1453723" lon="8.1278796"><ele>174.0</ele><time>2026-04-18T08:02:24.188Z</time></trkpt><trkpt lat="45.1454804" lon="8.1279615"><ele>174.0</ele><time>2026-04-18T08:02:25.187Z</time></trkpt><trkpt lat="45.145591" lon="8.128036"><ele>174.0</ele><time>2026-04-18T08:02:26.187Z</time></trkpt><trkpt lat="45.1456972" lon="8.128102"><ele>174.0</ele><time>2026-04-18T08:02:27.187Z</time></trkpt><trkpt lat="45.1457894" lon="8.128171"><ele>173.2</ele><time>2026-04-18T08:02:28.187Z</time></trkpt><trkpt lat="45.1458555" lon="8.1282564"><ele>172.39999999999998</ele><time>2026-04-18T08:02:29.187Z</time></trkpt><trkpt lat="45.1459018" lon="8.1283681"><ele>171.6</ele><time>2026-04-18T08:02:30.187Z</time></trkpt><trkpt lat="45.14592" lon="8.1285211"><ele>170.8</ele><time>2026-04-18T08:02:31.187Z</time></trkpt><trkpt lat="45.1459523" lon="8.1286913"><ele>170.0</ele><time>2026-04-18T08:02:32.187Z</time></trkpt><trkpt lat="45.145993" lon="8.1288765"><ele>169.33333333333331</ele><time>2026-04-18T08:02:33.187Z</time></trkpt><trkpt lat="45.1460545" lon="8.1290858"><ele>168.66666666666666</ele><time>2026-04-18T08:02:34.187Z</time></trkpt><trkpt lat="45.1461159" lon="8.1293135"><ele>168.0</ele><time>2026-04-18T08:02:35.188Z</time></trkpt><trkpt lat="45.1461826" lon="8.1295384"><ele>168.0</ele><time>2026-04-18T08:02:36.187Z</time></trkpt><trkpt lat="45.1462407" lon="8.1297387"><ele>168.0</ele><time>2026-04-18T08:02:37.187Z</time></trkpt><trkpt lat="45.1462904" lon="8.1299237"><ele>168.0</ele><time>2026-04-18T08:02:38.187Z</time></trkpt><trkpt lat="45.1463387" lon="8.1300964"><ele>168.0</ele><time>2026-04-18T08:02:39.187Z</time></trkpt><trkpt lat="45.1463843" lon="8.1302493"><ele>168.66666666666666</ele><time>2026-04-18T08:02:40.187Z</time></trkpt><trkpt lat="45.1464251" lon="8.1303917"><ele>169.33333333333334</ele><time>2026-04-18T08:02:41.187Z</time></trkpt><trkpt lat="45.1464585" lon="8.130516"><ele>170.0</ele><time>2026-04-18T08:02:42.187Z</time></trkpt><trkpt lat="45.1464844" lon="8.1306236"><ele>170.66666666666669</ele><time>2026-04-18T08:02:43.187Z</time></trkpt><trkpt lat="45.1465091" lon="8.1307147"><ele>171.33333333333334</ele><time>2026-04-18T08:02:44.187Z</time></trkpt><trkpt lat="45.1464809" lon="8.1308242"><ele>172.0</ele><time>2026-04-18T08:02:46.187Z</time></trkpt><trkpt lat="45.1463818" lon="8.1308519"><ele>173.2</ele><time>2026-04-18T08:02:48.187Z</time></trkpt><trkpt lat="45.1463166" lon="8.1308558"><ele>174.39999999999998</ele><time>2026-04-18T08:02:49.187Z</time></trkpt><trkpt lat="45.146225" lon="8.1308425"><ele>175.60000000000002</ele><time>2026-04-18T08:02:50.187Z</time></trkpt><trkpt lat="45.1461112" lon="8.1308139"><ele>176.8</ele><time>2026-04-18T08:02:51.188Z</time></trkpt><trkpt lat="45.1459965" lon="8.1308008"><ele>178.0</ele><time>2026-04-18T08:02:52.187Z</time></trkpt><trkpt lat="45.1458769" lon="8.1308099"><ele>178.0</ele><time>2026-04-18T08:02:53.187Z</time></trkpt><trkpt lat="45.1457365" lon="8.1308496"><ele>178.0</ele><time>2026-04-18T08:02:54.188Z</time></trkpt><trkpt lat="45.1455885" lon="8.1309051"><ele>178.0</ele><time>2026-04-18T08:02:55.187Z</time></trkpt><trkpt lat="45.1454359" lon="8.1309714"><ele>179.0</ele><time>2026-04-18T08:02:56.187Z</time></trkpt><trkpt lat="45.1452676" lon="8.1310476"><ele>180.0</ele><time>2026-04-18T08:02:57.187Z</time></trkpt><trkpt lat="45.1450918" lon="8.1311036"><ele>181.0</ele><time>2026-04-18T08:02:58.187Z</time></trkpt><trkpt lat="45.1449325" lon="8.1311422"><ele>182.25</ele><time>2026-04-18T08:02:59.187Z</time></trkpt><trkpt lat="45.1447973" lon="8.1311804"><ele>183.5</ele><time>2026-04-18T08:03:00.187Z</time></trkpt><trkpt lat="45.1446736" lon="8.1312141"><ele>184.75</ele><time>2026-04-18T08:03:01.187Z</time></trkpt><trkpt lat="45.1445665" lon="8.1312352"><ele>186.0</ele><time>2026-04-18T08:03:02.187Z</time></trkpt><trkpt lat="45.1444669" lon="8.1312483"><ele>186.0</ele><time>2026-04-18T08:03:03.187Z</time></trkpt><trkpt lat="45.1443722" lon="8.1312576"><ele>186.0</ele><time>2026-04-18T08:03:04.188Z</time></trkpt><trkpt lat="45.1442865" lon="8.1312799"><ele>186.0</ele><time>2026-04-18T08:03:05.187Z</time></trkpt><trkpt lat="45.1442024" lon="8.1313173"><ele>186.0</ele><time>2026-04-18T08:03:06.188Z</time></trkpt><trkpt lat="45.144132" lon="8.1313941"><ele>186.0</ele><time>2026-04-18T08:03:07.187Z</time></trkpt><trkpt lat="45.1440662" lon="8.1314884"><ele>188.5</ele><time>2026-04-18T08:03:08.187Z</time></trkpt><trkpt lat="45.1440072" lon="8.1316061"><ele>191.0</ele><time>2026-04-18T08:03:09.188Z</time></trkpt><trkpt lat="45.1439282" lon="8.1317217"><ele>193.5</ele><time>2026-04-18T08:03:10.188Z</time></trkpt><trkpt lat="45.1438242" lon="8.131823"><ele>196.0</ele><time>2026-04-18T08:03:11.187Z</time></trkpt><trkpt lat="45.1437022" lon="8.1319021"><ele>196.0</ele><time>2026-04-18T08:03:12.187Z</time></trkpt><trkpt lat="45.143569" lon="8.1319813"><ele>196.0</ele><time>2026-04-18T08:03:13.187Z</time></trkpt><trkpt lat="45.1434333" lon="8.1320559"><ele>196.0</ele><time>2026-04-18T08:03:14.187Z</time></trkpt><trkpt lat="45.1433149" lon="8.132114"><ele>196.0</ele><time>2026-04-18T08:03:15.187Z</time></trkpt><trkpt lat="45.1432039" lon="8.1321371"><ele>197.0</ele><time>2026-04-18T08:03:16.188Z</time></trkpt><trkpt lat="45.1430984" lon="8.1321445"><ele>198.0</ele><time>2026-04-18T08:03:17.187Z</time></trkpt><trkpt lat="45.1430002" lon="8.1321435"><ele>199.0</ele><time>2026-04-18T08:03:18.187Z</time></trkpt><trkpt lat="45.1429086" lon="8.1321402"><ele>200.0</ele><time>2026-04-18T08:03:19.187Z</time></trkpt><trkpt lat="45.1428251" lon="8.1321581"><ele>201.0</ele><time>2026-04-18T08:03:20.187Z</time></trkpt><trkpt lat="45.142738" lon="8.1322036"><ele>201.0</ele><time>2026-04-18T08:03:21.187Z</time></trkpt><trkpt lat="45.1426536" lon="8.1322869"><ele>201.0</ele><time>2026-04-18T08:03:22.187Z</time></trkpt><trkpt lat="45.142576" lon="8.1323905"><ele>201.0</ele><time>2026-04-18T08:03:23.188Z</time></trkpt><trkpt lat="45.1424996" lon="8.1324918"><ele>201.0</ele><time>2026-04-18T08:03:24.187Z</time></trkpt><trkpt lat="45.1424279" lon="8.1325766"><ele>201.0</ele><time>2026-04-18T08:03:25.187Z</time></trkpt><trkpt lat="45.1423625" lon="8.1326418"><ele>204.66666666666666</ele><time>2026-04-18T08:03:26.188Z</time></trkpt><trkpt lat="45.1423007" lon="8.1326598"><ele>208.33333333333331</ele><time>2026-04-18T08:03:27.187Z</time></trkpt><trkpt lat="45.1421952" lon="8.1326142"><ele>212.0</ele><time>2026-04-18T08:03:29.187Z</time></trkpt><trkpt lat="45.142147" lon="8.1327127"><ele>215.66666666666666</ele><time>2026-04-18T08:03:32.187Z</time></trkpt><trkpt lat="45.1421899" lon="8.1328409"><ele>219.33333333333331</ele><time>2026-04-18T08:03:34.187Z</time></trkpt><trkpt lat="45.1422329" lon="8.1329314"><ele>223.0</ele><time>2026-04-18T08:03:35.187Z</time></trkpt><trkpt lat="45.1422706" lon="8.1330321"><ele>222.99999999999997</ele><time>2026-04-18T08:03:36.187Z</time></trkpt><trkpt lat="45.1422977" lon="8.133133"><ele>223.0</ele><time>2026-04-18T08:03:37.187Z</time></trkpt><trkpt lat="45.1423092" lon="8.1332286"><ele>223.0</ele><time>2026-04-18T08:03:38.187Z</time></trkpt><trkpt lat="45.1423074" lon="8.1333381"><ele>223.0</ele><time>2026-04-18T08:03:39.187Z</time></trkpt><trkpt lat="45.1423109" lon="8.1334575"><ele>222.99999999999997</ele><time>2026-04-18T08:03:40.187Z</time></trkpt><trkpt lat="45.1423232" lon="8.1335934"><ele>223.0</ele><time>2026-04-18T08:03:41.187Z</time></trkpt><trkpt lat="45.1423461" lon="8.1337364"><ele>223.2</ele><time>2026-04-18T08:03:42.188Z</time></trkpt><trkpt lat="45.1423677" lon="8.1338731"><ele>223.4</ele><time>2026-04-18T08:03:43.187Z</time></trkpt><trkpt lat="45.1423889" lon="8.1339664"><ele>223.59999999999997</ele><time>2026-04-18T08:03:44.187Z</time></trkpt><trkpt lat="45.1423888" lon="8.1341168"><ele>223.79999999999998</ele><time>2026-04-18T08:03:46.186Z</time></trkpt><trkpt lat="45.1423088" lon="8.1342015"><ele>224.0</ele><time>2026-04-18T08:03:48.187Z</time></trkpt><trkpt lat="45.1422219" lon="8.1341524"><ele>226.00000000000003</ele><time>2026-04-18T08:03:50.186Z</time></trkpt><trkpt lat="45.1421767" lon="8.1340826"><ele>228.0</ele><time>2026-04-18T08:03:51.186Z</time></trkpt><trkpt lat="45.1421301" lon="8.1339813"><ele>230.0</ele><time>2026-04-18T08:03:52.186Z</time></trkpt><trkpt lat="45.1420795" lon="8.1338639"><ele>232.0</ele><time>2026-04-18T08:03:53.186Z</time></trkpt><trkpt lat="45.1420316" lon="8.1337571"><ele>234.00000000000003</ele><time>2026-04-18T08:03:54.187Z</time></trkpt><trkpt lat="45.1419718" lon="8.1336761"><ele>236.0</ele><time>2026-04-18T08:03:55.186Z</time></trkpt><trkpt lat="45.1419132" lon="8.1336044"><ele>236.00000000000003</ele><time>2026-04-18T08:03:56.186Z</time></trkpt><trkpt lat="45.1418486" lon="8.1335596"><ele>236.0</ele><time>2026-04-18T08:03:57.186Z</time></trkpt><trkpt lat="45.1417723" lon="8.1335299"><ele>236.0</ele><time>2026-04-18T08:03:58.186Z</time></trkpt><trkpt lat="45.1416821" lon="8.133532"><ele>236.0</ele><time>2026-04-18T08:03:59.186Z</time></trkpt><trkpt lat="45.1416052" lon="8.13353"><ele>236.00000000000003</ele><time>2026-04-18T08:04:00.186Z</time></trkpt><trkpt lat="45.1415319" lon="8.1335062"><ele>236.0</ele><time>2026-04-18T08:04:01.186Z</time></trkpt><trkpt lat="45.1414789" lon="8.1334377"><ele>236.00000000000003</ele><time>2026-04-18T08:04:02.187Z</time></trkpt><trkpt lat="45.1414419" lon="8.1333425"><ele>236.0</ele><time>2026-04-18T08:04:03.186Z</time></trkpt><trkpt lat="45.1414373" lon="8.133231"><ele>236.0</ele><time>2026-04-18T08:04:04.186Z</time></trkpt><trkpt lat="45.141455" lon="8.1331121"><ele>236.0</ele><time>2026-04-18T08:04:05.186Z</time></trkpt><trkpt lat="45.1414619" lon="8.1330004"><ele>236.00000000000003</ele><time>2026-04-18T08:04:06.186Z</time></trkpt><trkpt lat="45.1414429" lon="8.1329079"><ele>236.0</ele><time>2026-04-18T08:04:07.187Z</time></trkpt><trkpt lat="45.141405" lon="8.1328298"><ele>236.0</ele><time>2026-04-18T08:04:08.187Z</time></trkpt><trkpt lat="45.1412898" lon="8.1327616"><ele>236.00000000000003</ele><time>2026-04-18T08:04:10.187Z</time></trkpt><trkpt lat="45.1412017" lon="8.1327504"><ele>236.00000000000003</ele><time>2026-04-18T08:04:11.186Z</time></trkpt><trkpt lat="45.141111" lon="8.1327534"><ele>236.0</ele><time>2026-04-18T08:04:12.186Z</time></trkpt><trkpt lat="45.1410212" lon="8.1327538"><ele>236.0</ele><time>2026-04-18T08:04:13.187Z</time></trkpt><trkpt lat="45.1409309" lon="8.1327827"><ele>236.0</ele><time>2026-04-18T08:04:14.186Z</time></trkpt><trkpt lat="45.1408411" lon="8.1328327"><ele>236.0</ele><time>2026-04-18T08:04:15.186Z</time></trkpt><trkpt lat="45.1407394" lon="8.132925"><ele>236.0</ele><time>2026-04-18T08:04:16.186Z</time></trkpt><trkpt lat="45.1406291" lon="8.1330207"><ele>236.0</ele><time>2026-04-18T08:04:17.186Z</time></trkpt><trkpt lat="45.1405125" lon="8.1331071"><ele>238.60000000000002</ele><time>2026-04-18T08:04:18.186Z</time></trkpt><trkpt lat="45.1404009" lon="8.1331728"><ele>241.20000000000002</ele><time>2026-04-18T08:04:19.186Z</time></trkpt><trkpt lat="45.1403084" lon="8.1332254"><ele>243.79999999999998</ele><time>2026-04-18T08:04:20.186Z</time></trkpt><trkpt lat="45.1402209" lon="8.1332601"><ele>246.39999999999998</ele><time>2026-04-18T08:04:21.186Z</time></trkpt><trkpt lat="45.1401378" lon="8.1332823"><ele>249.0</ele><time>2026-04-18T08:04:22.186Z</time></trkpt><trkpt lat="45.1400554" lon="8.1333224"><ele>250.33333333333334</ele><time>2026-04-18T08:04:23.186Z</time></trkpt><trkpt lat="45.1399918" lon="8.1333807"><ele>251.66666666666669</ele><time>2026-04-18T08:04:24.186Z</time></trkpt><trkpt lat="45.1399337" lon="8.1334436"><ele>253.0</ele><time>2026-04-18T08:04:25.187Z</time></trkpt><trkpt lat="45.1398816" lon="8.133531"><ele>254.33333333333334</ele><time>2026-04-18T08:04:26.186Z</time></trkpt><trkpt lat="45.1398468" lon="8.1336453"><ele>255.66666666666669</ele><time>2026-04-18T08:04:27.186Z</time></trkpt><trkpt lat="45.1398204" lon="8.1337427"><ele>257.0</ele><time>2026-04-18T08:04:28.186Z</time></trkpt><trkpt lat="45.1397878" lon="8.1338236"><ele>261.2</ele><time>2026-04-18T08:04:29.186Z</time></trkpt><trkpt lat="45.1397003" lon="8.1338546"><ele>265.4</ele><time>2026-04-18T08:04:31.186Z</time></trkpt><trkpt lat="45.1396087" lon="8.1337899"><ele>269.6</ele><time>2026-04-18T08:04:33.186Z</time></trkpt><trkpt lat="45.1395343" lon="8.1336471"><ele>273.8</ele><time>2026-04-18T08:04:35.186Z</time></trkpt><trkpt lat="45.1394902" lon="8.1335613"><ele>278.0</ele><time>2026-04-18T08:04:36.186Z</time></trkpt><trkpt lat="45.1394382" lon="8.1334445"><ele>278.0</ele><time>2026-04-18T08:04:37.186Z</time></trkpt><trkpt lat="45.1393876" lon="8.1333378"><ele>278.0</ele><time>2026-04-18T08:04:38.186Z</time></trkpt><trkpt lat="45.1393469" lon="8.1332122"><ele>278.0</ele><time>2026-04-18T08:04:39.186Z</time></trkpt><trkpt lat="45.1393041" lon="8.1330833"><ele>278.0</ele><time>2026-04-18T08:04:40.186Z</time></trkpt><trkpt lat="45.1392743" lon="8.1329487"><ele>278.0</ele><time>2026-04-18T08:04:41.186Z</time></trkpt><trkpt lat="45.1392572" lon="8.1328154"><ele>276.6666666666667</ele><time>2026-04-18T08:04:42.186Z</time></trkpt><trkpt lat="45.1392439" lon="8.1326813"><ele>275.33333333333337</ele><time>2026-04-18T08:04:43.187Z</time></trkpt><trkpt lat="45.139229" lon="8.1325754"><ele>274.0</ele><time>2026-04-18T08:04:44.187Z</time></trkpt><trkpt lat="45.1392093" lon="8.1324734"><ele>272.6666666666667</ele><time>2026-04-18T08:04:45.186Z</time></trkpt><trkpt lat="45.1391671" lon="8.1323944"><ele>271.3333333333333</ele><time>2026-04-18T08:04:46.186Z</time></trkpt><trkpt lat="45.139117" lon="8.1323389"><ele>270.0</ele><time>2026-04-18T08:04:47.187Z</time></trkpt><trkpt lat="45.1390042" lon="8.1323188"><ele>267.2</ele><time>2026-04-18T08:04:49.186Z</time></trkpt><trkpt lat="45.1389274" lon="8.1323902"><ele>264.4</ele><time>2026-04-18T08:04:51.186Z</time></trkpt><trkpt lat="45.1389048" lon="8.1325713"><ele>261.6</ele><time>2026-04-18T08:04:53.186Z</time></trkpt><trkpt lat="45.1389127" lon="8.1326842"><ele>258.8</ele><time>2026-04-18T08:04:54.186Z</time></trkpt><trkpt lat="45.138932" lon="8.1328176"><ele>256.0</ele><time>2026-04-18T08:04:55.186Z</time></trkpt><trkpt lat="45.1389472" lon="8.1329497"><ele>256.0</ele><time>2026-04-18T08:04:56.186Z</time></trkpt><trkpt lat="45.1389587" lon="8.1330981"><ele>256.0</ele><time>2026-04-18T08:04:57.186Z</time></trkpt><trkpt lat="45.1389693" lon="8.1332367"><ele>256.0</ele><time>2026-04-18T08:04:58.187Z</time></trkpt><trkpt lat="45.1389834" lon="8.1333559"><ele>256.0</ele><time>2026-04-18T08:04:59.186Z</time></trkpt><trkpt lat="45.1389781" lon="8.1334661"><ele>256.0</ele><time>2026-04-18T08:05:00.186Z</time></trkpt><trkpt lat="45.1389653" lon="8.1335864"><ele>258.0</ele><time>2026-04-18T08:05:01.187Z</time></trkpt><trkpt lat="45.1389377" lon="8.1337215"><ele>260.0</ele><time>2026-04-18T08:05:02.186Z</time></trkpt><trkpt lat="45.1389114" lon="8.1338677"><ele>262.0</ele><time>2026-04-18T08:05:03.186Z</time></trkpt><trkpt lat="45.1388799" lon="8.1340055"><ele>264.0</ele><time>2026-04-18T08:05:04.186Z</time></trkpt><trkpt lat="45.1388396" lon="8.1341427"><ele>266.0</ele><time>2026-04-18T08:05:05.186Z</time></trkpt><trkpt lat="45.138789" lon="8.1342764"><ele>269.0</ele><time>2026-04-18T08:05:06.186Z</time></trkpt><trkpt lat="45.1387375" lon="8.134393"><ele>272.0</ele><time>2026-04-18T08:05:07.187Z</time></trkpt><trkpt lat="45.1386774" lon="8.1344914"><ele>275.0</ele><time>2026-04-18T08:05:08.187Z</time></trkpt><trkpt lat="45.1386048" lon="8.1345986"><ele>278.0</ele><time>2026-04-18T08:05:09.186Z</time></trkpt><trkpt lat="45.1385404" lon="8.1346868"><ele>281.0</ele><time>2026-04-18T08:05:10.186Z</time></trkpt><trkpt lat="45.138476" lon="8.1347775"><ele>281.0</ele><time>2026-04-18T08:05:11.186Z</time></trkpt><trkpt lat="45.1384135" lon="8.134865"><ele>281.0</ele><time>2026-04-18T08:05:12.186Z</time></trkpt><trkpt lat="45.138362" lon="8.1349334"><ele>281.0</ele><time>2026-04-18T08:05:13.187Z</time></trkpt><trkpt lat="45.1383173" lon="8.1350276"><ele>281.0</ele><time>2026-04-18T08:05:14.186Z</time></trkpt><trkpt lat="45.1382856" lon="8.1351309"><ele>281.0</ele><time>2026-04-18T08:05:15.186Z</time></trkpt><trkpt lat="45.138252" lon="8.1352497"><ele>281.0</ele><time>2026-04-18T08:05:16.186Z</time></trkpt><trkpt lat="45.138203" lon="8.1353512"><ele>280.6</ele><time>2026-04-18T08:05:17.186Z</time></trkpt><trkpt lat="45.1381385" lon="8.135428"><ele>280.20000000000005</ele><time>2026-04-18T08:05:18.186Z</time></trkpt><trkpt lat="45.1380555" lon="8.1354975"><ele>279.79999999999995</ele><time>2026-04-18T08:05:19.186Z</time></trkpt><trkpt lat="45.137967" lon="8.1355401"><ele>279.4</ele><time>2026-04-18T08:05:20.186Z</time></trkpt><trkpt lat="45.1378676" lon="8.1355641"><ele>279.0</ele><time>2026-04-18T08:05:21.186Z</time></trkpt><trkpt lat="45.13777" lon="8.1355851"><ele>279.0</ele><time>2026-04-18T08:05:22.186Z</time></trkpt><trkpt lat="45.1376877" lon="8.1356258"><ele>279.0</ele><time>2026-04-18T08:05:23.186Z</time></trkpt><trkpt lat="45.1376312" lon="8.1356935"><ele>279.0</ele><time>2026-04-18T08:05:24.186Z</time></trkpt><trkpt lat="45.1375798" lon="8.1357863"><ele>279.0</ele><time>2026-04-18T08:05:25.187Z</time></trkpt><trkpt lat="45.1375452" lon="8.135873"><ele>279.0</ele><time>2026-04-18T08:05:26.186Z</time></trkpt><trkpt lat="45.1375232" lon="8.1360074"><ele>279.0</ele><time>2026-04-18T08:05:27.187Z</time></trkpt><trkpt lat="45.1374796" lon="8.1361405"><ele>279.4285714285714</ele><time>2026-04-18T08:05:28.186Z</time></trkpt><trkpt lat="45.1374301" lon="8.1362593"><ele>279.85714285714283</ele><time>2026-04-18T08:05:29.186Z</time></trkpt><trkpt lat="45.1373815" lon="8.136343"><ele>280.2857142857143</ele><time>2026-04-18T08:05:30.186Z</time></trkpt><trkpt lat="45.1373378" lon="8.1364105"><ele>280.71428571428567</ele><time>2026-04-18T08:05:31.187Z</time></trkpt><trkpt lat="45.1372784" lon="8.1364541"><ele>281.1428571428571</ele><time>2026-04-18T08:05:32.186Z</time></trkpt><trkpt lat="45.137212" lon="8.1364807"><ele>281.57142857142856</ele><time>2026-04-18T08:05:33.186Z</time></trkpt><trkpt lat="45.1371391" lon="8.1364991"><ele>282.0</ele><time>2026-04-18T08:05:34.187Z</time></trkpt><trkpt lat="45.137058" lon="8.1365064"><ele>282.0</ele><time>2026-04-18T08:05:35.186Z</time></trkpt><trkpt lat="45.1369785" lon="8.1365193"><ele>282.0</ele><time>2026-04-18T08:05:36.186Z</time></trkpt><trkpt lat="45.136905" lon="8.1365429"><ele>282.0</ele><time>2026-04-18T08:05:37.186Z</time></trkpt><trkpt lat="45.1368425" lon="8.1365655"><ele>282.0</ele><time>2026-04-18T08:05:38.186Z</time></trkpt><trkpt lat="45.1367346" lon="8.1365848"><ele>282.0</ele><time>2026-04-18T08:05:40.186Z</time></trkpt><trkpt lat="45.1366316" lon="8.136614"><ele>282.0</ele><time>2026-04-18T08:05:42.186Z</time></trkpt><trkpt lat="45.1365251" lon="8.136636"><ele>286.6</ele><time>2026-04-18T08:05:44.186Z</time></trkpt><trkpt lat="45.136416" lon="8.1366477"><ele>291.2</ele><time>2026-04-18T08:05:46.187Z</time></trkpt><trkpt lat="45.1362983" lon="8.1366883"><ele>295.8</ele><time>2026-04-18T08:05:48.186Z</time></trkpt><trkpt lat="45.1362167" lon="8.1366968"><ele>300.4</ele><time>2026-04-18T08:05:49.186Z</time></trkpt><trkpt lat="45.1361334" lon="8.136709"><ele>305.0</ele><time>2026-04-18T08:05:50.186Z</time></trkpt><trkpt lat="45.1360441" lon="8.1367282"><ele>305.0</ele><time>2026-04-18T08:05:51.186Z</time></trkpt><trkpt lat="45.1359506" lon="8.1367411"><ele>305.0</ele><time>2026-04-18T08:05:52.186Z</time></trkpt><trkpt lat="45.1358676" lon="8.1367411"><ele>305.0</ele><time>2026-04-18T08:05:53.186Z</time></trkpt><trkpt lat="45.1357805" lon="8.1367219"><ele>305.0</ele><time>2026-04-18T08:05:54.186Z</time></trkpt><trkpt lat="45.1357002" lon="8.136687"><ele>305.0</ele><time>2026-04-18T08:05:55.186Z</time></trkpt><trkpt lat="45.135629" lon="8.1366243"><ele>305.0</ele><time>2026-04-18T08:05:56.186Z</time></trkpt><trkpt lat="45.1355438" lon="8.1365475"><ele>304.8</ele><time>2026-04-18T08:05:57.186Z</time></trkpt><trkpt lat="45.1354478" lon="8.1364636"><ele>304.6</ele><time>2026-04-18T08:05:58.186Z</time></trkpt><trkpt lat="45.1353485" lon="8.1363848"><ele>304.4</ele><time>2026-04-18T08:05:59.186Z</time></trkpt><trkpt lat="45.1352622" lon="8.1363068"><ele>304.2</ele><time>2026-04-18T08:06:00.186Z</time></trkpt><trkpt lat="45.1351826" lon="8.1362344"><ele>304.0</ele><time>2026-04-18T08:06:01.186Z</time></trkpt><trkpt lat="45.1351056" lon="8.136165"><ele>304.0</ele><time>2026-04-18T08:06:02.186Z</time></trkpt><trkpt lat="45.1350419" lon="8.1360984"><ele>304.0</ele><time>2026-04-18T08:06:03.186Z</time></trkpt><trkpt lat="45.1349906" lon="8.1360344"><ele>304.0</ele><time>2026-04-18T08:06:04.186Z</time></trkpt><trkpt lat="45.1349351" lon="8.1359574"><ele>304.0</ele><time>2026-04-18T08:06:05.186Z</time></trkpt><trkpt lat="45.1348803" lon="8.1358608"><ele>304.0</ele><time>2026-04-18T08:06:06.186Z</time></trkpt><trkpt lat="45.1348252" lon="8.1357424"><ele>304.0</ele><time>2026-04-18T08:06:07.186Z</time></trkpt><trkpt lat="45.1347668" lon="8.1356312"><ele>305.59999999999997</ele><time>2026-04-18T08:06:08.186Z</time></trkpt><trkpt lat="45.1347033" lon="8.1355372"><ele>307.2</ele><time>2026-04-18T08:06:09.186Z</time></trkpt><trkpt lat="45.1346404" lon="8.1354358"><ele>308.79999999999995</ele><time>2026-04-18T08:06:10.186Z</time></trkpt><trkpt lat="45.1345776" lon="8.1353406"><ele>310.4</ele><time>2026-04-18T08:06:11.186Z</time></trkpt><trkpt lat="45.1345124" lon="8.1352491"><ele>312.0</ele><time>2026-04-18T08:06:12.186Z</time></trkpt><trkpt lat="45.1344478" lon="8.1351729"><ele>312.0</ele><time>2026-04-18T08:06:13.186Z</time></trkpt><trkpt lat="45.1343926" lon="8.1350955"><ele>312.0</ele><time>2026-04-18T08:06:14.187Z</time></trkpt><trkpt lat="45.1343487" lon="8.1350026"><ele>312.0</ele><time>2026-04-18T08:06:15.186Z</time></trkpt><trkpt lat="45.1343142" lon="8.1348998"><ele>312.0</ele><time>2026-04-18T08:06:16.187Z</time></trkpt><trkpt lat="45.1343146" lon="8.1347904"><ele>312.0</ele><time>2026-04-18T08:06:17.186Z</time></trkpt><trkpt lat="45.1343068" lon="8.1346935"><ele>312.0</ele><time>2026-04-18T08:06:18.186Z</time></trkpt><trkpt lat="45.1342633" lon="8.1345417"><ele>309.8</ele><time>2026-04-18T08:06:20.186Z</time></trkpt><trkpt lat="45.1341737" lon="8.1344593"><ele>307.6</ele><time>2026-04-18T08:06:22.186Z</time></trkpt><trkpt lat="45.1340595" lon="8.1344139"><ele>305.40000000000003</ele><time>2026-04-18T08:06:24.186Z</time></trkpt><trkpt lat="45.1339862" lon="8.1343414"><ele>303.2</ele><time>2026-04-18T08:06:25.186Z</time></trkpt><trkpt lat="45.1339128" lon="8.1342512"><ele>301.0</ele><time>2026-04-18T08:06:26.186Z</time></trkpt><trkpt lat="45.1338573" lon="8.1341475"><ele>300.66666666666663</ele><time>2026-04-18T08:06:27.186Z</time></trkpt><trkpt lat="45.1338151" lon="8.1340615"><ele>300.3333333333333</ele><time>2026-04-18T08:06:28.186Z</time></trkpt><trkpt lat="45.1337748" lon="8.1339799"><ele>300.0</ele><time>2026-04-18T08:06:29.186Z</time></trkpt><trkpt lat="45.1337143" lon="8.1338594"><ele>299.6666666666667</ele><time>2026-04-18T08:06:31.186Z</time></trkpt><trkpt lat="45.1336362" lon="8.1338879"><ele>299.33333333333337</ele><time>2026-04-18T08:06:33.186Z</time></trkpt><trkpt lat="45.1335623" lon="8.133977"><ele>299.0</ele><time>2026-04-18T08:06:35.186Z</time></trkpt><trkpt lat="45.1335172" lon="8.1340539"><ele>299.0</ele><time>2026-04-18T08:06:36.186Z</time></trkpt><trkpt lat="45.133477" lon="8.1341315"><ele>299.0</ele><time>2026-04-18T08:06:37.186Z</time></trkpt><trkpt lat="45.1334282" lon="8.1342463"><ele>299.0</ele><time>2026-04-18T08:06:39.186Z</time></trkpt><trkpt lat="45.133383" lon="8.1343128"><ele>299.0</ele><time>2026-04-18T08:06:41.186Z</time></trkpt><trkpt lat="45.133322" lon="8.1343525"><ele>299.0</ele><time>2026-04-18T08:06:43.186Z</time></trkpt><trkpt lat="45.1332547" lon="8.1343739"><ele>299.0</ele><time>2026-04-18T08:06:45.186Z</time></trkpt><trkpt lat="45.1331768" lon="8.134394"><ele>299.0</ele><time>2026-04-18T08:06:47.186Z</time></trkpt><trkpt lat="45.1330848" lon="8.1344131"><ele>297.4</ele><time>2026-04-18T08:06:50.186Z</time></trkpt><trkpt lat="45.1329934" lon="8.1343892"><ele>295.79999999999995</ele><time>2026-04-18T08:06:52.186Z</time></trkpt><trkpt lat="45.1328605" lon="8.1343587"><ele>294.20000000000005</ele><time>2026-04-18T08:06:54.186Z</time></trkpt><trkpt lat="45.132781" lon="8.1343572"><ele>292.6</ele><time>2026-04-18T08:06:55.186Z</time></trkpt><trkpt lat="45.1326991" lon="8.1343691"><ele>291.0</ele><time>2026-04-18T08:06:56.186Z</time></trkpt><trkpt lat="45.132628" lon="8.1343891"><ele>291.0</ele><time>2026-04-18T08:06:57.186Z</time></trkpt><trkpt lat="45.1325558" lon="8.1344088"><ele>291.0</ele><time>2026-04-18T08:06:58.187Z</time></trkpt><trkpt lat="45.1324912" lon="8.1344255"><ele>291.0</ele><time>2026-04-18T08:06:59.186Z</time></trkpt><trkpt lat="45.1323759" lon="8.1344892"><ele>291.0</ele><time>2026-04-18T08:07:01.186Z</time></trkpt><trkpt lat="45.1323171" lon="8.1345392"><ele>291.0</ele><time>2026-04-18T08:07:02.186Z</time></trkpt><trkpt lat="45.1322671" lon="8.134598"><ele>291.0</ele><time>2026-04-18T08:07:03.187Z</time></trkpt><trkpt lat="45.1321842" lon="8.1346816"><ele>292.1666666666667</ele><time>2026-04-18T08:07:05.186Z</time></trkpt><trkpt lat="45.1321161" lon="8.1347339"><ele>293.3333333333333</ele><time>2026-04-18T08:07:09.186Z</time></trkpt><trkpt lat="45.1320427" lon="8.1347791"><ele>294.5</ele><time>2026-04-18T08:07:11.186Z</time></trkpt><trkpt lat="45.1319316" lon="8.1348545"><ele>295.66666666666663</ele><time>2026-04-18T08:07:13.186Z</time></trkpt><trkpt lat="45.1318773" lon="8.1349"><ele>296.8333333333333</ele><time>2026-04-18T08:07:14.186Z</time></trkpt><trkpt lat="45.1318214" lon="8.1349489"><ele>298.0</ele><time>2026-04-18T08:07:15.186Z</time></trkpt><trkpt lat="45.1317277" lon="8.1350331"><ele>298.0</ele><time>2026-04-18T08:07:17.187Z</time></trkpt><trkpt lat="45.1316421" lon="8.1350964"><ele>298.0</ele><time>2026-04-18T08:07:19.186Z</time></trkpt><trkpt lat="45.1317196" lon="8.1350311"><ele>298.0</ele><time>2026-04-18T08:07:29.186Z</time></trkpt><trkpt lat="45.1317752" lon="8.1349846"><ele>298.0</ele><time>2026-04-18T08:07:31.186Z</time></trkpt><trkpt lat="45.1318562" lon="8.134931"><ele>298.0</ele><time>2026-04-18T08:07:33.186Z</time></trkpt><trkpt lat="45.1319136" lon="8.1348847"><ele>298.0</ele><time>2026-04-18T08:07:34.186Z</time></trkpt><trkpt lat="45.1320108" lon="8.1348101"><ele>296.6</ele><time>2026-04-18T08:07:36.186Z</time></trkpt><trkpt lat="45.1321153" lon="8.1347379"><ele>295.20000000000005</ele><time>2026-04-18T08:07:38.186Z</time></trkpt><trkpt lat="45.1322217" lon="8.1346563"><ele>293.8</ele><time>2026-04-18T08:07:40.186Z</time></trkpt><trkpt lat="45.1322767" lon="8.1345893"><ele>292.40000000000003</ele><time>2026-04-18T08:07:41.186Z</time></trkpt><trkpt lat="45.1323636" lon="8.1345019"><ele>291.0</ele><time>2026-04-18T08:07:43.187Z</time></trkpt><trkpt lat="45.1324705" lon="8.1344354"><ele>291.0</ele><time>2026-04-18T08:07:45.187Z</time></trkpt><trkpt lat="45.1325787" lon="8.1344065"><ele>291.0</ele><time>2026-04-18T08:07:47.186Z</time></trkpt><trkpt lat="45.1326585" lon="8.1343842"><ele>291.0</ele><time>2026-04-18T08:07:48.186Z</time></trkpt><trkpt lat="45.1327263" lon="8.134372"><ele>291.0</ele><time>2026-04-18T08:07:49.186Z</time></trkpt><trkpt lat="45.1328369" lon="8.134351"><ele>291.0</ele><time>2026-04-18T08:07:51.187Z</time></trkpt><trkpt lat="45.1329556" lon="8.1343639"><ele>291.0</ele><time>2026-04-18T08:07:53.187Z</time></trkpt><trkpt lat="45.1330349" lon="8.1343814"><ele>291.0</ele><time>2026-04-18T08:07:55.186Z</time></trkpt><trkpt lat="45.1331132" lon="8.1344162"><ele>291.0</ele><time>2026-04-18T08:07:58.187Z</time></trkpt><trkpt lat="45.1331809" lon="8.1344061"><ele>291.0</ele><time>2026-04-18T08:08:02.186Z</time></trkpt><trkpt lat="45.1332446" lon="8.1343972"><ele>291.0</ele><time>2026-04-18T08:08:12.186Z</time></trkpt><trkpt lat="45.1333339" lon="8.1343706"><ele>291.0</ele><time>2026-04-18T08:08:14.186Z</time></trkpt><trkpt lat="45.1334041" lon="8.1343961"><ele>291.0</ele><time>2026-04-18T08:08:16.186Z</time></trkpt><trkpt lat="45.1333523" lon="8.1343249"><ele>291.0</ele><time>2026-04-18T08:08:22.186Z</time></trkpt><trkpt lat="45.1332737" lon="8.1343673"><ele>291.0</ele><time>2026-04-18T08:08:25.186Z</time></trkpt><trkpt lat="45.1331918" lon="8.1343949"><ele>291.0</ele><time>2026-04-18T08:08:27.187Z</time></trkpt><trkpt lat="45.1331264" lon="8.1344527"><ele>291.0</ele><time>2026-04-18T08:08:29.186Z</time></trkpt><trkpt lat="45.1330854" lon="8.1345861"><ele>291.0</ele><time>2026-04-18T08:08:31.186Z</time></trkpt><trkpt lat="45.1330914" lon="8.1347804"><ele>291.6666666666667</ele><time>2026-04-18T08:08:33.186Z</time></trkpt><trkpt lat="45.1330892" lon="8.1348908"><ele>292.3333333333333</ele><time>2026-04-18T08:08:34.186Z</time></trkpt><trkpt lat="45.1330811" lon="8.1350094"><ele>293.0</ele><time>2026-04-18T08:08:35.187Z</time></trkpt><trkpt lat="45.1330757" lon="8.1351323"><ele>293.66666666666663</ele><time>2026-04-18T08:08:36.186Z</time></trkpt><trkpt lat="45.1330656" lon="8.1352603"><ele>294.3333333333333</ele><time>2026-04-18T08:08:37.186Z</time></trkpt><trkpt lat="45.1330517" lon="8.1353858"><ele>295.0</ele><time>2026-04-18T08:08:38.186Z</time></trkpt><trkpt lat="45.1330314" lon="8.1354905"><ele>295.0</ele><time>2026-04-18T08:08:39.186Z</time></trkpt><trkpt lat="45.1330137" lon="8.1355965"><ele>295.0</ele><time>2026-04-18T08:08:40.186Z</time></trkpt><trkpt lat="45.1329931" lon="8.1357071"><ele>295.0</ele><time>2026-04-18T08:08:41.186Z</time></trkpt><trkpt lat="45.1329743" lon="8.1358242"><ele>295.0</ele><time>2026-04-18T08:08:42.186Z</time></trkpt><trkpt lat="45.1329515" lon="8.1359371"><ele>295.0</ele><time>2026-04-18T08:08:43.186Z</time></trkpt><trkpt lat="45.1329359" lon="8.1360515"><ele>295.0</ele><time>2026-04-18T08:08:44.186Z</time></trkpt><trkpt lat="45.1329358" lon="8.1361729"><ele>293.66666666666663</ele><time>2026-04-18T08:08:45.186Z</time></trkpt><trkpt lat="45.1329403" lon="8.1362787"><ele>292.3333333333333</ele><time>2026-04-18T08:08:46.187Z</time></trkpt><trkpt lat="45.1329693" lon="8.1363972"><ele>291.0</ele><time>2026-04-18T08:08:47.187Z</time></trkpt><trkpt lat="45.1330019" lon="8.1365153"><ele>289.6666666666667</ele><time>2026-04-18T08:08:48.187Z</time></trkpt><trkpt lat="45.1330396" lon="8.1366297"><ele>288.33333333333337</ele><time>2026-04-18T08:08:49.187Z</time></trkpt><trkpt lat="45.1330941" lon="8.1367559"><ele>287.0</ele><time>2026-04-18T08:08:50.186Z</time></trkpt><trkpt lat="45.1331489" lon="8.1368815"><ele>287.6666666666667</ele><time>2026-04-18T08:08:51.186Z</time></trkpt><trkpt lat="45.1332117" lon="8.1369871"><ele>288.33333333333337</ele><time>2026-04-18T08:08:52.186Z</time></trkpt><trkpt lat="45.133259" lon="8.1370792"><ele>289.0</ele><time>2026-04-18T08:08:53.186Z</time></trkpt><trkpt lat="45.1333005" lon="8.137176"><ele>289.6666666666667</ele><time>2026-04-18T08:08:54.186Z</time></trkpt><trkpt lat="45.1333458" lon="8.1372756"><ele>290.3333333333333</ele><time>2026-04-18T08:08:55.186Z</time></trkpt><trkpt lat="45.1333946" lon="8.1373701"><ele>291.0</ele><time>2026-04-18T08:08:56.186Z</time></trkpt><trkpt lat="45.1334489" lon="8.1374678"><ele>289.0</ele><time>2026-04-18T08:08:57.186Z</time></trkpt><trkpt lat="45.1335001" lon="8.1375563"><ele>287.0</ele><time>2026-04-18T08:08:58.187Z</time></trkpt><trkpt lat="45.1335654" lon="8.1376313"><ele>285.0</ele><time>2026-04-18T08:08:59.186Z</time></trkpt><trkpt lat="45.1336429" lon="8.1376839"><ele>283.0</ele><time>2026-04-18T08:09:00.186Z</time></trkpt><trkpt lat="45.133727" lon="8.1377347"><ele>281.0</ele><time>2026-04-18T08:09:01.187Z</time></trkpt><trkpt lat="45.1338158" lon="8.137775"><ele>279.0</ele><time>2026-04-18T08:09:02.186Z</time></trkpt><trkpt lat="45.133896" lon="8.1378162"><ele>279.0</ele><time>2026-04-18T08:09:03.186Z</time></trkpt><trkpt lat="45.1339687" lon="8.1378719"><ele>279.0</ele><time>2026-04-18T08:09:04.186Z</time></trkpt><trkpt lat="45.134032" lon="8.1379568"><ele>279.0</ele><time>2026-04-18T08:09:05.187Z</time></trkpt><trkpt lat="45.1340886" lon="8.1380512"><ele>279.0</ele><time>2026-04-18T08:09:06.187Z</time></trkpt><trkpt lat="45.1341454" lon="8.1381739"><ele>279.0</ele><time>2026-04-18T08:09:07.186Z</time></trkpt><trkpt lat="45.1341983" lon="8.1382782"><ele>278.1666666666667</ele><time>2026-04-18T08:09:08.186Z</time></trkpt><trkpt lat="45.1342465" lon="8.1383695"><ele>277.3333333333333</ele><time>2026-04-18T08:09:09.186Z</time></trkpt><trkpt lat="45.1343009" lon="8.1384395"><ele>276.5</ele><time>2026-04-18T08:09:10.186Z</time></trkpt><trkpt lat="45.1344075" lon="8.1385107"><ele>275.66666666666663</ele><time>2026-04-18T08:09:12.187Z</time></trkpt><trkpt lat="45.134482" lon="8.1385124"><ele>274.8333333333333</ele><time>2026-04-18T08:09:13.186Z</time></trkpt><trkpt lat="45.1345553" lon="8.138518"><ele>274.0</ele><time>2026-04-18T08:09:14.186Z</time></trkpt><trkpt lat="45.1346379" lon="8.1385108"><ele>274.0</ele><time>2026-04-18T08:09:15.186Z</time></trkpt><trkpt lat="45.1347274" lon="8.1385159"><ele>274.0</ele><time>2026-04-18T08:09:16.187Z</time></trkpt><trkpt lat="45.1348284" lon="8.1385252"><ele>274.0</ele><time>2026-04-18T08:09:17.187Z</time></trkpt><trkpt lat="45.1349282" lon="8.138542"><ele>274.0</ele><time>2026-04-18T08:09:18.186Z</time></trkpt><trkpt lat="45.1350178" lon="8.1385695"><ele>274.0</ele><time>2026-04-18T08:09:19.186Z</time></trkpt><trkpt lat="45.1350985" lon="8.1386289"><ele>273.8333333333333</ele><time>2026-04-18T08:09:20.186Z</time></trkpt><trkpt lat="45.1351579" lon="8.1387126"><ele>273.66666666666663</ele><time>2026-04-18T08:09:21.186Z</time></trkpt><trkpt lat="45.1352054" lon="8.1388049"><ele>273.5</ele><time>2026-04-18T08:09:22.186Z</time></trkpt><trkpt lat="45.1352363" lon="8.1389058"><ele>273.3333333333333</ele><time>2026-04-18T08:09:23.186Z</time></trkpt><trkpt lat="45.1352457" lon="8.1390034"><ele>273.1666666666667</ele><time>2026-04-18T08:09:24.186Z</time></trkpt><trkpt lat="45.1352298" lon="8.1391095"><ele>273.0</ele><time>2026-04-18T08:09:25.186Z</time></trkpt><trkpt lat="45.135213" lon="8.1392213"><ele>273.0</ele><time>2026-04-18T08:09:26.186Z</time></trkpt><trkpt lat="45.1351861" lon="8.1393407"><ele>273.0</ele><time>2026-04-18T08:09:27.187Z</time></trkpt><trkpt lat="45.1351549" lon="8.1394643"><ele>273.0</ele><time>2026-04-18T08:09:28.186Z</time></trkpt><trkpt lat="45.1351232" lon="8.1395902"><ele>273.0</ele><time>2026-04-18T08:09:29.186Z</time></trkpt><trkpt lat="45.1351005" lon="8.1397079"><ele>273.0</ele><time>2026-04-18T08:09:30.186Z</time></trkpt><trkpt lat="45.1350799" lon="8.1398173"><ele>273.0</ele><time>2026-04-18T08:09:31.186Z</time></trkpt><trkpt lat="45.1350618" lon="8.1399282"><ele>272.1666666666667</ele><time>2026-04-18T08:09:32.187Z</time></trkpt><trkpt lat="45.1350681" lon="8.1400349"><ele>271.3333333333333</ele><time>2026-04-18T08:09:33.186Z</time></trkpt><trkpt lat="45.1350928" lon="8.1401262"><ele>270.5</ele><time>2026-04-18T08:09:34.186Z</time></trkpt><trkpt lat="45.1351452" lon="8.1401823"><ele>269.66666666666663</ele><time>2026-04-18T08:09:35.186Z</time></trkpt><trkpt lat="45.1352114" lon="8.1402087"><ele>268.8333333333333</ele><time>2026-04-18T08:09:36.187Z</time></trkpt><trkpt lat="45.1352901" lon="8.1402207"><ele>268.0</ele><time>2026-04-18T08:09:37.186Z</time></trkpt><trkpt lat="45.1354055" lon="8.140241"><ele>268.0</ele><time>2026-04-18T08:09:39.186Z</time></trkpt><trkpt lat="45.135473" lon="8.1402401"><ele>268.0</ele><time>2026-04-18T08:09:40.186Z</time></trkpt><trkpt lat="45.1355489" lon="8.1402257"><ele>268.0</ele><time>2026-04-18T08:09:41.186Z</time></trkpt><trkpt lat="45.1356284" lon="8.1402014"><ele>268.0</ele><time>2026-04-18T08:09:42.187Z</time></trkpt><trkpt lat="45.135718" lon="8.1401657"><ele>268.0</ele><time>2026-04-18T08:09:43.186Z</time></trkpt><trkpt lat="45.1358088" lon="8.1401284"><ele>268.0</ele><time>2026-04-18T08:09:44.186Z</time></trkpt><trkpt lat="45.1359034" lon="8.1400951"><ele>270.0</ele><time>2026-04-18T08:09:45.186Z</time></trkpt><trkpt lat="45.1359921" lon="8.1400682"><ele>272.0</ele><time>2026-04-18T08:09:46.186Z</time></trkpt><trkpt lat="45.1360898" lon="8.1400396"><ele>274.0</ele><time>2026-04-18T08:09:47.186Z</time></trkpt><trkpt lat="45.1361804" lon="8.1400216"><ele>276.0</ele><time>2026-04-18T08:09:48.186Z</time></trkpt><trkpt lat="45.1362655" lon="8.1400199"><ele>278.0</ele><time>2026-04-18T08:09:49.186Z</time></trkpt><trkpt lat="45.136347" lon="8.1400423"><ele>278.0</ele><time>2026-04-18T08:09:50.186Z</time></trkpt><trkpt lat="45.1364251" lon="8.1400784"><ele>278.0</ele><time>2026-04-18T08:09:51.186Z</time></trkpt><trkpt lat="45.1365016" lon="8.140111"><ele>278.0</ele><time>2026-04-18T08:09:52.186Z</time></trkpt><trkpt lat="45.1365806" lon="8.1401434"><ele>278.0</ele><time>2026-04-18T08:09:53.186Z</time></trkpt><trkpt lat="45.136668" lon="8.1401613"><ele>278.0</ele><time>2026-04-18T08:09:54.187Z</time></trkpt><trkpt lat="45.1367524" lon="8.1401638"><ele>278.0</ele><time>2026-04-18T08:09:55.186Z</time></trkpt><trkpt lat="45.1368292" lon="8.1401454"><ele>277.0</ele><time>2026-04-18T08:09:56.186Z</time></trkpt><trkpt lat="45.1369066" lon="8.1401086"><ele>276.0</ele><time>2026-04-18T08:09:57.186Z</time></trkpt><trkpt lat="45.1369772" lon="8.1400392"><ele>275.0</ele><time>2026-04-18T08:09:58.186Z</time></trkpt><trkpt lat="45.1370433" lon="8.1399735"><ele>274.0</ele><time>2026-04-18T08:09:59.186Z</time></trkpt><trkpt lat="45.1371036" lon="8.1399441"><ele>273.0</ele><time>2026-04-18T08:10:00.186Z</time></trkpt><trkpt lat="45.1372039" lon="8.1400139"><ele>272.0</ele><time>2026-04-18T08:10:02.186Z</time></trkpt><trkpt lat="45.1372205" lon="8.140103"><ele>272.0</ele><time>2026-04-18T08:10:03.186Z</time></trkpt><trkpt lat="45.1372206" lon="8.1402065"><ele>272.0</ele><time>2026-04-18T08:10:04.186Z</time></trkpt><trkpt lat="45.1372184" lon="8.140301"><ele>272.0</ele><time>2026-04-18T08:10:05.186Z</time></trkpt><trkpt lat="45.137209" lon="8.1403984"><ele>272.0</ele><time>2026-04-18T08:10:06.187Z</time></trkpt><trkpt lat="45.1371875" lon="8.1405051"><ele>272.0</ele><time>2026-04-18T08:10:07.187Z</time></trkpt><trkpt lat="45.1371627" lon="8.1406236"><ele>272.0</ele><time>2026-04-18T08:10:08.187Z</time></trkpt><trkpt lat="45.1371283" lon="8.1407507"><ele>269.2</ele><time>2026-04-18T08:10:09.186Z</time></trkpt><trkpt lat="45.1370963" lon="8.140875"><ele>266.4</ele><time>2026-04-18T08:10:10.186Z</time></trkpt><trkpt lat="45.1370672" lon="8.1410033"><ele>263.6</ele><time>2026-04-18T08:10:11.186Z</time></trkpt><trkpt lat="45.1370396" lon="8.1411245"><ele>260.8</ele><time>2026-04-18T08:10:12.187Z</time></trkpt><trkpt lat="45.1370031" lon="8.1412345"><ele>258.0</ele><time>2026-04-18T08:10:13.186Z</time></trkpt><trkpt lat="45.1369605" lon="8.1413472"><ele>258.0</ele><time>2026-04-18T08:10:14.186Z</time></trkpt><trkpt lat="45.1369119" lon="8.1414354"><ele>258.0</ele><time>2026-04-18T08:10:15.186Z</time></trkpt><trkpt lat="45.1368605" lon="8.1415179"><ele>258.0</ele><time>2026-04-18T08:10:16.186Z</time></trkpt><trkpt lat="45.1368072" lon="8.1416135"><ele>258.0</ele><time>2026-04-18T08:10:17.186Z</time></trkpt><trkpt lat="45.1367537" lon="8.1417021"><ele>258.0</ele><time>2026-04-18T08:10:18.187Z</time></trkpt><trkpt lat="45.1367068" lon="8.1417941"><ele>258.0</ele><time>2026-04-18T08:10:19.186Z</time></trkpt><trkpt lat="45.136642" lon="8.1418753"><ele>256.8333333333333</ele><time>2026-04-18T08:10:20.186Z</time></trkpt><trkpt lat="45.1365864" lon="8.1419445"><ele>255.66666666666669</ele><time>2026-04-18T08:10:21.186Z</time></trkpt><trkpt lat="45.1365326" lon="8.1420227"><ele>254.5</ele><time>2026-04-18T08:10:22.186Z</time></trkpt><trkpt lat="45.1364914" lon="8.1420992"><ele>253.33333333333334</ele><time>2026-04-18T08:10:23.186Z</time></trkpt><trkpt lat="45.1364534" lon="8.1422519"><ele>252.16666666666669</ele><time>2026-04-18T08:10:25.186Z</time></trkpt><trkpt lat="45.1364633" lon="8.1423418"><ele>251.0</ele><time>2026-04-18T08:10:26.186Z</time></trkpt><trkpt lat="45.1365043" lon="8.1424392"><ele>250.20000000000002</ele><time>2026-04-18T08:10:27.186Z</time></trkpt><trkpt lat="45.1365677" lon="8.1425428"><ele>249.40000000000003</ele><time>2026-04-18T08:10:28.186Z</time></trkpt><trkpt lat="45.1366487" lon="8.1426536"><ele>248.6</ele><time>2026-04-18T08:10:29.186Z</time></trkpt><trkpt lat="45.1367122" lon="8.1427844"><ele>247.8</ele><time>2026-04-18T08:10:30.187Z</time></trkpt><trkpt lat="45.136782" lon="8.1429019"><ele>247.0</ele><time>2026-04-18T08:10:31.186Z</time></trkpt><trkpt lat="45.1368432" lon="8.1430219"><ele>246.99999999999997</ele><time>2026-04-18T08:10:32.186Z</time></trkpt><trkpt lat="45.1369101" lon="8.1431343"><ele>247.0</ele><time>2026-04-18T08:10:33.186Z</time></trkpt><trkpt lat="45.1369705" lon="8.1432318"><ele>247.0</ele><time>2026-04-18T08:10:34.186Z</time></trkpt><trkpt lat="45.1370341" lon="8.1433221"><ele>247.0</ele><time>2026-04-18T08:10:35.186Z</time></trkpt><trkpt lat="45.1370926" lon="8.143407"><ele>246.99999999999997</ele><time>2026-04-18T08:10:36.186Z</time></trkpt><trkpt lat="45.1371508" lon="8.1434678"><ele>247.0</ele><time>2026-04-18T08:10:37.186Z</time></trkpt><trkpt lat="45.1372115" lon="8.1435032"><ele>246.66666666666666</ele><time>2026-04-18T08:10:38.186Z</time></trkpt><trkpt lat="45.1372788" lon="8.1435197"><ele>246.33333333333331</ele><time>2026-04-18T08:10:39.186Z</time></trkpt><trkpt lat="45.1373441" lon="8.143516"><ele>246.0</ele><time>2026-04-18T08:10:40.186Z</time></trkpt><trkpt lat="45.1374478" lon="8.1435236"><ele>245.66666666666669</ele><time>2026-04-18T08:10:42.186Z</time></trkpt><trkpt lat="45.1374965" lon="8.1436433"><ele>245.33333333333334</ele><time>2026-04-18T08:10:44.186Z</time></trkpt><trkpt lat="45.1374622" lon="8.1437942"><ele>245.0</ele><time>2026-04-18T08:10:46.186Z</time></trkpt><trkpt lat="45.1374139" lon="8.1438801"><ele>243.16666666666669</ele><time>2026-04-18T08:10:47.186Z</time></trkpt><trkpt lat="45.1373529" lon="8.1439737"><ele>241.33333333333334</ele><time>2026-04-18T08:10:48.186Z</time></trkpt><trkpt lat="45.1372954" lon="8.1440689"><ele>239.5</ele><time>2026-04-18T08:10:49.186Z</time></trkpt><trkpt lat="45.1372322" lon="8.1441478"><ele>237.66666666666669</ele><time>2026-04-18T08:10:50.186Z</time></trkpt><trkpt lat="45.1371745" lon="8.1442243"><ele>235.83333333333334</ele><time>2026-04-18T08:10:51.186Z</time></trkpt><trkpt lat="45.1371337" lon="8.1443155"><ele>234.0</ele><time>2026-04-18T08:10:52.186Z</time></trkpt><trkpt lat="45.1371202" lon="8.1444302"><ele>231.66666666666666</ele><time>2026-04-18T08:10:53.186Z</time></trkpt><trkpt lat="45.1371115" lon="8.144546"><ele>229.33333333333331</ele><time>2026-04-18T08:10:54.186Z</time></trkpt><trkpt lat="45.1371123" lon="8.1446614"><ele>227.0</ele><time>2026-04-18T08:10:55.186Z</time></trkpt><trkpt lat="45.1371077" lon="8.144764"><ele>224.66666666666666</ele><time>2026-04-18T08:10:56.187Z</time></trkpt><trkpt lat="45.1370835" lon="8.1448733"><ele>222.33333333333331</ele><time>2026-04-18T08:10:57.186Z</time></trkpt><trkpt lat="45.1370475" lon="8.1449806"><ele>220.0</ele><time>2026-04-18T08:10:58.186Z</time></trkpt><trkpt lat="45.1370045" lon="8.1450661"><ele>219.85714285714283</ele><time>2026-04-18T08:10:59.186Z</time></trkpt><trkpt lat="45.1369686" lon="8.1451477"><ele>219.71428571428572</ele><time>2026-04-18T08:11:00.186Z</time></trkpt><trkpt lat="45.1369502" lon="8.1452448"><ele>219.57142857142856</ele><time>2026-04-18T08:11:01.186Z</time></trkpt><trkpt lat="45.1369507" lon="8.1453463"><ele>219.42857142857142</ele><time>2026-04-18T08:11:02.187Z</time></trkpt><trkpt lat="45.1369642" lon="8.1454524"><ele>219.28571428571428</ele><time>2026-04-18T08:11:03.186Z</time></trkpt><trkpt lat="45.1370031" lon="8.1455439"><ele>219.14285714285714</ele><time>2026-04-18T08:11:04.187Z</time></trkpt><trkpt lat="45.1370603" lon="8.1456334"><ele>219.0</ele><time>2026-04-18T08:11:05.187Z</time></trkpt><trkpt lat="45.1371214" lon="8.14568"><ele>218.6</ele><time>2026-04-18T08:11:06.186Z</time></trkpt><trkpt lat="45.137181" lon="8.1457519"><ele>218.2</ele><time>2026-04-18T08:11:07.187Z</time></trkpt><trkpt lat="45.1372446" lon="8.1458263"><ele>217.79999999999998</ele><time>2026-04-18T08:11:08.186Z</time></trkpt><trkpt lat="45.1373024" lon="8.1459361"><ele>217.39999999999998</ele><time>2026-04-18T08:11:09.186Z</time></trkpt><trkpt lat="45.1373625" lon="8.1460608"><ele>217.0</ele><time>2026-04-18T08:11:10.186Z</time></trkpt><trkpt lat="45.1374169" lon="8.146179"><ele>217.0</ele><time>2026-04-18T08:11:11.186Z</time></trkpt><trkpt lat="45.1374897" lon="8.1462927"><ele>217.0</ele><time>2026-04-18T08:11:12.186Z</time></trkpt><trkpt lat="45.1375607" lon="8.1463911"><ele>217.0</ele><time>2026-04-18T08:11:13.186Z</time></trkpt><trkpt lat="45.1376265" lon="8.1464929"><ele>217.0</ele><time>2026-04-18T08:11:14.186Z</time></trkpt><trkpt lat="45.1377034" lon="8.1465935"><ele>217.0</ele><time>2026-04-18T08:11:15.187Z</time></trkpt><trkpt lat="45.1377706" lon="8.1466951"><ele>215.75</ele><time>2026-04-18T08:11:16.186Z</time></trkpt><trkpt lat="45.1378321" lon="8.1468258"><ele>214.5</ele><time>2026-04-18T08:11:17.186Z</time></trkpt><trkpt lat="45.1378804" lon="8.146971"><ele>213.25</ele><time>2026-04-18T08:11:18.186Z</time></trkpt><trkpt lat="45.1379405" lon="8.1471049"><ele>212.0</ele><time>2026-04-18T08:11:19.186Z</time></trkpt><trkpt lat="45.1379958" lon="8.1472487"><ele>210.5</ele><time>2026-04-18T08:11:20.186Z</time></trkpt><trkpt lat="45.1380634" lon="8.1474074"><ele>209.0</ele><time>2026-04-18T08:11:21.187Z</time></trkpt><trkpt lat="45.1381287" lon="8.1475493"><ele>207.5</ele><time>2026-04-18T08:11:22.187Z</time></trkpt><trkpt lat="45.1382071" lon="8.1476752"><ele>206.0</ele><time>2026-04-18T08:11:23.187Z</time></trkpt><trkpt lat="45.1382908" lon="8.1478005"><ele>206.0</ele><time>2026-04-18T08:11:24.186Z</time></trkpt><trkpt lat="45.1383717" lon="8.1479272"><ele>206.0</ele><time>2026-04-18T08:11:25.186Z</time></trkpt><trkpt lat="45.1384515" lon="8.1480627"><ele>206.0</ele><time>2026-04-18T08:11:26.186Z</time></trkpt><trkpt lat="45.1385383" lon="8.1481988"><ele>206.0</ele><time>2026-04-18T08:11:27.186Z</time></trkpt><trkpt lat="45.1386169" lon="8.1483271"><ele>207.20000000000002</ele><time>2026-04-18T08:11:28.186Z</time></trkpt><trkpt lat="45.1386901" lon="8.1484469"><ele>208.4</ele><time>2026-04-18T08:11:29.186Z</time></trkpt><trkpt lat="45.138757" lon="8.148567"><ele>209.6</ele><time>2026-04-18T08:11:30.186Z</time></trkpt><trkpt lat="45.1388269" lon="8.1486867"><ele>210.8</ele><time>2026-04-18T08:11:31.186Z</time></trkpt><trkpt lat="45.1388893" lon="8.148804"><ele>212.0</ele><time>2026-04-18T08:11:32.186Z</time></trkpt><trkpt lat="45.1389462" lon="8.1489229"><ele>212.00000000000003</ele><time>2026-04-18T08:11:33.186Z</time></trkpt><trkpt lat="45.1390024" lon="8.1490181"><ele>212.0</ele><time>2026-04-18T08:11:34.186Z</time></trkpt><trkpt lat="45.1390688" lon="8.1490718"><ele>212.0</ele><time>2026-04-18T08:11:35.186Z</time></trkpt><trkpt lat="45.1391395" lon="8.1491239"><ele>212.0</ele><time>2026-04-18T08:11:36.186Z</time></trkpt><trkpt lat="45.1392287" lon="8.149137"><ele>212.00000000000003</ele><time>2026-04-18T08:11:37.186Z</time></trkpt><trkpt lat="45.1393306" lon="8.1491518"><ele>212.0</ele><time>2026-04-18T08:11:38.187Z</time></trkpt><trkpt lat="45.1394376" lon="8.149158"><ele>210.0</ele><time>2026-04-18T08:11:39.186Z</time></trkpt><trkpt lat="45.1395427" lon="8.1491712"><ele>208.0</ele><time>2026-04-18T08:11:40.186Z</time></trkpt><trkpt lat="45.1396475" lon="8.1491791"><ele>206.0</ele><time>2026-04-18T08:11:41.186Z</time></trkpt><trkpt lat="45.1397408" lon="8.1491835"><ele>204.0</ele><time>2026-04-18T08:11:42.186Z</time></trkpt><trkpt lat="45.13983" lon="8.1491996"><ele>202.0</ele><time>2026-04-18T08:11:43.186Z</time></trkpt><trkpt lat="45.1399225" lon="8.1492398"><ele>202.0</ele><time>2026-04-18T08:11:44.187Z</time></trkpt><trkpt lat="45.1400041" lon="8.1492958"><ele>202.0</ele><time>2026-04-18T08:11:45.186Z</time></trkpt><trkpt lat="45.1400861" lon="8.1493713"><ele>202.0</ele><time>2026-04-18T08:11:46.186Z</time></trkpt><trkpt lat="45.1401696" lon="8.1494504"><ele>202.0</ele><time>2026-04-18T08:11:47.186Z</time></trkpt><trkpt lat="45.1402519" lon="8.1495255"><ele>202.0</ele><time>2026-04-18T08:11:48.186Z</time></trkpt><trkpt lat="45.1403457" lon="8.1495976"><ele>202.0</ele><time>2026-04-18T08:11:49.187Z</time></trkpt><trkpt lat="45.140437" lon="8.1496673"><ele>202.0</ele><time>2026-04-18T08:11:50.186Z</time></trkpt><trkpt lat="45.1405264" lon="8.1497338"><ele>202.0</ele><time>2026-04-18T08:11:51.186Z</time></trkpt><trkpt lat="45.1405915" lon="8.1498255"><ele>202.0</ele><time>2026-04-18T08:11:52.186Z</time></trkpt><trkpt lat="45.14063" lon="8.1499282"><ele>202.0</ele><time>2026-04-18T08:11:53.186Z</time></trkpt><trkpt lat="45.1406452" lon="8.1500451"><ele>202.2</ele><time>2026-04-18T08:11:54.186Z</time></trkpt><trkpt lat="45.1406589" lon="8.1501695"><ele>202.39999999999998</ele><time>2026-04-18T08:11:55.187Z</time></trkpt><trkpt lat="45.1406868" lon="8.1502947"><ele>202.60000000000002</ele><time>2026-04-18T08:11:56.187Z</time></trkpt><trkpt lat="45.1407265" lon="8.150412"><ele>202.8</ele><time>2026-04-18T08:11:57.186Z</time></trkpt><trkpt lat="45.1407728" lon="8.1505213"><ele>203.0</ele><time>2026-04-18T08:11:58.187Z</time></trkpt><trkpt lat="45.140828" lon="8.1506237"><ele>201.8</ele><time>2026-04-18T08:11:59.186Z</time></trkpt><trkpt lat="45.1408833" lon="8.1507425"><ele>200.60000000000002</ele><time>2026-04-18T08:12:00.186Z</time></trkpt><trkpt lat="45.1409384" lon="8.1508615"><ele>199.39999999999998</ele><time>2026-04-18T08:12:01.186Z</time></trkpt><trkpt lat="45.1409955" lon="8.1509791"><ele>198.2</ele><time>2026-04-18T08:12:02.186Z</time></trkpt><trkpt lat="45.1410587" lon="8.1510951"><ele>197.0</ele><time>2026-04-18T08:12:03.186Z</time></trkpt><trkpt lat="45.1411256" lon="8.1512091"><ele>197.0</ele><time>2026-04-18T08:12:04.186Z</time></trkpt><trkpt lat="45.1411955" lon="8.1513188"><ele>197.0</ele><time>2026-04-18T08:12:05.186Z</time></trkpt><trkpt lat="45.1412705" lon="8.1514273"><ele>197.0</ele><time>2026-04-18T08:12:06.186Z</time></trkpt><trkpt lat="45.1413525" lon="8.1515416"><ele>197.0</ele><time>2026-04-18T08:12:07.186Z</time></trkpt><trkpt lat="45.1414319" lon="8.1516551"><ele>197.0</ele><time>2026-04-18T08:12:08.186Z</time></trkpt><trkpt lat="45.1415078" lon="8.1517629"><ele>197.6</ele><time>2026-04-18T08:12:09.186Z</time></trkpt><trkpt lat="45.1415759" lon="8.1518516"><ele>198.2</ele><time>2026-04-18T08:12:10.186Z</time></trkpt><trkpt lat="45.1416465" lon="8.151929"><ele>198.8</ele><time>2026-04-18T08:12:11.186Z</time></trkpt><trkpt lat="45.1417222" lon="8.1519896"><ele>199.4</ele><time>2026-04-18T08:12:12.186Z</time></trkpt><trkpt lat="45.1418058" lon="8.1520479"><ele>200.0</ele><time>2026-04-18T08:12:13.186Z</time></trkpt><trkpt lat="45.1418984" lon="8.1520876"><ele>200.00000000000003</ele><time>2026-04-18T08:12:14.186Z</time></trkpt><trkpt lat="45.1419902" lon="8.152112"><ele>200.0</ele><time>2026-04-18T08:12:15.186Z</time></trkpt><trkpt lat="45.1420642" lon="8.1521493"><ele>200.0</ele><time>2026-04-18T08:12:16.186Z</time></trkpt><trkpt lat="45.1421263" lon="8.152199"><ele>200.0</ele><time>2026-04-18T08:12:17.186Z</time></trkpt><trkpt lat="45.1421809" lon="8.1522772"><ele>200.00000000000003</ele><time>2026-04-18T08:12:18.186Z</time></trkpt><trkpt lat="45.142228" lon="8.1523767"><ele>200.0</ele><time>2026-04-18T08:12:19.186Z</time></trkpt><trkpt lat="45.1422578" lon="8.1524763"><ele>198.83333333333334</ele><time>2026-04-18T08:12:20.186Z</time></trkpt><trkpt lat="45.1422598" lon="8.1526041"><ele>197.66666666666669</ele><time>2026-04-18T08:12:21.186Z</time></trkpt><trkpt lat="45.1422581" lon="8.1527206"><ele>196.5</ele><time>2026-04-18T08:12:22.186Z</time></trkpt><trkpt lat="45.1422579" lon="8.1528424"><ele>195.33333333333331</ele><time>2026-04-18T08:12:23.186Z</time></trkpt><trkpt lat="45.1422795" lon="8.1529546"><ele>194.16666666666666</ele><time>2026-04-18T08:12:24.187Z</time></trkpt><trkpt lat="45.142324" lon="8.1530662"><ele>193.0</ele><time>2026-04-18T08:12:25.186Z</time></trkpt><trkpt lat="45.1423765" lon="8.1531856"><ele>193.0</ele><time>2026-04-18T08:12:26.186Z</time></trkpt><trkpt lat="45.1424421" lon="8.1532979"><ele>193.0</ele><time>2026-04-18T08:12:27.186Z</time></trkpt><trkpt lat="45.1425059" lon="8.1534189"><ele>193.0</ele><time>2026-04-18T08:12:28.186Z</time></trkpt><trkpt lat="45.1425646" lon="8.1535383"><ele>193.0</ele><time>2026-04-18T08:12:29.186Z</time></trkpt><trkpt lat="45.1426206" lon="8.1536638"><ele>193.0</ele><time>2026-04-18T08:12:30.186Z</time></trkpt><trkpt lat="45.1426742" lon="8.1537863"><ele>193.0</ele><time>2026-04-18T08:12:31.186Z</time></trkpt><trkpt lat="45.1427256" lon="8.1539193"><ele>193.0</ele><time>2026-04-18T08:12:32.186Z</time></trkpt><trkpt lat="45.1427578" lon="8.1540704"><ele>193.0</ele><time>2026-04-18T08:12:33.186Z</time></trkpt><trkpt lat="45.142783" lon="8.1542353"><ele>193.0</ele><time>2026-04-18T08:12:34.186Z</time></trkpt><trkpt lat="45.1428001" lon="8.154395"><ele>192.0</ele><time>2026-04-18T08:12:35.186Z</time></trkpt><trkpt lat="45.1428029" lon="8.1545646"><ele>191.0</ele><time>2026-04-18T08:12:36.186Z</time></trkpt><trkpt lat="45.1428026" lon="8.1547234"><ele>190.0</ele><time>2026-04-18T08:12:37.186Z</time></trkpt><trkpt lat="45.1428027" lon="8.1548756"><ele>189.0</ele><time>2026-04-18T08:12:38.186Z</time></trkpt><trkpt lat="45.1428141" lon="8.155016"><ele>188.0</ele><time>2026-04-18T08:12:39.187Z</time></trkpt><trkpt lat="45.1428197" lon="8.1551662"><ele>187.5</ele><time>2026-04-18T08:12:40.187Z</time></trkpt><trkpt lat="45.1428295" lon="8.1553217"><ele>187.0</ele><time>2026-04-18T08:12:41.186Z</time></trkpt><trkpt lat="45.1428306" lon="8.1554943"><ele>186.5</ele><time>2026-04-18T08:12:42.186Z</time></trkpt><trkpt lat="45.1428202" lon="8.1556794"><ele>186.0</ele><time>2026-04-18T08:12:43.187Z</time></trkpt><trkpt lat="45.1427954" lon="8.1558601"><ele>186.0</ele><time>2026-04-18T08:12:44.187Z</time></trkpt><trkpt lat="45.142756" lon="8.1560493"><ele>186.0</ele><time>2026-04-18T08:12:45.186Z</time></trkpt><trkpt lat="45.1427089" lon="8.1562443"><ele>186.0</ele><time>2026-04-18T08:12:46.187Z</time></trkpt><trkpt lat="45.1426632" lon="8.1564299"><ele>186.0</ele><time>2026-04-18T08:12:47.186Z</time></trkpt><trkpt lat="45.1426141" lon="8.1566237"><ele>186.0</ele><time>2026-04-18T08:12:48.186Z</time></trkpt><trkpt lat="45.1425604" lon="8.1568169"><ele>186.0</ele><time>2026-04-18T08:12:49.187Z</time></trkpt><trkpt lat="45.1424987" lon="8.1570069"><ele>186.0</ele><time>2026-04-18T08:12:50.186Z</time></trkpt><trkpt lat="45.1424311" lon="8.1571944"><ele>186.0</ele><time>2026-04-18T08:12:51.186Z</time></trkpt><trkpt lat="45.1423565" lon="8.1573698"><ele>187.0</ele><time>2026-04-18T08:12:52.186Z</time></trkpt><trkpt lat="45.1422862" lon="8.1575329"><ele>188.0</ele><time>2026-04-18T08:12:53.186Z</time></trkpt><trkpt lat="45.1422187" lon="8.1576848"><ele>189.0</ele><time>2026-04-18T08:12:54.186Z</time></trkpt><trkpt lat="45.1421477" lon="8.1578292"><ele>190.0</ele><time>2026-04-18T08:12:55.186Z</time></trkpt><trkpt lat="45.1420679" lon="8.1579603"><ele>190.0</ele><time>2026-04-18T08:12:56.187Z</time></trkpt><trkpt lat="45.1419929" lon="8.1580893"><ele>190.0</ele><time>2026-04-18T08:12:57.186Z</time></trkpt><trkpt lat="45.1419205" lon="8.1582114"><ele>190.0</ele><time>2026-04-18T08:12:58.187Z</time></trkpt><trkpt lat="45.1418501" lon="8.1583149"><ele>190.0</ele><time>2026-04-18T08:12:59.186Z</time></trkpt><trkpt lat="45.1417835" lon="8.1584194"><ele>190.0</ele><time>2026-04-18T08:13:00.186Z</time></trkpt><trkpt lat="45.1417251" lon="8.1585107"><ele>188.0</ele><time>2026-04-18T08:13:01.186Z</time></trkpt><trkpt lat="45.141674" lon="8.1586021"><ele>186.0</ele><time>2026-04-18T08:13:02.186Z</time></trkpt><trkpt lat="45.1416406" lon="8.1587221"><ele>184.0</ele><time>2026-04-18T08:13:03.186Z</time></trkpt><trkpt lat="45.1416193" lon="8.1588496"><ele>182.0</ele><time>2026-04-18T08:13:04.186Z</time></trkpt><trkpt lat="45.141617" lon="8.1589906"><ele>180.0</ele><time>2026-04-18T08:13:05.186Z</time></trkpt><trkpt lat="45.1415988" lon="8.1591419"><ele>180.0</ele><time>2026-04-18T08:13:06.187Z</time></trkpt><trkpt lat="45.1415835" lon="8.1592943"><ele>180.0</ele><time>2026-04-18T08:13:07.186Z</time></trkpt><trkpt lat="45.1415701" lon="8.1594372"><ele>180.0</ele><time>2026-04-18T08:13:08.187Z</time></trkpt><trkpt lat="45.1415593" lon="8.1595667"><ele>180.0</ele><time>2026-04-18T08:13:09.186Z</time></trkpt><trkpt lat="45.1415503" lon="8.1596818"><ele>180.0</ele><time>2026-04-18T08:13:10.186Z</time></trkpt><trkpt lat="45.1415545" lon="8.1597754"><ele>180.0</ele><time>2026-04-18T08:13:11.186Z</time></trkpt><trkpt lat="45.141541" lon="8.1599102"><ele>180.0</ele><time>2026-04-18T08:13:13.186Z</time></trkpt><trkpt lat="45.1414797" lon="8.15995"><ele>180.0</ele><time>2026-04-18T08:13:15.186Z</time></trkpt><trkpt lat="45.1413972" lon="8.1599371"><ele>180.0</ele><time>2026-04-18T08:13:17.187Z</time></trkpt><trkpt lat="45.1413336" lon="8.1599068"><ele>180.0</ele><time>2026-04-18T08:13:18.186Z</time></trkpt><trkpt lat="45.1412739" lon="8.1598179"><ele>180.0</ele><time>2026-04-18T08:13:19.186Z</time></trkpt><trkpt lat="45.1411959" lon="8.159735"><ele>180.0</ele><time>2026-04-18T08:13:20.186Z</time></trkpt><trkpt lat="45.1410997" lon="8.1596468"><ele>180.0</ele><time>2026-04-18T08:13:21.186Z</time></trkpt><trkpt lat="45.1409956" lon="8.1595527"><ele>180.0</ele><time>2026-04-18T08:13:22.186Z</time></trkpt><trkpt lat="45.1409036" lon="8.159469"><ele>180.0</ele><time>2026-04-18T08:13:23.186Z</time></trkpt><trkpt lat="45.1408106" lon="8.1593976"><ele>180.0</ele><time>2026-04-18T08:13:24.186Z</time></trkpt><trkpt lat="45.1407204" lon="8.1593237"><ele>180.0</ele><time>2026-04-18T08:13:25.186Z</time></trkpt><trkpt lat="45.1406266" lon="8.159278"><ele>180.0</ele><time>2026-04-18T08:13:26.186Z</time></trkpt><trkpt lat="45.1405238" lon="8.1592507"><ele>180.0</ele><time>2026-04-18T08:13:27.186Z</time></trkpt><trkpt lat="45.1404157" lon="8.1592458"><ele>180.0</ele><time>2026-04-18T08:13:28.186Z</time></trkpt><trkpt lat="45.1403175" lon="8.1592344"><ele>179.8</ele><time>2026-04-18T08:13:29.187Z</time></trkpt><trkpt lat="45.1402192" lon="8.1591896"><ele>179.6</ele><time>2026-04-18T08:13:30.186Z</time></trkpt><trkpt lat="45.1401223" lon="8.1591216"><ele>179.39999999999998</ele><time>2026-04-18T08:13:31.186Z</time></trkpt><trkpt lat="45.1400295" lon="8.159028"><ele>179.2</ele><time>2026-04-18T08:13:32.186Z</time></trkpt><trkpt lat="45.1399337" lon="8.1589301"><ele>179.0</ele><time>2026-04-18T08:13:33.187Z</time></trkpt><trkpt lat="45.1398398" lon="8.1588146"><ele>179.0</ele><time>2026-04-18T08:13:34.186Z</time></trkpt><trkpt lat="45.1397396" lon="8.158681"><ele>179.0</ele><time>2026-04-18T08:13:35.186Z</time></trkpt><trkpt lat="45.1396446" lon="8.1585524"><ele>179.0</ele><time>2026-04-18T08:13:36.186Z</time></trkpt><trkpt lat="45.1395646" lon="8.1584118"><ele>179.0</ele><time>2026-04-18T08:13:37.186Z</time></trkpt><trkpt lat="45.1394727" lon="8.1582629"><ele>180.75</ele><time>2026-04-18T08:13:38.186Z</time></trkpt><trkpt lat="45.1393706" lon="8.1581203"><ele>182.5</ele><time>2026-04-18T08:13:39.186Z</time></trkpt><trkpt lat="45.1392686" lon="8.1579878"><ele>184.25</ele><time>2026-04-18T08:13:40.186Z</time></trkpt><trkpt lat="45.1391691" lon="8.1578489"><ele>186.0</ele><time>2026-04-18T08:13:41.186Z</time></trkpt><trkpt lat="45.1390698" lon="8.1577104"><ele>185.75</ele><time>2026-04-18T08:13:42.186Z</time></trkpt><trkpt lat="45.1389752" lon="8.15755"><ele>185.5</ele><time>2026-04-18T08:13:43.187Z</time></trkpt><trkpt lat="45.1388937" lon="8.1573772"><ele>185.25</ele><time>2026-04-18T08:13:44.186Z</time></trkpt><trkpt lat="45.1388073" lon="8.1572128"><ele>185.0</ele><time>2026-04-18T08:13:45.187Z</time></trkpt><trkpt lat="45.1387237" lon="8.1570445"><ele>185.0</ele><time>2026-04-18T08:13:46.186Z</time></trkpt><trkpt lat="45.1386463" lon="8.1568834"><ele>185.0</ele><time>2026-04-18T08:13:47.186Z</time></trkpt><trkpt lat="45.1385767" lon="8.1567169"><ele>185.0</ele><time>2026-04-18T08:13:48.186Z</time></trkpt><trkpt lat="45.1384995" lon="8.156565"><ele>185.0</ele><time>2026-04-18T08:13:49.186Z</time></trkpt><trkpt lat="45.1384085" lon="8.1564265"><ele>184.25</ele><time>2026-04-18T08:13:50.186Z</time></trkpt><trkpt lat="45.1383077" lon="8.1563004"><ele>183.5</ele><time>2026-04-18T08:13:51.186Z</time></trkpt><trkpt lat="45.1381959" lon="8.1561768"><ele>182.75</ele><time>2026-04-18T08:13:52.186Z</time></trkpt><trkpt lat="45.138086" lon="8.1560599"><ele>182.0</ele><time>2026-04-18T08:13:53.186Z</time></trkpt><trkpt lat="45.1379797" lon="8.1559396"><ele>182.0</ele><time>2026-04-18T08:13:54.186Z</time></trkpt><trkpt lat="45.1378875" lon="8.15582"><ele>182.0</ele><time>2026-04-18T08:13:55.186Z</time></trkpt><trkpt lat="45.1378029" lon="8.1556888"><ele>182.0</ele><time>2026-04-18T08:13:56.186Z</time></trkpt><trkpt lat="45.1377107" lon="8.1555718"><ele>182.0</ele><time>2026-04-18T08:13:57.187Z</time></trkpt><trkpt lat="45.1375963" lon="8.1554852"><ele>181.5</ele><time>2026-04-18T08:13:58.187Z</time></trkpt><trkpt lat="45.1374771" lon="8.1554028"><ele>181.0</ele><time>2026-04-18T08:13:59.186Z</time></trkpt><trkpt lat="45.1373795" lon="8.1553188"><ele>180.5</ele><time>2026-04-18T08:14:00.186Z</time></trkpt><trkpt lat="45.1372783" lon="8.155208"><ele>180.0</ele><time>2026-04-18T08:14:01.186Z</time></trkpt><trkpt lat="45.1371829" lon="8.1550812"><ele>180.0</ele><time>2026-04-18T08:14:02.186Z</time></trkpt><trkpt lat="45.1371016" lon="8.1549446"><ele>180.0</ele><time>2026-04-18T08:14:03.187Z</time></trkpt><trkpt lat="45.1370182" lon="8.1547994"><ele>180.0</ele><time>2026-04-18T08:14:04.187Z</time></trkpt><trkpt lat="45.1369393" lon="8.1546548"><ele>180.0</ele><time>2026-04-18T08:14:05.186Z</time></trkpt><trkpt lat="45.1368576" lon="8.1545202"><ele>181.75</ele><time>2026-04-18T08:14:06.187Z</time></trkpt><trkpt lat="45.1367748" lon="8.1543783"><ele>183.5</ele><time>2026-04-18T08:14:07.186Z</time></trkpt><trkpt lat="45.1366754" lon="8.1542472"><ele>185.25</ele><time>2026-04-18T08:14:08.186Z</time></trkpt><trkpt lat="45.1365629" lon="8.1541123"><ele>187.0</ele><time>2026-04-18T08:14:09.186Z</time></trkpt><trkpt lat="45.136462" lon="8.1539894"><ele>187.2</ele><time>2026-04-18T08:14:10.186Z</time></trkpt><trkpt lat="45.1363659" lon="8.1538718"><ele>187.39999999999998</ele><time>2026-04-18T08:14:11.186Z</time></trkpt><trkpt lat="45.1362811" lon="8.1537676"><ele>187.60000000000002</ele><time>2026-04-18T08:14:12.186Z</time></trkpt><trkpt lat="45.1362136" lon="8.15366"><ele>187.8</ele><time>2026-04-18T08:14:13.187Z</time></trkpt><trkpt lat="45.1361691" lon="8.1535535"><ele>188.0</ele><time>2026-04-18T08:14:14.186Z</time></trkpt><trkpt lat="45.1361552" lon="8.1534284"><ele>188.0</ele><time>2026-04-18T08:14:15.186Z</time></trkpt><trkpt lat="45.1361566" lon="8.1532951"><ele>188.0</ele><time>2026-04-18T08:14:16.187Z</time></trkpt><trkpt lat="45.1361599" lon="8.1531774"><ele>188.0</ele><time>2026-04-18T08:14:17.186Z</time></trkpt><trkpt lat="45.136171" lon="8.1530583"><ele>188.0</ele><time>2026-04-18T08:14:18.185Z</time></trkpt><trkpt lat="45.1361775" lon="8.1529312"><ele>188.0</ele><time>2026-04-18T08:14:19.185Z</time></trkpt><trkpt lat="45.1361771" lon="8.1528072"><ele>188.0</ele><time>2026-04-18T08:14:20.185Z</time></trkpt><trkpt lat="45.1361734" lon="8.1526845"><ele>190.83333333333331</ele><time>2026-04-18T08:14:21.185Z</time></trkpt><trkpt lat="45.1361593" lon="8.1525673"><ele>193.66666666666666</ele><time>2026-04-18T08:14:22.186Z</time></trkpt><trkpt lat="45.1361254" lon="8.1524855"><ele>196.5</ele><time>2026-04-18T08:14:23.185Z</time></trkpt><trkpt lat="45.1360121" lon="8.1524314"><ele>199.33333333333331</ele><time>2026-04-18T08:14:25.185Z</time></trkpt><trkpt lat="45.1359473" lon="8.1524575"><ele>202.16666666666666</ele><time>2026-04-18T08:14:26.186Z</time></trkpt><trkpt lat="45.1358897" lon="8.1524956"><ele>205.0</ele><time>2026-04-18T08:14:27.185Z</time></trkpt><trkpt lat="45.1358308" lon="8.1525272"><ele>204.99999999999997</ele><time>2026-04-18T08:14:28.185Z</time></trkpt><trkpt lat="45.1357605" lon="8.1525372"><ele>205.0</ele><time>2026-04-18T08:14:29.185Z</time></trkpt><trkpt lat="45.1356884" lon="8.1525404"><ele>205.0</ele><time>2026-04-18T08:14:30.186Z</time></trkpt><trkpt lat="45.1356126" lon="8.1525467"><ele>205.0</ele><time>2026-04-18T08:14:31.185Z</time></trkpt><trkpt lat="45.1355373" lon="8.1525581"><ele>204.99999999999997</ele><time>2026-04-18T08:14:32.185Z</time></trkpt><trkpt lat="45.1354502" lon="8.1526024"><ele>205.0</ele><time>2026-04-18T08:14:33.185Z</time></trkpt><trkpt lat="45.1353586" lon="8.1526488"><ele>204.0</ele><time>2026-04-18T08:14:34.185Z</time></trkpt><trkpt lat="45.1352597" lon="8.1527001"><ele>203.0</ele><time>2026-04-18T08:14:35.185Z</time></trkpt><trkpt lat="45.1351629" lon="8.1527486"><ele>202.0</ele><time>2026-04-18T08:14:36.185Z</time></trkpt><trkpt lat="45.1350675" lon="8.1527942"><ele>201.0</ele><time>2026-04-18T08:14:37.186Z</time></trkpt><trkpt lat="45.134976" lon="8.152811"><ele>200.0</ele><time>2026-04-18T08:14:38.185Z</time></trkpt><trkpt lat="45.1348956" lon="8.1528082"><ele>198.66666666666669</ele><time>2026-04-18T08:14:39.185Z</time></trkpt><trkpt lat="45.1348283" lon="8.1527904"><ele>197.33333333333334</ele><time>2026-04-18T08:14:40.185Z</time></trkpt><trkpt lat="45.1347621" lon="8.1527357"><ele>196.0</ele><time>2026-04-18T08:14:41.185Z</time></trkpt><trkpt lat="45.1347083" lon="8.1526623"><ele>194.66666666666669</ele><time>2026-04-18T08:14:42.186Z</time></trkpt><trkpt lat="45.1346568" lon="8.1525797"><ele>193.33333333333334</ele><time>2026-04-18T08:14:43.185Z</time></trkpt><trkpt lat="45.1346044" lon="8.152503"><ele>192.0</ele><time>2026-04-18T08:14:44.185Z</time></trkpt><trkpt lat="45.1345332" lon="8.1524356"><ele>192.0</ele><time>2026-04-18T08:14:45.185Z</time></trkpt><trkpt lat="45.134446" lon="8.1524089"><ele>192.0</ele><time>2026-04-18T08:14:46.185Z</time></trkpt><trkpt lat="45.1343586" lon="8.1524048"><ele>192.0</ele><time>2026-04-18T08:14:47.185Z</time></trkpt><trkpt lat="45.1342591" lon="8.1523964"><ele>192.0</ele><time>2026-04-18T08:14:48.185Z</time></trkpt><trkpt lat="45.1341555" lon="8.1523642"><ele>192.0</ele><time>2026-04-18T08:14:49.185Z</time></trkpt><trkpt lat="45.1340365" lon="8.152324"><ele>192.75</ele><time>2026-04-18T08:14:50.185Z</time></trkpt><trkpt lat="45.1339151" lon="8.1522787"><ele>193.5</ele><time>2026-04-18T08:14:51.185Z</time></trkpt><trkpt lat="45.1337824" lon="8.1522296"><ele>194.25</ele><time>2026-04-18T08:14:52.186Z</time></trkpt><trkpt lat="45.1336391" lon="8.1521646"><ele>195.0</ele><time>2026-04-18T08:14:53.185Z</time></trkpt><trkpt lat="45.1334958" lon="8.152089"><ele>195.0</ele><time>2026-04-18T08:14:54.185Z</time></trkpt><trkpt lat="45.1333545" lon="8.1520265"><ele>195.0</ele><time>2026-04-18T08:14:55.185Z</time></trkpt><trkpt lat="45.1332247" lon="8.1519681"><ele>195.0</ele><time>2026-04-18T08:14:56.185Z</time></trkpt><trkpt lat="45.1331146" lon="8.1519203"><ele>195.0</ele><time>2026-04-18T08:14:57.186Z</time></trkpt><trkpt lat="45.1330199" lon="8.1518687"><ele>194.2</ele><time>2026-04-18T08:14:58.185Z</time></trkpt><trkpt lat="45.1329385" lon="8.1518114"><ele>193.4</ele><time>2026-04-18T08:14:59.185Z</time></trkpt><trkpt lat="45.1328668" lon="8.1517359"><ele>192.60000000000002</ele><time>2026-04-18T08:15:00.185Z</time></trkpt><trkpt lat="45.1327856" lon="8.1516627"><ele>191.8</ele><time>2026-04-18T08:15:01.185Z</time></trkpt><trkpt lat="45.1326983" lon="8.151595"><ele>191.0</ele><time>2026-04-18T08:15:02.185Z</time></trkpt><trkpt lat="45.1326125" lon="8.1515298"><ele>191.16666666666666</ele><time>2026-04-18T08:15:03.185Z</time></trkpt><trkpt lat="45.1325284" lon="8.1514746"><ele>191.33333333333331</ele><time>2026-04-18T08:15:04.185Z</time></trkpt><trkpt lat="45.132447" lon="8.1514241"><ele>191.5</ele><time>2026-04-18T08:15:05.185Z</time></trkpt><trkpt lat="45.1323777" lon="8.1513695"><ele>191.66666666666666</ele><time>2026-04-18T08:15:06.185Z</time></trkpt><trkpt lat="45.1323109" lon="8.1513114"><ele>191.83333333333334</ele><time>2026-04-18T08:15:07.185Z</time></trkpt><trkpt lat="45.132241" lon="8.1512485"><ele>192.0</ele><time>2026-04-18T08:15:08.186Z</time></trkpt><trkpt lat="45.132168" lon="8.1511827"><ele>192.0</ele><time>2026-04-18T08:15:09.185Z</time></trkpt><trkpt lat="45.132102" lon="8.1511277"><ele>192.0</ele><time>2026-04-18T08:15:10.185Z</time></trkpt><trkpt lat="45.1320414" lon="8.1510721"><ele>192.0</ele><time>2026-04-18T08:15:11.185Z</time></trkpt><trkpt lat="45.1319421" lon="8.1509682"><ele>192.0</ele><time>2026-04-18T08:15:13.185Z</time></trkpt><trkpt lat="45.1318374" lon="8.1508633"><ele>192.0</ele><time>2026-04-18T08:15:15.185Z</time></trkpt><trkpt lat="45.1317644" lon="8.1508042"><ele>192.0</ele><time>2026-04-18T08:15:16.185Z</time></trkpt><trkpt lat="45.1316973" lon="8.1507364"><ele>192.0</ele><time>2026-04-18T08:15:17.186Z</time></trkpt><trkpt lat="45.1316325" lon="8.1506602"><ele>192.0</ele><time>2026-04-18T08:15:18.186Z</time></trkpt><trkpt lat="45.1315669" lon="8.1505916"><ele>192.0</ele><time>2026-04-18T08:15:19.185Z</time></trkpt><trkpt lat="45.131507" lon="8.1505288"><ele>192.0</ele><time>2026-04-18T08:15:20.185Z</time></trkpt><trkpt lat="45.1314365" lon="8.1504844"><ele>192.0</ele><time>2026-04-18T08:15:21.185Z</time></trkpt><trkpt lat="45.1313687" lon="8.1504403"><ele>192.5</ele><time>2026-04-18T08:15:22.185Z</time></trkpt><trkpt lat="45.1312948" lon="8.1503903"><ele>193.0</ele><time>2026-04-18T08:15:23.185Z</time></trkpt><trkpt lat="45.1312282" lon="8.1503331"><ele>193.5</ele><time>2026-04-18T08:15:24.185Z</time></trkpt><trkpt lat="45.1311547" lon="8.1502837"><ele>194.0</ele><time>2026-04-18T08:15:25.185Z</time></trkpt><trkpt lat="45.1310901" lon="8.1502347"><ele>194.5</ele><time>2026-04-18T08:15:26.185Z</time></trkpt><trkpt lat="45.1310298" lon="8.1501909"><ele>195.0</ele><time>2026-04-18T08:15:27.185Z</time></trkpt><trkpt lat="45.1309193" lon="8.1501192"><ele>195.0</ele><time>2026-04-18T08:15:29.185Z</time></trkpt><trkpt lat="45.1308097" lon="8.1500477"><ele>195.0</ele><time>2026-04-18T08:15:31.185Z</time></trkpt><trkpt lat="45.1307203" lon="8.149977"><ele>195.0</ele><time>2026-04-18T08:15:33.185Z</time></trkpt><trkpt lat="45.1306277" lon="8.1499049"><ele>195.0</ele><time>2026-04-18T08:15:35.185Z</time></trkpt><trkpt lat="45.1305398" lon="8.149841"><ele>195.0</ele><time>2026-04-18T08:15:37.185Z</time></trkpt><trkpt lat="45.1304516" lon="8.1497886"><ele>194.4</ele><time>2026-04-18T08:15:39.185Z</time></trkpt><trkpt lat="45.1303625" lon="8.1497431"><ele>193.8</ele><time>2026-04-18T08:15:41.185Z</time></trkpt><trkpt lat="45.1302816" lon="8.1497105"><ele>193.2</ele><time>2026-04-18T08:15:43.185Z</time></trkpt><trkpt lat="45.1302097" lon="8.1496917"><ele>192.6</ele><time>2026-04-18T08:15:45.185Z</time></trkpt><trkpt lat="45.1301033" lon="8.1496639"><ele>192.0</ele><time>2026-04-18T08:15:47.185Z</time></trkpt><trkpt lat="45.1300034" lon="8.1496164"><ele>192.0</ele><time>2026-04-18T08:15:49.185Z</time></trkpt><trkpt lat="45.1298918" lon="8.1495706"><ele>192.0</ele><time>2026-04-18T08:15:51.185Z</time></trkpt><trkpt lat="45.1297987" lon="8.1494973"><ele>192.0</ele><time>2026-04-18T08:15:53.185Z</time></trkpt><trkpt lat="45.1297147" lon="8.1494546"><ele>192.0</ele><time>2026-04-18T08:15:55.185Z</time></trkpt><trkpt lat="45.1296345" lon="8.1494162"><ele>192.0</ele><time>2026-04-18T08:15:57.185Z</time></trkpt><trkpt lat="45.1295557" lon="8.1494027"><ele>193.5</ele><time>2026-04-18T08:15:59.185Z</time></trkpt><trkpt lat="45.1294741" lon="8.1494277"><ele>195.0</ele><time>2026-04-18T08:16:02.185Z</time></trkpt><trkpt lat="45.1294135" lon="8.1494629"><ele>196.5</ele><time>2026-04-18T08:16:04.185Z</time></trkpt><trkpt lat="45.1293268" lon="8.1494947"><ele>198.0</ele><time>2026-04-18T08:16:06.185Z</time></trkpt><trkpt lat="45.1292653" lon="8.1495286"><ele>199.5</ele><time>2026-04-18T08:16:07.185Z</time></trkpt><trkpt lat="45.1291884" lon="8.1495774"><ele>201.0</ele><time>2026-04-18T08:16:08.185Z</time></trkpt><trkpt lat="45.1291171" lon="8.1496253"><ele>201.0</ele><time>2026-04-18T08:16:09.186Z</time></trkpt><trkpt lat="45.1290389" lon="8.1496654"><ele>201.0</ele><time>2026-04-18T08:16:10.185Z</time></trkpt><trkpt lat="45.1289544" lon="8.1496861"><ele>201.0</ele><time>2026-04-18T08:16:11.185Z</time></trkpt><trkpt lat="45.1288692" lon="8.1496904"><ele>201.0</ele><time>2026-04-18T08:16:12.185Z</time></trkpt><trkpt lat="45.1287826" lon="8.1496798"><ele>201.0</ele><time>2026-04-18T08:16:13.185Z</time></trkpt><trkpt lat="45.128682" lon="8.1496538"><ele>201.0</ele><time>2026-04-18T08:16:14.185Z</time></trkpt><trkpt lat="45.1285884" lon="8.1496209"><ele>201.0</ele><time>2026-04-18T08:16:15.185Z</time></trkpt><trkpt lat="45.1284991" lon="8.1495801"><ele>201.0</ele><time>2026-04-18T08:16:16.185Z</time></trkpt><trkpt lat="45.1284116" lon="8.1495354"><ele>201.0</ele><time>2026-04-18T08:16:17.185Z</time></trkpt><trkpt lat="45.1283332" lon="8.1494993"><ele>201.0</ele><time>2026-04-18T08:16:18.185Z</time></trkpt><trkpt lat="45.1282516" lon="8.14942"><ele>201.0</ele><time>2026-04-18T08:16:20.185Z</time></trkpt><trkpt lat="45.1281878" lon="8.1494216"><ele>201.0</ele><time>2026-04-18T08:16:23.185Z</time></trkpt><trkpt lat="45.1282874" lon="8.1494893"><ele>201.0</ele><time>2026-04-18T08:16:32.185Z</time></trkpt><trkpt lat="45.1284245" lon="8.1495513"><ele>201.0</ele><time>2026-04-18T08:16:34.186Z</time></trkpt><trkpt lat="45.1285089" lon="8.1495906"><ele>201.0</ele><time>2026-04-18T08:16:35.185Z</time></trkpt><trkpt lat="45.1286045" lon="8.1496296"><ele>201.0</ele><time>2026-04-18T08:16:36.185Z</time></trkpt><trkpt lat="45.128702" lon="8.1496665"><ele>201.0</ele><time>2026-04-18T08:16:37.186Z</time></trkpt><trkpt lat="45.1287925" lon="8.1496836"><ele>201.0</ele><time>2026-04-18T08:16:38.185Z</time></trkpt><trkpt lat="45.1288795" lon="8.1497031"><ele>201.0</ele><time>2026-04-18T08:16:39.185Z</time></trkpt><trkpt lat="45.1289617" lon="8.1497012"><ele>201.0</ele><time>2026-04-18T08:16:40.185Z</time></trkpt><trkpt lat="45.1290528" lon="8.1496804"><ele>201.0</ele><time>2026-04-18T08:16:41.185Z</time></trkpt><trkpt lat="45.1291505" lon="8.1496347"><ele>201.0</ele><time>2026-04-18T08:16:42.186Z</time></trkpt><trkpt lat="45.1292457" lon="8.1495642"><ele>201.0</ele><time>2026-04-18T08:16:43.186Z</time></trkpt><trkpt lat="45.1293427" lon="8.1495048"><ele>201.0</ele><time>2026-04-18T08:16:44.185Z</time></trkpt><trkpt lat="45.1294447" lon="8.1494649"><ele>201.0</ele><time>2026-04-18T08:16:45.185Z</time></trkpt><trkpt lat="45.129539" lon="8.1494427"><ele>201.0</ele><time>2026-04-18T08:16:46.186Z</time></trkpt><trkpt lat="45.1296406" lon="8.1494442"><ele>201.0</ele><time>2026-04-18T08:16:47.185Z</time></trkpt><trkpt lat="45.1297519" lon="8.1494864"><ele>201.0</ele><time>2026-04-18T08:16:48.185Z</time></trkpt><trkpt lat="45.1298601" lon="8.1495532"><ele>201.0</ele><time>2026-04-18T08:16:49.185Z</time></trkpt><trkpt lat="45.1299849" lon="8.1496152"><ele>201.0</ele><time>2026-04-18T08:16:50.185Z</time></trkpt><trkpt lat="45.1301142" lon="8.1496535"><ele>201.0</ele><time>2026-04-18T08:16:51.185Z</time></trkpt><trkpt lat="45.130244" lon="8.1497057"><ele>198.0</ele><time>2026-04-18T08:16:52.185Z</time></trkpt><trkpt lat="45.1303858" lon="8.1497556"><ele>195.0</ele><time>2026-04-18T08:16:53.186Z</time></trkpt><trkpt lat="45.1305304" lon="8.1498297"><ele>192.0</ele><time>2026-04-18T08:16:54.185Z</time></trkpt><trkpt lat="45.1306809" lon="8.1499394"><ele>193.0</ele><time>2026-04-18T08:16:55.186Z</time></trkpt><trkpt lat="45.1308297" lon="8.1500463"><ele>194.0</ele><time>2026-04-18T08:16:56.185Z</time></trkpt><trkpt lat="45.1309825" lon="8.1501544"><ele>195.0</ele><time>2026-04-18T08:16:57.185Z</time></trkpt><trkpt lat="45.1311199" lon="8.1502493"><ele>195.0</ele><time>2026-04-18T08:16:58.185Z</time></trkpt><trkpt lat="45.1312474" lon="8.1503298"><ele>195.0</ele><time>2026-04-18T08:16:59.185Z</time></trkpt><trkpt lat="45.1313624" lon="8.1504228"><ele>195.0</ele><time>2026-04-18T08:17:00.186Z</time></trkpt><trkpt lat="45.1314729" lon="8.1505077"><ele>195.0</ele><time>2026-04-18T08:17:01.185Z</time></trkpt><trkpt lat="45.1315779" lon="8.1505957"><ele>194.25</ele><time>2026-04-18T08:17:02.186Z</time></trkpt><trkpt lat="45.1316844" lon="8.1506908"><ele>193.5</ele><time>2026-04-18T08:17:03.185Z</time></trkpt><trkpt lat="45.1317803" lon="8.1508044"><ele>192.75</ele><time>2026-04-18T08:17:04.185Z</time></trkpt><trkpt lat="45.131875" lon="8.1509104"><ele>192.0</ele><time>2026-04-18T08:17:05.186Z</time></trkpt><trkpt lat="45.1319678" lon="8.1510097"><ele>192.0</ele><time>2026-04-18T08:17:06.185Z</time></trkpt><trkpt lat="45.1320707" lon="8.1511079"><ele>192.0</ele><time>2026-04-18T08:17:07.185Z</time></trkpt><trkpt lat="45.1321713" lon="8.1512023"><ele>192.0</ele><time>2026-04-18T08:17:08.185Z</time></trkpt><trkpt lat="45.1322612" lon="8.1512967"><ele>192.0</ele><time>2026-04-18T08:17:09.185Z</time></trkpt><trkpt lat="45.1323457" lon="8.1513742"><ele>191.8</ele><time>2026-04-18T08:17:10.185Z</time></trkpt><trkpt lat="45.1324316" lon="8.1514306"><ele>191.6</ele><time>2026-04-18T08:17:11.185Z</time></trkpt><trkpt lat="45.1325051" lon="8.1514821"><ele>191.4</ele><time>2026-04-18T08:17:12.185Z</time></trkpt><trkpt lat="45.1325715" lon="8.1515329"><ele>191.20000000000002</ele><time>2026-04-18T08:17:13.185Z</time></trkpt><trkpt lat="45.132634" lon="8.1515784"><ele>191.0</ele><time>2026-04-18T08:17:14.185Z</time></trkpt><trkpt lat="45.1327437" lon="8.151681"><ele>191.0</ele><time>2026-04-18T08:17:16.185Z</time></trkpt><trkpt lat="45.1328009" lon="8.1517508"><ele>191.0</ele><time>2026-04-18T08:17:17.185Z</time></trkpt><trkpt lat="45.1328548" lon="8.1518146"><ele>191.0</ele><time>2026-04-18T08:17:18.185Z</time></trkpt><trkpt lat="45.1329159" lon="8.1518727"><ele>191.0</ele><time>2026-04-18T08:17:19.185Z</time></trkpt><trkpt lat="45.1329825" lon="8.1519168"><ele>191.0</ele><time>2026-04-18T08:17:20.186Z</time></trkpt><trkpt lat="45.1330579" lon="8.1519594"><ele>191.0</ele><time>2026-04-18T08:17:21.185Z</time></trkpt><trkpt lat="45.1331319" lon="8.1519922"><ele>191.0</ele><time>2026-04-18T08:17:22.185Z</time></trkpt><trkpt lat="45.1332023" lon="8.1520218"><ele>191.0</ele><time>2026-04-18T08:17:23.185Z</time></trkpt><trkpt lat="45.1332744" lon="8.152056"><ele>191.0</ele><time>2026-04-18T08:17:24.185Z</time></trkpt><trkpt lat="45.133335" lon="8.1520832"><ele>191.0</ele><time>2026-04-18T08:17:25.185Z</time></trkpt><trkpt lat="45.1334338" lon="8.15213"><ele>191.0</ele><time>2026-04-18T08:17:27.186Z</time></trkpt><trkpt lat="45.133537" lon="8.1521765"><ele>191.0</ele><time>2026-04-18T08:17:29.185Z</time></trkpt><trkpt lat="45.1336345" lon="8.1522042"><ele>191.20000000000002</ele><time>2026-04-18T08:17:31.185Z</time></trkpt><trkpt lat="45.1337311" lon="8.1522471"><ele>191.4</ele><time>2026-04-18T08:17:33.185Z</time></trkpt><trkpt lat="45.1338212" lon="8.1522847"><ele>191.6</ele><time>2026-04-18T08:17:35.185Z</time></trkpt><trkpt lat="45.1339128" lon="8.1523245"><ele>191.8</ele><time>2026-04-18T08:17:37.186Z</time></trkpt><trkpt lat="45.1340056" lon="8.152356"><ele>192.0</ele><time>2026-04-18T08:17:39.185Z</time></trkpt><trkpt lat="45.1340842" lon="8.152381"><ele>192.0</ele><time>2026-04-18T08:17:41.185Z</time></trkpt><trkpt lat="45.1341667" lon="8.1524199"><ele>192.0</ele><time>2026-04-18T08:17:44.185Z</time></trkpt><trkpt lat="45.1342269" lon="8.1524514"><ele>192.0</ele><time>2026-04-18T08:17:47.185Z</time></trkpt><trkpt lat="45.1341475" lon="8.1524363"><ele>192.0</ele><time>2026-04-18T08:18:03.185Z</time></trkpt><trkpt lat="45.1340675" lon="8.1524408"><ele>192.0</ele><time>2026-04-18T08:18:06.185Z</time></trkpt><trkpt lat="45.1339865" lon="8.1524439"><ele>192.0</ele><time>2026-04-18T08:18:08.186Z</time></trkpt><trkpt lat="45.1338974" lon="8.1524473"><ele>191.0</ele><time>2026-04-18T08:18:11.185Z</time></trkpt><trkpt lat="45.1338308" lon="8.1524554"><ele>190.0</ele><time>2026-04-18T08:18:13.185Z</time></trkpt><trkpt lat="45.1337422" lon="8.1524728"><ele>189.0</ele><time>2026-04-18T08:18:16.185Z</time></trkpt><trkpt lat="45.1336557" lon="8.1524721"><ele>188.0</ele><time>2026-04-18T08:18:19.185Z</time></trkpt><trkpt lat="45.1335528" lon="8.1524727"><ele>187.0</ele><time>2026-04-18T08:18:22.185Z</time></trkpt><trkpt lat="45.1334793" lon="8.1524741"><ele>186.0</ele><time>2026-04-18T08:18:24.186Z</time></trkpt><trkpt lat="45.1333893" lon="8.1524543"><ele>186.0</ele><time>2026-04-18T08:18:27.185Z</time></trkpt><trkpt lat="45.1333206" lon="8.1524476"><ele>186.0</ele><time>2026-04-18T08:18:29.185Z</time></trkpt><trkpt lat="45.1332327" lon="8.1524322"><ele>186.0</ele><time>2026-04-18T08:18:33.186Z</time></trkpt><trkpt lat="45.1331693" lon="8.152435"><ele>186.0</ele><time>2026-04-18T08:18:35.185Z</time></trkpt><trkpt lat="45.1331016" lon="8.1524048"><ele>186.0</ele><time>2026-04-18T08:18:37.185Z</time></trkpt><trkpt lat="45.1330183" lon="8.1523715"><ele>186.0</ele><time>2026-04-18T08:18:39.185Z</time></trkpt><trkpt lat="45.1329394" lon="8.1523116"><ele>186.83333333333334</ele><time>2026-04-18T08:18:41.185Z</time></trkpt><trkpt lat="45.1328588" lon="8.1522296"><ele>187.66666666666666</ele><time>2026-04-18T08:18:43.185Z</time></trkpt><trkpt lat="45.1327913" lon="8.1521424"><ele>188.5</ele><time>2026-04-18T08:18:45.185Z</time></trkpt><trkpt lat="45.1327313" lon="8.152055"><ele>189.33333333333331</ele><time>2026-04-18T08:18:47.185Z</time></trkpt><trkpt lat="45.1326763" lon="8.1519717"><ele>190.16666666666666</ele><time>2026-04-18T08:18:49.185Z</time></trkpt><trkpt lat="45.1326215" lon="8.1519091"><ele>191.0</ele><time>2026-04-18T08:18:51.185Z</time></trkpt><trkpt lat="45.1324636" lon="8.1518799"><ele>192.0</ele><time>2026-04-18T08:18:55.185Z</time></trkpt><trkpt lat="45.1323869" lon="8.1518659"><ele>193.0</ele><time>2026-04-18T08:18:57.185Z</time></trkpt><trkpt lat="45.1322974" lon="8.1518582"><ele>194.0</ele><time>2026-04-18T08:18:59.185Z</time></trkpt><trkpt lat="45.1322298" lon="8.1518428"><ele>195.0</ele><time>2026-04-18T08:19:01.186Z</time></trkpt><trkpt lat="45.1310298" lon="8.1501909"><ele>195.0</ele><time>2026-04-18T08:15:27.185Z</time></trkpt><trkpt lat="45.1309193" lon="8.1501192"><ele>195.0</ele><time>2026-04-18T08:15:29.185Z</time></trkpt><trkpt lat="45.1308097" lon="8.1500477"><ele>195.0</ele><time>2026-04-18T08:15:31.185Z</time></trkpt><trkpt lat="45.1307203" lon="8.149977"><ele>195.0</ele><time>2026-04-18T08:15:33.185Z</time></trkpt><trkpt lat="45.1306277" lon="8.1499049"><ele>194.5</ele><time>2026-04-18T08:15:35.185Z</time></trkpt><trkpt lat="45.1305398" lon="8.149841"><ele>194.0</ele><time>2026-04-18T08:15:37.185Z</time></trkpt><trkpt lat="45.1304516" lon="8.1497886"><ele>193.5</ele><time>2026-04-18T08:15:39.185Z</time></trkpt><trkpt lat="45.1303625" lon="8.1497431"><ele>193.0</ele><time>2026-04-18T08:15:41.185Z</time></trkpt><trkpt lat="45.1302816" lon="8.1497105"><ele>192.5</ele><time>2026-04-18T08:15:43.185Z</time></trkpt><trkpt lat="45.1302097" lon="8.1496917"><ele>192.0</ele><time>2026-04-18T08:15:45.185Z</time></trkpt><trkpt lat="45.1301033" lon="8.1496639"><ele>192.0</ele><time>2026-04-18T08:15:47.185Z</time></trkpt><trkpt lat="45.1300034" lon="8.1496164"><ele>192.0</ele><time>2026-04-18T08:15:49.185Z</time></trkpt><trkpt lat="45.1298918" lon="8.1495706"><ele>192.0</ele><time>2026-04-18T08:15:51.185Z</time></trkpt><trkpt lat="45.1297987" lon="8.1494973"><ele>192.0</ele><time>2026-04-18T08:15:53.185Z</time></trkpt><trkpt lat="45.1297147" lon="8.1494546"><ele>192.0</ele><time>2026-04-18T08:15:55.185Z</time></trkpt><trkpt lat="45.1296345" lon="8.1494162"><ele>193.5</ele><time>2026-04-18T08:15:57.185Z</time></trkpt><trkpt lat="45.1295557" lon="8.1494027"><ele>195.0</ele><time>2026-04-18T08:15:59.185Z</time></trkpt><trkpt lat="45.1294741" lon="8.1494277"><ele>196.5</ele><time>2026-04-18T08:16:02.185Z</time></trkpt><trkpt lat="45.1294135" lon="8.1494629"><ele>198.0</ele><time>2026-04-18T08:16:04.185Z</time></trkpt><trkpt lat="45.1293268" lon="8.1494947"><ele>199.5</ele><time>2026-04-18T08:16:06.185Z</time></trkpt><trkpt lat="45.1292653" lon="8.1495286"><ele>201.0</ele><time>2026-04-18T08:16:07.185Z</time></trkpt><trkpt lat="45.1291884" lon="8.1495774"><ele>201.0</ele><time>2026-04-18T08:16:08.185Z</time></trkpt><trkpt lat="45.1291171" lon="8.1496253"><ele>201.0</ele><time>2026-04-18T08:16:09.186Z</time></trkpt><trkpt lat="45.1290389" lon="8.1496654"><ele>201.0</ele><time>2026-04-18T08:16:10.185Z</time></trkpt><trkpt lat="45.1289544" lon="8.1496861"><ele>201.0</ele><time>2026-04-18T08:16:11.185Z</time></trkpt><trkpt lat="45.1288692" lon="8.1496904"><ele>201.0</ele><time>2026-04-18T08:16:12.185Z</time></trkpt><trkpt lat="45.1287826" lon="8.1496798"><ele>201.0</ele><time>2026-04-18T08:16:13.185Z</time></trkpt><trkpt lat="45.128682" lon="8.1496538"><ele>201.0</ele><time>2026-04-18T08:16:14.185Z</time></trkpt><trkpt lat="45.1285884" lon="8.1496209"><ele>201.0</ele><time>2026-04-18T08:16:15.185Z</time></trkpt><trkpt lat="45.1284991" lon="8.1495801"><ele>201.0</ele><time>2026-04-18T08:16:16.185Z</time></trkpt><trkpt lat="45.1284116" lon="8.1495354"><ele>201.0</ele><time>2026-04-18T08:16:17.185Z</time></trkpt><trkpt lat="45.1283332" lon="8.1494993"><ele>201.0</ele><time>2026-04-18T08:16:18.185Z</time></trkpt><trkpt lat="45.1282516" lon="8.14942"><ele>201.0</ele><time>2026-04-18T08:16:20.185Z</time></trkpt><trkpt lat="45.1281878" lon="8.1494216"><ele>201.0</ele><time>2026-04-18T08:16:23.185Z</time></trkpt><trkpt lat="45.1282874" lon="8.1494893"><ele>201.0</ele><time>2026-04-18T08:16:32.185Z</time></trkpt><trkpt lat="45.1284245" lon="8.1495513"><ele>201.0</ele><time>2026-04-18T08:16:34.186Z</time></trkpt><trkpt lat="45.1285089" lon="8.1495906"><ele>201.0</ele><time>2026-04-18T08:16:35.185Z</time></trkpt><trkpt lat="45.1286045" lon="8.1496296"><ele>201.0</ele><time>2026-04-18T08:16:36.185Z</time></trkpt><trkpt lat="45.128702" lon="8.1496665"><ele>201.0</ele><time>2026-04-18T08:16:37.186Z</time></trkpt><trkpt lat="45.1287925" lon="8.1496836"><ele>201.0</ele><time>2026-04-18T08:16:38.185Z</time></trkpt><trkpt lat="45.1288795" lon="8.1497031"><ele>201.0</ele><time>2026-04-18T08:16:39.185Z</time></trkpt><trkpt lat="45.1289617" lon="8.1497012"><ele>201.0</ele><time>2026-04-18T08:16:40.185Z</time></trkpt><trkpt lat="45.1290528" lon="8.1496804"><ele>201.0</ele><time>2026-04-18T08:16:41.185Z</time></trkpt><trkpt lat="45.1291505" lon="8.1496347"><ele>201.0</ele><time>2026-04-18T08:16:42.186Z</time></trkpt><trkpt lat="45.1292457" lon="8.1495642"><ele>201.0</ele><time>2026-04-18T08:16:43.186Z</time></trkpt><trkpt lat="45.1293427" lon="8.1495048"><ele>201.0</ele><time>2026-04-18T08:16:44.185Z</time></trkpt><trkpt lat="45.1294447" lon="8.1494649"><ele>201.0</ele><time>2026-04-18T08:16:45.185Z</time></trkpt><trkpt lat="45.129539" lon="8.1494427"><ele>201.0</ele><time>2026-04-18T08:16:46.186Z</time></trkpt><trkpt lat="45.1296406" lon="8.1494442"><ele>201.0</ele><time>2026-04-18T08:16:47.185Z</time></trkpt><trkpt lat="45.1297519" lon="8.1494864"><ele>201.0</ele><time>2026-04-18T08:16:48.185Z</time></trkpt><trkpt lat="45.1298601" lon="8.1495532"><ele>201.0</ele><time>2026-04-18T08:16:49.185Z</time></trkpt><trkpt lat="45.1299849" lon="8.1496152"><ele>198.75</ele><time>2026-04-18T08:16:50.185Z</time></trkpt><trkpt lat="45.1301142" lon="8.1496535"><ele>196.5</ele><time>2026-04-18T08:16:51.185Z</time></trkpt><trkpt lat="45.130244" lon="8.1497057"><ele>194.25</ele><time>2026-04-18T08:16:52.185Z</time></trkpt><trkpt lat="45.1303858" lon="8.1497556"><ele>192.0</ele><time>2026-04-18T08:16:53.186Z</time></trkpt><trkpt lat="45.1305304" lon="8.1498297"><ele>193.0</ele><time>2026-04-18T08:16:54.185Z</time></trkpt><trkpt lat="45.1306809" lon="8.1499394"><ele>194.0</ele><time>2026-04-18T08:16:55.186Z</time></trkpt><trkpt lat="45.1308297" lon="8.1500463"><ele>195.0</ele><time>2026-04-18T08:16:56.185Z</time></trkpt><trkpt lat="45.1309825" lon="8.1501544"><ele>195.0</ele><time>2026-04-18T08:16:57.185Z</time></trkpt><trkpt lat="45.1311199" lon="8.1502493"><ele>195.0</ele><time>2026-04-18T08:16:58.185Z</time></trkpt><trkpt lat="45.1312474" lon="8.1503298"><ele>195.0</ele><time>2026-04-18T08:16:59.185Z</time></trkpt><trkpt lat="45.1313624" lon="8.1504228"><ele>195.0</ele><time>2026-04-18T08:17:00.186Z</time></trkpt><trkpt lat="45.1314729" lon="8.1505077"><ele>194.25</ele><time>2026-04-18T08:17:01.185Z</time></trkpt><trkpt lat="45.1315779" lon="8.1505957"><ele>193.5</ele><time>2026-04-18T08:17:02.186Z</time></trkpt><trkpt lat="45.1316844" lon="8.1506908"><ele>192.75</ele><time>2026-04-18T08:17:03.185Z</time></trkpt><trkpt lat="45.1317803" lon="8.1508044"><ele>192.0</ele><time>2026-04-18T08:17:04.185Z</time></trkpt><trkpt lat="45.131875" lon="8.1509104"><ele>192.0</ele><time>2026-04-18T08:17:05.186Z</time></trkpt><trkpt lat="45.1319678" lon="8.1510097"><ele>192.0</ele><time>2026-04-18T08:17:06.185Z</time></trkpt><trkpt lat="45.1320707" lon="8.1511079"><ele>192.0</ele><time>2026-04-18T08:17:07.185Z</time></trkpt><trkpt lat="45.1321713" lon="8.1512023"><ele>192.0</ele><time>2026-04-18T08:17:08.185Z</time></trkpt><trkpt lat="45.1322612" lon="8.1512967"><ele>192.0</ele><time>2026-04-18T08:17:09.185Z</time></trkpt><trkpt lat="45.1323457" lon="8.1513742"><ele>192.0</ele><time>2026-04-18T08:17:10.185Z</time></trkpt><trkpt lat="45.1324316" lon="8.1514306"><ele>192.0</ele><time>2026-04-18T08:17:11.185Z</time></trkpt><trkpt lat="45.1325051" lon="8.1514821"><ele>192.0</ele><time>2026-04-18T08:17:12.185Z</time></trkpt><trkpt lat="45.1325715" lon="8.1515329"><ele>192.0</ele><time>2026-04-18T08:17:13.185Z</time></trkpt><trkpt lat="45.132634" lon="8.1515784"><ele>192.0</ele><time>2026-04-18T08:17:14.185Z</time></trkpt><trkpt lat="45.1327437" lon="8.151681"><ele>191.83333333333334</ele><time>2026-04-18T08:17:16.185Z</time></trkpt><trkpt lat="45.1328009" lon="8.1517508"><ele>191.66666666666666</ele><time>2026-04-18T08:17:17.185Z</time></trkpt><trkpt lat="45.1328548" lon="8.1518146"><ele>191.5</ele><time>2026-04-18T08:17:18.185Z</time></trkpt><trkpt lat="45.1329159" lon="8.1518727"><ele>191.33333333333331</ele><time>2026-04-18T08:17:19.185Z</time></trkpt><trkpt lat="45.1329825" lon="8.1519168"><ele>191.16666666666666</ele><time>2026-04-18T08:17:20.186Z</time></trkpt><trkpt lat="45.1330579" lon="8.1519594"><ele>191.0</ele><time>2026-04-18T08:17:21.185Z</time></trkpt><trkpt lat="45.1331319" lon="8.1519922"><ele>191.0</ele><time>2026-04-18T08:17:22.185Z</time></trkpt><trkpt lat="45.1332023" lon="8.1520218"><ele>191.0</ele><time>2026-04-18T08:17:23.185Z</time></trkpt><trkpt lat="45.1332744" lon="8.152056"><ele>191.0</ele><time>2026-04-18T08:17:24.185Z</time></trkpt><trkpt lat="45.133335" lon="8.1520832"><ele>191.0</ele><time>2026-04-18T08:17:25.185Z</time></trkpt><trkpt lat="45.1334338" lon="8.15213"><ele>191.0</ele><time>2026-04-18T08:17:27.186Z</time></trkpt><trkpt lat="45.133537" lon="8.1521765"><ele>191.0</ele><time>2026-04-18T08:17:29.185Z</time></trkpt><trkpt lat="45.1336345" lon="8.1522042"><ele>191.20000000000002</ele><time>2026-04-18T08:17:31.185Z</time></trkpt><trkpt lat="45.1337311" lon="8.1522471"><ele>191.4</ele><time>2026-04-18T08:17:33.185Z</time></trkpt><trkpt lat="45.1338212" lon="8.1522847"><ele>191.6</ele><time>2026-04-18T08:17:35.185Z</time></trkpt><trkpt lat="45.1339128" lon="8.1523245"><ele>191.8</ele><time>2026-04-18T08:17:37.186Z</time></trkpt><trkpt lat="45.1340056" lon="8.152356"><ele>192.0</ele><time>2026-04-18T08:17:39.185Z</time></trkpt><trkpt lat="45.1340842" lon="8.152381"><ele>192.0</ele><time>2026-04-18T08:17:41.185Z</time></trkpt><trkpt lat="45.1341667" lon="8.1524199"><ele>192.0</ele><time>2026-04-18T08:17:44.185Z</time></trkpt><trkpt lat="45.1342269" lon="8.1524514"><ele>192.0</ele><time>2026-04-18T08:17:47.185Z</time></trkpt><trkpt lat="45.1341475" lon="8.1524363"><ele>192.0</ele><time>2026-04-18T08:18:03.185Z</time></trkpt><trkpt lat="45.1340675" lon="8.1524408"><ele>192.0</ele><time>2026-04-18T08:18:06.185Z</time></trkpt><trkpt lat="45.1339865" lon="8.1524439"><ele>192.0</ele><time>2026-04-18T08:18:08.186Z</time></trkpt><trkpt lat="45.1338974" lon="8.1524473"><ele>191.0</ele><time>2026-04-18T08:18:11.185Z</time></trkpt><trkpt lat="45.1338308" lon="8.1524554"><ele>190.0</ele><time>2026-04-18T08:18:13.185Z</time></trkpt><trkpt lat="45.1337422" lon="8.1524728"><ele>189.0</ele><time>2026-04-18T08:18:16.185Z</time></trkpt><trkpt lat="45.1336557" lon="8.1524721"><ele>188.0</ele><time>2026-04-18T08:18:19.185Z</time></trkpt><trkpt lat="45.1335528" lon="8.1524727"><ele>187.0</ele><time>2026-04-18T08:18:22.185Z</time></trkpt><trkpt lat="45.1334793" lon="8.1524741"><ele>186.0</ele><time>2026-04-18T08:18:24.186Z</time></trkpt><trkpt lat="45.1333893" lon="8.1524543"><ele>186.0</ele><time>2026-04-18T08:18:27.185Z</time></trkpt><trkpt lat="45.1333206" lon="8.1524476"><ele>186.0</ele><time>2026-04-18T08:18:29.185Z</time></trkpt><trkpt lat="45.1332327" lon="8.1524322"><ele>186.0</ele><time>2026-04-18T08:18:33.186Z</time></trkpt><trkpt lat="45.1331693" lon="8.152435"><ele>186.0</ele><time>2026-04-18T08:18:35.185Z</time></trkpt><trkpt lat="45.1331016" lon="8.1524048"><ele>186.0</ele><time>2026-04-18T08:18:37.185Z</time></trkpt><trkpt lat="45.1330183" lon="8.1523715"><ele>186.0</ele><time>2026-04-18T08:18:39.185Z</time></trkpt><trkpt lat="45.1329394" lon="8.1523116"><ele>186.83333333333334</ele><time>2026-04-18T08:18:41.185Z</time></trkpt><trkpt lat="45.1328588" lon="8.1522296"><ele>187.66666666666666</ele><time>2026-04-18T08:18:43.185Z</time></trkpt><trkpt lat="45.1327913" lon="8.1521424"><ele>188.5</ele><time>2026-04-18T08:18:45.185Z</time></trkpt><trkpt lat="45.1327313" lon="8.152055"><ele>189.33333333333331</ele><time>2026-04-18T08:18:47.185Z</time></trkpt><trkpt lat="45.1326763" lon="8.1519717"><ele>190.16666666666666</ele><time>2026-04-18T08:18:49.185Z</time></trkpt><trkpt lat="45.1326215" lon="8.1519091"><ele>191.0</ele><time>2026-04-18T08:18:51.185Z</time></trkpt><trkpt lat="45.1324636" lon="8.1518799"><ele>191.0</ele><time>2026-04-18T08:18:55.185Z</time></trkpt><trkpt lat="45.1323869" lon="8.1518659"><ele>191.0</ele><time>2026-04-18T08:18:57.185Z</time></trkpt><trkpt lat="45.1322974" lon="8.1518582"><ele>191.0</ele><time>2026-04-18T08:18:59.185Z</time></trkpt><trkpt lat="45.1322298" lon="8.1518428"><ele>191.0</ele><time>2026-04-18T08:19:01.186Z</time></trkpt><trkpt lat="45.1323106" lon="8.1518639"><ele>191.0</ele><time>2026-04-18T08:19:54.185Z</time></trkpt><trkpt lat="45.1324036" lon="8.1518815"><ele>191.0</ele><time>2026-04-18T08:19:58.186Z</time></trkpt><trkpt lat="45.1324819" lon="8.1518759"><ele>191.0</ele><time>2026-04-18T08:20:01.185Z</time></trkpt><trkpt lat="45.1325652" lon="8.1518828"><ele>191.0</ele><time>2026-04-18T08:20:04.185Z</time></trkpt><trkpt lat="45.1326419" lon="8.1519267"><ele>191.0</ele><time>2026-04-18T08:20:07.185Z</time></trkpt><trkpt lat="45.1327149" lon="8.1520081"><ele>191.0</ele><time>2026-04-18T08:20:09.185Z</time></trkpt><trkpt lat="45.1327944" lon="8.1521146"><ele>191.0</ele><time>2026-04-18T08:20:11.185Z</time></trkpt><trkpt lat="45.1328657" lon="8.1522037"><ele>191.0</ele><time>2026-04-18T08:20:13.186Z</time></trkpt><trkpt lat="45.1329591" lon="8.1523062"><ele>191.0</ele><time>2026-04-18T08:20:17.185Z</time></trkpt><trkpt lat="45.133036" lon="8.1523689"><ele>191.0</ele><time>2026-04-18T08:20:20.185Z</time></trkpt><trkpt lat="45.1331177" lon="8.1523915"><ele>191.0</ele><time>2026-04-18T08:20:23.185Z</time></trkpt><trkpt lat="45.1331979" lon="8.1524144"><ele>191.0</ele><time>2026-04-18T08:20:26.185Z</time></trkpt><trkpt lat="45.1332712" lon="8.1524337"><ele>191.0</ele><time>2026-04-18T08:20:28.185Z</time></trkpt><trkpt lat="45.1333474" lon="8.1524641"><ele>190.16666666666666</ele><time>2026-04-18T08:20:30.185Z</time></trkpt><trkpt lat="45.1334328" lon="8.1524693"><ele>189.33333333333331</ele><time>2026-04-18T08:20:32.186Z</time></trkpt><trkpt lat="45.1335155" lon="8.1524782"><ele>188.5</ele><time>2026-04-18T08:20:34.185Z</time></trkpt><trkpt lat="45.1336094" lon="8.152486"><ele>187.66666666666666</ele><time>2026-04-18T08:20:36.185Z</time></trkpt><trkpt lat="45.133693" lon="8.1524825"><ele>186.83333333333334</ele><time>2026-04-18T08:20:38.185Z</time></trkpt><trkpt lat="45.1337715" lon="8.1524744"><ele>186.0</ele><time>2026-04-18T08:20:40.185Z</time></trkpt><trkpt lat="45.1338618" lon="8.1524653"><ele>186.0</ele><time>2026-04-18T08:20:42.185Z</time></trkpt><trkpt lat="45.1339599" lon="8.1524587"><ele>186.0</ele><time>2026-04-18T08:20:44.185Z</time></trkpt><trkpt lat="45.1340616" lon="8.152454"><ele>186.0</ele><time>2026-04-18T08:20:46.185Z</time></trkpt><trkpt lat="45.1341302" lon="8.1524445"><ele>186.0</ele><time>2026-04-18T08:20:48.185Z</time></trkpt><trkpt lat="45.1341931" lon="8.1524302"><ele>186.0</ele><time>2026-04-18T08:20:50.185Z</time></trkpt><trkpt lat="45.1342589" lon="8.152422"><ele>186.0</ele><time>2026-04-18T08:20:55.185Z</time></trkpt><trkpt lat="45.1341724" lon="8.1524314"><ele>186.0</ele><time>2026-04-18T08:21:49.186Z</time></trkpt><trkpt lat="45.1340446" lon="8.1523876"><ele>186.0</ele><time>2026-04-18T08:21:51.186Z</time></trkpt><trkpt lat="45.1339531" lon="8.1523511"><ele>186.0</ele><time>2026-04-18T08:21:52.185Z</time></trkpt><trkpt lat="45.1338529" lon="8.152315"><ele>186.0</ele><time>2026-04-18T08:21:53.186Z</time></trkpt><trkpt lat="45.1337399" lon="8.152259"><ele>188.25</ele><time>2026-04-18T08:21:54.185Z</time></trkpt><trkpt lat="45.1336101" lon="8.1522109"><ele>190.5</ele><time>2026-04-18T08:21:55.185Z</time></trkpt><trkpt lat="45.1334844" lon="8.1521683"><ele>192.75</ele><time>2026-04-18T08:21:56.185Z</time></trkpt><trkpt lat="45.1333746" lon="8.1521021"><ele>195.0</ele><time>2026-04-18T08:21:57.185Z</time></trkpt><trkpt lat="45.1332626" lon="8.1520411"><ele>194.2</ele><time>2026-04-18T08:21:58.185Z</time></trkpt><trkpt lat="45.1331558" lon="8.1519814"><ele>193.4</ele><time>2026-04-18T08:21:59.185Z</time></trkpt><trkpt lat="45.1330502" lon="8.1519369"><ele>192.60000000000002</ele><time>2026-04-18T08:22:00.185Z</time></trkpt><trkpt lat="45.132954" lon="8.151878"><ele>191.8</ele><time>2026-04-18T08:22:01.185Z</time></trkpt><trkpt lat="45.1328718" lon="8.1518016"><ele>191.0</ele><time>2026-04-18T08:22:02.185Z</time></trkpt><trkpt lat="45.1327861" lon="8.151709"><ele>191.0</ele><time>2026-04-18T08:22:03.185Z</time></trkpt><trkpt lat="45.1326979" lon="8.1516133"><ele>191.0</ele><time>2026-04-18T08:22:04.184Z</time></trkpt><trkpt lat="45.1326047" lon="8.1515356"><ele>191.0</ele><time>2026-04-18T08:22:05.184Z</time></trkpt><trkpt lat="45.1325069" lon="8.1514818"><ele>191.0</ele><time>2026-04-18T08:22:06.184Z</time></trkpt><trkpt lat="45.1324129" lon="8.1514209"><ele>191.0</ele><time>2026-04-18T08:22:07.184Z</time></trkpt><trkpt lat="45.1323176" lon="8.1513425"><ele>191.20000000000002</ele><time>2026-04-18T08:22:08.185Z</time></trkpt><trkpt lat="45.1322298" lon="8.1512532"><ele>191.4</ele><time>2026-04-18T08:22:09.184Z</time></trkpt><trkpt lat="45.1321387" lon="8.1511597"><ele>191.6</ele><time>2026-04-18T08:22:10.184Z</time></trkpt><trkpt lat="45.1320543" lon="8.1510733"><ele>191.8</ele><time>2026-04-18T08:22:11.184Z</time></trkpt><trkpt lat="45.1319531" lon="8.1509865"><ele>192.0</ele><time>2026-04-18T08:22:12.185Z</time></trkpt><trkpt lat="45.1318497" lon="8.1508812"><ele>192.0</ele><time>2026-04-18T08:22:13.184Z</time></trkpt><trkpt lat="45.131748" lon="8.150772"><ele>192.0</ele><time>2026-04-18T08:22:14.184Z</time></trkpt><trkpt lat="45.1316335" lon="8.15065"><ele>192.0</ele><time>2026-04-18T08:22:15.184Z</time></trkpt><trkpt lat="45.1315031" lon="8.1505298"><ele>192.0</ele><time>2026-04-18T08:22:16.184Z</time></trkpt><trkpt lat="45.1313597" lon="8.150428"><ele>193.0</ele><time>2026-04-18T08:22:17.185Z</time></trkpt><trkpt lat="45.1312151" lon="8.1503369"><ele>194.0</ele><time>2026-04-18T08:22:18.185Z</time></trkpt><trkpt lat="45.1310677" lon="8.1502307"><ele>195.0</ele><time>2026-04-18T08:22:19.184Z</time></trkpt><trkpt lat="45.1309295" lon="8.1501274"><ele>195.0</ele><time>2026-04-18T08:22:20.184Z</time></trkpt><trkpt lat="45.1307915" lon="8.1500231"><ele>195.0</ele><time>2026-04-18T08:22:21.185Z</time></trkpt><trkpt lat="45.1306626" lon="8.1499258"><ele>195.0</ele><time>2026-04-18T08:22:22.184Z</time></trkpt><trkpt lat="45.1305383" lon="8.1498456"><ele>195.0</ele><time>2026-04-18T08:22:23.184Z</time></trkpt><trkpt lat="45.1304097" lon="8.1497746"><ele>194.25</ele><time>2026-04-18T08:22:24.184Z</time></trkpt><trkpt lat="45.1302777" lon="8.1497174"><ele>193.5</ele><time>2026-04-18T08:22:25.184Z</time></trkpt><trkpt lat="45.1301514" lon="8.1496669"><ele>192.75</ele><time>2026-04-18T08:22:26.184Z</time></trkpt><trkpt lat="45.1300396" lon="8.1496325"><ele>192.0</ele><time>2026-04-18T08:22:27.184Z</time></trkpt><trkpt lat="45.1299348" lon="8.1495919"><ele>193.8</ele><time>2026-04-18T08:22:28.184Z</time></trkpt><trkpt lat="45.1298322" lon="8.1495321"><ele>195.6</ele><time>2026-04-18T08:22:29.184Z</time></trkpt><trkpt lat="45.1297272" lon="8.1494802"><ele>197.4</ele><time>2026-04-18T08:22:30.185Z</time></trkpt><trkpt lat="45.129627" lon="8.1494462"><ele>199.20000000000002</ele><time>2026-04-18T08:22:31.184Z</time></trkpt><trkpt lat="45.1295299" lon="8.1494507"><ele>201.0</ele><time>2026-04-18T08:22:32.184Z</time></trkpt><trkpt lat="45.1294319" lon="8.1494788"><ele>201.0</ele><time>2026-04-18T08:22:33.184Z</time></trkpt><trkpt lat="45.1293312" lon="8.1495335"><ele>201.0</ele><time>2026-04-18T08:22:34.184Z</time></trkpt><trkpt lat="45.1292337" lon="8.1495947"><ele>201.0</ele><time>2026-04-18T08:22:35.185Z</time></trkpt><trkpt lat="45.1291327" lon="8.1496443"><ele>201.0</ele><time>2026-04-18T08:22:36.184Z</time></trkpt><trkpt lat="45.1290386" lon="8.1496973"><ele>201.0</ele><time>2026-04-18T08:22:37.184Z</time></trkpt><trkpt lat="45.128951" lon="8.149711"><ele>201.0</ele><time>2026-04-18T08:22:38.184Z</time></trkpt><trkpt lat="45.1288542" lon="8.1497028"><ele>201.0</ele><time>2026-04-18T08:22:39.184Z</time></trkpt><trkpt lat="45.1287469" lon="8.1496879"><ele>201.0</ele><time>2026-04-18T08:22:40.184Z</time></trkpt><trkpt lat="45.1286412" lon="8.1496477"><ele>201.0</ele><time>2026-04-18T08:22:41.184Z</time></trkpt><trkpt lat="45.1285263" lon="8.1495976"><ele>201.0</ele><time>2026-04-18T08:22:42.184Z</time></trkpt><trkpt lat="45.1284029" lon="8.1495379"><ele>201.0</ele><time>2026-04-18T08:22:43.184Z</time></trkpt><trkpt lat="45.1282828" lon="8.1494724"><ele>201.0</ele><time>2026-04-18T08:22:44.184Z</time></trkpt><trkpt lat="45.128164" lon="8.1493984"><ele>201.0</ele><time>2026-04-18T08:22:45.185Z</time></trkpt><trkpt lat="45.1280544" lon="8.1493196"><ele>201.0</ele><time>2026-04-18T08:22:46.184Z</time></trkpt><trkpt lat="45.1279491" lon="8.1492338"><ele>200.75</ele><time>2026-04-18T08:22:47.184Z</time></trkpt><trkpt lat="45.1278519" lon="8.149125"><ele>200.5</ele><time>2026-04-18T08:22:48.184Z</time></trkpt><trkpt lat="45.1277436" lon="8.1490058"><ele>200.25</ele><time>2026-04-18T08:22:49.184Z</time></trkpt><trkpt lat="45.1276299" lon="8.148894"><ele>200.0</ele><time>2026-04-18T08:22:50.184Z</time></trkpt><trkpt lat="45.1275158" lon="8.1487621"><ele>200.0</ele><time>2026-04-18T08:22:51.184Z</time></trkpt><trkpt lat="45.127396" lon="8.1486433"><ele>200.0</ele><time>2026-04-18T08:22:52.184Z</time></trkpt><trkpt lat="45.1272879" lon="8.1485362"><ele>200.0</ele><time>2026-04-18T08:22:53.184Z</time></trkpt><trkpt lat="45.1271943" lon="8.1484363"><ele>200.0</ele><time>2026-04-18T08:22:54.184Z</time></trkpt><trkpt lat="45.1271062" lon="8.1483405"><ele>199.0</ele><time>2026-04-18T08:22:55.184Z</time></trkpt><trkpt lat="45.1270212" lon="8.1482648"><ele>198.0</ele><time>2026-04-18T08:22:56.184Z</time></trkpt><trkpt lat="45.1269265" lon="8.1482165"><ele>197.0</ele><time>2026-04-18T08:22:57.184Z</time></trkpt><trkpt lat="45.1268272" lon="8.1481801"><ele>196.0</ele><time>2026-04-18T08:22:58.184Z</time></trkpt><trkpt lat="45.1267081" lon="8.1481486"><ele>195.0</ele><time>2026-04-18T08:22:59.184Z</time></trkpt><trkpt lat="45.1265905" lon="8.1481382"><ele>195.5</ele><time>2026-04-18T08:23:00.185Z</time></trkpt><trkpt lat="45.1264633" lon="8.1481285"><ele>196.0</ele><time>2026-04-18T08:23:01.184Z</time></trkpt><trkpt lat="45.1263364" lon="8.1481089"><ele>196.5</ele><time>2026-04-18T08:23:02.184Z</time></trkpt><trkpt lat="45.1262049" lon="8.1480773"><ele>197.0</ele><time>2026-04-18T08:23:03.184Z</time></trkpt><trkpt lat="45.1260805" lon="8.1480407"><ele>197.0</ele><time>2026-04-18T08:23:04.184Z</time></trkpt><trkpt lat="45.1259614" lon="8.1480089"><ele>197.0</ele><time>2026-04-18T08:23:05.185Z</time></trkpt><trkpt lat="45.1258473" lon="8.1479548"><ele>197.0</ele><time>2026-04-18T08:23:06.184Z</time></trkpt><trkpt lat="45.1257276" lon="8.1478816"><ele>197.0</ele><time>2026-04-18T08:23:07.184Z</time></trkpt><trkpt lat="45.125613" lon="8.1478011"><ele>197.5</ele><time>2026-04-18T08:23:08.184Z</time></trkpt><trkpt lat="45.1254995" lon="8.1477217"><ele>198.0</ele><time>2026-04-18T08:23:09.184Z</time></trkpt><trkpt lat="45.1253921" lon="8.1476381"><ele>198.5</ele><time>2026-04-18T08:23:10.184Z</time></trkpt><trkpt lat="45.1252813" lon="8.1475484"><ele>199.0</ele><time>2026-04-18T08:23:11.185Z</time></trkpt><trkpt lat="45.1251624" lon="8.147453"><ele>199.0</ele><time>2026-04-18T08:23:12.184Z</time></trkpt><trkpt lat="45.1250488" lon="8.1473595"><ele>199.0</ele><time>2026-04-18T08:23:13.184Z</time></trkpt><trkpt lat="45.1249313" lon="8.147277"><ele>199.0</ele><time>2026-04-18T08:23:14.185Z</time></trkpt><trkpt lat="45.1248067" lon="8.1471992"><ele>199.0</ele><time>2026-04-18T08:23:15.184Z</time></trkpt><trkpt lat="45.1246765" lon="8.1471461"><ele>199.0</ele><time>2026-04-18T08:23:16.185Z</time></trkpt><trkpt lat="45.1245491" lon="8.1470914"><ele>199.0</ele><time>2026-04-18T08:23:17.184Z</time></trkpt><trkpt lat="45.1244257" lon="8.1470367"><ele>199.0</ele><time>2026-04-18T08:23:18.185Z</time></trkpt><trkpt lat="45.1242991" lon="8.1469847"><ele>199.0</ele><time>2026-04-18T08:23:19.184Z</time></trkpt><trkpt lat="45.1241654" lon="8.1469301"><ele>201.0</ele><time>2026-04-18T08:23:20.184Z</time></trkpt><trkpt lat="45.124036" lon="8.1468827"><ele>203.0</ele><time>2026-04-18T08:23:21.184Z</time></trkpt><trkpt lat="45.1238965" lon="8.1468314"><ele>205.0</ele><time>2026-04-18T08:23:22.185Z</time></trkpt><trkpt lat="45.1237663" lon="8.1467814"><ele>207.0</ele><time>2026-04-18T08:23:23.184Z</time></trkpt><trkpt lat="45.1236358" lon="8.1467215"><ele>207.0</ele><time>2026-04-18T08:23:24.184Z</time></trkpt><trkpt lat="45.1235115" lon="8.146663"><ele>207.0</ele><time>2026-04-18T08:23:25.185Z</time></trkpt><trkpt lat="45.1233887" lon="8.1466037"><ele>207.0</ele><time>2026-04-18T08:23:26.184Z</time></trkpt><trkpt lat="45.123267" lon="8.1465284"><ele>207.0</ele><time>2026-04-18T08:23:27.184Z</time></trkpt><trkpt lat="45.1231449" lon="8.1464626"><ele>206.8</ele><time>2026-04-18T08:23:28.184Z</time></trkpt><trkpt lat="45.1230307" lon="8.1463982"><ele>206.6</ele><time>2026-04-18T08:23:29.185Z</time></trkpt><trkpt lat="45.1229258" lon="8.1463356"><ele>206.4</ele><time>2026-04-18T08:23:30.184Z</time></trkpt><trkpt lat="45.1228315" lon="8.1462758"><ele>206.20000000000002</ele><time>2026-04-18T08:23:31.185Z</time></trkpt><trkpt lat="45.122755" lon="8.1462271"><ele>206.0</ele><time>2026-04-18T08:23:32.184Z</time></trkpt><trkpt lat="45.1226886" lon="8.1461774"><ele>206.00000000000003</ele><time>2026-04-18T08:23:33.184Z</time></trkpt><trkpt lat="45.1226308" lon="8.1461416"><ele>206.0</ele><time>2026-04-18T08:23:34.184Z</time></trkpt><trkpt lat="45.1225488" lon="8.1460739"><ele>206.0</ele><time>2026-04-18T08:23:36.185Z</time></trkpt><trkpt lat="45.1224859" lon="8.1460631"><ele>206.0</ele><time>2026-04-18T08:23:38.184Z</time></trkpt><trkpt lat="45.1224357" lon="8.1461191"><ele>206.00000000000003</ele><time>2026-04-18T08:23:40.184Z</time></trkpt><trkpt lat="45.1223713" lon="8.1462261"><ele>206.0</ele><time>2026-04-18T08:23:42.184Z</time></trkpt><trkpt lat="45.1223243" lon="8.1462989"><ele>206.8</ele><time>2026-04-18T08:23:43.184Z</time></trkpt><trkpt lat="45.1222603" lon="8.1463905"><ele>207.60000000000002</ele><time>2026-04-18T08:23:44.184Z</time></trkpt><trkpt lat="45.1221912" lon="8.1464777"><ele>208.4</ele><time>2026-04-18T08:23:45.184Z</time></trkpt><trkpt lat="45.1221215" lon="8.1465505"><ele>209.2</ele><time>2026-04-18T08:23:46.184Z</time></trkpt><trkpt lat="45.1220484" lon="8.1466268"><ele>210.0</ele><time>2026-04-18T08:23:47.184Z</time></trkpt><trkpt lat="45.1219694" lon="8.146688"><ele>210.4</ele><time>2026-04-18T08:23:48.185Z</time></trkpt><trkpt lat="45.1219078" lon="8.1467536"><ele>210.8</ele><time>2026-04-18T08:23:49.184Z</time></trkpt><trkpt lat="45.1218539" lon="8.1468083"><ele>211.2</ele><time>2026-04-18T08:23:50.185Z</time></trkpt><trkpt lat="45.1217717" lon="8.1469479"><ele>211.6</ele><time>2026-04-18T08:23:52.184Z</time></trkpt><trkpt lat="45.1217318" lon="8.1470622"><ele>212.0</ele><time>2026-04-18T08:23:53.184Z</time></trkpt><trkpt lat="45.1217098" lon="8.1471909"><ele>212.0</ele><time>2026-04-18T08:23:54.184Z</time></trkpt><trkpt lat="45.1216953" lon="8.1473421"><ele>212.0</ele><time>2026-04-18T08:23:55.184Z</time></trkpt><trkpt lat="45.1216787" lon="8.147499"><ele>212.0</ele><time>2026-04-18T08:23:56.184Z</time></trkpt><trkpt lat="45.121671" lon="8.1476488"><ele>212.0</ele><time>2026-04-18T08:23:57.185Z</time></trkpt><trkpt lat="45.1216616" lon="8.1477951"><ele>212.0</ele><time>2026-04-18T08:23:58.184Z</time></trkpt><trkpt lat="45.1216583" lon="8.1479327"><ele>214.0</ele><time>2026-04-18T08:23:59.184Z</time></trkpt><trkpt lat="45.1216488" lon="8.1480527"><ele>216.0</ele><time>2026-04-18T08:24:00.184Z</time></trkpt><trkpt lat="45.1216354" lon="8.1481647"><ele>218.0</ele><time>2026-04-18T08:24:01.184Z</time></trkpt><trkpt lat="45.121607" lon="8.1483045"><ele>220.0</ele><time>2026-04-18T08:24:03.185Z</time></trkpt><trkpt lat="45.1215453" lon="8.1483874"><ele>222.0</ele><time>2026-04-18T08:24:05.184Z</time></trkpt><trkpt lat="45.1214371" lon="8.1484486"><ele>224.33333333333334</ele><time>2026-04-18T08:24:07.184Z</time></trkpt><trkpt lat="45.1213668" lon="8.1485017"><ele>226.66666666666669</ele><time>2026-04-18T08:24:08.184Z</time></trkpt><trkpt lat="45.1212878" lon="8.1485517"><ele>229.0</ele><time>2026-04-18T08:24:09.184Z</time></trkpt><trkpt lat="45.1212157" lon="8.1486221"><ele>231.33333333333334</ele><time>2026-04-18T08:24:10.185Z</time></trkpt><trkpt lat="45.1211392" lon="8.1486865"><ele>233.66666666666669</ele><time>2026-04-18T08:24:11.184Z</time></trkpt><trkpt lat="45.1210718" lon="8.1487413"><ele>236.0</ele><time>2026-04-18T08:24:12.184Z</time></trkpt><trkpt lat="45.1209882" lon="8.148877"><ele>236.0</ele><time>2026-04-18T08:24:14.184Z</time></trkpt><trkpt lat="45.1209504" lon="8.149"><ele>236.00000000000003</ele><time>2026-04-18T08:24:16.184Z</time></trkpt><trkpt lat="45.1209774" lon="8.1491051"><ele>236.00000000000003</ele><time>2026-04-18T08:24:18.184Z</time></trkpt><trkpt lat="45.1210548" lon="8.1491634"><ele>236.0</ele><time>2026-04-18T08:24:20.184Z</time></trkpt><trkpt lat="45.1211555" lon="8.1490834"><ele>236.0</ele><time>2026-04-18T08:24:22.185Z</time></trkpt><trkpt lat="45.1212488" lon="8.1489712"><ele>236.0</ele><time>2026-04-18T08:24:24.184Z</time></trkpt><trkpt lat="45.1213319" lon="8.1489354"><ele>236.00000000000003</ele><time>2026-04-18T08:24:26.185Z</time></trkpt><trkpt lat="45.1214366" lon="8.148963"><ele>236.00000000000003</ele><time>2026-04-18T08:24:28.185Z</time></trkpt><trkpt lat="45.1215337" lon="8.1490494"><ele>236.0</ele><time>2026-04-18T08:24:30.184Z</time></trkpt><trkpt lat="45.1216072" lon="8.149171"><ele>236.0</ele><time>2026-04-18T08:24:32.184Z</time></trkpt><trkpt lat="45.1216561" lon="8.1493103"><ele>238.20000000000002</ele><time>2026-04-18T08:24:34.184Z</time></trkpt><trkpt lat="45.1217037" lon="8.1494536"><ele>240.40000000000003</ele><time>2026-04-18T08:24:36.184Z</time></trkpt><trkpt lat="45.1217316" lon="8.1495378"><ele>242.6</ele><time>2026-04-18T08:24:37.184Z</time></trkpt><trkpt lat="45.1217786" lon="8.1496655"><ele>244.8</ele><time>2026-04-18T08:24:39.184Z</time></trkpt><trkpt lat="45.1218465" lon="8.1497164"><ele>247.0</ele><time>2026-04-18T08:24:41.185Z</time></trkpt><trkpt lat="45.1219479" lon="8.1496654"><ele>247.0</ele><time>2026-04-18T08:24:43.185Z</time></trkpt><trkpt lat="45.1220308" lon="8.1495651"><ele>247.0</ele><time>2026-04-18T08:24:45.184Z</time></trkpt><trkpt lat="45.1221181" lon="8.1495188"><ele>247.0</ele><time>2026-04-18T08:24:47.184Z</time></trkpt><trkpt lat="45.1221921" lon="8.1495606"><ele>247.0</ele><time>2026-04-18T08:24:49.184Z</time></trkpt><trkpt lat="45.1222463" lon="8.1496741"><ele>247.0</ele><time>2026-04-18T08:24:51.184Z</time></trkpt><trkpt lat="45.1222712" lon="8.1498058"><ele>248.83333333333331</ele><time>2026-04-18T08:24:53.184Z</time></trkpt><trkpt lat="45.1222856" lon="8.1499557"><ele>250.66666666666666</ele><time>2026-04-18T08:24:55.184Z</time></trkpt><trkpt lat="45.1222628" lon="8.1500587"><ele>252.5</ele><time>2026-04-18T08:24:56.184Z</time></trkpt><trkpt lat="45.1222387" lon="8.1501461"><ele>254.33333333333331</ele><time>2026-04-18T08:24:57.184Z</time></trkpt><trkpt lat="45.1222062" lon="8.1502297"><ele>256.1666666666667</ele><time>2026-04-18T08:24:58.184Z</time></trkpt><trkpt lat="45.1221684" lon="8.1503265"><ele>258.0</ele><time>2026-04-18T08:24:59.184Z</time></trkpt><trkpt lat="45.1221301" lon="8.1504119"><ele>258.0</ele><time>2026-04-18T08:25:00.184Z</time></trkpt><trkpt lat="45.122101" lon="8.150493"><ele>258.0</ele><time>2026-04-18T08:25:01.184Z</time></trkpt><trkpt lat="45.1220328" lon="8.1506422"><ele>258.0</ele><time>2026-04-18T08:25:03.184Z</time></trkpt><trkpt lat="45.1219887" lon="8.1507137"><ele>258.0</ele><time>2026-04-18T08:25:04.185Z</time></trkpt><trkpt lat="45.1219379" lon="8.1507784"><ele>258.0</ele><time>2026-04-18T08:25:05.184Z</time></trkpt><trkpt lat="45.1218834" lon="8.1508441"><ele>258.0</ele><time>2026-04-18T08:25:06.184Z</time></trkpt><trkpt lat="45.1218341" lon="8.1509071"><ele>260.1666666666667</ele><time>2026-04-18T08:25:07.185Z</time></trkpt><trkpt lat="45.1217387" lon="8.1510098"><ele>262.3333333333333</ele><time>2026-04-18T08:25:09.184Z</time></trkpt><trkpt lat="45.1216794" lon="8.1510622"><ele>264.5</ele><time>2026-04-18T08:25:10.184Z</time></trkpt><trkpt lat="45.1216137" lon="8.1511089"><ele>266.66666666666663</ele><time>2026-04-18T08:25:11.184Z</time></trkpt><trkpt lat="45.121548" lon="8.1511477"><ele>268.8333333333333</ele><time>2026-04-18T08:25:12.184Z</time></trkpt><trkpt lat="45.1214884" lon="8.1511816"><ele>271.0</ele><time>2026-04-18T08:25:13.184Z</time></trkpt><trkpt lat="45.1214173" lon="8.1512182"><ele>271.85714285714283</ele><time>2026-04-18T08:25:14.184Z</time></trkpt><trkpt lat="45.1213482" lon="8.1512519"><ele>272.7142857142857</ele><time>2026-04-18T08:25:15.184Z</time></trkpt><trkpt lat="45.1212745" lon="8.1512857"><ele>273.57142857142856</ele><time>2026-04-18T08:25:16.184Z</time></trkpt><trkpt lat="45.1212109" lon="8.1513164"><ele>274.42857142857144</ele><time>2026-04-18T08:25:17.184Z</time></trkpt><trkpt lat="45.1211529" lon="8.1513592"><ele>275.2857142857143</ele><time>2026-04-18T08:25:18.184Z</time></trkpt><trkpt lat="45.12109" lon="8.1514408"><ele>276.1428571428571</ele><time>2026-04-18T08:25:20.184Z</time></trkpt><trkpt lat="45.121109" lon="8.1515382"><ele>277.0</ele><time>2026-04-18T08:25:22.184Z</time></trkpt><trkpt lat="45.1211853" lon="8.1515555"><ele>277.6</ele><time>2026-04-18T08:25:24.184Z</time></trkpt><trkpt lat="45.1212494" lon="8.1515556"><ele>278.2</ele><time>2026-04-18T08:25:25.184Z</time></trkpt><trkpt lat="45.1213792" lon="8.1515477"><ele>278.8</ele><time>2026-04-18T08:25:27.184Z</time></trkpt><trkpt lat="45.1214578" lon="8.151552"><ele>279.4</ele><time>2026-04-18T08:25:28.184Z</time></trkpt><trkpt lat="45.1215339" lon="8.1515571"><ele>280.0</ele><time>2026-04-18T08:25:29.184Z</time></trkpt><trkpt lat="45.1216533" lon="8.15157"><ele>280.0</ele><time>2026-04-18T08:25:31.184Z</time></trkpt><trkpt lat="45.1217476" lon="8.1515984"><ele>280.0</ele><time>2026-04-18T08:25:33.184Z</time></trkpt><trkpt lat="45.1218502" lon="8.1516217"><ele>280.0</ele><time>2026-04-18T08:25:35.184Z</time></trkpt><trkpt lat="45.1219657" lon="8.1516848"><ele>280.0</ele><time>2026-04-18T08:25:37.184Z</time></trkpt><trkpt lat="45.1220597" lon="8.151726"><ele>280.0</ele><time>2026-04-18T08:25:39.184Z</time></trkpt><trkpt lat="45.1221415" lon="8.1517489"><ele>280.0</ele><time>2026-04-18T08:25:41.184Z</time></trkpt><trkpt lat="45.1222224" lon="8.1517843"><ele>280.0</ele><time>2026-04-18T08:25:43.184Z</time></trkpt><trkpt lat="45.1222897" lon="8.1517874"><ele>280.0</ele><time>2026-04-18T08:25:46.184Z</time></trkpt><trkpt lat="45.1222172" lon="8.1517981"><ele>280.0</ele><time>2026-04-18T08:26:26.184Z</time></trkpt><trkpt lat="45.1221531" lon="8.1517789"><ele>280.0</ele><time>2026-04-18T08:26:29.184Z</time></trkpt><trkpt lat="45.1220661" lon="8.151742"><ele>280.0</ele><time>2026-04-18T08:26:32.184Z</time></trkpt><trkpt lat="45.1219838" lon="8.1517088"><ele>280.0</ele><time>2026-04-18T08:26:35.184Z</time></trkpt><trkpt lat="45.1219127" lon="8.151669"><ele>280.0</ele><time>2026-04-18T08:26:38.185Z</time></trkpt><trkpt lat="45.1218467" lon="8.1516329"><ele>280.0</ele><time>2026-04-18T08:26:40.184Z</time></trkpt><trkpt lat="45.1217687" lon="8.1516023"><ele>280.0</ele><time>2026-04-18T08:26:42.184Z</time></trkpt><trkpt lat="45.1216829" lon="8.1515841"><ele>280.0</ele><time>2026-04-18T08:26:44.184Z</time></trkpt><trkpt lat="45.1216098" lon="8.1515902"><ele>280.0</ele><time>2026-04-18T08:26:47.185Z</time></trkpt><trkpt lat="45.1215335" lon="8.1515763"><ele>281.16666666666663</ele><time>2026-04-18T08:26:50.184Z</time></trkpt><trkpt lat="45.1214655" lon="8.1515723"><ele>282.3333333333333</ele><time>2026-04-18T08:26:52.184Z</time></trkpt><trkpt lat="45.1213933" lon="8.1515634"><ele>283.5</ele><time>2026-04-18T08:26:54.184Z</time></trkpt><trkpt lat="45.1213259" lon="8.1515713"><ele>284.6666666666667</ele><time>2026-04-18T08:26:56.184Z</time></trkpt><trkpt lat="45.1212373" lon="8.1515637"><ele>285.83333333333337</ele><time>2026-04-18T08:26:58.184Z</time></trkpt><trkpt lat="45.1211588" lon="8.1515679"><ele>287.0</ele><time>2026-04-18T08:27:00.184Z</time></trkpt><trkpt lat="45.1210825" lon="8.1515645"><ele>287.0</ele><time>2026-04-18T08:27:02.184Z</time></trkpt><trkpt lat="45.1210207" lon="8.1516046"><ele>287.0</ele><time>2026-04-18T08:27:05.184Z</time></trkpt><trkpt lat="45.120979" lon="8.1516769"><ele>287.0</ele><time>2026-04-18T08:27:07.184Z</time></trkpt><trkpt lat="45.120938" lon="8.1517786"><ele>287.0</ele><time>2026-04-18T08:27:09.184Z</time></trkpt><trkpt lat="45.1209083" lon="8.1518817"><ele>287.0</ele><time>2026-04-18T08:27:11.184Z</time></trkpt><trkpt lat="45.1208956" lon="8.1519711"><ele>287.0</ele><time>2026-04-18T08:27:13.184Z</time></trkpt><trkpt lat="45.1208534" lon="8.1520845"><ele>287.0</ele><time>2026-04-18T08:27:16.184Z</time></trkpt><trkpt lat="45.1208144" lon="8.1521684"><ele>287.0</ele><time>2026-04-18T08:27:18.184Z</time></trkpt><trkpt lat="45.1207847" lon="8.1522521"><ele>287.0</ele><time>2026-04-18T08:27:20.184Z</time></trkpt><trkpt lat="45.1207523" lon="8.1523346"><ele>287.0</ele><time>2026-04-18T08:27:22.184Z</time></trkpt><trkpt lat="45.1206996" lon="8.1524467"><ele>287.0</ele><time>2026-04-18T08:27:24.184Z</time></trkpt><trkpt lat="45.1206781" lon="8.1525597"><ele>287.0</ele><time>2026-04-18T08:27:26.184Z</time></trkpt><trkpt lat="45.120664" lon="8.15265"><ele>287.0</ele><time>2026-04-18T08:27:28.184Z</time></trkpt><trkpt lat="45.120643" lon="8.1527664"><ele>288.2857142857143</ele><time>2026-04-18T08:27:31.184Z</time></trkpt><trkpt lat="45.1206227" lon="8.1528652"><ele>289.57142857142856</ele><time>2026-04-18T08:27:33.184Z</time></trkpt><trkpt lat="45.1206004" lon="8.1529733"><ele>290.8571428571429</ele><time>2026-04-18T08:27:35.184Z</time></trkpt><trkpt lat="45.1205951" lon="8.1530742"><ele>292.1428571428571</ele><time>2026-04-18T08:27:37.185Z</time></trkpt><trkpt lat="45.1205754" lon="8.1531674"><ele>293.42857142857144</ele><time>2026-04-18T08:27:39.184Z</time></trkpt><trkpt lat="45.1205625" lon="8.1532604"><ele>294.7142857142857</ele><time>2026-04-18T08:27:41.184Z</time></trkpt><trkpt lat="45.1205633" lon="8.1533558"><ele>296.0</ele><time>2026-04-18T08:27:43.184Z</time></trkpt><trkpt lat="45.1205887" lon="8.1534497"><ele>296.0</ele><time>2026-04-18T08:27:45.184Z</time></trkpt><trkpt lat="45.1206187" lon="8.1535557"><ele>296.0</ele><time>2026-04-18T08:27:47.184Z</time></trkpt><trkpt lat="45.1206497" lon="8.1536455"><ele>296.0</ele><time>2026-04-18T08:27:49.185Z</time></trkpt><trkpt lat="45.1206747" lon="8.1537619"><ele>296.0</ele><time>2026-04-18T08:27:52.184Z</time></trkpt><trkpt lat="45.1206795" lon="8.1539032"><ele>296.0</ele><time>2026-04-18T08:27:55.184Z</time></trkpt><trkpt lat="45.1206599" lon="8.154026"><ele>296.0</ele><time>2026-04-18T08:27:57.184Z</time></trkpt><trkpt lat="45.1206299" lon="8.1541583"><ele>295.2</ele><time>2026-04-18T08:27:59.184Z</time></trkpt><trkpt lat="45.1205828" lon="8.1542886"><ele>294.40000000000003</ele><time>2026-04-18T08:28:01.184Z</time></trkpt><trkpt lat="45.120528" lon="8.1544358"><ele>293.6</ele><time>2026-04-18T08:28:03.184Z</time></trkpt><trkpt lat="45.120491" lon="8.1545897"><ele>292.8</ele><time>2026-04-18T08:28:05.184Z</time></trkpt><trkpt lat="45.1204613" lon="8.1547233"><ele>292.0</ele><time>2026-04-18T08:28:07.184Z</time></trkpt><trkpt lat="45.1204284" lon="8.1548626"><ele>290.16666666666663</ele><time>2026-04-18T08:28:09.184Z</time></trkpt><trkpt lat="45.1203902" lon="8.1549766"><ele>288.3333333333333</ele><time>2026-04-18T08:28:11.184Z</time></trkpt><trkpt lat="45.120361" lon="8.155061"><ele>286.5</ele><time>2026-04-18T08:28:13.184Z</time></trkpt><trkpt lat="45.1203317" lon="8.1551558"><ele>284.6666666666667</ele><time>2026-04-18T08:28:15.184Z</time></trkpt><trkpt lat="45.120255" lon="8.1552393"><ele>282.83333333333337</ele><time>2026-04-18T08:28:17.184Z</time></trkpt><trkpt lat="45.1201809" lon="8.1553542"><ele>281.0</ele><time>2026-04-18T08:28:19.184Z</time></trkpt><trkpt lat="45.1201265" lon="8.1554804"><ele>281.0</ele><time>2026-04-18T08:28:21.185Z</time></trkpt><trkpt lat="45.1200284" lon="8.155558"><ele>281.0</ele><time>2026-04-18T08:28:23.184Z</time></trkpt><trkpt lat="45.1199191" lon="8.1556099"><ele>281.0</ele><time>2026-04-18T08:28:25.184Z</time></trkpt><trkpt lat="45.1198084" lon="8.1556458"><ele>281.0</ele><time>2026-04-18T08:28:27.184Z</time></trkpt><trkpt lat="45.1197144" lon="8.1556283"><ele>281.0</ele><time>2026-04-18T08:28:29.185Z</time></trkpt><trkpt lat="45.1196372" lon="8.1555956"><ele>281.8</ele><time>2026-04-18T08:28:31.184Z</time></trkpt><trkpt lat="45.1195626" lon="8.1555217"><ele>282.6</ele><time>2026-04-18T08:28:33.184Z</time></trkpt><trkpt lat="45.1194907" lon="8.1554131"><ele>283.4</ele><time>2026-04-18T08:28:35.185Z</time></trkpt><trkpt lat="45.1194065" lon="8.1552874"><ele>284.2</ele><time>2026-04-18T08:28:37.184Z</time></trkpt><trkpt lat="45.1193185" lon="8.155177"><ele>285.0</ele><time>2026-04-18T08:28:39.184Z</time></trkpt><trkpt lat="45.1192198" lon="8.1551539"><ele>285.0</ele><time>2026-04-18T08:28:41.184Z</time></trkpt><trkpt lat="45.1191344" lon="8.1551162"><ele>285.0</ele><time>2026-04-18T08:28:43.184Z</time></trkpt><trkpt lat="45.1190669" lon="8.1550707"><ele>285.0</ele><time>2026-04-18T08:28:45.184Z</time></trkpt><trkpt lat="45.118993" lon="8.1550362"><ele>285.0</ele><time>2026-04-18T08:28:47.184Z</time></trkpt><trkpt lat="45.1189364" lon="8.1549765"><ele>285.0</ele><time>2026-04-18T08:28:49.184Z</time></trkpt><trkpt lat="45.1188853" lon="8.1549131"><ele>285.0</ele><time>2026-04-18T08:28:51.184Z</time></trkpt><trkpt lat="45.1188214" lon="8.1548807"><ele>285.0</ele><time>2026-04-18T08:28:53.184Z</time></trkpt><trkpt lat="45.1187525" lon="8.1548965"><ele>285.6666666666667</ele><time>2026-04-18T08:28:55.184Z</time></trkpt><trkpt lat="45.1186822" lon="8.15496"><ele>286.3333333333333</ele><time>2026-04-18T08:28:57.184Z</time></trkpt><trkpt lat="45.1186208" lon="8.1550519"><ele>287.0</ele><time>2026-04-18T08:28:59.184Z</time></trkpt><trkpt lat="45.1185745" lon="8.1551539"><ele>287.66666666666663</ele><time>2026-04-18T08:29:01.185Z</time></trkpt><trkpt lat="45.1185172" lon="8.1552573"><ele>288.3333333333333</ele><time>2026-04-18T08:29:03.184Z</time></trkpt><trkpt lat="45.1184851" lon="8.155351"><ele>289.0</ele><time>2026-04-18T08:29:05.185Z</time></trkpt><trkpt lat="45.1184543" lon="8.1554422"><ele>289.0</ele><time>2026-04-18T08:29:07.184Z</time></trkpt><trkpt lat="45.1184302" lon="8.1555542"><ele>289.0</ele><time>2026-04-18T08:29:09.184Z</time></trkpt><trkpt lat="45.1183705" lon="8.155688"><ele>289.0</ele><time>2026-04-18T08:29:11.184Z</time></trkpt><trkpt lat="45.1183293" lon="8.1557611"><ele>289.0</ele><time>2026-04-18T08:29:12.184Z</time></trkpt><trkpt lat="45.118289" lon="8.1558309"><ele>289.0</ele><time>2026-04-18T08:29:13.185Z</time></trkpt><trkpt lat="45.1182168" lon="8.1559638"><ele>289.0</ele><time>2026-04-18T08:29:15.184Z</time></trkpt><trkpt lat="45.1181242" lon="8.1560954"><ele>294.4</ele><time>2026-04-18T08:29:17.184Z</time></trkpt><trkpt lat="45.1180403" lon="8.1561924"><ele>299.79999999999995</ele><time>2026-04-18T08:29:19.184Z</time></trkpt><trkpt lat="45.1179548" lon="8.1562985"><ele>305.20000000000005</ele><time>2026-04-18T08:29:21.184Z</time></trkpt><trkpt lat="45.1178577" lon="8.1563442"><ele>310.6</ele><time>2026-04-18T08:29:23.184Z</time></trkpt><trkpt lat="45.1177766" lon="8.1563521"><ele>316.0</ele><time>2026-04-18T08:29:25.184Z</time></trkpt><trkpt lat="45.1176746" lon="8.1563842"><ele>316.0</ele><time>2026-04-18T08:29:27.184Z</time></trkpt><trkpt lat="45.1175955" lon="8.1564556"><ele>316.0</ele><time>2026-04-18T08:29:29.185Z</time></trkpt><trkpt lat="45.1175041" lon="8.1565498"><ele>316.0</ele><time>2026-04-18T08:29:31.184Z</time></trkpt><trkpt lat="45.1174233" lon="8.1566806"><ele>316.0</ele><time>2026-04-18T08:29:33.184Z</time></trkpt><trkpt lat="45.1173504" lon="8.1568112"><ele>316.0</ele><time>2026-04-18T08:29:35.184Z</time></trkpt><trkpt lat="45.1172968" lon="8.1568672"><ele>314.2</ele><time>2026-04-18T08:29:36.184Z</time></trkpt><trkpt lat="45.117194" lon="8.1569505"><ele>312.40000000000003</ele><time>2026-04-18T08:29:38.184Z</time></trkpt><trkpt lat="45.1170832" lon="8.1569644"><ele>310.6</ele><time>2026-04-18T08:29:40.185Z</time></trkpt><trkpt lat="45.1169709" lon="8.1569461"><ele>308.8</ele><time>2026-04-18T08:29:42.184Z</time></trkpt><trkpt lat="45.1168739" lon="8.1568963"><ele>307.0</ele><time>2026-04-18T08:29:44.184Z</time></trkpt><trkpt lat="45.1167597" lon="8.1568341"><ele>307.0</ele><time>2026-04-18T08:29:46.184Z</time></trkpt><trkpt lat="45.1166512" lon="8.1568063"><ele>307.0</ele><time>2026-04-18T08:29:48.184Z</time></trkpt><trkpt lat="45.1165527" lon="8.1567729"><ele>307.0</ele><time>2026-04-18T08:29:50.184Z</time></trkpt><trkpt lat="45.1164516" lon="8.1567341"><ele>307.0</ele><time>2026-04-18T08:29:52.184Z</time></trkpt><trkpt lat="45.1163814" lon="8.1566217"><ele>307.0</ele><time>2026-04-18T08:29:54.184Z</time></trkpt><trkpt lat="45.1163426" lon="8.1565385"><ele>305.5</ele><time>2026-04-18T08:29:55.184Z</time></trkpt><trkpt lat="45.1163005" lon="8.1564691"><ele>304.0</ele><time>2026-04-18T08:29:56.184Z</time></trkpt><trkpt lat="45.1162463" lon="8.1564001"><ele>302.5</ele><time>2026-04-18T08:29:58.184Z</time></trkpt><trkpt lat="45.1161794" lon="8.1563509"><ele>301.0</ele><time>2026-04-18T08:30:00.185Z</time></trkpt><trkpt lat="45.1161142" lon="8.1562947"><ele>299.5</ele><time>2026-04-18T08:30:03.183Z</time></trkpt><trkpt lat="45.1161143" lon="8.1561799"><ele>298.0</ele><time>2026-04-18T08:30:05.183Z</time></trkpt><trkpt lat="45.1161476" lon="8.1560161"><ele>298.0</ele><time>2026-04-18T08:30:07.184Z</time></trkpt><trkpt lat="45.116169" lon="8.1559207"><ele>298.0</ele><time>2026-04-18T08:30:08.183Z</time></trkpt><trkpt lat="45.116189" lon="8.155832"><ele>298.0</ele><time>2026-04-18T08:30:09.183Z</time></trkpt><trkpt lat="45.1162308" lon="8.1557262"><ele>298.0</ele><time>2026-04-18T08:30:10.183Z</time></trkpt><trkpt lat="45.1162716" lon="8.155617"><ele>298.0</ele><time>2026-04-18T08:30:11.183Z</time></trkpt><trkpt lat="45.116316" lon="8.1555044"><ele>298.0</ele><time>2026-04-18T08:30:12.183Z</time></trkpt><trkpt lat="45.1163548" lon="8.1553967"><ele>298.8333333333333</ele><time>2026-04-18T08:30:13.184Z</time></trkpt><trkpt lat="45.1163826" lon="8.1552939"><ele>299.66666666666663</ele><time>2026-04-18T08:30:14.183Z</time></trkpt><trkpt lat="45.1164052" lon="8.1551147"><ele>300.5</ele><time>2026-04-18T08:30:16.183Z</time></trkpt><trkpt lat="45.1163845" lon="8.1550216"><ele>301.3333333333333</ele><time>2026-04-18T08:30:17.183Z</time></trkpt><trkpt lat="45.1163525" lon="8.1549353"><ele>302.1666666666667</ele><time>2026-04-18T08:30:18.183Z</time></trkpt><trkpt lat="45.1163162" lon="8.154846"><ele>303.0</ele><time>2026-04-18T08:30:19.183Z</time></trkpt><trkpt lat="45.1162751" lon="8.1547575"><ele>304.6</ele><time>2026-04-18T08:30:20.183Z</time></trkpt><trkpt lat="45.1162369" lon="8.1546602"><ele>306.20000000000005</ele><time>2026-04-18T08:30:21.183Z</time></trkpt><trkpt lat="45.1161991" lon="8.1545467"><ele>307.8</ele><time>2026-04-18T08:30:22.183Z</time></trkpt><trkpt lat="45.1161586" lon="8.1544312"><ele>309.40000000000003</ele><time>2026-04-18T08:30:23.183Z</time></trkpt><trkpt lat="45.1161171" lon="8.1543086"><ele>311.0</ele><time>2026-04-18T08:30:24.183Z</time></trkpt><trkpt lat="45.1160744" lon="8.1541809"><ele>311.0</ele><time>2026-04-18T08:30:25.183Z</time></trkpt><trkpt lat="45.1160329" lon="8.1540474"><ele>311.0</ele><time>2026-04-18T08:30:26.183Z</time></trkpt><trkpt lat="45.1159925" lon="8.1539182"><ele>311.0</ele><time>2026-04-18T08:30:27.183Z</time></trkpt><trkpt lat="45.1159645" lon="8.1538118"><ele>311.0</ele><time>2026-04-18T08:30:28.183Z</time></trkpt><trkpt lat="45.1159498" lon="8.1537201"><ele>311.0</ele><time>2026-04-18T08:30:29.183Z</time></trkpt><trkpt lat="45.1159425" lon="8.1536278"><ele>311.0</ele><time>2026-04-18T08:30:30.183Z</time></trkpt><trkpt lat="45.1159463" lon="8.1535292"><ele>312.0</ele><time>2026-04-18T08:30:31.183Z</time></trkpt><trkpt lat="45.1159547" lon="8.153436"><ele>313.0</ele><time>2026-04-18T08:30:32.184Z</time></trkpt><trkpt lat="45.1159491" lon="8.1533338"><ele>314.0</ele><time>2026-04-18T08:30:33.183Z</time></trkpt><trkpt lat="45.1159525" lon="8.1532203"><ele>315.0</ele><time>2026-04-18T08:30:34.183Z</time></trkpt><trkpt lat="45.1159543" lon="8.1530886"><ele>316.0</ele><time>2026-04-18T08:30:35.183Z</time></trkpt><trkpt lat="45.1159504" lon="8.1529459"><ele>317.0</ele><time>2026-04-18T08:30:36.184Z</time></trkpt><trkpt lat="45.1159484" lon="8.1528044"><ele>317.8</ele><time>2026-04-18T08:30:37.183Z</time></trkpt><trkpt lat="45.1159385" lon="8.1526517"><ele>318.6</ele><time>2026-04-18T08:30:38.183Z</time></trkpt><trkpt lat="45.1159146" lon="8.1525082"><ele>319.40000000000003</ele><time>2026-04-18T08:30:39.183Z</time></trkpt><trkpt lat="45.1158825" lon="8.1523547"><ele>320.2</ele><time>2026-04-18T08:30:40.183Z</time></trkpt><trkpt lat="45.1158454" lon="8.152212"><ele>321.0</ele><time>2026-04-18T08:30:41.183Z</time></trkpt><trkpt lat="45.1158161" lon="8.1520718"><ele>322.20000000000005</ele><time>2026-04-18T08:30:42.183Z</time></trkpt><trkpt lat="45.1157854" lon="8.1519286"><ele>323.40000000000003</ele><time>2026-04-18T08:30:43.183Z</time></trkpt><trkpt lat="45.1157591" lon="8.1517981"><ele>324.6</ele><time>2026-04-18T08:30:44.184Z</time></trkpt><trkpt lat="45.1157368" lon="8.151668"><ele>325.8</ele><time>2026-04-18T08:30:45.183Z</time></trkpt><trkpt lat="45.1157274" lon="8.1515487"><ele>327.0</ele><time>2026-04-18T08:30:46.184Z</time></trkpt><trkpt lat="45.1157291" lon="8.1514386"><ele>325.8333333333333</ele><time>2026-04-18T08:30:47.183Z</time></trkpt><trkpt lat="45.1157375" lon="8.1513353"><ele>324.6666666666667</ele><time>2026-04-18T08:30:48.183Z</time></trkpt><trkpt lat="45.1157569" lon="8.151226"><ele>323.5</ele><time>2026-04-18T08:30:49.183Z</time></trkpt><trkpt lat="45.1157826" lon="8.1511152"><ele>322.33333333333337</ele><time>2026-04-18T08:30:50.184Z</time></trkpt><trkpt lat="45.1158203" lon="8.1509957"><ele>321.1666666666667</ele><time>2026-04-18T08:30:51.184Z</time></trkpt><trkpt lat="45.1158584" lon="8.1508739"><ele>320.0</ele><time>2026-04-18T08:30:52.183Z</time></trkpt><trkpt lat="45.1158798" lon="8.1507503"><ele>319.0</ele><time>2026-04-18T08:30:53.183Z</time></trkpt><trkpt lat="45.1159094" lon="8.1506067"><ele>318.0</ele><time>2026-04-18T08:30:54.184Z</time></trkpt><trkpt lat="45.1159337" lon="8.1504555"><ele>317.0</ele><time>2026-04-18T08:30:55.183Z</time></trkpt><trkpt lat="45.1159569" lon="8.1503083"><ele>316.0</ele><time>2026-04-18T08:30:56.183Z</time></trkpt><trkpt lat="45.1159855" lon="8.1501605"><ele>315.0</ele><time>2026-04-18T08:30:57.184Z</time></trkpt><trkpt lat="45.1160122" lon="8.1500032"><ele>315.8</ele><time>2026-04-18T08:30:58.183Z</time></trkpt><trkpt lat="45.1160384" lon="8.1498557"><ele>316.6</ele><time>2026-04-18T08:30:59.183Z</time></trkpt><trkpt lat="45.1160581" lon="8.1497235"><ele>317.4</ele><time>2026-04-18T08:31:00.183Z</time></trkpt><trkpt lat="45.1160568" lon="8.1496046"><ele>318.2</ele><time>2026-04-18T08:31:01.184Z</time></trkpt><trkpt lat="45.1160309" lon="8.1494946"><ele>319.0</ele><time>2026-04-18T08:31:02.183Z</time></trkpt><trkpt lat="45.1159954" lon="8.1493875"><ele>319.0</ele><time>2026-04-18T08:31:03.183Z</time></trkpt><trkpt lat="45.115953" lon="8.149266"><ele>319.0</ele><time>2026-04-18T08:31:04.183Z</time></trkpt><trkpt lat="45.1159038" lon="8.1491328"><ele>319.0</ele><time>2026-04-18T08:31:05.183Z</time></trkpt><trkpt lat="45.115853" lon="8.1490078"><ele>319.0</ele><time>2026-04-18T08:31:06.184Z</time></trkpt><trkpt lat="45.1157998" lon="8.1489009"><ele>319.0</ele><time>2026-04-18T08:31:07.183Z</time></trkpt><trkpt lat="45.115759" lon="8.1487907"><ele>317.8333333333333</ele><time>2026-04-18T08:31:08.183Z</time></trkpt><trkpt lat="45.1157216" lon="8.1486752"><ele>316.66666666666663</ele><time>2026-04-18T08:31:09.184Z</time></trkpt><trkpt lat="45.1156784" lon="8.1485793"><ele>315.5</ele><time>2026-04-18T08:31:10.183Z</time></trkpt><trkpt lat="45.1156115" lon="8.1485069"><ele>314.3333333333333</ele><time>2026-04-18T08:31:11.183Z</time></trkpt><trkpt lat="45.115538" lon="8.1484355"><ele>313.1666666666667</ele><time>2026-04-18T08:31:12.183Z</time></trkpt><trkpt lat="45.1154592" lon="8.1483688"><ele>312.0</ele><time>2026-04-18T08:31:13.183Z</time></trkpt><trkpt lat="45.1153791" lon="8.1482909"><ele>312.0</ele><time>2026-04-18T08:31:14.183Z</time></trkpt><trkpt lat="45.1152963" lon="8.1482114"><ele>312.0</ele><time>2026-04-18T08:31:15.183Z</time></trkpt><trkpt lat="45.1152172" lon="8.1481524"><ele>312.0</ele><time>2026-04-18T08:31:16.183Z</time></trkpt><trkpt lat="45.115146" lon="8.1481094"><ele>312.0</ele><time>2026-04-18T08:31:17.183Z</time></trkpt><trkpt lat="45.1150881" lon="8.1480601"><ele>312.0</ele><time>2026-04-18T08:31:18.183Z</time></trkpt><trkpt lat="45.1150383" lon="8.1479834"><ele>312.0</ele><time>2026-04-18T08:31:19.183Z</time></trkpt><trkpt lat="45.1149997" lon="8.1478938"><ele>312.1666666666667</ele><time>2026-04-18T08:31:20.183Z</time></trkpt><trkpt lat="45.1149903" lon="8.1477877"><ele>312.3333333333333</ele><time>2026-04-18T08:31:21.183Z</time></trkpt><trkpt lat="45.1149964" lon="8.1476791"><ele>312.5</ele><time>2026-04-18T08:31:22.183Z</time></trkpt><trkpt lat="45.1150295" lon="8.1475809"><ele>312.66666666666663</ele><time>2026-04-18T08:31:23.184Z</time></trkpt><trkpt lat="45.1150567" lon="8.1474675"><ele>312.8333333333333</ele><time>2026-04-18T08:31:24.184Z</time></trkpt><trkpt lat="45.1150906" lon="8.147351"><ele>313.0</ele><time>2026-04-18T08:31:25.183Z</time></trkpt><trkpt lat="45.1151187" lon="8.1472304"><ele>313.0</ele><time>2026-04-18T08:31:26.183Z</time></trkpt><trkpt lat="45.1151479" lon="8.1471095"><ele>313.0</ele><time>2026-04-18T08:31:27.183Z</time></trkpt><trkpt lat="45.1151786" lon="8.1470104"><ele>313.0</ele><time>2026-04-18T08:31:28.183Z</time></trkpt><trkpt lat="45.1152054" lon="8.1469246"><ele>313.0</ele><time>2026-04-18T08:31:29.183Z</time></trkpt><trkpt lat="45.1152138" lon="8.1467696"><ele>313.0</ele><time>2026-04-18T08:31:31.183Z</time></trkpt><trkpt lat="45.1152302" lon="8.1466653"><ele>313.0</ele><time>2026-04-18T08:31:33.183Z</time></trkpt><trkpt lat="45.1152996" lon="8.1466444"><ele>313.0</ele><time>2026-04-18T08:31:35.183Z</time></trkpt><trkpt lat="45.1153815" lon="8.1466429"><ele>313.0</ele><time>2026-04-18T08:31:37.183Z</time></trkpt><trkpt lat="45.115453" lon="8.1466332"><ele>313.0</ele><time>2026-04-18T08:31:39.183Z</time></trkpt><trkpt lat="45.1155325" lon="8.1466206"><ele>313.0</ele><time>2026-04-18T08:31:41.183Z</time></trkpt><trkpt lat="45.1156" lon="8.1466033"><ele>313.0</ele><time>2026-04-18T08:31:43.183Z</time></trkpt><trkpt lat="45.1156768" lon="8.1466149"><ele>313.0</ele><time>2026-04-18T08:31:46.183Z</time></trkpt><trkpt lat="45.1157431" lon="8.146648"><ele>313.5</ele><time>2026-04-18T08:31:48.184Z</time></trkpt><trkpt lat="45.1158234" lon="8.1466596"><ele>314.0</ele><time>2026-04-18T08:31:50.183Z</time></trkpt><trkpt lat="45.1159143" lon="8.1466595"><ele>314.5</ele><time>2026-04-18T08:31:52.183Z</time></trkpt><trkpt lat="45.1160001" lon="8.1466367"><ele>315.0</ele><time>2026-04-18T08:31:54.183Z</time></trkpt><trkpt lat="45.1160782" lon="8.146602"><ele>315.5</ele><time>2026-04-18T08:31:56.183Z</time></trkpt><trkpt lat="45.1161566" lon="8.1465434"><ele>316.0</ele><time>2026-04-18T08:31:58.183Z</time></trkpt><trkpt lat="45.1162251" lon="8.1465064"><ele>313.16666666666663</ele><time>2026-04-18T08:32:00.183Z</time></trkpt><trkpt lat="45.1163139" lon="8.1464874"><ele>310.3333333333333</ele><time>2026-04-18T08:32:02.183Z</time></trkpt><trkpt lat="45.1163865" lon="8.1464258"><ele>307.5</ele><time>2026-04-18T08:32:04.183Z</time></trkpt><trkpt lat="45.1164548" lon="8.1463454"><ele>304.6666666666667</ele><time>2026-04-18T08:32:06.183Z</time></trkpt><trkpt lat="45.1165153" lon="8.1462671"><ele>301.83333333333337</ele><time>2026-04-18T08:32:08.183Z</time></trkpt><trkpt lat="45.1165866" lon="8.1461882"><ele>299.0</ele><time>2026-04-18T08:32:10.183Z</time></trkpt><trkpt lat="45.1166566" lon="8.1461334"><ele>298.8</ele><time>2026-04-18T08:32:12.183Z</time></trkpt><trkpt lat="45.1167595" lon="8.1461124"><ele>298.59999999999997</ele><time>2026-04-18T08:32:14.183Z</time></trkpt><trkpt lat="45.1168483" lon="8.1461543"><ele>298.4</ele><time>2026-04-18T08:32:16.183Z</time></trkpt><trkpt lat="45.1169417" lon="8.1461693"><ele>298.2</ele><time>2026-04-18T08:32:18.183Z</time></trkpt><trkpt lat="45.1170382" lon="8.1461305"><ele>298.0</ele><time>2026-04-18T08:32:20.183Z</time></trkpt><trkpt lat="45.1171276" lon="8.1461084"><ele>298.0</ele><time>2026-04-18T08:32:22.184Z</time></trkpt><trkpt lat="45.1172206" lon="8.146106"><ele>298.0</ele><time>2026-04-18T08:32:24.183Z</time></trkpt><trkpt lat="45.117328" lon="8.1461357"><ele>298.0</ele><time>2026-04-18T08:32:26.183Z</time></trkpt><trkpt lat="45.1174316" lon="8.1462424"><ele>298.0</ele><time>2026-04-18T08:32:28.184Z</time></trkpt><trkpt lat="45.1174764" lon="8.1464134"><ele>297.0</ele><time>2026-04-18T08:32:30.184Z</time></trkpt><trkpt lat="45.1174979" lon="8.1465085"><ele>296.0</ele><time>2026-04-18T08:32:31.183Z</time></trkpt><trkpt lat="45.1175215" lon="8.1466031"><ele>295.0</ele><time>2026-04-18T08:32:32.183Z</time></trkpt><trkpt lat="45.1175454" lon="8.1467522"><ele>294.0</ele><time>2026-04-18T08:32:34.183Z</time></trkpt><trkpt lat="45.1175729" lon="8.1468537"><ele>293.0</ele><time>2026-04-18T08:32:36.183Z</time></trkpt><trkpt lat="45.1176272" lon="8.1469319"><ele>292.0</ele><time>2026-04-18T08:32:38.183Z</time></trkpt><trkpt lat="45.1176875" lon="8.1469833"><ele>296.0</ele><time>2026-04-18T08:32:40.184Z</time></trkpt><trkpt lat="45.1177898" lon="8.1469852"><ele>300.0</ele><time>2026-04-18T08:32:42.183Z</time></trkpt><trkpt lat="45.1178992" lon="8.1469448"><ele>304.0</ele><time>2026-04-18T08:32:44.183Z</time></trkpt><trkpt lat="45.117981" lon="8.1468725"><ele>308.0</ele><time>2026-04-18T08:32:46.183Z</time></trkpt><trkpt lat="45.1180661" lon="8.1468268"><ele>312.0</ele><time>2026-04-18T08:32:48.184Z</time></trkpt><trkpt lat="45.1181475" lon="8.146873"><ele>312.6</ele><time>2026-04-18T08:32:50.183Z</time></trkpt><trkpt lat="45.1182551" lon="8.1469234"><ele>313.2</ele><time>2026-04-18T08:32:52.184Z</time></trkpt><trkpt lat="45.1183481" lon="8.146985"><ele>313.8</ele><time>2026-04-18T08:32:54.183Z</time></trkpt><trkpt lat="45.1183908" lon="8.1470816"><ele>314.4</ele><time>2026-04-18T08:32:56.183Z</time></trkpt><trkpt lat="45.1184134" lon="8.1472317"><ele>315.0</ele><time>2026-04-18T08:32:58.183Z</time></trkpt><trkpt lat="45.1184464" lon="8.1474079"><ele>315.0</ele><time>2026-04-18T08:33:00.183Z</time></trkpt><trkpt lat="45.118486" lon="8.1475599"><ele>315.0</ele><time>2026-04-18T08:33:02.183Z</time></trkpt><trkpt lat="45.1185243" lon="8.147681"><ele>315.0</ele><time>2026-04-18T08:33:04.183Z</time></trkpt><trkpt lat="45.1185157" lon="8.1478075"><ele>315.0</ele><time>2026-04-18T08:33:06.183Z</time></trkpt><trkpt lat="45.1185206" lon="8.1479516"><ele>315.0</ele><time>2026-04-18T08:33:08.183Z</time></trkpt><trkpt lat="45.1185295" lon="8.1480757"><ele>315.0</ele><time>2026-04-18T08:33:10.183Z</time></trkpt><trkpt lat="45.1185362" lon="8.1481938"><ele>315.0</ele><time>2026-04-18T08:33:13.183Z</time></trkpt><trkpt lat="45.1184848" lon="8.1483253"><ele>315.0</ele><time>2026-04-18T08:33:16.183Z</time></trkpt><trkpt lat="45.1184241" lon="8.1484035"><ele>315.0</ele><time>2026-04-18T08:33:18.183Z</time></trkpt><trkpt lat="45.1184302" lon="8.1485237"><ele>315.0</ele><time>2026-04-18T08:33:21.183Z</time></trkpt><trkpt lat="45.1184927" lon="8.1485715"><ele>315.0</ele><time>2026-04-18T08:33:23.184Z</time></trkpt><trkpt lat="45.1185868" lon="8.1486165"><ele>316.8</ele><time>2026-04-18T08:33:25.183Z</time></trkpt><trkpt lat="45.1186776" lon="8.1486351"><ele>318.6</ele><time>2026-04-18T08:33:27.183Z</time></trkpt><trkpt lat="45.1187792" lon="8.1486505"><ele>320.4</ele><time>2026-04-18T08:33:29.183Z</time></trkpt><trkpt lat="45.1188657" lon="8.1487163"><ele>322.2</ele><time>2026-04-18T08:33:31.183Z</time></trkpt><trkpt lat="45.1189535" lon="8.1488183"><ele>324.0</ele><time>2026-04-18T08:33:33.183Z</time></trkpt><trkpt lat="45.119033" lon="8.1489213"><ele>319.2</ele><time>2026-04-18T08:33:35.183Z</time></trkpt><trkpt lat="45.1191176" lon="8.1490258"><ele>314.4</ele><time>2026-04-18T08:33:37.183Z</time></trkpt><trkpt lat="45.1191654" lon="8.1491614"><ele>309.6</ele><time>2026-04-18T08:33:39.183Z</time></trkpt><trkpt lat="45.1192161" lon="8.1493123"><ele>304.8</ele><time>2026-04-18T08:33:41.183Z</time></trkpt><trkpt lat="45.1192472" lon="8.149437"><ele>300.0</ele><time>2026-04-18T08:33:43.183Z</time></trkpt><trkpt lat="45.1192874" lon="8.1495578"><ele>300.0</ele><time>2026-04-18T08:33:45.184Z</time></trkpt><trkpt lat="45.1193479" lon="8.1496585"><ele>300.0</ele><time>2026-04-18T08:33:47.183Z</time></trkpt><trkpt lat="45.119402" lon="8.1497061"><ele>300.0</ele><time>2026-04-18T08:33:49.184Z</time></trkpt><trkpt lat="45.119486" lon="8.1497424"><ele>300.0</ele><time>2026-04-18T08:33:52.183Z</time></trkpt><trkpt lat="45.1195384" lon="8.1498048"><ele>300.0</ele><time>2026-04-18T08:33:54.183Z</time></trkpt><trkpt lat="45.1195622" lon="8.1499141"><ele>300.0</ele><time>2026-04-18T08:33:56.184Z</time></trkpt><trkpt lat="45.1195931" lon="8.1500442"><ele>301.0</ele><time>2026-04-18T08:33:58.183Z</time></trkpt><trkpt lat="45.1196208" lon="8.1501587"><ele>302.0</ele><time>2026-04-18T08:34:00.183Z</time></trkpt><trkpt lat="45.1196675" lon="8.1502534"><ele>303.0</ele><time>2026-04-18T08:34:02.183Z</time></trkpt><trkpt lat="45.1197241" lon="8.1503037"><ele>304.0</ele><time>2026-04-18T08:34:04.183Z</time></trkpt><trkpt lat="45.1197969" lon="8.1503577"><ele>305.0</ele><time>2026-04-18T08:34:06.183Z</time></trkpt><trkpt lat="45.1198579" lon="8.1504181"><ele>306.0</ele><time>2026-04-18T08:34:08.184Z</time></trkpt><trkpt lat="45.1199034" lon="8.1505135"><ele>304.7142857142857</ele><time>2026-04-18T08:34:10.183Z</time></trkpt><trkpt lat="45.1199205" lon="8.1506006"><ele>303.42857142857144</ele><time>2026-04-18T08:34:12.183Z</time></trkpt><trkpt lat="45.1199113" lon="8.1507056"><ele>302.14285714285717</ele><time>2026-04-18T08:34:14.183Z</time></trkpt><trkpt lat="45.1198929" lon="8.1508009"><ele>300.8571428571429</ele><time>2026-04-18T08:34:16.183Z</time></trkpt><trkpt lat="45.1199769" lon="8.1508429"><ele>299.5714285714286</ele><time>2026-04-18T08:34:20.183Z</time></trkpt><trkpt lat="45.1200568" lon="8.1508426"><ele>298.2857142857143</ele><time>2026-04-18T08:34:22.183Z</time></trkpt><trkpt lat="45.1201149" lon="8.150886"><ele>297.0</ele><time>2026-04-18T08:34:24.183Z</time></trkpt><trkpt lat="45.1201498" lon="8.1509621"><ele>297.0</ele><time>2026-04-18T08:34:26.183Z</time></trkpt><trkpt lat="45.1201314" lon="8.1510591"><ele>297.0</ele><time>2026-04-18T08:34:28.183Z</time></trkpt><trkpt lat="45.1201307" lon="8.1511507"><ele>297.0</ele><time>2026-04-18T08:34:30.183Z</time></trkpt><trkpt lat="45.1201777" lon="8.1512288"><ele>297.0</ele><time>2026-04-18T08:34:32.183Z</time></trkpt><trkpt lat="45.1202528" lon="8.1513163"><ele>297.0</ele><time>2026-04-18T08:34:35.183Z</time></trkpt><trkpt lat="45.1203182" lon="8.1513454"><ele>297.0</ele><time>2026-04-18T08:34:37.183Z</time></trkpt><trkpt lat="45.1204008" lon="8.1513867"><ele>297.0</ele><time>2026-04-18T08:34:40.183Z</time></trkpt><trkpt lat="45.1204734" lon="8.1514281"><ele>297.0</ele><time>2026-04-18T08:34:43.184Z</time></trkpt><trkpt lat="45.1205495" lon="8.1514627"><ele>297.0</ele><time>2026-04-18T08:34:45.183Z</time></trkpt><trkpt lat="45.1206409" lon="8.1514791"><ele>297.0</ele><time>2026-04-18T08:34:47.183Z</time></trkpt><trkpt lat="45.1207564" lon="8.1514872"><ele>297.0</ele><time>2026-04-18T08:34:49.183Z</time></trkpt><trkpt lat="45.1208414" lon="8.1515093"><ele>295.3333333333333</ele><time>2026-04-18T08:34:51.183Z</time></trkpt><trkpt lat="45.1209178" lon="8.1515492"><ele>293.6666666666667</ele><time>2026-04-18T08:34:53.183Z</time></trkpt><trkpt lat="45.1209812" lon="8.151578"><ele>292.0</ele><time>2026-04-18T08:34:55.183Z</time></trkpt><trkpt lat="45.1210649" lon="8.1515717"><ele>290.33333333333337</ele><time>2026-04-18T08:34:58.183Z</time></trkpt><trkpt lat="45.1211624" lon="8.1515758"><ele>288.6666666666667</ele><time>2026-04-18T08:35:00.183Z</time></trkpt><trkpt lat="45.121232" lon="8.1515727"><ele>287.0</ele><time>2026-04-18T08:35:01.183Z</time></trkpt><trkpt lat="45.121305" lon="8.1515655"><ele>287.0</ele><time>2026-04-18T08:35:02.183Z</time></trkpt><trkpt lat="45.1213855" lon="8.15156"><ele>287.0</ele><time>2026-04-18T08:35:03.183Z</time></trkpt><trkpt lat="45.1214542" lon="8.1515627"><ele>287.0</ele><time>2026-04-18T08:35:04.183Z</time></trkpt><trkpt lat="45.1215179" lon="8.1515637"><ele>287.0</ele><time>2026-04-18T08:35:05.183Z</time></trkpt><trkpt lat="45.121627" lon="8.1515712"><ele>287.0</ele><time>2026-04-18T08:35:07.184Z</time></trkpt><trkpt lat="45.1217272" lon="8.1515897"><ele>287.0</ele><time>2026-04-18T08:35:09.183Z</time></trkpt><trkpt lat="45.1218075" lon="8.1516075"><ele>285.6</ele><time>2026-04-18T08:35:11.183Z</time></trkpt><trkpt lat="45.1218896" lon="8.1516421"><ele>284.2</ele><time>2026-04-18T08:35:13.183Z</time></trkpt><trkpt lat="45.1219909" lon="8.1516859"><ele>282.8</ele><time>2026-04-18T08:35:15.183Z</time></trkpt><trkpt lat="45.1220754" lon="8.1517294"><ele>281.4</ele><time>2026-04-18T08:35:17.183Z</time></trkpt><trkpt lat="45.1221606" lon="8.1517571"><ele>280.0</ele><time>2026-04-18T08:35:19.184Z</time></trkpt><trkpt lat="45.1222422" lon="8.1517709"><ele>280.0</ele><time>2026-04-18T08:35:21.184Z</time></trkpt><trkpt lat="45.1221566" lon="8.15176"><ele>280.0</ele><time>2026-04-18T08:35:41.184Z</time></trkpt><trkpt lat="45.1220784" lon="8.1517421"><ele>280.0</ele><time>2026-04-18T08:35:44.184Z</time></trkpt><trkpt lat="45.1219976" lon="8.1517223"><ele>280.0</ele><time>2026-04-18T08:35:47.183Z</time></trkpt><trkpt lat="45.1219158" lon="8.1516701"><ele>280.0</ele><time>2026-04-18T08:35:50.183Z</time></trkpt><trkpt lat="45.1218306" lon="8.1516341"><ele>280.0</ele><time>2026-04-18T08:35:52.183Z</time></trkpt><trkpt lat="45.1217603" lon="8.1516053"><ele>280.0</ele><time>2026-04-18T08:35:54.184Z</time></trkpt><trkpt lat="45.1216982" lon="8.1515784"><ele>280.0</ele><time>2026-04-18T08:35:56.184Z</time></trkpt><trkpt lat="45.1217463" lon="8.1516796"><ele>280.0</ele><time>2026-04-18T08:36:22.184Z</time></trkpt><trkpt lat="45.1218023" lon="8.1517214"><ele>280.0</ele><time>2026-04-18T08:36:24.183Z</time></trkpt><trkpt lat="45.1218639" lon="8.1517596"><ele>280.0</ele><time>2026-04-18T08:36:26.183Z</time></trkpt><trkpt lat="45.1219421" lon="8.1517922"><ele>280.0</ele><time>2026-04-18T08:36:28.183Z</time></trkpt><trkpt lat="45.1220198" lon="8.1518531"><ele>280.0</ele><time>2026-04-18T08:36:30.183Z</time></trkpt><trkpt lat="45.1221035" lon="8.1519068"><ele>280.0</ele><time>2026-04-18T08:36:32.183Z</time></trkpt><trkpt lat="45.1221724" lon="8.1519393"><ele>280.0</ele><time>2026-04-18T08:36:34.183Z</time></trkpt><trkpt lat="45.1222441" lon="8.1519822"><ele>280.0</ele><time>2026-04-18T08:36:36.183Z</time></trkpt><trkpt lat="45.1223168" lon="8.1520343"><ele>280.0</ele><time>2026-04-18T08:36:38.183Z</time></trkpt><trkpt lat="45.12239" lon="8.1520949"><ele>280.0</ele><time>2026-04-18T08:36:40.184Z</time></trkpt><trkpt lat="45.1224699" lon="8.1521463"><ele>282.5</ele><time>2026-04-18T08:36:42.183Z</time></trkpt><trkpt lat="45.1225503" lon="8.1521439"><ele>285.0</ele><time>2026-04-18T08:36:44.183Z</time></trkpt><trkpt lat="45.1226219" lon="8.1521164"><ele>287.5</ele><time>2026-04-18T08:36:46.183Z</time></trkpt><trkpt lat="45.1226784" lon="8.1520658"><ele>290.0</ele><time>2026-04-18T08:36:48.183Z</time></trkpt><trkpt lat="45.1227604" lon="8.1520544"><ele>292.5</ele><time>2026-04-18T08:36:51.183Z</time></trkpt><trkpt lat="45.1228485" lon="8.1521159"><ele>295.0</ele><time>2026-04-18T08:36:53.183Z</time></trkpt><trkpt lat="45.1229317" lon="8.1522047"><ele>295.0</ele><time>2026-04-18T08:36:55.183Z</time></trkpt><trkpt lat="45.1230193" lon="8.1522968"><ele>295.0</ele><time>2026-04-18T08:36:57.183Z</time></trkpt><trkpt lat="45.1231097" lon="8.1523925"><ele>295.0</ele><time>2026-04-18T08:36:59.183Z</time></trkpt><trkpt lat="45.123168" lon="8.1525154"><ele>295.0</ele><time>2026-04-18T08:37:01.183Z</time></trkpt><trkpt lat="45.1232142" lon="8.1526704"><ele>295.0</ele><time>2026-04-18T08:37:03.183Z</time></trkpt><trkpt lat="45.1232687" lon="8.1528171"><ele>295.0</ele><time>2026-04-18T08:37:05.183Z</time></trkpt><trkpt lat="45.1232991" lon="8.152931"><ele>295.0</ele><time>2026-04-18T08:37:07.183Z</time></trkpt><trkpt lat="45.1233135" lon="8.1530562"><ele>295.0</ele><time>2026-04-18T08:37:09.183Z</time></trkpt><trkpt lat="45.1233068" lon="8.1531863"><ele>295.0</ele><time>2026-04-18T08:37:11.183Z</time></trkpt><trkpt lat="45.1232916" lon="8.1533278"><ele>295.0</ele><time>2026-04-18T08:37:13.183Z</time></trkpt><trkpt lat="45.1233335" lon="8.1534735"><ele>296.4</ele><time>2026-04-18T08:37:15.183Z</time></trkpt><trkpt lat="45.1234058" lon="8.153577"><ele>297.8</ele><time>2026-04-18T08:37:17.184Z</time></trkpt><trkpt lat="45.1235189" lon="8.153653"><ele>299.2</ele><time>2026-04-18T08:37:19.183Z</time></trkpt><trkpt lat="45.1235869" lon="8.1536792"><ele>300.6</ele><time>2026-04-18T08:37:20.183Z</time></trkpt><trkpt lat="45.1236473" lon="8.1537189"><ele>302.0</ele><time>2026-04-18T08:37:21.183Z</time></trkpt><trkpt lat="45.1237591" lon="8.1537991"><ele>302.0</ele><time>2026-04-18T08:37:23.183Z</time></trkpt><trkpt lat="45.1238104" lon="8.1538547"><ele>302.0</ele><time>2026-04-18T08:37:24.183Z</time></trkpt><trkpt lat="45.1238948" lon="8.1539467"><ele>302.0</ele><time>2026-04-18T08:37:26.183Z</time></trkpt><trkpt lat="45.1239726" lon="8.154018"><ele>302.0</ele><time>2026-04-18T08:37:28.183Z</time></trkpt><trkpt lat="45.1240503" lon="8.1540947"><ele>302.0</ele><time>2026-04-18T08:37:30.183Z</time></trkpt><trkpt lat="45.1241694" lon="8.1541765"><ele>302.00000000000006</ele><time>2026-04-18T08:37:32.183Z</time></trkpt><trkpt lat="45.1242325" lon="8.1542192"><ele>302.0</ele><time>2026-04-18T08:37:33.184Z</time></trkpt><trkpt lat="45.1242963" lon="8.1542605"><ele>302.0</ele><time>2026-04-18T08:37:34.183Z</time></trkpt><trkpt lat="45.1243609" lon="8.154304"><ele>302.0</ele><time>2026-04-18T08:37:35.184Z</time></trkpt><trkpt lat="45.1244268" lon="8.1543557"><ele>302.0</ele><time>2026-04-18T08:37:36.183Z</time></trkpt><trkpt lat="45.1244976" lon="8.1544046"><ele>302.00000000000006</ele><time>2026-04-18T08:37:37.183Z</time></trkpt><trkpt lat="45.124555" lon="8.1544523"><ele>302.0</ele><time>2026-04-18T08:37:38.184Z</time></trkpt><trkpt lat="45.124616" lon="8.1545046"><ele>302.0</ele><time>2026-04-18T08:37:39.183Z</time></trkpt><trkpt lat="45.1246724" lon="8.1545631"><ele>302.0</ele><time>2026-04-18T08:37:40.183Z</time></trkpt><trkpt lat="45.124763" lon="8.1546922"><ele>302.0</ele><time>2026-04-18T08:37:42.183Z</time></trkpt><trkpt lat="45.1248121" lon="8.1547664"><ele>302.0</ele><time>2026-04-18T08:37:43.183Z</time></trkpt><trkpt lat="45.1248576" lon="8.154832"><ele>302.0</ele><time>2026-04-18T08:37:44.183Z</time></trkpt><trkpt lat="45.1249073" lon="8.1548985"><ele>302.0</ele><time>2026-04-18T08:37:45.183Z</time></trkpt><trkpt lat="45.1249574" lon="8.1549623"><ele>301.33333333333337</ele><time>2026-04-18T08:37:46.183Z</time></trkpt><trkpt lat="45.1250619" lon="8.1550444"><ele>300.6666666666667</ele><time>2026-04-18T08:37:48.183Z</time></trkpt><trkpt lat="45.1251324" lon="8.1550554"><ele>300.0</ele><time>2026-04-18T08:37:49.183Z</time></trkpt><trkpt lat="45.1252192" lon="8.1550407"><ele>299.3333333333333</ele><time>2026-04-18T08:37:50.183Z</time></trkpt><trkpt lat="45.1252964" lon="8.1550284"><ele>298.66666666666663</ele><time>2026-04-18T08:37:51.184Z</time></trkpt><trkpt lat="45.1253742" lon="8.1550241"><ele>298.0</ele><time>2026-04-18T08:37:52.183Z</time></trkpt><trkpt lat="45.125437" lon="8.1550416"><ele>298.0</ele><time>2026-04-18T08:37:53.183Z</time></trkpt><trkpt lat="45.1255012" lon="8.1550696"><ele>298.0</ele><time>2026-04-18T08:37:54.183Z</time></trkpt><trkpt lat="45.1255613" lon="8.1551019"><ele>298.0</ele><time>2026-04-18T08:37:55.183Z</time></trkpt><trkpt lat="45.1256209" lon="8.1551385"><ele>298.0</ele><time>2026-04-18T08:37:56.183Z</time></trkpt><trkpt lat="45.1256835" lon="8.1551832"><ele>298.0</ele><time>2026-04-18T08:37:57.184Z</time></trkpt><trkpt lat="45.1257496" lon="8.1552356"><ele>298.0</ele><time>2026-04-18T08:37:58.183Z</time></trkpt><trkpt lat="45.1258106" lon="8.1552844"><ele>298.0</ele><time>2026-04-18T08:37:59.183Z</time></trkpt><trkpt lat="45.1258773" lon="8.1553242"><ele>298.2857142857143</ele><time>2026-04-18T08:38:00.184Z</time></trkpt><trkpt lat="45.1259408" lon="8.1553658"><ele>298.57142857142856</ele><time>2026-04-18T08:38:01.183Z</time></trkpt><trkpt lat="45.1260063" lon="8.1554116"><ele>298.85714285714283</ele><time>2026-04-18T08:38:02.183Z</time></trkpt><trkpt lat="45.1260703" lon="8.155447"><ele>299.1428571428571</ele><time>2026-04-18T08:38:03.183Z</time></trkpt><trkpt lat="45.1261341" lon="8.1554746"><ele>299.42857142857144</ele><time>2026-04-18T08:38:04.183Z</time></trkpt><trkpt lat="45.1261978" lon="8.1555191"><ele>299.71428571428567</ele><time>2026-04-18T08:38:05.183Z</time></trkpt><trkpt lat="45.1262569" lon="8.1555622"><ele>300.0</ele><time>2026-04-18T08:38:06.183Z</time></trkpt><trkpt lat="45.1263711" lon="8.155639"><ele>299.99999999999994</ele><time>2026-04-18T08:38:08.183Z</time></trkpt><trkpt lat="45.1264338" lon="8.1556932"><ele>300.0</ele><time>2026-04-18T08:38:09.183Z</time></trkpt><trkpt lat="45.1264908" lon="8.155752"><ele>300.0</ele><time>2026-04-18T08:38:10.183Z</time></trkpt><trkpt lat="45.1265525" lon="8.1558293"><ele>300.0</ele><time>2026-04-18T08:38:11.183Z</time></trkpt><trkpt lat="45.126602" lon="8.1559097"><ele>300.0</ele><time>2026-04-18T08:38:12.183Z</time></trkpt><trkpt lat="45.1266462" lon="8.1559914"><ele>299.99999999999994</ele><time>2026-04-18T08:38:13.184Z</time></trkpt><trkpt lat="45.1266783" lon="8.1560717"><ele>300.0</ele><time>2026-04-18T08:38:14.183Z</time></trkpt><trkpt lat="45.1267118" lon="8.1561744"><ele>300.4285714285714</ele><time>2026-04-18T08:38:15.183Z</time></trkpt><trkpt lat="45.1267408" lon="8.1562683"><ele>300.85714285714283</ele><time>2026-04-18T08:38:16.183Z</time></trkpt><trkpt lat="45.126758" lon="8.1563708"><ele>301.2857142857143</ele><time>2026-04-18T08:38:17.182Z</time></trkpt><trkpt lat="45.1267775" lon="8.1564663"><ele>301.71428571428567</ele><time>2026-04-18T08:38:18.182Z</time></trkpt><trkpt lat="45.126799" lon="8.1565562"><ele>302.1428571428571</ele><time>2026-04-18T08:38:19.182Z</time></trkpt><trkpt lat="45.1268152" lon="8.1566556"><ele>302.57142857142856</ele><time>2026-04-18T08:38:20.182Z</time></trkpt><trkpt lat="45.1268353" lon="8.1567466"><ele>303.0</ele><time>2026-04-18T08:38:21.182Z</time></trkpt><trkpt lat="45.1268729" lon="8.1568325"><ele>303.3333333333333</ele><time>2026-04-18T08:38:22.182Z</time></trkpt><trkpt lat="45.1269258" lon="8.1569852"><ele>303.6666666666667</ele><time>2026-04-18T08:38:24.182Z</time></trkpt><trkpt lat="45.1269424" lon="8.157078"><ele>304.0</ele><time>2026-04-18T08:38:25.182Z</time></trkpt><trkpt lat="45.1269598" lon="8.1571771"><ele>304.33333333333337</ele><time>2026-04-18T08:38:26.182Z</time></trkpt><trkpt lat="45.1269818" lon="8.1572792"><ele>304.6666666666667</ele><time>2026-04-18T08:38:27.182Z</time></trkpt><trkpt lat="45.1270048" lon="8.1574004"><ele>305.0</ele><time>2026-04-18T08:38:28.182Z</time></trkpt><trkpt lat="45.1270314" lon="8.1575086"><ele>303.6666666666667</ele><time>2026-04-18T08:38:29.182Z</time></trkpt><trkpt lat="45.1270469" lon="8.1576281"><ele>302.33333333333337</ele><time>2026-04-18T08:38:30.182Z</time></trkpt><trkpt lat="45.1270629" lon="8.1577446"><ele>301.0</ele><time>2026-04-18T08:38:31.183Z</time></trkpt><trkpt lat="45.1270763" lon="8.1578597"><ele>299.6666666666667</ele><time>2026-04-18T08:38:32.182Z</time></trkpt><trkpt lat="45.1271049" lon="8.1579575"><ele>298.3333333333333</ele><time>2026-04-18T08:38:33.182Z</time></trkpt><trkpt lat="45.1271398" lon="8.1580344"><ele>297.0</ele><time>2026-04-18T08:38:34.182Z</time></trkpt><trkpt lat="45.1272076" lon="8.1581719"><ele>296.8333333333333</ele><time>2026-04-18T08:38:36.182Z</time></trkpt><trkpt lat="45.1272583" lon="8.1582513"><ele>296.6666666666667</ele><time>2026-04-18T08:38:38.182Z</time></trkpt><trkpt lat="45.1273002" lon="8.1583182"><ele>296.5</ele><time>2026-04-18T08:38:47.182Z</time></trkpt><trkpt lat="45.1273604" lon="8.1584085"><ele>296.33333333333337</ele><time>2026-04-18T08:38:49.182Z</time></trkpt><trkpt lat="45.1274128" lon="8.1584774"><ele>296.1666666666667</ele><time>2026-04-18T08:38:51.182Z</time></trkpt><trkpt lat="45.1273462" lon="8.1583991"><ele>296.0</ele><time>2026-04-18T08:39:06.182Z</time></trkpt><trkpt lat="45.1272827" lon="8.158321"><ele>296.0</ele><time>2026-04-18T08:39:09.182Z</time></trkpt><trkpt lat="45.1272222" lon="8.1582922"><ele>296.0</ele><time>2026-04-18T08:39:13.183Z</time></trkpt><trkpt lat="45.1271333" lon="8.1583322"><ele>296.0</ele><time>2026-04-18T08:39:16.182Z</time></trkpt><trkpt lat="45.1270467" lon="8.1583958"><ele>296.0</ele><time>2026-04-18T08:39:18.182Z</time></trkpt><trkpt lat="45.1269797" lon="8.1584612"><ele>296.0</ele><time>2026-04-18T08:39:20.182Z</time></trkpt><trkpt lat="45.1269222" lon="8.1585155"><ele>296.0</ele><time>2026-04-18T08:39:22.182Z</time></trkpt><trkpt lat="45.1268504" lon="8.158605"><ele>296.0</ele><time>2026-04-18T08:39:25.182Z</time></trkpt><trkpt lat="45.1267937" lon="8.1586563"><ele>296.0</ele><time>2026-04-18T08:39:28.182Z</time></trkpt><trkpt lat="45.126706" lon="8.1587249"><ele>296.0</ele><time>2026-04-18T08:39:31.182Z</time></trkpt><trkpt lat="45.1266322" lon="8.1587656"><ele>296.0</ele><time>2026-04-18T08:39:33.182Z</time></trkpt><trkpt lat="45.1265452" lon="8.1588139"><ele>296.0</ele><time>2026-04-18T08:39:36.183Z</time></trkpt><trkpt lat="45.1264639" lon="8.158865"><ele>296.0</ele><time>2026-04-18T08:39:39.183Z</time></trkpt><trkpt lat="45.1264032" lon="8.1589"><ele>293.6666666666667</ele><time>2026-04-18T08:39:42.182Z</time></trkpt><trkpt lat="45.1263232" lon="8.1589381"><ele>291.33333333333337</ele><time>2026-04-18T08:39:45.182Z</time></trkpt><trkpt lat="45.1262514" lon="8.1589751"><ele>289.0</ele><time>2026-04-18T08:39:47.182Z</time></trkpt><trkpt lat="45.1262015" lon="8.1590301"><ele>286.6666666666667</ele><time>2026-04-18T08:39:49.182Z</time></trkpt><trkpt lat="45.1261488" lon="8.1591196"><ele>284.3333333333333</ele><time>2026-04-18T08:39:53.182Z</time></trkpt><trkpt lat="45.1260878" lon="8.1591797"><ele>282.0</ele><time>2026-04-18T08:39:57.182Z</time></trkpt><trkpt lat="45.1260232" lon="8.1592391"><ele>282.0</ele><time>2026-04-18T08:40:00.183Z</time></trkpt><trkpt lat="45.1260583" lon="8.1593503"><ele>282.0</ele><time>2026-04-18T08:40:03.183Z</time></trkpt><trkpt lat="45.1261226" lon="8.159396"><ele>282.0</ele><time>2026-04-18T08:40:05.182Z</time></trkpt><trkpt lat="45.1261759" lon="8.1594485"><ele>282.0</ele><time>2026-04-18T08:40:07.182Z</time></trkpt><trkpt lat="45.12624" lon="8.1594921"><ele>282.0</ele><time>2026-04-18T08:40:09.183Z</time></trkpt><trkpt lat="45.1262903" lon="8.1595526"><ele>282.0</ele><time>2026-04-18T08:40:11.182Z</time></trkpt><trkpt lat="45.1263038" lon="8.1596493"><ele>282.0</ele><time>2026-04-18T08:40:16.182Z</time></trkpt><trkpt lat="45.1262784" lon="8.1597416"><ele>282.0</ele><time>2026-04-18T08:40:21.182Z</time></trkpt><trkpt lat="45.1262525" lon="8.159837"><ele>282.0</ele><time>2026-04-18T08:40:29.182Z</time></trkpt><trkpt lat="45.1262418" lon="8.15993"><ele>282.0</ele><time>2026-04-18T08:40:35.182Z</time></trkpt><trkpt lat="45.1262096" lon="8.1600212"><ele>282.0</ele><time>2026-04-18T08:40:39.182Z</time></trkpt><trkpt lat="45.1261924" lon="8.1601106"><ele>282.0</ele><time>2026-04-18T08:40:42.182Z</time></trkpt><trkpt lat="45.126185" lon="8.1602155"><ele>282.0</ele><time>2026-04-18T08:40:45.183Z</time></trkpt><trkpt lat="45.1261986" lon="8.1603222"><ele>282.0</ele><time>2026-04-18T08:40:48.182Z</time></trkpt><trkpt lat="45.1226784" lon="8.1520658"><ele>284.0</ele><time>2026-04-18T08:36:48.183Z</time></trkpt><trkpt lat="45.1227604" lon="8.1520544"><ele>286.0</ele><time>2026-04-18T08:36:51.183Z</time></trkpt><trkpt lat="45.1228485" lon="8.1521159"><ele>288.0</ele><time>2026-04-18T08:36:53.183Z</time></trkpt><trkpt lat="45.1229317" lon="8.1522047"><ele>290.0</ele><time>2026-04-18T08:36:55.183Z</time></trkpt><trkpt lat="45.1230193" lon="8.1522968"><ele>292.0</ele><time>2026-04-18T08:36:57.183Z</time></trkpt><trkpt lat="45.1231097" lon="8.1523925"><ele>292.0</ele><time>2026-04-18T08:36:59.183Z</time></trkpt><trkpt lat="45.123168" lon="8.1525154"><ele>292.0</ele><time>2026-04-18T08:37:01.183Z</time></trkpt><trkpt lat="45.1232142" lon="8.1526704"><ele>292.0</ele><time>2026-04-18T08:37:03.183Z</time></trkpt><trkpt lat="45.1232687" lon="8.1528171"><ele>292.0</ele><time>2026-04-18T08:37:05.183Z</time></trkpt><trkpt lat="45.1232991" lon="8.152931"><ele>292.0</ele><time>2026-04-18T08:37:07.183Z</time></trkpt><trkpt lat="45.1233135" lon="8.1530562"><ele>292.6</ele><time>2026-04-18T08:37:09.183Z</time></trkpt><trkpt lat="45.1233068" lon="8.1531863"><ele>293.2</ele><time>2026-04-18T08:37:11.183Z</time></trkpt><trkpt lat="45.1232916" lon="8.1533278"><ele>293.8</ele><time>2026-04-18T08:37:13.183Z</time></trkpt><trkpt lat="45.1233335" lon="8.1534735"><ele>294.4</ele><time>2026-04-18T08:37:15.183Z</time></trkpt><trkpt lat="45.1234058" lon="8.153577"><ele>295.0</ele><time>2026-04-18T08:37:17.184Z</time></trkpt><trkpt lat="45.1235189" lon="8.153653"><ele>296.16666666666663</ele><time>2026-04-18T08:37:19.183Z</time></trkpt><trkpt lat="45.1235869" lon="8.1536792"><ele>297.3333333333333</ele><time>2026-04-18T08:37:20.183Z</time></trkpt><trkpt lat="45.1236473" lon="8.1537189"><ele>298.5</ele><time>2026-04-18T08:37:21.183Z</time></trkpt><trkpt lat="45.1237591" lon="8.1537991"><ele>299.6666666666667</ele><time>2026-04-18T08:37:23.183Z</time></trkpt><trkpt lat="45.1238104" lon="8.1538547"><ele>300.83333333333337</ele><time>2026-04-18T08:37:24.183Z</time></trkpt><trkpt lat="45.1238948" lon="8.1539467"><ele>302.0</ele><time>2026-04-18T08:37:26.183Z</time></trkpt><trkpt lat="45.1239726" lon="8.154018"><ele>302.0</ele><time>2026-04-18T08:37:28.183Z</time></trkpt><trkpt lat="45.1240503" lon="8.1540947"><ele>302.0</ele><time>2026-04-18T08:37:30.183Z</time></trkpt><trkpt lat="45.1241694" lon="8.1541765"><ele>302.0</ele><time>2026-04-18T08:37:32.183Z</time></trkpt><trkpt lat="45.1242325" lon="8.1542192"><ele>302.0</ele><time>2026-04-18T08:37:33.184Z</time></trkpt><trkpt lat="45.1242963" lon="8.1542605"><ele>302.0</ele><time>2026-04-18T08:37:34.183Z</time></trkpt><trkpt lat="45.1243609" lon="8.154304"><ele>302.0</ele><time>2026-04-18T08:37:35.184Z</time></trkpt><trkpt lat="45.1244268" lon="8.1543557"><ele>302.0</ele><time>2026-04-18T08:37:36.183Z</time></trkpt><trkpt lat="45.1244976" lon="8.1544046"><ele>302.0</ele><time>2026-04-18T08:37:37.183Z</time></trkpt><trkpt lat="45.124555" lon="8.1544523"><ele>302.0</ele><time>2026-04-18T08:37:38.184Z</time></trkpt><trkpt lat="45.124616" lon="8.1545046"><ele>302.0</ele><time>2026-04-18T08:37:39.183Z</time></trkpt><trkpt lat="45.1246724" lon="8.1545631"><ele>302.0</ele><time>2026-04-18T08:37:40.183Z</time></trkpt><trkpt lat="45.124763" lon="8.1546922"><ele>302.0</ele><time>2026-04-18T08:37:42.183Z</time></trkpt><trkpt lat="45.1248121" lon="8.1547664"><ele>302.0</ele><time>2026-04-18T08:37:43.183Z</time></trkpt><trkpt lat="45.1248576" lon="8.154832"><ele>302.0</ele><time>2026-04-18T08:37:44.183Z</time></trkpt><trkpt lat="45.1249073" lon="8.1548985"><ele>302.0</ele><time>2026-04-18T08:37:45.183Z</time></trkpt><trkpt lat="45.1249574" lon="8.1549623"><ele>302.0</ele><time>2026-04-18T08:37:46.183Z</time></trkpt><trkpt lat="45.1250619" lon="8.1550444"><ele>302.0</ele><time>2026-04-18T08:37:48.183Z</time></trkpt><trkpt lat="45.1251324" lon="8.1550554"><ele>302.0</ele><time>2026-04-18T08:37:49.183Z</time></trkpt><trkpt lat="45.1252192" lon="8.1550407"><ele>301.42857142857144</ele><time>2026-04-18T08:37:50.183Z</time></trkpt><trkpt lat="45.1252964" lon="8.1550284"><ele>300.8571428571429</ele><time>2026-04-18T08:37:51.184Z</time></trkpt><trkpt lat="45.1253742" lon="8.1550241"><ele>300.2857142857143</ele><time>2026-04-18T08:37:52.183Z</time></trkpt><trkpt lat="45.125437" lon="8.1550416"><ele>299.7142857142857</ele><time>2026-04-18T08:37:53.183Z</time></trkpt><trkpt lat="45.1255012" lon="8.1550696"><ele>299.1428571428571</ele><time>2026-04-18T08:37:54.183Z</time></trkpt><trkpt lat="45.1255613" lon="8.1551019"><ele>298.57142857142856</ele><time>2026-04-18T08:37:55.183Z</time></trkpt><trkpt lat="45.1256209" lon="8.1551385"><ele>298.0</ele><time>2026-04-18T08:37:56.183Z</time></trkpt><trkpt lat="45.1256835" lon="8.1551832"><ele>298.2857142857143</ele><time>2026-04-18T08:37:57.184Z</time></trkpt><trkpt lat="45.1257496" lon="8.1552356"><ele>298.57142857142856</ele><time>2026-04-18T08:37:58.183Z</time></trkpt><trkpt lat="45.1258106" lon="8.1552844"><ele>298.85714285714283</ele><time>2026-04-18T08:37:59.183Z</time></trkpt><trkpt lat="45.1258773" lon="8.1553242"><ele>299.1428571428571</ele><time>2026-04-18T08:38:00.184Z</time></trkpt><trkpt lat="45.1259408" lon="8.1553658"><ele>299.42857142857144</ele><time>2026-04-18T08:38:01.183Z</time></trkpt><trkpt lat="45.1260063" lon="8.1554116"><ele>299.71428571428567</ele><time>2026-04-18T08:38:02.183Z</time></trkpt><trkpt lat="45.1260703" lon="8.155447"><ele>300.0</ele><time>2026-04-18T08:38:03.183Z</time></trkpt><trkpt lat="45.1261341" lon="8.1554746"><ele>300.0</ele><time>2026-04-18T08:38:04.183Z</time></trkpt><trkpt lat="45.1261978" lon="8.1555191"><ele>300.0</ele><time>2026-04-18T08:38:05.183Z</time></trkpt><trkpt lat="45.1262569" lon="8.1555622"><ele>300.0</ele><time>2026-04-18T08:38:06.183Z</time></trkpt><trkpt lat="45.1263711" lon="8.155639"><ele>300.0</ele><time>2026-04-18T08:38:08.183Z</time></trkpt><trkpt lat="45.1264338" lon="8.1556932"><ele>300.0</ele><time>2026-04-18T08:38:09.183Z</time></trkpt><trkpt lat="45.1264908" lon="8.155752"><ele>300.0</ele><time>2026-04-18T08:38:10.183Z</time></trkpt><trkpt lat="45.1265525" lon="8.1558293"><ele>300.4285714285714</ele><time>2026-04-18T08:38:11.183Z</time></trkpt><trkpt lat="45.126602" lon="8.1559097"><ele>300.85714285714283</ele><time>2026-04-18T08:38:12.183Z</time></trkpt><trkpt lat="45.1266462" lon="8.1559914"><ele>301.2857142857143</ele><time>2026-04-18T08:38:13.184Z</time></trkpt><trkpt lat="45.1266783" lon="8.1560717"><ele>301.71428571428567</ele><time>2026-04-18T08:38:14.183Z</time></trkpt><trkpt lat="45.1267118" lon="8.1561744"><ele>302.1428571428571</ele><time>2026-04-18T08:38:15.183Z</time></trkpt><trkpt lat="45.1267408" lon="8.1562683"><ele>302.57142857142856</ele><time>2026-04-18T08:38:16.183Z</time></trkpt><trkpt lat="45.126758" lon="8.1563708"><ele>303.0</ele><time>2026-04-18T08:38:17.182Z</time></trkpt><trkpt lat="45.1267775" lon="8.1564663"><ele>303.3333333333333</ele><time>2026-04-18T08:38:18.182Z</time></trkpt><trkpt lat="45.126799" lon="8.1565562"><ele>303.6666666666667</ele><time>2026-04-18T08:38:19.182Z</time></trkpt><trkpt lat="45.1268152" lon="8.1566556"><ele>304.0</ele><time>2026-04-18T08:38:20.182Z</time></trkpt><trkpt lat="45.1268353" lon="8.1567466"><ele>304.33333333333337</ele><time>2026-04-18T08:38:21.182Z</time></trkpt><trkpt lat="45.1268729" lon="8.1568325"><ele>304.6666666666667</ele><time>2026-04-18T08:38:22.182Z</time></trkpt><trkpt lat="45.1269258" lon="8.1569852"><ele>305.0</ele><time>2026-04-18T08:38:24.182Z</time></trkpt><trkpt lat="45.1269424" lon="8.157078"><ele>305.0</ele><time>2026-04-18T08:38:25.182Z</time></trkpt><trkpt lat="45.1269598" lon="8.1571771"><ele>305.0</ele><time>2026-04-18T08:38:26.182Z</time></trkpt><trkpt lat="45.1269818" lon="8.1572792"><ele>305.0</ele><time>2026-04-18T08:38:27.182Z</time></trkpt><trkpt lat="45.1270048" lon="8.1574004"><ele>305.0</ele><time>2026-04-18T08:38:28.182Z</time></trkpt><trkpt lat="45.1270314" lon="8.1575086"><ele>305.0</ele><time>2026-04-18T08:38:29.182Z</time></trkpt><trkpt lat="45.1270469" lon="8.1576281"><ele>305.0</ele><time>2026-04-18T08:38:30.182Z</time></trkpt><trkpt lat="45.1270629" lon="8.1577446"><ele>303.6666666666667</ele><time>2026-04-18T08:38:31.183Z</time></trkpt><trkpt lat="45.1270763" lon="8.1578597"><ele>302.33333333333337</ele><time>2026-04-18T08:38:32.182Z</time></trkpt><trkpt lat="45.1271049" lon="8.1579575"><ele>301.0</ele><time>2026-04-18T08:38:33.182Z</time></trkpt><trkpt lat="45.1271398" lon="8.1580344"><ele>299.6666666666667</ele><time>2026-04-18T08:38:34.182Z</time></trkpt><trkpt lat="45.1272076" lon="8.1581719"><ele>298.3333333333333</ele><time>2026-04-18T08:38:36.182Z</time></trkpt><trkpt lat="45.1272583" lon="8.1582513"><ele>297.0</ele><time>2026-04-18T08:38:38.182Z</time></trkpt><trkpt lat="45.1273002" lon="8.1583182"><ele>296.8333333333333</ele><time>2026-04-18T08:38:47.182Z</time></trkpt><trkpt lat="45.1273604" lon="8.1584085"><ele>296.6666666666667</ele><time>2026-04-18T08:38:49.182Z</time></trkpt><trkpt lat="45.1274128" lon="8.1584774"><ele>296.5</ele><time>2026-04-18T08:38:51.182Z</time></trkpt><trkpt lat="45.1273462" lon="8.1583991"><ele>296.33333333333337</ele><time>2026-04-18T08:39:06.182Z</time></trkpt><trkpt lat="45.1272827" lon="8.158321"><ele>296.1666666666667</ele><time>2026-04-18T08:39:09.182Z</time></trkpt><trkpt lat="45.1272222" lon="8.1582922"><ele>296.0</ele><time>2026-04-18T08:39:13.183Z</time></trkpt><trkpt lat="45.1271333" lon="8.1583322"><ele>296.0</ele><time>2026-04-18T08:39:16.182Z</time></trkpt><trkpt lat="45.1270467" lon="8.1583958"><ele>296.0</ele><time>2026-04-18T08:39:18.182Z</time></trkpt><trkpt lat="45.1269797" lon="8.1584612"><ele>296.0</ele><time>2026-04-18T08:39:20.182Z</time></trkpt><trkpt lat="45.1269222" lon="8.1585155"><ele>296.0</ele><time>2026-04-18T08:39:22.182Z</time></trkpt><trkpt lat="45.1268504" lon="8.158605"><ele>296.0</ele><time>2026-04-18T08:39:25.182Z</time></trkpt><trkpt lat="45.1267937" lon="8.1586563"><ele>296.0</ele><time>2026-04-18T08:39:28.182Z</time></trkpt><trkpt lat="45.126706" lon="8.1587249"><ele>296.0</ele><time>2026-04-18T08:39:31.182Z</time></trkpt><trkpt lat="45.1266322" lon="8.1587656"><ele>296.0</ele><time>2026-04-18T08:39:33.182Z</time></trkpt><trkpt lat="45.1265452" lon="8.1588139"><ele>296.0</ele><time>2026-04-18T08:39:36.183Z</time></trkpt><trkpt lat="45.1264639" lon="8.158865"><ele>296.0</ele><time>2026-04-18T08:39:39.183Z</time></trkpt><trkpt lat="45.1264032" lon="8.1589"><ele>296.0</ele><time>2026-04-18T08:39:42.182Z</time></trkpt><trkpt lat="45.1263232" lon="8.1589381"><ele>296.0</ele><time>2026-04-18T08:39:45.182Z</time></trkpt><trkpt lat="45.1262514" lon="8.1589751"><ele>293.6666666666667</ele><time>2026-04-18T08:39:47.182Z</time></trkpt><trkpt lat="45.1262015" lon="8.1590301"><ele>291.33333333333337</ele><time>2026-04-18T08:39:49.182Z</time></trkpt><trkpt lat="45.1261488" lon="8.1591196"><ele>289.0</ele><time>2026-04-18T08:39:53.182Z</time></trkpt><trkpt lat="45.1260878" lon="8.1591797"><ele>286.6666666666667</ele><time>2026-04-18T08:39:57.182Z</time></trkpt><trkpt lat="45.1260232" lon="8.1592391"><ele>284.3333333333333</ele><time>2026-04-18T08:40:00.183Z</time></trkpt><trkpt lat="45.1260583" lon="8.1593503"><ele>282.0</ele><time>2026-04-18T08:40:03.183Z</time></trkpt><trkpt lat="45.1261226" lon="8.159396"><ele>282.0</ele><time>2026-04-18T08:40:05.182Z</time></trkpt><trkpt lat="45.1261759" lon="8.1594485"><ele>282.0</ele><time>2026-04-18T08:40:07.182Z</time></trkpt><trkpt lat="45.12624" lon="8.1594921"><ele>282.0</ele><time>2026-04-18T08:40:09.183Z</time></trkpt><trkpt lat="45.1262903" lon="8.1595526"><ele>282.0</ele><time>2026-04-18T08:40:11.182Z</time></trkpt><trkpt lat="45.1263038" lon="8.1596493"><ele>282.0</ele><time>2026-04-18T08:40:16.182Z</time></trkpt><trkpt lat="45.1262784" lon="8.1597416"><ele>282.0</ele><time>2026-04-18T08:40:21.182Z</time></trkpt><trkpt lat="45.1262525" lon="8.159837"><ele>282.0</ele><time>2026-04-18T08:40:29.182Z</time></trkpt><trkpt lat="45.1262418" lon="8.15993"><ele>280.7142857142857</ele><time>2026-04-18T08:40:35.182Z</time></trkpt><trkpt lat="45.1262096" lon="8.1600212"><ele>279.42857142857144</ele><time>2026-04-18T08:40:39.182Z</time></trkpt><trkpt lat="45.1261924" lon="8.1601106"><ele>278.1428571428571</ele><time>2026-04-18T08:40:42.182Z</time></trkpt><trkpt lat="45.126185" lon="8.1602155"><ele>276.8571428571429</ele><time>2026-04-18T08:40:45.183Z</time></trkpt><trkpt lat="45.1261986" lon="8.1603222"><ele>275.57142857142856</ele><time>2026-04-18T08:40:48.182Z</time></trkpt><trkpt lat="45.1261722" lon="8.1604057"><ele>274.2857142857143</ele><time>2026-04-18T08:40:50.183Z</time></trkpt><trkpt lat="45.1261184" lon="8.1604811"><ele>273.0</ele><time>2026-04-18T08:40:53.182Z</time></trkpt><trkpt lat="45.1260371" lon="8.1605313"><ele>273.0</ele><time>2026-04-18T08:40:56.182Z</time></trkpt><trkpt lat="45.1259755" lon="8.160565"><ele>273.0</ele><time>2026-04-18T08:40:58.182Z</time></trkpt><trkpt lat="45.1259098" lon="8.160603"><ele>273.0</ele><time>2026-04-18T08:41:01.182Z</time></trkpt><trkpt lat="45.1258404" lon="8.1606254"><ele>273.0</ele><time>2026-04-18T08:41:05.182Z</time></trkpt><trkpt lat="45.1257878" lon="8.1606798"><ele>273.0</ele><time>2026-04-18T08:41:09.182Z</time></trkpt><trkpt lat="45.125713" lon="8.1607406"><ele>273.0</ele><time>2026-04-18T08:41:13.182Z</time></trkpt><trkpt lat="45.1256384" lon="8.1608156"><ele>270.14285714285717</ele><time>2026-04-18T08:41:16.183Z</time></trkpt><trkpt lat="45.1255856" lon="8.160874"><ele>267.2857142857143</ele><time>2026-04-18T08:41:18.183Z</time></trkpt><trkpt lat="45.1255195" lon="8.160949"><ele>264.42857142857144</ele><time>2026-04-18T08:41:20.182Z</time></trkpt><trkpt lat="45.1254569" lon="8.1610234"><ele>261.57142857142856</ele><time>2026-04-18T08:41:22.182Z</time></trkpt><trkpt lat="45.1253996" lon="8.1610926"><ele>258.7142857142857</ele><time>2026-04-18T08:41:24.182Z</time></trkpt><trkpt lat="45.1253481" lon="8.161157"><ele>255.8571428571429</ele><time>2026-04-18T08:41:26.182Z</time></trkpt><trkpt lat="45.1253018" lon="8.1612318"><ele>253.00000000000003</ele><time>2026-04-18T08:41:28.182Z</time></trkpt><trkpt lat="45.1252608" lon="8.1613013"><ele>252.99999999999997</ele><time>2026-04-18T08:41:30.182Z</time></trkpt><trkpt lat="45.1252046" lon="8.1613585"><ele>253.0</ele><time>2026-04-18T08:41:32.182Z</time></trkpt><trkpt lat="45.1251399" lon="8.1613724"><ele>253.0</ele><time>2026-04-18T08:41:35.182Z</time></trkpt><trkpt lat="45.1250687" lon="8.1613282"><ele>253.0</ele><time>2026-04-18T08:41:38.182Z</time></trkpt><trkpt lat="45.1249892" lon="8.1612715"><ele>252.99999999999997</ele><time>2026-04-18T08:41:41.182Z</time></trkpt><trkpt lat="45.1249065" lon="8.1612726"><ele>253.0</ele><time>2026-04-18T08:41:44.182Z</time></trkpt><trkpt lat="45.1248404" lon="8.1612819"><ele>252.71428571428575</ele><time>2026-04-18T08:41:46.182Z</time></trkpt><trkpt lat="45.1247743" lon="8.161306"><ele>252.42857142857144</ele><time>2026-04-18T08:41:48.183Z</time></trkpt><trkpt lat="45.1247147" lon="8.1613359"><ele>252.14285714285714</ele><time>2026-04-18T08:41:50.182Z</time></trkpt><trkpt lat="45.1246399" lon="8.1614004"><ele>251.85714285714286</ele><time>2026-04-18T08:41:53.182Z</time></trkpt><trkpt lat="45.1245798" lon="8.161453"><ele>251.57142857142856</ele><time>2026-04-18T08:41:55.182Z</time></trkpt><trkpt lat="45.1245077" lon="8.1614834"><ele>251.28571428571425</ele><time>2026-04-18T08:41:57.182Z</time></trkpt><trkpt lat="45.1244424" lon="8.161525"><ele>250.99999999999997</ele><time>2026-04-18T08:41:59.182Z</time></trkpt><trkpt lat="45.1243674" lon="8.1615518"><ele>250.00000000000003</ele><time>2026-04-18T08:42:01.182Z</time></trkpt><trkpt lat="45.1242844" lon="8.1615809"><ele>249.0</ele><time>2026-04-18T08:42:03.182Z</time></trkpt><trkpt lat="45.124209" lon="8.1616133"><ele>248.0</ele><time>2026-04-18T08:42:05.182Z</time></trkpt><trkpt lat="45.1241382" lon="8.1616384"><ele>247.0</ele><time>2026-04-18T08:42:07.182Z</time></trkpt><trkpt lat="45.1240512" lon="8.1616838"><ele>246.00000000000003</ele><time>2026-04-18T08:42:09.182Z</time></trkpt><trkpt lat="45.1239704" lon="8.1617325"><ele>245.0</ele><time>2026-04-18T08:42:11.182Z</time></trkpt><trkpt lat="45.1238946" lon="8.1617991"><ele>242.8</ele><time>2026-04-18T08:42:13.182Z</time></trkpt><trkpt lat="45.1238223" lon="8.1618816"><ele>240.6</ele><time>2026-04-18T08:42:15.182Z</time></trkpt><trkpt lat="45.123773" lon="8.1619726"><ele>238.39999999999998</ele><time>2026-04-18T08:42:17.182Z</time></trkpt><trkpt lat="45.1237137" lon="8.1620787"><ele>236.2</ele><time>2026-04-18T08:42:19.182Z</time></trkpt><trkpt lat="45.1236756" lon="8.1621976"><ele>234.0</ele><time>2026-04-18T08:42:21.182Z</time></trkpt><trkpt lat="45.1236361" lon="8.1623098"><ele>233.16666666666666</ele><time>2026-04-18T08:42:23.182Z</time></trkpt><trkpt lat="45.1235845" lon="8.1624124"><ele>232.33333333333331</ele><time>2026-04-18T08:42:25.182Z</time></trkpt><trkpt lat="45.1235684" lon="8.1625232"><ele>231.5</ele><time>2026-04-18T08:42:27.182Z</time></trkpt><trkpt lat="45.1236155" lon="8.1626172"><ele>230.66666666666666</ele><time>2026-04-18T08:42:29.183Z</time></trkpt><trkpt lat="45.1236617" lon="8.1627135"><ele>229.83333333333331</ele><time>2026-04-18T08:42:31.183Z</time></trkpt><trkpt lat="45.1237058" lon="8.1628164"><ele>229.0</ele><time>2026-04-18T08:42:33.182Z</time></trkpt><trkpt lat="45.1237409" lon="8.1629061"><ele>229.0</ele><time>2026-04-18T08:42:35.182Z</time></trkpt><trkpt lat="45.1237549" lon="8.1630135"><ele>228.99999999999997</ele><time>2026-04-18T08:42:37.182Z</time></trkpt><trkpt lat="45.1237451" lon="8.1631416"><ele>228.99999999999997</ele><time>2026-04-18T08:42:39.182Z</time></trkpt><trkpt lat="45.1237124" lon="8.1632589"><ele>229.0</ele><time>2026-04-18T08:42:41.182Z</time></trkpt><trkpt lat="45.1236788" lon="8.163386"><ele>229.0</ele><time>2026-04-18T08:42:43.182Z</time></trkpt><trkpt lat="45.1236343" lon="8.1635364"><ele>227.79999999999998</ele><time>2026-04-18T08:42:45.182Z</time></trkpt><trkpt lat="45.1236127" lon="8.163671"><ele>226.59999999999997</ele><time>2026-04-18T08:42:47.182Z</time></trkpt><trkpt lat="45.1235953" lon="8.1637979"><ele>225.4</ele><time>2026-04-18T08:42:49.182Z</time></trkpt><trkpt lat="45.1235832" lon="8.1639336"><ele>224.2</ele><time>2026-04-18T08:42:51.182Z</time></trkpt><trkpt lat="45.1235594" lon="8.1640603"><ele>223.0</ele><time>2026-04-18T08:42:53.182Z</time></trkpt><trkpt lat="45.1235397" lon="8.1641891"><ele>222.16666666666666</ele><time>2026-04-18T08:42:55.182Z</time></trkpt><trkpt lat="45.1235159" lon="8.1643065"><ele>221.33333333333331</ele><time>2026-04-18T08:42:57.182Z</time></trkpt><trkpt lat="45.1234786" lon="8.1644379"><ele>220.5</ele><time>2026-04-18T08:42:59.183Z</time></trkpt><trkpt lat="45.1234509" lon="8.1645368"><ele>219.66666666666669</ele><time>2026-04-18T08:43:01.182Z</time></trkpt><trkpt lat="45.1234054" lon="8.1646385"><ele>218.83333333333334</ele><time>2026-04-18T08:43:03.182Z</time></trkpt><trkpt lat="45.1233583" lon="8.1647412"><ele>218.0</ele><time>2026-04-18T08:43:05.182Z</time></trkpt><trkpt lat="45.123285" lon="8.1648427"><ele>217.66666666666669</ele><time>2026-04-18T08:43:07.183Z</time></trkpt><trkpt lat="45.1232287" lon="8.1649369"><ele>217.33333333333334</ele><time>2026-04-18T08:43:09.182Z</time></trkpt><trkpt lat="45.1232216" lon="8.1650344"><ele>217.0</ele><time>2026-04-18T08:43:11.182Z</time></trkpt><trkpt lat="45.1232889" lon="8.1651525"><ele>216.66666666666669</ele><time>2026-04-18T08:43:13.182Z</time></trkpt><trkpt lat="45.1233324" lon="8.1652244"><ele>216.33333333333334</ele><time>2026-04-18T08:43:14.182Z</time></trkpt><trkpt lat="45.123373" lon="8.1652927"><ele>216.0</ele><time>2026-04-18T08:43:15.182Z</time></trkpt><trkpt lat="45.1234408" lon="8.1654049"><ele>216.0</ele><time>2026-04-18T08:43:17.182Z</time></trkpt><trkpt lat="45.1234932" lon="8.1655189"><ele>216.0</ele><time>2026-04-18T08:43:19.182Z</time></trkpt><trkpt lat="45.1235715" lon="8.1656499"><ele>216.0</ele><time>2026-04-18T08:43:21.182Z</time></trkpt><trkpt lat="45.1236208" lon="8.1657098"><ele>216.0</ele><time>2026-04-18T08:43:22.182Z</time></trkpt><trkpt lat="45.1236783" lon="8.16576"><ele>216.0</ele><time>2026-04-18T08:43:23.182Z</time></trkpt><trkpt lat="45.1237401" lon="8.165802"><ele>216.0</ele><time>2026-04-18T08:43:24.182Z</time></trkpt><trkpt lat="45.1238126" lon="8.1658274"><ele>216.60000000000002</ele><time>2026-04-18T08:43:25.182Z</time></trkpt><trkpt lat="45.123888" lon="8.1658434"><ele>217.20000000000002</ele><time>2026-04-18T08:43:26.182Z</time></trkpt><trkpt lat="45.123966" lon="8.1658603"><ele>217.79999999999998</ele><time>2026-04-18T08:43:27.183Z</time></trkpt><trkpt lat="45.1240289" lon="8.1658803"><ele>218.39999999999998</ele><time>2026-04-18T08:43:28.182Z</time></trkpt><trkpt lat="45.1241526" lon="8.1659027"><ele>219.0</ele><time>2026-04-18T08:43:30.182Z</time></trkpt><trkpt lat="45.1242801" lon="8.1659061"><ele>219.79999999999998</ele><time>2026-04-18T08:43:32.182Z</time></trkpt><trkpt lat="45.1243975" lon="8.1659411"><ele>220.59999999999997</ele><time>2026-04-18T08:43:34.183Z</time></trkpt><trkpt lat="45.1245078" lon="8.1660216"><ele>221.4</ele><time>2026-04-18T08:43:36.182Z</time></trkpt><trkpt lat="45.1245591" lon="8.1660782"><ele>222.2</ele><time>2026-04-18T08:43:37.182Z</time></trkpt><trkpt lat="45.1246148" lon="8.1661345"><ele>223.0</ele><time>2026-04-18T08:43:38.182Z</time></trkpt><trkpt lat="45.1247076" lon="8.1662564"><ele>223.0</ele><time>2026-04-18T08:43:40.182Z</time></trkpt><trkpt lat="45.124758" lon="8.1663249"><ele>223.0</ele><time>2026-04-18T08:43:41.182Z</time></trkpt><trkpt lat="45.1248552" lon="8.1664352"><ele>223.0</ele><time>2026-04-18T08:43:43.182Z</time></trkpt><trkpt lat="45.1249488" lon="8.1664989"><ele>223.0</ele><time>2026-04-18T08:43:45.182Z</time></trkpt><trkpt lat="45.1250382" lon="8.1665267"><ele>223.0</ele><time>2026-04-18T08:43:47.182Z</time></trkpt><trkpt lat="45.125119" lon="8.1665513"><ele>224.33333333333331</ele><time>2026-04-18T08:43:49.183Z</time></trkpt><trkpt lat="45.1251885" lon="8.1665712"><ele>225.66666666666666</ele><time>2026-04-18T08:43:51.182Z</time></trkpt><trkpt lat="45.1252688" lon="8.1665781"><ele>227.0</ele><time>2026-04-18T08:43:53.182Z</time></trkpt><trkpt lat="45.1253409" lon="8.1665916"><ele>228.33333333333331</ele><time>2026-04-18T08:43:55.182Z</time></trkpt><trkpt lat="45.12541" lon="8.1666659"><ele>229.66666666666666</ele><time>2026-04-18T08:43:57.182Z</time></trkpt><trkpt lat="45.1254646" lon="8.1667796"><ele>231.0</ele><time>2026-04-18T08:43:59.182Z</time></trkpt><trkpt lat="45.1255002" lon="8.1668984"><ele>231.0</ele><time>2026-04-18T08:44:01.182Z</time></trkpt><trkpt lat="45.1255606" lon="8.1669682"><ele>231.0</ele><time>2026-04-18T08:44:03.182Z</time></trkpt><trkpt lat="45.1256373" lon="8.1669917"><ele>231.0</ele><time>2026-04-18T08:44:05.182Z</time></trkpt><trkpt lat="45.1257427" lon="8.1669777"><ele>231.0</ele><time>2026-04-18T08:44:07.182Z</time></trkpt><trkpt lat="45.1258213" lon="8.1669675"><ele>231.0</ele><time>2026-04-18T08:44:09.182Z</time></trkpt><trkpt lat="45.1258827" lon="8.1669342"><ele>231.0</ele><time>2026-04-18T08:44:11.182Z</time></trkpt><trkpt lat="45.125942" lon="8.1670183"><ele>231.8</ele><time>2026-04-18T08:44:14.182Z</time></trkpt><trkpt lat="45.1259567" lon="8.1671416"><ele>232.60000000000002</ele><time>2026-04-18T08:44:16.183Z</time></trkpt><trkpt lat="45.126001" lon="8.1672441"><ele>233.4</ele><time>2026-04-18T08:44:18.183Z</time></trkpt><trkpt lat="45.1260168" lon="8.1673812"><ele>234.2</ele><time>2026-04-18T08:44:20.182Z</time></trkpt><trkpt lat="45.1260201" lon="8.1675049"><ele>235.0</ele><time>2026-04-18T08:44:22.182Z</time></trkpt><trkpt lat="45.1260306" lon="8.1676512"><ele>235.0</ele><time>2026-04-18T08:44:24.182Z</time></trkpt><trkpt lat="45.1260929" lon="8.1677725"><ele>235.0</ele><time>2026-04-18T08:44:26.183Z</time></trkpt><trkpt lat="45.1261828" lon="8.1678756"><ele>235.0</ele><time>2026-04-18T08:44:28.182Z</time></trkpt><trkpt lat="45.1262403" lon="8.1679129"><ele>235.0</ele><time>2026-04-18T08:44:29.182Z</time></trkpt><trkpt lat="45.1263605" lon="8.1679916"><ele>235.0</ele><time>2026-04-18T08:44:31.183Z</time></trkpt><trkpt lat="45.1264345" lon="8.1680317"><ele>234.99999999999997</ele><time>2026-04-18T08:44:32.182Z</time></trkpt><trkpt lat="45.1265027" lon="8.1680663"><ele>235.0</ele><time>2026-04-18T08:44:33.183Z</time></trkpt><trkpt lat="45.1265617" lon="8.1680988"><ele>235.0</ele><time>2026-04-18T08:44:34.182Z</time></trkpt><trkpt lat="45.126669" lon="8.1681652"><ele>235.0</ele><time>2026-04-18T08:44:36.182Z</time></trkpt><trkpt lat="45.1267525" lon="8.1682269"><ele>234.99999999999997</ele><time>2026-04-18T08:44:38.183Z</time></trkpt><trkpt lat="45.1268415" lon="8.1682936"><ele>235.0</ele><time>2026-04-18T08:44:40.182Z</time></trkpt><trkpt lat="45.1269546" lon="8.1683625"><ele>233.66666666666666</ele><time>2026-04-18T08:44:42.183Z</time></trkpt><trkpt lat="45.1270256" lon="8.1684018"><ele>232.33333333333331</ele><time>2026-04-18T08:44:43.183Z</time></trkpt><trkpt lat="45.1270944" lon="8.1684423"><ele>231.0</ele><time>2026-04-18T08:44:44.182Z</time></trkpt><trkpt lat="45.1271647" lon="8.1684785"><ele>229.66666666666669</ele><time>2026-04-18T08:44:45.182Z</time></trkpt><trkpt lat="45.1272303" lon="8.1685177"><ele>228.33333333333334</ele><time>2026-04-18T08:44:46.182Z</time></trkpt><trkpt lat="45.1272899" lon="8.1685623"><ele>227.0</ele><time>2026-04-18T08:44:47.182Z</time></trkpt><trkpt lat="45.1273976" lon="8.1686477"><ele>229.0</ele><time>2026-04-18T08:44:49.183Z</time></trkpt><trkpt lat="45.1274851" lon="8.1687748"><ele>231.0</ele><time>2026-04-18T08:44:51.183Z</time></trkpt><trkpt lat="45.1275554" lon="8.1689057"><ele>233.0</ele><time>2026-04-18T08:44:53.182Z</time></trkpt><trkpt lat="45.1276285" lon="8.1690421"><ele>235.0</ele><time>2026-04-18T08:44:55.182Z</time></trkpt><trkpt lat="45.1277084" lon="8.1691899"><ele>235.0</ele><time>2026-04-18T08:44:57.183Z</time></trkpt><trkpt lat="45.1277459" lon="8.1692673"><ele>234.99999999999997</ele><time>2026-04-18T08:44:58.182Z</time></trkpt><trkpt lat="45.1277822" lon="8.1693483"><ele>235.0</ele><time>2026-04-18T08:44:59.183Z</time></trkpt><trkpt lat="45.1278096" lon="8.1694445"><ele>235.0</ele><time>2026-04-18T08:45:00.182Z</time></trkpt><trkpt lat="45.127821" lon="8.1695435"><ele>234.99999999999997</ele><time>2026-04-18T08:45:01.182Z</time></trkpt><trkpt lat="45.1278367" lon="8.1696357"><ele>235.0</ele><time>2026-04-18T08:45:02.182Z</time></trkpt><trkpt lat="45.1278561" lon="8.1697319"><ele>235.0</ele><time>2026-04-18T08:45:03.182Z</time></trkpt><trkpt lat="45.1278693" lon="8.1698192"><ele>232.0</ele><time>2026-04-18T08:45:04.182Z</time></trkpt><trkpt lat="45.1278826" lon="8.1699136"><ele>229.0</ele><time>2026-04-18T08:45:05.183Z</time></trkpt><trkpt lat="45.1279074" lon="8.1700727"><ele>226.0</ele><time>2026-04-18T08:45:07.182Z</time></trkpt><trkpt lat="45.127951" lon="8.1702247"><ele>223.0</ele><time>2026-04-18T08:45:09.182Z</time></trkpt><trkpt lat="45.1279811" lon="8.1703804"><ele>220.0</ele><time>2026-04-18T08:45:11.182Z</time></trkpt><trkpt lat="45.1280394" lon="8.1705109"><ele>220.0</ele><time>2026-04-18T08:45:13.182Z</time></trkpt><trkpt lat="45.128119" lon="8.1706156"><ele>220.0</ele><time>2026-04-18T08:45:15.182Z</time></trkpt><trkpt lat="45.1282152" lon="8.1706859"><ele>220.0</ele><time>2026-04-18T08:45:17.182Z</time></trkpt><trkpt lat="45.1283147" lon="8.1707197"><ele>220.0</ele><time>2026-04-18T08:45:19.182Z</time></trkpt><trkpt lat="45.1284122" lon="8.1707777"><ele>220.0</ele><time>2026-04-18T08:45:21.182Z</time></trkpt><trkpt lat="45.12847" lon="8.1708147"><ele>220.4</ele><time>2026-04-18T08:45:22.182Z</time></trkpt><trkpt lat="45.1285871" lon="8.1708926"><ele>220.8</ele><time>2026-04-18T08:45:24.183Z</time></trkpt><trkpt lat="45.1286974" lon="8.1709391"><ele>221.2</ele><time>2026-04-18T08:45:26.182Z</time></trkpt><trkpt lat="45.1287827" lon="8.1710232"><ele>221.6</ele><time>2026-04-18T08:45:28.182Z</time></trkpt><trkpt lat="45.1288184" lon="8.1711005"><ele>222.0</ele><time>2026-04-18T08:45:29.182Z</time></trkpt><trkpt lat="45.1288595" lon="8.1711767"><ele>222.0</ele><time>2026-04-18T08:45:30.183Z</time></trkpt><trkpt lat="45.1288945" lon="8.1712529"><ele>222.0</ele><time>2026-04-18T08:45:31.182Z</time></trkpt><trkpt lat="45.1289206" lon="8.1713354"><ele>222.0</ele><time>2026-04-18T08:45:32.182Z</time></trkpt><trkpt lat="45.1289903" lon="8.1714702"><ele>222.0</ele><time>2026-04-18T08:45:34.182Z</time></trkpt><trkpt lat="45.1290546" lon="8.1715979"><ele>222.0</ele><time>2026-04-18T08:45:36.182Z</time></trkpt><trkpt lat="45.1291217" lon="8.1717368"><ele>221.6</ele><time>2026-04-18T08:45:38.182Z</time></trkpt><trkpt lat="45.1291718" lon="8.1719015"><ele>221.2</ele><time>2026-04-18T08:45:40.182Z</time></trkpt><trkpt lat="45.1292349" lon="8.1720528"><ele>220.8</ele><time>2026-04-18T08:45:42.182Z</time></trkpt><trkpt lat="45.1292645" lon="8.1721366"><ele>220.4</ele><time>2026-04-18T08:45:43.182Z</time></trkpt><trkpt lat="45.1292899" lon="8.172305"><ele>220.0</ele><time>2026-04-18T08:45:45.182Z</time></trkpt><trkpt lat="45.1293181" lon="8.172437"><ele>218.0</ele><time>2026-04-18T08:45:47.183Z</time></trkpt><trkpt lat="45.1294005" lon="8.1725672"><ele>216.0</ele><time>2026-04-18T08:45:49.182Z</time></trkpt><trkpt lat="45.1294488" lon="8.1726262"><ele>214.0</ele><time>2026-04-18T08:45:50.182Z</time></trkpt><trkpt lat="45.1294913" lon="8.1726935"><ele>212.0</ele><time>2026-04-18T08:45:51.182Z</time></trkpt><trkpt lat="45.1295729" lon="8.1728232"><ele>210.0</ele><time>2026-04-18T08:45:53.182Z</time></trkpt><trkpt lat="45.129663" lon="8.1729464"><ele>210.0</ele><time>2026-04-18T08:45:55.182Z</time></trkpt><trkpt lat="45.129741" lon="8.1730666"><ele>210.0</ele><time>2026-04-18T08:45:57.182Z</time></trkpt><trkpt lat="45.1298062" lon="8.1732012"><ele>210.0</ele><time>2026-04-18T08:45:59.182Z</time></trkpt><trkpt lat="45.1298536" lon="8.1733335"><ele>210.0</ele><time>2026-04-18T08:46:01.182Z</time></trkpt><trkpt lat="45.1299068" lon="8.1734679"><ele>210.0</ele><time>2026-04-18T08:46:03.182Z</time></trkpt><trkpt lat="45.1299542" lon="8.1735944"><ele>210.2</ele><time>2026-04-18T08:46:05.182Z</time></trkpt><trkpt lat="45.1300237" lon="8.1736997"><ele>210.4</ele><time>2026-04-18T08:46:07.182Z</time></trkpt><trkpt lat="45.1301021" lon="8.1737849"><ele>210.60000000000002</ele><time>2026-04-18T08:46:09.181Z</time></trkpt><trkpt lat="45.1301702" lon="8.1738653"><ele>210.8</ele><time>2026-04-18T08:46:11.182Z</time></trkpt><trkpt lat="45.1302307" lon="8.1739459"><ele>211.0</ele><time>2026-04-18T08:46:13.181Z</time></trkpt><trkpt lat="45.130303" lon="8.1740492"><ele>208.60000000000002</ele><time>2026-04-18T08:46:15.182Z</time></trkpt><trkpt lat="45.1303743" lon="8.174167"><ele>206.2</ele><time>2026-04-18T08:46:17.182Z</time></trkpt><trkpt lat="45.1304554" lon="8.1742709"><ele>203.8</ele><time>2026-04-18T08:46:19.182Z</time></trkpt><trkpt lat="45.1305373" lon="8.1743799"><ele>201.39999999999998</ele><time>2026-04-18T08:46:21.182Z</time></trkpt><trkpt lat="45.1306109" lon="8.1744991"><ele>199.0</ele><time>2026-04-18T08:46:23.181Z</time></trkpt><trkpt lat="45.1306613" lon="8.1746234"><ele>199.0</ele><time>2026-04-18T08:46:25.181Z</time></trkpt><trkpt lat="45.1306831" lon="8.1747482"><ele>199.0</ele><time>2026-04-18T08:46:27.181Z</time></trkpt><trkpt lat="45.1307149" lon="8.1748685"><ele>199.0</ele><time>2026-04-18T08:46:29.181Z</time></trkpt><trkpt lat="45.1307824" lon="8.1749669"><ele>199.0</ele><time>2026-04-18T08:46:31.181Z</time></trkpt><trkpt lat="45.1308538" lon="8.1750592"><ele>199.0</ele><time>2026-04-18T08:46:33.181Z</time></trkpt><trkpt lat="45.1309337" lon="8.1751671"><ele>198.0</ele><time>2026-04-18T08:46:35.181Z</time></trkpt><trkpt lat="45.1310159" lon="8.1752654"><ele>197.0</ele><time>2026-04-18T08:46:37.181Z</time></trkpt><trkpt lat="45.1311085" lon="8.1753739"><ele>196.0</ele><time>2026-04-18T08:46:39.181Z</time></trkpt><trkpt lat="45.1312142" lon="8.1754801"><ele>195.0</ele><time>2026-04-18T08:46:41.181Z</time></trkpt><trkpt lat="45.1313045" lon="8.1755889"><ele>195.0</ele><time>2026-04-18T08:46:43.182Z</time></trkpt><trkpt lat="45.1313603" lon="8.1756525"><ele>195.0</ele><time>2026-04-18T08:46:44.181Z</time></trkpt><trkpt lat="45.1314212" lon="8.1757154"><ele>195.0</ele><time>2026-04-18T08:46:45.181Z</time></trkpt><trkpt lat="45.13148" lon="8.1757749"><ele>195.0</ele><time>2026-04-18T08:46:46.182Z</time></trkpt><trkpt lat="45.1315411" lon="8.1758278"><ele>195.0</ele><time>2026-04-18T08:46:47.181Z</time></trkpt><trkpt lat="45.1316033" lon="8.1758762"><ele>195.0</ele><time>2026-04-18T08:46:48.181Z</time></trkpt><trkpt lat="45.1316661" lon="8.1759206"><ele>195.0</ele><time>2026-04-18T08:46:49.181Z</time></trkpt><trkpt lat="45.1317728" lon="8.1760223"><ele>194.4</ele><time>2026-04-18T08:46:51.181Z</time></trkpt><trkpt lat="45.1318689" lon="8.1761266"><ele>193.8</ele><time>2026-04-18T08:46:53.181Z</time></trkpt><trkpt lat="45.1319653" lon="8.1762487"><ele>193.2</ele><time>2026-04-18T08:46:55.181Z</time></trkpt><trkpt lat="45.1320177" lon="8.1763163"><ele>192.6</ele><time>2026-04-18T08:46:56.181Z</time></trkpt><trkpt lat="45.1320741" lon="8.1763854"><ele>192.0</ele><time>2026-04-18T08:46:57.182Z</time></trkpt><trkpt lat="45.1321283" lon="8.1764557"><ele>191.85714285714283</ele><time>2026-04-18T08:46:58.182Z</time></trkpt><trkpt lat="45.1321833" lon="8.1765307"><ele>191.71428571428572</ele><time>2026-04-18T08:46:59.181Z</time></trkpt><trkpt lat="45.1322399" lon="8.1766063"><ele>191.57142857142856</ele><time>2026-04-18T08:47:00.181Z</time></trkpt><trkpt lat="45.132291" lon="8.1766805"><ele>191.42857142857142</ele><time>2026-04-18T08:47:01.181Z</time></trkpt><trkpt lat="45.1323474" lon="8.1767622"><ele>191.28571428571428</ele><time>2026-04-18T08:47:02.182Z</time></trkpt><trkpt lat="45.1323956" lon="8.1768415"><ele>191.14285714285714</ele><time>2026-04-18T08:47:03.181Z</time></trkpt><trkpt lat="45.1324377" lon="8.1769142"><ele>191.0</ele><time>2026-04-18T08:47:04.181Z</time></trkpt><trkpt lat="45.1325305" lon="8.17703"><ele>191.0</ele><time>2026-04-18T08:47:06.181Z</time></trkpt><trkpt lat="45.1325807" lon="8.177089"><ele>191.0</ele><time>2026-04-18T08:47:07.181Z</time></trkpt><trkpt lat="45.1326318" lon="8.1771454"><ele>191.0</ele><time>2026-04-18T08:47:08.181Z</time></trkpt><trkpt lat="45.132726" lon="8.1772321"><ele>191.0</ele><time>2026-04-18T08:47:10.181Z</time></trkpt><trkpt lat="45.1328163" lon="8.1773363"><ele>191.0</ele><time>2026-04-18T08:47:12.181Z</time></trkpt><trkpt lat="45.1329118" lon="8.1774354"><ele>189.83333333333331</ele><time>2026-04-18T08:47:14.181Z</time></trkpt><trkpt lat="45.1329789" lon="8.1775622"><ele>188.66666666666666</ele><time>2026-04-18T08:47:16.181Z</time></trkpt><trkpt lat="45.1330159" lon="8.1776994"><ele>187.5</ele><time>2026-04-18T08:47:18.181Z</time></trkpt><trkpt lat="45.1330377" lon="8.177805"><ele>186.33333333333334</ele><time>2026-04-18T08:47:20.181Z</time></trkpt><trkpt lat="45.1330382" lon="8.1779094"><ele>185.16666666666669</ele><time>2026-04-18T08:47:23.181Z</time></trkpt><trkpt lat="45.1330614" lon="8.1780051"><ele>184.0</ele><time>2026-04-18T08:47:25.181Z</time></trkpt><trkpt lat="45.1330925" lon="8.1781328"><ele>184.0</ele><time>2026-04-18T08:47:27.181Z</time></trkpt><trkpt lat="45.1331336" lon="8.1782627"><ele>184.0</ele><time>2026-04-18T08:47:29.181Z</time></trkpt><trkpt lat="45.1331716" lon="8.1783556"><ele>184.0</ele><time>2026-04-18T08:47:31.181Z</time></trkpt><trkpt lat="45.1332049" lon="8.1784422"><ele>184.0</ele><time>2026-04-18T08:47:34.181Z</time></trkpt><trkpt lat="45.1331415" lon="8.1784632"><ele>184.0</ele><time>2026-04-18T08:47:42.181Z</time></trkpt><trkpt lat="45.1330505" lon="8.1784369"><ele>184.0</ele><time>2026-04-18T08:47:44.181Z</time></trkpt><trkpt lat="45.1329831" lon="8.1784108"><ele>184.0</ele><time>2026-04-18T08:47:45.181Z</time></trkpt><trkpt lat="45.1329139" lon="8.1783937"><ele>184.0</ele><time>2026-04-18T08:47:46.182Z</time></trkpt><trkpt lat="45.1328417" lon="8.1783793"><ele>184.0</ele><time>2026-04-18T08:47:47.181Z</time></trkpt><trkpt lat="45.1327667" lon="8.178361"><ele>184.0</ele><time>2026-04-18T08:47:48.181Z</time></trkpt><trkpt lat="45.1326983" lon="8.1783407"><ele>184.0</ele><time>2026-04-18T08:47:49.181Z</time></trkpt><trkpt lat="45.1326333" lon="8.1783293"><ele>184.0</ele><time>2026-04-18T08:47:50.181Z</time></trkpt><trkpt lat="45.1325247" lon="8.1783774"><ele>184.0</ele><time>2026-04-18T08:47:52.181Z</time></trkpt><trkpt lat="45.1324164" lon="8.1784804"><ele>184.0</ele><time>2026-04-18T08:47:54.181Z</time></trkpt><trkpt lat="45.1323677" lon="8.1785418"><ele>184.0</ele><time>2026-04-18T08:47:55.181Z</time></trkpt><trkpt lat="45.1323241" lon="8.1786116"><ele>184.0</ele><time>2026-04-18T08:47:56.182Z</time></trkpt><trkpt lat="45.1322442" lon="8.1787205"><ele>184.0</ele><time>2026-04-18T08:47:58.181Z</time></trkpt><trkpt lat="45.1321601" lon="8.1787521"><ele>185.83333333333334</ele><time>2026-04-18T08:48:00.182Z</time></trkpt><trkpt lat="45.1320729" lon="8.1787091"><ele>187.66666666666669</ele><time>2026-04-18T08:48:02.181Z</time></trkpt><trkpt lat="45.1320167" lon="8.1786506"><ele>189.5</ele><time>2026-04-18T08:48:03.181Z</time></trkpt><trkpt lat="45.1319594" lon="8.178593"><ele>191.33333333333334</ele><time>2026-04-18T08:48:04.181Z</time></trkpt><trkpt lat="45.131901" lon="8.1785212"><ele>193.16666666666666</ele><time>2026-04-18T08:48:05.181Z</time></trkpt><trkpt lat="45.1318381" lon="8.1784398"><ele>195.0</ele><time>2026-04-18T08:48:06.181Z</time></trkpt><trkpt lat="45.1317706" lon="8.1783733"><ele>195.0</ele><time>2026-04-18T08:48:07.181Z</time></trkpt><trkpt lat="45.1316931" lon="8.1783099"><ele>195.0</ele><time>2026-04-18T08:48:08.181Z</time></trkpt><trkpt lat="45.1316121" lon="8.1782445"><ele>195.0</ele><time>2026-04-18T08:48:09.181Z</time></trkpt><trkpt lat="45.1315393" lon="8.1781795"><ele>195.0</ele><time>2026-04-18T08:48:10.182Z</time></trkpt><trkpt lat="45.1314634" lon="8.1781235"><ele>195.0</ele><time>2026-04-18T08:48:11.181Z</time></trkpt><trkpt lat="45.1313968" lon="8.1780495"><ele>195.0</ele><time>2026-04-18T08:48:12.181Z</time></trkpt><trkpt lat="45.13133" lon="8.1779695"><ele>197.16666666666666</ele><time>2026-04-18T08:48:13.181Z</time></trkpt><trkpt lat="45.131269" lon="8.1778708"><ele>199.33333333333331</ele><time>2026-04-18T08:48:14.182Z</time></trkpt><trkpt lat="45.1312209" lon="8.1777609"><ele>201.5</ele><time>2026-04-18T08:48:15.181Z</time></trkpt><trkpt lat="45.131177" lon="8.1776472"><ele>203.66666666666666</ele><time>2026-04-18T08:48:16.181Z</time></trkpt><trkpt lat="45.1311377" lon="8.1775425"><ele>205.83333333333331</ele><time>2026-04-18T08:48:17.181Z</time></trkpt><trkpt lat="45.1310868" lon="8.177447"><ele>208.0</ele><time>2026-04-18T08:48:18.181Z</time></trkpt><trkpt lat="45.1310264" lon="8.1773641"><ele>207.0</ele><time>2026-04-18T08:48:19.181Z</time></trkpt><trkpt lat="45.130959" lon="8.1772936"><ele>206.0</ele><time>2026-04-18T08:48:20.181Z</time></trkpt><trkpt lat="45.1308769" lon="8.1772242"><ele>205.0</ele><time>2026-04-18T08:48:21.182Z</time></trkpt><trkpt lat="45.1307916" lon="8.1771452"><ele>204.0</ele><time>2026-04-18T08:48:22.181Z</time></trkpt><trkpt lat="45.1307082" lon="8.1770632"><ele>203.0</ele><time>2026-04-18T08:48:23.181Z</time></trkpt><trkpt lat="45.1306276" lon="8.1769849"><ele>205.33333333333334</ele><time>2026-04-18T08:48:24.181Z</time></trkpt><trkpt lat="45.130548" lon="8.1769176"><ele>207.66666666666669</ele><time>2026-04-18T08:48:25.181Z</time></trkpt><trkpt lat="45.13047" lon="8.1768568"><ele>210.0</ele><time>2026-04-18T08:48:26.181Z</time></trkpt><trkpt lat="45.1304012" lon="8.176804"><ele>212.33333333333331</ele><time>2026-04-18T08:48:27.181Z</time></trkpt><trkpt lat="45.1303369" lon="8.1767527"><ele>214.66666666666666</ele><time>2026-04-18T08:48:28.181Z</time></trkpt><trkpt lat="45.1302611" lon="8.176689"><ele>217.0</ele><time>2026-04-18T08:48:29.181Z</time></trkpt><trkpt lat="45.1301946" lon="8.1766362"><ele>216.99999999999997</ele><time>2026-04-18T08:48:30.181Z</time></trkpt><trkpt lat="45.1301285" lon="8.1765923"><ele>217.0</ele><time>2026-04-18T08:48:31.181Z</time></trkpt><trkpt lat="45.1300391" lon="8.1765479"><ele>217.0</ele><time>2026-04-18T08:48:32.181Z</time></trkpt><trkpt lat="45.1299486" lon="8.176511"><ele>217.0</ele><time>2026-04-18T08:48:33.182Z</time></trkpt><trkpt lat="45.129869" lon="8.1764911"><ele>216.99999999999997</ele><time>2026-04-18T08:48:34.181Z</time></trkpt><trkpt lat="45.1297791" lon="8.1765"><ele>217.0</ele><time>2026-04-18T08:48:35.181Z</time></trkpt><trkpt lat="45.1296825" lon="8.1765256"><ele>219.0</ele><time>2026-04-18T08:48:36.181Z</time></trkpt><trkpt lat="45.1295868" lon="8.1765433"><ele>221.0</ele><time>2026-04-18T08:48:37.181Z</time></trkpt><trkpt lat="45.1294875" lon="8.17657"><ele>223.0</ele><time>2026-04-18T08:48:38.181Z</time></trkpt><trkpt lat="45.1293936" lon="8.1766005"><ele>225.0</ele><time>2026-04-18T08:48:39.182Z</time></trkpt><trkpt lat="45.1293036" lon="8.1766393"><ele>227.0</ele><time>2026-04-18T08:48:40.181Z</time></trkpt><trkpt lat="45.129232" lon="8.1766729"><ele>227.00000000000003</ele><time>2026-04-18T08:48:41.181Z</time></trkpt><trkpt lat="45.1291528" lon="8.1767004"><ele>227.0</ele><time>2026-04-18T08:48:42.181Z</time></trkpt><trkpt lat="45.1290799" lon="8.1767254"><ele>227.0</ele><time>2026-04-18T08:48:43.181Z</time></trkpt><trkpt lat="45.1290088" lon="8.176759"><ele>227.0</ele><time>2026-04-18T08:48:44.181Z</time></trkpt><trkpt lat="45.1289438" lon="8.1768124"><ele>227.00000000000003</ele><time>2026-04-18T08:48:45.182Z</time></trkpt><trkpt lat="45.1288805" lon="8.1769309"><ele>227.0</ele><time>2026-04-18T08:48:47.182Z</time></trkpt><trkpt lat="45.1288772" lon="8.1770526"><ele>227.00000000000003</ele><time>2026-04-18T08:48:49.181Z</time></trkpt><trkpt lat="45.128944" lon="8.1771517"><ele>227.0</ele><time>2026-04-18T08:48:51.181Z</time></trkpt><trkpt lat="45.1290447" lon="8.1772171"><ele>227.0</ele><time>2026-04-18T08:48:53.181Z</time></trkpt><trkpt lat="45.1291066" lon="8.1772474"><ele>227.0</ele><time>2026-04-18T08:48:54.181Z</time></trkpt><trkpt lat="45.1291734" lon="8.1772847"><ele>227.00000000000003</ele><time>2026-04-18T08:48:55.181Z</time></trkpt><trkpt lat="45.1292401" lon="8.1773157"><ele>227.0</ele><time>2026-04-18T08:48:56.182Z</time></trkpt><trkpt lat="45.1293013" lon="8.1773501"><ele>229.66666666666669</ele><time>2026-04-18T08:48:57.181Z</time></trkpt><trkpt lat="45.1293733" lon="8.1773806"><ele>232.33333333333334</ele><time>2026-04-18T08:48:58.181Z</time></trkpt><trkpt lat="45.1294325" lon="8.177413"><ele>235.0</ele><time>2026-04-18T08:48:59.181Z</time></trkpt><trkpt lat="45.1294949" lon="8.1774841"><ele>237.66666666666669</ele><time>2026-04-18T08:49:01.181Z</time></trkpt><trkpt lat="45.1295307" lon="8.1775722"><ele>240.33333333333334</ele><time>2026-04-18T08:49:03.181Z</time></trkpt><trkpt lat="45.1295069" lon="8.1776723"><ele>243.0</ele><time>2026-04-18T08:49:05.181Z</time></trkpt><trkpt lat="45.1294104" lon="8.1777882"><ele>243.0</ele><time>2026-04-18T08:49:07.181Z</time></trkpt><trkpt lat="45.1293635" lon="8.1778521"><ele>243.0</ele><time>2026-04-18T08:49:08.181Z</time></trkpt><trkpt lat="45.1293174" lon="8.1779162"><ele>243.0</ele><time>2026-04-18T08:49:09.181Z</time></trkpt><trkpt lat="45.1292729" lon="8.1779909"><ele>243.0</ele><time>2026-04-18T08:49:10.181Z</time></trkpt><trkpt lat="45.1292349" lon="8.1780825"><ele>243.0</ele><time>2026-04-18T08:49:11.182Z</time></trkpt><trkpt lat="45.1292112" lon="8.1781708"><ele>243.0</ele><time>2026-04-18T08:49:12.181Z</time></trkpt><trkpt lat="45.1291687" lon="8.1783378"><ele>244.33333333333334</ele><time>2026-04-18T08:49:14.181Z</time></trkpt><trkpt lat="45.1291023" lon="8.1784342"><ele>245.66666666666669</ele><time>2026-04-18T08:49:16.181Z</time></trkpt><trkpt lat="45.1290504" lon="8.1784848"><ele>247.0</ele><time>2026-04-18T08:49:18.181Z</time></trkpt><trkpt lat="45.1289822" lon="8.1784966"><ele>248.33333333333334</ele><time>2026-04-18T08:49:20.181Z</time></trkpt><trkpt lat="45.128863" lon="8.1784975"><ele>249.66666666666669</ele><time>2026-04-18T08:49:22.181Z</time></trkpt><trkpt lat="45.1287921" lon="8.1785072"><ele>251.0</ele><time>2026-04-18T08:49:23.182Z</time></trkpt><trkpt lat="45.1287042" lon="8.1785372"><ele>252.00000000000003</ele><time>2026-04-18T08:49:24.181Z</time></trkpt><trkpt lat="45.1286135" lon="8.1785563"><ele>253.0</ele><time>2026-04-18T08:49:25.181Z</time></trkpt><trkpt lat="45.1285264" lon="8.1785862"><ele>254.0</ele><time>2026-04-18T08:49:26.182Z</time></trkpt><trkpt lat="45.1284517" lon="8.178605"><ele>255.0</ele><time>2026-04-18T08:49:27.181Z</time></trkpt><trkpt lat="45.1283489" lon="8.1786514"><ele>256.0</ele><time>2026-04-18T08:49:29.182Z</time></trkpt><trkpt lat="45.1282696" lon="8.1786878"><ele>257.0</ele><time>2026-04-18T08:49:31.181Z</time></trkpt><trkpt lat="45.128202" lon="8.1786865"><ele>258.0</ele><time>2026-04-18T08:49:34.181Z</time></trkpt><trkpt lat="45.1281443" lon="8.1786124"><ele>259.0</ele><time>2026-04-18T08:49:36.181Z</time></trkpt><trkpt lat="45.1280661" lon="8.1785121"><ele>260.0</ele><time>2026-04-18T08:49:38.181Z</time></trkpt><trkpt lat="45.1280098" lon="8.1784641"><ele>261.0</ele><time>2026-04-18T08:49:40.181Z</time></trkpt><trkpt lat="45.1279265" lon="8.1784502"><ele>262.0</ele><time>2026-04-18T08:49:44.181Z</time></trkpt><trkpt lat="45.1278425" lon="8.1784781"><ele>263.0</ele><time>2026-04-18T08:49:46.181Z</time></trkpt><trkpt lat="45.1277394" lon="8.1785273"><ele>263.0</ele><time>2026-04-18T08:49:48.181Z</time></trkpt><trkpt lat="45.1276772" lon="8.1786198"><ele>263.0</ele><time>2026-04-18T08:49:50.181Z</time></trkpt><trkpt lat="45.1276718" lon="8.1787574"><ele>263.0</ele><time>2026-04-18T08:49:52.181Z</time></trkpt><trkpt lat="45.1276947" lon="8.1788856"><ele>263.0</ele><time>2026-04-18T08:49:54.181Z</time></trkpt><trkpt lat="45.1276601" lon="8.1790159"><ele>263.0</ele><time>2026-04-18T08:49:56.181Z</time></trkpt><trkpt lat="45.1275791" lon="8.1791224"><ele>265.2</ele><time>2026-04-18T08:49:58.181Z</time></trkpt><trkpt lat="45.1275249" lon="8.1791766"><ele>267.4</ele><time>2026-04-18T08:49:59.181Z</time></trkpt><trkpt lat="45.1274302" lon="8.1792618"><ele>269.59999999999997</ele><time>2026-04-18T08:50:01.182Z</time></trkpt><trkpt lat="45.1273385" lon="8.1792753"><ele>271.8</ele><time>2026-04-18T08:50:03.181Z</time></trkpt><trkpt lat="45.1272437" lon="8.179223"><ele>274.0</ele><time>2026-04-18T08:50:05.181Z</time></trkpt><trkpt lat="45.1271454" lon="8.1791476"><ele>275.4</ele><time>2026-04-18T08:50:07.181Z</time></trkpt><trkpt lat="45.1270544" lon="8.1791537"><ele>276.79999999999995</ele><time>2026-04-18T08:50:09.181Z</time></trkpt><trkpt lat="45.1269598" lon="8.1791946"><ele>278.20000000000005</ele><time>2026-04-18T08:50:11.181Z</time></trkpt><trkpt lat="45.1268635" lon="8.1792479"><ele>279.6</ele><time>2026-04-18T08:50:13.181Z</time></trkpt><trkpt lat="45.126782" lon="8.1793532"><ele>281.0</ele><time>2026-04-18T08:50:15.181Z</time></trkpt><trkpt lat="45.1267011" lon="8.1794655"><ele>281.0</ele><time>2026-04-18T08:50:17.181Z</time></trkpt><trkpt lat="45.1266538" lon="8.1795398"><ele>281.0</ele><time>2026-04-18T08:50:18.181Z</time></trkpt><trkpt lat="45.126597" lon="8.1796344"><ele>281.0</ele><time>2026-04-18T08:50:19.181Z</time></trkpt><trkpt lat="45.1265317" lon="8.1797514"><ele>281.0</ele><time>2026-04-18T08:50:20.181Z</time></trkpt><trkpt lat="45.1264583" lon="8.1798714"><ele>281.0</ele><time>2026-04-18T08:50:21.181Z</time></trkpt><trkpt lat="45.1263773" lon="8.1799709"><ele>286.0</ele><time>2026-04-18T08:50:22.181Z</time></trkpt><trkpt lat="45.1262841" lon="8.1800582"><ele>291.0</ele><time>2026-04-18T08:50:23.181Z</time></trkpt><trkpt lat="45.1261832" lon="8.1801287"><ele>296.0</ele><time>2026-04-18T08:50:24.181Z</time></trkpt><trkpt lat="45.1260718" lon="8.1801972"><ele>301.0</ele><time>2026-04-18T08:50:25.182Z</time></trkpt><trkpt lat="45.1259492" lon="8.180273"><ele>301.0</ele><time>2026-04-18T08:50:26.181Z</time></trkpt><trkpt lat="45.1258292" lon="8.1803801"><ele>301.0</ele><time>2026-04-18T08:50:27.181Z</time></trkpt><trkpt lat="45.1257139" lon="8.1804889"><ele>301.0</ele><time>2026-04-18T08:50:28.182Z</time></trkpt><trkpt lat="45.1256216" lon="8.1805858"><ele>301.0</ele><time>2026-04-18T08:50:29.181Z</time></trkpt><trkpt lat="45.125533" lon="8.1806688"><ele>305.4</ele><time>2026-04-18T08:50:30.181Z</time></trkpt><trkpt lat="45.1254511" lon="8.1807408"><ele>309.8</ele><time>2026-04-18T08:50:31.181Z</time></trkpt><trkpt lat="45.1253712" lon="8.1808157"><ele>314.2</ele><time>2026-04-18T08:50:32.181Z</time></trkpt><trkpt lat="45.1252955" lon="8.1808945"><ele>318.59999999999997</ele><time>2026-04-18T08:50:33.181Z</time></trkpt><trkpt lat="45.1252229" lon="8.1809692"><ele>323.0</ele><time>2026-04-18T08:50:34.181Z</time></trkpt><trkpt lat="45.1251591" lon="8.1810497"><ele>323.0</ele><time>2026-04-18T08:50:35.181Z</time></trkpt><trkpt lat="45.1250968" lon="8.1811307"><ele>323.0</ele><time>2026-04-18T08:50:36.182Z</time></trkpt><trkpt lat="45.1250313" lon="8.1812179"><ele>323.0</ele><time>2026-04-18T08:50:37.181Z</time></trkpt><trkpt lat="45.1249563" lon="8.1813013"><ele>323.0</ele><time>2026-04-18T08:50:38.181Z</time></trkpt><trkpt lat="45.1248757" lon="8.1813919"><ele>323.0</ele><time>2026-04-18T08:50:39.181Z</time></trkpt><trkpt lat="45.124801" lon="8.181474"><ele>326.0</ele><time>2026-04-18T08:50:40.181Z</time></trkpt><trkpt lat="45.1247176" lon="8.1815428"><ele>329.0</ele><time>2026-04-18T08:50:41.181Z</time></trkpt><trkpt lat="45.1246482" lon="8.1816043"><ele>332.0</ele><time>2026-04-18T08:50:42.181Z</time></trkpt><trkpt lat="45.1245643" lon="8.1816588"><ele>335.0</ele><time>2026-04-18T08:50:43.181Z</time></trkpt><trkpt lat="45.1244839" lon="8.1816959"><ele>338.0</ele><time>2026-04-18T08:50:44.181Z</time></trkpt><trkpt lat="45.1244112" lon="8.1817275"><ele>341.0</ele><time>2026-04-18T08:50:45.181Z</time></trkpt><trkpt lat="45.1243427" lon="8.1817427"><ele>341.0</ele><time>2026-04-18T08:50:46.181Z</time></trkpt><trkpt lat="45.1242748" lon="8.1817495"><ele>341.0</ele><time>2026-04-18T08:50:47.182Z</time></trkpt><trkpt lat="45.1241745" lon="8.1817436"><ele>341.0</ele><time>2026-04-18T08:50:49.181Z</time></trkpt><trkpt lat="45.1240846" lon="8.1817007"><ele>341.0</ele><time>2026-04-18T08:50:51.181Z</time></trkpt><trkpt lat="45.1239857" lon="8.1816386"><ele>341.0</ele><time>2026-04-18T08:50:53.181Z</time></trkpt><trkpt lat="45.123869" lon="8.1815853"><ele>341.4</ele><time>2026-04-18T08:50:55.181Z</time></trkpt><trkpt lat="45.1237584" lon="8.1815227"><ele>341.8</ele><time>2026-04-18T08:50:57.181Z</time></trkpt><trkpt lat="45.1236465" lon="8.1814713"><ele>342.2</ele><time>2026-04-18T08:50:59.181Z</time></trkpt><trkpt lat="45.1235524" lon="8.1814453"><ele>342.59999999999997</ele><time>2026-04-18T08:51:01.181Z</time></trkpt><trkpt lat="45.123447" lon="8.1813989"><ele>343.0</ele><time>2026-04-18T08:51:03.182Z</time></trkpt><trkpt lat="45.1233623" lon="8.1813625"><ele>344.3333333333333</ele><time>2026-04-18T08:51:05.181Z</time></trkpt><trkpt lat="45.1233047" lon="8.1813226"><ele>345.66666666666663</ele><time>2026-04-18T08:51:07.181Z</time></trkpt><trkpt lat="45.1232382" lon="8.1812783"><ele>347.0</ele><time>2026-04-18T08:51:09.181Z</time></trkpt><trkpt lat="45.1231669" lon="8.1812054"><ele>348.3333333333333</ele><time>2026-04-18T08:51:11.181Z</time></trkpt><trkpt lat="45.1230973" lon="8.1811293"><ele>349.6666666666667</ele><time>2026-04-18T08:51:13.181Z</time></trkpt><trkpt lat="45.1230318" lon="8.1810477"><ele>351.0</ele><time>2026-04-18T08:51:15.181Z</time></trkpt><trkpt lat="45.1229543" lon="8.1809761"><ele>351.0</ele><time>2026-04-18T08:51:17.181Z</time></trkpt><trkpt lat="45.122892" lon="8.1808841"><ele>351.0</ele><time>2026-04-18T08:51:19.181Z</time></trkpt><trkpt lat="45.1228325" lon="8.1807796"><ele>351.0</ele><time>2026-04-18T08:51:21.182Z</time></trkpt><trkpt lat="45.1227975" lon="8.1806934"><ele>351.0</ele><time>2026-04-18T08:51:23.181Z</time></trkpt><trkpt lat="45.1227348" lon="8.1806349"><ele>351.0</ele><time>2026-04-18T08:51:26.182Z</time></trkpt><trkpt lat="45.1226516" lon="8.1806059"><ele>351.0</ele><time>2026-04-18T08:51:28.181Z</time></trkpt><trkpt lat="45.1225529" lon="8.1805697"><ele>350.0</ele><time>2026-04-18T08:51:30.181Z</time></trkpt><trkpt lat="45.1224512" lon="8.1805483"><ele>349.0</ele><time>2026-04-18T08:51:32.182Z</time></trkpt><trkpt lat="45.1223598" lon="8.1805279"><ele>348.0</ele><time>2026-04-18T08:51:34.181Z</time></trkpt><trkpt lat="45.1222652" lon="8.1805189"><ele>347.0</ele><time>2026-04-18T08:51:36.181Z</time></trkpt><trkpt lat="45.1221799" lon="8.180487"><ele>346.0</ele><time>2026-04-18T08:51:38.181Z</time></trkpt><trkpt lat="45.1220884" lon="8.1804519"><ele>348.6</ele><time>2026-04-18T08:51:40.181Z</time></trkpt><trkpt lat="45.1219974" lon="8.1804047"><ele>351.20000000000005</ele><time>2026-04-18T08:51:42.181Z</time></trkpt><trkpt lat="45.1219213" lon="8.1803511"><ele>353.79999999999995</ele><time>2026-04-18T08:51:44.181Z</time></trkpt><trkpt lat="45.1218364" lon="8.1803068"><ele>356.4</ele><time>2026-04-18T08:51:46.181Z</time></trkpt><trkpt lat="45.1217465" lon="8.1802648"><ele>359.0</ele><time>2026-04-18T08:51:48.181Z</time></trkpt><trkpt lat="45.1216437" lon="8.1802247"><ele>363.33333333333337</ele><time>2026-04-18T08:51:50.181Z</time></trkpt><trkpt lat="45.1215563" lon="8.1801563"><ele>367.6666666666667</ele><time>2026-04-18T08:51:52.181Z</time></trkpt><trkpt lat="45.1214607" lon="8.18007"><ele>372.0</ele><time>2026-04-18T08:51:54.181Z</time></trkpt><trkpt lat="45.1214071" lon="8.1800081"><ele>376.33333333333337</ele><time>2026-04-18T08:51:55.181Z</time></trkpt><trkpt lat="45.1213525" lon="8.1799524"><ele>380.6666666666667</ele><time>2026-04-18T08:51:56.181Z</time></trkpt><trkpt lat="45.1212903" lon="8.1799032"><ele>385.0</ele><time>2026-04-18T08:51:57.181Z</time></trkpt><trkpt lat="45.1212304" lon="8.1798619"><ele>382.5</ele><time>2026-04-18T08:51:58.181Z</time></trkpt><trkpt lat="45.1211139" lon="8.1798067"><ele>380.0</ele><time>2026-04-18T08:52:00.181Z</time></trkpt><trkpt lat="45.1210067" lon="8.1797618"><ele>377.5</ele><time>2026-04-18T08:52:02.182Z</time></trkpt><trkpt lat="45.1208924" lon="8.1797165"><ele>375.0</ele><time>2026-04-18T08:52:04.181Z</time></trkpt><trkpt lat="45.1207892" lon="8.1796963"><ele>379.4</ele><time>2026-04-18T08:52:06.181Z</time></trkpt><trkpt lat="45.1206992" lon="8.1796665"><ele>383.8</ele><time>2026-04-18T08:52:08.181Z</time></trkpt><trkpt lat="45.1206089" lon="8.179609"><ele>388.20000000000005</ele><time>2026-04-18T08:52:10.181Z</time></trkpt><trkpt lat="45.1205065" lon="8.1795182"><ele>392.6</ele><time>2026-04-18T08:52:12.182Z</time></trkpt><trkpt lat="45.1204028" lon="8.1794176"><ele>397.0</ele><time>2026-04-18T08:52:14.181Z</time></trkpt><trkpt lat="45.1203245" lon="8.1793365"><ele>397.0</ele><time>2026-04-18T08:52:16.182Z</time></trkpt><trkpt lat="45.1202428" lon="8.1792481"><ele>397.0</ele><time>2026-04-18T08:52:18.181Z</time></trkpt><trkpt lat="45.1201501" lon="8.1791565"><ele>397.0</ele><time>2026-04-18T08:52:20.181Z</time></trkpt><trkpt lat="45.1200921" lon="8.1791101"><ele>397.0</ele><time>2026-04-18T08:52:21.182Z</time></trkpt><trkpt lat="45.1200357" lon="8.1790446"><ele>397.0</ele><time>2026-04-18T08:52:22.181Z</time></trkpt><trkpt lat="45.1199419" lon="8.1789107"><ele>397.33333333333337</ele><time>2026-04-18T08:52:24.182Z</time></trkpt><trkpt lat="45.1198622" lon="8.1787947"><ele>397.6666666666667</ele><time>2026-04-18T08:52:26.182Z</time></trkpt><trkpt lat="45.1198014" lon="8.1787707"><ele>398.0</ele><time>2026-04-18T08:52:28.182Z</time></trkpt><trkpt lat="45.11976" lon="8.1788591"><ele>398.33333333333337</ele><time>2026-04-18T08:52:39.181Z</time></trkpt><trkpt lat="45.1197256" lon="8.1789607"><ele>398.6666666666667</ele><time>2026-04-18T08:52:42.181Z</time></trkpt><trkpt lat="45.1196786" lon="8.1790705"><ele>399.0</ele><time>2026-04-18T08:52:45.181Z</time></trkpt><trkpt lat="45.1196227" lon="8.1791169"><ele>399.0</ele><time>2026-04-18T08:52:47.181Z</time></trkpt><trkpt lat="45.1195276" lon="8.1790977"><ele>399.0</ele><time>2026-04-18T08:52:50.181Z</time></trkpt><trkpt lat="45.1194473" lon="8.179083"><ele>399.0</ele><time>2026-04-18T08:52:52.181Z</time></trkpt><trkpt lat="45.1193773" lon="8.1790529"><ele>399.0</ele><time>2026-04-18T08:52:53.182Z</time></trkpt><trkpt lat="45.119321" lon="8.1790064"><ele>399.0</ele><time>2026-04-18T08:52:54.181Z</time></trkpt><trkpt lat="45.1192319" lon="8.1788789"><ele>399.0</ele><time>2026-04-18T08:52:56.181Z</time></trkpt><trkpt lat="45.119177" lon="8.1788158"><ele>399.0</ele><time>2026-04-18T08:52:57.182Z</time></trkpt><trkpt lat="45.1191317" lon="8.1787486"><ele>399.0</ele><time>2026-04-18T08:52:58.181Z</time></trkpt><trkpt lat="45.1190777" lon="8.1786893"><ele>399.0</ele><time>2026-04-18T08:52:59.182Z</time></trkpt><trkpt lat="45.1189848" lon="8.1785752"><ele>399.0</ele><time>2026-04-18T08:53:01.181Z</time></trkpt><trkpt lat="45.1188925" lon="8.1784435"><ele>399.0</ele><time>2026-04-18T08:53:03.182Z</time></trkpt><trkpt lat="45.1188414" lon="8.1783719"><ele>396.1666666666667</ele><time>2026-04-18T08:53:04.181Z</time></trkpt><trkpt lat="45.1188034" lon="8.1782999"><ele>393.3333333333333</ele><time>2026-04-18T08:53:05.181Z</time></trkpt><trkpt lat="45.1187664" lon="8.1782203"><ele>390.5</ele><time>2026-04-18T08:53:06.181Z</time></trkpt><trkpt lat="45.1187345" lon="8.178136"><ele>387.66666666666663</ele><time>2026-04-18T08:53:07.182Z</time></trkpt><trkpt lat="45.1187097" lon="8.1780435"><ele>384.8333333333333</ele><time>2026-04-18T08:53:08.182Z</time></trkpt><trkpt lat="45.1186875" lon="8.1779553"><ele>382.0</ele><time>2026-04-18T08:53:09.181Z</time></trkpt><trkpt lat="45.1186786" lon="8.1777922"><ele>382.0</ele><time>2026-04-18T08:53:11.181Z</time></trkpt><trkpt lat="45.1186872" lon="8.1776965"><ele>382.0</ele><time>2026-04-18T08:53:12.182Z</time></trkpt><trkpt lat="45.118694" lon="8.1775261"><ele>382.0</ele><time>2026-04-18T08:53:14.182Z</time></trkpt><trkpt lat="45.1186912" lon="8.1774311"><ele>382.0</ele><time>2026-04-18T08:53:15.181Z</time></trkpt><trkpt lat="45.1186618" lon="8.1772837"><ele>382.0</ele><time>2026-04-18T08:53:17.182Z</time></trkpt><trkpt lat="45.1186242" lon="8.1771379"><ele>385.25</ele><time>2026-04-18T08:53:19.181Z</time></trkpt><trkpt lat="45.1185503" lon="8.1769999"><ele>388.5</ele><time>2026-04-18T08:53:21.181Z</time></trkpt><trkpt lat="45.1184821" lon="8.1768547"><ele>391.75</ele><time>2026-04-18T08:53:23.181Z</time></trkpt><trkpt lat="45.1184114" lon="8.1767154"><ele>395.0</ele><time>2026-04-18T08:53:25.181Z</time></trkpt><trkpt lat="45.1183606" lon="8.1765957"><ele>394.8333333333333</ele><time>2026-04-18T08:53:27.181Z</time></trkpt><trkpt lat="45.1182765" lon="8.1764849"><ele>394.66666666666663</ele><time>2026-04-18T08:53:29.181Z</time></trkpt><trkpt lat="45.1182234" lon="8.1764326"><ele>394.5</ele><time>2026-04-18T08:53:30.181Z</time></trkpt><trkpt lat="45.1181482" lon="8.176381"><ele>394.33333333333337</ele><time>2026-04-18T08:53:31.182Z</time></trkpt><trkpt lat="45.1180716" lon="8.17633"><ele>394.1666666666667</ele><time>2026-04-18T08:53:32.181Z</time></trkpt><trkpt lat="45.1180021" lon="8.1762844"><ele>394.0</ele><time>2026-04-18T08:53:33.181Z</time></trkpt><trkpt lat="45.1179329" lon="8.1762459"><ele>392.00000000000006</ele><time>2026-04-18T08:53:34.181Z</time></trkpt><trkpt lat="45.1178683" lon="8.1762181"><ele>390.0</ele><time>2026-04-18T08:53:35.181Z</time></trkpt><trkpt lat="45.1178036" lon="8.1761875"><ele>388.0</ele><time>2026-04-18T08:53:36.181Z</time></trkpt><trkpt lat="45.1176928" lon="8.1761405"><ele>386.0</ele><time>2026-04-18T08:53:38.181Z</time></trkpt><trkpt lat="45.1176163" lon="8.176114"><ele>384.0</ele><time>2026-04-18T08:53:40.181Z</time></trkpt><trkpt lat="45.1175573" lon="8.1760583"><ele>382.0</ele><time>2026-04-18T08:53:44.181Z</time></trkpt><trkpt lat="45.1174708" lon="8.1760661"><ele>383.5</ele><time>2026-04-18T09:06:11.18Z</time></trkpt><trkpt lat="45.1173844" lon="8.1760743"><ele>385.0</ele><time>2026-04-18T09:06:14.179Z</time></trkpt><trkpt lat="45.1172863" lon="8.176105"><ele>386.5</ele><time>2026-04-18T09:06:17.179Z</time></trkpt><trkpt lat="45.1172205" lon="8.1761319"><ele>388.0</ele><time>2026-04-18T09:06:20.179Z</time></trkpt><trkpt lat="45.1171344" lon="8.1761647"><ele>389.50000000000006</ele><time>2026-04-18T09:06:23.179Z</time></trkpt><trkpt lat="45.1170596" lon="8.176202"><ele>391.0</ele><time>2026-04-18T09:06:25.18Z</time></trkpt><trkpt lat="45.1169779" lon="8.176229"><ele>391.00000000000006</ele><time>2026-04-18T09:06:27.179Z</time></trkpt><trkpt lat="45.1169036" lon="8.1762466"><ele>391.0</ele><time>2026-04-18T09:06:29.179Z</time></trkpt><trkpt lat="45.116821" lon="8.1762844"><ele>391.0</ele><time>2026-04-18T09:06:31.18Z</time></trkpt><trkpt lat="45.1167438" lon="8.1763335"><ele>391.0</ele><time>2026-04-18T09:06:33.179Z</time></trkpt><trkpt lat="45.1166661" lon="8.17641"><ele>391.00000000000006</ele><time>2026-04-18T09:06:35.179Z</time></trkpt><trkpt lat="45.1165976" lon="8.1765116"><ele>391.0</ele><time>2026-04-18T09:06:37.179Z</time></trkpt><trkpt lat="45.1165528" lon="8.1765932"><ele>394.6666666666667</ele><time>2026-04-18T09:06:39.179Z</time></trkpt><trkpt lat="45.1165114" lon="8.1766698"><ele>398.33333333333337</ele><time>2026-04-18T09:06:42.179Z</time></trkpt><trkpt lat="45.1164849" lon="8.1767627"><ele>402.0</ele><time>2026-04-18T09:06:44.179Z</time></trkpt><trkpt lat="45.1164512" lon="8.1768725"><ele>405.66666666666663</ele><time>2026-04-18T09:06:46.179Z</time></trkpt><trkpt lat="45.1164002" lon="8.1769922"><ele>409.3333333333333</ele><time>2026-04-18T09:06:48.179Z</time></trkpt><trkpt lat="45.1163546" lon="8.1770594"><ele>413.0</ele><time>2026-04-18T09:06:49.18Z</time></trkpt><trkpt lat="45.116304" lon="8.1771796"><ele>413.0</ele><time>2026-04-18T09:06:51.18Z</time></trkpt><trkpt lat="45.1162593" lon="8.177254"><ele>413.0</ele><time>2026-04-18T09:06:53.179Z</time></trkpt><trkpt lat="45.1162022" lon="8.1773261"><ele>413.0</ele><time>2026-04-18T09:06:56.18Z</time></trkpt><trkpt lat="45.1161541" lon="8.1774049"><ele>413.0</ele><time>2026-04-18T09:06:59.179Z</time></trkpt><trkpt lat="45.1161549" lon="8.1775021"><ele>413.0</ele><time>2026-04-18T09:07:02.179Z</time></trkpt><trkpt lat="45.1161447" lon="8.1776275"><ele>413.0</ele><time>2026-04-18T09:07:05.179Z</time></trkpt><trkpt lat="45.1161083" lon="8.1777109"><ele>413.0</ele><time>2026-04-18T09:07:07.179Z</time></trkpt><trkpt lat="45.1160656" lon="8.1778111"><ele>409.99999999999994</ele><time>2026-04-18T09:07:10.18Z</time></trkpt><trkpt lat="45.1160006" lon="8.1778918"><ele>407.0</ele><time>2026-04-18T09:07:13.179Z</time></trkpt><trkpt lat="45.1159337" lon="8.1779486"><ele>404.0</ele><time>2026-04-18T09:07:16.179Z</time></trkpt><trkpt lat="45.1159126" lon="8.1780408"><ele>401.0</ele><time>2026-04-18T09:07:19.179Z</time></trkpt><trkpt lat="45.1159119" lon="8.1781611"><ele>397.99999999999994</ele><time>2026-04-18T09:07:22.179Z</time></trkpt><trkpt lat="45.1159157" lon="8.178265"><ele>395.0</ele><time>2026-04-18T09:07:24.179Z</time></trkpt><trkpt lat="45.1158944" lon="8.1783884"><ele>392.3333333333333</ele><time>2026-04-18T09:07:27.179Z</time></trkpt><trkpt lat="45.1159083" lon="8.1784833"><ele>389.66666666666663</ele><time>2026-04-18T09:07:30.179Z</time></trkpt><trkpt lat="45.1159085" lon="8.1785813"><ele>387.0</ele><time>2026-04-18T09:07:32.179Z</time></trkpt><trkpt lat="45.1158829" lon="8.1787228"><ele>384.3333333333333</ele><time>2026-04-18T09:07:34.18Z</time></trkpt><trkpt lat="45.1158814" lon="8.1788153"><ele>381.66666666666663</ele><time>2026-04-18T09:07:35.18Z</time></trkpt><trkpt lat="45.1158611" lon="8.1789743"><ele>379.0</ele><time>2026-04-18T09:07:37.179Z</time></trkpt><trkpt lat="45.1158488" lon="8.1791276"><ele>379.66666666666663</ele><time>2026-04-18T09:07:39.179Z</time></trkpt><trkpt lat="45.1158259" lon="8.179258"><ele>380.3333333333333</ele><time>2026-04-18T09:07:41.179Z</time></trkpt><trkpt lat="45.1157774" lon="8.1793979"><ele>381.0</ele><time>2026-04-18T09:07:43.18Z</time></trkpt><trkpt lat="45.1157229" lon="8.1794889"><ele>381.6666666666667</ele><time>2026-04-18T09:07:45.179Z</time></trkpt><trkpt lat="45.1156519" lon="8.1795415"><ele>382.33333333333337</ele><time>2026-04-18T09:07:47.179Z</time></trkpt><trkpt lat="45.1155818" lon="8.1795811"><ele>383.0</ele><time>2026-04-18T09:07:50.179Z</time></trkpt><trkpt lat="45.1155175" lon="8.1795743"><ele>383.0</ele><time>2026-04-18T09:07:52.179Z</time></trkpt><trkpt lat="45.115424" lon="8.1795526"><ele>383.0</ele><time>2026-04-18T09:07:54.179Z</time></trkpt><trkpt lat="45.1153318" lon="8.1795246"><ele>383.0</ele><time>2026-04-18T09:07:56.179Z</time></trkpt><trkpt lat="45.115225" lon="8.1794299"><ele>383.0</ele><time>2026-04-18T09:07:58.179Z</time></trkpt><trkpt lat="45.1151154" lon="8.1793609"><ele>383.0</ele><time>2026-04-18T09:08:00.18Z</time></trkpt><trkpt lat="45.1150204" lon="8.179319"><ele>383.0</ele><time>2026-04-18T09:08:02.179Z</time></trkpt><trkpt lat="45.114928" lon="8.1792718"><ele>383.0</ele><time>2026-04-18T09:08:04.179Z</time></trkpt><trkpt lat="45.1148391" lon="8.1792571"><ele>383.0</ele><time>2026-04-18T09:08:06.179Z</time></trkpt><trkpt lat="45.1147499" lon="8.179265"><ele>383.0</ele><time>2026-04-18T09:08:08.18Z</time></trkpt><trkpt lat="45.1146818" lon="8.1793049"><ele>383.0</ele><time>2026-04-18T09:08:10.179Z</time></trkpt><trkpt lat="45.1146202" lon="8.1793781"><ele>383.0</ele><time>2026-04-18T09:08:12.179Z</time></trkpt><trkpt lat="45.11456" lon="8.1794956"><ele>381.83333333333337</ele><time>2026-04-18T09:08:14.179Z</time></trkpt><trkpt lat="45.1145027" lon="8.1795981"><ele>380.6666666666667</ele><time>2026-04-18T09:08:16.179Z</time></trkpt><trkpt lat="45.1144444" lon="8.1797033"><ele>379.5</ele><time>2026-04-18T09:08:18.179Z</time></trkpt><trkpt lat="45.1143931" lon="8.1797692"><ele>378.3333333333333</ele><time>2026-04-18T09:08:20.179Z</time></trkpt><trkpt lat="45.1142982" lon="8.1797924"><ele>377.16666666666663</ele><time>2026-04-18T09:08:23.179Z</time></trkpt><trkpt lat="45.1142228" lon="8.1797888"><ele>376.0</ele><time>2026-04-18T09:08:25.179Z</time></trkpt><trkpt lat="45.1141447" lon="8.1797699"><ele>371.8</ele><time>2026-04-18T09:08:27.179Z</time></trkpt><trkpt lat="45.1140552" lon="8.1797463"><ele>367.6</ele><time>2026-04-18T09:08:29.179Z</time></trkpt><trkpt lat="45.1139823" lon="8.1797188"><ele>363.4</ele><time>2026-04-18T09:08:31.179Z</time></trkpt><trkpt lat="45.113881" lon="8.1796994"><ele>359.2</ele><time>2026-04-18T09:08:33.179Z</time></trkpt><trkpt lat="45.1137808" lon="8.1796963"><ele>355.0</ele><time>2026-04-18T09:08:35.179Z</time></trkpt><trkpt lat="45.1136926" lon="8.1796961"><ele>355.0</ele><time>2026-04-18T09:08:37.179Z</time></trkpt><trkpt lat="45.1136204" lon="8.1797154"><ele>355.0</ele><time>2026-04-18T09:08:39.179Z</time></trkpt><trkpt lat="45.1135614" lon="8.1797732"><ele>355.0</ele><time>2026-04-18T09:08:41.18Z</time></trkpt><trkpt lat="45.1135135" lon="8.1798369"><ele>355.0</ele><time>2026-04-18T09:08:43.18Z</time></trkpt><trkpt lat="45.1134666" lon="8.179927"><ele>355.0</ele><time>2026-04-18T09:08:45.179Z</time></trkpt><trkpt lat="45.11341" lon="8.1800124"><ele>355.0</ele><time>2026-04-18T09:08:47.18Z</time></trkpt><trkpt lat="45.113356" lon="8.1800997"><ele>354.66666666666663</ele><time>2026-04-18T09:08:49.179Z</time></trkpt><trkpt lat="45.1132872" lon="8.1801841"><ele>354.3333333333333</ele><time>2026-04-18T09:08:51.179Z</time></trkpt><trkpt lat="45.1132206" lon="8.1802644"><ele>354.0</ele><time>2026-04-18T09:08:53.179Z</time></trkpt><trkpt lat="45.1131702" lon="8.1803455"><ele>353.6666666666667</ele><time>2026-04-18T09:08:55.179Z</time></trkpt><trkpt lat="45.1131349" lon="8.1804458"><ele>353.33333333333337</ele><time>2026-04-18T09:08:57.179Z</time></trkpt><trkpt lat="45.1130988" lon="8.1805441"><ele>353.0</ele><time>2026-04-18T09:08:59.18Z</time></trkpt><trkpt lat="45.1130763" lon="8.1806699"><ele>348.4</ele><time>2026-04-18T09:09:01.179Z</time></trkpt><trkpt lat="45.1130552" lon="8.1808005"><ele>343.79999999999995</ele><time>2026-04-18T09:09:03.18Z</time></trkpt><trkpt lat="45.1130251" lon="8.1809424"><ele>339.2</ele><time>2026-04-18T09:09:05.179Z</time></trkpt><trkpt lat="45.1129858" lon="8.1810765"><ele>334.6</ele><time>2026-04-18T09:09:07.179Z</time></trkpt><trkpt lat="45.1129293" lon="8.1811758"><ele>330.0</ele><time>2026-04-18T09:09:09.179Z</time></trkpt><trkpt lat="45.1128841" lon="8.1812805"><ele>330.0</ele><time>2026-04-18T09:09:11.179Z</time></trkpt><trkpt lat="45.1128881" lon="8.1814189"><ele>330.0</ele><time>2026-04-18T09:09:14.179Z</time></trkpt><trkpt lat="45.1129304" lon="8.1815168"><ele>330.0</ele><time>2026-04-18T09:09:16.179Z</time></trkpt><trkpt lat="45.1129844" lon="8.1816297"><ele>330.0</ele><time>2026-04-18T09:09:18.179Z</time></trkpt><trkpt lat="45.1130498" lon="8.1817336"><ele>330.0</ele><time>2026-04-18T09:09:20.18Z</time></trkpt><trkpt lat="45.1131083" lon="8.181841"><ele>330.6666666666667</ele><time>2026-04-18T09:09:22.179Z</time></trkpt><trkpt lat="45.1131527" lon="8.181957"><ele>331.3333333333333</ele><time>2026-04-18T09:09:24.179Z</time></trkpt><trkpt lat="45.113201" lon="8.1820757"><ele>332.0</ele><time>2026-04-18T09:09:26.18Z</time></trkpt><trkpt lat="45.1132523" lon="8.1821761"><ele>332.66666666666663</ele><time>2026-04-18T09:09:28.179Z</time></trkpt><trkpt lat="45.1132911" lon="8.1822855"><ele>333.3333333333333</ele><time>2026-04-18T09:09:30.179Z</time></trkpt><trkpt lat="45.1133225" lon="8.1823971"><ele>334.0</ele><time>2026-04-18T09:09:32.179Z</time></trkpt><trkpt lat="45.1133385" lon="8.1824945"><ele>334.0</ele><time>2026-04-18T09:09:35.179Z</time></trkpt><trkpt lat="45.1133154" lon="8.1825906"><ele>334.0</ele><time>2026-04-18T09:10:48.178Z</time></trkpt><trkpt lat="45.1132873" lon="8.1826981"><ele>334.0</ele><time>2026-04-18T09:10:51.178Z</time></trkpt><trkpt lat="45.1132857" lon="8.1828114"><ele>334.0</ele><time>2026-04-18T09:10:53.178Z</time></trkpt><trkpt lat="45.1132734" lon="8.1829589"><ele>334.0</ele><time>2026-04-18T09:10:55.178Z</time></trkpt><trkpt lat="45.1132219" lon="8.1830955"><ele>334.0</ele><time>2026-04-18T09:10:57.179Z</time></trkpt><trkpt lat="45.1131609" lon="8.1832237"><ele>332.0</ele><time>2026-04-18T09:10:59.179Z</time></trkpt><trkpt lat="45.113086" lon="8.1833305"><ele>330.0</ele><time>2026-04-18T09:11:01.178Z</time></trkpt><trkpt lat="45.1130142" lon="8.1834041"><ele>328.0</ele><time>2026-04-18T09:11:03.179Z</time></trkpt><trkpt lat="45.1129247" lon="8.1834824"><ele>326.0</ele><time>2026-04-18T09:11:05.178Z</time></trkpt><trkpt lat="45.1128477" lon="8.1835318"><ele>324.0</ele><time>2026-04-18T09:11:07.178Z</time></trkpt><trkpt lat="45.1127607" lon="8.1835814"><ele>324.0</ele><time>2026-04-18T09:11:10.178Z</time></trkpt><trkpt lat="45.1126761" lon="8.1836365"><ele>324.0</ele><time>2026-04-18T09:11:12.178Z</time></trkpt><trkpt lat="45.1125882" lon="8.1836956"><ele>324.0</ele><time>2026-04-18T09:11:14.178Z</time></trkpt><trkpt lat="45.1125105" lon="8.1837448"><ele>324.0</ele><time>2026-04-18T09:11:16.178Z</time></trkpt><trkpt lat="45.1124398" lon="8.1837783"><ele>324.0</ele><time>2026-04-18T09:11:18.179Z</time></trkpt><trkpt lat="45.1123698" lon="8.1838165"><ele>324.0</ele><time>2026-04-18T09:11:20.178Z</time></trkpt><trkpt lat="45.112285" lon="8.1838465"><ele>321.0</ele><time>2026-04-18T09:11:22.179Z</time></trkpt><trkpt lat="45.1121831" lon="8.1838743"><ele>318.0</ele><time>2026-04-18T09:11:24.178Z</time></trkpt><trkpt lat="45.1120824" lon="8.1838707"><ele>315.0</ele><time>2026-04-18T09:11:26.178Z</time></trkpt><trkpt lat="45.1119912" lon="8.1838546"><ele>312.0</ele><time>2026-04-18T09:11:28.178Z</time></trkpt><trkpt lat="45.1118857" lon="8.1838146"><ele>309.0</ele><time>2026-04-18T09:11:30.178Z</time></trkpt><trkpt lat="45.111799" lon="8.1838042"><ele>309.0</ele><time>2026-04-18T09:11:32.178Z</time></trkpt><trkpt lat="45.1117202" lon="8.183799"><ele>309.0</ele><time>2026-04-18T09:11:34.179Z</time></trkpt><trkpt lat="45.1116417" lon="8.183824"><ele>309.0</ele><time>2026-04-18T09:11:36.178Z</time></trkpt><trkpt lat="45.1115592" lon="8.183861"><ele>309.0</ele><time>2026-04-18T09:11:38.178Z</time></trkpt><trkpt lat="45.1114883" lon="8.1839178"><ele>309.0</ele><time>2026-04-18T09:11:40.178Z</time></trkpt><trkpt lat="45.1114114" lon="8.1839796"><ele>309.0</ele><time>2026-04-18T09:11:42.178Z</time></trkpt><trkpt lat="45.1113411" lon="8.1840621"><ele>309.6666666666667</ele><time>2026-04-18T09:11:44.178Z</time></trkpt><trkpt lat="45.1112846" lon="8.1841271"><ele>310.3333333333333</ele><time>2026-04-18T09:11:46.178Z</time></trkpt><trkpt lat="45.1112192" lon="8.18418"><ele>311.0</ele><time>2026-04-18T09:11:48.179Z</time></trkpt><trkpt lat="45.1111371" lon="8.1842063"><ele>311.66666666666663</ele><time>2026-04-18T09:11:51.178Z</time></trkpt><trkpt lat="45.1110754" lon="8.1842326"><ele>312.3333333333333</ele><time>2026-04-18T09:11:54.178Z</time></trkpt><trkpt lat="45.1110037" lon="8.1842745"><ele>313.0</ele><time>2026-04-18T09:11:57.178Z</time></trkpt><trkpt lat="45.1109746" lon="8.184386"><ele>313.0</ele><time>2026-04-18T09:11:59.178Z</time></trkpt><trkpt lat="45.1109482" lon="8.1845159"><ele>313.0</ele><time>2026-04-18T09:12:01.178Z</time></trkpt><trkpt lat="45.1109191" lon="8.1846751"><ele>313.0</ele><time>2026-04-18T09:12:03.178Z</time></trkpt><trkpt lat="45.1108999" lon="8.184763"><ele>313.0</ele><time>2026-04-18T09:12:04.179Z</time></trkpt><trkpt lat="45.1108824" lon="8.184852"><ele>313.0</ele><time>2026-04-18T09:12:05.178Z</time></trkpt><trkpt lat="45.110867" lon="8.1849461"><ele>313.0</ele><time>2026-04-18T09:12:06.178Z</time></trkpt><trkpt lat="45.1108475" lon="8.1850403"><ele>312.3333333333333</ele><time>2026-04-18T09:12:07.179Z</time></trkpt><trkpt lat="45.110819" lon="8.1851465"><ele>311.66666666666663</ele><time>2026-04-18T09:12:08.178Z</time></trkpt><trkpt lat="45.1107875" lon="8.1852417"><ele>311.0</ele><time>2026-04-18T09:12:09.179Z</time></trkpt><trkpt lat="45.1107588" lon="8.18534"><ele>310.3333333333333</ele><time>2026-04-18T09:12:10.178Z</time></trkpt><trkpt lat="45.1107362" lon="8.1854437"><ele>309.6666666666667</ele><time>2026-04-18T09:12:11.178Z</time></trkpt><trkpt lat="45.1107054" lon="8.1855418"><ele>309.0</ele><time>2026-04-18T09:12:12.178Z</time></trkpt><trkpt lat="45.1106699" lon="8.1856402"><ele>305.8333333333333</ele><time>2026-04-18T09:12:13.178Z</time></trkpt><trkpt lat="45.1106317" lon="8.1857561"><ele>302.6666666666667</ele><time>2026-04-18T09:12:14.179Z</time></trkpt><trkpt lat="45.1105903" lon="8.185876"><ele>299.5</ele><time>2026-04-18T09:12:15.178Z</time></trkpt><trkpt lat="45.1105527" lon="8.1859898"><ele>296.33333333333337</ele><time>2026-04-18T09:12:16.178Z</time></trkpt><trkpt lat="45.1105143" lon="8.1860929"><ele>293.1666666666667</ele><time>2026-04-18T09:12:17.179Z</time></trkpt><trkpt lat="45.1104768" lon="8.1862064"><ele>290.0</ele><time>2026-04-18T09:12:18.178Z</time></trkpt><trkpt lat="45.1104395" lon="8.1863187"><ele>290.0</ele><time>2026-04-18T09:12:19.178Z</time></trkpt><trkpt lat="45.1104009" lon="8.1864168"><ele>290.0</ele><time>2026-04-18T09:12:20.178Z</time></trkpt><trkpt lat="45.1103554" lon="8.1865258"><ele>290.0</ele><time>2026-04-18T09:12:21.178Z</time></trkpt><trkpt lat="45.1103036" lon="8.186628"><ele>290.0</ele><time>2026-04-18T09:12:22.178Z</time></trkpt><trkpt lat="45.1102371" lon="8.1867127"><ele>290.0</ele><time>2026-04-18T09:12:23.178Z</time></trkpt><trkpt lat="45.1101674" lon="8.1867927"><ele>290.0</ele><time>2026-04-18T09:12:24.178Z</time></trkpt><trkpt lat="45.1100914" lon="8.1868596"><ele>291.5</ele><time>2026-04-18T09:12:25.178Z</time></trkpt><trkpt lat="45.1100121" lon="8.1869116"><ele>293.0</ele><time>2026-04-18T09:12:26.178Z</time></trkpt><trkpt lat="45.1099265" lon="8.1869369"><ele>294.5</ele><time>2026-04-18T09:12:27.178Z</time></trkpt><trkpt lat="45.1098319" lon="8.1869435"><ele>296.0</ele><time>2026-04-18T09:12:28.178Z</time></trkpt><trkpt lat="45.1097532" lon="8.1869409"><ele>297.5</ele><time>2026-04-18T09:12:29.178Z</time></trkpt><trkpt lat="45.1096868" lon="8.1869555"><ele>299.0</ele><time>2026-04-18T09:12:30.178Z</time></trkpt><trkpt lat="45.1096225" lon="8.1869959"><ele>299.0</ele><time>2026-04-18T09:12:31.178Z</time></trkpt><trkpt lat="45.1095693" lon="8.1870438"><ele>299.0</ele><time>2026-04-18T09:12:32.178Z</time></trkpt><trkpt lat="45.1094916" lon="8.1871843"><ele>299.0</ele><time>2026-04-18T09:12:34.178Z</time></trkpt><trkpt lat="45.1094435" lon="8.1872731"><ele>299.0</ele><time>2026-04-18T09:12:35.178Z</time></trkpt><trkpt lat="45.1093995" lon="8.1873532"><ele>299.0</ele><time>2026-04-18T09:12:36.178Z</time></trkpt><trkpt lat="45.1093558" lon="8.1874325"><ele>299.0</ele><time>2026-04-18T09:12:37.178Z</time></trkpt><trkpt lat="45.1093055" lon="8.1874923"><ele>299.6666666666667</ele><time>2026-04-18T09:12:38.179Z</time></trkpt><trkpt lat="45.1092414" lon="8.1875267"><ele>300.33333333333337</ele><time>2026-04-18T09:12:39.178Z</time></trkpt><trkpt lat="45.109174" lon="8.1875447"><ele>301.0</ele><time>2026-04-18T09:12:40.178Z</time></trkpt><trkpt lat="45.1090995" lon="8.1875468"><ele>301.6666666666667</ele><time>2026-04-18T09:12:41.178Z</time></trkpt><trkpt lat="45.1090082" lon="8.1875736"><ele>302.3333333333333</ele><time>2026-04-18T09:12:43.178Z</time></trkpt><trkpt lat="45.1089162" lon="8.1876725"><ele>303.0</ele><time>2026-04-18T09:12:45.178Z</time></trkpt><trkpt lat="45.1088757" lon="8.187744"><ele>303.0</ele><time>2026-04-18T09:12:46.178Z</time></trkpt><trkpt lat="45.1088342" lon="8.1878207"><ele>303.0</ele><time>2026-04-18T09:12:47.179Z</time></trkpt><trkpt lat="45.1087894" lon="8.1879044"><ele>303.0</ele><time>2026-04-18T09:12:48.179Z</time></trkpt><trkpt lat="45.1087497" lon="8.1879821"><ele>303.0</ele><time>2026-04-18T09:12:49.178Z</time></trkpt><trkpt lat="45.1087082" lon="8.1880606"><ele>303.0</ele><time>2026-04-18T09:12:50.179Z</time></trkpt><trkpt lat="45.1086568" lon="8.188137"><ele>303.0</ele><time>2026-04-18T09:12:51.179Z</time></trkpt><trkpt lat="45.1086052" lon="8.1882052"><ele>303.0</ele><time>2026-04-18T09:12:52.178Z</time></trkpt><trkpt lat="45.1085522" lon="8.1882634"><ele>305.0</ele><time>2026-04-18T09:12:53.179Z</time></trkpt><trkpt lat="45.1084948" lon="8.1883055"><ele>307.0</ele><time>2026-04-18T09:12:54.178Z</time></trkpt><trkpt lat="45.1084344" lon="8.1883329"><ele>309.0</ele><time>2026-04-18T09:12:55.178Z</time></trkpt><trkpt lat="45.1083669" lon="8.1883425"><ele>311.0</ele><time>2026-04-18T09:12:56.178Z</time></trkpt><trkpt lat="45.1083008" lon="8.1883457"><ele>313.0</ele><time>2026-04-18T09:12:57.178Z</time></trkpt><trkpt lat="45.1082218" lon="8.1883522"><ele>315.0</ele><time>2026-04-18T09:12:58.178Z</time></trkpt><trkpt lat="45.1081475" lon="8.188364"><ele>317.0</ele><time>2026-04-18T09:12:59.178Z</time></trkpt><trkpt lat="45.1080833" lon="8.1883869"><ele>317.0</ele><time>2026-04-18T09:13:00.178Z</time></trkpt><trkpt lat="45.108016" lon="8.1883955"><ele>317.0</ele><time>2026-04-18T09:13:01.178Z</time></trkpt><trkpt lat="45.1079454" lon="8.1884152"><ele>317.0</ele><time>2026-04-18T09:13:02.178Z</time></trkpt><trkpt lat="45.1078812" lon="8.1884364"><ele>317.0</ele><time>2026-04-18T09:13:03.178Z</time></trkpt><trkpt lat="45.1077709" lon="8.1884805"><ele>317.0</ele><time>2026-04-18T09:13:05.178Z</time></trkpt><trkpt lat="45.1076468" lon="8.1885081"><ele>317.0</ele><time>2026-04-18T09:13:07.178Z</time></trkpt><trkpt lat="45.1075759" lon="8.1885122"><ele>317.0</ele><time>2026-04-18T09:13:08.178Z</time></trkpt><trkpt lat="45.1075003" lon="8.1885063"><ele>317.0</ele><time>2026-04-18T09:13:09.178Z</time></trkpt><trkpt lat="45.1074244" lon="8.1885026"><ele>317.0</ele><time>2026-04-18T09:13:10.178Z</time></trkpt><trkpt lat="45.1073443" lon="8.1884974"><ele>317.0</ele><time>2026-04-18T09:13:11.178Z</time></trkpt><trkpt lat="45.1072627" lon="8.1884817"><ele>317.0</ele><time>2026-04-18T09:13:12.178Z</time></trkpt><trkpt lat="45.1071821" lon="8.1884681"><ele>317.0</ele><time>2026-04-18T09:13:13.178Z</time></trkpt><trkpt lat="45.1071006" lon="8.1884545"><ele>315.5</ele><time>2026-04-18T09:13:14.178Z</time></trkpt><trkpt lat="45.1070168" lon="8.1884486"><ele>314.0</ele><time>2026-04-18T09:13:15.178Z</time></trkpt><trkpt lat="45.1069307" lon="8.1884512"><ele>312.5</ele><time>2026-04-18T09:13:16.178Z</time></trkpt><trkpt lat="45.1068501" lon="8.1884774"><ele>311.0</ele><time>2026-04-18T09:13:17.178Z</time></trkpt><trkpt lat="45.1067637" lon="8.1884871"><ele>309.5</ele><time>2026-04-18T09:13:18.178Z</time></trkpt><trkpt lat="45.1066801" lon="8.1884941"><ele>308.0</ele><time>2026-04-18T09:13:19.178Z</time></trkpt><trkpt lat="45.1065971" lon="8.188507"><ele>303.5</ele><time>2026-04-18T09:13:20.178Z</time></trkpt><trkpt lat="45.1065088" lon="8.1885125"><ele>299.0</ele><time>2026-04-18T09:13:21.178Z</time></trkpt><trkpt lat="45.1064226" lon="8.1885069"><ele>294.5</ele><time>2026-04-18T09:13:22.178Z</time></trkpt><trkpt lat="45.1063462" lon="8.1885115"><ele>290.0</ele><time>2026-04-18T09:13:23.178Z</time></trkpt><trkpt lat="45.1062797" lon="8.1885292"><ele>285.5</ele><time>2026-04-18T09:13:24.179Z</time></trkpt><trkpt lat="45.1061604" lon="8.1885605"><ele>281.0</ele><time>2026-04-18T09:13:26.178Z</time></trkpt><trkpt lat="45.1060569" lon="8.1886384"><ele>281.0</ele><time>2026-04-18T09:13:28.178Z</time></trkpt><trkpt lat="45.1059903" lon="8.1887767"><ele>281.0</ele><time>2026-04-18T09:13:30.178Z</time></trkpt><trkpt lat="45.1059806" lon="8.1888659"><ele>281.0</ele><time>2026-04-18T09:13:31.178Z</time></trkpt><trkpt lat="45.1059846" lon="8.1889575"><ele>281.0</ele><time>2026-04-18T09:13:32.178Z</time></trkpt><trkpt lat="45.1060071" lon="8.1891341"><ele>281.0</ele><time>2026-04-18T09:13:34.179Z</time></trkpt><trkpt lat="45.1060196" lon="8.1892239"><ele>281.0</ele><time>2026-04-18T09:13:35.178Z</time></trkpt><trkpt lat="45.1060517" lon="8.1893789"><ele>281.40000000000003</ele><time>2026-04-18T09:13:37.178Z</time></trkpt><trkpt lat="45.1060545" lon="8.189519"><ele>281.8</ele><time>2026-04-18T09:13:39.178Z</time></trkpt><trkpt lat="45.1059901" lon="8.1896346"><ele>282.20000000000005</ele><time>2026-04-18T09:13:41.179Z</time></trkpt><trkpt lat="45.1059107" lon="8.1897283"><ele>282.6</ele><time>2026-04-18T09:13:43.178Z</time></trkpt><trkpt lat="45.1058113" lon="8.1898495"><ele>283.0</ele><time>2026-04-18T09:13:45.179Z</time></trkpt><trkpt lat="45.1057233" lon="8.1899578"><ele>281.6</ele><time>2026-04-18T09:13:47.178Z</time></trkpt><trkpt lat="45.1056314" lon="8.1900481"><ele>280.20000000000005</ele><time>2026-04-18T09:13:49.178Z</time></trkpt><trkpt lat="45.1055426" lon="8.1901267"><ele>278.8</ele><time>2026-04-18T09:13:51.178Z</time></trkpt><trkpt lat="45.1054343" lon="8.1901548"><ele>277.40000000000003</ele><time>2026-04-18T09:13:53.179Z</time></trkpt><trkpt lat="45.1053213" lon="8.1901471"><ele>276.0</ele><time>2026-04-18T09:13:55.178Z</time></trkpt><trkpt lat="45.1052011" lon="8.1901805"><ele>276.0</ele><time>2026-04-18T09:13:57.178Z</time></trkpt><trkpt lat="45.1050898" lon="8.1902492"><ele>276.0</ele><time>2026-04-18T09:13:59.178Z</time></trkpt><trkpt lat="45.1050273" lon="8.1902927"><ele>276.0</ele><time>2026-04-18T09:14:00.178Z</time></trkpt><trkpt lat="45.104968" lon="8.1903276"><ele>276.0</ele><time>2026-04-18T09:14:01.178Z</time></trkpt><trkpt lat="45.1048588" lon="8.1904185"><ele>276.0</ele><time>2026-04-18T09:14:03.178Z</time></trkpt><trkpt lat="45.1048008" lon="8.1904613"><ele>276.0</ele><time>2026-04-18T09:14:04.178Z</time></trkpt><trkpt lat="45.1047435" lon="8.1905093"><ele>275.3333333333333</ele><time>2026-04-18T09:14:05.178Z</time></trkpt><trkpt lat="45.1046225" lon="8.1905882"><ele>274.6666666666667</ele><time>2026-04-18T09:14:07.178Z</time></trkpt><trkpt lat="45.1045544" lon="8.1906224"><ele>274.0</ele><time>2026-04-18T09:14:08.178Z</time></trkpt><trkpt lat="45.1044952" lon="8.190669"><ele>273.33333333333337</ele><time>2026-04-18T09:14:09.178Z</time></trkpt><trkpt lat="45.1044412" lon="8.190724"><ele>272.6666666666667</ele><time>2026-04-18T09:14:10.178Z</time></trkpt><trkpt lat="45.1043855" lon="8.1907749"><ele>272.0</ele><time>2026-04-18T09:14:11.178Z</time></trkpt><trkpt lat="45.1043304" lon="8.1908261"><ele>272.0</ele><time>2026-04-18T09:14:12.178Z</time></trkpt><trkpt lat="45.1042732" lon="8.1908815"><ele>272.0</ele><time>2026-04-18T09:14:13.178Z</time></trkpt><trkpt lat="45.1042247" lon="8.1909401"><ele>272.0</ele><time>2026-04-18T09:14:14.178Z</time></trkpt><trkpt lat="45.104175" lon="8.191"><ele>272.0</ele><time>2026-04-18T09:14:15.178Z</time></trkpt><trkpt lat="45.1040954" lon="8.1911208"><ele>272.0</ele><time>2026-04-18T09:14:17.178Z</time></trkpt><trkpt lat="45.1040361" lon="8.1912656"><ele>272.0</ele><time>2026-04-18T09:14:19.178Z</time></trkpt><trkpt lat="45.1039576" lon="8.1913614"><ele>268.4</ele><time>2026-04-18T09:14:21.178Z</time></trkpt><trkpt lat="45.1038681" lon="8.1913452"><ele>264.79999999999995</ele><time>2026-04-18T09:14:23.178Z</time></trkpt><trkpt lat="45.103778" lon="8.191259"><ele>261.2</ele><time>2026-04-18T09:14:25.179Z</time></trkpt><trkpt lat="45.1037189" lon="8.1911297"><ele>257.59999999999997</ele><time>2026-04-18T09:14:27.178Z</time></trkpt><trkpt lat="45.1037016" lon="8.1909878"><ele>254.0</ele><time>2026-04-18T09:14:29.178Z</time></trkpt><trkpt lat="45.1036709" lon="8.1908555"><ele>254.0</ele><time>2026-04-18T09:14:31.178Z</time></trkpt><trkpt lat="45.1035828" lon="8.1907721"><ele>253.99999999999997</ele><time>2026-04-18T09:14:33.178Z</time></trkpt><trkpt lat="45.1034774" lon="8.1908167"><ele>253.99999999999997</ele><time>2026-04-18T09:14:35.178Z</time></trkpt><trkpt lat="45.1034121" lon="8.1909412"><ele>254.0</ele><time>2026-04-18T09:14:37.178Z</time></trkpt><trkpt lat="45.1034362" lon="8.1910765"><ele>254.0</ele><time>2026-04-18T09:14:39.178Z</time></trkpt><trkpt lat="45.1035029" lon="8.1912089"><ele>254.0</ele><time>2026-04-18T09:14:41.178Z</time></trkpt><trkpt lat="45.1035758" lon="8.1913328"><ele>253.99999999999997</ele><time>2026-04-18T09:14:43.179Z</time></trkpt><trkpt lat="45.1036531" lon="8.1914528"><ele>253.99999999999997</ele><time>2026-04-18T09:14:45.178Z</time></trkpt><trkpt lat="45.1037235" lon="8.1915743"><ele>254.0</ele><time>2026-04-18T09:14:47.178Z</time></trkpt><trkpt lat="45.1037424" lon="8.1916797"><ele>254.0</ele><time>2026-04-18T09:14:49.179Z</time></trkpt><trkpt lat="45.1036714" lon="8.1917335"><ele>254.0</ele><time>2026-04-18T09:14:51.178Z</time></trkpt><trkpt lat="45.1035616" lon="8.1916668"><ele>253.99999999999997</ele><time>2026-04-18T09:14:53.179Z</time></trkpt><trkpt lat="45.1034994" lon="8.191618"><ele>253.99999999999997</ele><time>2026-04-18T09:14:54.178Z</time></trkpt><trkpt lat="45.1034286" lon="8.1915612"><ele>254.0</ele><time>2026-04-18T09:14:55.178Z</time></trkpt><trkpt lat="45.1033453" lon="8.1915126"><ele>254.0</ele><time>2026-04-18T09:14:56.178Z</time></trkpt><trkpt lat="45.1032606" lon="8.1914584"><ele>250.16666666666669</ele><time>2026-04-18T09:14:57.178Z</time></trkpt><trkpt lat="45.1031803" lon="8.1914067"><ele>246.33333333333334</ele><time>2026-04-18T09:14:58.179Z</time></trkpt><trkpt lat="45.1031099" lon="8.1913512"><ele>242.5</ele><time>2026-04-18T09:14:59.179Z</time></trkpt><trkpt lat="45.1030513" lon="8.1912884"><ele>238.66666666666669</ele><time>2026-04-18T09:15:00.178Z</time></trkpt><trkpt lat="45.1029982" lon="8.1912016"><ele>234.83333333333334</ele><time>2026-04-18T09:15:01.178Z</time></trkpt><trkpt lat="45.1029689" lon="8.1911124"><ele>231.0</ele><time>2026-04-18T09:15:02.178Z</time></trkpt><trkpt lat="45.1029581" lon="8.1910161"><ele>231.0</ele><time>2026-04-18T09:15:03.178Z</time></trkpt><trkpt lat="45.1029515" lon="8.1909109"><ele>231.0</ele><time>2026-04-18T09:15:04.178Z</time></trkpt><trkpt lat="45.1029444" lon="8.1907851"><ele>231.0</ele><time>2026-04-18T09:15:05.178Z</time></trkpt><trkpt lat="45.10293" lon="8.1906519"><ele>231.0</ele><time>2026-04-18T09:15:06.178Z</time></trkpt><trkpt lat="45.1029279" lon="8.1905276"><ele>231.0</ele><time>2026-04-18T09:15:07.178Z</time></trkpt><trkpt lat="45.1029384" lon="8.1904022"><ele>231.0</ele><time>2026-04-18T09:15:08.178Z</time></trkpt><trkpt lat="45.1029515" lon="8.1902795"><ele>230.66666666666666</ele><time>2026-04-18T09:15:09.178Z</time></trkpt><trkpt lat="45.1029727" lon="8.1901572"><ele>230.33333333333331</ele><time>2026-04-18T09:15:10.179Z</time></trkpt><trkpt lat="45.1030098" lon="8.1900436"><ele>230.0</ele><time>2026-04-18T09:15:11.178Z</time></trkpt><trkpt lat="45.1030493" lon="8.189943"><ele>229.66666666666666</ele><time>2026-04-18T09:15:12.178Z</time></trkpt><trkpt lat="45.10309" lon="8.1898366"><ele>229.33333333333331</ele><time>2026-04-18T09:15:13.179Z</time></trkpt><trkpt lat="45.1031274" lon="8.1897362"><ele>229.0</ele><time>2026-04-18T09:15:14.179Z</time></trkpt><trkpt lat="45.1031526" lon="8.1896455"><ele>228.2</ele><time>2026-04-18T09:15:15.179Z</time></trkpt><trkpt lat="45.1031431" lon="8.1894788"><ele>227.39999999999998</ele><time>2026-04-18T09:15:17.178Z</time></trkpt><trkpt lat="45.1030569" lon="8.1893623"><ele>226.6</ele><time>2026-04-18T09:15:19.178Z</time></trkpt><trkpt lat="45.1029991" lon="8.1893108"><ele>225.8</ele><time>2026-04-18T09:15:20.178Z</time></trkpt><trkpt lat="45.1029277" lon="8.1892549"><ele>225.0</ele><time>2026-04-18T09:15:21.179Z</time></trkpt><trkpt lat="45.1028498" lon="8.1892143"><ele>225.0</ele><time>2026-04-18T09:15:22.178Z</time></trkpt><trkpt lat="45.1027742" lon="8.1891754"><ele>225.0</ele><time>2026-04-18T09:15:23.179Z</time></trkpt><trkpt lat="45.1026966" lon="8.1891289"><ele>225.0</ele><time>2026-04-18T09:15:24.178Z</time></trkpt><trkpt lat="45.1026271" lon="8.1890804"><ele>225.0</ele><time>2026-04-18T09:15:25.179Z</time></trkpt><trkpt lat="45.1025568" lon="8.1890311"><ele>225.0</ele><time>2026-04-18T09:15:26.179Z</time></trkpt><trkpt lat="45.1024811" lon="8.1890015"><ele>225.0</ele><time>2026-04-18T09:15:27.178Z</time></trkpt><trkpt lat="45.1024089" lon="8.1889938"><ele>223.5</ele><time>2026-04-18T09:15:28.178Z</time></trkpt><trkpt lat="45.1023449" lon="8.1890134"><ele>222.0</ele><time>2026-04-18T09:15:29.178Z</time></trkpt><trkpt lat="45.1022753" lon="8.1890632"><ele>220.5</ele><time>2026-04-18T09:15:30.178Z</time></trkpt><trkpt lat="45.1022179" lon="8.1891252"><ele>219.0</ele><time>2026-04-18T09:15:31.179Z</time></trkpt><trkpt lat="45.1021648" lon="8.189181"><ele>217.5</ele><time>2026-04-18T09:15:32.178Z</time></trkpt><trkpt lat="45.1020741" lon="8.1892757"><ele>216.0</ele><time>2026-04-18T09:15:34.178Z</time></trkpt><trkpt lat="45.1020155" lon="8.1893673"><ele>216.0</ele><time>2026-04-18T09:15:36.178Z</time></trkpt><trkpt lat="45.1019784" lon="8.1895296"><ele>216.00000000000003</ele><time>2026-04-18T09:15:38.178Z</time></trkpt><trkpt lat="45.1019671" lon="8.1896278"><ele>216.00000000000003</ele><time>2026-04-18T09:15:39.178Z</time></trkpt><trkpt lat="45.1019625" lon="8.1897387"><ele>216.0</ele><time>2026-04-18T09:15:40.179Z</time></trkpt><trkpt lat="45.1019539" lon="8.189866"><ele>216.0</ele><time>2026-04-18T09:15:41.178Z</time></trkpt><trkpt lat="45.1019357" lon="8.1900029"><ele>216.60000000000002</ele><time>2026-04-18T09:15:42.178Z</time></trkpt><trkpt lat="45.10192" lon="8.1901553"><ele>217.20000000000002</ele><time>2026-04-18T09:15:43.178Z</time></trkpt><trkpt lat="45.1019111" lon="8.1903144"><ele>217.79999999999998</ele><time>2026-04-18T09:15:44.178Z</time></trkpt><trkpt lat="45.1019131" lon="8.190464"><ele>218.39999999999998</ele><time>2026-04-18T09:15:45.178Z</time></trkpt><trkpt lat="45.1019159" lon="8.1906191"><ele>219.0</ele><time>2026-04-18T09:15:46.178Z</time></trkpt><trkpt lat="45.1019128" lon="8.190782"><ele>217.6</ele><time>2026-04-18T09:15:47.178Z</time></trkpt><trkpt lat="45.1019151" lon="8.190942"><ele>216.2</ele><time>2026-04-18T09:15:48.178Z</time></trkpt><trkpt lat="45.1019149" lon="8.191102"><ele>214.79999999999998</ele><time>2026-04-18T09:15:49.178Z</time></trkpt><trkpt lat="45.1019127" lon="8.1912592"><ele>213.39999999999998</ele><time>2026-04-18T09:15:50.178Z</time></trkpt><trkpt lat="45.1019112" lon="8.1914048"><ele>212.0</ele><time>2026-04-18T09:15:51.178Z</time></trkpt><trkpt lat="45.1019097" lon="8.1915512"><ele>210.6</ele><time>2026-04-18T09:15:52.178Z</time></trkpt><trkpt lat="45.1019108" lon="8.1916917"><ele>209.2</ele><time>2026-04-18T09:15:53.178Z</time></trkpt><trkpt lat="45.1019111" lon="8.191828"><ele>207.8</ele><time>2026-04-18T09:15:54.178Z</time></trkpt><trkpt lat="45.1019218" lon="8.1919642"><ele>206.4</ele><time>2026-04-18T09:15:55.178Z</time></trkpt><trkpt lat="45.1019524" lon="8.1920954"><ele>205.0</ele><time>2026-04-18T09:15:56.178Z</time></trkpt><trkpt lat="45.1019951" lon="8.1922096"><ele>204.99999999999997</ele><time>2026-04-18T09:15:57.178Z</time></trkpt><trkpt lat="45.1020357" lon="8.1923133"><ele>205.0</ele><time>2026-04-18T09:15:58.178Z</time></trkpt><trkpt lat="45.1020769" lon="8.1924236"><ele>205.0</ele><time>2026-04-18T09:15:59.178Z</time></trkpt><trkpt lat="45.1021252" lon="8.1925301"><ele>205.0</ele><time>2026-04-18T09:16:00.178Z</time></trkpt><trkpt lat="45.1021701" lon="8.1926333"><ele>204.99999999999997</ele><time>2026-04-18T09:16:01.178Z</time></trkpt><trkpt lat="45.1022174" lon="8.1927286"><ele>205.0</ele><time>2026-04-18T09:16:02.178Z</time></trkpt><trkpt lat="45.1022598" lon="8.1928285"><ele>203.83333333333331</ele><time>2026-04-18T09:16:03.178Z</time></trkpt><trkpt lat="45.1022917" lon="8.1929331"><ele>202.66666666666666</ele><time>2026-04-18T09:16:04.179Z</time></trkpt><trkpt lat="45.1023021" lon="8.1930319"><ele>201.5</ele><time>2026-04-18T09:16:05.178Z</time></trkpt><trkpt lat="45.1022805" lon="8.193137"><ele>200.33333333333331</ele><time>2026-04-18T09:16:06.179Z</time></trkpt><trkpt lat="45.1022319" lon="8.1932241"><ele>199.16666666666666</ele><time>2026-04-18T09:16:07.179Z</time></trkpt><trkpt lat="45.1021679" lon="8.1932902"><ele>198.0</ele><time>2026-04-18T09:16:08.179Z</time></trkpt><trkpt lat="45.1020915" lon="8.1933592"><ele>196.8</ele><time>2026-04-18T09:16:09.178Z</time></trkpt><trkpt lat="45.1020151" lon="8.1934368"><ele>195.60000000000002</ele><time>2026-04-18T09:16:10.178Z</time></trkpt><trkpt lat="45.1019374" lon="8.1935207"><ele>194.39999999999998</ele><time>2026-04-18T09:16:11.178Z</time></trkpt><trkpt lat="45.1018579" lon="8.1936161"><ele>193.2</ele><time>2026-04-18T09:16:12.179Z</time></trkpt><trkpt lat="45.1017939" lon="8.1937237"><ele>192.0</ele><time>2026-04-18T09:16:13.178Z</time></trkpt><trkpt lat="45.1017309" lon="8.1938257"><ele>192.0</ele><time>2026-04-18T09:16:14.178Z</time></trkpt><trkpt lat="45.1016693" lon="8.193923"><ele>192.0</ele><time>2026-04-18T09:16:15.178Z</time></trkpt><trkpt lat="45.1016139" lon="8.1940106"><ele>192.0</ele><time>2026-04-18T09:16:16.179Z</time></trkpt><trkpt lat="45.1015629" lon="8.1940794"><ele>192.0</ele><time>2026-04-18T09:16:17.178Z</time></trkpt><trkpt lat="45.1015123" lon="8.1941552"><ele>192.0</ele><time>2026-04-18T09:16:18.178Z</time></trkpt><trkpt lat="45.1014498" lon="8.1942547"><ele>192.0</ele><time>2026-04-18T09:16:20.178Z</time></trkpt><trkpt lat="45.1014217" lon="8.1943738"><ele>191.39999999999998</ele><time>2026-04-18T09:16:31.178Z</time></trkpt><trkpt lat="45.1014871" lon="8.1944834"><ele>190.79999999999998</ele><time>2026-04-18T09:16:33.178Z</time></trkpt><trkpt lat="45.1015411" lon="8.1945451"><ele>190.2</ele><time>2026-04-18T09:16:34.178Z</time></trkpt><trkpt lat="45.1016019" lon="8.1946359"><ele>189.6</ele><time>2026-04-18T09:16:35.179Z</time></trkpt><trkpt lat="45.1016758" lon="8.1947258"><ele>189.0</ele><time>2026-04-18T09:16:36.178Z</time></trkpt><trkpt lat="45.1017545" lon="8.1948395"><ele>188.25</ele><time>2026-04-18T09:16:37.178Z</time></trkpt><trkpt lat="45.1018541" lon="8.1949602"><ele>187.5</ele><time>2026-04-18T09:16:38.178Z</time></trkpt><trkpt lat="45.1019608" lon="8.195093"><ele>186.75</ele><time>2026-04-18T09:16:39.178Z</time></trkpt><trkpt lat="45.1020822" lon="8.1952283"><ele>186.0</ele><time>2026-04-18T09:16:40.178Z</time></trkpt><trkpt lat="45.1022058" lon="8.195385"><ele>186.0</ele><time>2026-04-18T09:16:41.178Z</time></trkpt><trkpt lat="45.1023381" lon="8.1955536"><ele>186.0</ele><time>2026-04-18T09:16:42.178Z</time></trkpt><trkpt lat="45.1024691" lon="8.1957297"><ele>186.0</ele><time>2026-04-18T09:16:43.179Z</time></trkpt><trkpt lat="45.1026001" lon="8.1959026"><ele>184.66666666666666</ele><time>2026-04-18T09:16:44.179Z</time></trkpt><trkpt lat="45.1027333" lon="8.196077"><ele>183.33333333333331</ele><time>2026-04-18T09:16:45.178Z</time></trkpt><trkpt lat="45.1028682" lon="8.1962422"><ele>182.0</ele><time>2026-04-18T09:16:46.178Z</time></trkpt><trkpt lat="45.1030001" lon="8.1964055"><ele>182.66666666666666</ele><time>2026-04-18T09:16:47.179Z</time></trkpt><trkpt lat="45.103131" lon="8.1965682"><ele>183.33333333333334</ele><time>2026-04-18T09:16:48.178Z</time></trkpt><trkpt lat="45.1032562" lon="8.1967353"><ele>184.0</ele><time>2026-04-18T09:16:49.178Z</time></trkpt><trkpt lat="45.1033762" lon="8.1969039"><ele>184.33333333333334</ele><time>2026-04-18T09:16:50.178Z</time></trkpt><trkpt lat="45.1034989" lon="8.1970687"><ele>184.66666666666666</ele><time>2026-04-18T09:16:51.178Z</time></trkpt><trkpt lat="45.1036256" lon="8.1972267"><ele>185.0</ele><time>2026-04-18T09:16:52.179Z</time></trkpt><trkpt lat="45.1037486" lon="8.197384"><ele>185.0</ele><time>2026-04-18T09:16:53.178Z</time></trkpt><trkpt lat="45.1038697" lon="8.1975454"><ele>185.0</ele><time>2026-04-18T09:16:54.179Z</time></trkpt><trkpt lat="45.1039875" lon="8.1977122"><ele>185.0</ele><time>2026-04-18T09:16:55.178Z</time></trkpt><trkpt lat="45.1041084" lon="8.1978696"><ele>184.33333333333331</ele><time>2026-04-18T09:16:56.178Z</time></trkpt><trkpt lat="45.1042278" lon="8.1980249"><ele>183.66666666666666</ele><time>2026-04-18T09:16:57.178Z</time></trkpt><trkpt lat="45.1043436" lon="8.1981744"><ele>183.0</ele><time>2026-04-18T09:16:58.178Z</time></trkpt><trkpt lat="45.1044686" lon="8.1983254"><ele>182.0</ele><time>2026-04-18T09:16:59.178Z</time></trkpt><trkpt lat="45.1045896" lon="8.1984758"><ele>181.0</ele><time>2026-04-18T09:17:00.178Z</time></trkpt><trkpt lat="45.1047091" lon="8.198624"><ele>180.0</ele><time>2026-04-18T09:17:01.178Z</time></trkpt><trkpt lat="45.1048253" lon="8.1987812"><ele>180.66666666666666</ele><time>2026-04-18T09:17:02.178Z</time></trkpt><trkpt lat="45.1049443" lon="8.1989318"><ele>181.33333333333331</ele><time>2026-04-18T09:17:03.178Z</time></trkpt><trkpt lat="45.1050627" lon="8.1990877"><ele>182.0</ele><time>2026-04-18T09:17:04.179Z</time></trkpt><trkpt lat="45.1051833" lon="8.1992428"><ele>182.0</ele><time>2026-04-18T09:17:05.178Z</time></trkpt><trkpt lat="45.1053079" lon="8.199403"><ele>182.0</ele><time>2026-04-18T09:17:06.178Z</time></trkpt><trkpt lat="45.1054372" lon="8.1995646"><ele>182.0</ele><time>2026-04-18T09:17:07.179Z</time></trkpt><trkpt lat="45.1055633" lon="8.1997245"><ele>182.0</ele><time>2026-04-18T09:17:08.178Z</time></trkpt><trkpt lat="45.10569" lon="8.1998891"><ele>182.0</ele><time>2026-04-18T09:17:09.178Z</time></trkpt><trkpt lat="45.1058111" lon="8.2000516"><ele>182.0</ele><time>2026-04-18T09:17:10.178Z</time></trkpt><trkpt lat="45.1059359" lon="8.2002169"><ele>181.33333333333331</ele><time>2026-04-18T09:17:11.178Z</time></trkpt><trkpt lat="45.106056" lon="8.2003769"><ele>180.66666666666666</ele><time>2026-04-18T09:17:12.178Z</time></trkpt><trkpt lat="45.106174" lon="8.2005407"><ele>180.0</ele><time>2026-04-18T09:17:13.178Z</time></trkpt><trkpt lat="45.106295" lon="8.2006888"><ele>180.0</ele><time>2026-04-18T09:17:14.178Z</time></trkpt><trkpt lat="45.106412" lon="8.2008422"><ele>180.0</ele><time>2026-04-18T09:17:15.178Z</time></trkpt><trkpt lat="45.106528" lon="8.2009914"><ele>180.0</ele><time>2026-04-18T09:17:16.179Z</time></trkpt><trkpt lat="45.1066497" lon="8.2011478"><ele>179.66666666666666</ele><time>2026-04-18T09:17:17.178Z</time></trkpt><trkpt lat="45.1067717" lon="8.2013016"><ele>179.33333333333331</ele><time>2026-04-18T09:17:18.178Z</time></trkpt><trkpt lat="45.1068921" lon="8.2014545"><ele>179.0</ele><time>2026-04-18T09:17:19.178Z</time></trkpt><trkpt lat="45.107011" lon="8.2016132"><ele>178.33333333333331</ele><time>2026-04-18T09:17:20.178Z</time></trkpt><trkpt lat="45.1071328" lon="8.2017637"><ele>177.66666666666666</ele><time>2026-04-18T09:17:21.179Z</time></trkpt><trkpt lat="45.1072544" lon="8.2019168"><ele>177.0</ele><time>2026-04-18T09:17:22.178Z</time></trkpt><trkpt lat="45.1073779" lon="8.2020714"><ele>177.0</ele><time>2026-04-18T09:17:23.178Z</time></trkpt><trkpt lat="45.1074952" lon="8.2022311"><ele>177.0</ele><time>2026-04-18T09:17:24.178Z</time></trkpt><trkpt lat="45.1076129" lon="8.2023905"><ele>177.0</ele><time>2026-04-18T09:17:25.178Z</time></trkpt><trkpt lat="45.1077303" lon="8.202555"><ele>177.0</ele><time>2026-04-18T09:17:26.179Z</time></trkpt><trkpt lat="45.1078528" lon="8.2027181"><ele>177.0</ele><time>2026-04-18T09:17:27.178Z</time></trkpt><trkpt lat="45.1079752" lon="8.2028748"><ele>177.0</ele><time>2026-04-18T09:17:28.178Z</time></trkpt><trkpt lat="45.1080984" lon="8.2030339"><ele>175.66666666666666</ele><time>2026-04-18T09:17:29.178Z</time></trkpt><trkpt lat="45.1082215" lon="8.2031867"><ele>174.33333333333331</ele><time>2026-04-18T09:17:30.178Z</time></trkpt><trkpt lat="45.1083462" lon="8.2033409"><ele>173.0</ele><time>2026-04-18T09:17:31.178Z</time></trkpt><trkpt lat="45.1084673" lon="8.2034882"><ele>172.66666666666666</ele><time>2026-04-18T09:17:32.178Z</time></trkpt><trkpt lat="45.108585" lon="8.2036476"><ele>172.33333333333334</ele><time>2026-04-18T09:17:33.179Z</time></trkpt><trkpt lat="45.1087075" lon="8.203802"><ele>172.0</ele><time>2026-04-18T09:17:34.178Z</time></trkpt><trkpt lat="45.1088286" lon="8.2039565"><ele>172.33333333333334</ele><time>2026-04-18T09:17:35.178Z</time></trkpt><trkpt lat="45.1089548" lon="8.2041141"><ele>172.66666666666666</ele><time>2026-04-18T09:17:36.178Z</time></trkpt><trkpt lat="45.109077" lon="8.2042717"><ele>173.0</ele><time>2026-04-18T09:17:37.178Z</time></trkpt><trkpt lat="45.1091922" lon="8.2044315"><ele>173.0</ele><time>2026-04-18T09:17:38.179Z</time></trkpt><trkpt lat="45.109309" lon="8.2046025"><ele>173.0</ele><time>2026-04-18T09:17:39.178Z</time></trkpt><trkpt lat="45.1094151" lon="8.2047793"><ele>173.0</ele><time>2026-04-18T09:17:40.178Z</time></trkpt><trkpt lat="45.109515" lon="8.2049639"><ele>173.0</ele><time>2026-04-18T09:17:41.178Z</time></trkpt><trkpt lat="45.1095984" lon="8.2051614"><ele>173.0</ele><time>2026-04-18T09:17:42.178Z</time></trkpt><trkpt lat="45.109683" lon="8.20536"><ele>173.0</ele><time>2026-04-18T09:17:43.178Z</time></trkpt><trkpt lat="45.1097515" lon="8.205566"><ele>172.66666666666666</ele><time>2026-04-18T09:17:44.178Z</time></trkpt><trkpt lat="45.1098122" lon="8.2057757"><ele>172.33333333333334</ele><time>2026-04-18T09:17:45.178Z</time></trkpt><trkpt lat="45.1098629" lon="8.2059909"><ele>172.0</ele><time>2026-04-18T09:17:46.178Z</time></trkpt><trkpt lat="45.1099031" lon="8.2062182"><ele>172.66666666666669</ele><time>2026-04-18T09:17:47.178Z</time></trkpt><trkpt lat="45.1099371" lon="8.2064429"><ele>173.33333333333334</ele><time>2026-04-18T09:17:48.178Z</time></trkpt><trkpt lat="45.1099694" lon="8.2066618"><ele>174.0</ele><time>2026-04-18T09:17:49.178Z</time></trkpt><trkpt lat="45.1100048" lon="8.2068716"><ele>174.0</ele><time>2026-04-18T09:17:50.178Z</time></trkpt><trkpt lat="45.1100551" lon="8.2070809"><ele>174.0</ele><time>2026-04-18T09:17:51.178Z</time></trkpt><trkpt lat="45.1101186" lon="8.2072924"><ele>174.0</ele><time>2026-04-18T09:17:52.178Z</time></trkpt><trkpt lat="45.1101932" lon="8.2075008"><ele>173.66666666666666</ele><time>2026-04-18T09:17:53.178Z</time></trkpt><trkpt lat="45.1102755" lon="8.2076976"><ele>173.33333333333331</ele><time>2026-04-18T09:17:54.178Z</time></trkpt><trkpt lat="45.110373" lon="8.2078877"><ele>173.0</ele><time>2026-04-18T09:17:55.178Z</time></trkpt><trkpt lat="45.1104789" lon="8.2080701"><ele>173.0</ele><time>2026-04-18T09:17:56.178Z</time></trkpt><trkpt lat="45.1105924" lon="8.2082354"><ele>173.0</ele><time>2026-04-18T09:17:57.178Z</time></trkpt><trkpt lat="45.1107124" lon="8.2083911"><ele>173.0</ele><time>2026-04-18T09:17:58.178Z</time></trkpt><trkpt lat="45.1108358" lon="8.2085443"><ele>174.0</ele><time>2026-04-18T09:17:59.178Z</time></trkpt><trkpt lat="45.1109673" lon="8.2086854"><ele>175.0</ele><time>2026-04-18T09:18:00.178Z</time></trkpt><trkpt lat="45.1111021" lon="8.2088354"><ele>176.0</ele><time>2026-04-18T09:18:01.179Z</time></trkpt><trkpt lat="45.1112319" lon="8.2089786"><ele>174.66666666666666</ele><time>2026-04-18T09:18:02.179Z</time></trkpt><trkpt lat="45.1113662" lon="8.2091262"><ele>173.33333333333334</ele><time>2026-04-18T09:18:03.178Z</time></trkpt><trkpt lat="45.1115036" lon="8.2092778"><ele>172.0</ele><time>2026-04-18T09:18:04.179Z</time></trkpt><trkpt lat="45.1116376" lon="8.2094176"><ele>172.0</ele><time>2026-04-18T09:18:05.178Z</time></trkpt><trkpt lat="45.1117651" lon="8.2095517"><ele>172.0</ele><time>2026-04-18T09:18:06.177Z</time></trkpt><trkpt lat="45.1118798" lon="8.2096823"><ele>172.0</ele><time>2026-04-18T09:18:07.177Z</time></trkpt><trkpt lat="45.1119983" lon="8.2098018"><ele>171.5</ele><time>2026-04-18T09:18:08.177Z</time></trkpt><trkpt lat="45.1121199" lon="8.209929"><ele>171.0</ele><time>2026-04-18T09:18:09.177Z</time></trkpt><trkpt lat="45.1122376" lon="8.2100545"><ele>170.5</ele><time>2026-04-18T09:18:10.177Z</time></trkpt><trkpt lat="45.1123545" lon="8.2101862"><ele>170.0</ele><time>2026-04-18T09:18:11.177Z</time></trkpt><trkpt lat="45.1124679" lon="8.2103123"><ele>170.0</ele><time>2026-04-18T09:18:12.177Z</time></trkpt><trkpt lat="45.1125816" lon="8.2104411"><ele>170.0</ele><time>2026-04-18T09:18:13.178Z</time></trkpt><trkpt lat="45.1126934" lon="8.2105682"><ele>170.0</ele><time>2026-04-18T09:18:14.177Z</time></trkpt><trkpt lat="45.1127962" lon="8.21068"><ele>170.0</ele><time>2026-04-18T09:18:15.177Z</time></trkpt><trkpt lat="45.1128895" lon="8.2107796"><ele>169.8</ele><time>2026-04-18T09:18:16.177Z</time></trkpt><trkpt lat="45.112976" lon="8.2108733"><ele>169.6</ele><time>2026-04-18T09:18:17.177Z</time></trkpt><trkpt lat="45.1130617" lon="8.2109491"><ele>169.39999999999998</ele><time>2026-04-18T09:18:18.177Z</time></trkpt><trkpt lat="45.1131401" lon="8.2110381"><ele>169.2</ele><time>2026-04-18T09:18:19.177Z</time></trkpt><trkpt lat="45.113218" lon="8.2111291"><ele>169.0</ele><time>2026-04-18T09:18:20.177Z</time></trkpt><trkpt lat="45.1132957" lon="8.2112185"><ele>169.6</ele><time>2026-04-18T09:18:21.177Z</time></trkpt><trkpt lat="45.1133712" lon="8.2113132"><ele>170.2</ele><time>2026-04-18T09:18:22.177Z</time></trkpt><trkpt lat="45.1134519" lon="8.2114154"><ele>170.79999999999998</ele><time>2026-04-18T09:18:23.177Z</time></trkpt><trkpt lat="45.1135405" lon="8.2115121"><ele>171.39999999999998</ele><time>2026-04-18T09:18:24.178Z</time></trkpt><trkpt lat="45.1136232" lon="8.2116049"><ele>172.0</ele><time>2026-04-18T09:18:25.178Z</time></trkpt><trkpt lat="45.113701" lon="8.2116836"><ele>172.0</ele><time>2026-04-18T09:18:26.177Z</time></trkpt><trkpt lat="45.1137814" lon="8.2117585"><ele>172.0</ele><time>2026-04-18T09:18:27.177Z</time></trkpt><trkpt lat="45.1138713" lon="8.2118504"><ele>172.0</ele><time>2026-04-18T09:18:28.177Z</time></trkpt><trkpt lat="45.1139593" lon="8.2119423"><ele>172.0</ele><time>2026-04-18T09:18:29.177Z</time></trkpt><trkpt lat="45.1140547" lon="8.2120343"><ele>172.0</ele><time>2026-04-18T09:18:30.178Z</time></trkpt><trkpt lat="45.1141608" lon="8.2121376"><ele>172.0</ele><time>2026-04-18T09:18:31.177Z</time></trkpt><trkpt lat="45.1142688" lon="8.2122478"><ele>172.0</ele><time>2026-04-18T09:18:32.178Z</time></trkpt><trkpt lat="45.1143748" lon="8.2123622"><ele>172.0</ele><time>2026-04-18T09:18:33.177Z</time></trkpt><trkpt lat="45.1144774" lon="8.2124751"><ele>172.0</ele><time>2026-04-18T09:18:34.177Z</time></trkpt><trkpt lat="45.1145806" lon="8.212597"><ele>172.25</ele><time>2026-04-18T09:18:35.177Z</time></trkpt><trkpt lat="45.1146817" lon="8.2127201"><ele>172.5</ele><time>2026-04-18T09:18:36.177Z</time></trkpt><trkpt lat="45.1147809" lon="8.2128492"><ele>172.75</ele><time>2026-04-18T09:18:37.177Z</time></trkpt><trkpt lat="45.1148702" lon="8.2129864"><ele>173.0</ele><time>2026-04-18T09:18:38.177Z</time></trkpt><trkpt lat="45.1149565" lon="8.213134"><ele>172.5</ele><time>2026-04-18T09:18:39.177Z</time></trkpt><trkpt lat="45.1150389" lon="8.2132879"><ele>172.0</ele><time>2026-04-18T09:18:40.177Z</time></trkpt><trkpt lat="45.1151234" lon="8.2134481"><ele>171.5</ele><time>2026-04-18T09:18:41.177Z</time></trkpt><trkpt lat="45.1152049" lon="8.2136158"><ele>171.0</ele><time>2026-04-18T09:18:42.177Z</time></trkpt><trkpt lat="45.1152773" lon="8.2137951"><ele>171.0</ele><time>2026-04-18T09:18:43.177Z</time></trkpt><trkpt lat="45.1153395" lon="8.2139776"><ele>171.0</ele><time>2026-04-18T09:18:44.177Z</time></trkpt><trkpt lat="45.1153898" lon="8.2141565"><ele>171.0</ele><time>2026-04-18T09:18:45.178Z</time></trkpt><trkpt lat="45.1154355" lon="8.214337"><ele>171.0</ele><time>2026-04-18T09:18:46.177Z</time></trkpt><trkpt lat="45.1154729" lon="8.2145248"><ele>170.75</ele><time>2026-04-18T09:18:47.177Z</time></trkpt><trkpt lat="45.1155106" lon="8.2147103"><ele>170.5</ele><time>2026-04-18T09:18:48.177Z</time></trkpt><trkpt lat="45.1155395" lon="8.2149052"><ele>170.25</ele><time>2026-04-18T09:18:49.177Z</time></trkpt><trkpt lat="45.1155729" lon="8.2151024"><ele>170.0</ele><time>2026-04-18T09:18:50.177Z</time></trkpt><trkpt lat="45.1156095" lon="8.2152984"><ele>170.0</ele><time>2026-04-18T09:18:51.177Z</time></trkpt><trkpt lat="45.1156438" lon="8.2154811"><ele>170.0</ele><time>2026-04-18T09:18:52.178Z</time></trkpt><trkpt lat="45.1156737" lon="8.2156469"><ele>170.0</ele><time>2026-04-18T09:18:53.177Z</time></trkpt><trkpt lat="45.1157074" lon="8.2158092"><ele>170.0</ele><time>2026-04-18T09:18:54.177Z</time></trkpt><trkpt lat="45.1157379" lon="8.2159896"><ele>169.75</ele><time>2026-04-18T09:18:55.178Z</time></trkpt><trkpt lat="45.1157701" lon="8.2161807"><ele>169.5</ele><time>2026-04-18T09:18:56.177Z</time></trkpt><trkpt lat="45.1158053" lon="8.2163768"><ele>169.25</ele><time>2026-04-18T09:18:57.177Z</time></trkpt><trkpt lat="45.1158433" lon="8.2165717"><ele>169.0</ele><time>2026-04-18T09:18:58.178Z</time></trkpt><trkpt lat="45.1158784" lon="8.216782"><ele>168.66666666666669</ele><time>2026-04-18T09:18:59.177Z</time></trkpt><trkpt lat="45.1159151" lon="8.2169969"><ele>168.33333333333334</ele><time>2026-04-18T09:19:00.178Z</time></trkpt><trkpt lat="45.1159509" lon="8.2172042"><ele>168.0</ele><time>2026-04-18T09:19:01.177Z</time></trkpt><trkpt lat="45.1159921" lon="8.2174158"><ele>167.66666666666666</ele><time>2026-04-18T09:19:02.177Z</time></trkpt><trkpt lat="45.1160275" lon="8.2176301"><ele>167.33333333333331</ele><time>2026-04-18T09:19:03.177Z</time></trkpt><trkpt lat="45.1160646" lon="8.2178339"><ele>167.0</ele><time>2026-04-18T09:19:04.177Z</time></trkpt><trkpt lat="45.1160987" lon="8.2180366"><ele>167.25</ele><time>2026-04-18T09:19:05.177Z</time></trkpt><trkpt lat="45.1161392" lon="8.2182382"><ele>167.5</ele><time>2026-04-18T09:19:06.177Z</time></trkpt><trkpt lat="45.1161751" lon="8.2184333"><ele>167.75</ele><time>2026-04-18T09:19:07.177Z</time></trkpt><trkpt lat="45.1162078" lon="8.2186118"><ele>168.0</ele><time>2026-04-18T09:19:08.177Z</time></trkpt><trkpt lat="45.1162397" lon="8.2187752"><ele>168.0</ele><time>2026-04-18T09:19:09.177Z</time></trkpt><trkpt lat="45.1162739" lon="8.2189248"><ele>168.0</ele><time>2026-04-18T09:19:10.177Z</time></trkpt><trkpt lat="45.116305" lon="8.2190859"><ele>168.0</ele><time>2026-04-18T09:19:11.177Z</time></trkpt><trkpt lat="45.1163347" lon="8.2192658"><ele>168.0</ele><time>2026-04-18T09:19:12.177Z</time></trkpt><trkpt lat="45.1163622" lon="8.2194567"><ele>168.0</ele><time>2026-04-18T09:19:13.177Z</time></trkpt><trkpt lat="45.1163906" lon="8.2196597"><ele>168.0</ele><time>2026-04-18T09:19:14.178Z</time></trkpt><trkpt lat="45.1164283" lon="8.2198681"><ele>168.0</ele><time>2026-04-18T09:19:15.177Z</time></trkpt><trkpt lat="45.1164686" lon="8.2200847"><ele>167.66666666666666</ele><time>2026-04-18T09:19:16.177Z</time></trkpt><trkpt lat="45.1165097" lon="8.2203225"><ele>167.33333333333331</ele><time>2026-04-18T09:19:17.177Z</time></trkpt><trkpt lat="45.1165547" lon="8.2205659"><ele>167.0</ele><time>2026-04-18T09:19:18.177Z</time></trkpt><trkpt lat="45.1165968" lon="8.220815"><ele>167.0</ele><time>2026-04-18T09:19:19.177Z</time></trkpt><trkpt lat="45.1166429" lon="8.2210814"><ele>167.0</ele><time>2026-04-18T09:19:20.177Z</time></trkpt><trkpt lat="45.1166912" lon="8.2213713"><ele>167.0</ele><time>2026-04-18T09:19:21.177Z</time></trkpt><trkpt lat="45.1167445" lon="8.2216724"><ele>166.5</ele><time>2026-04-18T09:19:22.177Z</time></trkpt><trkpt lat="45.1168063" lon="8.2220036"><ele>166.0</ele><time>2026-04-18T09:19:23.177Z</time></trkpt><trkpt lat="45.1168675" lon="8.2223444"><ele>165.5</ele><time>2026-04-18T09:19:24.177Z</time></trkpt><trkpt lat="45.1169357" lon="8.2227054"><ele>165.0</ele><time>2026-04-18T09:19:25.177Z</time></trkpt><trkpt lat="45.1170067" lon="8.2230778"><ele>165.5</ele><time>2026-04-18T09:19:26.177Z</time></trkpt><trkpt lat="45.1170687" lon="8.2234507"><ele>166.0</ele><time>2026-04-18T09:19:27.177Z</time></trkpt><trkpt lat="45.1171333" lon="8.2238299"><ele>165.5</ele><time>2026-04-18T09:19:28.178Z</time></trkpt><trkpt lat="45.1172054" lon="8.2242091"><ele>165.0</ele><time>2026-04-18T09:19:29.178Z</time></trkpt><trkpt lat="45.1172748" lon="8.2245752"><ele>164.5</ele><time>2026-04-18T09:19:30.178Z</time></trkpt><trkpt lat="45.1173401" lon="8.224909"><ele>164.0</ele><time>2026-04-18T09:19:31.177Z</time></trkpt><trkpt lat="45.1173987" lon="8.22524"><ele>165.5</ele><time>2026-04-18T09:19:32.177Z</time></trkpt><trkpt lat="45.1174566" lon="8.2255593"><ele>167.0</ele><time>2026-04-18T09:19:33.178Z</time></trkpt><trkpt lat="45.11751" lon="8.225867"><ele>167.33333333333331</ele><time>2026-04-18T09:19:34.177Z</time></trkpt><trkpt lat="45.117562" lon="8.2261679"><ele>167.66666666666666</ele><time>2026-04-18T09:19:35.177Z</time></trkpt><trkpt lat="45.1176133" lon="8.2264604"><ele>168.0</ele><time>2026-04-18T09:19:36.177Z</time></trkpt><trkpt lat="45.1176635" lon="8.2267498"><ele>168.0</ele><time>2026-04-18T09:19:37.177Z</time></trkpt><trkpt lat="45.1177124" lon="8.2270379"><ele>168.0</ele><time>2026-04-18T09:19:38.178Z</time></trkpt><trkpt lat="45.1177667" lon="8.2273167"><ele>168.0</ele><time>2026-04-18T09:19:39.177Z</time></trkpt><trkpt lat="45.1178212" lon="8.2275846"><ele>166.33333333333334</ele><time>2026-04-18T09:19:40.177Z</time></trkpt><trkpt lat="45.117876" lon="8.2278524"><ele>164.66666666666669</ele><time>2026-04-18T09:19:41.177Z</time></trkpt><trkpt lat="45.1179251" lon="8.2281275"><ele>163.0</ele><time>2026-04-18T09:19:42.177Z</time></trkpt><trkpt lat="45.1179705" lon="8.2284083"><ele>162.66666666666669</ele><time>2026-04-18T09:19:43.177Z</time></trkpt><trkpt lat="45.1180198" lon="8.2286839"><ele>162.33333333333334</ele><time>2026-04-18T09:19:44.177Z</time></trkpt><trkpt lat="45.1180733" lon="8.2289569"><ele>162.0</ele><time>2026-04-18T09:19:45.177Z</time></trkpt><trkpt lat="45.1181237" lon="8.2292426"><ele>162.0</ele><time>2026-04-18T09:19:46.177Z</time></trkpt><trkpt lat="45.1181731" lon="8.2295274"><ele>162.0</ele><time>2026-04-18T09:19:47.177Z</time></trkpt><trkpt lat="45.1182276" lon="8.2298218"><ele>162.0</ele><time>2026-04-18T09:19:48.177Z</time></trkpt><trkpt lat="45.1182811" lon="8.2301138"><ele>162.33333333333334</ele><time>2026-04-18T09:19:49.177Z</time></trkpt><trkpt lat="45.118333" lon="8.230399"><ele>162.66666666666669</ele><time>2026-04-18T09:19:50.177Z</time></trkpt><trkpt lat="45.1183834" lon="8.2306917"><ele>163.0</ele><time>2026-04-18T09:19:51.177Z</time></trkpt><trkpt lat="45.1184339" lon="8.2309772"><ele>163.0</ele><time>2026-04-18T09:19:52.177Z</time></trkpt><trkpt lat="45.1184805" lon="8.2312716"><ele>163.0</ele><time>2026-04-18T09:19:53.177Z</time></trkpt><trkpt lat="45.1185327" lon="8.23156"><ele>163.0</ele><time>2026-04-18T09:19:54.177Z</time></trkpt><trkpt lat="45.1185849" lon="8.2318514"><ele>162.66666666666669</ele><time>2026-04-18T09:19:55.177Z</time></trkpt><trkpt lat="45.1186367" lon="8.2321435"><ele>162.33333333333334</ele><time>2026-04-18T09:19:56.177Z</time></trkpt><trkpt lat="45.1186895" lon="8.2324335"><ele>162.0</ele><time>2026-04-18T09:19:57.177Z</time></trkpt><trkpt lat="45.1187427" lon="8.2327259"><ele>162.0</ele><time>2026-04-18T09:19:58.177Z</time></trkpt><trkpt lat="45.1187927" lon="8.2330169"><ele>162.0</ele><time>2026-04-18T09:19:59.177Z</time></trkpt><trkpt lat="45.1188354" lon="8.2333063"><ele>162.0</ele><time>2026-04-18T09:20:00.178Z</time></trkpt><trkpt lat="45.1188743" lon="8.2335878"><ele>161.66666666666666</ele><time>2026-04-18T09:20:01.177Z</time></trkpt><trkpt lat="45.1189084" lon="8.2338653"><ele>161.33333333333331</ele><time>2026-04-18T09:20:02.177Z</time></trkpt><trkpt lat="45.1189307" lon="8.2341308"><ele>161.0</ele><time>2026-04-18T09:20:03.178Z</time></trkpt><trkpt lat="45.1189455" lon="8.2343946"><ele>160.66666666666666</ele><time>2026-04-18T09:20:04.177Z</time></trkpt><trkpt lat="45.1189534" lon="8.2346564"><ele>160.33333333333334</ele><time>2026-04-18T09:20:05.177Z</time></trkpt><trkpt lat="45.1189619" lon="8.2349087"><ele>160.0</ele><time>2026-04-18T09:20:06.177Z</time></trkpt><trkpt lat="45.1189633" lon="8.2351697"><ele>161.0</ele><time>2026-04-18T09:20:07.177Z</time></trkpt><trkpt lat="45.1189606" lon="8.2354303"><ele>162.0</ele><time>2026-04-18T09:20:08.177Z</time></trkpt><trkpt lat="45.1189613" lon="8.2356816"><ele>163.0</ele><time>2026-04-18T09:20:09.177Z</time></trkpt><trkpt lat="45.1189658" lon="8.2359331"><ele>162.66666666666669</ele><time>2026-04-18T09:20:10.177Z</time></trkpt><trkpt lat="45.1189649" lon="8.2361726"><ele>162.33333333333334</ele><time>2026-04-18T09:20:11.178Z</time></trkpt><trkpt lat="45.1189646" lon="8.2364124"><ele>162.0</ele><time>2026-04-18T09:20:12.177Z</time></trkpt><trkpt lat="45.1189652" lon="8.2366434"><ele>162.0</ele><time>2026-04-18T09:20:13.177Z</time></trkpt><trkpt lat="45.118967" lon="8.2368781"><ele>162.0</ele><time>2026-04-18T09:20:14.177Z</time></trkpt><trkpt lat="45.1189719" lon="8.2371158"><ele>162.0</ele><time>2026-04-18T09:20:15.178Z</time></trkpt><trkpt lat="45.1189749" lon="8.23735"><ele>162.0</ele><time>2026-04-18T09:20:16.177Z</time></trkpt><trkpt lat="45.1189707" lon="8.2375852"><ele>162.0</ele><time>2026-04-18T09:20:17.177Z</time></trkpt><trkpt lat="45.1189752" lon="8.2378183"><ele>162.0</ele><time>2026-04-18T09:20:18.177Z</time></trkpt><trkpt lat="45.1189744" lon="8.2380417"><ele>163.0</ele><time>2026-04-18T09:20:19.177Z</time></trkpt><trkpt lat="45.1189772" lon="8.2382658"><ele>164.0</ele><time>2026-04-18T09:20:20.177Z</time></trkpt><trkpt lat="45.1189763" lon="8.2384838"><ele>165.0</ele><time>2026-04-18T09:20:21.177Z</time></trkpt><trkpt lat="45.1189808" lon="8.2386966"><ele>165.0</ele><time>2026-04-18T09:20:22.177Z</time></trkpt><trkpt lat="45.1189766" lon="8.2389144"><ele>165.0</ele><time>2026-04-18T09:20:23.177Z</time></trkpt><trkpt lat="45.1189809" lon="8.2391335"><ele>165.0</ele><time>2026-04-18T09:20:24.177Z</time></trkpt><trkpt lat="45.1189827" lon="8.2393532"><ele>164.33333333333334</ele><time>2026-04-18T09:20:25.178Z</time></trkpt><trkpt lat="45.1189882" lon="8.2395764"><ele>163.66666666666669</ele><time>2026-04-18T09:20:26.177Z</time></trkpt><trkpt lat="45.1189912" lon="8.2397928"><ele>163.0</ele><time>2026-04-18T09:20:27.178Z</time></trkpt><trkpt lat="45.1189962" lon="8.2400209"><ele>162.33333333333334</ele><time>2026-04-18T09:20:28.177Z</time></trkpt><trkpt lat="45.1189976" lon="8.240241"><ele>161.66666666666666</ele><time>2026-04-18T09:20:29.177Z</time></trkpt><trkpt lat="45.1189962" lon="8.2404522"><ele>161.0</ele><time>2026-04-18T09:20:30.177Z</time></trkpt><trkpt lat="45.1189991" lon="8.2406616"><ele>161.0</ele><time>2026-04-18T09:20:31.177Z</time></trkpt><trkpt lat="45.1190011" lon="8.2408702"><ele>161.0</ele><time>2026-04-18T09:20:32.177Z</time></trkpt><trkpt lat="45.1189993" lon="8.2410786"><ele>161.0</ele><time>2026-04-18T09:20:33.177Z</time></trkpt><trkpt lat="45.1189975" lon="8.2412906"><ele>161.0</ele><time>2026-04-18T09:20:34.177Z</time></trkpt><trkpt lat="45.118997" lon="8.2415054"><ele>160.66666666666666</ele><time>2026-04-18T09:20:35.177Z</time></trkpt><trkpt lat="45.1189956" lon="8.2417174"><ele>160.33333333333334</ele><time>2026-04-18T09:20:36.177Z</time></trkpt><trkpt lat="45.1189942" lon="8.2419341"><ele>160.0</ele><time>2026-04-18T09:20:37.177Z</time></trkpt><trkpt lat="45.1189963" lon="8.2421465"><ele>159.75</ele><time>2026-04-18T09:20:38.177Z</time></trkpt><trkpt lat="45.1189981" lon="8.2423618"><ele>159.5</ele><time>2026-04-18T09:20:39.177Z</time></trkpt><trkpt lat="45.1189995" lon="8.2425583"><ele>159.25</ele><time>2026-04-18T09:20:40.177Z</time></trkpt><trkpt lat="45.1190007" lon="8.2427492"><ele>159.0</ele><time>2026-04-18T09:20:41.177Z</time></trkpt><trkpt lat="45.1190042" lon="8.2429406"><ele>159.0</ele><time>2026-04-18T09:20:42.177Z</time></trkpt><trkpt lat="45.1190035" lon="8.2431347"><ele>159.0</ele><time>2026-04-18T09:20:43.177Z</time></trkpt><trkpt lat="45.1190031" lon="8.2433178"><ele>159.0</ele><time>2026-04-18T09:20:44.177Z</time></trkpt><trkpt lat="45.1190057" lon="8.2435091"><ele>159.0</ele><time>2026-04-18T09:20:45.177Z</time></trkpt><trkpt lat="45.1190111" lon="8.243703"><ele>159.0</ele><time>2026-04-18T09:20:46.178Z</time></trkpt><trkpt lat="45.1190139" lon="8.2439037"><ele>159.0</ele><time>2026-04-18T09:20:47.177Z</time></trkpt><trkpt lat="45.1190182" lon="8.24411"><ele>159.0</ele><time>2026-04-18T09:20:48.178Z</time></trkpt><trkpt lat="45.1190167" lon="8.2443229"><ele>159.0</ele><time>2026-04-18T09:20:49.178Z</time></trkpt><trkpt lat="45.1190183" lon="8.2445366"><ele>159.0</ele><time>2026-04-18T09:20:50.177Z</time></trkpt><trkpt lat="45.11902" lon="8.2447528"><ele>159.0</ele><time>2026-04-18T09:20:51.177Z</time></trkpt><trkpt lat="45.1190203" lon="8.2449698"><ele>159.0</ele><time>2026-04-18T09:20:52.177Z</time></trkpt><trkpt lat="45.1190186" lon="8.2451922"><ele>159.0</ele><time>2026-04-18T09:20:53.177Z</time></trkpt><trkpt lat="45.1190199" lon="8.2454183"><ele>159.0</ele><time>2026-04-18T09:20:54.177Z</time></trkpt><trkpt lat="45.1190198" lon="8.2456451"><ele>159.0</ele><time>2026-04-18T09:20:55.177Z</time></trkpt><trkpt lat="45.1190216" lon="8.2458728"><ele>159.0</ele><time>2026-04-18T09:20:56.177Z</time></trkpt><trkpt lat="45.1190218" lon="8.2460961"><ele>159.0</ele><time>2026-04-18T09:20:57.177Z</time></trkpt><trkpt lat="45.1190231" lon="8.2463204"><ele>159.0</ele><time>2026-04-18T09:20:58.178Z</time></trkpt><trkpt lat="45.1190245" lon="8.2465461"><ele>158.33333333333334</ele><time>2026-04-18T09:20:59.177Z</time></trkpt><trkpt lat="45.1190238" lon="8.2467663"><ele>157.66666666666669</ele><time>2026-04-18T09:21:00.177Z</time></trkpt><trkpt lat="45.1190226" lon="8.2469903"><ele>157.0</ele><time>2026-04-18T09:21:01.177Z</time></trkpt><trkpt lat="45.1190234" lon="8.247217"><ele>157.33333333333334</ele><time>2026-04-18T09:21:02.177Z</time></trkpt><trkpt lat="45.1190233" lon="8.2474348"><ele>157.66666666666666</ele><time>2026-04-18T09:21:03.178Z</time></trkpt><trkpt lat="45.1190195" lon="8.2476588"><ele>158.0</ele><time>2026-04-18T09:21:04.177Z</time></trkpt><trkpt lat="45.1190198" lon="8.2478781"><ele>158.0</ele><time>2026-04-18T09:21:05.177Z</time></trkpt><trkpt lat="45.1190219" lon="8.248095"><ele>158.0</ele><time>2026-04-18T09:21:06.177Z</time></trkpt><trkpt lat="45.1190242" lon="8.2483061"><ele>158.0</ele><time>2026-04-18T09:21:07.177Z</time></trkpt><trkpt lat="45.1190249" lon="8.2485197"><ele>158.0</ele><time>2026-04-18T09:21:08.177Z</time></trkpt><trkpt lat="45.119027" lon="8.2487373"><ele>158.0</ele><time>2026-04-18T09:21:09.178Z</time></trkpt><trkpt lat="45.1190283" lon="8.2489572"><ele>158.0</ele><time>2026-04-18T09:21:10.177Z</time></trkpt><trkpt lat="45.1190315" lon="8.2491773"><ele>158.0</ele><time>2026-04-18T09:21:11.177Z</time></trkpt><trkpt lat="45.1190358" lon="8.2493927"><ele>158.0</ele><time>2026-04-18T09:21:12.177Z</time></trkpt><trkpt lat="45.1190384" lon="8.2496111"><ele>158.0</ele><time>2026-04-18T09:21:13.178Z</time></trkpt><trkpt lat="45.119035" lon="8.2498254"><ele>158.0</ele><time>2026-04-18T09:21:14.177Z</time></trkpt><trkpt lat="45.1190339" lon="8.250041"><ele>158.0</ele><time>2026-04-18T09:21:15.177Z</time></trkpt><trkpt lat="45.11904" lon="8.2502455"><ele>158.0</ele><time>2026-04-18T09:21:16.177Z</time></trkpt><trkpt lat="45.1190472" lon="8.2504472"><ele>158.0</ele><time>2026-04-18T09:21:17.178Z</time></trkpt><trkpt lat="45.1190484" lon="8.2506473"><ele>157.5</ele><time>2026-04-18T09:21:18.177Z</time></trkpt><trkpt lat="45.119044" lon="8.2508474"><ele>157.0</ele><time>2026-04-18T09:21:19.177Z</time></trkpt><trkpt lat="45.1190367" lon="8.2510522"><ele>156.5</ele><time>2026-04-18T09:21:20.177Z</time></trkpt><trkpt lat="45.1190248" lon="8.2512631"><ele>156.0</ele><time>2026-04-18T09:21:21.177Z</time></trkpt><trkpt lat="45.1190058" lon="8.2514757"><ele>156.0</ele><time>2026-04-18T09:21:22.177Z</time></trkpt><trkpt lat="45.1189868" lon="8.2516904"><ele>156.0</ele><time>2026-04-18T09:21:23.177Z</time></trkpt><trkpt lat="45.1189609" lon="8.2519115"><ele>156.0</ele><time>2026-04-18T09:21:24.177Z</time></trkpt><trkpt lat="45.1189318" lon="8.2521325"><ele>155.66666666666666</ele><time>2026-04-18T09:21:25.177Z</time></trkpt><trkpt lat="45.1188982" lon="8.252348"><ele>155.33333333333331</ele><time>2026-04-18T09:21:26.178Z</time></trkpt><trkpt lat="45.1188633" lon="8.2525635"><ele>155.0</ele><time>2026-04-18T09:21:27.177Z</time></trkpt><trkpt lat="45.1188196" lon="8.2527792"><ele>155.0</ele><time>2026-04-18T09:21:28.177Z</time></trkpt><trkpt lat="45.1187713" lon="8.2529867"><ele>155.0</ele><time>2026-04-18T09:21:29.178Z</time></trkpt><trkpt lat="45.1187172" lon="8.2531784"><ele>155.0</ele><time>2026-04-18T09:21:30.177Z</time></trkpt><trkpt lat="45.1186647" lon="8.2533513"><ele>155.0</ele><time>2026-04-18T09:21:31.177Z</time></trkpt><trkpt lat="45.1186198" lon="8.2535125"><ele>154.8</ele><time>2026-04-18T09:21:32.177Z</time></trkpt><trkpt lat="45.1185794" lon="8.2536667"><ele>154.6</ele><time>2026-04-18T09:21:33.177Z</time></trkpt><trkpt lat="45.118542" lon="8.2538074"><ele>154.4</ele><time>2026-04-18T09:21:34.177Z</time></trkpt><trkpt lat="45.1185046" lon="8.2539353"><ele>154.2</ele><time>2026-04-18T09:21:35.178Z</time></trkpt><trkpt lat="45.118473" lon="8.2540407"><ele>154.0</ele><time>2026-04-18T09:21:36.177Z</time></trkpt><trkpt lat="45.118451" lon="8.2541421"><ele>154.6</ele><time>2026-04-18T09:21:37.177Z</time></trkpt><trkpt lat="45.1184456" lon="8.2542959"><ele>155.2</ele><time>2026-04-18T09:21:39.177Z</time></trkpt><trkpt lat="45.1185223" lon="8.2543574"><ele>155.79999999999998</ele><time>2026-04-18T09:21:41.177Z</time></trkpt><trkpt lat="45.1185894" lon="8.2543727"><ele>156.4</ele><time>2026-04-18T09:21:42.177Z</time></trkpt><trkpt lat="45.1186748" lon="8.2543791"><ele>157.0</ele><time>2026-04-18T09:21:43.177Z</time></trkpt><trkpt lat="45.1187774" lon="8.2543963"><ele>157.0</ele><time>2026-04-18T09:21:44.178Z</time></trkpt><trkpt lat="45.1188914" lon="8.2544211"><ele>157.0</ele><time>2026-04-18T09:21:45.177Z</time></trkpt><trkpt lat="45.119019" lon="8.2544498"><ele>157.0</ele><time>2026-04-18T09:21:46.177Z</time></trkpt><trkpt lat="45.1191602" lon="8.2544844"><ele>157.0</ele><time>2026-04-18T09:21:47.178Z</time></trkpt><trkpt lat="45.1193078" lon="8.2545168"><ele>156.33333333333334</ele><time>2026-04-18T09:21:48.177Z</time></trkpt><trkpt lat="45.1194564" lon="8.2545559"><ele>155.66666666666666</ele><time>2026-04-18T09:21:49.177Z</time></trkpt><trkpt lat="45.1196104" lon="8.2545934"><ele>155.0</ele><time>2026-04-18T09:21:50.177Z</time></trkpt><trkpt lat="45.1197592" lon="8.2546203"><ele>155.0</ele><time>2026-04-18T09:21:51.177Z</time></trkpt><trkpt lat="45.1198988" lon="8.2546433"><ele>155.0</ele><time>2026-04-18T09:21:52.177Z</time></trkpt><trkpt lat="45.1200288" lon="8.2546848"><ele>155.0</ele><time>2026-04-18T09:21:53.177Z</time></trkpt><trkpt lat="45.1201565" lon="8.2547461"><ele>155.0</ele><time>2026-04-18T09:21:54.177Z</time></trkpt><trkpt lat="45.1202694" lon="8.2548444"><ele>155.25</ele><time>2026-04-18T09:21:55.178Z</time></trkpt><trkpt lat="45.1203653" lon="8.254963"><ele>155.5</ele><time>2026-04-18T09:21:56.177Z</time></trkpt><trkpt lat="45.1204545" lon="8.2550888"><ele>155.75</ele><time>2026-04-18T09:21:57.177Z</time></trkpt><trkpt lat="45.1205429" lon="8.2552079"><ele>156.0</ele><time>2026-04-18T09:21:58.177Z</time></trkpt><trkpt lat="45.1206364" lon="8.2553233"><ele>156.0</ele><time>2026-04-18T09:21:59.177Z</time></trkpt><trkpt lat="45.1207203" lon="8.255426"><ele>156.0</ele><time>2026-04-18T09:22:00.178Z</time></trkpt><trkpt lat="45.1207938" lon="8.2555051"><ele>156.0</ele><time>2026-04-18T09:22:01.177Z</time></trkpt><trkpt lat="45.1208723" lon="8.2555256"><ele>156.0</ele><time>2026-04-18T09:22:02.177Z</time></trkpt><trkpt lat="45.1209561" lon="8.2555104"><ele>156.0</ele><time>2026-04-18T09:22:03.177Z</time></trkpt><trkpt lat="45.1210352" lon="8.255456"><ele>157.6</ele><time>2026-04-18T09:22:04.177Z</time></trkpt><trkpt lat="45.1210969" lon="8.2553738"><ele>159.2</ele><time>2026-04-18T09:22:05.177Z</time></trkpt><trkpt lat="45.1211473" lon="8.2552681"><ele>160.79999999999998</ele><time>2026-04-18T09:22:06.177Z</time></trkpt><trkpt lat="45.1212034" lon="8.2551432"><ele>162.39999999999998</ele><time>2026-04-18T09:22:07.177Z</time></trkpt><trkpt lat="45.1212663" lon="8.2550048"><ele>164.0</ele><time>2026-04-18T09:22:08.178Z</time></trkpt><trkpt lat="45.1213353" lon="8.254862"><ele>164.25</ele><time>2026-04-18T09:22:09.177Z</time></trkpt><trkpt lat="45.1214136" lon="8.2547053"><ele>164.5</ele><time>2026-04-18T09:22:10.177Z</time></trkpt><trkpt lat="45.1215034" lon="8.2545494"><ele>164.75</ele><time>2026-04-18T09:22:11.177Z</time></trkpt><trkpt lat="45.121613" lon="8.2543991"><ele>165.0</ele><time>2026-04-18T09:22:12.177Z</time></trkpt><trkpt lat="45.1217502" lon="8.2542615"><ele>167.0</ele><time>2026-04-18T09:22:13.177Z</time></trkpt><trkpt lat="45.1218978" lon="8.254125"><ele>169.0</ele><time>2026-04-18T09:22:14.178Z</time></trkpt><trkpt lat="45.1220523" lon="8.2539932"><ele>171.0</ele><time>2026-04-18T09:22:15.177Z</time></trkpt><trkpt lat="45.1222188" lon="8.2538396"><ele>172.33333333333334</ele><time>2026-04-18T09:22:16.177Z</time></trkpt><trkpt lat="45.1223853" lon="8.2536922"><ele>173.66666666666669</ele><time>2026-04-18T09:22:17.177Z</time></trkpt><trkpt lat="45.1225511" lon="8.2535487"><ele>175.0</ele><time>2026-04-18T09:22:18.177Z</time></trkpt><trkpt lat="45.1227153" lon="8.2534066"><ele>176.0</ele><time>2026-04-18T09:22:19.177Z</time></trkpt><trkpt lat="45.1228848" lon="8.2532698"><ele>177.0</ele><time>2026-04-18T09:22:20.177Z</time></trkpt><trkpt lat="45.1230549" lon="8.2531253"><ele>178.0</ele><time>2026-04-18T09:22:21.178Z</time></trkpt><trkpt lat="45.1232303" lon="8.2529721"><ele>179.0</ele><time>2026-04-18T09:22:22.178Z</time></trkpt><trkpt lat="45.1234138" lon="8.2528134"><ele>180.0</ele><time>2026-04-18T09:22:23.177Z</time></trkpt><trkpt lat="45.1236048" lon="8.2526533"><ele>181.0</ele><time>2026-04-18T09:22:24.177Z</time></trkpt><trkpt lat="45.1237983" lon="8.2524868"><ele>181.0</ele><time>2026-04-18T09:22:25.177Z</time></trkpt><trkpt lat="45.1239873" lon="8.2523348"><ele>181.0</ele><time>2026-04-18T09:22:26.177Z</time></trkpt><trkpt lat="45.1241662" lon="8.2521989"><ele>181.0</ele><time>2026-04-18T09:22:27.177Z</time></trkpt><trkpt lat="45.1243457" lon="8.2520849"><ele>182.0</ele><time>2026-04-18T09:22:28.178Z</time></trkpt><trkpt lat="45.124515" lon="8.2519878"><ele>183.0</ele><time>2026-04-18T09:22:29.177Z</time></trkpt><trkpt lat="45.1246645" lon="8.251898"><ele>184.0</ele><time>2026-04-18T09:22:30.177Z</time></trkpt><trkpt lat="45.1248047" lon="8.2518098"><ele>185.25</ele><time>2026-04-18T09:22:31.178Z</time></trkpt><trkpt lat="45.1249345" lon="8.2517212"><ele>186.5</ele><time>2026-04-18T09:22:32.177Z</time></trkpt><trkpt lat="45.1250518" lon="8.2516418"><ele>187.75</ele><time>2026-04-18T09:22:33.177Z</time></trkpt><trkpt lat="45.1251592" lon="8.2515505"><ele>189.0</ele><time>2026-04-18T09:22:34.177Z</time></trkpt><trkpt lat="45.1252583" lon="8.2514269"><ele>189.0</ele><time>2026-04-18T09:22:35.177Z</time></trkpt><trkpt lat="45.1253448" lon="8.2512667"><ele>189.0</ele><time>2026-04-18T09:22:36.177Z</time></trkpt><trkpt lat="45.1254315" lon="8.2510934"><ele>189.0</ele><time>2026-04-18T09:22:37.177Z</time></trkpt><trkpt lat="45.1255195" lon="8.2509115"><ele>189.0</ele><time>2026-04-18T09:22:38.177Z</time></trkpt><trkpt lat="45.1256078" lon="8.2507423"><ele>188.5</ele><time>2026-04-18T09:22:39.177Z</time></trkpt><trkpt lat="45.1256945" lon="8.2505832"><ele>188.0</ele><time>2026-04-18T09:22:40.177Z</time></trkpt><trkpt lat="45.1257757" lon="8.2504373"><ele>187.5</ele><time>2026-04-18T09:22:41.177Z</time></trkpt><trkpt lat="45.1258571" lon="8.2503021"><ele>187.0</ele><time>2026-04-18T09:22:42.177Z</time></trkpt><trkpt lat="45.1259538" lon="8.2501732"><ele>189.0</ele><time>2026-04-18T09:22:43.177Z</time></trkpt><trkpt lat="45.1260661" lon="8.2500682"><ele>191.0</ele><time>2026-04-18T09:22:44.177Z</time></trkpt><trkpt lat="45.1261988" lon="8.249985"><ele>193.0</ele><time>2026-04-18T09:22:45.177Z</time></trkpt><trkpt lat="45.1263445" lon="8.2499177"><ele>195.0</ele><time>2026-04-18T09:22:46.177Z</time></trkpt><trkpt lat="45.1265005" lon="8.249843"><ele>196.33333333333331</ele><time>2026-04-18T09:22:47.177Z</time></trkpt><trkpt lat="45.1266614" lon="8.2497605"><ele>197.66666666666666</ele><time>2026-04-18T09:22:48.177Z</time></trkpt><trkpt lat="45.1268264" lon="8.2496693"><ele>199.0</ele><time>2026-04-18T09:22:49.177Z</time></trkpt><trkpt lat="45.1269805" lon="8.2495699"><ele>199.0</ele><time>2026-04-18T09:22:50.177Z</time></trkpt><trkpt lat="45.1271077" lon="8.2494674"><ele>199.0</ele><time>2026-04-18T09:22:51.177Z</time></trkpt><trkpt lat="45.1272152" lon="8.2493679"><ele>199.0</ele><time>2026-04-18T09:22:52.177Z</time></trkpt><trkpt lat="45.1273141" lon="8.2492773"><ele>199.0</ele><time>2026-04-18T09:22:53.178Z</time></trkpt><trkpt lat="45.1274078" lon="8.2491932"><ele>201.25</ele><time>2026-04-18T09:22:54.177Z</time></trkpt><trkpt lat="45.1275151" lon="8.2491463"><ele>203.5</ele><time>2026-04-18T09:22:55.177Z</time></trkpt><trkpt lat="45.1276359" lon="8.2491251"><ele>205.75</ele><time>2026-04-18T09:22:56.177Z</time></trkpt><trkpt lat="45.1277597" lon="8.2491592"><ele>208.0</ele><time>2026-04-18T09:22:57.177Z</time></trkpt><trkpt lat="45.1278858" lon="8.2492259"><ele>208.0</ele><time>2026-04-18T09:22:58.178Z</time></trkpt><trkpt lat="45.1280111" lon="8.2493065"><ele>208.0</ele><time>2026-04-18T09:22:59.177Z</time></trkpt><trkpt lat="45.1281325" lon="8.2493695"><ele>208.0</ele><time>2026-04-18T09:23:00.178Z</time></trkpt><trkpt lat="45.128262" lon="8.2493965"><ele>208.0</ele><time>2026-04-18T09:23:01.178Z</time></trkpt><trkpt lat="45.1283998" lon="8.2493859"><ele>210.33333333333331</ele><time>2026-04-18T09:23:02.178Z</time></trkpt><trkpt lat="45.1285435" lon="8.2493383"><ele>212.66666666666669</ele><time>2026-04-18T09:23:03.178Z</time></trkpt><trkpt lat="45.1286903" lon="8.2492532"><ele>215.0</ele><time>2026-04-18T09:23:04.177Z</time></trkpt><trkpt lat="45.128845" lon="8.2491531"><ele>215.0</ele><time>2026-04-18T09:23:05.177Z</time></trkpt><trkpt lat="45.129012" lon="8.2490549"><ele>215.0</ele><time>2026-04-18T09:23:06.177Z</time></trkpt><trkpt lat="45.1291827" lon="8.2489605"><ele>215.0</ele><time>2026-04-18T09:23:07.177Z</time></trkpt><trkpt lat="45.1293486" lon="8.2488805"><ele>215.5</ele><time>2026-04-18T09:23:08.178Z</time></trkpt><trkpt lat="45.1294917" lon="8.248807"><ele>216.0</ele><time>2026-04-18T09:23:09.177Z</time></trkpt><trkpt lat="45.1296106" lon="8.2487289"><ele>216.5</ele><time>2026-04-18T09:23:10.177Z</time></trkpt><trkpt lat="45.1297016" lon="8.2486257"><ele>217.0</ele><time>2026-04-18T09:23:11.177Z</time></trkpt><trkpt lat="45.1297767" lon="8.2484941"><ele>217.0</ele><time>2026-04-18T09:23:12.177Z</time></trkpt><trkpt lat="45.1298174" lon="8.2483338"><ele>217.0</ele><time>2026-04-18T09:23:13.177Z</time></trkpt><trkpt lat="45.1298261" lon="8.2481537"><ele>217.0</ele><time>2026-04-18T09:23:14.177Z</time></trkpt><trkpt lat="45.1298286" lon="8.2479681"><ele>217.0</ele><time>2026-04-18T09:23:15.177Z</time></trkpt><trkpt lat="45.1298289" lon="8.2477864"><ele>217.2</ele><time>2026-04-18T09:23:16.177Z</time></trkpt><trkpt lat="45.1298432" lon="8.2476419"><ele>217.39999999999998</ele><time>2026-04-18T09:23:17.177Z</time></trkpt><trkpt lat="45.1298793" lon="8.2475261"><ele>217.60000000000002</ele><time>2026-04-18T09:23:18.177Z</time></trkpt><trkpt lat="45.1299346" lon="8.2474366"><ele>217.8</ele><time>2026-04-18T09:23:19.177Z</time></trkpt><trkpt lat="45.1300081" lon="8.2473774"><ele>218.0</ele><time>2026-04-18T09:23:20.178Z</time></trkpt><trkpt lat="45.130102" lon="8.2473615"><ele>219.4</ele><time>2026-04-18T09:23:21.177Z</time></trkpt><trkpt lat="45.1302178" lon="8.2473572"><ele>220.8</ele><time>2026-04-18T09:23:22.177Z</time></trkpt><trkpt lat="45.1303348" lon="8.2473456"><ele>222.2</ele><time>2026-04-18T09:23:23.177Z</time></trkpt><trkpt lat="45.1304393" lon="8.2473006"><ele>223.6</ele><time>2026-04-18T09:23:24.177Z</time></trkpt><trkpt lat="45.1305355" lon="8.247252"><ele>225.0</ele><time>2026-04-18T09:23:25.178Z</time></trkpt><trkpt lat="45.1306282" lon="8.247224"><ele>225.0</ele><time>2026-04-18T09:23:26.177Z</time></trkpt><trkpt lat="45.1307086" lon="8.2472381"><ele>225.0</ele><time>2026-04-18T09:23:27.178Z</time></trkpt><trkpt lat="45.1307691" lon="8.2472904"><ele>225.0</ele><time>2026-04-18T09:23:28.178Z</time></trkpt><trkpt lat="45.1307976" lon="8.2473806"><ele>225.0</ele><time>2026-04-18T09:23:29.177Z</time></trkpt><trkpt lat="45.1307955" lon="8.2474952"><ele>225.0</ele><time>2026-04-18T09:23:30.177Z</time></trkpt><trkpt lat="45.1307658" lon="8.2476207"><ele>225.0</ele><time>2026-04-18T09:23:31.177Z</time></trkpt><trkpt lat="45.1307209" lon="8.2477432"><ele>226.6</ele><time>2026-04-18T09:23:32.177Z</time></trkpt><trkpt lat="45.1306908" lon="8.2478726"><ele>228.2</ele><time>2026-04-18T09:23:33.177Z</time></trkpt><trkpt lat="45.1306938" lon="8.2480147"><ele>229.8</ele><time>2026-04-18T09:23:34.177Z</time></trkpt><trkpt lat="45.130729" lon="8.2481557"><ele>231.4</ele><time>2026-04-18T09:23:35.177Z</time></trkpt><trkpt lat="45.130784" lon="8.2482977"><ele>233.0</ele><time>2026-04-18T09:23:36.177Z</time></trkpt><trkpt lat="45.1308306" lon="8.2484424"><ele>236.4</ele><time>2026-04-18T09:23:37.177Z</time></trkpt><trkpt lat="45.1308445" lon="8.2485928"><ele>239.8</ele><time>2026-04-18T09:23:38.178Z</time></trkpt><trkpt lat="45.1308266" lon="8.248727"><ele>243.2</ele><time>2026-04-18T09:23:39.177Z</time></trkpt><trkpt lat="45.1308001" lon="8.2488452"><ele>246.6</ele><time>2026-04-18T09:23:40.177Z</time></trkpt><trkpt lat="45.1307905" lon="8.2489607"><ele>250.0</ele><time>2026-04-18T09:23:41.178Z</time></trkpt><trkpt lat="45.1308064" lon="8.2490758"><ele>250.66666666666666</ele><time>2026-04-18T09:23:42.177Z</time></trkpt><trkpt lat="45.1308559" lon="8.2491708"><ele>251.33333333333331</ele><time>2026-04-18T09:23:43.178Z</time></trkpt><trkpt lat="45.1309192" lon="8.2492226"><ele>252.0</ele><time>2026-04-18T09:23:44.177Z</time></trkpt><trkpt lat="45.1309958" lon="8.2492489"><ele>252.66666666666669</ele><time>2026-04-18T09:23:45.177Z</time></trkpt><trkpt lat="45.1310853" lon="8.2492448"><ele>253.33333333333334</ele><time>2026-04-18T09:23:46.177Z</time></trkpt><trkpt lat="45.1311774" lon="8.2492237"><ele>254.0</ele><time>2026-04-18T09:23:47.177Z</time></trkpt><trkpt lat="45.131261" lon="8.2492069"><ele>254.00000000000003</ele><time>2026-04-18T09:23:48.177Z</time></trkpt><trkpt lat="45.1313476" lon="8.2491989"><ele>254.0</ele><time>2026-04-18T09:23:49.177Z</time></trkpt><trkpt lat="45.1314341" lon="8.2492003"><ele>254.0</ele><time>2026-04-18T09:23:50.178Z</time></trkpt><trkpt lat="45.1315176" lon="8.2492136"><ele>254.0</ele><time>2026-04-18T09:23:51.177Z</time></trkpt><trkpt lat="45.1315947" lon="8.2492343"><ele>254.00000000000003</ele><time>2026-04-18T09:23:52.177Z</time></trkpt><trkpt lat="45.131669" lon="8.2492714"><ele>254.0</ele><time>2026-04-18T09:23:53.178Z</time></trkpt><trkpt lat="45.1317478" lon="8.249328"><ele>255.0</ele><time>2026-04-18T09:23:54.177Z</time></trkpt><trkpt lat="45.1318284" lon="8.2493958"><ele>255.99999999999997</ele><time>2026-04-18T09:23:55.177Z</time></trkpt><trkpt lat="45.131912" lon="8.2494629"><ele>257.0</ele><time>2026-04-18T09:23:56.177Z</time></trkpt><trkpt lat="45.1320059" lon="8.2495294"><ele>258.0</ele><time>2026-04-18T09:23:57.177Z</time></trkpt><trkpt lat="45.132099" lon="8.2495962"><ele>259.0</ele><time>2026-04-18T09:23:58.178Z</time></trkpt><trkpt lat="45.1321833" lon="8.249658"><ele>259.0</ele><time>2026-04-18T09:23:59.178Z</time></trkpt><trkpt lat="45.1322579" lon="8.2497186"><ele>259.0</ele><time>2026-04-18T09:24:00.177Z</time></trkpt><trkpt lat="45.1323188" lon="8.2497756"><ele>259.0</ele><time>2026-04-18T09:24:01.177Z</time></trkpt><trkpt lat="45.1323648" lon="8.2498452"><ele>259.0</ele><time>2026-04-18T09:24:02.177Z</time></trkpt><trkpt lat="45.1323989" lon="8.249925"><ele>259.0</ele><time>2026-04-18T09:24:03.177Z</time></trkpt><trkpt lat="45.1324469" lon="8.250011"><ele>259.0</ele><time>2026-04-18T09:24:04.177Z</time></trkpt><trkpt lat="45.1325031" lon="8.2501004"><ele>259.59999999999997</ele><time>2026-04-18T09:24:05.177Z</time></trkpt><trkpt lat="45.1325577" lon="8.2501902"><ele>260.2</ele><time>2026-04-18T09:24:06.177Z</time></trkpt><trkpt lat="45.1325999" lon="8.2502994"><ele>260.79999999999995</ele><time>2026-04-18T09:24:07.177Z</time></trkpt><trkpt lat="45.1326375" lon="8.2504183"><ele>261.4</ele><time>2026-04-18T09:24:08.177Z</time></trkpt><trkpt lat="45.1326745" lon="8.2505414"><ele>262.0</ele><time>2026-04-18T09:24:09.177Z</time></trkpt><trkpt lat="45.1327147" lon="8.2506596"><ele>260.8333333333333</ele><time>2026-04-18T09:24:10.177Z</time></trkpt><trkpt lat="45.1327592" lon="8.2507709"><ele>259.66666666666663</ele><time>2026-04-18T09:24:11.177Z</time></trkpt><trkpt lat="45.1328017" lon="8.2508825"><ele>258.5</ele><time>2026-04-18T09:24:12.177Z</time></trkpt><trkpt lat="45.1328445" lon="8.2509954"><ele>257.3333333333333</ele><time>2026-04-18T09:24:13.177Z</time></trkpt><trkpt lat="45.1328851" lon="8.2510977"><ele>256.1666666666667</ele><time>2026-04-18T09:24:14.177Z</time></trkpt><trkpt lat="45.1329176" lon="8.2511921"><ele>255.0</ele><time>2026-04-18T09:24:15.177Z</time></trkpt><trkpt lat="45.1329622" lon="8.2512789"><ele>255.0</ele><time>2026-04-18T09:24:16.177Z</time></trkpt><trkpt lat="45.133016" lon="8.2513566"><ele>255.00000000000003</ele><time>2026-04-18T09:24:17.177Z</time></trkpt><trkpt lat="45.1330658" lon="8.2514251"><ele>255.0</ele><time>2026-04-18T09:24:18.177Z</time></trkpt><trkpt lat="45.1331171" lon="8.2514853"><ele>255.0</ele><time>2026-04-18T09:24:19.177Z</time></trkpt><trkpt lat="45.1331733" lon="8.2515478"><ele>255.00000000000003</ele><time>2026-04-18T09:24:20.177Z</time></trkpt><trkpt lat="45.133234" lon="8.2516109"><ele>255.0</ele><time>2026-04-18T09:24:21.177Z</time></trkpt><trkpt lat="45.1333036" lon="8.2516704"><ele>255.0</ele><time>2026-04-18T09:24:22.178Z</time></trkpt><trkpt lat="45.1333794" lon="8.2517408"><ele>255.6</ele><time>2026-04-18T09:24:23.177Z</time></trkpt><trkpt lat="45.1334626" lon="8.2518092"><ele>256.2</ele><time>2026-04-18T09:24:24.177Z</time></trkpt><trkpt lat="45.1335517" lon="8.2518603"><ele>256.8</ele><time>2026-04-18T09:24:25.178Z</time></trkpt><trkpt lat="45.1336391" lon="8.2519082"><ele>257.4</ele><time>2026-04-18T09:24:26.177Z</time></trkpt><trkpt lat="45.1337249" lon="8.2519484"><ele>258.0</ele><time>2026-04-18T09:24:27.178Z</time></trkpt><trkpt lat="45.1338038" lon="8.2519874"><ele>257.99999999999994</ele><time>2026-04-18T09:24:28.177Z</time></trkpt><trkpt lat="45.1338788" lon="8.2520259"><ele>258.0</ele><time>2026-04-18T09:24:29.177Z</time></trkpt><trkpt lat="45.1339454" lon="8.2520586"><ele>258.0</ele><time>2026-04-18T09:24:30.178Z</time></trkpt><trkpt lat="45.1340131" lon="8.2520767"><ele>258.0</ele><time>2026-04-18T09:24:31.177Z</time></trkpt><trkpt lat="45.1340771" lon="8.2520617"><ele>258.0</ele><time>2026-04-18T09:24:32.177Z</time></trkpt><trkpt lat="45.134151" lon="8.2520315"><ele>257.99999999999994</ele><time>2026-04-18T09:24:33.177Z</time></trkpt><trkpt lat="45.1342296" lon="8.2520192"><ele>258.0</ele><time>2026-04-18T09:24:34.177Z</time></trkpt><trkpt lat="45.1343173" lon="8.2520346"><ele>259.8</ele><time>2026-04-18T09:24:35.177Z</time></trkpt><trkpt lat="45.1344088" lon="8.2520747"><ele>261.6</ele><time>2026-04-18T09:24:36.177Z</time></trkpt><trkpt lat="45.1345073" lon="8.2520906"><ele>263.4</ele><time>2026-04-18T09:24:37.177Z</time></trkpt><trkpt lat="45.1345976" lon="8.2520646"><ele>265.2</ele><time>2026-04-18T09:24:38.177Z</time></trkpt><trkpt lat="45.1346827" lon="8.2520068"><ele>267.0</ele><time>2026-04-18T09:24:39.177Z</time></trkpt><trkpt lat="45.1347625" lon="8.2519218"><ele>267.0</ele><time>2026-04-18T09:24:40.177Z</time></trkpt><trkpt lat="45.1348362" lon="8.2518225"><ele>267.0</ele><time>2026-04-18T09:24:41.177Z</time></trkpt><trkpt lat="45.1349138" lon="8.2517429"><ele>267.0</ele><time>2026-04-18T09:24:42.178Z</time></trkpt><trkpt lat="45.1350115" lon="8.2516981"><ele>267.0</ele><time>2026-04-18T09:24:43.177Z</time></trkpt><trkpt lat="45.1351155" lon="8.2516501"><ele>267.0</ele><time>2026-04-18T09:24:44.177Z</time></trkpt><trkpt lat="45.1352303" lon="8.2516051"><ele>267.2</ele><time>2026-04-18T09:24:45.177Z</time></trkpt><trkpt lat="45.13534" lon="8.2515647"><ele>267.4</ele><time>2026-04-18T09:24:46.177Z</time></trkpt><trkpt lat="45.1354482" lon="8.2515542"><ele>267.6</ele><time>2026-04-18T09:24:47.178Z</time></trkpt><trkpt lat="45.135548" lon="8.2515589"><ele>267.8</ele><time>2026-04-18T09:24:48.177Z</time></trkpt><trkpt lat="45.1356414" lon="8.2515921"><ele>268.0</ele><time>2026-04-18T09:24:49.177Z</time></trkpt><trkpt lat="45.1357252" lon="8.2516515"><ele>268.25</ele><time>2026-04-18T09:24:50.177Z</time></trkpt><trkpt lat="45.135813" lon="8.2517458"><ele>268.5</ele><time>2026-04-18T09:24:51.178Z</time></trkpt><trkpt lat="45.1358959" lon="8.2518546"><ele>268.75</ele><time>2026-04-18T09:24:52.177Z</time></trkpt><trkpt lat="45.135991" lon="8.2519868"><ele>269.0</ele><time>2026-04-18T09:24:53.177Z</time></trkpt><trkpt lat="45.1360977" lon="8.2520936"><ele>269.0</ele><time>2026-04-18T09:24:54.177Z</time></trkpt><trkpt lat="45.136213" lon="8.2521958"><ele>269.0</ele><time>2026-04-18T09:24:55.177Z</time></trkpt><trkpt lat="45.1363209" lon="8.2522879"><ele>269.0</ele><time>2026-04-18T09:24:56.178Z</time></trkpt><trkpt lat="45.1364385" lon="8.2523909"><ele>269.0</ele><time>2026-04-18T09:24:57.177Z</time></trkpt><trkpt lat="45.1365412" lon="8.2525099"><ele>269.25</ele><time>2026-04-18T09:24:58.178Z</time></trkpt><trkpt lat="45.1366453" lon="8.2526329"><ele>269.5</ele><time>2026-04-18T09:24:59.178Z</time></trkpt><trkpt lat="45.1367295" lon="8.2527761"><ele>269.75</ele><time>2026-04-18T09:25:00.177Z</time></trkpt><trkpt lat="45.1368067" lon="8.2529298"><ele>270.0</ele><time>2026-04-18T09:25:01.177Z</time></trkpt><trkpt lat="45.1368887" lon="8.253065"><ele>272.0</ele><time>2026-04-18T09:25:02.177Z</time></trkpt><trkpt lat="45.1369892" lon="8.253186"><ele>274.0</ele><time>2026-04-18T09:25:03.177Z</time></trkpt><trkpt lat="45.1371024" lon="8.2532876"><ele>276.0</ele><time>2026-04-18T09:25:04.177Z</time></trkpt><trkpt lat="45.1372266" lon="8.2533757"><ele>278.0</ele><time>2026-04-18T09:25:05.177Z</time></trkpt><trkpt lat="45.1373565" lon="8.2534467"><ele>276.25</ele><time>2026-04-18T09:25:06.178Z</time></trkpt><trkpt lat="45.1374928" lon="8.2535078"><ele>274.5</ele><time>2026-04-18T09:25:07.177Z</time></trkpt><trkpt lat="45.137633" lon="8.2535751"><ele>272.75</ele><time>2026-04-18T09:25:08.177Z</time></trkpt><trkpt lat="45.1377686" lon="8.2536481"><ele>271.0</ele><time>2026-04-18T09:25:09.177Z</time></trkpt><trkpt lat="45.1379017" lon="8.2537319"><ele>271.0</ele><time>2026-04-18T09:25:10.177Z</time></trkpt><trkpt lat="45.1380307" lon="8.2538093"><ele>271.0</ele><time>2026-04-18T09:25:11.177Z</time></trkpt><trkpt lat="45.1381528" lon="8.2538735"><ele>271.0</ele><time>2026-04-18T09:25:12.177Z</time></trkpt><trkpt lat="45.1382812" lon="8.2539543"><ele>271.0</ele><time>2026-04-18T09:25:13.177Z</time></trkpt><trkpt lat="45.1384073" lon="8.254019"><ele>269.75</ele><time>2026-04-18T09:25:14.177Z</time></trkpt><trkpt lat="45.1385387" lon="8.2540696"><ele>268.5</ele><time>2026-04-18T09:25:15.177Z</time></trkpt><trkpt lat="45.1386644" lon="8.2541188"><ele>267.25</ele><time>2026-04-18T09:25:16.177Z</time></trkpt><trkpt lat="45.1387922" lon="8.2541657"><ele>266.0</ele><time>2026-04-18T09:25:17.178Z</time></trkpt><trkpt lat="45.1389058" lon="8.2542028"><ele>266.0</ele><time>2026-04-18T09:25:18.178Z</time></trkpt><trkpt lat="45.1390199" lon="8.2542323"><ele>266.0</ele><time>2026-04-18T09:25:19.177Z</time></trkpt><trkpt lat="45.1391298" lon="8.2542633"><ele>266.0</ele><time>2026-04-18T09:25:20.178Z</time></trkpt><trkpt lat="45.1392413" lon="8.2542905"><ele>266.0</ele><time>2026-04-18T09:25:21.177Z</time></trkpt><trkpt lat="45.1393526" lon="8.2543335"><ele>266.75</ele><time>2026-04-18T09:25:22.177Z</time></trkpt><trkpt lat="45.1394608" lon="8.2543827"><ele>267.5</ele><time>2026-04-18T09:25:23.177Z</time></trkpt><trkpt lat="45.1395704" lon="8.2544304"><ele>268.25</ele><time>2026-04-18T09:25:24.177Z</time></trkpt><trkpt lat="45.1396819" lon="8.254477"><ele>269.0</ele><time>2026-04-18T09:25:25.177Z</time></trkpt><trkpt lat="45.1397883" lon="8.2545264"><ele>270.4</ele><time>2026-04-18T09:25:26.177Z</time></trkpt><trkpt lat="45.139896" lon="8.2545577"><ele>271.79999999999995</ele><time>2026-04-18T09:25:27.177Z</time></trkpt><trkpt lat="45.1399901" lon="8.2545947"><ele>273.20000000000005</ele><time>2026-04-18T09:25:28.177Z</time></trkpt><trkpt lat="45.1400763" lon="8.2546306"><ele>274.6</ele><time>2026-04-18T09:25:29.177Z</time></trkpt><trkpt lat="45.1401629" lon="8.2546705"><ele>276.0</ele><time>2026-04-18T09:25:30.177Z</time></trkpt><trkpt lat="45.1402276" lon="8.2547366"><ele>275.6666666666667</ele><time>2026-04-18T09:25:31.177Z</time></trkpt><trkpt lat="45.1402808" lon="8.2548208"><ele>275.3333333333333</ele><time>2026-04-18T09:25:32.177Z</time></trkpt><trkpt lat="45.1403112" lon="8.2549428"><ele>275.0</ele><time>2026-04-18T09:25:33.177Z</time></trkpt><trkpt lat="45.1403418" lon="8.2550637"><ele>274.66666666666663</ele><time>2026-04-18T09:25:34.177Z</time></trkpt><trkpt lat="45.1403688" lon="8.2551712"><ele>274.3333333333333</ele><time>2026-04-18T09:25:35.177Z</time></trkpt><trkpt lat="45.140418" lon="8.2552879"><ele>274.0</ele><time>2026-04-18T09:25:36.177Z</time></trkpt><trkpt lat="45.1404831" lon="8.2554046"><ele>274.0</ele><time>2026-04-18T09:25:37.178Z</time></trkpt><trkpt lat="45.1405526" lon="8.2555236"><ele>274.0</ele><time>2026-04-18T09:25:38.177Z</time></trkpt><trkpt lat="45.140634" lon="8.2556383"><ele>274.0</ele><time>2026-04-18T09:25:39.177Z</time></trkpt><trkpt lat="45.1407073" lon="8.2557561"><ele>274.0</ele><time>2026-04-18T09:25:40.177Z</time></trkpt><trkpt lat="45.1407702" lon="8.2558587"><ele>274.0</ele><time>2026-04-18T09:25:41.177Z</time></trkpt><trkpt lat="45.1408344" lon="8.2559506"><ele>275.5</ele><time>2026-04-18T09:25:42.177Z</time></trkpt><trkpt lat="45.1408961" lon="8.2560167"><ele>277.0</ele><time>2026-04-18T09:25:43.177Z</time></trkpt><trkpt lat="45.1409541" lon="8.2560714"><ele>278.5</ele><time>2026-04-18T09:25:44.178Z</time></trkpt><trkpt lat="45.1410533" lon="8.2560969"><ele>280.0</ele><time>2026-04-18T09:25:46.177Z</time></trkpt><trkpt lat="45.1410982" lon="8.2559954"><ele>281.5</ele><time>2026-04-18T09:25:48.177Z</time></trkpt><trkpt lat="45.1410492" lon="8.2558974"><ele>283.0</ele><time>2026-04-18T09:25:50.177Z</time></trkpt><trkpt lat="45.1409832" lon="8.2558055"><ele>283.0</ele><time>2026-04-18T09:25:52.177Z</time></trkpt><trkpt lat="45.1409731" lon="8.2556755"><ele>283.0</ele><time>2026-04-18T09:25:54.177Z</time></trkpt><trkpt lat="45.141042" lon="8.2555736"><ele>283.0</ele><time>2026-04-18T09:25:56.177Z</time></trkpt><trkpt lat="45.1411626" lon="8.2555103"><ele>283.0</ele><time>2026-04-18T09:25:58.177Z</time></trkpt><trkpt lat="45.1412322" lon="8.255471"><ele>283.0</ele><time>2026-04-18T09:25:59.177Z</time></trkpt><trkpt lat="45.1413046" lon="8.2554212"><ele>283.66666666666663</ele><time>2026-04-18T09:26:00.177Z</time></trkpt><trkpt lat="45.1413807" lon="8.2553697"><ele>284.3333333333333</ele><time>2026-04-18T09:26:01.177Z</time></trkpt><trkpt lat="45.1414545" lon="8.255305"><ele>285.0</ele><time>2026-04-18T09:26:02.177Z</time></trkpt><trkpt lat="45.1415235" lon="8.2552494"><ele>285.6666666666667</ele><time>2026-04-18T09:26:03.177Z</time></trkpt><trkpt lat="45.1415886" lon="8.2551948"><ele>286.33333333333337</ele><time>2026-04-18T09:26:04.177Z</time></trkpt><trkpt lat="45.1416632" lon="8.2551416"><ele>287.0</ele><time>2026-04-18T09:26:05.178Z</time></trkpt><trkpt lat="45.141734" lon="8.255084"><ele>287.6666666666667</ele><time>2026-04-18T09:26:06.177Z</time></trkpt><trkpt lat="45.1418086" lon="8.2550287"><ele>288.33333333333337</ele><time>2026-04-18T09:26:07.177Z</time></trkpt><trkpt lat="45.1418876" lon="8.2549686"><ele>289.0</ele><time>2026-04-18T09:26:08.178Z</time></trkpt><trkpt lat="45.1419647" lon="8.254902"><ele>289.6666666666667</ele><time>2026-04-18T09:26:09.177Z</time></trkpt><trkpt lat="45.1420389" lon="8.2548327"><ele>290.3333333333333</ele><time>2026-04-18T09:26:10.177Z</time></trkpt><trkpt lat="45.142107" lon="8.2547586"><ele>291.0</ele><time>2026-04-18T09:26:11.177Z</time></trkpt><trkpt lat="45.1421823" lon="8.2546995"><ele>291.0</ele><time>2026-04-18T09:26:12.177Z</time></trkpt><trkpt lat="45.1422564" lon="8.2546427"><ele>291.0</ele><time>2026-04-18T09:26:13.178Z</time></trkpt><trkpt lat="45.1423295" lon="8.2545986"><ele>291.0</ele><time>2026-04-18T09:26:14.177Z</time></trkpt><trkpt lat="45.1424001" lon="8.2545554"><ele>291.0</ele><time>2026-04-18T09:26:15.177Z</time></trkpt><trkpt lat="45.1424738" lon="8.2545234"><ele>291.0</ele><time>2026-04-18T09:26:16.178Z</time></trkpt><trkpt lat="45.1425465" lon="8.2544822"><ele>291.0</ele><time>2026-04-18T09:26:17.177Z</time></trkpt><trkpt lat="45.1426161" lon="8.25445"><ele>293.7142857142857</ele><time>2026-04-18T09:26:18.177Z</time></trkpt><trkpt lat="45.1426769" lon="8.2544169"><ele>296.4285714285714</ele><time>2026-04-18T09:26:19.177Z</time></trkpt><trkpt lat="45.1427295" lon="8.2543638"><ele>299.1428571428571</ele><time>2026-04-18T09:26:20.177Z</time></trkpt><trkpt lat="45.1427806" lon="8.2543019"><ele>301.85714285714283</ele><time>2026-04-18T09:26:21.178Z</time></trkpt><trkpt lat="45.1428143" lon="8.254149"><ele>304.57142857142856</ele><time>2026-04-18T09:26:23.177Z</time></trkpt><trkpt lat="45.1428115" lon="8.2540561"><ele>307.2857142857143</ele><time>2026-04-18T09:26:24.177Z</time></trkpt><trkpt lat="45.1428073" lon="8.2539557"><ele>310.0</ele><time>2026-04-18T09:26:25.177Z</time></trkpt><trkpt lat="45.1428241" lon="8.2538639"><ele>310.0</ele><time>2026-04-18T09:26:26.177Z</time></trkpt><trkpt lat="45.1428569" lon="8.2537823"><ele>310.0</ele><time>2026-04-18T09:26:27.177Z</time></trkpt><trkpt lat="45.1429008" lon="8.2536964"><ele>310.0</ele><time>2026-04-18T09:26:28.177Z</time></trkpt><trkpt lat="45.1429449" lon="8.2535995"><ele>310.0</ele><time>2026-04-18T09:26:29.177Z</time></trkpt><trkpt lat="45.1429682" lon="8.2534949"><ele>310.0</ele><time>2026-04-18T09:26:30.177Z</time></trkpt><trkpt lat="45.142981" lon="8.2533814"><ele>310.0</ele><time>2026-04-18T09:26:31.178Z</time></trkpt><trkpt lat="45.1429878" lon="8.253257"><ele>310.0</ele><time>2026-04-18T09:26:32.177Z</time></trkpt><trkpt lat="45.1429833" lon="8.2531234"><ele>310.0</ele><time>2026-04-18T09:26:33.178Z</time></trkpt><trkpt lat="45.1429826" lon="8.2530066"><ele>310.0</ele><time>2026-04-18T09:26:34.177Z</time></trkpt><trkpt lat="45.1429817" lon="8.2529086"><ele>310.0</ele><time>2026-04-18T09:26:35.177Z</time></trkpt><trkpt lat="45.1430345" lon="8.2527722"><ele>310.0</ele><time>2026-04-18T09:26:37.177Z</time></trkpt><trkpt lat="45.1431279" lon="8.2526836"><ele>313.8333333333333</ele><time>2026-04-18T09:26:39.176Z</time></trkpt><trkpt lat="45.1432402" lon="8.2526491"><ele>317.66666666666663</ele><time>2026-04-18T09:26:41.176Z</time></trkpt><trkpt lat="45.1433107" lon="8.2526344"><ele>321.5</ele><time>2026-04-18T09:26:42.176Z</time></trkpt><trkpt lat="45.1433908" lon="8.2526018"><ele>325.3333333333333</ele><time>2026-04-18T09:26:43.176Z</time></trkpt><trkpt lat="45.1434676" lon="8.2525566"><ele>329.1666666666667</ele><time>2026-04-18T09:26:44.176Z</time></trkpt><trkpt lat="45.1435473" lon="8.2524995"><ele>333.0</ele><time>2026-04-18T09:26:45.177Z</time></trkpt><trkpt lat="45.1436147" lon="8.252434"><ele>333.0</ele><time>2026-04-18T09:26:46.176Z</time></trkpt><trkpt lat="45.1436799" lon="8.2523738"><ele>333.0</ele><time>2026-04-18T09:26:47.176Z</time></trkpt><trkpt lat="45.1437208" lon="8.2522948"><ele>333.0</ele><time>2026-04-18T09:26:48.177Z</time></trkpt><trkpt lat="45.1437735" lon="8.2522122"><ele>333.0</ele><time>2026-04-18T09:26:49.176Z</time></trkpt><trkpt lat="45.1438111" lon="8.252126"><ele>333.0</ele><time>2026-04-18T09:26:50.176Z</time></trkpt><trkpt lat="45.1438377" lon="8.252033"><ele>333.0</ele><time>2026-04-18T09:26:51.177Z</time></trkpt><trkpt lat="45.143862" lon="8.2519325"><ele>333.0</ele><time>2026-04-18T09:26:52.176Z</time></trkpt><trkpt lat="45.1438834" lon="8.2518188"><ele>333.5714285714286</ele><time>2026-04-18T09:26:53.176Z</time></trkpt><trkpt lat="45.1438814" lon="8.2517205"><ele>334.1428571428571</ele><time>2026-04-18T09:26:54.177Z</time></trkpt><trkpt lat="45.1438737" lon="8.2516157"><ele>334.7142857142857</ele><time>2026-04-18T09:26:55.176Z</time></trkpt><trkpt lat="45.1438579" lon="8.251514"><ele>335.28571428571433</ele><time>2026-04-18T09:26:56.176Z</time></trkpt><trkpt lat="45.1438326" lon="8.2514157"><ele>335.8571428571429</ele><time>2026-04-18T09:26:57.176Z</time></trkpt><trkpt lat="45.1437968" lon="8.2513155"><ele>336.42857142857144</ele><time>2026-04-18T09:26:58.177Z</time></trkpt><trkpt lat="45.1437649" lon="8.2512139"><ele>337.0</ele><time>2026-04-18T09:26:59.176Z</time></trkpt><trkpt lat="45.1437405" lon="8.2511275"><ele>339.20000000000005</ele><time>2026-04-18T09:27:00.177Z</time></trkpt><trkpt lat="45.1437182" lon="8.2510384"><ele>341.4</ele><time>2026-04-18T09:27:01.176Z</time></trkpt><trkpt lat="45.1436898" lon="8.2508789"><ele>343.6</ele><time>2026-04-18T09:27:03.176Z</time></trkpt><trkpt lat="45.143708" lon="8.2507386"><ele>345.79999999999995</ele><time>2026-04-18T09:27:05.176Z</time></trkpt><trkpt lat="45.1437673" lon="8.2506315"><ele>348.0</ele><time>2026-04-18T09:27:07.176Z</time></trkpt><trkpt lat="45.1438601" lon="8.2505603"><ele>348.0</ele><time>2026-04-18T09:27:09.176Z</time></trkpt><trkpt lat="45.1439224" lon="8.2505436"><ele>348.0</ele><time>2026-04-18T09:27:10.176Z</time></trkpt><trkpt lat="45.1439919" lon="8.2505383"><ele>348.0</ele><time>2026-04-18T09:27:11.176Z</time></trkpt><trkpt lat="45.1440601" lon="8.2505433"><ele>348.0</ele><time>2026-04-18T09:27:12.176Z</time></trkpt><trkpt lat="45.1441328" lon="8.25056"><ele>348.0</ele><time>2026-04-18T09:27:13.176Z</time></trkpt><trkpt lat="45.1442288" lon="8.2506008"><ele>348.0</ele><time>2026-04-18T09:27:14.176Z</time></trkpt><trkpt lat="45.1443323" lon="8.2506433"><ele>351.0</ele><time>2026-04-18T09:27:15.177Z</time></trkpt><trkpt lat="45.1444268" lon="8.2506786"><ele>354.0</ele><time>2026-04-18T09:27:16.176Z</time></trkpt><trkpt lat="45.1445138" lon="8.2507032"><ele>357.0</ele><time>2026-04-18T09:27:17.176Z</time></trkpt><trkpt lat="45.1445994" lon="8.2507378"><ele>360.0</ele><time>2026-04-18T09:27:18.176Z</time></trkpt><trkpt lat="45.144673" lon="8.2507522"><ele>363.0</ele><time>2026-04-18T09:27:19.176Z</time></trkpt><trkpt lat="45.1447395" lon="8.2507682"><ele>366.0</ele><time>2026-04-18T09:27:20.176Z</time></trkpt><trkpt lat="45.1448179" lon="8.2507452"><ele>365.1666666666667</ele><time>2026-04-18T09:27:22.176Z</time></trkpt><trkpt lat="45.1448798" lon="8.2506979"><ele>364.3333333333333</ele><time>2026-04-18T09:27:24.176Z</time></trkpt><trkpt lat="45.1449696" lon="8.2506381"><ele>363.5</ele><time>2026-04-18T09:27:26.176Z</time></trkpt><trkpt lat="45.1450357" lon="8.2505277"><ele>362.66666666666663</ele><time>2026-04-18T09:27:28.176Z</time></trkpt><trkpt lat="45.1450714" lon="8.2504496"><ele>361.8333333333333</ele><time>2026-04-18T09:27:29.176Z</time></trkpt><trkpt lat="45.1451047" lon="8.2503171"><ele>361.0</ele><time>2026-04-18T09:27:31.176Z</time></trkpt><trkpt lat="45.1451218" lon="8.2501699"><ele>358.20000000000005</ele><time>2026-04-18T09:27:33.176Z</time></trkpt><trkpt lat="45.1451394" lon="8.2499829"><ele>355.40000000000003</ele><time>2026-04-18T09:27:35.176Z</time></trkpt><trkpt lat="45.1451513" lon="8.2498823"><ele>352.6</ele><time>2026-04-18T09:27:36.176Z</time></trkpt><trkpt lat="45.1451727" lon="8.2497957"><ele>349.8</ele><time>2026-04-18T09:27:37.176Z</time></trkpt><trkpt lat="45.1452225" lon="8.2496647"><ele>347.0</ele><time>2026-04-18T09:27:39.176Z</time></trkpt><trkpt lat="45.1452966" lon="8.2495884"><ele>344.83333333333337</ele><time>2026-04-18T09:27:41.176Z</time></trkpt><trkpt lat="45.1453923" lon="8.2495525"><ele>342.6666666666667</ele><time>2026-04-18T09:27:43.176Z</time></trkpt><trkpt lat="45.1455011" lon="8.2495883"><ele>340.5</ele><time>2026-04-18T09:27:45.176Z</time></trkpt><trkpt lat="45.1455616" lon="8.2496249"><ele>338.3333333333333</ele><time>2026-04-18T09:27:46.176Z</time></trkpt><trkpt lat="45.145624" lon="8.2496709"><ele>336.16666666666663</ele><time>2026-04-18T09:27:47.176Z</time></trkpt><trkpt lat="45.1456872" lon="8.2497136"><ele>334.0</ele><time>2026-04-18T09:27:48.176Z</time></trkpt><trkpt lat="45.1457882" lon="8.2497522"><ele>334.0</ele><time>2026-04-18T09:27:50.176Z</time></trkpt><trkpt lat="45.1459087" lon="8.2496904"><ele>334.0</ele><time>2026-04-18T09:27:52.176Z</time></trkpt><trkpt lat="45.1459752" lon="8.2496636"><ele>334.0</ele><time>2026-04-18T09:27:53.177Z</time></trkpt><trkpt lat="45.1460915" lon="8.2496196"><ele>334.0</ele><time>2026-04-18T09:27:55.176Z</time></trkpt><trkpt lat="45.146212" lon="8.2496541"><ele>334.0</ele><time>2026-04-18T09:27:57.176Z</time></trkpt><trkpt lat="45.1462649" lon="8.2497056"><ele>334.0</ele><time>2026-04-18T09:27:58.176Z</time></trkpt><trkpt lat="45.1463267" lon="8.24976"><ele>334.0</ele><time>2026-04-18T09:27:59.176Z</time></trkpt><trkpt lat="45.1463838" lon="8.2497978"><ele>334.0</ele><time>2026-04-18T09:28:00.176Z</time></trkpt><trkpt lat="45.1464507" lon="8.2498117"><ele>334.0</ele><time>2026-04-18T09:28:01.176Z</time></trkpt><trkpt lat="45.1465192" lon="8.2498289"><ele>334.0</ele><time>2026-04-18T09:28:02.176Z</time></trkpt><trkpt lat="45.1465933" lon="8.2498298"><ele>334.0</ele><time>2026-04-18T09:28:03.176Z</time></trkpt><trkpt lat="45.1466701" lon="8.2498294"><ele>334.0</ele><time>2026-04-18T09:28:04.176Z</time></trkpt><trkpt lat="45.1467468" lon="8.2498343"><ele>335.1428571428571</ele><time>2026-04-18T09:28:05.176Z</time></trkpt><trkpt lat="45.1468141" lon="8.2498477"><ele>336.2857142857143</ele><time>2026-04-18T09:28:06.176Z</time></trkpt><trkpt lat="45.1468837" lon="8.2498613"><ele>337.42857142857144</ele><time>2026-04-18T09:28:07.176Z</time></trkpt><trkpt lat="45.1469521" lon="8.2498716"><ele>338.57142857142856</ele><time>2026-04-18T09:28:08.176Z</time></trkpt><trkpt lat="45.147021" lon="8.2498944"><ele>339.7142857142857</ele><time>2026-04-18T09:28:09.176Z</time></trkpt><trkpt lat="45.1470975" lon="8.249909"><ele>340.85714285714283</ele><time>2026-04-18T09:28:10.176Z</time></trkpt><trkpt lat="45.1471707" lon="8.2499226"><ele>342.0</ele><time>2026-04-18T09:28:11.176Z</time></trkpt><trkpt lat="45.1472357" lon="8.2499348"><ele>342.0</ele><time>2026-04-18T09:28:12.176Z</time></trkpt><trkpt lat="45.1473609" lon="8.2499112"><ele>342.0</ele><time>2026-04-18T09:28:14.176Z</time></trkpt><trkpt lat="45.1474355" lon="8.2498914"><ele>342.0</ele><time>2026-04-18T09:28:15.176Z</time></trkpt><trkpt lat="45.1475139" lon="8.2498721"><ele>342.0</ele><time>2026-04-18T09:28:16.176Z</time></trkpt><trkpt lat="45.1475985" lon="8.2498499"><ele>342.0</ele><time>2026-04-18T09:28:17.176Z</time></trkpt><trkpt lat="45.1476868" lon="8.2498267"><ele>340.8333333333333</ele><time>2026-04-18T09:28:18.176Z</time></trkpt><trkpt lat="45.1477721" lon="8.2498045"><ele>339.6666666666667</ele><time>2026-04-18T09:28:19.176Z</time></trkpt><trkpt lat="45.1478491" lon="8.249761"><ele>338.5</ele><time>2026-04-18T09:28:20.176Z</time></trkpt><trkpt lat="45.1479148" lon="8.2497232"><ele>337.33333333333337</ele><time>2026-04-18T09:28:21.176Z</time></trkpt><trkpt lat="45.1479941" lon="8.2496762"><ele>336.1666666666667</ele><time>2026-04-18T09:28:22.177Z</time></trkpt><trkpt lat="45.1480665" lon="8.2496194"><ele>335.0</ele><time>2026-04-18T09:28:23.177Z</time></trkpt><trkpt lat="45.1481228" lon="8.2495447"><ele>334.6666666666667</ele><time>2026-04-18T09:28:24.176Z</time></trkpt><trkpt lat="45.1481749" lon="8.2494585"><ele>334.33333333333337</ele><time>2026-04-18T09:28:25.177Z</time></trkpt><trkpt lat="45.1482215" lon="8.2493609"><ele>334.0</ele><time>2026-04-18T09:28:26.177Z</time></trkpt><trkpt lat="45.1482734" lon="8.2492613"><ele>333.6666666666667</ele><time>2026-04-18T09:28:27.177Z</time></trkpt><trkpt lat="45.1483207" lon="8.2491531"><ele>333.3333333333333</ele><time>2026-04-18T09:28:28.176Z</time></trkpt><trkpt lat="45.1483791" lon="8.2490419"><ele>333.0</ele><time>2026-04-18T09:28:29.177Z</time></trkpt><trkpt lat="45.1484326" lon="8.2489237"><ele>333.0</ele><time>2026-04-18T09:28:30.176Z</time></trkpt><trkpt lat="45.1484844" lon="8.2488106"><ele>333.0</ele><time>2026-04-18T09:28:31.176Z</time></trkpt><trkpt lat="45.1485238" lon="8.248706"><ele>333.0</ele><time>2026-04-18T09:28:32.176Z</time></trkpt><trkpt lat="45.1485609" lon="8.2486033"><ele>333.0</ele><time>2026-04-18T09:28:33.177Z</time></trkpt><trkpt lat="45.1485927" lon="8.24851"><ele>333.0</ele><time>2026-04-18T09:28:34.176Z</time></trkpt><trkpt lat="45.1486055" lon="8.2484011"><ele>333.0</ele><time>2026-04-18T09:28:35.176Z</time></trkpt><trkpt lat="45.1486171" lon="8.2482942"><ele>333.0</ele><time>2026-04-18T09:28:36.177Z</time></trkpt><trkpt lat="45.1486231" lon="8.2481792"><ele>333.0</ele><time>2026-04-18T09:28:37.176Z</time></trkpt><trkpt lat="45.1486304" lon="8.2480428"><ele>333.0</ele><time>2026-04-18T09:28:38.176Z</time></trkpt><trkpt lat="45.1486424" lon="8.2478923"><ele>333.0</ele><time>2026-04-18T09:28:39.176Z</time></trkpt><trkpt lat="45.1486542" lon="8.2477336"><ele>333.0</ele><time>2026-04-18T09:28:40.176Z</time></trkpt><trkpt lat="45.1486641" lon="8.2475753"><ele>333.5</ele><time>2026-04-18T09:28:41.176Z</time></trkpt><trkpt lat="45.1486704" lon="8.2474364"><ele>334.0</ele><time>2026-04-18T09:28:42.176Z</time></trkpt><trkpt lat="45.1486839" lon="8.247316"><ele>334.5</ele><time>2026-04-18T09:28:43.177Z</time></trkpt><trkpt lat="45.1486967" lon="8.2472057"><ele>335.0</ele><time>2026-04-18T09:28:44.176Z</time></trkpt><trkpt lat="45.1487065" lon="8.2470926"><ele>335.5</ele><time>2026-04-18T09:28:45.176Z</time></trkpt><trkpt lat="45.14872" lon="8.2469764"><ele>336.0</ele><time>2026-04-18T09:28:46.176Z</time></trkpt><trkpt lat="45.1487283" lon="8.2468562"><ele>337.0</ele><time>2026-04-18T09:28:47.176Z</time></trkpt><trkpt lat="45.1487449" lon="8.2467355"><ele>338.0</ele><time>2026-04-18T09:28:48.176Z</time></trkpt><trkpt lat="45.1487574" lon="8.2466255"><ele>339.0</ele><time>2026-04-18T09:28:49.176Z</time></trkpt><trkpt lat="45.1487704" lon="8.2465156"><ele>340.0</ele><time>2026-04-18T09:28:50.176Z</time></trkpt><trkpt lat="45.1487856" lon="8.2463981"><ele>341.0</ele><time>2026-04-18T09:28:51.176Z</time></trkpt><trkpt lat="45.148795" lon="8.2462844"><ele>342.0</ele><time>2026-04-18T09:28:52.176Z</time></trkpt><trkpt lat="45.1488059" lon="8.2461752"><ele>343.3333333333333</ele><time>2026-04-18T09:28:53.176Z</time></trkpt><trkpt lat="45.1488169" lon="8.2460572"><ele>344.6666666666667</ele><time>2026-04-18T09:28:54.176Z</time></trkpt><trkpt lat="45.1488333" lon="8.2459441"><ele>346.0</ele><time>2026-04-18T09:28:55.176Z</time></trkpt><trkpt lat="45.1488533" lon="8.2458267"><ele>347.33333333333337</ele><time>2026-04-18T09:28:56.177Z</time></trkpt><trkpt lat="45.1488697" lon="8.2457174"><ele>348.6666666666667</ele><time>2026-04-18T09:28:57.177Z</time></trkpt><trkpt lat="45.1488931" lon="8.2456179"><ele>350.0</ele><time>2026-04-18T09:28:58.176Z</time></trkpt><trkpt lat="45.1489094" lon="8.2455195"><ele>350.0</ele><time>2026-04-18T09:28:59.176Z</time></trkpt><trkpt lat="45.1489276" lon="8.2454174"><ele>350.0</ele><time>2026-04-18T09:29:00.176Z</time></trkpt><trkpt lat="45.1489423" lon="8.2453298"><ele>350.0</ele><time>2026-04-18T09:29:01.176Z</time></trkpt><trkpt lat="45.1489604" lon="8.2452331"><ele>350.0</ele><time>2026-04-18T09:29:02.177Z</time></trkpt><trkpt lat="45.1489784" lon="8.2451369"><ele>350.0</ele><time>2026-04-18T09:29:03.176Z</time></trkpt><trkpt lat="45.1489912" lon="8.2450406"><ele>350.0</ele><time>2026-04-18T09:29:04.176Z</time></trkpt><trkpt lat="45.1490102" lon="8.2449535"><ele>350.0</ele><time>2026-04-18T09:29:05.176Z</time></trkpt><trkpt lat="45.1490552" lon="8.2447923"><ele>351.4</ele><time>2026-04-18T09:29:07.176Z</time></trkpt><trkpt lat="45.1490772" lon="8.2447"><ele>352.8</ele><time>2026-04-18T09:29:08.176Z</time></trkpt><trkpt lat="45.1491048" lon="8.2446087"><ele>354.20000000000005</ele><time>2026-04-18T09:29:09.176Z</time></trkpt><trkpt lat="45.1491255" lon="8.2445095"><ele>355.6</ele><time>2026-04-18T09:29:10.176Z</time></trkpt><trkpt lat="45.1491695" lon="8.2443621"><ele>357.0</ele><time>2026-04-18T09:29:12.176Z</time></trkpt><trkpt lat="45.1492563" lon="8.2442056"><ele>357.0</ele><time>2026-04-18T09:29:14.176Z</time></trkpt><trkpt lat="45.1493072" lon="8.2441121"><ele>357.0</ele><time>2026-04-18T09:29:15.177Z</time></trkpt><trkpt lat="45.1493714" lon="8.2440179"><ele>357.0</ele><time>2026-04-18T09:29:16.177Z</time></trkpt><trkpt lat="45.1494415" lon="8.2439058"><ele>357.0</ele><time>2026-04-18T09:29:17.177Z</time></trkpt><trkpt lat="45.1495109" lon="8.2438029"><ele>357.0</ele><time>2026-04-18T09:29:18.176Z</time></trkpt><trkpt lat="45.1495792" lon="8.2437238"><ele>357.0</ele><time>2026-04-18T09:29:19.176Z</time></trkpt><trkpt lat="45.1496461" lon="8.2436626"><ele>357.0</ele><time>2026-04-18T09:29:20.176Z</time></trkpt><trkpt lat="45.1497068" lon="8.2435998"><ele>357.0</ele><time>2026-04-18T09:29:21.176Z</time></trkpt><trkpt lat="45.1497787" lon="8.2435299"><ele>357.0</ele><time>2026-04-18T09:29:22.176Z</time></trkpt><trkpt lat="45.1498647" lon="8.2434674"><ele>357.0</ele><time>2026-04-18T09:29:23.176Z</time></trkpt><trkpt lat="45.149955" lon="8.2434071"><ele>357.0</ele><time>2026-04-18T09:29:24.176Z</time></trkpt><trkpt lat="45.1500393" lon="8.2433527"><ele>357.40000000000003</ele><time>2026-04-18T09:29:25.176Z</time></trkpt><trkpt lat="45.1501358" lon="8.2432963"><ele>357.8</ele><time>2026-04-18T09:29:26.177Z</time></trkpt><trkpt lat="45.1502345" lon="8.2432379"><ele>358.2</ele><time>2026-04-18T09:29:27.176Z</time></trkpt><trkpt lat="45.1503318" lon="8.2431785"><ele>358.6</ele><time>2026-04-18T09:29:28.176Z</time></trkpt><trkpt lat="45.1504131" lon="8.2431175"><ele>359.0</ele><time>2026-04-18T09:29:29.176Z</time></trkpt><trkpt lat="45.150485" lon="8.2430696"><ele>359.5</ele><time>2026-04-18T09:29:30.176Z</time></trkpt><trkpt lat="45.150557" lon="8.2430105"><ele>360.0</ele><time>2026-04-18T09:29:31.177Z</time></trkpt><trkpt lat="45.1506322" lon="8.2429564"><ele>360.5</ele><time>2026-04-18T09:29:32.177Z</time></trkpt><trkpt lat="45.1507026" lon="8.2429088"><ele>361.0</ele><time>2026-04-18T09:29:33.176Z</time></trkpt><trkpt lat="45.1507712" lon="8.2428681"><ele>361.5</ele><time>2026-04-18T09:29:34.177Z</time></trkpt><trkpt lat="45.1508513" lon="8.2428278"><ele>362.0</ele><time>2026-04-18T09:29:35.176Z</time></trkpt><trkpt lat="45.1509388" lon="8.2427865"><ele>362.0</ele><time>2026-04-18T09:29:36.176Z</time></trkpt><trkpt lat="45.1510298" lon="8.2427337"><ele>362.0</ele><time>2026-04-18T09:29:37.176Z</time></trkpt><trkpt lat="45.1511311" lon="8.2427101"><ele>362.0</ele><time>2026-04-18T09:29:38.176Z</time></trkpt><trkpt lat="45.1512303" lon="8.2426855"><ele>362.0</ele><time>2026-04-18T09:29:39.177Z</time></trkpt><trkpt lat="45.1513275" lon="8.2426608"><ele>362.0</ele><time>2026-04-18T09:29:40.176Z</time></trkpt><trkpt lat="45.1514225" lon="8.2426428"><ele>362.0</ele><time>2026-04-18T09:29:41.176Z</time></trkpt><trkpt lat="45.151512" lon="8.2426337"><ele>362.0</ele><time>2026-04-18T09:29:42.177Z</time></trkpt><trkpt lat="45.1516022" lon="8.2426301"><ele>362.0</ele><time>2026-04-18T09:29:43.177Z</time></trkpt><trkpt lat="45.1516888" lon="8.242622"><ele>362.0</ele><time>2026-04-18T09:29:44.176Z</time></trkpt><trkpt lat="45.1517808" lon="8.2426118"><ele>362.0</ele><time>2026-04-18T09:29:45.176Z</time></trkpt><trkpt lat="45.1518691" lon="8.2425945"><ele>362.0</ele><time>2026-04-18T09:29:46.177Z</time></trkpt><trkpt lat="45.1519524" lon="8.2425662"><ele>361.5</ele><time>2026-04-18T09:29:47.176Z</time></trkpt><trkpt lat="45.152045" lon="8.2425378"><ele>361.0</ele><time>2026-04-18T09:29:48.176Z</time></trkpt><trkpt lat="45.1521361" lon="8.2425095"><ele>360.5</ele><time>2026-04-18T09:29:49.176Z</time></trkpt><trkpt lat="45.1522129" lon="8.2424667"><ele>360.0</ele><time>2026-04-18T09:29:50.176Z</time></trkpt><trkpt lat="45.152294" lon="8.2424145"><ele>359.5</ele><time>2026-04-18T09:29:51.176Z</time></trkpt><trkpt lat="45.1523679" lon="8.2423539"><ele>359.0</ele><time>2026-04-18T09:29:52.177Z</time></trkpt><trkpt lat="45.1524418" lon="8.2422664"><ele>357.5</ele><time>2026-04-18T09:29:53.176Z</time></trkpt><trkpt lat="45.1525092" lon="8.2421665"><ele>356.0</ele><time>2026-04-18T09:29:54.176Z</time></trkpt><trkpt lat="45.152571" lon="8.242065"><ele>354.5</ele><time>2026-04-18T09:29:55.176Z</time></trkpt><trkpt lat="45.1526272" lon="8.2419766"><ele>353.0</ele><time>2026-04-18T09:29:56.176Z</time></trkpt><trkpt lat="45.1526916" lon="8.241898"><ele>351.5</ele><time>2026-04-18T09:29:57.176Z</time></trkpt><trkpt lat="45.152748" lon="8.2418304"><ele>350.0</ele><time>2026-04-18T09:29:58.176Z</time></trkpt><trkpt lat="45.1527965" lon="8.2417604"><ele>350.0</ele><time>2026-04-18T09:29:59.176Z</time></trkpt><trkpt lat="45.1528405" lon="8.2416914"><ele>350.0</ele><time>2026-04-18T09:30:00.176Z</time></trkpt><trkpt lat="45.1528677" lon="8.2415999"><ele>350.0</ele><time>2026-04-18T09:30:01.176Z</time></trkpt><trkpt lat="45.1528801" lon="8.241504"><ele>350.0</ele><time>2026-04-18T09:30:02.176Z</time></trkpt><trkpt lat="45.1528955" lon="8.2413849"><ele>350.0</ele><time>2026-04-18T09:30:03.176Z</time></trkpt><trkpt lat="45.1528949" lon="8.2412523"><ele>350.0</ele><time>2026-04-18T09:30:04.177Z</time></trkpt><trkpt lat="45.1529" lon="8.2411308"><ele>348.5</ele><time>2026-04-18T09:30:05.176Z</time></trkpt><trkpt lat="45.1529062" lon="8.2409988"><ele>347.0</ele><time>2026-04-18T09:30:06.176Z</time></trkpt><trkpt lat="45.1529103" lon="8.240874"><ele>345.5</ele><time>2026-04-18T09:30:07.176Z</time></trkpt><trkpt lat="45.1529192" lon="8.2407569"><ele>344.0</ele><time>2026-04-18T09:30:08.176Z</time></trkpt><trkpt lat="45.1529197" lon="8.2406404"><ele>342.5</ele><time>2026-04-18T09:30:09.176Z</time></trkpt><trkpt lat="45.1529167" lon="8.2405272"><ele>341.0</ele><time>2026-04-18T09:30:10.176Z</time></trkpt><trkpt lat="45.1529155" lon="8.240417"><ele>340.6666666666667</ele><time>2026-04-18T09:30:11.176Z</time></trkpt><trkpt lat="45.152905" lon="8.2403239"><ele>340.33333333333337</ele><time>2026-04-18T09:30:12.176Z</time></trkpt><trkpt lat="45.1528886" lon="8.2402322"><ele>340.0</ele><time>2026-04-18T09:30:13.176Z</time></trkpt><trkpt lat="45.1528614" lon="8.2400786"><ele>339.6666666666667</ele><time>2026-04-18T09:30:15.176Z</time></trkpt><trkpt lat="45.1528349" lon="8.2399271"><ele>339.3333333333333</ele><time>2026-04-18T09:30:17.176Z</time></trkpt><trkpt lat="45.1528093" lon="8.2398453"><ele>339.0</ele><time>2026-04-18T09:30:18.176Z</time></trkpt><trkpt lat="45.1527705" lon="8.2397422"><ele>338.75</ele><time>2026-04-18T09:30:19.176Z</time></trkpt><trkpt lat="45.1527344" lon="8.2396158"><ele>338.5</ele><time>2026-04-18T09:30:20.176Z</time></trkpt><trkpt lat="45.1527254" lon="8.2394627"><ele>338.25</ele><time>2026-04-18T09:30:21.177Z</time></trkpt><trkpt lat="45.152731" lon="8.2392921"><ele>338.0</ele><time>2026-04-18T09:30:22.176Z</time></trkpt><trkpt lat="45.1527537" lon="8.2391066"><ele>339.6666666666667</ele><time>2026-04-18T09:30:23.176Z</time></trkpt><trkpt lat="45.1527717" lon="8.2389104"><ele>341.3333333333333</ele><time>2026-04-18T09:30:24.176Z</time></trkpt><trkpt lat="45.1527977" lon="8.2386941"><ele>343.0</ele><time>2026-04-18T09:30:25.177Z</time></trkpt><trkpt lat="45.15284" lon="8.2384813"><ele>343.0</ele><time>2026-04-18T09:30:26.176Z</time></trkpt><trkpt lat="45.1528971" lon="8.2382862"><ele>343.0</ele><time>2026-04-18T09:30:27.176Z</time></trkpt><trkpt lat="45.1529666" lon="8.2381144"><ele>343.0</ele><time>2026-04-18T09:30:28.176Z</time></trkpt><trkpt lat="45.1530382" lon="8.2379604"><ele>343.0</ele><time>2026-04-18T09:30:29.177Z</time></trkpt><trkpt lat="45.1530941" lon="8.2378065"><ele>345.5</ele><time>2026-04-18T09:30:30.176Z</time></trkpt><trkpt lat="45.1531316" lon="8.2376572"><ele>348.0</ele><time>2026-04-18T09:30:31.176Z</time></trkpt><trkpt lat="45.153156" lon="8.2374987"><ele>350.5</ele><time>2026-04-18T09:30:32.176Z</time></trkpt><trkpt lat="45.1531734" lon="8.2373376"><ele>353.0</ele><time>2026-04-18T09:30:33.176Z</time></trkpt><trkpt lat="45.1531767" lon="8.2371778"><ele>353.0</ele><time>2026-04-18T09:30:34.176Z</time></trkpt><trkpt lat="45.1531656" lon="8.2370186"><ele>353.0</ele><time>2026-04-18T09:30:35.177Z</time></trkpt><trkpt lat="45.1531449" lon="8.2368579"><ele>353.0</ele><time>2026-04-18T09:30:36.176Z</time></trkpt><trkpt lat="45.1531155" lon="8.2367118"><ele>353.0</ele><time>2026-04-18T09:30:37.177Z</time></trkpt><trkpt lat="45.1531056" lon="8.2365717"><ele>353.0</ele><time>2026-04-18T09:30:38.177Z</time></trkpt><trkpt lat="45.1531185" lon="8.2364287"><ele>351.5</ele><time>2026-04-18T09:30:39.176Z</time></trkpt><trkpt lat="45.1531607" lon="8.2362977"><ele>350.0</ele><time>2026-04-18T09:30:40.177Z</time></trkpt><trkpt lat="45.1532219" lon="8.2361555"><ele>348.5</ele><time>2026-04-18T09:30:41.176Z</time></trkpt><trkpt lat="45.1532883" lon="8.2360239"><ele>347.0</ele><time>2026-04-18T09:30:42.176Z</time></trkpt><trkpt lat="45.1533611" lon="8.2358669"><ele>347.0</ele><time>2026-04-18T09:30:43.177Z</time></trkpt><trkpt lat="45.153443" lon="8.235702"><ele>347.0</ele><time>2026-04-18T09:30:44.176Z</time></trkpt><trkpt lat="45.1535252" lon="8.2355331"><ele>347.0</ele><time>2026-04-18T09:30:45.176Z</time></trkpt><trkpt lat="45.1536078" lon="8.2353549"><ele>347.0</ele><time>2026-04-18T09:30:46.176Z</time></trkpt><trkpt lat="45.1536899" lon="8.2351948"><ele>344.5</ele><time>2026-04-18T09:30:47.176Z</time></trkpt><trkpt lat="45.1537776" lon="8.2350433"><ele>342.0</ele><time>2026-04-18T09:30:48.176Z</time></trkpt><trkpt lat="45.1538574" lon="8.2349151"><ele>339.5</ele><time>2026-04-18T09:30:49.177Z</time></trkpt><trkpt lat="45.1539402" lon="8.2348008"><ele>337.0</ele><time>2026-04-18T09:30:50.176Z</time></trkpt><trkpt lat="45.1540127" lon="8.2346977"><ele>341.0</ele><time>2026-04-18T09:30:51.176Z</time></trkpt><trkpt lat="45.1540663" lon="8.234586"><ele>345.0</ele><time>2026-04-18T09:30:52.176Z</time></trkpt><trkpt lat="45.1540961" lon="8.2344676"><ele>349.0</ele><time>2026-04-18T09:30:53.176Z</time></trkpt><trkpt lat="45.1541049" lon="8.2343347"><ele>353.0</ele><time>2026-04-18T09:30:54.176Z</time></trkpt><trkpt lat="45.1540936" lon="8.2342129"><ele>357.0</ele><time>2026-04-18T09:30:55.176Z</time></trkpt><trkpt lat="45.1540502" lon="8.234084"><ele>353.25</ele><time>2026-04-18T09:30:56.176Z</time></trkpt><trkpt lat="45.1539849" lon="8.2339576"><ele>349.5</ele><time>2026-04-18T09:30:57.176Z</time></trkpt><trkpt lat="45.1539039" lon="8.2338271"><ele>345.75</ele><time>2026-04-18T09:30:58.176Z</time></trkpt><trkpt lat="45.1538138" lon="8.2336869"><ele>342.0</ele><time>2026-04-18T09:30:59.176Z</time></trkpt><trkpt lat="45.1537331" lon="8.2335408"><ele>342.0</ele><time>2026-04-18T09:31:00.176Z</time></trkpt><trkpt lat="45.1536559" lon="8.2334156"><ele>342.0</ele><time>2026-04-18T09:31:01.176Z</time></trkpt><trkpt lat="45.1535878" lon="8.2332923"><ele>342.0</ele><time>2026-04-18T09:31:02.176Z</time></trkpt><trkpt lat="45.1535185" lon="8.2331687"><ele>342.0</ele><time>2026-04-18T09:31:03.177Z</time></trkpt><trkpt lat="45.1534587" lon="8.2330543"><ele>342.0</ele><time>2026-04-18T09:31:04.176Z</time></trkpt><trkpt lat="45.1533947" lon="8.2329531"><ele>341.8</ele><time>2026-04-18T09:31:05.176Z</time></trkpt><trkpt lat="45.1533404" lon="8.2328615"><ele>341.6</ele><time>2026-04-18T09:31:06.176Z</time></trkpt><trkpt lat="45.1533015" lon="8.232778"><ele>341.40000000000003</ele><time>2026-04-18T09:31:07.176Z</time></trkpt><trkpt lat="45.153283" lon="8.2326289"><ele>341.20000000000005</ele><time>2026-04-18T09:31:09.176Z</time></trkpt><trkpt lat="45.1533883" lon="8.2325639"><ele>341.0</ele><time>2026-04-18T09:31:11.176Z</time></trkpt><trkpt lat="45.1534664" lon="8.232559"><ele>341.0</ele><time>2026-04-18T09:31:12.176Z</time></trkpt><trkpt lat="45.1535602" lon="8.2325478"><ele>341.0</ele><time>2026-04-18T09:31:13.176Z</time></trkpt><trkpt lat="45.1536789" lon="8.2325341"><ele>341.0</ele><time>2026-04-18T09:31:14.176Z</time></trkpt><trkpt lat="45.1537978" lon="8.2325304"><ele>341.0</ele><time>2026-04-18T09:31:15.176Z</time></trkpt><trkpt lat="45.153917" lon="8.2325236"><ele>342.25</ele><time>2026-04-18T09:31:16.176Z</time></trkpt><trkpt lat="45.1540417" lon="8.2325197"><ele>343.5</ele><time>2026-04-18T09:31:17.176Z</time></trkpt><trkpt lat="45.1541747" lon="8.2325171"><ele>344.75</ele><time>2026-04-18T09:31:18.177Z</time></trkpt><trkpt lat="45.1543074" lon="8.2325019"><ele>346.0</ele><time>2026-04-18T09:31:19.176Z</time></trkpt><trkpt lat="45.1544451" lon="8.2324829"><ele>346.0</ele><time>2026-04-18T09:31:20.176Z</time></trkpt><trkpt lat="45.1545897" lon="8.2324584"><ele>346.0</ele><time>2026-04-18T09:31:21.176Z</time></trkpt><trkpt lat="45.1547395" lon="8.2324274"><ele>346.0</ele><time>2026-04-18T09:31:22.176Z</time></trkpt><trkpt lat="45.1548917" lon="8.2323847"><ele>345.25</ele><time>2026-04-18T09:31:23.177Z</time></trkpt><trkpt lat="45.1550347" lon="8.2323414"><ele>344.5</ele><time>2026-04-18T09:31:24.176Z</time></trkpt><trkpt lat="45.1551707" lon="8.2322884"><ele>343.75</ele><time>2026-04-18T09:31:25.176Z</time></trkpt><trkpt lat="45.1552924" lon="8.2322342"><ele>343.0</ele><time>2026-04-18T09:31:26.176Z</time></trkpt><trkpt lat="45.1554119" lon="8.2321749"><ele>341.5</ele><time>2026-04-18T09:31:27.176Z</time></trkpt><trkpt lat="45.1555285" lon="8.2320909"><ele>340.0</ele><time>2026-04-18T09:31:28.176Z</time></trkpt><trkpt lat="45.1556415" lon="8.231971"><ele>338.5</ele><time>2026-04-18T09:31:29.176Z</time></trkpt><trkpt lat="45.1557379" lon="8.231823"><ele>337.0</ele><time>2026-04-18T09:31:30.176Z</time></trkpt><trkpt lat="45.1558241" lon="8.2316592"><ele>337.0</ele><time>2026-04-18T09:31:31.177Z</time></trkpt><trkpt lat="45.1559043" lon="8.2314874"><ele>337.0</ele><time>2026-04-18T09:31:32.176Z</time></trkpt><trkpt lat="45.1559857" lon="8.2313119"><ele>337.0</ele><time>2026-04-18T09:31:33.176Z</time></trkpt><trkpt lat="45.1560583" lon="8.2311354"><ele>337.0</ele><time>2026-04-18T09:31:34.176Z</time></trkpt><trkpt lat="45.1561163" lon="8.2309493"><ele>333.0</ele><time>2026-04-18T09:31:35.176Z</time></trkpt><trkpt lat="45.1561609" lon="8.2307678"><ele>329.0</ele><time>2026-04-18T09:31:36.176Z</time></trkpt><trkpt lat="45.156186" lon="8.2305935"><ele>325.0</ele><time>2026-04-18T09:31:37.176Z</time></trkpt><trkpt lat="45.1561971" lon="8.230428"><ele>321.0</ele><time>2026-04-18T09:31:38.177Z</time></trkpt><trkpt lat="45.1561988" lon="8.2302643"><ele>320.0</ele><time>2026-04-18T09:31:39.176Z</time></trkpt><trkpt lat="45.1561996" lon="8.2301068"><ele>319.0</ele><time>2026-04-18T09:31:40.176Z</time></trkpt><trkpt lat="45.1561988" lon="8.229966"><ele>318.0</ele><time>2026-04-18T09:31:41.176Z</time></trkpt><trkpt lat="45.1562056" lon="8.2298402"><ele>317.0</ele><time>2026-04-18T09:31:42.176Z</time></trkpt><trkpt lat="45.1562348" lon="8.2297319"><ele>316.0</ele><time>2026-04-18T09:31:43.176Z</time></trkpt><trkpt lat="45.1562882" lon="8.2296565"><ele>315.6</ele><time>2026-04-18T09:31:44.176Z</time></trkpt><trkpt lat="45.1563582" lon="8.2296021"><ele>315.20000000000005</ele><time>2026-04-18T09:31:45.177Z</time></trkpt><trkpt lat="45.1564457" lon="8.2295664"><ele>314.79999999999995</ele><time>2026-04-18T09:31:46.176Z</time></trkpt><trkpt lat="45.1565448" lon="8.2295541"><ele>314.4</ele><time>2026-04-18T09:31:47.176Z</time></trkpt><trkpt lat="45.156661" lon="8.2295507"><ele>314.0</ele><time>2026-04-18T09:31:48.176Z</time></trkpt><trkpt lat="45.156773" lon="8.2295426"><ele>316.75</ele><time>2026-04-18T09:31:49.176Z</time></trkpt><trkpt lat="45.1568858" lon="8.2295046"><ele>319.5</ele><time>2026-04-18T09:31:50.176Z</time></trkpt><trkpt lat="45.1569986" lon="8.2294401"><ele>322.25</ele><time>2026-04-18T09:31:51.177Z</time></trkpt><trkpt lat="45.1571237" lon="8.2293556"><ele>325.0</ele><time>2026-04-18T09:31:52.176Z</time></trkpt><trkpt lat="45.1572577" lon="8.2292632"><ele>324.25</ele><time>2026-04-18T09:31:53.176Z</time></trkpt><trkpt lat="45.1573875" lon="8.2291696"><ele>323.5</ele><time>2026-04-18T09:31:54.177Z</time></trkpt><trkpt lat="45.1575017" lon="8.2290764"><ele>322.75</ele><time>2026-04-18T09:31:55.176Z</time></trkpt><trkpt lat="45.1575983" lon="8.2289805"><ele>322.0</ele><time>2026-04-18T09:31:56.176Z</time></trkpt><trkpt lat="45.1576833" lon="8.2288884"><ele>321.40000000000003</ele><time>2026-04-18T09:31:57.176Z</time></trkpt><trkpt lat="45.1577555" lon="8.2288082"><ele>320.8</ele><time>2026-04-18T09:31:58.176Z</time></trkpt><trkpt lat="45.1578258" lon="8.2287541"><ele>320.2</ele><time>2026-04-18T09:31:59.176Z</time></trkpt><trkpt lat="45.1579117" lon="8.228726"><ele>319.6</ele><time>2026-04-18T09:32:00.176Z</time></trkpt><trkpt lat="45.1580047" lon="8.2286851"><ele>319.0</ele><time>2026-04-18T09:32:01.176Z</time></trkpt><trkpt lat="45.1581022" lon="8.2286467"><ele>319.0</ele><time>2026-04-18T09:32:02.176Z</time></trkpt><trkpt lat="45.1581969" lon="8.2286246"><ele>319.0</ele><time>2026-04-18T09:32:03.176Z</time></trkpt><trkpt lat="45.1583004" lon="8.2286127"><ele>319.0</ele><time>2026-04-18T09:32:04.176Z</time></trkpt><trkpt lat="45.1583935" lon="8.2286267"><ele>319.0</ele><time>2026-04-18T09:32:05.176Z</time></trkpt><trkpt lat="45.1584842" lon="8.2286443"><ele>319.0</ele><time>2026-04-18T09:32:06.176Z</time></trkpt><trkpt lat="45.1585718" lon="8.2286575"><ele>321.0</ele><time>2026-04-18T09:32:07.176Z</time></trkpt><trkpt lat="45.1586568" lon="8.2286345"><ele>323.0</ele><time>2026-04-18T09:32:08.177Z</time></trkpt><trkpt lat="45.1587476" lon="8.2285898"><ele>325.0</ele><time>2026-04-18T09:32:09.176Z</time></trkpt><trkpt lat="45.1588402" lon="8.2285142"><ele>327.0</ele><time>2026-04-18T09:32:10.176Z</time></trkpt><trkpt lat="45.1589307" lon="8.2284518"><ele>329.0</ele><time>2026-04-18T09:32:11.176Z</time></trkpt><trkpt lat="45.159017" lon="8.2283931"><ele>328.6666666666667</ele><time>2026-04-18T09:32:12.176Z</time></trkpt><trkpt lat="45.159091" lon="8.228333"><ele>328.33333333333337</ele><time>2026-04-18T09:32:13.176Z</time></trkpt><trkpt lat="45.1591592" lon="8.2282581"><ele>328.0</ele><time>2026-04-18T09:32:14.176Z</time></trkpt><trkpt lat="45.1592234" lon="8.2281715"><ele>327.6666666666667</ele><time>2026-04-18T09:32:15.176Z</time></trkpt><trkpt lat="45.1592838" lon="8.2280759"><ele>327.3333333333333</ele><time>2026-04-18T09:32:16.177Z</time></trkpt><trkpt lat="45.1593298" lon="8.227976"><ele>327.0</ele><time>2026-04-18T09:32:17.176Z</time></trkpt><trkpt lat="45.1593935" lon="8.2278884"><ele>327.0</ele><time>2026-04-18T09:32:18.176Z</time></trkpt><trkpt lat="45.1594528" lon="8.2278212"><ele>327.0</ele><time>2026-04-18T09:32:19.176Z</time></trkpt><trkpt lat="45.1595206" lon="8.227787"><ele>327.0</ele><time>2026-04-18T09:32:20.176Z</time></trkpt><trkpt lat="45.1595999" lon="8.2277906"><ele>327.0</ele><time>2026-04-18T09:32:21.176Z</time></trkpt><trkpt lat="45.1596797" lon="8.2278103"><ele>327.0</ele><time>2026-04-18T09:32:22.177Z</time></trkpt><trkpt lat="45.1597747" lon="8.2278752"><ele>327.0</ele><time>2026-04-18T09:32:23.176Z</time></trkpt><trkpt lat="45.1598478" lon="8.2279667"><ele>326.5</ele><time>2026-04-18T09:32:24.176Z</time></trkpt><trkpt lat="45.1599037" lon="8.2280819"><ele>326.0</ele><time>2026-04-18T09:32:25.176Z</time></trkpt><trkpt lat="45.1599284" lon="8.2282138"><ele>325.5</ele><time>2026-04-18T09:32:26.176Z</time></trkpt><trkpt lat="45.1599586" lon="8.2283139"><ele>325.0</ele><time>2026-04-18T09:32:27.176Z</time></trkpt><trkpt lat="45.1599979" lon="8.2284005"><ele>324.5</ele><time>2026-04-18T09:32:28.176Z</time></trkpt><trkpt lat="45.1600496" lon="8.2284829"><ele>324.0</ele><time>2026-04-18T09:32:29.177Z</time></trkpt><trkpt lat="45.1601106" lon="8.2285231"><ele>319.4</ele><time>2026-04-18T09:32:30.176Z</time></trkpt><trkpt lat="45.160191" lon="8.2285459"><ele>314.79999999999995</ele><time>2026-04-18T09:32:31.177Z</time></trkpt><trkpt lat="45.160279" lon="8.2285663"><ele>310.20000000000005</ele><time>2026-04-18T09:32:32.176Z</time></trkpt><trkpt lat="45.1603925" lon="8.228586"><ele>305.6</ele><time>2026-04-18T09:32:33.176Z</time></trkpt><trkpt lat="45.1605015" lon="8.2286081"><ele>301.0</ele><time>2026-04-18T09:32:34.177Z</time></trkpt><trkpt lat="45.1605973" lon="8.2286299"><ele>301.0</ele><time>2026-04-18T09:32:35.176Z</time></trkpt><trkpt lat="45.1606977" lon="8.2286753"><ele>301.0</ele><time>2026-04-18T09:32:36.176Z</time></trkpt><trkpt lat="45.1607871" lon="8.2287221"><ele>301.0</ele><time>2026-04-18T09:32:37.176Z</time></trkpt><trkpt lat="45.1608663" lon="8.2288052"><ele>301.0</ele><time>2026-04-18T09:32:38.176Z</time></trkpt><trkpt lat="45.160926" lon="8.2289029"><ele>301.0</ele><time>2026-04-18T09:32:39.176Z</time></trkpt><trkpt lat="45.1609511" lon="8.2290267"><ele>298.8</ele><time>2026-04-18T09:32:40.176Z</time></trkpt><trkpt lat="45.1609628" lon="8.2291491"><ele>296.6</ele><time>2026-04-18T09:32:41.176Z</time></trkpt><trkpt lat="45.1609663" lon="8.2292784"><ele>294.4</ele><time>2026-04-18T09:32:42.177Z</time></trkpt><trkpt lat="45.1609704" lon="8.2294184"><ele>292.2</ele><time>2026-04-18T09:32:43.176Z</time></trkpt><trkpt lat="45.1609817" lon="8.2295444"><ele>290.0</ele><time>2026-04-18T09:32:44.176Z</time></trkpt><trkpt lat="45.1610034" lon="8.2296661"><ele>290.0</ele><time>2026-04-18T09:32:45.177Z</time></trkpt><trkpt lat="45.1610288" lon="8.2297937"><ele>290.0</ele><time>2026-04-18T09:32:46.176Z</time></trkpt><trkpt lat="45.1610685" lon="8.2299105"><ele>290.0</ele><time>2026-04-18T09:32:47.176Z</time></trkpt><trkpt lat="45.1611177" lon="8.2300382"><ele>290.0</ele><time>2026-04-18T09:32:48.176Z</time></trkpt><trkpt lat="45.1611712" lon="8.2301836"><ele>290.0</ele><time>2026-04-18T09:32:49.176Z</time></trkpt><trkpt lat="45.1612257" lon="8.2303381"><ele>288.25</ele><time>2026-04-18T09:32:50.176Z</time></trkpt><trkpt lat="45.1612936" lon="8.2304807"><ele>286.5</ele><time>2026-04-18T09:32:51.176Z</time></trkpt><trkpt lat="45.1613617" lon="8.2306151"><ele>284.75</ele><time>2026-04-18T09:32:52.176Z</time></trkpt><trkpt lat="45.1614271" lon="8.2307388"><ele>283.0</ele><time>2026-04-18T09:32:53.176Z</time></trkpt><trkpt lat="45.1614897" lon="8.2308599"><ele>283.8</ele><time>2026-04-18T09:32:54.176Z</time></trkpt><trkpt lat="45.1615538" lon="8.2309868"><ele>284.6</ele><time>2026-04-18T09:32:55.176Z</time></trkpt><trkpt lat="45.1616067" lon="8.2311137"><ele>285.4</ele><time>2026-04-18T09:32:56.176Z</time></trkpt><trkpt lat="45.1616619" lon="8.231251"><ele>286.2</ele><time>2026-04-18T09:32:57.177Z</time></trkpt><trkpt lat="45.1617088" lon="8.231383"><ele>287.0</ele><time>2026-04-18T09:32:58.176Z</time></trkpt><trkpt lat="45.1617522" lon="8.2315071"><ele>284.6</ele><time>2026-04-18T09:32:59.176Z</time></trkpt><trkpt lat="45.1617989" lon="8.2316202"><ele>282.2</ele><time>2026-04-18T09:33:00.176Z</time></trkpt><trkpt lat="45.1618441" lon="8.2317195"><ele>279.8</ele><time>2026-04-18T09:33:01.176Z</time></trkpt><trkpt lat="45.1618837" lon="8.2318085"><ele>277.4</ele><time>2026-04-18T09:33:02.176Z</time></trkpt><trkpt lat="45.1619247" lon="8.2319593"><ele>275.0</ele><time>2026-04-18T09:33:04.176Z</time></trkpt><trkpt lat="45.1618701" lon="8.2320903"><ele>275.0</ele><time>2026-04-18T09:33:06.176Z</time></trkpt><trkpt lat="45.1617612" lon="8.2321001"><ele>275.0</ele><time>2026-04-18T09:33:08.176Z</time></trkpt><trkpt lat="45.1617012" lon="8.2320409"><ele>275.0</ele><time>2026-04-18T09:33:09.176Z</time></trkpt><trkpt lat="45.1616493" lon="8.2319637"><ele>275.0</ele><time>2026-04-18T09:33:10.176Z</time></trkpt><trkpt lat="45.1615935" lon="8.2318678"><ele>275.0</ele><time>2026-04-18T09:33:11.177Z</time></trkpt><trkpt lat="45.1615307" lon="8.2317692"><ele>275.0</ele><time>2026-04-18T09:33:12.176Z</time></trkpt><trkpt lat="45.1614709" lon="8.23168"><ele>274.5</ele><time>2026-04-18T09:33:13.176Z</time></trkpt><trkpt lat="45.1614181" lon="8.2315968"><ele>274.0</ele><time>2026-04-18T09:33:14.176Z</time></trkpt><trkpt lat="45.1613662" lon="8.2315074"><ele>273.5</ele><time>2026-04-18T09:33:15.177Z</time></trkpt><trkpt lat="45.1613116" lon="8.2314205"><ele>273.0</ele><time>2026-04-18T09:33:16.176Z</time></trkpt><trkpt lat="45.1612635" lon="8.2313228"><ele>272.5</ele><time>2026-04-18T09:33:17.176Z</time></trkpt><trkpt lat="45.161206" lon="8.2312379"><ele>272.0</ele><time>2026-04-18T09:33:18.176Z</time></trkpt><trkpt lat="45.1611453" lon="8.2311706"><ele>272.0</ele><time>2026-04-18T09:33:19.176Z</time></trkpt><trkpt lat="45.161078" lon="8.2311094"><ele>272.0</ele><time>2026-04-18T09:33:20.176Z</time></trkpt><trkpt lat="45.1610122" lon="8.231052"><ele>272.0</ele><time>2026-04-18T09:33:21.177Z</time></trkpt><trkpt lat="45.1609411" lon="8.2310194"><ele>272.0</ele><time>2026-04-18T09:33:22.176Z</time></trkpt><trkpt lat="45.1608707" lon="8.2310018"><ele>272.0</ele><time>2026-04-18T09:33:23.176Z</time></trkpt><trkpt lat="45.1607905" lon="8.2310005"><ele>272.0</ele><time>2026-04-18T09:33:24.176Z</time></trkpt><trkpt lat="45.1607014" lon="8.2310198"><ele>268.4</ele><time>2026-04-18T09:33:25.176Z</time></trkpt><trkpt lat="45.1606111" lon="8.231043"><ele>264.79999999999995</ele><time>2026-04-18T09:33:26.176Z</time></trkpt><trkpt lat="45.1605355" lon="8.2310584"><ele>261.2</ele><time>2026-04-18T09:33:27.176Z</time></trkpt><trkpt lat="45.1604703" lon="8.2310912"><ele>257.59999999999997</ele><time>2026-04-18T09:33:28.177Z</time></trkpt><trkpt lat="45.1603519" lon="8.2311024"><ele>254.0</ele><time>2026-04-18T09:33:30.176Z</time></trkpt><trkpt lat="45.1602477" lon="8.2310253"><ele>254.00000000000003</ele><time>2026-04-18T09:33:32.176Z</time></trkpt><trkpt lat="45.1601616" lon="8.230865"><ele>254.0</ele><time>2026-04-18T09:33:34.176Z</time></trkpt><trkpt lat="45.1601217" lon="8.230773"><ele>254.0</ele><time>2026-04-18T09:33:35.176Z</time></trkpt><trkpt lat="45.1600747" lon="8.2306956"><ele>254.0</ele><time>2026-04-18T09:33:36.177Z</time></trkpt><trkpt lat="45.1600299" lon="8.2306287"><ele>254.00000000000003</ele><time>2026-04-18T09:33:37.176Z</time></trkpt><trkpt lat="45.1599755" lon="8.2305734"><ele>254.0</ele><time>2026-04-18T09:33:38.176Z</time></trkpt><trkpt lat="45.1599127" lon="8.2305448"><ele>253.39999999999998</ele><time>2026-04-18T09:33:39.176Z</time></trkpt><trkpt lat="45.1598061" lon="8.2305426"><ele>252.79999999999998</ele><time>2026-04-18T09:33:41.177Z</time></trkpt><trkpt lat="45.1597374" lon="8.2306272"><ele>252.20000000000002</ele><time>2026-04-18T09:33:43.176Z</time></trkpt><trkpt lat="45.1597033" lon="8.2307867"><ele>251.60000000000002</ele><time>2026-04-18T09:33:45.176Z</time></trkpt><trkpt lat="45.1597361" lon="8.2309394"><ele>251.0</ele><time>2026-04-18T09:33:47.176Z</time></trkpt><trkpt lat="45.1597808" lon="8.2310076"><ele>251.00000000000003</ele><time>2026-04-18T09:33:48.176Z</time></trkpt><trkpt lat="45.1598395" lon="8.2310753"><ele>251.0</ele><time>2026-04-18T09:33:49.176Z</time></trkpt><trkpt lat="45.1599026" lon="8.2311637"><ele>251.0</ele><time>2026-04-18T09:33:50.176Z</time></trkpt><trkpt lat="45.1599673" lon="8.2312526"><ele>251.0</ele><time>2026-04-18T09:33:51.176Z</time></trkpt><trkpt lat="45.1600381" lon="8.2313283"><ele>251.00000000000003</ele><time>2026-04-18T09:33:52.176Z</time></trkpt><trkpt lat="45.1601011" lon="8.2313952"><ele>251.0</ele><time>2026-04-18T09:33:53.176Z</time></trkpt><trkpt lat="45.1601669" lon="8.2314673"><ele>249.83333333333334</ele><time>2026-04-18T09:33:54.176Z</time></trkpt><trkpt lat="45.1602282" lon="8.231535"><ele>248.66666666666669</ele><time>2026-04-18T09:33:55.176Z</time></trkpt><trkpt lat="45.1602929" lon="8.2316023"><ele>247.5</ele><time>2026-04-18T09:33:56.176Z</time></trkpt><trkpt lat="45.1603591" lon="8.2316712"><ele>246.33333333333331</ele><time>2026-04-18T09:33:57.176Z</time></trkpt><trkpt lat="45.1604189" lon="8.2317372"><ele>245.16666666666666</ele><time>2026-04-18T09:33:58.177Z</time></trkpt><trkpt lat="45.1604735" lon="8.2318111"><ele>244.0</ele><time>2026-04-18T09:33:59.176Z</time></trkpt><trkpt lat="45.1605261" lon="8.2318978"><ele>243.99999999999997</ele><time>2026-04-18T09:34:00.177Z</time></trkpt><trkpt lat="45.1605657" lon="8.2320002"><ele>244.0</ele><time>2026-04-18T09:34:01.176Z</time></trkpt><trkpt lat="45.1606121" lon="8.2321009"><ele>244.0</ele><time>2026-04-18T09:34:02.176Z</time></trkpt><trkpt lat="45.1606601" lon="8.232215"><ele>244.0</ele><time>2026-04-18T09:34:03.176Z</time></trkpt><trkpt lat="45.1606929" lon="8.2323159"><ele>243.99999999999997</ele><time>2026-04-18T09:34:04.176Z</time></trkpt><trkpt lat="45.160721" lon="8.2324325"><ele>244.0</ele><time>2026-04-18T09:34:05.176Z</time></trkpt><trkpt lat="45.1607551" lon="8.2325537"><ele>244.33333333333331</ele><time>2026-04-18T09:34:06.176Z</time></trkpt><trkpt lat="45.1607936" lon="8.2326746"><ele>244.66666666666666</ele><time>2026-04-18T09:34:07.176Z</time></trkpt><trkpt lat="45.1608302" lon="8.2327942"><ele>245.0</ele><time>2026-04-18T09:34:08.176Z</time></trkpt><trkpt lat="45.1608607" lon="8.2329047"><ele>245.33333333333331</ele><time>2026-04-18T09:34:09.177Z</time></trkpt><trkpt lat="45.1608936" lon="8.2330101"><ele>245.66666666666666</ele><time>2026-04-18T09:34:10.176Z</time></trkpt><trkpt lat="45.1609312" lon="8.2331165"><ele>246.0</ele><time>2026-04-18T09:34:11.176Z</time></trkpt><trkpt lat="45.1609473" lon="8.2332227"><ele>244.0</ele><time>2026-04-18T09:34:12.176Z</time></trkpt><trkpt lat="45.1609654" lon="8.2333434"><ele>242.00000000000003</ele><time>2026-04-18T09:34:13.176Z</time></trkpt><trkpt lat="45.1609706" lon="8.2334641"><ele>240.00000000000003</ele><time>2026-04-18T09:34:14.176Z</time></trkpt><trkpt lat="45.1609752" lon="8.2335996"><ele>238.0</ele><time>2026-04-18T09:34:15.176Z</time></trkpt><trkpt lat="45.1609796" lon="8.2337452"><ele>236.0</ele><time>2026-04-18T09:34:16.176Z</time></trkpt><trkpt lat="45.1609863" lon="8.2338959"><ele>234.4</ele><time>2026-04-18T09:34:17.177Z</time></trkpt><trkpt lat="45.1609843" lon="8.2340497"><ele>232.8</ele><time>2026-04-18T09:34:18.176Z</time></trkpt><trkpt lat="45.1609865" lon="8.2342041"><ele>231.20000000000002</ele><time>2026-04-18T09:34:19.176Z</time></trkpt><trkpt lat="45.1609855" lon="8.234344"><ele>229.60000000000002</ele><time>2026-04-18T09:34:20.176Z</time></trkpt><trkpt lat="45.1609875" lon="8.2344901"><ele>228.0</ele><time>2026-04-18T09:34:21.176Z</time></trkpt><trkpt lat="45.1609859" lon="8.2346246"><ele>228.0</ele><time>2026-04-18T09:34:22.176Z</time></trkpt><trkpt lat="45.160989" lon="8.2347575"><ele>228.0</ele><time>2026-04-18T09:34:23.176Z</time></trkpt><trkpt lat="45.1609851" lon="8.2348795"><ele>228.0</ele><time>2026-04-18T09:34:24.176Z</time></trkpt><trkpt lat="45.1609776" lon="8.2349893"><ele>228.0</ele><time>2026-04-18T09:34:25.177Z</time></trkpt><trkpt lat="45.1609785" lon="8.2350903"><ele>228.0</ele><time>2026-04-18T09:34:26.176Z</time></trkpt><trkpt lat="45.1610267" lon="8.2352268"><ele>228.0</ele><time>2026-04-18T09:34:28.176Z</time></trkpt><trkpt lat="45.1611212" lon="8.2352692"><ele>228.16666666666666</ele><time>2026-04-18T09:34:30.177Z</time></trkpt><trkpt lat="45.1611859" lon="8.2352316"><ele>228.33333333333331</ele><time>2026-04-18T09:34:31.176Z</time></trkpt><trkpt lat="45.1612506" lon="8.2351975"><ele>228.5</ele><time>2026-04-18T09:34:32.176Z</time></trkpt><trkpt lat="45.1613196" lon="8.235152"><ele>228.66666666666666</ele><time>2026-04-18T09:34:33.176Z</time></trkpt><trkpt lat="45.1613905" lon="8.2351189"><ele>228.83333333333331</ele><time>2026-04-18T09:34:34.176Z</time></trkpt><trkpt lat="45.161511" lon="8.2351117"><ele>229.0</ele><time>2026-04-18T09:34:36.176Z</time></trkpt><trkpt lat="45.1616035" lon="8.2352143"><ele>229.0</ele><time>2026-04-18T09:34:38.175Z</time></trkpt><trkpt lat="45.1616614" lon="8.235376"><ele>228.99999999999997</ele><time>2026-04-18T09:34:40.175Z</time></trkpt><trkpt lat="45.1616727" lon="8.2355055"><ele>228.99999999999997</ele><time>2026-04-18T09:34:41.175Z</time></trkpt><trkpt lat="45.1616875" lon="8.2356288"><ele>229.0</ele><time>2026-04-18T09:34:42.175Z</time></trkpt><trkpt lat="45.1616997" lon="8.2357507"><ele>229.0</ele><time>2026-04-18T09:34:43.175Z</time></trkpt><trkpt lat="45.1617103" lon="8.2358594"><ele>227.7142857142857</ele><time>2026-04-18T09:34:44.175Z</time></trkpt><trkpt lat="45.1617198" lon="8.2359651"><ele>226.42857142857144</ele><time>2026-04-18T09:34:45.176Z</time></trkpt><trkpt lat="45.1617331" lon="8.2360586"><ele>225.14285714285714</ele><time>2026-04-18T09:34:46.175Z</time></trkpt><trkpt lat="45.1617577" lon="8.2361448"><ele>223.85714285714283</ele><time>2026-04-18T09:34:47.175Z</time></trkpt><trkpt lat="45.1617952" lon="8.236221"><ele>222.57142857142856</ele><time>2026-04-18T09:34:48.175Z</time></trkpt><trkpt lat="45.1618417" lon="8.2362999"><ele>221.28571428571428</ele><time>2026-04-18T09:34:49.175Z</time></trkpt><trkpt lat="45.1618987" lon="8.2363799"><ele>220.0</ele><time>2026-04-18T09:34:50.175Z</time></trkpt><trkpt lat="45.1619567" lon="8.2364585"><ele>218.16666666666666</ele><time>2026-04-18T09:34:51.175Z</time></trkpt><trkpt lat="45.1620157" lon="8.2365308"><ele>216.33333333333331</ele><time>2026-04-18T09:34:52.175Z</time></trkpt><trkpt lat="45.1620739" lon="8.2366088"><ele>214.5</ele><time>2026-04-18T09:34:53.175Z</time></trkpt><trkpt lat="45.1621332" lon="8.2366863"><ele>212.66666666666669</ele><time>2026-04-18T09:34:54.176Z</time></trkpt><trkpt lat="45.1621907" lon="8.2367595"><ele>210.83333333333334</ele><time>2026-04-18T09:34:55.175Z</time></trkpt><trkpt lat="45.1622492" lon="8.2368175"><ele>209.0</ele><time>2026-04-18T09:34:56.175Z</time></trkpt><trkpt lat="45.1623096" lon="8.2368617"><ele>210.0</ele><time>2026-04-18T09:34:57.175Z</time></trkpt><trkpt lat="45.1623726" lon="8.2368868"><ele>211.0</ele><time>2026-04-18T09:34:58.175Z</time></trkpt><trkpt lat="45.1624391" lon="8.2368932"><ele>212.0</ele><time>2026-04-18T09:34:59.176Z</time></trkpt><trkpt lat="45.1625118" lon="8.2368947"><ele>213.0</ele><time>2026-04-18T09:35:00.175Z</time></trkpt><trkpt lat="45.1625905" lon="8.2368825"><ele>214.0</ele><time>2026-04-18T09:35:01.175Z</time></trkpt><trkpt lat="45.1626651" lon="8.2368759"><ele>215.0</ele><time>2026-04-18T09:35:02.175Z</time></trkpt><trkpt lat="45.1627412" lon="8.2368671"><ele>216.0</ele><time>2026-04-18T09:35:03.175Z</time></trkpt><trkpt lat="45.1628112" lon="8.2368584"><ele>216.0</ele><time>2026-04-18T09:35:04.175Z</time></trkpt><trkpt lat="45.1628819" lon="8.2368529"><ele>216.0</ele><time>2026-04-18T09:35:05.175Z</time></trkpt><trkpt lat="45.1629496" lon="8.2368729"><ele>216.0</ele><time>2026-04-18T09:35:06.176Z</time></trkpt><trkpt lat="45.1630142" lon="8.2369195"><ele>216.0</ele><time>2026-04-18T09:35:07.175Z</time></trkpt><trkpt lat="45.1630889" lon="8.2369783"><ele>216.0</ele><time>2026-04-18T09:35:08.175Z</time></trkpt><trkpt lat="45.1631661" lon="8.2370422"><ele>216.0</ele><time>2026-04-18T09:35:09.176Z</time></trkpt><trkpt lat="45.1632374" lon="8.2371103"><ele>216.83333333333334</ele><time>2026-04-18T09:35:10.175Z</time></trkpt><trkpt lat="45.1633005" lon="8.2371754"><ele>217.66666666666669</ele><time>2026-04-18T09:35:11.175Z</time></trkpt><trkpt lat="45.1633702" lon="8.2372351"><ele>218.5</ele><time>2026-04-18T09:35:12.175Z</time></trkpt><trkpt lat="45.1634295" lon="8.2372872"><ele>219.33333333333334</ele><time>2026-04-18T09:35:13.175Z</time></trkpt><trkpt lat="45.1634996" lon="8.2374072"><ele>220.16666666666669</ele><time>2026-04-18T09:35:15.175Z</time></trkpt><trkpt lat="45.1635128" lon="8.237515"><ele>221.0</ele><time>2026-04-18T09:35:17.176Z</time></trkpt><trkpt lat="45.1634482" lon="8.2376148"><ele>220.16666666666669</ele><time>2026-04-18T09:35:19.175Z</time></trkpt><trkpt lat="45.1633423" lon="8.2376153"><ele>219.33333333333334</ele><time>2026-04-18T09:35:21.176Z</time></trkpt><trkpt lat="45.1632365" lon="8.2375218"><ele>218.5</ele><time>2026-04-18T09:35:23.175Z</time></trkpt><trkpt lat="45.1631845" lon="8.237448"><ele>217.66666666666669</ele><time>2026-04-18T09:35:24.176Z</time></trkpt><trkpt lat="45.1631366" lon="8.2373551"><ele>216.83333333333334</ele><time>2026-04-18T09:35:25.175Z</time></trkpt><trkpt lat="45.1630961" lon="8.2372853"><ele>216.0</ele><time>2026-04-18T09:35:26.175Z</time></trkpt><trkpt lat="45.1630457" lon="8.2372303"><ele>216.0</ele><time>2026-04-18T09:35:27.175Z</time></trkpt><trkpt lat="45.1629337" lon="8.2372127"><ele>216.0</ele><time>2026-04-18T09:35:29.175Z</time></trkpt><trkpt lat="45.1628293" lon="8.2373119"><ele>216.0</ele><time>2026-04-18T09:35:31.175Z</time></trkpt><trkpt lat="45.1627888" lon="8.2373883"><ele>216.0</ele><time>2026-04-18T09:35:32.175Z</time></trkpt><trkpt lat="45.1627535" lon="8.2374747"><ele>216.0</ele><time>2026-04-18T09:35:33.175Z</time></trkpt><trkpt lat="45.1627162" lon="8.2375496"><ele>216.0</ele><time>2026-04-18T09:35:34.175Z</time></trkpt><trkpt lat="45.1626689" lon="8.2376174"><ele>214.0</ele><time>2026-04-18T09:35:35.175Z</time></trkpt><trkpt lat="45.1625627" lon="8.2377218"><ele>212.0</ele><time>2026-04-18T09:35:37.176Z</time></trkpt><trkpt lat="45.1624939" lon="8.237766"><ele>210.0</ele><time>2026-04-18T09:35:38.176Z</time></trkpt><trkpt lat="45.1624189" lon="8.2378116"><ele>208.0</ele><time>2026-04-18T09:35:39.175Z</time></trkpt><trkpt lat="45.1623457" lon="8.2378394"><ele>206.0</ele><time>2026-04-18T09:35:40.176Z</time></trkpt><trkpt lat="45.1622797" lon="8.237862"><ele>204.0</ele><time>2026-04-18T09:35:41.176Z</time></trkpt><trkpt lat="45.1621502" lon="8.2378648"><ele>203.16666666666666</ele><time>2026-04-18T09:35:43.175Z</time></trkpt><trkpt lat="45.1620786" lon="8.237837"><ele>202.33333333333331</ele><time>2026-04-18T09:35:44.175Z</time></trkpt><trkpt lat="45.1620048" lon="8.2378103"><ele>201.5</ele><time>2026-04-18T09:35:45.175Z</time></trkpt><trkpt lat="45.1619392" lon="8.2377877"><ele>200.66666666666666</ele><time>2026-04-18T09:35:46.175Z</time></trkpt><trkpt lat="45.1618288" lon="8.2378395"><ele>199.83333333333331</ele><time>2026-04-18T09:35:48.175Z</time></trkpt><trkpt lat="45.1617728" lon="8.2378898"><ele>199.0</ele><time>2026-04-18T09:35:49.175Z</time></trkpt><trkpt lat="45.1617183" lon="8.2379454"><ele>198.99999999999997</ele><time>2026-04-18T09:35:50.175Z</time></trkpt><trkpt lat="45.1616544" lon="8.238003"><ele>199.0</ele><time>2026-04-18T09:35:51.175Z</time></trkpt><trkpt lat="45.161588" lon="8.2380464"><ele>199.0</ele><time>2026-04-18T09:35:52.175Z</time></trkpt><trkpt lat="45.1615198" lon="8.2380905"><ele>199.0</ele><time>2026-04-18T09:35:53.175Z</time></trkpt><trkpt lat="45.1614518" lon="8.238118"><ele>198.99999999999997</ele><time>2026-04-18T09:35:54.175Z</time></trkpt><trkpt lat="45.1613365" lon="8.2381587"><ele>199.0</ele><time>2026-04-18T09:35:56.175Z</time></trkpt><trkpt lat="45.1612756" lon="8.238258"><ele>197.33333333333331</ele><time>2026-04-18T09:35:58.175Z</time></trkpt><trkpt lat="45.161285" lon="8.2383815"><ele>195.66666666666666</ele><time>2026-04-18T09:36:00.175Z</time></trkpt><trkpt lat="45.161338" lon="8.2384475"><ele>194.0</ele><time>2026-04-18T09:36:03.175Z</time></trkpt><trkpt lat="45.1614343" lon="8.2384337"><ele>192.33333333333331</ele><time>2026-04-18T09:36:06.175Z</time></trkpt><trkpt lat="45.1615238" lon="8.2384111"><ele>190.66666666666666</ele><time>2026-04-18T09:36:08.175Z</time></trkpt><trkpt lat="45.1615893" lon="8.2383894"><ele>189.0</ele><time>2026-04-18T09:36:09.175Z</time></trkpt><trkpt lat="45.1616636" lon="8.2383706"><ele>189.0</ele><time>2026-04-18T09:36:10.175Z</time></trkpt><trkpt lat="45.1617414" lon="8.2383591"><ele>189.0</ele><time>2026-04-18T09:36:11.175Z</time></trkpt><trkpt lat="45.1618203" lon="8.2383503"><ele>189.0</ele><time>2026-04-18T09:36:12.176Z</time></trkpt><trkpt lat="45.1618999" lon="8.2383527"><ele>189.0</ele><time>2026-04-18T09:36:13.176Z</time></trkpt><trkpt lat="45.1619817" lon="8.2383606"><ele>189.0</ele><time>2026-04-18T09:36:14.175Z</time></trkpt><trkpt lat="45.162068" lon="8.2383658"><ele>189.0</ele><time>2026-04-18T09:36:15.175Z</time></trkpt><trkpt lat="45.1621381" lon="8.2383779"><ele>189.0</ele><time>2026-04-18T09:36:16.175Z</time></trkpt><trkpt lat="45.162205" lon="8.2384033"><ele>189.0</ele><time>2026-04-18T09:36:17.175Z</time></trkpt><trkpt lat="45.162261" lon="8.2384489"><ele>189.0</ele><time>2026-04-18T09:36:18.175Z</time></trkpt><trkpt lat="45.1623243" lon="8.2385207"><ele>189.0</ele><time>2026-04-18T09:36:19.175Z</time></trkpt><trkpt lat="45.1623809" lon="8.2385995"><ele>189.0</ele><time>2026-04-18T09:36:20.175Z</time></trkpt><trkpt lat="45.1624311" lon="8.2386937"><ele>189.0</ele><time>2026-04-18T09:36:21.175Z</time></trkpt><trkpt lat="45.1624715" lon="8.2387818"><ele>189.0</ele><time>2026-04-18T09:36:22.175Z</time></trkpt><trkpt lat="45.1625596" lon="8.2388704"><ele>189.0</ele><time>2026-04-18T09:36:24.175Z</time></trkpt><trkpt lat="45.1626201" lon="8.2389004"><ele>189.0</ele><time>2026-04-18T09:36:25.175Z</time></trkpt><trkpt lat="45.1626868" lon="8.2389175"><ele>189.0</ele><time>2026-04-18T09:36:26.175Z</time></trkpt><trkpt lat="45.1627533" lon="8.2389377"><ele>189.0</ele><time>2026-04-18T09:36:27.175Z</time></trkpt><trkpt lat="45.1628178" lon="8.2389546"><ele>189.0</ele><time>2026-04-18T09:36:28.176Z</time></trkpt><trkpt lat="45.1628949" lon="8.2389864"><ele>186.33333333333334</ele><time>2026-04-18T09:36:29.175Z</time></trkpt><trkpt lat="45.1629691" lon="8.2390475"><ele>183.66666666666666</ele><time>2026-04-18T09:36:30.175Z</time></trkpt><trkpt lat="45.1630421" lon="8.2391087"><ele>181.0</ele><time>2026-04-18T09:36:31.176Z</time></trkpt><trkpt lat="45.1631021" lon="8.23918"><ele>178.33333333333331</ele><time>2026-04-18T09:36:32.175Z</time></trkpt><trkpt lat="45.1631543" lon="8.239243"><ele>175.66666666666666</ele><time>2026-04-18T09:36:33.175Z</time></trkpt><trkpt lat="45.1632147" lon="8.2393016"><ele>173.0</ele><time>2026-04-18T09:36:34.175Z</time></trkpt><trkpt lat="45.1633119" lon="8.2393557"><ele>172.4</ele><time>2026-04-18T09:36:36.176Z</time></trkpt><trkpt lat="45.1634052" lon="8.2392782"><ele>171.8</ele><time>2026-04-18T09:36:38.175Z</time></trkpt><trkpt lat="45.1635042" lon="8.2392018"><ele>171.2</ele><time>2026-04-18T09:36:40.175Z</time></trkpt><trkpt lat="45.1636194" lon="8.239238"><ele>170.6</ele><time>2026-04-18T09:36:42.175Z</time></trkpt><trkpt lat="45.1636817" lon="8.2392891"><ele>170.0</ele><time>2026-04-18T09:36:43.175Z</time></trkpt><trkpt lat="45.163735" lon="8.2393815"><ele>170.0</ele><time>2026-04-18T09:36:44.175Z</time></trkpt><trkpt lat="45.1637898" lon="8.2394591"><ele>170.0</ele><time>2026-04-18T09:36:45.175Z</time></trkpt><trkpt lat="45.1638334" lon="8.2395344"><ele>170.0</ele><time>2026-04-18T09:36:46.176Z</time></trkpt><trkpt lat="45.1638807" lon="8.2396096"><ele>170.0</ele><time>2026-04-18T09:36:47.176Z</time></trkpt><trkpt lat="45.1639708" lon="8.2397228"><ele>170.0</ele><time>2026-04-18T09:36:49.176Z</time></trkpt><trkpt lat="45.1640765" lon="8.239761"><ele>170.0</ele><time>2026-04-18T09:36:51.176Z</time></trkpt><trkpt lat="45.1641447" lon="8.2397812"><ele>170.57142857142858</ele><time>2026-04-18T09:36:52.176Z</time></trkpt><trkpt lat="45.1642083" lon="8.2397945"><ele>171.14285714285714</ele><time>2026-04-18T09:36:53.175Z</time></trkpt><trkpt lat="45.1642748" lon="8.2398002"><ele>171.71428571428572</ele><time>2026-04-18T09:36:54.175Z</time></trkpt><trkpt lat="45.1643415" lon="8.239819"><ele>172.28571428571428</ele><time>2026-04-18T09:36:55.175Z</time></trkpt><trkpt lat="45.1644041" lon="8.2398571"><ele>172.85714285714286</ele><time>2026-04-18T09:36:56.175Z</time></trkpt><trkpt lat="45.1644616" lon="8.2398997"><ele>173.42857142857142</ele><time>2026-04-18T09:36:57.175Z</time></trkpt><trkpt lat="45.1645252" lon="8.2399424"><ele>174.0</ele><time>2026-04-18T09:36:58.175Z</time></trkpt><trkpt lat="45.1645955" lon="8.239987"><ele>171.6</ele><time>2026-04-18T09:36:59.175Z</time></trkpt><trkpt lat="45.1646561" lon="8.2400323"><ele>169.2</ele><time>2026-04-18T09:37:00.176Z</time></trkpt><trkpt lat="45.164715" lon="8.2400701"><ele>166.79999999999998</ele><time>2026-04-18T09:37:01.175Z</time></trkpt><trkpt lat="45.1648236" lon="8.2401203"><ele>164.39999999999998</ele><time>2026-04-18T09:37:03.175Z</time></trkpt><trkpt lat="45.1649197" lon="8.2401321"><ele>162.0</ele><time>2026-04-18T09:37:05.175Z</time></trkpt><trkpt lat="45.1650357" lon="8.2401102"><ele>162.0</ele><time>2026-04-18T09:37:07.175Z</time></trkpt><trkpt lat="45.1651406" lon="8.2400501"><ele>162.0</ele><time>2026-04-18T09:37:09.175Z</time></trkpt><trkpt lat="45.165229" lon="8.2399525"><ele>162.0</ele><time>2026-04-18T09:37:11.175Z</time></trkpt><trkpt lat="45.1653244" lon="8.2398715"><ele>162.0</ele><time>2026-04-18T09:37:13.175Z</time></trkpt><trkpt lat="45.1653906" lon="8.2398427"><ele>162.0</ele><time>2026-04-18T09:37:14.176Z</time></trkpt><trkpt lat="45.1654534" lon="8.2398352"><ele>162.0</ele><time>2026-04-18T09:37:15.175Z</time></trkpt><trkpt lat="45.165534" lon="8.2398333"><ele>162.0</ele><time>2026-04-18T09:37:16.175Z</time></trkpt><trkpt lat="45.1656165" lon="8.2398314"><ele>162.0</ele><time>2026-04-18T09:37:17.175Z</time></trkpt><trkpt lat="45.1656943" lon="8.2398194"><ele>162.0</ele><time>2026-04-18T09:37:18.175Z</time></trkpt><trkpt lat="45.1657766" lon="8.2398121"><ele>162.0</ele><time>2026-04-18T09:37:19.175Z</time></trkpt><trkpt lat="45.1658608" lon="8.2398006"><ele>162.0</ele><time>2026-04-18T09:37:20.175Z</time></trkpt><trkpt lat="45.1659455" lon="8.2397961"><ele>160.0</ele><time>2026-04-18T09:37:21.175Z</time></trkpt><trkpt lat="45.1660269" lon="8.2398064"><ele>158.0</ele><time>2026-04-18T09:37:22.175Z</time></trkpt><trkpt lat="45.1661052" lon="8.2398153"><ele>156.0</ele><time>2026-04-18T09:37:23.175Z</time></trkpt><trkpt lat="45.1661732" lon="8.2398175"><ele>154.0</ele><time>2026-04-18T09:37:24.175Z</time></trkpt><trkpt lat="45.1662825" lon="8.2397762"><ele>152.0</ele><time>2026-04-18T09:37:26.175Z</time></trkpt><trkpt lat="45.1663537" lon="8.2397064"><ele>150.0</ele><time>2026-04-18T09:37:28.175Z</time></trkpt><trkpt lat="45.1664144" lon="8.2395918"><ele>149.6</ele><time>2026-04-18T09:37:30.175Z</time></trkpt><trkpt lat="45.1664972" lon="8.2394644"><ele>149.2</ele><time>2026-04-18T09:37:32.175Z</time></trkpt><trkpt lat="45.166548" lon="8.2394066"><ele>148.8</ele><time>2026-04-18T09:37:33.175Z</time></trkpt><trkpt lat="45.166658" lon="8.2393403"><ele>148.4</ele><time>2026-04-18T09:37:35.175Z</time></trkpt><trkpt lat="45.1667689" lon="8.2393244"><ele>148.0</ele><time>2026-04-18T09:37:37.175Z</time></trkpt><trkpt lat="45.1668311" lon="8.2393811"><ele>148.0</ele><time>2026-04-18T09:37:39.175Z</time></trkpt><trkpt lat="45.1668488" lon="8.23955"><ele>148.0</ele><time>2026-04-18T09:37:41.175Z</time></trkpt><trkpt lat="45.1668532" lon="8.239685"><ele>148.0</ele><time>2026-04-18T09:37:42.175Z</time></trkpt><trkpt lat="45.1668735" lon="8.2398302"><ele>148.0</ele><time>2026-04-18T09:37:43.175Z</time></trkpt><trkpt lat="45.166871" lon="8.239972"><ele>148.0</ele><time>2026-04-18T09:37:44.176Z</time></trkpt><trkpt lat="45.1668735" lon="8.24011"><ele>147.6</ele><time>2026-04-18T09:37:45.175Z</time></trkpt><trkpt lat="45.1668675" lon="8.2402478"><ele>147.20000000000002</ele><time>2026-04-18T09:37:46.175Z</time></trkpt><trkpt lat="45.1668587" lon="8.2403905"><ele>146.8</ele><time>2026-04-18T09:37:47.175Z</time></trkpt><trkpt lat="45.1668383" lon="8.2405575"><ele>146.4</ele><time>2026-04-18T09:37:48.175Z</time></trkpt><trkpt lat="45.1668092" lon="8.2407254"><ele>146.0</ele><time>2026-04-18T09:37:49.175Z</time></trkpt><trkpt lat="45.1667809" lon="8.2408929"><ele>147.25</ele><time>2026-04-18T09:37:50.175Z</time></trkpt><trkpt lat="45.1667481" lon="8.2410648"><ele>148.5</ele><time>2026-04-18T09:37:51.175Z</time></trkpt><trkpt lat="45.1667018" lon="8.2412579"><ele>149.75</ele><time>2026-04-18T09:37:52.175Z</time></trkpt><trkpt lat="45.1666641" lon="8.2414419"><ele>151.0</ele><time>2026-04-18T09:37:53.175Z</time></trkpt><trkpt lat="45.1666307" lon="8.2416032"><ele>151.8</ele><time>2026-04-18T09:37:54.175Z</time></trkpt><trkpt lat="45.166611" lon="8.2417629"><ele>152.6</ele><time>2026-04-18T09:37:55.175Z</time></trkpt><trkpt lat="45.166583" lon="8.2418897"><ele>153.4</ele><time>2026-04-18T09:37:56.175Z</time></trkpt><trkpt lat="45.1665511" lon="8.2420198"><ele>154.2</ele><time>2026-04-18T09:37:57.176Z</time></trkpt><trkpt lat="45.166522" lon="8.2421423"><ele>155.0</ele><time>2026-04-18T09:37:58.175Z</time></trkpt><trkpt lat="45.1665021" lon="8.2422636"><ele>156.16666666666666</ele><time>2026-04-18T09:37:59.176Z</time></trkpt><trkpt lat="45.16648" lon="8.242381"><ele>157.33333333333331</ele><time>2026-04-18T09:38:00.176Z</time></trkpt><trkpt lat="45.1664601" lon="8.2424898"><ele>158.5</ele><time>2026-04-18T09:38:01.175Z</time></trkpt><trkpt lat="45.166432" lon="8.2426204"><ele>159.66666666666666</ele><time>2026-04-18T09:38:02.176Z</time></trkpt><trkpt lat="45.1664099" lon="8.2427398"><ele>160.83333333333334</ele><time>2026-04-18T09:38:03.175Z</time></trkpt><trkpt lat="45.1664077" lon="8.2428342"><ele>162.0</ele><time>2026-04-18T09:38:04.175Z</time></trkpt><trkpt lat="45.1664679" lon="8.2429637"><ele>161.57142857142858</ele><time>2026-04-18T09:38:06.176Z</time></trkpt><trkpt lat="45.1665375" lon="8.243001"><ele>161.14285714285714</ele><time>2026-04-18T09:38:07.175Z</time></trkpt><trkpt lat="45.1666063" lon="8.2430093"><ele>160.71428571428572</ele><time>2026-04-18T09:38:08.175Z</time></trkpt><trkpt lat="45.1666825" lon="8.243009"><ele>160.28571428571428</ele><time>2026-04-18T09:38:09.175Z</time></trkpt><trkpt lat="45.1667486" lon="8.2429885"><ele>159.85714285714286</ele><time>2026-04-18T09:38:10.175Z</time></trkpt><trkpt lat="45.166812" lon="8.2429374"><ele>159.42857142857142</ele><time>2026-04-18T09:38:11.175Z</time></trkpt><trkpt lat="45.1668692" lon="8.2428617"><ele>159.0</ele><time>2026-04-18T09:38:12.175Z</time></trkpt><trkpt lat="45.1669108" lon="8.2427749"><ele>159.0</ele><time>2026-04-18T09:38:13.175Z</time></trkpt><trkpt lat="45.1669365" lon="8.242678"><ele>159.0</ele><time>2026-04-18T09:38:14.175Z</time></trkpt><trkpt lat="45.1669648" lon="8.2425514"><ele>159.0</ele><time>2026-04-18T09:38:15.175Z</time></trkpt><trkpt lat="45.1669976" lon="8.2424241"><ele>159.0</ele><time>2026-04-18T09:38:16.175Z</time></trkpt><trkpt lat="45.1670139" lon="8.2422948"><ele>159.0</ele><time>2026-04-18T09:38:17.175Z</time></trkpt><trkpt lat="45.1670217" lon="8.2421566"><ele>158.33333333333334</ele><time>2026-04-18T09:38:18.175Z</time></trkpt><trkpt lat="45.1670278" lon="8.2420231"><ele>157.66666666666666</ele><time>2026-04-18T09:38:19.175Z</time></trkpt><trkpt lat="45.1670347" lon="8.2418974"><ele>157.0</ele><time>2026-04-18T09:38:20.175Z</time></trkpt><trkpt lat="45.1670403" lon="8.2417757"><ele>156.33333333333331</ele><time>2026-04-18T09:38:21.176Z</time></trkpt><trkpt lat="45.1670506" lon="8.2416613"><ele>155.66666666666666</ele><time>2026-04-18T09:38:22.175Z</time></trkpt><trkpt lat="45.167056" lon="8.2415678"><ele>155.0</ele><time>2026-04-18T09:38:23.176Z</time></trkpt><trkpt lat="45.1671049" lon="8.2414437"><ele>155.0</ele><time>2026-04-18T09:38:25.175Z</time></trkpt><trkpt lat="45.1671969" lon="8.2414112"><ele>155.0</ele><time>2026-04-18T09:38:27.175Z</time></trkpt><trkpt lat="45.1672676" lon="8.2415015"><ele>155.0</ele><time>2026-04-18T09:38:29.175Z</time></trkpt><trkpt lat="45.1672958" lon="8.2416801"><ele>155.0</ele><time>2026-04-18T09:38:31.176Z</time></trkpt><trkpt lat="45.1672997" lon="8.2418027"><ele>155.0</ele><time>2026-04-18T09:38:32.175Z</time></trkpt><trkpt lat="45.1673109" lon="8.2419402"><ele>155.0</ele><time>2026-04-18T09:38:33.175Z</time></trkpt><trkpt lat="45.1673249" lon="8.2420774"><ele>155.0</ele><time>2026-04-18T09:38:34.175Z</time></trkpt><trkpt lat="45.1673474" lon="8.2422186"><ele>155.0</ele><time>2026-04-18T09:38:35.175Z</time></trkpt><trkpt lat="45.1673848" lon="8.2423754"><ele>155.0</ele><time>2026-04-18T09:38:36.176Z</time></trkpt><trkpt lat="45.1674208" lon="8.2425254"><ele>155.0</ele><time>2026-04-18T09:38:37.175Z</time></trkpt><trkpt lat="45.1674511" lon="8.2426569"><ele>160.4</ele><time>2026-04-18T09:38:38.176Z</time></trkpt><trkpt lat="45.167464" lon="8.2427816"><ele>165.8</ele><time>2026-04-18T09:38:39.176Z</time></trkpt><trkpt lat="45.1674751" lon="8.2428929"><ele>171.2</ele><time>2026-04-18T09:38:40.175Z</time></trkpt><trkpt lat="45.1674855" lon="8.2429955"><ele>176.6</ele><time>2026-04-18T09:38:41.175Z</time></trkpt><trkpt lat="45.1674806" lon="8.2431387"><ele>182.0</ele><time>2026-04-18T09:38:43.175Z</time></trkpt><trkpt lat="45.1674717" lon="8.2433098"><ele>182.0</ele><time>2026-04-18T09:38:45.175Z</time></trkpt><trkpt lat="45.1674711" lon="8.243409"><ele>182.0</ele><time>2026-04-18T09:38:46.175Z</time></trkpt><trkpt lat="45.1674733" lon="8.2435211"><ele>182.0</ele><time>2026-04-18T09:38:47.175Z</time></trkpt><trkpt lat="45.1674728" lon="8.243665"><ele>182.0</ele><time>2026-04-18T09:38:48.175Z</time></trkpt><trkpt lat="45.1674866" lon="8.2438445"><ele>182.0</ele><time>2026-04-18T09:38:49.175Z</time></trkpt><trkpt lat="45.1675093" lon="8.2440401"><ele>182.2</ele><time>2026-04-18T09:38:50.175Z</time></trkpt><trkpt lat="45.1675234" lon="8.2442034"><ele>182.39999999999998</ele><time>2026-04-18T09:38:51.175Z</time></trkpt><trkpt lat="45.1675391" lon="8.2443419"><ele>182.60000000000002</ele><time>2026-04-18T09:38:52.175Z</time></trkpt><trkpt lat="45.167549" lon="8.2444624"><ele>182.8</ele><time>2026-04-18T09:38:53.176Z</time></trkpt><trkpt lat="45.1675418" lon="8.2445762"><ele>183.0</ele><time>2026-04-18T09:38:54.175Z</time></trkpt><trkpt lat="45.1675206" lon="8.2446942"><ele>184.16666666666666</ele><time>2026-04-18T09:38:55.176Z</time></trkpt><trkpt lat="45.1674924" lon="8.2448067"><ele>185.33333333333334</ele><time>2026-04-18T09:38:56.175Z</time></trkpt><trkpt lat="45.1674621" lon="8.2449124"><ele>186.5</ele><time>2026-04-18T09:38:57.175Z</time></trkpt><trkpt lat="45.1674362" lon="8.2450086"><ele>187.66666666666669</ele><time>2026-04-18T09:38:58.175Z</time></trkpt><trkpt lat="45.1674002" lon="8.2451025"><ele>188.83333333333334</ele><time>2026-04-18T09:38:59.175Z</time></trkpt><trkpt lat="45.1673649" lon="8.2452054"><ele>190.0</ele><time>2026-04-18T09:39:00.175Z</time></trkpt><trkpt lat="45.1673259" lon="8.2453004"><ele>188.57142857142858</ele><time>2026-04-18T09:39:01.176Z</time></trkpt><trkpt lat="45.167287" lon="8.2453914"><ele>187.14285714285717</ele><time>2026-04-18T09:39:02.175Z</time></trkpt><trkpt lat="45.1672491" lon="8.2454875"><ele>185.71428571428572</ele><time>2026-04-18T09:39:03.175Z</time></trkpt><trkpt lat="45.1672048" lon="8.2455805"><ele>184.28571428571428</ele><time>2026-04-18T09:39:04.175Z</time></trkpt><trkpt lat="45.1671694" lon="8.2456727"><ele>182.85714285714286</ele><time>2026-04-18T09:39:05.175Z</time></trkpt><trkpt lat="45.1671373" lon="8.2457609"><ele>181.42857142857142</ele><time>2026-04-18T09:39:06.176Z</time></trkpt><trkpt lat="45.1671061" lon="8.2458472"><ele>180.0</ele><time>2026-04-18T09:39:07.176Z</time></trkpt><trkpt lat="45.1670793" lon="8.2459377"><ele>180.0</ele><time>2026-04-18T09:39:08.175Z</time></trkpt><trkpt lat="45.1670528" lon="8.2460458"><ele>180.0</ele><time>2026-04-18T09:39:09.175Z</time></trkpt><trkpt lat="45.1670278" lon="8.246166"><ele>180.0</ele><time>2026-04-18T09:39:10.175Z</time></trkpt><trkpt lat="45.1670073" lon="8.246279"><ele>180.0</ele><time>2026-04-18T09:39:11.175Z</time></trkpt><trkpt lat="45.1669946" lon="8.2463974"><ele>180.0</ele><time>2026-04-18T09:39:12.175Z</time></trkpt><trkpt lat="45.1669699" lon="8.2465183"><ele>180.0</ele><time>2026-04-18T09:39:13.175Z</time></trkpt><trkpt lat="45.1669357" lon="8.2466365"><ele>182.0</ele><time>2026-04-18T09:39:14.175Z</time></trkpt><trkpt lat="45.1669212" lon="8.2467509"><ele>184.0</ele><time>2026-04-18T09:39:15.175Z</time></trkpt><trkpt lat="45.1669127" lon="8.2468638"><ele>186.0</ele><time>2026-04-18T09:39:16.176Z</time></trkpt><trkpt lat="45.1669216" lon="8.2469679"><ele>188.0</ele><time>2026-04-18T09:39:17.176Z</time></trkpt><trkpt lat="45.1669501" lon="8.2470841"><ele>190.0</ele><time>2026-04-18T09:39:18.175Z</time></trkpt><trkpt lat="45.1669911" lon="8.2472251"><ele>192.0</ele><time>2026-04-18T09:39:19.175Z</time></trkpt><trkpt lat="45.1670375" lon="8.2473715"><ele>192.6</ele><time>2026-04-18T09:39:20.176Z</time></trkpt><trkpt lat="45.1670739" lon="8.2475077"><ele>193.2</ele><time>2026-04-18T09:39:21.175Z</time></trkpt><trkpt lat="45.1671013" lon="8.2476464"><ele>193.8</ele><time>2026-04-18T09:39:22.175Z</time></trkpt><trkpt lat="45.1671216" lon="8.2477902"><ele>194.4</ele><time>2026-04-18T09:39:23.175Z</time></trkpt><trkpt lat="45.1671286" lon="8.2479218"><ele>195.0</ele><time>2026-04-18T09:39:24.175Z</time></trkpt><trkpt lat="45.1671179" lon="8.2480478"><ele>195.5</ele><time>2026-04-18T09:39:25.175Z</time></trkpt><trkpt lat="45.1671161" lon="8.2481553"><ele>196.0</ele><time>2026-04-18T09:39:26.175Z</time></trkpt><trkpt lat="45.1671111" lon="8.2482752"><ele>196.5</ele><time>2026-04-18T09:39:27.175Z</time></trkpt><trkpt lat="45.1671118" lon="8.2483779"><ele>197.0</ele><time>2026-04-18T09:39:28.175Z</time></trkpt><trkpt lat="45.1671389" lon="8.2484803"><ele>197.5</ele><time>2026-04-18T09:39:29.175Z</time></trkpt><trkpt lat="45.1671861" lon="8.2485893"><ele>198.0</ele><time>2026-04-18T09:39:30.175Z</time></trkpt><trkpt lat="45.1672574" lon="8.2487093"><ele>198.0</ele><time>2026-04-18T09:39:31.175Z</time></trkpt><trkpt lat="45.1673213" lon="8.2488025"><ele>198.0</ele><time>2026-04-18T09:39:32.175Z</time></trkpt><trkpt lat="45.167381" lon="8.2488781"><ele>198.0</ele><time>2026-04-18T09:39:33.175Z</time></trkpt><trkpt lat="45.1674216" lon="8.2489801"><ele>198.0</ele><time>2026-04-18T09:39:34.175Z</time></trkpt><trkpt lat="45.1674454" lon="8.2490828"><ele>198.0</ele><time>2026-04-18T09:39:35.175Z</time></trkpt><trkpt lat="45.1674493" lon="8.2491919"><ele>198.0</ele><time>2026-04-18T09:39:36.175Z</time></trkpt><trkpt lat="45.1674477" lon="8.2493135"><ele>201.83333333333334</ele><time>2026-04-18T09:39:37.175Z</time></trkpt><trkpt lat="45.1674271" lon="8.2494385"><ele>205.66666666666669</ele><time>2026-04-18T09:39:38.175Z</time></trkpt><trkpt lat="45.1673959" lon="8.2495467"><ele>209.5</ele><time>2026-04-18T09:39:39.175Z</time></trkpt><trkpt lat="45.1673812" lon="8.2496554"><ele>213.33333333333334</ele><time>2026-04-18T09:39:40.175Z</time></trkpt><trkpt lat="45.167372" lon="8.2497585"><ele>217.16666666666669</ele><time>2026-04-18T09:39:41.175Z</time></trkpt><trkpt lat="45.1673698" lon="8.2498537"><ele>221.0</ele><time>2026-04-18T09:39:42.175Z</time></trkpt><trkpt lat="45.1673889" lon="8.2499542"><ele>221.4</ele><time>2026-04-18T09:39:43.175Z</time></trkpt><trkpt lat="45.1674316" lon="8.2500596"><ele>221.8</ele><time>2026-04-18T09:39:44.175Z</time></trkpt><trkpt lat="45.167484" lon="8.250167"><ele>222.20000000000002</ele><time>2026-04-18T09:39:45.175Z</time></trkpt><trkpt lat="45.1675294" lon="8.2502779"><ele>222.60000000000002</ele><time>2026-04-18T09:39:46.175Z</time></trkpt><trkpt lat="45.1675772" lon="8.2503968"><ele>223.0</ele><time>2026-04-18T09:39:47.175Z</time></trkpt><trkpt lat="45.167613" lon="8.2505133"><ele>222.99999999999997</ele><time>2026-04-18T09:39:48.176Z</time></trkpt><trkpt lat="45.1676409" lon="8.2506243"><ele>223.0</ele><time>2026-04-18T09:39:49.175Z</time></trkpt><trkpt lat="45.1676534" lon="8.2507275"><ele>223.0</ele><time>2026-04-18T09:39:50.175Z</time></trkpt><trkpt lat="45.1676567" lon="8.2508299"><ele>223.0</ele><time>2026-04-18T09:39:51.175Z</time></trkpt><trkpt lat="45.1676418" lon="8.2509259"><ele>222.99999999999997</ele><time>2026-04-18T09:39:52.175Z</time></trkpt><trkpt lat="45.167619" lon="8.2510325"><ele>223.0</ele><time>2026-04-18T09:39:53.175Z</time></trkpt><trkpt lat="45.167579" lon="8.2511377"><ele>223.49999999999997</ele><time>2026-04-18T09:39:54.175Z</time></trkpt><trkpt lat="45.167535" lon="8.2512404"><ele>224.0</ele><time>2026-04-18T09:39:55.175Z</time></trkpt><trkpt lat="45.1674959" lon="8.2513456"><ele>224.5</ele><time>2026-04-18T09:39:56.175Z</time></trkpt><trkpt lat="45.1674616" lon="8.2514455"><ele>225.0</ele><time>2026-04-18T09:39:57.175Z</time></trkpt><trkpt lat="45.1674413" lon="8.2515482"><ele>225.49999999999997</ele><time>2026-04-18T09:39:58.175Z</time></trkpt><trkpt lat="45.16744" lon="8.2516427"><ele>226.0</ele><time>2026-04-18T09:39:59.175Z</time></trkpt><trkpt lat="45.1674475" lon="8.2517557"><ele>227.33333333333331</ele><time>2026-04-18T09:40:00.175Z</time></trkpt><trkpt lat="45.1674709" lon="8.2518675"><ele>228.66666666666666</ele><time>2026-04-18T09:40:01.175Z</time></trkpt><trkpt lat="45.1675011" lon="8.2519935"><ele>230.0</ele><time>2026-04-18T09:40:02.175Z</time></trkpt><trkpt lat="45.1675291" lon="8.2521134"><ele>231.33333333333331</ele><time>2026-04-18T09:40:03.175Z</time></trkpt><trkpt lat="45.1675576" lon="8.2522302"><ele>232.66666666666666</ele><time>2026-04-18T09:40:04.175Z</time></trkpt><trkpt lat="45.167583" lon="8.2523369"><ele>234.0</ele><time>2026-04-18T09:40:05.175Z</time></trkpt><trkpt lat="45.1675912" lon="8.2524391"><ele>234.57142857142858</ele><time>2026-04-18T09:40:06.175Z</time></trkpt><trkpt lat="45.1675743" lon="8.252528"><ele>235.14285714285717</ele><time>2026-04-18T09:40:07.176Z</time></trkpt><trkpt lat="45.1675449" lon="8.2526122"><ele>235.71428571428572</ele><time>2026-04-18T09:40:08.176Z</time></trkpt><trkpt lat="45.16752" lon="8.2527002"><ele>236.28571428571428</ele><time>2026-04-18T09:40:09.175Z</time></trkpt><trkpt lat="45.167486" lon="8.252785"><ele>236.85714285714286</ele><time>2026-04-18T09:40:10.175Z</time></trkpt><trkpt lat="45.1674346" lon="8.2528753"><ele>237.42857142857144</ele><time>2026-04-18T09:40:11.175Z</time></trkpt><trkpt lat="45.1673947" lon="8.2529768"><ele>238.0</ele><time>2026-04-18T09:40:12.175Z</time></trkpt><trkpt lat="45.1673463" lon="8.2530839"><ele>235.0</ele><time>2026-04-18T09:40:13.175Z</time></trkpt><trkpt lat="45.1673211" lon="8.2531992"><ele>232.0</ele><time>2026-04-18T09:40:14.175Z</time></trkpt><trkpt lat="45.1673083" lon="8.2533198"><ele>229.0</ele><time>2026-04-18T09:40:15.175Z</time></trkpt><trkpt lat="45.1673062" lon="8.25347"><ele>226.0</ele><time>2026-04-18T09:40:16.175Z</time></trkpt><trkpt lat="45.1673238" lon="8.2536046"><ele>223.0</ele><time>2026-04-18T09:40:17.175Z</time></trkpt><trkpt lat="45.1673261" lon="8.2537367"><ele>223.0</ele><time>2026-04-18T09:40:18.175Z</time></trkpt><trkpt lat="45.1673244" lon="8.2538782"><ele>223.0</ele><time>2026-04-18T09:40:19.176Z</time></trkpt><trkpt lat="45.1673083" lon="8.2540188"><ele>223.0</ele><time>2026-04-18T09:40:20.175Z</time></trkpt><trkpt lat="45.1672871" lon="8.2541408"><ele>223.0</ele><time>2026-04-18T09:40:21.175Z</time></trkpt><trkpt lat="45.1672522" lon="8.2542694"><ele>223.0</ele><time>2026-04-18T09:40:22.175Z</time></trkpt><trkpt lat="45.1672153" lon="8.254402"><ele>224.2</ele><time>2026-04-18T09:40:23.175Z</time></trkpt><trkpt lat="45.1671779" lon="8.2545308"><ele>225.4</ele><time>2026-04-18T09:40:24.176Z</time></trkpt><trkpt lat="45.167145" lon="8.2546681"><ele>226.59999999999997</ele><time>2026-04-18T09:40:25.175Z</time></trkpt><trkpt lat="45.1671141" lon="8.2548069"><ele>227.79999999999998</ele><time>2026-04-18T09:40:26.175Z</time></trkpt><trkpt lat="45.1670975" lon="8.2549457"><ele>229.0</ele><time>2026-04-18T09:40:27.175Z</time></trkpt><trkpt lat="45.167108" lon="8.2551013"><ele>230.39999999999998</ele><time>2026-04-18T09:40:28.175Z</time></trkpt><trkpt lat="45.1671242" lon="8.2552422"><ele>231.79999999999998</ele><time>2026-04-18T09:40:29.176Z</time></trkpt><trkpt lat="45.1671442" lon="8.2553776"><ele>233.20000000000002</ele><time>2026-04-18T09:40:30.176Z</time></trkpt><trkpt lat="45.1671552" lon="8.2555083"><ele>234.60000000000002</ele><time>2026-04-18T09:40:31.175Z</time></trkpt><trkpt lat="45.1671586" lon="8.2556378"><ele>236.0</ele><time>2026-04-18T09:40:32.175Z</time></trkpt><trkpt lat="45.1671575" lon="8.2557644"><ele>238.60000000000002</ele><time>2026-04-18T09:40:33.176Z</time></trkpt><trkpt lat="45.1671283" lon="8.2558773"><ele>241.20000000000002</ele><time>2026-04-18T09:40:34.175Z</time></trkpt><trkpt lat="45.1670736" lon="8.2559813"><ele>243.79999999999998</ele><time>2026-04-18T09:40:35.175Z</time></trkpt><trkpt lat="45.1670042" lon="8.2560756"><ele>246.39999999999998</ele><time>2026-04-18T09:40:36.175Z</time></trkpt><trkpt lat="45.1669229" lon="8.2561709"><ele>249.0</ele><time>2026-04-18T09:40:37.175Z</time></trkpt><trkpt lat="45.1668326" lon="8.2562757"><ele>249.0</ele><time>2026-04-18T09:40:38.175Z</time></trkpt><trkpt lat="45.1667335" lon="8.2563953"><ele>249.0</ele><time>2026-04-18T09:40:39.175Z</time></trkpt><trkpt lat="45.1666323" lon="8.2565179"><ele>249.0</ele><time>2026-04-18T09:40:40.176Z</time></trkpt><trkpt lat="45.166521" lon="8.256636"><ele>249.0</ele><time>2026-04-18T09:40:41.175Z</time></trkpt><trkpt lat="45.1664019" lon="8.2567611"><ele>249.25</ele><time>2026-04-18T09:40:42.175Z</time></trkpt><trkpt lat="45.1662814" lon="8.2568872"><ele>249.5</ele><time>2026-04-18T09:40:43.175Z</time></trkpt><trkpt lat="45.1661675" lon="8.2570216"><ele>249.75</ele><time>2026-04-18T09:40:44.175Z</time></trkpt><trkpt lat="45.1660502" lon="8.2571478"><ele>250.0</ele><time>2026-04-18T09:40:45.176Z</time></trkpt><trkpt lat="45.1659412" lon="8.2572753"><ele>252.0</ele><time>2026-04-18T09:40:46.176Z</time></trkpt><trkpt lat="45.165841" lon="8.2573954"><ele>254.0</ele><time>2026-04-18T09:40:47.175Z</time></trkpt><trkpt lat="45.1657412" lon="8.2575046"><ele>256.0</ele><time>2026-04-18T09:40:48.175Z</time></trkpt><trkpt lat="45.1656392" lon="8.2576067"><ele>258.0</ele><time>2026-04-18T09:40:49.176Z</time></trkpt><trkpt lat="45.1655255" lon="8.2576787"><ele>259.0</ele><time>2026-04-18T09:40:50.175Z</time></trkpt><trkpt lat="45.1654134" lon="8.2577214"><ele>260.0</ele><time>2026-04-18T09:40:51.175Z</time></trkpt><trkpt lat="45.1652913" lon="8.2577485"><ele>261.0</ele><time>2026-04-18T09:40:52.175Z</time></trkpt><trkpt lat="45.1651642" lon="8.2577684"><ele>262.0</ele><time>2026-04-18T09:40:53.175Z</time></trkpt><trkpt lat="45.1650393" lon="8.2577913"><ele>262.0</ele><time>2026-04-18T09:40:54.176Z</time></trkpt><trkpt lat="45.164924" lon="8.2578209"><ele>262.0</ele><time>2026-04-18T09:40:55.175Z</time></trkpt><trkpt lat="45.1648103" lon="8.2578527"><ele>262.0</ele><time>2026-04-18T09:40:56.175Z</time></trkpt><trkpt lat="45.1647063" lon="8.2578932"><ele>262.0</ele><time>2026-04-18T09:40:57.175Z</time></trkpt><trkpt lat="45.164613" lon="8.2579509"><ele>262.0</ele><time>2026-04-18T09:40:58.176Z</time></trkpt><trkpt lat="45.1645388" lon="8.2580125"><ele>265.6</ele><time>2026-04-18T09:40:59.175Z</time></trkpt><trkpt lat="45.164493" lon="8.2581143"><ele>269.2</ele><time>2026-04-18T09:41:00.175Z</time></trkpt><trkpt lat="45.1644558" lon="8.2582277"><ele>272.8</ele><time>2026-04-18T09:41:01.175Z</time></trkpt><trkpt lat="45.164433" lon="8.2583531"><ele>276.4</ele><time>2026-04-18T09:41:02.176Z</time></trkpt><trkpt lat="45.1644103" lon="8.2584915"><ele>280.0</ele><time>2026-04-18T09:41:03.175Z</time></trkpt><trkpt lat="45.1643763" lon="8.2586172"><ele>282.75</ele><time>2026-04-18T09:41:04.176Z</time></trkpt><trkpt lat="45.1643184" lon="8.2587417"><ele>285.5</ele><time>2026-04-18T09:41:05.175Z</time></trkpt><trkpt lat="45.1642418" lon="8.2588742"><ele>288.25</ele><time>2026-04-18T09:41:06.175Z</time></trkpt><trkpt lat="45.1641602" lon="8.2590131"><ele>291.0</ele><time>2026-04-18T09:41:07.175Z</time></trkpt><trkpt lat="45.1640843" lon="8.2591632"><ele>299.25</ele><time>2026-04-18T09:41:08.175Z</time></trkpt><trkpt lat="45.1640265" lon="8.2593213"><ele>307.5</ele><time>2026-04-18T09:41:09.175Z</time></trkpt><trkpt lat="45.1639833" lon="8.259485"><ele>315.75</ele><time>2026-04-18T09:41:10.175Z</time></trkpt><trkpt lat="45.1639521" lon="8.2596459"><ele>324.0</ele><time>2026-04-18T09:41:11.175Z</time></trkpt><trkpt lat="45.1639384" lon="8.2597953"><ele>324.79999999999995</ele><time>2026-04-18T09:41:12.175Z</time></trkpt><trkpt lat="45.1639616" lon="8.2599336"><ele>325.59999999999997</ele><time>2026-04-18T09:41:13.175Z</time></trkpt><trkpt lat="45.1640006" lon="8.2600824"><ele>326.4</ele><time>2026-04-18T09:41:14.175Z</time></trkpt><trkpt lat="45.1640501" lon="8.2602148"><ele>327.2</ele><time>2026-04-18T09:41:15.175Z</time></trkpt><trkpt lat="45.1640889" lon="8.2603307"><ele>328.0</ele><time>2026-04-18T09:41:16.175Z</time></trkpt><trkpt lat="45.1641047" lon="8.26044"><ele>322.59999999999997</ele><time>2026-04-18T09:41:17.175Z</time></trkpt><trkpt lat="45.1641056" lon="8.2605672"><ele>317.2</ele><time>2026-04-18T09:41:18.175Z</time></trkpt><trkpt lat="45.1640777" lon="8.2607102"><ele>311.8</ele><time>2026-04-18T09:41:19.175Z</time></trkpt><trkpt lat="45.164052" lon="8.2608536"><ele>306.4</ele><time>2026-04-18T09:41:20.175Z</time></trkpt><trkpt lat="45.1640489" lon="8.2610062"><ele>301.0</ele><time>2026-04-18T09:41:21.175Z</time></trkpt><trkpt lat="45.1640605" lon="8.2611448"><ele>301.0</ele><time>2026-04-18T09:41:22.175Z</time></trkpt><trkpt lat="45.1640626" lon="8.2612579"><ele>301.0</ele><time>2026-04-18T09:41:23.175Z</time></trkpt><trkpt lat="45.1640594" lon="8.26135"><ele>301.0</ele><time>2026-04-18T09:41:24.176Z</time></trkpt><trkpt lat="45.1639837" lon="8.2614797"><ele>301.0</ele><time>2026-04-18T09:41:26.175Z</time></trkpt><trkpt lat="45.1639103" lon="8.2614681"><ele>301.0</ele><time>2026-04-18T09:41:28.175Z</time></trkpt><trkpt lat="45.1638447" lon="8.2613017"><ele>307.75</ele><time>2026-04-18T09:41:30.176Z</time></trkpt><trkpt lat="45.1638139" lon="8.2611651"><ele>314.5</ele><time>2026-04-18T09:41:31.175Z</time></trkpt><trkpt lat="45.1637867" lon="8.2609987"><ele>321.25</ele><time>2026-04-18T09:41:32.175Z</time></trkpt><trkpt lat="45.1637501" lon="8.260812"><ele>328.0</ele><time>2026-04-18T09:41:33.176Z</time></trkpt><trkpt lat="45.1637067" lon="8.2606113"><ele>328.0</ele><time>2026-04-18T09:41:34.175Z</time></trkpt><trkpt lat="45.1636697" lon="8.2604078"><ele>328.0</ele><time>2026-04-18T09:41:35.175Z</time></trkpt><trkpt lat="45.1636421" lon="8.2602088"><ele>328.0</ele><time>2026-04-18T09:41:36.175Z</time></trkpt><trkpt lat="45.1636112" lon="8.2600399"><ele>328.0</ele><time>2026-04-18T09:41:37.175Z</time></trkpt><trkpt lat="45.163585" lon="8.259883"><ele>327.2</ele><time>2026-04-18T09:41:38.176Z</time></trkpt><trkpt lat="45.1635541" lon="8.2597529"><ele>326.4</ele><time>2026-04-18T09:41:39.175Z</time></trkpt><trkpt lat="45.1635158" lon="8.2596446"><ele>325.59999999999997</ele><time>2026-04-18T09:41:40.175Z</time></trkpt><trkpt lat="45.163453" lon="8.2595541"><ele>324.79999999999995</ele><time>2026-04-18T09:41:41.176Z</time></trkpt><trkpt lat="45.1633742" lon="8.2594626"><ele>324.0</ele><time>2026-04-18T09:41:42.175Z</time></trkpt><trkpt lat="45.1632888" lon="8.2594001"><ele>323.0</ele><time>2026-04-18T09:41:43.175Z</time></trkpt><trkpt lat="45.1631931" lon="8.259344"><ele>322.0</ele><time>2026-04-18T09:41:44.176Z</time></trkpt><trkpt lat="45.1630993" lon="8.2593015"><ele>321.0</ele><time>2026-04-18T09:41:45.175Z</time></trkpt><trkpt lat="45.1630154" lon="8.25928"><ele>320.0</ele><time>2026-04-18T09:41:46.175Z</time></trkpt><trkpt lat="45.1629473" lon="8.2592466"><ele>319.0</ele><time>2026-04-18T09:41:47.175Z</time></trkpt><trkpt lat="45.1628665" lon="8.2592227"><ele>318.0</ele><time>2026-04-18T09:41:49.176Z</time></trkpt><trkpt lat="45.1629287" lon="8.2593416"><ele>318.0</ele><time>2026-04-18T09:41:54.176Z</time></trkpt><trkpt lat="45.1630337" lon="8.2594151"><ele>318.0</ele><time>2026-04-18T09:41:56.175Z</time></trkpt><trkpt lat="45.1630982" lon="8.2594517"><ele>318.0</ele><time>2026-04-18T09:41:57.175Z</time></trkpt><trkpt lat="45.1631612" lon="8.259507"><ele>318.0</ele><time>2026-04-18T09:41:58.175Z</time></trkpt><trkpt lat="45.1632152" lon="8.2595746"><ele>318.0</ele><time>2026-04-18T09:41:59.175Z</time></trkpt><trkpt lat="45.1632804" lon="8.2597099"><ele>318.0</ele><time>2026-04-18T09:42:01.175Z</time></trkpt><trkpt lat="45.1633046" lon="8.2598733"><ele>320.0</ele><time>2026-04-18T09:42:03.175Z</time></trkpt><trkpt lat="45.1633062" lon="8.2599799"><ele>322.0</ele><time>2026-04-18T09:42:04.175Z</time></trkpt><trkpt lat="45.163297" lon="8.2601153"><ele>324.0</ele><time>2026-04-18T09:42:05.175Z</time></trkpt><trkpt lat="45.1632784" lon="8.2602642"><ele>326.0</ele><time>2026-04-18T09:42:06.175Z</time></trkpt><trkpt lat="45.1632565" lon="8.2604004"><ele>328.0</ele><time>2026-04-18T09:42:07.175Z</time></trkpt><trkpt lat="45.1632379" lon="8.2605392"><ele>328.4</ele><time>2026-04-18T09:42:08.175Z</time></trkpt><trkpt lat="45.1632146" lon="8.260676"><ele>328.79999999999995</ele><time>2026-04-18T09:42:09.176Z</time></trkpt><trkpt lat="45.163187" lon="8.2608097"><ele>329.2</ele><time>2026-04-18T09:42:10.175Z</time></trkpt><trkpt lat="45.163154" lon="8.2609335"><ele>329.6</ele><time>2026-04-18T09:42:11.175Z</time></trkpt><trkpt lat="45.1631119" lon="8.2610511"><ele>330.0</ele><time>2026-04-18T09:42:12.175Z</time></trkpt><trkpt lat="45.1630747" lon="8.2611534"><ele>332.8</ele><time>2026-04-18T09:42:13.175Z</time></trkpt><trkpt lat="45.1630496" lon="8.2612432"><ele>335.6</ele><time>2026-04-18T09:42:14.175Z</time></trkpt><trkpt lat="45.1630311" lon="8.2613971"><ele>338.4</ele><time>2026-04-18T09:42:16.175Z</time></trkpt><trkpt lat="45.1630728" lon="8.2615627"><ele>341.2</ele><time>2026-04-18T09:42:18.175Z</time></trkpt><trkpt lat="45.1631097" lon="8.2616699"><ele>344.0</ele><time>2026-04-18T09:42:19.175Z</time></trkpt><trkpt lat="45.1631503" lon="8.2617987"><ele>345.0</ele><time>2026-04-18T09:42:20.176Z</time></trkpt><trkpt lat="45.1631953" lon="8.2619466"><ele>346.0</ele><time>2026-04-18T09:42:21.175Z</time></trkpt><trkpt lat="45.1632446" lon="8.2620932"><ele>347.0</ele><time>2026-04-18T09:42:22.175Z</time></trkpt><trkpt lat="45.1632999" lon="8.2622303"><ele>348.0</ele><time>2026-04-18T09:42:23.175Z</time></trkpt><trkpt lat="45.163356" lon="8.2623621"><ele>349.0</ele><time>2026-04-18T09:42:24.175Z</time></trkpt><trkpt lat="45.1634068" lon="8.2624771"><ele>349.0</ele><time>2026-04-18T09:42:25.176Z</time></trkpt><trkpt lat="45.1634517" lon="8.2625875"><ele>349.0</ele><time>2026-04-18T09:42:26.175Z</time></trkpt><trkpt lat="45.1634911" lon="8.2626912"><ele>349.0</ele><time>2026-04-18T09:42:27.175Z</time></trkpt><trkpt lat="45.1635251" lon="8.2627921"><ele>349.0</ele><time>2026-04-18T09:42:28.175Z</time></trkpt><trkpt lat="45.1635419" lon="8.2628972"><ele>349.0</ele><time>2026-04-18T09:42:29.175Z</time></trkpt><trkpt lat="45.1635506" lon="8.2630061"><ele>349.0</ele><time>2026-04-18T09:42:30.175Z</time></trkpt><trkpt lat="45.163546" lon="8.2631154"><ele>349.4</ele><time>2026-04-18T09:42:31.175Z</time></trkpt><trkpt lat="45.1635296" lon="8.2632199"><ele>349.79999999999995</ele><time>2026-04-18T09:42:32.175Z</time></trkpt><trkpt lat="45.1634979" lon="8.2633152"><ele>350.20000000000005</ele><time>2026-04-18T09:42:33.175Z</time></trkpt><trkpt lat="45.1634298" lon="8.2634413"><ele>350.6</ele><time>2026-04-18T09:42:35.175Z</time></trkpt><trkpt lat="45.1633658" lon="8.2636093"><ele>351.0</ele><time>2026-04-18T09:42:37.175Z</time></trkpt><trkpt lat="45.1633121" lon="8.2637666"><ele>351.0</ele><time>2026-04-18T09:42:39.174Z</time></trkpt><trkpt lat="45.1632696" lon="8.2639245"><ele>351.0</ele><time>2026-04-18T09:42:41.174Z</time></trkpt><trkpt lat="45.1632517" lon="8.2640114"><ele>351.0</ele><time>2026-04-18T09:42:42.174Z</time></trkpt><trkpt lat="45.1632318" lon="8.2641092"><ele>351.0</ele><time>2026-04-18T09:42:43.174Z</time></trkpt><trkpt lat="45.163212" lon="8.2642238"><ele>351.0</ele><time>2026-04-18T09:42:44.174Z</time></trkpt><trkpt lat="45.1631915" lon="8.2643273"><ele>351.0</ele><time>2026-04-18T09:42:45.174Z</time></trkpt><trkpt lat="45.1631707" lon="8.2644604"><ele>350.6666666666667</ele><time>2026-04-18T09:42:47.174Z</time></trkpt><trkpt lat="45.1631913" lon="8.2645523"><ele>350.3333333333333</ele><time>2026-04-18T09:42:49.175Z</time></trkpt><trkpt lat="45.1632692" lon="8.2646205"><ele>350.0</ele><time>2026-04-18T09:42:51.174Z</time></trkpt><trkpt lat="45.1633094" lon="8.2646941"><ele>349.66666666666663</ele><time>2026-04-18T09:42:53.174Z</time></trkpt><trkpt lat="45.1633009" lon="8.2647958"><ele>349.3333333333333</ele><time>2026-04-18T09:42:55.175Z</time></trkpt><trkpt lat="45.1632366" lon="8.2649092"><ele>349.0</ele><time>2026-04-18T09:42:57.174Z</time></trkpt><trkpt lat="45.163175" lon="8.2650246"><ele>349.0</ele><time>2026-04-18T09:42:59.174Z</time></trkpt><trkpt lat="45.1631966" lon="8.2651491"><ele>349.0</ele><time>2026-04-18T09:43:01.174Z</time></trkpt><trkpt lat="45.1632338" lon="8.2652547"><ele>349.0</ele><time>2026-04-18T09:43:03.174Z</time></trkpt><trkpt lat="45.1632861" lon="8.2654142"><ele>349.0</ele><time>2026-04-18T09:43:05.174Z</time></trkpt><trkpt lat="45.1633525" lon="8.2655594"><ele>349.0</ele><time>2026-04-18T09:43:07.174Z</time></trkpt><trkpt lat="45.1634211" lon="8.2656485"><ele>350.4</ele><time>2026-04-18T09:43:09.174Z</time></trkpt><trkpt lat="45.163483" lon="8.265727"><ele>351.79999999999995</ele><time>2026-04-18T09:43:11.174Z</time></trkpt><trkpt lat="45.1635804" lon="8.2657546"><ele>353.20000000000005</ele><time>2026-04-18T09:43:13.174Z</time></trkpt><trkpt lat="45.1636966" lon="8.26578"><ele>354.6</ele><time>2026-04-18T09:43:15.175Z</time></trkpt><trkpt lat="45.1637932" lon="8.2657986"><ele>356.0</ele><time>2026-04-18T09:43:17.175Z</time></trkpt><trkpt lat="45.1638599" lon="8.2658421"><ele>356.0</ele><time>2026-04-18T09:43:19.174Z</time></trkpt><trkpt lat="45.1639548" lon="8.265928"><ele>356.0</ele><time>2026-04-18T09:43:21.174Z</time></trkpt><trkpt lat="45.1640091" lon="8.2660502"><ele>356.0</ele><time>2026-04-18T09:43:23.174Z</time></trkpt><trkpt lat="45.1640446" lon="8.2661707"><ele>356.0</ele><time>2026-04-18T09:43:25.175Z</time></trkpt><trkpt lat="45.1640526" lon="8.2662913"><ele>356.0</ele><time>2026-04-18T09:43:27.174Z</time></trkpt><trkpt lat="45.164035" lon="8.2664285"><ele>356.8</ele><time>2026-04-18T09:43:29.174Z</time></trkpt><trkpt lat="45.1639938" lon="8.2665675"><ele>357.6</ele><time>2026-04-18T09:43:31.174Z</time></trkpt><trkpt lat="45.1639283" lon="8.2667185"><ele>358.4</ele><time>2026-04-18T09:43:33.175Z</time></trkpt><trkpt lat="45.1638926" lon="8.2668116"><ele>359.2</ele><time>2026-04-18T09:43:34.174Z</time></trkpt><trkpt lat="45.1638295" lon="8.2669525"><ele>360.0</ele><time>2026-04-18T09:43:36.174Z</time></trkpt><trkpt lat="45.1637813" lon="8.267095"><ele>360.0</ele><time>2026-04-18T09:43:38.175Z</time></trkpt><trkpt lat="45.1637749" lon="8.2672225"><ele>360.0</ele><time>2026-04-18T09:43:40.174Z</time></trkpt><trkpt lat="45.1637688" lon="8.2673677"><ele>360.0</ele><time>2026-04-18T09:43:42.175Z</time></trkpt><trkpt lat="45.1637498" lon="8.2675088"><ele>360.0</ele><time>2026-04-18T09:43:44.174Z</time></trkpt><trkpt lat="45.1636992" lon="8.2676675"><ele>360.0</ele><time>2026-04-18T09:43:46.174Z</time></trkpt><trkpt lat="45.163645" lon="8.267808"><ele>356.8</ele><time>2026-04-18T09:43:48.174Z</time></trkpt><trkpt lat="45.1635866" lon="8.2679382"><ele>353.6</ele><time>2026-04-18T09:43:50.174Z</time></trkpt><trkpt lat="45.1635301" lon="8.2680787"><ele>350.4</ele><time>2026-04-18T09:43:52.174Z</time></trkpt><trkpt lat="45.1634625" lon="8.2681962"><ele>347.2</ele><time>2026-04-18T09:43:54.174Z</time></trkpt><trkpt lat="45.1634106" lon="8.2682626"><ele>344.0</ele><time>2026-04-18T09:43:56.174Z</time></trkpt><trkpt lat="45.1633433" lon="8.2682981"><ele>342.83333333333337</ele><time>2026-04-18T09:43:58.174Z</time></trkpt><trkpt lat="45.1632686" lon="8.268351"><ele>341.6666666666667</ele><time>2026-04-18T09:44:00.174Z</time></trkpt><trkpt lat="45.1631873" lon="8.2684197"><ele>340.5</ele><time>2026-04-18T09:44:02.174Z</time></trkpt><trkpt lat="45.163106" lon="8.2684693"><ele>339.3333333333333</ele><time>2026-04-18T09:44:04.174Z</time></trkpt><trkpt lat="45.1630374" lon="8.2685294"><ele>338.16666666666663</ele><time>2026-04-18T09:44:06.174Z</time></trkpt><trkpt lat="45.1629782" lon="8.2686114"><ele>337.0</ele><time>2026-04-18T09:44:08.174Z</time></trkpt><trkpt lat="45.1629245" lon="8.2687215"><ele>333.8</ele><time>2026-04-18T09:44:10.174Z</time></trkpt><trkpt lat="45.1628491" lon="8.2688329"><ele>330.6</ele><time>2026-04-18T09:44:12.174Z</time></trkpt><trkpt lat="45.1627666" lon="8.2689005"><ele>327.40000000000003</ele><time>2026-04-18T09:44:14.174Z</time></trkpt><trkpt lat="45.1627066" lon="8.2689823"><ele>324.20000000000005</ele><time>2026-04-18T09:44:16.175Z</time></trkpt><trkpt lat="45.1626474" lon="8.2691067"><ele>321.0</ele><time>2026-04-18T09:44:18.175Z</time></trkpt><trkpt lat="45.1625895" lon="8.2692521"><ele>321.0</ele><time>2026-04-18T09:44:20.174Z</time></trkpt><trkpt lat="45.162522" lon="8.2693936"><ele>321.0</ele><time>2026-04-18T09:44:22.174Z</time></trkpt><trkpt lat="45.1624572" lon="8.2695279"><ele>321.0</ele><time>2026-04-18T09:44:24.174Z</time></trkpt><trkpt lat="45.1623828" lon="8.2696764"><ele>321.0</ele><time>2026-04-18T09:44:26.174Z</time></trkpt><trkpt lat="45.1623416" lon="8.2697543"><ele>321.0</ele><time>2026-04-18T09:44:27.174Z</time></trkpt><trkpt lat="45.16227" lon="8.2698926"><ele>319.6</ele><time>2026-04-18T09:44:29.174Z</time></trkpt><trkpt lat="45.162175" lon="8.2699827"><ele>318.20000000000005</ele><time>2026-04-18T09:44:31.174Z</time></trkpt><trkpt lat="45.1620654" lon="8.2699871"><ele>316.79999999999995</ele><time>2026-04-18T09:44:33.174Z</time></trkpt><trkpt lat="45.1619625" lon="8.2699666"><ele>315.4</ele><time>2026-04-18T09:44:35.174Z</time></trkpt><trkpt lat="45.1618454" lon="8.269924"><ele>314.0</ele><time>2026-04-18T09:44:37.174Z</time></trkpt><trkpt lat="45.1617756" lon="8.269904"><ele>314.0</ele><time>2026-04-18T09:44:38.174Z</time></trkpt><trkpt lat="45.1617075" lon="8.2698978"><ele>314.0</ele><time>2026-04-18T09:44:39.174Z</time></trkpt><trkpt lat="45.1616442" lon="8.2698927"><ele>314.0</ele><time>2026-04-18T09:44:40.174Z</time></trkpt><trkpt lat="45.1615223" lon="8.2699234"><ele>314.0</ele><time>2026-04-18T09:44:42.174Z</time></trkpt><trkpt lat="45.1614043" lon="8.2699706"><ele>314.0</ele><time>2026-04-18T09:44:44.174Z</time></trkpt><trkpt lat="45.1613101" lon="8.2700621"><ele>311.1666666666667</ele><time>2026-04-18T09:44:46.174Z</time></trkpt><trkpt lat="45.161245" lon="8.2701776"><ele>308.33333333333337</ele><time>2026-04-18T09:44:48.174Z</time></trkpt><trkpt lat="45.1611985" lon="8.2703177"><ele>305.5</ele><time>2026-04-18T09:44:50.174Z</time></trkpt><trkpt lat="45.1611827" lon="8.2704066"><ele>302.6666666666667</ele><time>2026-04-18T09:44:51.174Z</time></trkpt><trkpt lat="45.1611788" lon="8.270497"><ele>299.8333333333333</ele><time>2026-04-18T09:44:52.175Z</time></trkpt><trkpt lat="45.1611773" lon="8.2705914"><ele>297.0</ele><time>2026-04-18T09:44:53.174Z</time></trkpt><trkpt lat="45.1611782" lon="8.2707691"><ele>297.0</ele><time>2026-04-18T09:44:55.175Z</time></trkpt><trkpt lat="45.1611868" lon="8.2708654"><ele>297.0</ele><time>2026-04-18T09:44:56.174Z</time></trkpt><trkpt lat="45.1611896" lon="8.270959"><ele>297.0</ele><time>2026-04-18T09:44:57.174Z</time></trkpt><trkpt lat="45.1611969" lon="8.2710539"><ele>297.0</ele><time>2026-04-18T09:44:58.174Z</time></trkpt><trkpt lat="45.1612019" lon="8.2711444"><ele>297.0</ele><time>2026-04-18T09:44:59.174Z</time></trkpt><trkpt lat="45.161212" lon="8.2713135"><ele>297.0</ele><time>2026-04-18T09:45:01.174Z</time></trkpt><trkpt lat="45.1612153" lon="8.2714936"><ele>296.5</ele><time>2026-04-18T09:45:03.174Z</time></trkpt><trkpt lat="45.1612156" lon="8.271592"><ele>296.0</ele><time>2026-04-18T09:45:04.174Z</time></trkpt><trkpt lat="45.161214" lon="8.2716964"><ele>295.5</ele><time>2026-04-18T09:45:05.174Z</time></trkpt><trkpt lat="45.1612126" lon="8.2718025"><ele>295.0</ele><time>2026-04-18T09:45:06.175Z</time></trkpt><trkpt lat="45.1611942" lon="8.2718904"><ele>294.5</ele><time>2026-04-18T09:45:07.174Z</time></trkpt><trkpt lat="45.1611748" lon="8.2719803"><ele>294.0</ele><time>2026-04-18T09:45:08.174Z</time></trkpt><trkpt lat="45.1611318" lon="8.2721403"><ele>294.0</ele><time>2026-04-18T09:45:10.174Z</time></trkpt><trkpt lat="45.1611053" lon="8.2722561"><ele>294.0</ele><time>2026-04-18T09:45:12.174Z</time></trkpt><trkpt lat="45.1610823" lon="8.2723446"><ele>294.0</ele><time>2026-04-18T09:45:14.174Z</time></trkpt><trkpt lat="45.1610449" lon="8.2724399"><ele>294.0</ele><time>2026-04-18T09:45:16.174Z</time></trkpt><trkpt lat="45.1609989" lon="8.2725504"><ele>294.0</ele><time>2026-04-18T09:45:19.175Z</time></trkpt><trkpt lat="45.1609545" lon="8.2726354"><ele>294.0</ele><time>2026-04-18T09:45:22.174Z</time></trkpt><trkpt lat="45.1609107" lon="8.2727426"><ele>294.5</ele><time>2026-04-18T09:45:24.174Z</time></trkpt><trkpt lat="45.1608972" lon="8.27287"><ele>295.0</ele><time>2026-04-18T09:45:26.174Z</time></trkpt><trkpt lat="45.160891" lon="8.2729964"><ele>295.5</ele><time>2026-04-18T09:45:28.174Z</time></trkpt><trkpt lat="45.1608911" lon="8.273127"><ele>296.0</ele><time>2026-04-18T09:45:30.174Z</time></trkpt><trkpt lat="45.1608719" lon="8.2734261"><ele>296.1666666666667</ele><time>2026-04-18T09:45:35.175Z</time></trkpt><trkpt lat="45.1608873" lon="8.2735365"><ele>296.33333333333337</ele><time>2026-04-18T09:45:37.175Z</time></trkpt><trkpt lat="45.1609122" lon="8.2736529"><ele>296.5</ele><time>2026-04-18T09:45:39.174Z</time></trkpt><trkpt lat="45.1609395" lon="8.2737459"><ele>296.6666666666667</ele><time>2026-04-18T09:45:41.174Z</time></trkpt><trkpt lat="45.1609719" lon="8.2738291"><ele>296.8333333333333</ele><time>2026-04-18T09:45:43.174Z</time></trkpt><trkpt lat="45.1610389" lon="8.2739085"><ele>297.0</ele><time>2026-04-18T09:45:45.174Z</time></trkpt><trkpt lat="45.1611333" lon="8.2739723"><ele>297.14285714285717</ele><time>2026-04-18T09:45:47.174Z</time></trkpt><trkpt lat="45.1611957" lon="8.2739913"><ele>297.28571428571433</ele><time>2026-04-18T09:45:48.174Z</time></trkpt><trkpt lat="45.1612614" lon="8.2739968"><ele>297.42857142857144</ele><time>2026-04-18T09:45:49.174Z</time></trkpt><trkpt lat="45.1613259" lon="8.2740093"><ele>297.57142857142856</ele><time>2026-04-18T09:45:50.174Z</time></trkpt><trkpt lat="45.1614011" lon="8.2740207"><ele>297.71428571428567</ele><time>2026-04-18T09:45:51.174Z</time></trkpt><trkpt lat="45.1614686" lon="8.2740579"><ele>297.85714285714283</ele><time>2026-04-18T09:45:52.174Z</time></trkpt><trkpt lat="45.1615421" lon="8.274109"><ele>298.0</ele><time>2026-04-18T09:45:53.174Z</time></trkpt><trkpt lat="45.1616103" lon="8.2741753"><ele>298.0</ele><time>2026-04-18T09:45:54.174Z</time></trkpt><trkpt lat="45.1616933" lon="8.274252"><ele>298.0</ele><time>2026-04-18T09:45:55.174Z</time></trkpt><trkpt lat="45.1617787" lon="8.2743226"><ele>298.0</ele><time>2026-04-18T09:45:56.174Z</time></trkpt><trkpt lat="45.1618649" lon="8.2744012"><ele>298.0</ele><time>2026-04-18T09:45:57.175Z</time></trkpt><trkpt lat="45.1619554" lon="8.2744773"><ele>298.0</ele><time>2026-04-18T09:45:58.174Z</time></trkpt><trkpt lat="45.1620483" lon="8.2745575"><ele>298.0</ele><time>2026-04-18T09:45:59.174Z</time></trkpt><trkpt lat="45.1621353" lon="8.2746409"><ele>298.0</ele><time>2026-04-18T09:46:00.174Z</time></trkpt><trkpt lat="45.1622186" lon="8.2747214"><ele>298.0</ele><time>2026-04-18T09:46:01.174Z</time></trkpt><trkpt lat="45.1622979" lon="8.2747959"><ele>298.0</ele><time>2026-04-18T09:46:02.175Z</time></trkpt><trkpt lat="45.1623645" lon="8.2749045"><ele>298.0</ele><time>2026-04-18T09:46:03.174Z</time></trkpt><trkpt lat="45.1624028" lon="8.2750197"><ele>299.2</ele><time>2026-04-18T09:46:04.174Z</time></trkpt><trkpt lat="45.162414" lon="8.2751644"><ele>300.4</ele><time>2026-04-18T09:46:05.174Z</time></trkpt><trkpt lat="45.1624004" lon="8.2753164"><ele>301.59999999999997</ele><time>2026-04-18T09:46:06.174Z</time></trkpt><trkpt lat="45.1623807" lon="8.2754652"><ele>302.8</ele><time>2026-04-18T09:46:07.174Z</time></trkpt><trkpt lat="45.1623687" lon="8.2756331"><ele>304.0</ele><time>2026-04-18T09:46:08.174Z</time></trkpt><trkpt lat="45.162357" lon="8.275799"><ele>297.5</ele><time>2026-04-18T09:46:09.175Z</time></trkpt><trkpt lat="45.1623528" lon="8.2759643"><ele>291.0</ele><time>2026-04-18T09:46:10.174Z</time></trkpt><trkpt lat="45.1623453" lon="8.2761298"><ele>284.5</ele><time>2026-04-18T09:46:11.174Z</time></trkpt><trkpt lat="45.1623407" lon="8.2762953"><ele>278.0</ele><time>2026-04-18T09:46:12.174Z</time></trkpt><trkpt lat="45.1623442" lon="8.2764581"><ele>277.8</ele><time>2026-04-18T09:46:13.175Z</time></trkpt><trkpt lat="45.1623614" lon="8.2766102"><ele>277.6</ele><time>2026-04-18T09:46:14.174Z</time></trkpt><trkpt lat="45.1623857" lon="8.2767514"><ele>277.4</ele><time>2026-04-18T09:46:15.174Z</time></trkpt><trkpt lat="45.1624246" lon="8.2768914"><ele>277.2</ele><time>2026-04-18T09:46:16.174Z</time></trkpt><trkpt lat="45.1624821" lon="8.2770154"><ele>277.0</ele><time>2026-04-18T09:46:17.174Z</time></trkpt><trkpt lat="45.1625548" lon="8.2771176"><ele>281.0</ele><time>2026-04-18T09:46:18.175Z</time></trkpt><trkpt lat="45.1626197" lon="8.2772394"><ele>285.0</ele><time>2026-04-18T09:46:19.174Z</time></trkpt><trkpt lat="45.1626646" lon="8.2773828"><ele>289.0</ele><time>2026-04-18T09:46:20.174Z</time></trkpt><trkpt lat="45.1626949" lon="8.2775345"><ele>293.0</ele><time>2026-04-18T09:46:21.174Z</time></trkpt><trkpt lat="45.1627105" lon="8.2776908"><ele>297.0</ele><time>2026-04-18T09:46:22.174Z</time></trkpt><trkpt lat="45.1627034" lon="8.2778474"><ele>297.0</ele><time>2026-04-18T09:46:23.174Z</time></trkpt><trkpt lat="45.1627041" lon="8.2780029"><ele>297.0</ele><time>2026-04-18T09:46:24.174Z</time></trkpt><trkpt lat="45.1626991" lon="8.2781599"><ele>297.0</ele><time>2026-04-18T09:46:25.174Z</time></trkpt><trkpt lat="45.1626847" lon="8.2783186"><ele>297.0</ele><time>2026-04-18T09:46:26.175Z</time></trkpt><trkpt lat="45.1626407" lon="8.2784603"><ele>297.0</ele><time>2026-04-18T09:46:27.174Z</time></trkpt><trkpt lat="45.1625771" lon="8.2785847"><ele>296.0</ele><time>2026-04-18T09:46:28.174Z</time></trkpt><trkpt lat="45.1624981" lon="8.2786913"><ele>295.0</ele><time>2026-04-18T09:46:29.174Z</time></trkpt><trkpt lat="45.1624111" lon="8.2787709"><ele>294.0</ele><time>2026-04-18T09:46:30.174Z</time></trkpt><trkpt lat="45.1623226" lon="8.2788307"><ele>293.0</ele><time>2026-04-18T09:46:31.174Z</time></trkpt><trkpt lat="45.1622515" lon="8.2789215"><ele>292.0</ele><time>2026-04-18T09:46:32.174Z</time></trkpt><trkpt lat="45.1622032" lon="8.2790375"><ele>292.0</ele><time>2026-04-18T09:46:33.174Z</time></trkpt><trkpt lat="45.1621635" lon="8.2791597"><ele>292.0</ele><time>2026-04-18T09:46:34.174Z</time></trkpt><trkpt lat="45.1621173" lon="8.2792887"><ele>292.0</ele><time>2026-04-18T09:46:35.174Z</time></trkpt><trkpt lat="45.1620662" lon="8.2794238"><ele>292.0</ele><time>2026-04-18T09:46:36.174Z</time></trkpt><trkpt lat="45.1620125" lon="8.2795624"><ele>292.0</ele><time>2026-04-18T09:46:37.174Z</time></trkpt><trkpt lat="45.1619594" lon="8.2797071"><ele>295.0</ele><time>2026-04-18T09:46:38.174Z</time></trkpt><trkpt lat="45.161912" lon="8.2798531"><ele>298.0</ele><time>2026-04-18T09:46:39.175Z</time></trkpt><trkpt lat="45.1618619" lon="8.2800063"><ele>301.0</ele><time>2026-04-18T09:46:40.175Z</time></trkpt><trkpt lat="45.1618013" lon="8.2801633"><ele>304.0</ele><time>2026-04-18T09:46:41.174Z</time></trkpt><trkpt lat="45.161744" lon="8.2803324"><ele>304.0</ele><time>2026-04-18T09:46:42.174Z</time></trkpt><trkpt lat="45.1616798" lon="8.2804842"><ele>304.0</ele><time>2026-04-18T09:46:43.174Z</time></trkpt><trkpt lat="45.1616049" lon="8.2806182"><ele>304.0</ele><time>2026-04-18T09:46:44.174Z</time></trkpt><trkpt lat="45.1615201" lon="8.2807243"><ele>304.0</ele><time>2026-04-18T09:46:45.174Z</time></trkpt><trkpt lat="45.1614139" lon="8.2808132"><ele>303.0</ele><time>2026-04-18T09:46:46.174Z</time></trkpt><trkpt lat="45.1613032" lon="8.2808861"><ele>302.0</ele><time>2026-04-18T09:46:47.174Z</time></trkpt><trkpt lat="45.1612077" lon="8.2809443"><ele>301.0</ele><time>2026-04-18T09:46:48.174Z</time></trkpt><trkpt lat="45.1611267" lon="8.2809958"><ele>300.0</ele><time>2026-04-18T09:46:49.174Z</time></trkpt><trkpt lat="45.1610549" lon="8.2810394"><ele>299.0</ele><time>2026-04-18T09:46:50.174Z</time></trkpt><trkpt lat="45.160995" lon="8.2810749"><ele>299.0</ele><time>2026-04-18T09:46:51.175Z</time></trkpt><trkpt lat="45.1608849" lon="8.2811366"><ele>299.0</ele><time>2026-04-18T09:46:53.174Z</time></trkpt><trkpt lat="45.1608242" lon="8.2811701"><ele>299.0</ele><time>2026-04-18T09:46:54.174Z</time></trkpt><trkpt lat="45.1607683" lon="8.2812186"><ele>299.0</ele><time>2026-04-18T09:46:55.174Z</time></trkpt><trkpt lat="45.1606938" lon="8.2813715"><ele>299.0</ele><time>2026-04-18T09:46:57.174Z</time></trkpt><trkpt lat="45.1606594" lon="8.2814682"><ele>299.83333333333337</ele><time>2026-04-18T09:46:58.174Z</time></trkpt><trkpt lat="45.1606404" lon="8.2815757"><ele>300.6666666666667</ele><time>2026-04-18T09:46:59.174Z</time></trkpt><trkpt lat="45.1606225" lon="8.2816844"><ele>301.5</ele><time>2026-04-18T09:47:00.174Z</time></trkpt><trkpt lat="45.1606145" lon="8.28178"><ele>302.3333333333333</ele><time>2026-04-18T09:47:01.175Z</time></trkpt><trkpt lat="45.160638" lon="8.281954"><ele>303.16666666666663</ele><time>2026-04-18T09:47:03.175Z</time></trkpt><trkpt lat="45.1606758" lon="8.2820263"><ele>304.0</ele><time>2026-04-18T09:47:04.174Z</time></trkpt><trkpt lat="45.1607756" lon="8.2821204"><ele>304.0</ele><time>2026-04-18T09:47:06.174Z</time></trkpt><trkpt lat="45.1608431" lon="8.2821428"><ele>304.0</ele><time>2026-04-18T09:47:07.174Z</time></trkpt><trkpt lat="45.1609188" lon="8.2821446"><ele>304.0</ele><time>2026-04-18T09:47:08.174Z</time></trkpt><trkpt lat="45.1609944" lon="8.2821216"><ele>304.0</ele><time>2026-04-18T09:47:09.174Z</time></trkpt><trkpt lat="45.1610909" lon="8.2820894"><ele>304.0</ele><time>2026-04-18T09:47:10.174Z</time></trkpt><trkpt lat="45.1611955" lon="8.2820771"><ele>304.0</ele><time>2026-04-18T09:47:11.174Z</time></trkpt><trkpt lat="45.1612938" lon="8.2820703"><ele>304.0</ele><time>2026-04-18T09:47:12.175Z</time></trkpt><trkpt lat="45.1613951" lon="8.2820797"><ele>304.0</ele><time>2026-04-18T09:47:13.174Z</time></trkpt><trkpt lat="45.1615002" lon="8.2821043"><ele>304.0</ele><time>2026-04-18T09:47:14.174Z</time></trkpt><trkpt lat="45.1616125" lon="8.2821317"><ele>304.0</ele><time>2026-04-18T09:47:15.174Z</time></trkpt><trkpt lat="45.1617208" lon="8.282161"><ele>304.0</ele><time>2026-04-18T09:47:16.174Z</time></trkpt><trkpt lat="45.1618295" lon="8.2821983"><ele>306.0</ele><time>2026-04-18T09:47:17.174Z</time></trkpt><trkpt lat="45.1619345" lon="8.2822331"><ele>308.0</ele><time>2026-04-18T09:47:18.174Z</time></trkpt><trkpt lat="45.162028" lon="8.282273"><ele>310.0</ele><time>2026-04-18T09:47:19.174Z</time></trkpt><trkpt lat="45.1621133" lon="8.282333"><ele>312.0</ele><time>2026-04-18T09:47:20.175Z</time></trkpt><trkpt lat="45.1621945" lon="8.2824263"><ele>314.0</ele><time>2026-04-18T09:47:21.174Z</time></trkpt><trkpt lat="45.1622582" lon="8.2825412"><ele>310.75</ele><time>2026-04-18T09:47:22.174Z</time></trkpt><trkpt lat="45.1623168" lon="8.2826641"><ele>307.5</ele><time>2026-04-18T09:47:23.175Z</time></trkpt><trkpt lat="45.1623814" lon="8.2828005"><ele>304.25</ele><time>2026-04-18T09:47:24.174Z</time></trkpt><trkpt lat="45.1624482" lon="8.2829426"><ele>301.0</ele><time>2026-04-18T09:47:25.174Z</time></trkpt><trkpt lat="45.1625103" lon="8.2830782"><ele>297.16666666666663</ele><time>2026-04-18T09:47:26.175Z</time></trkpt><trkpt lat="45.1625664" lon="8.2831954"><ele>293.3333333333333</ele><time>2026-04-18T09:47:27.174Z</time></trkpt><trkpt lat="45.1626093" lon="8.2833063"><ele>289.5</ele><time>2026-04-18T09:47:28.174Z</time></trkpt><trkpt lat="45.1626464" lon="8.283401"><ele>285.6666666666667</ele><time>2026-04-18T09:47:29.174Z</time></trkpt><trkpt lat="45.1626815" lon="8.2834893"><ele>281.83333333333337</ele><time>2026-04-18T09:47:30.174Z</time></trkpt><trkpt lat="45.1626972" lon="8.2835799"><ele>278.0</ele><time>2026-04-18T09:47:31.175Z</time></trkpt><trkpt lat="45.1626492" lon="8.2837243"><ele>278.0</ele><time>2026-04-18T09:47:33.174Z</time></trkpt><trkpt lat="45.1625796" lon="8.283743"><ele>278.0</ele><time>2026-04-18T09:47:34.174Z</time></trkpt><trkpt lat="45.162509" lon="8.283719"><ele>278.0</ele><time>2026-04-18T09:47:35.174Z</time></trkpt><trkpt lat="45.1624587" lon="8.2836651"><ele>278.0</ele><time>2026-04-18T09:47:36.175Z</time></trkpt><trkpt lat="45.1624175" lon="8.283586"><ele>278.0</ele><time>2026-04-18T09:47:37.174Z</time></trkpt><trkpt lat="45.1623699" lon="8.2834865"><ele>278.0</ele><time>2026-04-18T09:47:38.174Z</time></trkpt><trkpt lat="45.1623127" lon="8.2834192"><ele>278.0</ele><time>2026-04-18T09:47:39.174Z</time></trkpt><trkpt lat="45.1622419" lon="8.2833826"><ele>276.0</ele><time>2026-04-18T09:47:40.174Z</time></trkpt><trkpt lat="45.162172" lon="8.2833665"><ele>274.0</ele><time>2026-04-18T09:47:41.174Z</time></trkpt><trkpt lat="45.1621063" lon="8.2833815"><ele>272.0</ele><time>2026-04-18T09:47:42.174Z</time></trkpt><trkpt lat="45.1620515" lon="8.2834267"><ele>270.0</ele><time>2026-04-18T09:47:43.174Z</time></trkpt><trkpt lat="45.1620216" lon="8.2835059"><ele>268.0</ele><time>2026-04-18T09:47:44.174Z</time></trkpt><trkpt lat="45.1620097" lon="8.2835957"><ele>266.0</ele><time>2026-04-18T09:47:45.174Z</time></trkpt><trkpt lat="45.1620096" lon="8.2837021"><ele>264.0</ele><time>2026-04-18T09:47:46.175Z</time></trkpt><trkpt lat="45.162012" lon="8.2838195"><ele>262.5</ele><time>2026-04-18T09:47:47.175Z</time></trkpt><trkpt lat="45.1620032" lon="8.2839342"><ele>261.0</ele><time>2026-04-18T09:47:48.174Z</time></trkpt><trkpt lat="45.1619973" lon="8.2840553"><ele>259.5</ele><time>2026-04-18T09:47:49.174Z</time></trkpt><trkpt lat="45.1619769" lon="8.2841713"><ele>258.0</ele><time>2026-04-18T09:47:50.175Z</time></trkpt><trkpt lat="45.1619462" lon="8.2842795"><ele>256.5</ele><time>2026-04-18T09:47:51.175Z</time></trkpt><trkpt lat="45.1619263" lon="8.2843926"><ele>255.0</ele><time>2026-04-18T09:47:52.174Z</time></trkpt><trkpt lat="45.1619206" lon="8.2845148"><ele>255.0</ele><time>2026-04-18T09:47:53.174Z</time></trkpt><trkpt lat="45.161933" lon="8.2846527"><ele>255.0</ele><time>2026-04-18T09:47:54.174Z</time></trkpt><trkpt lat="45.1619452" lon="8.2847894"><ele>255.0</ele><time>2026-04-18T09:47:55.175Z</time></trkpt><trkpt lat="45.1619797" lon="8.2849375"><ele>255.0</ele><time>2026-04-18T09:47:56.174Z</time></trkpt><trkpt lat="45.1620282" lon="8.285095"><ele>255.0</ele><time>2026-04-18T09:47:57.174Z</time></trkpt><trkpt lat="45.162077" lon="8.2852435"><ele>253.75</ele><time>2026-04-18T09:47:58.174Z</time></trkpt><trkpt lat="45.1621296" lon="8.2853923"><ele>252.5</ele><time>2026-04-18T09:47:59.174Z</time></trkpt><trkpt lat="45.1621893" lon="8.2855358"><ele>251.25</ele><time>2026-04-18T09:48:00.174Z</time></trkpt><trkpt lat="45.1622378" lon="8.2856969"><ele>250.0</ele><time>2026-04-18T09:48:01.174Z</time></trkpt><trkpt lat="45.1622817" lon="8.2858709"><ele>248.25</ele><time>2026-04-18T09:48:02.174Z</time></trkpt><trkpt lat="45.1623075" lon="8.2860448"><ele>246.5</ele><time>2026-04-18T09:48:03.174Z</time></trkpt><trkpt lat="45.1623323" lon="8.2862149"><ele>244.75</ele><time>2026-04-18T09:48:04.174Z</time></trkpt><trkpt lat="45.1623487" lon="8.2863859"><ele>243.0</ele><time>2026-04-18T09:48:05.175Z</time></trkpt><trkpt lat="45.162361" lon="8.2865445"><ele>241.60000000000002</ele><time>2026-04-18T09:48:06.174Z</time></trkpt><trkpt lat="45.1623635" lon="8.2867"><ele>240.20000000000002</ele><time>2026-04-18T09:48:07.174Z</time></trkpt><trkpt lat="45.1623527" lon="8.2868571"><ele>238.8</ele><time>2026-04-18T09:48:08.174Z</time></trkpt><trkpt lat="45.1623332" lon="8.2870013"><ele>237.4</ele><time>2026-04-18T09:48:09.174Z</time></trkpt><trkpt lat="45.1623102" lon="8.287122"><ele>236.0</ele><time>2026-04-18T09:48:10.175Z</time></trkpt><trkpt lat="45.1622938" lon="8.2872156"><ele>235.8</ele><time>2026-04-18T09:48:11.174Z</time></trkpt><trkpt lat="45.1622671" lon="8.2873696"><ele>235.60000000000002</ele><time>2026-04-18T09:48:13.174Z</time></trkpt><trkpt lat="45.1622124" lon="8.2875473"><ele>235.4</ele><time>2026-04-18T09:48:15.174Z</time></trkpt><trkpt lat="45.1621641" lon="8.2876587"><ele>235.2</ele><time>2026-04-18T09:48:16.174Z</time></trkpt><trkpt lat="45.1621168" lon="8.2877917"><ele>235.0</ele><time>2026-04-18T09:48:17.174Z</time></trkpt><trkpt lat="45.1620777" lon="8.2879397"><ele>234.0</ele><time>2026-04-18T09:48:18.174Z</time></trkpt><trkpt lat="45.1620312" lon="8.2881"><ele>233.0</ele><time>2026-04-18T09:48:19.174Z</time></trkpt><trkpt lat="45.1619789" lon="8.2882817"><ele>232.0</ele><time>2026-04-18T09:48:20.174Z</time></trkpt><trkpt lat="45.1619253" lon="8.2884751"><ele>231.0</ele><time>2026-04-18T09:48:21.175Z</time></trkpt><trkpt lat="45.1618659" lon="8.2886711"><ele>231.0</ele><time>2026-04-18T09:48:22.174Z</time></trkpt><trkpt lat="45.1618069" lon="8.2888765"><ele>231.0</ele><time>2026-04-18T09:48:23.174Z</time></trkpt><trkpt lat="45.1617518" lon="8.2890839"><ele>231.0</ele><time>2026-04-18T09:48:24.174Z</time></trkpt><trkpt lat="45.1616917" lon="8.2892852"><ele>230.5</ele><time>2026-04-18T09:48:25.174Z</time></trkpt><trkpt lat="45.1616415" lon="8.2894779"><ele>230.0</ele><time>2026-04-18T09:48:26.174Z</time></trkpt><trkpt lat="45.1615898" lon="8.2896623"><ele>229.5</ele><time>2026-04-18T09:48:27.174Z</time></trkpt><trkpt lat="45.161537" lon="8.2898269"><ele>229.0</ele><time>2026-04-18T09:48:28.174Z</time></trkpt><trkpt lat="45.1614892" lon="8.2899783"><ele>228.0</ele><time>2026-04-18T09:48:29.174Z</time></trkpt><trkpt lat="45.1614394" lon="8.2900998"><ele>226.99999999999997</ele><time>2026-04-18T09:48:30.174Z</time></trkpt><trkpt lat="45.1613728" lon="8.2902046"><ele>225.99999999999997</ele><time>2026-04-18T09:48:31.174Z</time></trkpt><trkpt lat="45.1613009" lon="8.2902847"><ele>225.0</ele><time>2026-04-18T09:48:32.175Z</time></trkpt><trkpt lat="45.161211" lon="8.2903359"><ele>224.0</ele><time>2026-04-18T09:48:33.174Z</time></trkpt><trkpt lat="45.1611176" lon="8.2903792"><ele>224.0</ele><time>2026-04-18T09:48:34.174Z</time></trkpt><trkpt lat="45.1610123" lon="8.2904212"><ele>223.99999999999997</ele><time>2026-04-18T09:48:35.175Z</time></trkpt><trkpt lat="45.1609097" lon="8.2904667"><ele>223.99999999999997</ele><time>2026-04-18T09:48:36.174Z</time></trkpt><trkpt lat="45.1608143" lon="8.2905096"><ele>224.0</ele><time>2026-04-18T09:48:37.175Z</time></trkpt><trkpt lat="45.1607184" lon="8.2905582"><ele>224.0</ele><time>2026-04-18T09:48:38.174Z</time></trkpt><trkpt lat="45.1606106" lon="8.2906222"><ele>223.39999999999998</ele><time>2026-04-18T09:48:39.174Z</time></trkpt><trkpt lat="45.1605053" lon="8.2906934"><ele>222.79999999999998</ele><time>2026-04-18T09:48:40.174Z</time></trkpt><trkpt lat="45.1604129" lon="8.2907868"><ele>222.20000000000002</ele><time>2026-04-18T09:48:41.175Z</time></trkpt><trkpt lat="45.1603215" lon="8.2908745"><ele>221.60000000000002</ele><time>2026-04-18T09:48:42.174Z</time></trkpt><trkpt lat="45.1602398" lon="8.2909599"><ele>221.0</ele><time>2026-04-18T09:48:43.174Z</time></trkpt><trkpt lat="45.1601609" lon="8.2910622"><ele>221.0</ele><time>2026-04-18T09:48:44.174Z</time></trkpt><trkpt lat="45.1600911" lon="8.2911536"><ele>221.00000000000003</ele><time>2026-04-18T09:48:45.174Z</time></trkpt><trkpt lat="45.1599653" lon="8.2913409"><ele>221.00000000000003</ele><time>2026-04-18T09:48:46.459Z</time></trkpt><trkpt lat="45.1599157" lon="8.2914288"><ele>221.0</ele><time>2026-04-18T09:48:47.458Z</time></trkpt><trkpt lat="45.1598757" lon="8.2915094"><ele>221.0</ele><time>2026-04-18T09:48:48.458Z</time></trkpt><trkpt lat="45.1598221" lon="8.2916109"><ele>221.0</ele><time>2026-04-18T09:48:50.458Z</time></trkpt><trkpt lat="45.159877" lon="8.2917575"><ele>221.00000000000003</ele><time>2026-04-18T09:48:53.458Z</time></trkpt><trkpt lat="45.1599277" lon="8.2918327"><ele>221.00000000000003</ele><time>2026-04-18T09:48:54.458Z</time></trkpt><trkpt lat="45.1600004" lon="8.2919073"><ele>221.0</ele><time>2026-04-18T09:48:55.458Z</time></trkpt><trkpt lat="45.1600795" lon="8.2919908"><ele>221.0</ele><time>2026-04-18T09:48:56.458Z</time></trkpt><trkpt lat="45.1601741" lon="8.2920903"><ele>221.0</ele><time>2026-04-18T09:48:57.458Z</time></trkpt><trkpt lat="45.1602727" lon="8.2921993"><ele>221.0</ele><time>2026-04-18T09:48:58.458Z</time></trkpt><trkpt lat="45.1603802" lon="8.2923015"><ele>221.0</ele><time>2026-04-18T09:48:59.459Z</time></trkpt><trkpt lat="45.1605005" lon="8.2923666"><ele>221.0</ele><time>2026-04-18T09:49:00.459Z</time></trkpt><trkpt lat="45.1606279" lon="8.2924025"><ele>220.5</ele><time>2026-04-18T09:49:01.458Z</time></trkpt><trkpt lat="45.1607557" lon="8.2924129"><ele>220.0</ele><time>2026-04-18T09:49:02.458Z</time></trkpt><trkpt lat="45.1608852" lon="8.2924117"><ele>219.5</ele><time>2026-04-18T09:49:03.458Z</time></trkpt><trkpt lat="45.161017" lon="8.2923849"><ele>219.0</ele><time>2026-04-18T09:49:04.458Z</time></trkpt><trkpt lat="45.1611431" lon="8.2923257"><ele>218.75</ele><time>2026-04-18T09:49:05.458Z</time></trkpt><trkpt lat="45.1612665" lon="8.2922445"><ele>218.5</ele><time>2026-04-18T09:49:06.459Z</time></trkpt><trkpt lat="45.1613844" lon="8.2921332"><ele>218.25</ele><time>2026-04-18T09:49:07.458Z</time></trkpt><trkpt lat="45.1614994" lon="8.2920068"><ele>218.0</ele><time>2026-04-18T09:49:08.459Z</time></trkpt><trkpt lat="45.1616085" lon="8.2918645"><ele>218.0</ele><time>2026-04-18T09:49:09.459Z</time></trkpt><trkpt lat="45.1617164" lon="8.2917203"><ele>218.0</ele><time>2026-04-18T09:49:10.458Z</time></trkpt><trkpt lat="45.1618121" lon="8.2915625"><ele>218.0</ele><time>2026-04-18T09:49:11.458Z</time></trkpt><trkpt lat="45.1618995" lon="8.2913987"><ele>218.0</ele><time>2026-04-18T09:49:12.458Z</time></trkpt><trkpt lat="45.1619784" lon="8.2912216"><ele>219.25</ele><time>2026-04-18T09:49:13.458Z</time></trkpt><trkpt lat="45.162052" lon="8.2910438"><ele>220.5</ele><time>2026-04-18T09:49:14.459Z</time></trkpt><trkpt lat="45.1621227" lon="8.2908694"><ele>221.75</ele><time>2026-04-18T09:49:15.458Z</time></trkpt><trkpt lat="45.162184" lon="8.2906988"><ele>223.0</ele><time>2026-04-18T09:49:16.458Z</time></trkpt><trkpt lat="45.1622485" lon="8.2905342"><ele>224.0</ele><time>2026-04-18T09:49:17.458Z</time></trkpt><trkpt lat="45.1623222" lon="8.2903799"><ele>225.0</ele><time>2026-04-18T09:49:18.458Z</time></trkpt><trkpt lat="45.1624123" lon="8.290236"><ele>226.0</ele><time>2026-04-18T09:49:19.458Z</time></trkpt><trkpt lat="45.1625061" lon="8.2901202"><ele>227.0</ele><time>2026-04-18T09:49:20.458Z</time></trkpt><trkpt lat="45.1626238" lon="8.290026"><ele>224.0</ele><time>2026-04-18T09:49:21.458Z</time></trkpt><trkpt lat="45.1627381" lon="8.2899625"><ele>221.0</ele><time>2026-04-18T09:49:22.458Z</time></trkpt><trkpt lat="45.1628592" lon="8.2899122"><ele>218.0</ele><time>2026-04-18T09:49:23.458Z</time></trkpt><trkpt lat="45.1629911" lon="8.2898944"><ele>215.0</ele><time>2026-04-18T09:49:24.458Z</time></trkpt><trkpt lat="45.1631226" lon="8.2898982"><ele>212.75</ele><time>2026-04-18T09:49:25.458Z</time></trkpt><trkpt lat="45.1632578" lon="8.2899373"><ele>210.5</ele><time>2026-04-18T09:49:26.458Z</time></trkpt><trkpt lat="45.1633855" lon="8.2899859"><ele>208.25</ele><time>2026-04-18T09:49:27.458Z</time></trkpt><trkpt lat="45.1635073" lon="8.29007"><ele>206.0</ele><time>2026-04-18T09:49:28.458Z</time></trkpt><trkpt lat="45.1636161" lon="8.2901886"><ele>206.0</ele><time>2026-04-18T09:49:29.458Z</time></trkpt><trkpt lat="45.1637102" lon="8.290335"><ele>206.0</ele><time>2026-04-18T09:49:30.458Z</time></trkpt><trkpt lat="45.1637822" lon="8.2904918"><ele>206.0</ele><time>2026-04-18T09:49:31.458Z</time></trkpt><trkpt lat="45.1638399" lon="8.2906618"><ele>206.0</ele><time>2026-04-18T09:49:32.458Z</time></trkpt><trkpt lat="45.1638859" lon="8.2908371"><ele>206.25</ele><time>2026-04-18T09:49:33.458Z</time></trkpt><trkpt lat="45.1639341" lon="8.2910074"><ele>206.5</ele><time>2026-04-18T09:49:34.458Z</time></trkpt><trkpt lat="45.1639965" lon="8.291171"><ele>206.75</ele><time>2026-04-18T09:49:35.458Z</time></trkpt><trkpt lat="45.1640724" lon="8.2913117"><ele>207.0</ele><time>2026-04-18T09:49:36.458Z</time></trkpt><trkpt lat="45.164165" lon="8.2914396"><ele>205.0</ele><time>2026-04-18T09:49:37.458Z</time></trkpt><trkpt lat="45.1642676" lon="8.2915629"><ele>203.0</ele><time>2026-04-18T09:49:38.458Z</time></trkpt><trkpt lat="45.1643737" lon="8.2916605"><ele>201.0</ele><time>2026-04-18T09:49:39.459Z</time></trkpt><trkpt lat="45.1644969" lon="8.2917354"><ele>199.0</ele><time>2026-04-18T09:49:40.458Z</time></trkpt><trkpt lat="45.1646287" lon="8.2917769"><ele>199.0</ele><time>2026-04-18T09:49:41.458Z</time></trkpt><trkpt lat="45.1647491" lon="8.2917934"><ele>199.0</ele><time>2026-04-18T09:49:42.459Z</time></trkpt><trkpt lat="45.1648712" lon="8.2917773"><ele>199.0</ele><time>2026-04-18T09:49:43.458Z</time></trkpt><trkpt lat="45.1649743" lon="8.291739"><ele>199.0</ele><time>2026-04-18T09:49:44.459Z</time></trkpt><trkpt lat="45.1650804" lon="8.2916481"><ele>199.25</ele><time>2026-04-18T09:49:45.458Z</time></trkpt><trkpt lat="45.1651759" lon="8.2915249"><ele>199.5</ele><time>2026-04-18T09:49:46.459Z</time></trkpt><trkpt lat="45.1652737" lon="8.291408"><ele>199.75</ele><time>2026-04-18T09:49:47.458Z</time></trkpt><trkpt lat="45.1653685" lon="8.2912806"><ele>200.0</ele><time>2026-04-18T09:49:48.458Z</time></trkpt><trkpt lat="45.1654628" lon="8.2911386"><ele>198.75</ele><time>2026-04-18T09:49:49.458Z</time></trkpt><trkpt lat="45.1655406" lon="8.2909763"><ele>197.5</ele><time>2026-04-18T09:49:50.459Z</time></trkpt><trkpt lat="45.1656047" lon="8.290801"><ele>196.25</ele><time>2026-04-18T09:49:51.458Z</time></trkpt><trkpt lat="45.1656684" lon="8.2906066"><ele>195.0</ele><time>2026-04-18T09:49:52.459Z</time></trkpt><trkpt lat="45.1657222" lon="8.2903869"><ele>195.0</ele><time>2026-04-18T09:49:53.458Z</time></trkpt><trkpt lat="45.1657813" lon="8.2901539"><ele>195.0</ele><time>2026-04-18T09:49:54.458Z</time></trkpt><trkpt lat="45.1658438" lon="8.2899275"><ele>195.0</ele><time>2026-04-18T09:49:55.458Z</time></trkpt><trkpt lat="45.1659072" lon="8.2896894"><ele>196.66666666666669</ele><time>2026-04-18T09:49:56.458Z</time></trkpt><trkpt lat="45.1659647" lon="8.2894547"><ele>198.33333333333334</ele><time>2026-04-18T09:49:57.459Z</time></trkpt><trkpt lat="45.166025" lon="8.2892161"><ele>200.0</ele><time>2026-04-18T09:49:58.458Z</time></trkpt><trkpt lat="45.1660792" lon="8.2889851"><ele>201.33333333333334</ele><time>2026-04-18T09:49:59.458Z</time></trkpt><trkpt lat="45.1661341" lon="8.2887489"><ele>202.66666666666669</ele><time>2026-04-18T09:50:00.458Z</time></trkpt><trkpt lat="45.1661921" lon="8.288524"><ele>204.0</ele><time>2026-04-18T09:50:01.458Z</time></trkpt><trkpt lat="45.1662594" lon="8.2882953"><ele>204.66666666666669</ele><time>2026-04-18T09:50:02.458Z</time></trkpt><trkpt lat="45.1663322" lon="8.2880587"><ele>205.33333333333334</ele><time>2026-04-18T09:50:03.458Z</time></trkpt><trkpt lat="45.1664053" lon="8.2878393"><ele>206.0</ele><time>2026-04-18T09:50:04.459Z</time></trkpt><trkpt lat="45.1664671" lon="8.2876461"><ele>199.0</ele><time>2026-04-18T09:50:05.458Z</time></trkpt><trkpt lat="45.1665446" lon="8.2874618"><ele>192.0</ele><time>2026-04-18T09:50:06.458Z</time></trkpt><trkpt lat="45.1666457" lon="8.2873059"><ele>185.0</ele><time>2026-04-18T09:50:07.459Z</time></trkpt><trkpt lat="45.1667691" lon="8.2871764"><ele>185.0</ele><time>2026-04-18T09:50:08.458Z</time></trkpt><trkpt lat="45.166893" lon="8.2870758"><ele>185.0</ele><time>2026-04-18T09:50:09.458Z</time></trkpt><trkpt lat="45.167022" lon="8.2870202"><ele>185.0</ele><time>2026-04-18T09:50:10.458Z</time></trkpt><trkpt lat="45.1671591" lon="8.2869713"><ele>185.0</ele><time>2026-04-18T09:50:11.459Z</time></trkpt><trkpt lat="45.1673034" lon="8.286946"><ele>184.75</ele><time>2026-04-18T09:50:12.458Z</time></trkpt><trkpt lat="45.1674511" lon="8.2869748"><ele>184.5</ele><time>2026-04-18T09:50:13.459Z</time></trkpt><trkpt lat="45.1675902" lon="8.2870095"><ele>184.25</ele><time>2026-04-18T09:50:14.458Z</time></trkpt><trkpt lat="45.1677327" lon="8.2870641"><ele>184.0</ele><time>2026-04-18T09:50:15.458Z</time></trkpt><trkpt lat="45.1678786" lon="8.2871217"><ele>184.0</ele><time>2026-04-18T09:50:16.458Z</time></trkpt><trkpt lat="45.1680256" lon="8.287175"><ele>184.0</ele><time>2026-04-18T09:50:17.458Z</time></trkpt><trkpt lat="45.1681763" lon="8.2872416"><ele>184.0</ele><time>2026-04-18T09:50:18.458Z</time></trkpt><trkpt lat="45.1683289" lon="8.2873062"><ele>186.66666666666669</ele><time>2026-04-18T09:50:19.458Z</time></trkpt><trkpt lat="45.1684787" lon="8.2873753"><ele>189.33333333333334</ele><time>2026-04-18T09:50:20.458Z</time></trkpt><trkpt lat="45.1686241" lon="8.2874468"><ele>192.0</ele><time>2026-04-18T09:50:21.458Z</time></trkpt><trkpt lat="45.1687648" lon="8.2875061"><ele>192.0</ele><time>2026-04-18T09:50:22.458Z</time></trkpt><trkpt lat="45.1688917" lon="8.2875303"><ele>192.0</ele><time>2026-04-18T09:50:23.459Z</time></trkpt><trkpt lat="45.1690156" lon="8.2875259"><ele>192.0</ele><time>2026-04-18T09:50:24.459Z</time></trkpt><trkpt lat="45.1691414" lon="8.2874856"><ele>192.0</ele><time>2026-04-18T09:50:25.458Z</time></trkpt><trkpt lat="45.1692614" lon="8.2873944"><ele>192.5</ele><time>2026-04-18T09:50:26.458Z</time></trkpt><trkpt lat="45.1693724" lon="8.2872732"><ele>193.0</ele><time>2026-04-18T09:50:27.458Z</time></trkpt><trkpt lat="45.1694625" lon="8.2871595"><ele>193.5</ele><time>2026-04-18T09:50:28.458Z</time></trkpt><trkpt lat="45.1695361" lon="8.2870244"><ele>194.0</ele><time>2026-04-18T09:50:29.458Z</time></trkpt><trkpt lat="45.1695844" lon="8.2868702"><ele>194.0</ele><time>2026-04-18T09:50:30.458Z</time></trkpt><trkpt lat="45.1696069" lon="8.2867135"><ele>194.0</ele><time>2026-04-18T09:50:31.458Z</time></trkpt><trkpt lat="45.1696152" lon="8.2865389"><ele>194.0</ele><time>2026-04-18T09:50:32.458Z</time></trkpt><trkpt lat="45.1696033" lon="8.2863657"><ele>194.0</ele><time>2026-04-18T09:50:33.458Z</time></trkpt><trkpt lat="45.169555" lon="8.2862106"><ele>193.0</ele><time>2026-04-18T09:50:34.459Z</time></trkpt><trkpt lat="45.1694841" lon="8.286061"><ele>192.0</ele><time>2026-04-18T09:50:35.457Z</time></trkpt><trkpt lat="45.1694026" lon="8.2859162"><ele>191.0</ele><time>2026-04-18T09:50:36.458Z</time></trkpt><trkpt lat="45.169329" lon="8.2857673"><ele>190.0</ele><time>2026-04-18T09:50:37.458Z</time></trkpt><trkpt lat="45.1692626" lon="8.2856107"><ele>187.75</ele><time>2026-04-18T09:50:38.457Z</time></trkpt><trkpt lat="45.169207" lon="8.2854426"><ele>185.5</ele><time>2026-04-18T09:50:39.457Z</time></trkpt><trkpt lat="45.1691678" lon="8.2852671"><ele>183.25</ele><time>2026-04-18T09:50:40.457Z</time></trkpt><trkpt lat="45.1691549" lon="8.285083"><ele>181.0</ele><time>2026-04-18T09:50:41.457Z</time></trkpt><trkpt lat="45.1691739" lon="8.2848849"><ele>181.5</ele><time>2026-04-18T09:50:42.458Z</time></trkpt><trkpt lat="45.1692111" lon="8.2846904"><ele>182.0</ele><time>2026-04-18T09:50:43.457Z</time></trkpt><trkpt lat="45.1692643" lon="8.2845019"><ele>182.5</ele><time>2026-04-18T09:50:44.458Z</time></trkpt><trkpt lat="45.1693192" lon="8.2843187"><ele>183.0</ele><time>2026-04-18T09:50:45.457Z</time></trkpt><trkpt lat="45.1693909" lon="8.2841643"><ele>183.0</ele><time>2026-04-18T09:50:46.458Z</time></trkpt><trkpt lat="45.169493" lon="8.2840238"><ele>183.0</ele><time>2026-04-18T09:50:47.457Z</time></trkpt><trkpt lat="45.1695988" lon="8.2839186"><ele>183.0</ele><time>2026-04-18T09:50:48.457Z</time></trkpt><trkpt lat="45.1697172" lon="8.2838117"><ele>183.0</ele><time>2026-04-18T09:50:49.458Z</time></trkpt><trkpt lat="45.1698362" lon="8.2837124"><ele>181.25</ele><time>2026-04-18T09:50:50.457Z</time></trkpt><trkpt lat="45.1699605" lon="8.2836431"><ele>179.5</ele><time>2026-04-18T09:50:51.458Z</time></trkpt><trkpt lat="45.1700956" lon="8.2836125"><ele>177.75</ele><time>2026-04-18T09:50:52.457Z</time></trkpt><trkpt lat="45.170236" lon="8.2835942"><ele>176.0</ele><time>2026-04-18T09:50:53.458Z</time></trkpt><trkpt lat="45.1703751" lon="8.2835761"><ele>176.0</ele><time>2026-04-18T09:50:54.458Z</time></trkpt><trkpt lat="45.1705249" lon="8.2835601"><ele>176.0</ele><time>2026-04-18T09:50:55.457Z</time></trkpt><trkpt lat="45.1706668" lon="8.2835445"><ele>176.0</ele><time>2026-04-18T09:50:56.458Z</time></trkpt><trkpt lat="45.1707969" lon="8.2835176"><ele>176.0</ele><time>2026-04-18T09:50:57.457Z</time></trkpt><trkpt lat="45.1709316" lon="8.2834713"><ele>175.75</ele><time>2026-04-18T09:50:58.457Z</time></trkpt><trkpt lat="45.1710508" lon="8.2833978"><ele>175.5</ele><time>2026-04-18T09:50:59.457Z</time></trkpt><trkpt lat="45.1711687" lon="8.2832919"><ele>175.25</ele><time>2026-04-18T09:51:00.457Z</time></trkpt><trkpt lat="45.1712664" lon="8.2831691"><ele>175.0</ele><time>2026-04-18T09:51:01.457Z</time></trkpt><trkpt lat="45.1713548" lon="8.2830308"><ele>175.0</ele><time>2026-04-18T09:51:02.457Z</time></trkpt><trkpt lat="45.171425" lon="8.2828764"><ele>175.0</ele><time>2026-04-18T09:51:03.458Z</time></trkpt><trkpt lat="45.1714916" lon="8.2827171"><ele>175.0</ele><time>2026-04-18T09:51:04.457Z</time></trkpt><trkpt lat="45.1715654" lon="8.2825437"><ele>175.0</ele><time>2026-04-18T09:51:05.458Z</time></trkpt><trkpt lat="45.1716338" lon="8.2823607"><ele>174.0</ele><time>2026-04-18T09:51:06.457Z</time></trkpt><trkpt lat="45.1717044" lon="8.282172"><ele>173.0</ele><time>2026-04-18T09:51:07.457Z</time></trkpt><trkpt lat="45.171776" lon="8.2819714"><ele>172.0</ele><time>2026-04-18T09:51:08.457Z</time></trkpt><trkpt lat="45.171848" lon="8.281772"><ele>172.0</ele><time>2026-04-18T09:51:09.457Z</time></trkpt><trkpt lat="45.1719241" lon="8.2815767"><ele>172.0</ele><time>2026-04-18T09:51:10.457Z</time></trkpt><trkpt lat="45.1720041" lon="8.2813663"><ele>172.0</ele><time>2026-04-18T09:51:11.457Z</time></trkpt><trkpt lat="45.1720815" lon="8.2811582"><ele>173.75</ele><time>2026-04-18T09:51:12.458Z</time></trkpt><trkpt lat="45.1721523" lon="8.2809562"><ele>175.5</ele><time>2026-04-18T09:51:13.457Z</time></trkpt><trkpt lat="45.1722295" lon="8.2807787"><ele>177.25</ele><time>2026-04-18T09:51:14.457Z</time></trkpt><trkpt lat="45.1722893" lon="8.2806012"><ele>179.0</ele><time>2026-04-18T09:51:15.457Z</time></trkpt><trkpt lat="45.1723547" lon="8.2804382"><ele>177.25</ele><time>2026-04-18T09:51:16.457Z</time></trkpt><trkpt lat="45.1724189" lon="8.2802899"><ele>175.5</ele><time>2026-04-18T09:51:17.457Z</time></trkpt><trkpt lat="45.1724986" lon="8.2801612"><ele>173.75</ele><time>2026-04-18T09:51:18.457Z</time></trkpt><trkpt lat="45.1725833" lon="8.2800547"><ele>172.0</ele><time>2026-04-18T09:51:19.457Z</time></trkpt><trkpt lat="45.1726804" lon="8.2799715"><ele>172.0</ele><time>2026-04-18T09:51:20.457Z</time></trkpt><trkpt lat="45.1727896" lon="8.279917"><ele>172.0</ele><time>2026-04-18T09:51:21.457Z</time></trkpt><trkpt lat="45.1729053" lon="8.2799008"><ele>172.0</ele><time>2026-04-18T09:51:22.457Z</time></trkpt><trkpt lat="45.1730143" lon="8.2799107"><ele>172.0</ele><time>2026-04-18T09:51:23.457Z</time></trkpt><trkpt lat="45.173113" lon="8.2799518"><ele>172.0</ele><time>2026-04-18T09:51:24.457Z</time></trkpt><trkpt lat="45.1732046" lon="8.2800136"><ele>169.4</ele><time>2026-04-18T09:51:25.457Z</time></trkpt><trkpt lat="45.1732755" lon="8.2801148"><ele>166.79999999999998</ele><time>2026-04-18T09:51:26.457Z</time></trkpt><trkpt lat="45.1733194" lon="8.28025"><ele>164.2</ele><time>2026-04-18T09:51:27.457Z</time></trkpt><trkpt lat="45.1733416" lon="8.2804018"><ele>161.6</ele><time>2026-04-18T09:51:28.457Z</time></trkpt><trkpt lat="45.173352" lon="8.2805514"><ele>159.0</ele><time>2026-04-18T09:51:29.457Z</time></trkpt><trkpt lat="45.1733397" lon="8.2807276"><ele>159.0</ele><time>2026-04-18T09:51:30.457Z</time></trkpt><trkpt lat="45.1732909" lon="8.2809022"><ele>159.0</ele><time>2026-04-18T09:51:31.458Z</time></trkpt><trkpt lat="45.1732143" lon="8.2810854"><ele>159.0</ele><time>2026-04-18T09:51:32.457Z</time></trkpt><trkpt lat="45.1731268" lon="8.2812631"><ele>159.0</ele><time>2026-04-18T09:51:33.457Z</time></trkpt><trkpt lat="45.1730362" lon="8.2814554"><ele>160.0</ele><time>2026-04-18T09:51:34.458Z</time></trkpt><trkpt lat="45.1729425" lon="8.2816642"><ele>161.0</ele><time>2026-04-18T09:51:35.457Z</time></trkpt><trkpt lat="45.1728458" lon="8.2818681"><ele>162.0</ele><time>2026-04-18T09:51:36.458Z</time></trkpt><trkpt lat="45.1727592" lon="8.282051"><ele>162.0</ele><time>2026-04-18T09:51:37.457Z</time></trkpt><trkpt lat="45.172667" lon="8.2822168"><ele>162.0</ele><time>2026-04-18T09:51:38.457Z</time></trkpt><trkpt lat="45.1725837" lon="8.2823925"><ele>162.0</ele><time>2026-04-18T09:51:39.457Z</time></trkpt><trkpt lat="45.1724909" lon="8.2825868"><ele>163.0</ele><time>2026-04-18T09:51:40.457Z</time></trkpt><trkpt lat="45.1723939" lon="8.2827929"><ele>164.0</ele><time>2026-04-18T09:51:41.457Z</time></trkpt><trkpt lat="45.172293" lon="8.2830001"><ele>165.0</ele><time>2026-04-18T09:51:42.457Z</time></trkpt><trkpt lat="45.1721942" lon="8.2832125"><ele>162.66666666666666</ele><time>2026-04-18T09:51:43.457Z</time></trkpt><trkpt lat="45.1721084" lon="8.2834332"><ele>160.33333333333331</ele><time>2026-04-18T09:51:44.457Z</time></trkpt><trkpt lat="45.1720355" lon="8.2836504"><ele>158.0</ele><time>2026-04-18T09:51:45.457Z</time></trkpt><trkpt lat="45.1719661" lon="8.2838569"><ele>156.0</ele><time>2026-04-18T09:51:46.457Z</time></trkpt><trkpt lat="45.1719218" lon="8.2840707"><ele>154.0</ele><time>2026-04-18T09:51:47.457Z</time></trkpt><trkpt lat="45.1718904" lon="8.2843035"><ele>152.0</ele><time>2026-04-18T09:51:48.457Z</time></trkpt><trkpt lat="45.1718684" lon="8.2845371"><ele>151.66666666666666</ele><time>2026-04-18T09:51:49.457Z</time></trkpt><trkpt lat="45.1718568" lon="8.284778"><ele>151.33333333333334</ele><time>2026-04-18T09:51:50.457Z</time></trkpt><trkpt lat="45.1718485" lon="8.2850206"><ele>151.0</ele><time>2026-04-18T09:51:51.457Z</time></trkpt><trkpt lat="45.1718132" lon="8.2852589"><ele>151.0</ele><time>2026-04-18T09:51:52.457Z</time></trkpt><trkpt lat="45.171772" lon="8.2855001"><ele>151.0</ele><time>2026-04-18T09:51:53.457Z</time></trkpt><trkpt lat="45.1717251" lon="8.2857309"><ele>151.0</ele><time>2026-04-18T09:51:54.457Z</time></trkpt><trkpt lat="45.1716802" lon="8.2859578"><ele>150.33333333333334</ele><time>2026-04-18T09:51:55.457Z</time></trkpt><trkpt lat="45.1716443" lon="8.286182"><ele>149.66666666666666</ele><time>2026-04-18T09:51:56.457Z</time></trkpt><trkpt lat="45.1716138" lon="8.2864109"><ele>149.0</ele><time>2026-04-18T09:51:57.457Z</time></trkpt><trkpt lat="45.1715923" lon="8.2866319"><ele>148.75</ele><time>2026-04-18T09:51:58.458Z</time></trkpt><trkpt lat="45.171574" lon="8.2868277"><ele>148.5</ele><time>2026-04-18T09:51:59.457Z</time></trkpt><trkpt lat="45.1715645" lon="8.2870352"><ele>148.25</ele><time>2026-04-18T09:52:00.458Z</time></trkpt><trkpt lat="45.1715758" lon="8.2872401"><ele>148.0</ele><time>2026-04-18T09:52:01.458Z</time></trkpt><trkpt lat="45.1716085" lon="8.2874483"><ele>146.33333333333334</ele><time>2026-04-18T09:52:02.458Z</time></trkpt><trkpt lat="45.1716531" lon="8.2876562"><ele>144.66666666666666</ele><time>2026-04-18T09:52:03.457Z</time></trkpt><trkpt lat="45.1717148" lon="8.2878515"><ele>143.0</ele><time>2026-04-18T09:52:04.457Z</time></trkpt><trkpt lat="45.1717918" lon="8.2880434"><ele>142.33333333333331</ele><time>2026-04-18T09:52:05.457Z</time></trkpt><trkpt lat="45.1718854" lon="8.288232"><ele>141.66666666666666</ele><time>2026-04-18T09:52:06.457Z</time></trkpt><trkpt lat="45.1719946" lon="8.288392"><ele>141.0</ele><time>2026-04-18T09:52:07.457Z</time></trkpt><trkpt lat="45.1721202" lon="8.2885367"><ele>141.0</ele><time>2026-04-18T09:52:08.457Z</time></trkpt><trkpt lat="45.1722739" lon="8.2886713"><ele>141.0</ele><time>2026-04-18T09:52:09.457Z</time></trkpt><trkpt lat="45.1724429" lon="8.2888069"><ele>141.0</ele><time>2026-04-18T09:52:10.457Z</time></trkpt><trkpt lat="45.1726055" lon="8.2889383"><ele>137.66666666666666</ele><time>2026-04-18T09:52:11.457Z</time></trkpt><trkpt lat="45.1727752" lon="8.2890625"><ele>134.33333333333331</ele><time>2026-04-18T09:52:12.457Z</time></trkpt><trkpt lat="45.1729424" lon="8.2892016"><ele>131.0</ele><time>2026-04-18T09:52:13.458Z</time></trkpt><trkpt lat="45.173109" lon="8.2893312"><ele>131.66666666666666</ele><time>2026-04-18T09:52:14.458Z</time></trkpt><trkpt lat="45.1732842" lon="8.2894568"><ele>132.33333333333334</ele><time>2026-04-18T09:52:15.457Z</time></trkpt><trkpt lat="45.1734521" lon="8.2895862"><ele>133.0</ele><time>2026-04-18T09:52:16.457Z</time></trkpt><trkpt lat="45.1736051" lon="8.2897185"><ele>133.0</ele><time>2026-04-18T09:52:17.457Z</time></trkpt><trkpt lat="45.1737525" lon="8.2898537"><ele>133.0</ele><time>2026-04-18T09:52:18.458Z</time></trkpt><trkpt lat="45.1738809" lon="8.2900158"><ele>133.0</ele><time>2026-04-18T09:52:19.457Z</time></trkpt><trkpt lat="45.1740044" lon="8.29019"><ele>133.0</ele><time>2026-04-18T09:52:20.458Z</time></trkpt><trkpt lat="45.174117" lon="8.2903771"><ele>133.0</ele><time>2026-04-18T09:52:21.457Z</time></trkpt><trkpt lat="45.1742308" lon="8.2905825"><ele>133.0</ele><time>2026-04-18T09:52:22.457Z</time></trkpt><trkpt lat="45.1743505" lon="8.2907845"><ele>132.33333333333334</ele><time>2026-04-18T09:52:23.457Z</time></trkpt><trkpt lat="45.174467" lon="8.2909854"><ele>131.66666666666666</ele><time>2026-04-18T09:52:24.458Z</time></trkpt><trkpt lat="45.1745831" lon="8.29119"><ele>131.0</ele><time>2026-04-18T09:52:25.457Z</time></trkpt><trkpt lat="45.1746967" lon="8.2914003"><ele>129.0</ele><time>2026-04-18T09:52:26.458Z</time></trkpt><trkpt lat="45.1748124" lon="8.2916074"><ele>127.0</ele><time>2026-04-18T09:52:27.457Z</time></trkpt><trkpt lat="45.1749258" lon="8.2918166"><ele>125.0</ele><time>2026-04-18T09:52:28.457Z</time></trkpt><trkpt lat="45.1750426" lon="8.2920289"><ele>124.66666666666666</ele><time>2026-04-18T09:52:29.457Z</time></trkpt><trkpt lat="45.175161" lon="8.2922421"><ele>124.33333333333334</ele><time>2026-04-18T09:52:30.457Z</time></trkpt><trkpt lat="45.1752786" lon="8.2924532"><ele>124.0</ele><time>2026-04-18T09:52:31.458Z</time></trkpt><trkpt lat="45.1753957" lon="8.2926637"><ele>124.0</ele><time>2026-04-18T09:52:32.457Z</time></trkpt><trkpt lat="45.1755051" lon="8.2928609"><ele>124.0</ele><time>2026-04-18T09:52:33.457Z</time></trkpt><trkpt lat="45.1756052" lon="8.2930433"><ele>124.0</ele><time>2026-04-18T09:52:34.457Z</time></trkpt><trkpt lat="45.1757007" lon="8.2932168"><ele>125.33333333333334</ele><time>2026-04-18T09:52:35.458Z</time></trkpt><trkpt lat="45.1758018" lon="8.2933874"><ele>126.66666666666666</ele><time>2026-04-18T09:52:36.457Z</time></trkpt><trkpt lat="45.1759067" lon="8.2935459"><ele>128.0</ele><time>2026-04-18T09:52:37.457Z</time></trkpt><trkpt lat="45.1760201" lon="8.2936871"><ele>128.0</ele><time>2026-04-18T09:52:38.458Z</time></trkpt><trkpt lat="45.1761505" lon="8.2938041"><ele>128.0</ele><time>2026-04-18T09:52:39.457Z</time></trkpt><trkpt lat="45.1762947" lon="8.2938993"><ele>128.0</ele><time>2026-04-18T09:52:40.457Z</time></trkpt><trkpt lat="45.1764512" lon="8.2939845"><ele>128.33333333333331</ele><time>2026-04-18T09:52:41.457Z</time></trkpt><trkpt lat="45.1766216" lon="8.2940609"><ele>128.66666666666666</ele><time>2026-04-18T09:52:42.457Z</time></trkpt><trkpt lat="45.1767929" lon="8.2941437"><ele>129.0</ele><time>2026-04-18T09:52:43.457Z</time></trkpt><trkpt lat="45.1769687" lon="8.2942347"><ele>129.0</ele><time>2026-04-18T09:52:44.457Z</time></trkpt><trkpt lat="45.1771466" lon="8.2943273"><ele>129.0</ele><time>2026-04-18T09:52:45.457Z</time></trkpt><trkpt lat="45.1773204" lon="8.294419"><ele>129.0</ele><time>2026-04-18T09:52:46.457Z</time></trkpt><trkpt lat="45.1774926" lon="8.2944978"><ele>128.66666666666666</ele><time>2026-04-18T09:52:47.457Z</time></trkpt><trkpt lat="45.177658" lon="8.2945759"><ele>128.33333333333331</ele><time>2026-04-18T09:52:48.457Z</time></trkpt><trkpt lat="45.1778172" lon="8.2946487"><ele>128.0</ele><time>2026-04-18T09:52:49.457Z</time></trkpt><trkpt lat="45.1779643" lon="8.2947162"><ele>128.25</ele><time>2026-04-18T09:52:50.457Z</time></trkpt><trkpt lat="45.1780951" lon="8.2947786"><ele>128.5</ele><time>2026-04-18T09:52:51.458Z</time></trkpt><trkpt lat="45.1782192" lon="8.2948398"><ele>128.75</ele><time>2026-04-18T09:52:52.457Z</time></trkpt><trkpt lat="45.1783308" lon="8.2948946"><ele>129.0</ele><time>2026-04-18T09:52:53.457Z</time></trkpt><trkpt lat="45.1784319" lon="8.2949419"><ele>128.66666666666666</ele><time>2026-04-18T09:52:54.458Z</time></trkpt><trkpt lat="45.1785214" lon="8.2949789"><ele>128.33333333333334</ele><time>2026-04-18T09:52:55.457Z</time></trkpt><trkpt lat="45.1785939" lon="8.2950161"><ele>128.0</ele><time>2026-04-18T09:52:56.457Z</time></trkpt><trkpt lat="45.1786915" lon="8.2950327"><ele>127.66666666666667</ele><time>2026-04-18T09:52:58.457Z</time></trkpt><trkpt lat="45.1787048" lon="8.2949338"><ele>127.33333333333334</ele><time>2026-04-18T09:53:01.458Z</time></trkpt><trkpt lat="45.1786291" lon="8.2948878"><ele>127.0</ele><time>2026-04-18T09:53:04.458Z</time></trkpt><trkpt lat="45.1785113" lon="8.2948437"><ele>127.0</ele><time>2026-04-18T09:53:06.457Z</time></trkpt><trkpt lat="45.178435" lon="8.2948043"><ele>126.99999999999999</ele><time>2026-04-18T09:53:07.457Z</time></trkpt><trkpt lat="45.1783699" lon="8.2947659"><ele>126.99999999999999</ele><time>2026-04-18T09:53:08.457Z</time></trkpt><trkpt lat="45.17828" lon="8.2946643"><ele>127.0</ele><time>2026-04-18T09:53:10.457Z</time></trkpt><trkpt lat="45.1782452" lon="8.294503"><ele>127.0</ele><time>2026-04-18T09:53:12.457Z</time></trkpt><trkpt lat="45.1782695" lon="8.2944035"><ele>127.0</ele><time>2026-04-18T09:53:13.457Z</time></trkpt><trkpt lat="45.1783086" lon="8.2942816"><ele>127.0</ele><time>2026-04-18T09:53:14.457Z</time></trkpt><trkpt lat="45.1783669" lon="8.2941546"><ele>127.0</ele><time>2026-04-18T09:53:15.458Z</time></trkpt><trkpt lat="45.1784298" lon="8.2940003"><ele>127.0</ele><time>2026-04-18T09:53:16.457Z</time></trkpt><trkpt lat="45.1785128" lon="8.2937964"><ele>126.66666666666667</ele><time>2026-04-18T09:53:17.457Z</time></trkpt><trkpt lat="45.1785996" lon="8.2935674"><ele>126.33333333333334</ele><time>2026-04-18T09:53:18.457Z</time></trkpt><trkpt lat="45.1787142" lon="8.2933017"><ele>126.0</ele><time>2026-04-18T09:53:19.457Z</time></trkpt><trkpt lat="45.1788281" lon="8.2930242"><ele>126.5</ele><time>2026-04-18T09:53:20.458Z</time></trkpt><trkpt lat="45.1789512" lon="8.2927391"><ele>127.0</ele><time>2026-04-18T09:53:21.457Z</time></trkpt><trkpt lat="45.1790677" lon="8.2924704"><ele>127.33333333333334</ele><time>2026-04-18T09:53:22.457Z</time></trkpt><trkpt lat="45.1791729" lon="8.2922202"><ele>127.66666666666666</ele><time>2026-04-18T09:53:23.457Z</time></trkpt><trkpt lat="45.1792682" lon="8.2919784"><ele>128.0</ele><time>2026-04-18T09:53:24.457Z</time></trkpt><trkpt lat="45.1793617" lon="8.2917334"><ele>128.0</ele><time>2026-04-18T09:53:25.457Z</time></trkpt><trkpt lat="45.1794556" lon="8.2914974"><ele>128.0</ele><time>2026-04-18T09:53:26.457Z</time></trkpt><trkpt lat="45.1795514" lon="8.291269"><ele>128.0</ele><time>2026-04-18T09:53:27.458Z</time></trkpt><trkpt lat="45.1796416" lon="8.291047"><ele>128.0</ele><time>2026-04-18T09:53:28.457Z</time></trkpt><trkpt lat="45.1797293" lon="8.2908299"><ele>128.0</ele><time>2026-04-18T09:53:29.458Z</time></trkpt><trkpt lat="45.1798155" lon="8.2906298"><ele>128.0</ele><time>2026-04-18T09:53:30.457Z</time></trkpt><trkpt lat="45.1798961" lon="8.2904362"><ele>128.0</ele><time>2026-04-18T09:53:31.458Z</time></trkpt><trkpt lat="45.179974" lon="8.2902435"><ele>128.0</ele><time>2026-04-18T09:53:32.457Z</time></trkpt><trkpt lat="45.1800516" lon="8.2900404"><ele>128.0</ele><time>2026-04-18T09:53:33.458Z</time></trkpt><trkpt lat="45.1801318" lon="8.289838"><ele>128.33333333333331</ele><time>2026-04-18T09:53:34.457Z</time></trkpt><trkpt lat="45.1802147" lon="8.2896326"><ele>128.66666666666666</ele><time>2026-04-18T09:53:35.457Z</time></trkpt><trkpt lat="45.1802969" lon="8.2894383"><ele>129.0</ele><time>2026-04-18T09:53:36.457Z</time></trkpt><trkpt lat="45.1803745" lon="8.2892478"><ele>129.0</ele><time>2026-04-18T09:53:37.457Z</time></trkpt><trkpt lat="45.1804551" lon="8.2890673"><ele>129.0</ele><time>2026-04-18T09:53:38.457Z</time></trkpt><trkpt lat="45.1805277" lon="8.2889027"><ele>129.0</ele><time>2026-04-18T09:53:39.458Z</time></trkpt><trkpt lat="45.1806006" lon="8.2887469"><ele>129.0</ele><time>2026-04-18T09:53:40.457Z</time></trkpt><trkpt lat="45.1806733" lon="8.2886063"><ele>128.75</ele><time>2026-04-18T09:53:41.457Z</time></trkpt><trkpt lat="45.1807689" lon="8.2884769"><ele>128.5</ele><time>2026-04-18T09:53:42.457Z</time></trkpt><trkpt lat="45.1808869" lon="8.2883603"><ele>128.25</ele><time>2026-04-18T09:53:43.458Z</time></trkpt><trkpt lat="45.1810132" lon="8.2882508"><ele>128.0</ele><time>2026-04-18T09:53:44.457Z</time></trkpt><trkpt lat="45.1811546" lon="8.2881319"><ele>128.0</ele><time>2026-04-18T09:53:45.457Z</time></trkpt><trkpt lat="45.1812912" lon="8.288003"><ele>128.0</ele><time>2026-04-18T09:53:46.457Z</time></trkpt><trkpt lat="45.1814294" lon="8.287891"><ele>128.0</ele><time>2026-04-18T09:53:47.457Z</time></trkpt><trkpt lat="45.1815576" lon="8.287785"><ele>128.0</ele><time>2026-04-18T09:53:48.457Z</time></trkpt><trkpt lat="45.1816716" lon="8.2876931"><ele>128.0</ele><time>2026-04-18T09:53:49.457Z</time></trkpt><trkpt lat="45.1817725" lon="8.2876004"><ele>128.0</ele><time>2026-04-18T09:53:50.457Z</time></trkpt><trkpt lat="45.1818703" lon="8.2875089"><ele>128.0</ele><time>2026-04-18T09:53:51.458Z</time></trkpt><trkpt lat="45.1819458" lon="8.287393"><ele>128.0</ele><time>2026-04-18T09:53:52.457Z</time></trkpt><trkpt lat="45.1820191" lon="8.2872655"><ele>128.0</ele><time>2026-04-18T09:53:53.458Z</time></trkpt><trkpt lat="45.1820828" lon="8.2871064"><ele>128.0</ele><time>2026-04-18T09:53:54.457Z</time></trkpt><trkpt lat="45.1821451" lon="8.286932"><ele>128.0</ele><time>2026-04-18T09:53:55.457Z</time></trkpt><trkpt lat="45.1822074" lon="8.2867379"><ele>128.0</ele><time>2026-04-18T09:53:56.457Z</time></trkpt><trkpt lat="45.1822692" lon="8.2865369"><ele>128.0</ele><time>2026-04-18T09:53:57.457Z</time></trkpt><trkpt lat="45.1823236" lon="8.2863468"><ele>128.0</ele><time>2026-04-18T09:53:58.457Z</time></trkpt><trkpt lat="45.1823764" lon="8.2861672"><ele>128.0</ele><time>2026-04-18T09:53:59.458Z</time></trkpt><trkpt lat="45.1824289" lon="8.2859922"><ele>128.0</ele><time>2026-04-18T09:54:00.457Z</time></trkpt><trkpt lat="45.1824782" lon="8.2858079"><ele>128.0</ele><time>2026-04-18T09:54:01.457Z</time></trkpt><trkpt lat="45.1825291" lon="8.2856266"><ele>128.0</ele><time>2026-04-18T09:54:02.457Z</time></trkpt><trkpt lat="45.1825804" lon="8.2854722"><ele>128.0</ele><time>2026-04-18T09:54:03.457Z</time></trkpt><trkpt lat="45.1826358" lon="8.2853336"><ele>128.4</ele><time>2026-04-18T09:54:04.457Z</time></trkpt><trkpt lat="45.1826936" lon="8.2852114"><ele>128.8</ele><time>2026-04-18T09:54:05.457Z</time></trkpt><trkpt lat="45.1827568" lon="8.2851024"><ele>129.2</ele><time>2026-04-18T09:54:06.457Z</time></trkpt><trkpt lat="45.1828034" lon="8.2849831"><ele>129.6</ele><time>2026-04-18T09:54:07.457Z</time></trkpt><trkpt lat="45.1828383" lon="8.284836"><ele>130.0</ele><time>2026-04-18T09:54:08.458Z</time></trkpt><trkpt lat="45.1828538" lon="8.2846738"><ele>130.0</ele><time>2026-04-18T09:54:09.457Z</time></trkpt><trkpt lat="45.1828903" lon="8.2844947"><ele>130.0</ele><time>2026-04-18T09:54:10.457Z</time></trkpt><trkpt lat="45.1829469" lon="8.2842941"><ele>130.0</ele><time>2026-04-18T09:54:11.457Z</time></trkpt><trkpt lat="45.1830147" lon="8.2840713"><ele>129.66666666666669</ele><time>2026-04-18T09:54:12.457Z</time></trkpt><trkpt lat="45.1830793" lon="8.2838435"><ele>129.33333333333334</ele><time>2026-04-18T09:54:13.457Z</time></trkpt><trkpt lat="45.1831302" lon="8.2836515"><ele>129.0</ele><time>2026-04-18T09:54:14.457Z</time></trkpt><trkpt lat="45.1831842" lon="8.2834604"><ele>129.0</ele><time>2026-04-18T09:54:15.458Z</time></trkpt><trkpt lat="45.1832478" lon="8.283269"><ele>129.0</ele><time>2026-04-18T09:54:16.457Z</time></trkpt><trkpt lat="45.1832989" lon="8.2830835"><ele>129.0</ele><time>2026-04-18T09:54:17.457Z</time></trkpt><trkpt lat="45.1833472" lon="8.2829132"><ele>129.0</ele><time>2026-04-18T09:54:18.457Z</time></trkpt><trkpt lat="45.1833988" lon="8.2827491"><ele>129.25</ele><time>2026-04-18T09:54:19.457Z</time></trkpt><trkpt lat="45.1834496" lon="8.2825745"><ele>129.5</ele><time>2026-04-18T09:54:20.458Z</time></trkpt><trkpt lat="45.1834991" lon="8.2824156"><ele>129.75</ele><time>2026-04-18T09:54:21.458Z</time></trkpt><trkpt lat="45.1835402" lon="8.2822737"><ele>130.0</ele><time>2026-04-18T09:54:22.457Z</time></trkpt><trkpt lat="45.1835782" lon="8.2821445"><ele>130.0</ele><time>2026-04-18T09:54:23.457Z</time></trkpt><trkpt lat="45.1836171" lon="8.2820403"><ele>130.0</ele><time>2026-04-18T09:54:24.457Z</time></trkpt><trkpt lat="45.1836476" lon="8.2819407"><ele>130.0</ele><time>2026-04-18T09:54:25.457Z</time></trkpt><trkpt lat="45.1837125" lon="8.2817975"><ele>130.0</ele><time>2026-04-18T09:54:27.457Z</time></trkpt><trkpt lat="45.183752" lon="8.281724"><ele>130.0</ele><time>2026-04-18T09:54:28.458Z</time></trkpt><trkpt lat="45.1837894" lon="8.2816336"><ele>130.0</ele><time>2026-04-18T09:54:29.457Z</time></trkpt><trkpt lat="45.1838145" lon="8.2815187"><ele>129.4</ele><time>2026-04-18T09:54:30.457Z</time></trkpt><trkpt lat="45.1838423" lon="8.2813649"><ele>128.8</ele><time>2026-04-18T09:54:31.457Z</time></trkpt><trkpt lat="45.1838754" lon="8.2811934"><ele>128.2</ele><time>2026-04-18T09:54:32.457Z</time></trkpt><trkpt lat="45.1839022" lon="8.2810487"><ele>127.6</ele><time>2026-04-18T09:54:33.457Z</time></trkpt><trkpt lat="45.1839238" lon="8.2809203"><ele>127.0</ele><time>2026-04-18T09:54:34.457Z</time></trkpt><trkpt lat="45.1839492" lon="8.2808169"><ele>127.00000000000001</ele><time>2026-04-18T09:54:35.457Z</time></trkpt><trkpt lat="45.1839855" lon="8.2807348"><ele>127.0</ele><time>2026-04-18T09:54:36.457Z</time></trkpt><trkpt lat="45.1840349" lon="8.2806644"><ele>127.0</ele><time>2026-04-18T09:54:37.457Z</time></trkpt><trkpt lat="45.1840989" lon="8.2805955"><ele>127.0</ele><time>2026-04-18T09:54:38.458Z</time></trkpt><trkpt lat="45.1841888" lon="8.2805546"><ele>127.00000000000001</ele><time>2026-04-18T09:54:39.457Z</time></trkpt><trkpt lat="45.184314" lon="8.2805163"><ele>127.0</ele><time>2026-04-18T09:54:40.457Z</time></trkpt><trkpt lat="45.1844682" lon="8.2804837"><ele>128.33333333333334</ele><time>2026-04-18T09:54:41.457Z</time></trkpt><trkpt lat="45.1846417" lon="8.2804411"><ele>129.66666666666666</ele><time>2026-04-18T09:54:42.457Z</time></trkpt><trkpt lat="45.1847821" lon="8.2803966"><ele>131.0</ele><time>2026-04-18T09:54:43.457Z</time></trkpt><trkpt lat="45.1849131" lon="8.2803707"><ele>131.0</ele><time>2026-04-18T09:54:44.457Z</time></trkpt><trkpt lat="45.185022" lon="8.2803486"><ele>131.0</ele><time>2026-04-18T09:54:45.458Z</time></trkpt><trkpt lat="45.1851226" lon="8.2803236"><ele>131.0</ele><time>2026-04-18T09:54:46.458Z</time></trkpt><trkpt lat="45.1852201" lon="8.280289"><ele>131.0</ele><time>2026-04-18T09:54:47.457Z</time></trkpt><trkpt lat="45.1853137" lon="8.2802486"><ele>131.0</ele><time>2026-04-18T09:54:48.458Z</time></trkpt><trkpt lat="45.1854092" lon="8.2801831"><ele>131.0</ele><time>2026-04-18T09:54:49.457Z</time></trkpt><trkpt lat="45.1854925" lon="8.2801239"><ele>131.0</ele><time>2026-04-18T09:54:50.458Z</time></trkpt><trkpt lat="45.185585" lon="8.2800699"><ele>131.0</ele><time>2026-04-18T09:54:51.457Z</time></trkpt><trkpt lat="45.1856869" lon="8.2800296"><ele>131.0</ele><time>2026-04-18T09:54:52.458Z</time></trkpt><trkpt lat="45.185789" lon="8.2800044"><ele>131.0</ele><time>2026-04-18T09:54:53.457Z</time></trkpt><trkpt lat="45.1858966" lon="8.2799765"><ele>130.25</ele><time>2026-04-18T09:54:54.458Z</time></trkpt><trkpt lat="45.1860149" lon="8.2799416"><ele>129.5</ele><time>2026-04-18T09:54:55.457Z</time></trkpt><trkpt lat="45.1861378" lon="8.279905"><ele>128.75</ele><time>2026-04-18T09:54:56.457Z</time></trkpt><trkpt lat="45.1862596" lon="8.2798702"><ele>128.0</ele><time>2026-04-18T09:54:57.457Z</time></trkpt><trkpt lat="45.1863659" lon="8.279826"><ele>128.0</ele><time>2026-04-18T09:54:58.457Z</time></trkpt><trkpt lat="45.1864752" lon="8.2797776"><ele>128.0</ele><time>2026-04-18T09:54:59.457Z</time></trkpt><trkpt lat="45.1865948" lon="8.2797198"><ele>128.0</ele><time>2026-04-18T09:55:00.457Z</time></trkpt><trkpt lat="45.1867123" lon="8.2796582"><ele>128.0</ele><time>2026-04-18T09:55:01.457Z</time></trkpt><trkpt lat="45.186829" lon="8.2795701"><ele>128.20000000000002</ele><time>2026-04-18T09:55:02.458Z</time></trkpt><trkpt lat="45.1869272" lon="8.279494"><ele>128.4</ele><time>2026-04-18T09:55:03.457Z</time></trkpt><trkpt lat="45.1870157" lon="8.2794155"><ele>128.60000000000002</ele><time>2026-04-18T09:55:04.457Z</time></trkpt><trkpt lat="45.1870977" lon="8.2793329"><ele>128.8</ele><time>2026-04-18T09:55:05.458Z</time></trkpt><trkpt lat="45.1871673" lon="8.2792642"><ele>129.0</ele><time>2026-04-18T09:55:06.458Z</time></trkpt><trkpt lat="45.1872299" lon="8.2791936"><ele>129.0</ele><time>2026-04-18T09:55:07.457Z</time></trkpt><trkpt lat="45.1873133" lon="8.2790929"><ele>129.0</ele><time>2026-04-18T09:55:09.457Z</time></trkpt><trkpt lat="45.1873097" lon="8.2789359"><ele>129.0</ele><time>2026-04-18T09:55:12.457Z</time></trkpt><trkpt lat="45.187284" lon="8.2788529"><ele>129.0</ele><time>2026-04-18T09:55:13.457Z</time></trkpt><trkpt lat="45.1872655" lon="8.2787271"><ele>129.0</ele><time>2026-04-18T09:55:14.457Z</time></trkpt><trkpt lat="45.1872568" lon="8.2785457"><ele>129.25</ele><time>2026-04-18T09:55:15.457Z</time></trkpt><trkpt lat="45.1872256" lon="8.2783269"><ele>129.5</ele><time>2026-04-18T09:55:16.457Z</time></trkpt><trkpt lat="45.1872046" lon="8.2781107"><ele>129.75</ele><time>2026-04-18T09:55:17.457Z</time></trkpt><trkpt lat="45.1871926" lon="8.2779351"><ele>130.0</ele><time>2026-04-18T09:55:18.457Z</time></trkpt><trkpt lat="45.1871771" lon="8.2777843"><ele>130.16666666666669</ele><time>2026-04-18T09:55:19.458Z</time></trkpt><trkpt lat="45.1871536" lon="8.2776527"><ele>130.33333333333334</ele><time>2026-04-18T09:55:20.457Z</time></trkpt><trkpt lat="45.1871315" lon="8.2775311"><ele>130.5</ele><time>2026-04-18T09:55:21.457Z</time></trkpt><trkpt lat="45.1871154" lon="8.2774108"><ele>130.66666666666666</ele><time>2026-04-18T09:55:22.457Z</time></trkpt><trkpt lat="45.1871037" lon="8.2772953"><ele>130.83333333333331</ele><time>2026-04-18T09:55:23.457Z</time></trkpt><trkpt lat="45.1870891" lon="8.2771943"><ele>131.0</ele><time>2026-04-18T09:55:24.458Z</time></trkpt><trkpt lat="45.1870771" lon="8.2770385"><ele>131.0</ele><time>2026-04-18T09:55:26.458Z</time></trkpt><trkpt lat="45.1871152" lon="8.2769298"><ele>131.0</ele><time>2026-04-18T09:55:28.457Z</time></trkpt><trkpt lat="45.1871964" lon="8.2769063"><ele>131.0</ele><time>2026-04-18T09:55:29.457Z</time></trkpt><trkpt lat="45.187279" lon="8.2768882"><ele>131.0</ele><time>2026-04-18T09:55:30.457Z</time></trkpt><trkpt lat="45.1873787" lon="8.2768716"><ele>131.0</ele><time>2026-04-18T09:55:31.457Z</time></trkpt><trkpt lat="45.1874829" lon="8.27685"><ele>130.75</ele><time>2026-04-18T09:55:32.457Z</time></trkpt><trkpt lat="45.1876086" lon="8.2768362"><ele>130.5</ele><time>2026-04-18T09:55:33.457Z</time></trkpt><trkpt lat="45.1877418" lon="8.2768157"><ele>130.25</ele><time>2026-04-18T09:55:34.457Z</time></trkpt><trkpt lat="45.1878737" lon="8.2767985"><ele>130.0</ele><time>2026-04-18T09:55:35.457Z</time></trkpt><trkpt lat="45.1879866" lon="8.2767959"><ele>130.0</ele><time>2026-04-18T09:55:36.457Z</time></trkpt><trkpt lat="45.1880809" lon="8.2767984"><ele>130.0</ele><time>2026-04-18T09:55:37.457Z</time></trkpt><trkpt lat="45.1881503" lon="8.2768062"><ele>130.0</ele><time>2026-04-18T09:55:38.458Z</time></trkpt><trkpt lat="45.1882502" lon="8.2768046"><ele>130.0</ele><time>2026-04-18T09:55:40.457Z</time></trkpt><trkpt lat="45.1883221" lon="8.2767692"><ele>130.0</ele><time>2026-04-18T09:55:43.457Z</time></trkpt><trkpt lat="45.1883576" lon="8.276643"><ele>130.0</ele><time>2026-04-18T09:55:45.457Z</time></trkpt><trkpt lat="45.1883772" lon="8.2765245"><ele>129.75</ele><time>2026-04-18T09:55:46.457Z</time></trkpt><trkpt lat="45.1883833" lon="8.2763558"><ele>129.5</ele><time>2026-04-18T09:55:47.457Z</time></trkpt><trkpt lat="45.1883868" lon="8.2761856"><ele>129.25</ele><time>2026-04-18T09:55:48.457Z</time></trkpt><trkpt lat="45.1883922" lon="8.2759641"><ele>129.0</ele><time>2026-04-18T09:55:49.458Z</time></trkpt><trkpt lat="45.1884103" lon="8.2756813"><ele>129.0</ele><time>2026-04-18T09:55:50.457Z</time></trkpt><trkpt lat="45.1884275" lon="8.2753742"><ele>129.0</ele><time>2026-04-18T09:55:51.457Z</time></trkpt><trkpt lat="45.1884426" lon="8.2750533"><ele>129.0</ele><time>2026-04-18T09:55:52.457Z</time></trkpt><trkpt lat="45.1884606" lon="8.2747058"><ele>129.0</ele><time>2026-04-18T09:55:53.458Z</time></trkpt><trkpt lat="45.1884718" lon="8.2743327"><ele>129.0</ele><time>2026-04-18T09:55:54.457Z</time></trkpt><trkpt lat="45.188491" lon="8.2739487"><ele>130.0</ele><time>2026-04-18T09:55:55.457Z</time></trkpt><trkpt lat="45.1885114" lon="8.2735584"><ele>131.0</ele><time>2026-04-18T09:55:56.457Z</time></trkpt><trkpt lat="45.1885326" lon="8.2731308"><ele>131.5</ele><time>2026-04-18T09:55:57.457Z</time></trkpt><trkpt lat="45.1885459" lon="8.2727148"><ele>132.0</ele><time>2026-04-18T09:55:58.458Z</time></trkpt><trkpt lat="45.1885616" lon="8.2722838"><ele>132.0</ele><time>2026-04-18T09:55:59.457Z</time></trkpt><trkpt lat="45.1885758" lon="8.2718375"><ele>132.0</ele><time>2026-04-18T09:56:00.458Z</time></trkpt><trkpt lat="45.1886068" lon="8.27139"><ele>130.5</ele><time>2026-04-18T09:56:01.458Z</time></trkpt><trkpt lat="45.1886328" lon="8.2709327"><ele>129.0</ele><time>2026-04-18T09:56:02.458Z</time></trkpt><trkpt lat="45.1886593" lon="8.2704588"><ele>129.0</ele><time>2026-04-18T09:56:03.457Z</time></trkpt><trkpt lat="45.1886861" lon="8.2699797"><ele>129.0</ele><time>2026-04-18T09:56:04.457Z</time></trkpt><trkpt lat="45.1887024" lon="8.2694954"><ele>129.5</ele><time>2026-04-18T09:56:05.457Z</time></trkpt><trkpt lat="45.1887328" lon="8.2690398"><ele>130.0</ele><time>2026-04-18T09:56:06.457Z</time></trkpt><trkpt lat="45.1887443" lon="8.2686062"><ele>130.0</ele><time>2026-04-18T09:56:07.457Z</time></trkpt><trkpt lat="45.1887669" lon="8.2682119"><ele>130.0</ele><time>2026-04-18T09:56:08.458Z</time></trkpt><trkpt lat="45.1887832" lon="8.2678285"><ele>130.0</ele><time>2026-04-18T09:56:09.458Z</time></trkpt><trkpt lat="45.1888066" lon="8.2674594"><ele>130.0</ele><time>2026-04-18T09:56:10.457Z</time></trkpt><trkpt lat="45.1888252" lon="8.267099"><ele>129.5</ele><time>2026-04-18T09:56:11.457Z</time></trkpt><trkpt lat="45.1888454" lon="8.2667489"><ele>129.0</ele><time>2026-04-18T09:56:12.458Z</time></trkpt><trkpt lat="45.1888619" lon="8.2663992"><ele>130.0</ele><time>2026-04-18T09:56:13.457Z</time></trkpt><trkpt lat="45.1888784" lon="8.2660482"><ele>131.0</ele><time>2026-04-18T09:56:14.457Z</time></trkpt><trkpt lat="45.1888929" lon="8.2657043"><ele>131.5</ele><time>2026-04-18T09:56:15.457Z</time></trkpt><trkpt lat="45.1889121" lon="8.2653593"><ele>132.0</ele><time>2026-04-18T09:56:16.457Z</time></trkpt><trkpt lat="45.1889291" lon="8.2650269"><ele>133.0</ele><time>2026-04-18T09:56:17.457Z</time></trkpt><trkpt lat="45.1889475" lon="8.2646872"><ele>134.0</ele><time>2026-04-18T09:56:18.457Z</time></trkpt><trkpt lat="45.1889614" lon="8.2643502"><ele>134.0</ele><time>2026-04-18T09:56:19.458Z</time></trkpt><trkpt lat="45.1889778" lon="8.2640115"><ele>134.0</ele><time>2026-04-18T09:56:20.458Z</time></trkpt><trkpt lat="45.1889903" lon="8.2636705"><ele>134.5</ele><time>2026-04-18T09:56:21.458Z</time></trkpt><trkpt lat="45.189008" lon="8.263322"><ele>135.0</ele><time>2026-04-18T09:56:22.457Z</time></trkpt><trkpt lat="45.189029" lon="8.2629698"><ele>132.5</ele><time>2026-04-18T09:56:23.457Z</time></trkpt><trkpt lat="45.1890514" lon="8.2626058"><ele>130.0</ele><time>2026-04-18T09:56:24.457Z</time></trkpt><trkpt lat="45.1890667" lon="8.2622352"><ele>130.0</ele><time>2026-04-18T09:56:25.457Z</time></trkpt><trkpt lat="45.1890837" lon="8.2618556"><ele>130.0</ele><time>2026-04-18T09:56:26.457Z</time></trkpt><trkpt lat="45.1890987" lon="8.2614635"><ele>130.5</ele><time>2026-04-18T09:56:27.457Z</time></trkpt><trkpt lat="45.1891222" lon="8.261069"><ele>131.0</ele><time>2026-04-18T09:56:28.458Z</time></trkpt><trkpt lat="45.1891413" lon="8.26069"><ele>130.0</ele><time>2026-04-18T09:56:29.457Z</time></trkpt><trkpt lat="45.1891596" lon="8.2603331"><ele>129.0</ele><time>2026-04-18T09:56:30.457Z</time></trkpt><trkpt lat="45.1891812" lon="8.2599835"><ele>129.0</ele><time>2026-04-18T09:56:31.457Z</time></trkpt><trkpt lat="45.1892068" lon="8.2596403"><ele>129.0</ele><time>2026-04-18T09:56:32.457Z</time></trkpt><trkpt lat="45.1892363" lon="8.2592981"><ele>129.0</ele><time>2026-04-18T09:56:33.458Z</time></trkpt><trkpt lat="45.1892656" lon="8.2589759"><ele>129.0</ele><time>2026-04-18T09:56:34.457Z</time></trkpt><trkpt lat="45.1892998" lon="8.2586489"><ele>129.5</ele><time>2026-04-18T09:56:35.458Z</time></trkpt><trkpt lat="45.1893344" lon="8.258334"><ele>130.0</ele><time>2026-04-18T09:56:36.458Z</time></trkpt><trkpt lat="45.1893722" lon="8.2580157"><ele>130.33333333333334</ele><time>2026-04-18T09:56:37.458Z</time></trkpt><trkpt lat="45.1894157" lon="8.2577057"><ele>130.66666666666666</ele><time>2026-04-18T09:56:38.457Z</time></trkpt><trkpt lat="45.1894575" lon="8.2573987"><ele>131.0</ele><time>2026-04-18T09:56:39.457Z</time></trkpt><trkpt lat="45.1895021" lon="8.2570994"><ele>131.33333333333331</ele><time>2026-04-18T09:56:40.457Z</time></trkpt><trkpt lat="45.1895466" lon="8.2567951"><ele>131.66666666666666</ele><time>2026-04-18T09:56:41.457Z</time></trkpt><trkpt lat="45.1895977" lon="8.2564916"><ele>132.0</ele><time>2026-04-18T09:56:42.457Z</time></trkpt><trkpt lat="45.1896444" lon="8.2561882"><ele>132.0</ele><time>2026-04-18T09:56:43.457Z</time></trkpt><trkpt lat="45.1896943" lon="8.2558958"><ele>132.0</ele><time>2026-04-18T09:56:44.458Z</time></trkpt><trkpt lat="45.1897398" lon="8.2556032"><ele>132.0</ele><time>2026-04-18T09:56:45.457Z</time></trkpt><trkpt lat="45.1897903" lon="8.2553078"><ele>132.33333333333334</ele><time>2026-04-18T09:56:46.457Z</time></trkpt><trkpt lat="45.1898385" lon="8.2550136"><ele>132.66666666666669</ele><time>2026-04-18T09:56:47.458Z</time></trkpt><trkpt lat="45.1898845" lon="8.2547149"><ele>133.0</ele><time>2026-04-18T09:56:48.457Z</time></trkpt><trkpt lat="45.1899198" lon="8.254421"><ele>133.0</ele><time>2026-04-18T09:56:49.457Z</time></trkpt><trkpt lat="45.1899468" lon="8.2541103"><ele>133.0</ele><time>2026-04-18T09:56:50.457Z</time></trkpt><trkpt lat="45.1899688" lon="8.2537953"><ele>133.0</ele><time>2026-04-18T09:56:51.457Z</time></trkpt><trkpt lat="45.1899772" lon="8.2534685"><ele>133.5</ele><time>2026-04-18T09:56:52.457Z</time></trkpt><trkpt lat="45.1899688" lon="8.2531301"><ele>134.0</ele><time>2026-04-18T09:56:53.458Z</time></trkpt><trkpt lat="45.1899623" lon="8.2527738"><ele>134.0</ele><time>2026-04-18T09:56:54.458Z</time></trkpt><trkpt lat="45.1899483" lon="8.2524227"><ele>134.0</ele><time>2026-04-18T09:56:55.457Z</time></trkpt><trkpt lat="45.1899289" lon="8.2520736"><ele>134.5</ele><time>2026-04-18T09:56:56.458Z</time></trkpt><trkpt lat="45.1898988" lon="8.2517333"><ele>135.0</ele><time>2026-04-18T09:56:57.457Z</time></trkpt><trkpt lat="45.1898607" lon="8.2513944"><ele>134.0</ele><time>2026-04-18T09:56:58.458Z</time></trkpt><trkpt lat="45.1898105" lon="8.2510681"><ele>133.0</ele><time>2026-04-18T09:56:59.457Z</time></trkpt><trkpt lat="45.1897586" lon="8.250747"><ele>133.0</ele><time>2026-04-18T09:57:00.457Z</time></trkpt><trkpt lat="45.1896939" lon="8.2504314"><ele>133.0</ele><time>2026-04-18T09:57:01.457Z</time></trkpt><trkpt lat="45.1896265" lon="8.2501252"><ele>133.0</ele><time>2026-04-18T09:57:02.457Z</time></trkpt><trkpt lat="45.1895497" lon="8.2498294"><ele>133.0</ele><time>2026-04-18T09:57:03.458Z</time></trkpt><trkpt lat="45.1894776" lon="8.2495473"><ele>133.0</ele><time>2026-04-18T09:57:04.457Z</time></trkpt><trkpt lat="45.1894015" lon="8.2492791"><ele>133.0</ele><time>2026-04-18T09:57:05.457Z</time></trkpt><trkpt lat="45.1893217" lon="8.249026"><ele>133.0</ele><time>2026-04-18T09:57:06.457Z</time></trkpt><trkpt lat="45.1892319" lon="8.2487608"><ele>133.0</ele><time>2026-04-18T09:57:07.458Z</time></trkpt><trkpt lat="45.1891311" lon="8.248488"><ele>133.5</ele><time>2026-04-18T09:57:08.457Z</time></trkpt><trkpt lat="45.1890247" lon="8.2482174"><ele>134.0</ele><time>2026-04-18T09:57:09.457Z</time></trkpt><trkpt lat="45.1888929" lon="8.2479308"><ele>134.0</ele><time>2026-04-18T09:57:10.458Z</time></trkpt><trkpt lat="45.1887418" lon="8.2476436"><ele>134.0</ele><time>2026-04-18T09:57:11.457Z</time></trkpt><trkpt lat="45.1885784" lon="8.2473447"><ele>134.5</ele><time>2026-04-18T09:57:12.457Z</time></trkpt><trkpt lat="45.1884102" lon="8.2470266"><ele>135.0</ele><time>2026-04-18T09:57:13.458Z</time></trkpt><trkpt lat="45.1882364" lon="8.2467296"><ele>135.0</ele><time>2026-04-18T09:57:14.457Z</time></trkpt><trkpt lat="45.1880547" lon="8.2464349"><ele>135.0</ele><time>2026-04-18T09:57:15.458Z</time></trkpt><trkpt lat="45.1878636" lon="8.2461593"><ele>135.0</ele><time>2026-04-18T09:57:16.458Z</time></trkpt><trkpt lat="45.1876547" lon="8.2458949"><ele>135.0</ele><time>2026-04-18T09:57:17.457Z</time></trkpt><trkpt lat="45.1874326" lon="8.2456258"><ele>134.0</ele><time>2026-04-18T09:57:18.458Z</time></trkpt><trkpt lat="45.1872084" lon="8.2453449"><ele>133.0</ele><time>2026-04-18T09:57:19.457Z</time></trkpt><trkpt lat="45.1869806" lon="8.2450399"><ele>133.5</ele><time>2026-04-18T09:57:20.457Z</time></trkpt><trkpt lat="45.1867584" lon="8.2447265"><ele>134.0</ele><time>2026-04-18T09:57:21.457Z</time></trkpt><trkpt lat="45.186523" lon="8.244407"><ele>134.0</ele><time>2026-04-18T09:57:22.457Z</time></trkpt><trkpt lat="45.186288" lon="8.2440826"><ele>134.0</ele><time>2026-04-18T09:57:23.457Z</time></trkpt><trkpt lat="45.1860475" lon="8.2437586"><ele>134.0</ele><time>2026-04-18T09:57:24.458Z</time></trkpt><trkpt lat="45.1858109" lon="8.2434506"><ele>134.0</ele><time>2026-04-18T09:57:25.457Z</time></trkpt><trkpt lat="45.1855782" lon="8.2431486"><ele>134.5</ele><time>2026-04-18T09:57:26.457Z</time></trkpt><trkpt lat="45.185353" lon="8.2428537"><ele>135.0</ele><time>2026-04-18T09:57:27.457Z</time></trkpt><trkpt lat="45.1851339" lon="8.2425661"><ele>135.5</ele><time>2026-04-18T09:57:28.457Z</time></trkpt><trkpt lat="45.1849118" lon="8.242278"><ele>136.0</ele><time>2026-04-18T09:57:29.457Z</time></trkpt><trkpt lat="45.184699" lon="8.2419943"><ele>135.0</ele><time>2026-04-18T09:57:30.457Z</time></trkpt><trkpt lat="45.1844857" lon="8.2417158"><ele>134.0</ele><time>2026-04-18T09:57:31.458Z</time></trkpt><trkpt lat="45.1842756" lon="8.2414428"><ele>133.5</ele><time>2026-04-18T09:57:32.458Z</time></trkpt><trkpt lat="45.1840694" lon="8.2411733"><ele>133.0</ele><time>2026-04-18T09:57:33.457Z</time></trkpt><trkpt lat="45.1838573" lon="8.2409043"><ele>133.0</ele><time>2026-04-18T09:57:34.457Z</time></trkpt><trkpt lat="45.183648" lon="8.240632"><ele>133.0</ele><time>2026-04-18T09:57:35.457Z</time></trkpt><trkpt lat="45.1834319" lon="8.2403563"><ele>133.0</ele><time>2026-04-18T09:57:36.457Z</time></trkpt><trkpt lat="45.183215" lon="8.2400715"><ele>133.0</ele><time>2026-04-18T09:57:37.457Z</time></trkpt><trkpt lat="45.1829872" lon="8.2397755"><ele>134.5</ele><time>2026-04-18T09:57:38.458Z</time></trkpt><trkpt lat="45.1827583" lon="8.2394735"><ele>136.0</ele><time>2026-04-18T09:57:39.457Z</time></trkpt><trkpt lat="45.1825275" lon="8.2391669"><ele>135.5</ele><time>2026-04-18T09:57:40.457Z</time></trkpt><trkpt lat="45.1822858" lon="8.238854"><ele>135.0</ele><time>2026-04-18T09:57:41.457Z</time></trkpt><trkpt lat="45.1820504" lon="8.2385435"><ele>135.0</ele><time>2026-04-18T09:57:42.457Z</time></trkpt><trkpt lat="45.18182" lon="8.2382415"><ele>135.0</ele><time>2026-04-18T09:57:43.458Z</time></trkpt><trkpt lat="45.1816081" lon="8.2379613"><ele>135.5</ele><time>2026-04-18T09:57:44.458Z</time></trkpt><trkpt lat="45.1813991" lon="8.2376861"><ele>136.0</ele><time>2026-04-18T09:57:45.457Z</time></trkpt><trkpt lat="45.1812017" lon="8.2374324"><ele>136.5</ele><time>2026-04-18T09:57:46.457Z</time></trkpt><trkpt lat="45.1810107" lon="8.2371825"><ele>137.0</ele><time>2026-04-18T09:57:47.457Z</time></trkpt><trkpt lat="45.1808257" lon="8.2369384"><ele>136.0</ele><time>2026-04-18T09:57:48.457Z</time></trkpt><trkpt lat="45.1806521" lon="8.2366973"><ele>135.0</ele><time>2026-04-18T09:57:49.457Z</time></trkpt><trkpt lat="45.180494" lon="8.2364534"><ele>135.0</ele><time>2026-04-18T09:57:50.457Z</time></trkpt><trkpt lat="45.1803421" lon="8.2362114"><ele>135.0</ele><time>2026-04-18T09:57:51.457Z</time></trkpt><trkpt lat="45.1801976" lon="8.2359559"><ele>135.0</ele><time>2026-04-18T09:57:52.458Z</time></trkpt><trkpt lat="45.1800581" lon="8.2356996"><ele>135.0</ele><time>2026-04-18T09:57:53.458Z</time></trkpt><trkpt lat="45.1799272" lon="8.2354432"><ele>134.5</ele><time>2026-04-18T09:57:54.458Z</time></trkpt><trkpt lat="45.1798073" lon="8.2351728"><ele>134.0</ele><time>2026-04-18T09:57:55.457Z</time></trkpt><trkpt lat="45.179699" lon="8.2348854"><ele>134.0</ele><time>2026-04-18T09:57:56.457Z</time></trkpt><trkpt lat="45.179598" lon="8.2345958"><ele>134.0</ele><time>2026-04-18T09:57:57.457Z</time></trkpt><trkpt lat="45.179501" lon="8.2343019"><ele>134.0</ele><time>2026-04-18T09:57:58.457Z</time></trkpt><trkpt lat="45.1794037" lon="8.2340011"><ele>134.0</ele><time>2026-04-18T09:57:59.458Z</time></trkpt><trkpt lat="45.1793133" lon="8.2336927"><ele>134.0</ele><time>2026-04-18T09:58:00.457Z</time></trkpt><trkpt lat="45.1792332" lon="8.2333656"><ele>134.0</ele><time>2026-04-18T09:58:01.457Z</time></trkpt><trkpt lat="45.1791698" lon="8.233013"><ele>134.0</ele><time>2026-04-18T09:58:02.457Z</time></trkpt><trkpt lat="45.1791125" lon="8.2326511"><ele>134.0</ele><time>2026-04-18T09:58:03.457Z</time></trkpt><trkpt lat="45.1790594" lon="8.2322708"><ele>134.0</ele><time>2026-04-18T09:58:04.457Z</time></trkpt><trkpt lat="45.1790246" lon="8.2318837"><ele>134.0</ele><time>2026-04-18T09:58:05.457Z</time></trkpt><trkpt lat="45.1790038" lon="8.2314851"><ele>134.5</ele><time>2026-04-18T09:58:06.457Z</time></trkpt><trkpt lat="45.1790012" lon="8.2310787"><ele>135.0</ele><time>2026-04-18T09:58:07.458Z</time></trkpt><trkpt lat="45.1790066" lon="8.2306615"><ele>135.0</ele><time>2026-04-18T09:58:08.458Z</time></trkpt><trkpt lat="45.1790292" lon="8.2302406"><ele>135.0</ele><time>2026-04-18T09:58:09.457Z</time></trkpt><trkpt lat="45.1790686" lon="8.2298303"><ele>135.5</ele><time>2026-04-18T09:58:10.457Z</time></trkpt><trkpt lat="45.1791226" lon="8.229444"><ele>136.0</ele><time>2026-04-18T09:58:11.458Z</time></trkpt><trkpt lat="45.1791808" lon="8.2290678"><ele>136.0</ele><time>2026-04-18T09:58:12.457Z</time></trkpt><trkpt lat="45.1792488" lon="8.2287034"><ele>136.0</ele><time>2026-04-18T09:58:13.457Z</time></trkpt><trkpt lat="45.1793305" lon="8.2283565"><ele>135.5</ele><time>2026-04-18T09:58:14.458Z</time></trkpt><trkpt lat="45.1794172" lon="8.2280239"><ele>135.0</ele><time>2026-04-18T09:58:15.458Z</time></trkpt><trkpt lat="45.1795129" lon="8.2277122"><ele>135.0</ele><time>2026-04-18T09:58:16.457Z</time></trkpt><trkpt lat="45.1796125" lon="8.2274121"><ele>135.0</ele><time>2026-04-18T09:58:17.458Z</time></trkpt><trkpt lat="45.1797197" lon="8.227134"><ele>135.0</ele><time>2026-04-18T09:58:18.458Z</time></trkpt><trkpt lat="45.1798319" lon="8.2268658"><ele>135.0</ele><time>2026-04-18T09:58:19.457Z</time></trkpt><trkpt lat="45.1799507" lon="8.2266049"><ele>135.0</ele><time>2026-04-18T09:58:20.457Z</time></trkpt><trkpt lat="45.1800735" lon="8.2263535"><ele>135.0</ele><time>2026-04-18T09:58:21.457Z</time></trkpt><trkpt lat="45.1802068" lon="8.2261105"><ele>135.0</ele><time>2026-04-18T09:58:22.457Z</time></trkpt><trkpt lat="45.1803509" lon="8.2258662"><ele>135.0</ele><time>2026-04-18T09:58:23.457Z</time></trkpt><trkpt lat="45.1804991" lon="8.2256353"><ele>135.33333333333334</ele><time>2026-04-18T09:58:24.457Z</time></trkpt><trkpt lat="45.1806433" lon="8.22542"><ele>135.66666666666669</ele><time>2026-04-18T09:58:25.458Z</time></trkpt><trkpt lat="45.1807789" lon="8.2252285"><ele>136.0</ele><time>2026-04-18T09:58:26.457Z</time></trkpt><trkpt lat="45.1809096" lon="8.2250635"><ele>136.33333333333334</ele><time>2026-04-18T09:58:27.457Z</time></trkpt><trkpt lat="45.1810291" lon="8.2249079"><ele>136.66666666666666</ele><time>2026-04-18T09:58:28.458Z</time></trkpt><trkpt lat="45.1811448" lon="8.2247668"><ele>137.0</ele><time>2026-04-18T09:58:29.457Z</time></trkpt><trkpt lat="45.1812646" lon="8.2246265"><ele>137.0</ele><time>2026-04-18T09:58:30.456Z</time></trkpt><trkpt lat="45.1813805" lon="8.224485"><ele>137.0</ele><time>2026-04-18T09:58:31.456Z</time></trkpt><trkpt lat="45.1814851" lon="8.2243548"><ele>137.0</ele><time>2026-04-18T09:58:32.457Z</time></trkpt><trkpt lat="45.1815784" lon="8.2242306"><ele>137.0</ele><time>2026-04-18T09:58:33.456Z</time></trkpt><trkpt lat="45.181666" lon="8.224118"><ele>137.0</ele><time>2026-04-18T09:58:34.456Z</time></trkpt><trkpt lat="45.1817471" lon="8.2240137"><ele>137.0</ele><time>2026-04-18T09:58:35.456Z</time></trkpt><trkpt lat="45.1818132" lon="8.2239112"><ele>137.0</ele><time>2026-04-18T09:58:36.456Z</time></trkpt><trkpt lat="45.1818629" lon="8.2238216"><ele>137.0</ele><time>2026-04-18T09:58:37.456Z</time></trkpt><trkpt lat="45.1818967" lon="8.2237449"><ele>137.0</ele><time>2026-04-18T09:58:38.456Z</time></trkpt><trkpt lat="45.181927" lon="8.223653"><ele>137.0</ele><time>2026-04-18T09:58:39.457Z</time></trkpt><trkpt lat="45.1819591" lon="8.2235649"><ele>137.0</ele><time>2026-04-18T09:58:40.456Z</time></trkpt><trkpt lat="45.1819947" lon="8.223484"><ele>137.0</ele><time>2026-04-18T09:58:41.456Z</time></trkpt><trkpt lat="45.1820426" lon="8.2233934"><ele>137.0</ele><time>2026-04-18T09:58:42.457Z</time></trkpt><trkpt lat="45.1821164" lon="8.2232897"><ele>137.0</ele><time>2026-04-18T09:58:43.456Z</time></trkpt><trkpt lat="45.1822104" lon="8.2231729"><ele>137.0</ele><time>2026-04-18T09:58:44.457Z</time></trkpt><trkpt lat="45.1823249" lon="8.2230411"><ele>137.33333333333331</ele><time>2026-04-18T09:58:45.456Z</time></trkpt><trkpt lat="45.1824535" lon="8.2228917"><ele>137.66666666666666</ele><time>2026-04-18T09:58:46.456Z</time></trkpt><trkpt lat="45.1826002" lon="8.2227179"><ele>138.0</ele><time>2026-04-18T09:58:47.456Z</time></trkpt><trkpt lat="45.1827562" lon="8.2225311"><ele>138.0</ele><time>2026-04-18T09:58:48.456Z</time></trkpt><trkpt lat="45.182914" lon="8.2223498"><ele>138.0</ele><time>2026-04-18T09:58:49.457Z</time></trkpt><trkpt lat="45.1830476" lon="8.2221907"><ele>138.0</ele><time>2026-04-18T09:58:50.456Z</time></trkpt><trkpt lat="45.183173" lon="8.2220436"><ele>138.0</ele><time>2026-04-18T09:58:51.456Z</time></trkpt><trkpt lat="45.1832919" lon="8.2218969"><ele>138.0</ele><time>2026-04-18T09:58:52.456Z</time></trkpt><trkpt lat="45.1834051" lon="8.2217592"><ele>138.0</ele><time>2026-04-18T09:58:53.457Z</time></trkpt><trkpt lat="45.1835245" lon="8.2216207"><ele>137.66666666666666</ele><time>2026-04-18T09:58:54.456Z</time></trkpt><trkpt lat="45.1836504" lon="8.2214762"><ele>137.33333333333331</ele><time>2026-04-18T09:58:55.456Z</time></trkpt><trkpt lat="45.1837718" lon="8.2213396"><ele>137.0</ele><time>2026-04-18T09:58:56.456Z</time></trkpt><trkpt lat="45.1838955" lon="8.2211964"><ele>137.25</ele><time>2026-04-18T09:58:57.456Z</time></trkpt><trkpt lat="45.1840156" lon="8.2210508"><ele>137.5</ele><time>2026-04-18T09:58:58.456Z</time></trkpt><trkpt lat="45.1841305" lon="8.2209129"><ele>137.75</ele><time>2026-04-18T09:58:59.456Z</time></trkpt><trkpt lat="45.1842354" lon="8.220789"><ele>138.0</ele><time>2026-04-18T09:59:00.456Z</time></trkpt><trkpt lat="45.1843253" lon="8.220678"><ele>138.0</ele><time>2026-04-18T09:59:01.456Z</time></trkpt><trkpt lat="45.1844012" lon="8.2205741"><ele>138.0</ele><time>2026-04-18T09:59:02.457Z</time></trkpt><trkpt lat="45.1844631" lon="8.220469"><ele>138.0</ele><time>2026-04-18T09:59:03.456Z</time></trkpt><trkpt lat="45.1845186" lon="8.2203604"><ele>138.0</ele><time>2026-04-18T09:59:04.456Z</time></trkpt><trkpt lat="45.1845599" lon="8.2202419"><ele>138.0</ele><time>2026-04-18T09:59:05.456Z</time></trkpt><trkpt lat="45.1845842" lon="8.220106"><ele>138.0</ele><time>2026-04-18T09:59:06.456Z</time></trkpt><trkpt lat="45.1845929" lon="8.2199519"><ele>138.0</ele><time>2026-04-18T09:59:07.456Z</time></trkpt><trkpt lat="45.184586" lon="8.2197998"><ele>138.0</ele><time>2026-04-18T09:59:08.456Z</time></trkpt><trkpt lat="45.1845676" lon="8.2196226"><ele>138.0</ele><time>2026-04-18T09:59:09.456Z</time></trkpt><trkpt lat="45.1845412" lon="8.2194183"><ele>138.0</ele><time>2026-04-18T09:59:10.456Z</time></trkpt><trkpt lat="45.1845224" lon="8.2192137"><ele>138.0</ele><time>2026-04-18T09:59:11.457Z</time></trkpt><trkpt lat="45.1845034" lon="8.2189968"><ele>138.0</ele><time>2026-04-18T09:59:12.457Z</time></trkpt><trkpt lat="45.1844871" lon="8.2187621"><ele>137.66666666666666</ele><time>2026-04-18T09:59:13.456Z</time></trkpt><trkpt lat="45.1844832" lon="8.2185305"><ele>137.33333333333331</ele><time>2026-04-18T09:59:14.456Z</time></trkpt><trkpt lat="45.1844812" lon="8.2183041"><ele>137.0</ele><time>2026-04-18T09:59:15.456Z</time></trkpt><trkpt lat="45.1844746" lon="8.218074"><ele>137.0</ele><time>2026-04-18T09:59:16.456Z</time></trkpt><trkpt lat="45.1844601" lon="8.2178487"><ele>137.0</ele><time>2026-04-18T09:59:17.457Z</time></trkpt><trkpt lat="45.1844365" lon="8.2176158"><ele>137.0</ele><time>2026-04-18T09:59:18.456Z</time></trkpt><trkpt lat="45.1844042" lon="8.2173903"><ele>137.0</ele><time>2026-04-18T09:59:19.456Z</time></trkpt><trkpt lat="45.1843774" lon="8.2171798"><ele>137.0</ele><time>2026-04-18T09:59:20.456Z</time></trkpt><trkpt lat="45.1843523" lon="8.2169875"><ele>137.0</ele><time>2026-04-18T09:59:21.456Z</time></trkpt><trkpt lat="45.1843291" lon="8.2168023"><ele>137.0</ele><time>2026-04-18T09:59:22.456Z</time></trkpt><trkpt lat="45.1843068" lon="8.2166193"><ele>137.25</ele><time>2026-04-18T09:59:23.456Z</time></trkpt><trkpt lat="45.1842885" lon="8.2164402"><ele>137.5</ele><time>2026-04-18T09:59:24.456Z</time></trkpt><trkpt lat="45.1842749" lon="8.2162681"><ele>137.75</ele><time>2026-04-18T09:59:25.457Z</time></trkpt><trkpt lat="45.1842654" lon="8.216097"><ele>138.0</ele><time>2026-04-18T09:59:26.457Z</time></trkpt><trkpt lat="45.1842728" lon="8.2159099"><ele>138.0</ele><time>2026-04-18T09:59:27.456Z</time></trkpt><trkpt lat="45.1842974" lon="8.2157033"><ele>138.0</ele><time>2026-04-18T09:59:28.457Z</time></trkpt><trkpt lat="45.1843362" lon="8.2154888"><ele>138.0</ele><time>2026-04-18T09:59:29.456Z</time></trkpt><trkpt lat="45.1843823" lon="8.2152708"><ele>137.75</ele><time>2026-04-18T09:59:30.456Z</time></trkpt><trkpt lat="45.184431" lon="8.2150636"><ele>137.5</ele><time>2026-04-18T09:59:31.457Z</time></trkpt><trkpt lat="45.1844763" lon="8.2148663"><ele>137.25</ele><time>2026-04-18T09:59:32.456Z</time></trkpt><trkpt lat="45.1845147" lon="8.2146656"><ele>137.0</ele><time>2026-04-18T09:59:33.456Z</time></trkpt><trkpt lat="45.1845459" lon="8.2144558"><ele>137.0</ele><time>2026-04-18T09:59:34.456Z</time></trkpt><trkpt lat="45.1845676" lon="8.2142508"><ele>137.0</ele><time>2026-04-18T09:59:35.456Z</time></trkpt><trkpt lat="45.1845857" lon="8.2140683"><ele>137.0</ele><time>2026-04-18T09:59:36.457Z</time></trkpt><trkpt lat="45.1846097" lon="8.2138846"><ele>137.0</ele><time>2026-04-18T09:59:37.457Z</time></trkpt><trkpt lat="45.1846446" lon="8.2136919"><ele>137.0</ele><time>2026-04-18T09:59:38.456Z</time></trkpt><trkpt lat="45.1846936" lon="8.2134995"><ele>137.0</ele><time>2026-04-18T09:59:39.456Z</time></trkpt><trkpt lat="45.1847514" lon="8.2133218"><ele>137.0</ele><time>2026-04-18T09:59:40.456Z</time></trkpt><trkpt lat="45.1848024" lon="8.2131666"><ele>137.0</ele><time>2026-04-18T09:59:41.456Z</time></trkpt><trkpt lat="45.18485" lon="8.2130262"><ele>137.4</ele><time>2026-04-18T09:59:42.457Z</time></trkpt><trkpt lat="45.184896" lon="8.2128947"><ele>137.79999999999998</ele><time>2026-04-18T09:59:43.456Z</time></trkpt><trkpt lat="45.1849454" lon="8.2127696"><ele>138.2</ele><time>2026-04-18T09:59:44.456Z</time></trkpt><trkpt lat="45.1849856" lon="8.2126426"><ele>138.6</ele><time>2026-04-18T09:59:45.456Z</time></trkpt><trkpt lat="45.1850185" lon="8.2124975"><ele>139.0</ele><time>2026-04-18T09:59:46.456Z</time></trkpt><trkpt lat="45.1850494" lon="8.2123325"><ele>139.0</ele><time>2026-04-18T09:59:47.456Z</time></trkpt><trkpt lat="45.1850837" lon="8.2121795"><ele>139.0</ele><time>2026-04-18T09:59:48.457Z</time></trkpt><trkpt lat="45.1851313" lon="8.2120228"><ele>139.0</ele><time>2026-04-18T09:59:49.456Z</time></trkpt><trkpt lat="45.1851927" lon="8.2118509"><ele>139.0</ele><time>2026-04-18T09:59:50.457Z</time></trkpt><trkpt lat="45.1852602" lon="8.2116651"><ele>139.0</ele><time>2026-04-18T09:59:51.456Z</time></trkpt><trkpt lat="45.1853197" lon="8.2114784"><ele>139.0</ele><time>2026-04-18T09:59:52.456Z</time></trkpt><trkpt lat="45.1853691" lon="8.2113072"><ele>139.0</ele><time>2026-04-18T09:59:53.456Z</time></trkpt><trkpt lat="45.1854132" lon="8.2111447"><ele>139.0</ele><time>2026-04-18T09:59:54.456Z</time></trkpt><trkpt lat="45.1854587" lon="8.2109937"><ele>139.0</ele><time>2026-04-18T09:59:55.456Z</time></trkpt><trkpt lat="45.1854914" lon="8.2108428"><ele>139.0</ele><time>2026-04-18T09:59:56.456Z</time></trkpt><trkpt lat="45.185514" lon="8.210688"><ele>139.0</ele><time>2026-04-18T09:59:57.456Z</time></trkpt><trkpt lat="45.1855193" lon="8.2105357"><ele>139.0</ele><time>2026-04-18T09:59:58.456Z</time></trkpt><trkpt lat="45.1855223" lon="8.2103882"><ele>139.0</ele><time>2026-04-18T09:59:59.456Z</time></trkpt><trkpt lat="45.185528" lon="8.2102502"><ele>139.0</ele><time>2026-04-18T10:00:00.456Z</time></trkpt><trkpt lat="45.1855571" lon="8.2101034"><ele>139.0</ele><time>2026-04-18T10:00:01.457Z</time></trkpt><trkpt lat="45.1856044" lon="8.2099465"><ele>139.0</ele><time>2026-04-18T10:00:02.456Z</time></trkpt><trkpt lat="45.1856657" lon="8.2097636"><ele>139.0</ele><time>2026-04-18T10:00:03.456Z</time></trkpt><trkpt lat="45.1857459" lon="8.2095743"><ele>138.66666666666669</ele><time>2026-04-18T10:00:04.457Z</time></trkpt><trkpt lat="45.1858285" lon="8.2094007"><ele>138.33333333333334</ele><time>2026-04-18T10:00:05.456Z</time></trkpt><trkpt lat="45.185919" lon="8.2092249"><ele>138.0</ele><time>2026-04-18T10:00:06.456Z</time></trkpt><trkpt lat="45.1860344" lon="8.2090313"><ele>138.0</ele><time>2026-04-18T10:00:07.456Z</time></trkpt><trkpt lat="45.1861473" lon="8.2088688"><ele>138.0</ele><time>2026-04-18T10:00:08.456Z</time></trkpt><trkpt lat="45.1862587" lon="8.2087192"><ele>138.0</ele><time>2026-04-18T10:00:09.457Z</time></trkpt><trkpt lat="45.1863542" lon="8.2085671"><ele>138.0</ele><time>2026-04-18T10:00:10.457Z</time></trkpt><trkpt lat="45.1864515" lon="8.2084155"><ele>138.0</ele><time>2026-04-18T10:00:11.456Z</time></trkpt><trkpt lat="45.1865438" lon="8.2082686"><ele>138.0</ele><time>2026-04-18T10:00:12.456Z</time></trkpt><trkpt lat="45.1866271" lon="8.2081358"><ele>138.0</ele><time>2026-04-18T10:00:13.456Z</time></trkpt><trkpt lat="45.1866905" lon="8.2079878"><ele>138.5</ele><time>2026-04-18T10:00:14.457Z</time></trkpt><trkpt lat="45.1867515" lon="8.2078288"><ele>139.0</ele><time>2026-04-18T10:00:15.456Z</time></trkpt><trkpt lat="45.1868166" lon="8.2076628"><ele>139.5</ele><time>2026-04-18T10:00:16.456Z</time></trkpt><trkpt lat="45.1868825" lon="8.2075015"><ele>140.0</ele><time>2026-04-18T10:00:17.456Z</time></trkpt><trkpt lat="45.1869482" lon="8.2073603"><ele>140.0</ele><time>2026-04-18T10:00:18.457Z</time></trkpt><trkpt lat="45.1870164" lon="8.2072365"><ele>140.0</ele><time>2026-04-18T10:00:19.457Z</time></trkpt><trkpt lat="45.1870751" lon="8.2071044"><ele>140.0</ele><time>2026-04-18T10:00:20.457Z</time></trkpt><trkpt lat="45.1871249" lon="8.2069692"><ele>140.0</ele><time>2026-04-18T10:00:21.456Z</time></trkpt><trkpt lat="45.1871635" lon="8.2068177"><ele>140.0</ele><time>2026-04-18T10:00:22.457Z</time></trkpt><trkpt lat="45.1871971" lon="8.2066361"><ele>139.75</ele><time>2026-04-18T10:00:23.456Z</time></trkpt><trkpt lat="45.1872303" lon="8.2064635"><ele>139.5</ele><time>2026-04-18T10:00:24.457Z</time></trkpt><trkpt lat="45.187266" lon="8.2062989"><ele>139.25</ele><time>2026-04-18T10:00:25.457Z</time></trkpt><trkpt lat="45.1873006" lon="8.2061207"><ele>139.0</ele><time>2026-04-18T10:00:26.457Z</time></trkpt><trkpt lat="45.1873345" lon="8.2059586"><ele>139.0</ele><time>2026-04-18T10:00:27.457Z</time></trkpt><trkpt lat="45.187378" lon="8.2058124"><ele>139.0</ele><time>2026-04-18T10:00:28.456Z</time></trkpt><trkpt lat="45.1874194" lon="8.2056815"><ele>139.0</ele><time>2026-04-18T10:00:29.457Z</time></trkpt><trkpt lat="45.1874772" lon="8.2055673"><ele>139.0</ele><time>2026-04-18T10:00:30.456Z</time></trkpt><trkpt lat="45.1875395" lon="8.2054784"><ele>139.0</ele><time>2026-04-18T10:00:31.456Z</time></trkpt><trkpt lat="45.1876032" lon="8.205402"><ele>139.0</ele><time>2026-04-18T10:00:32.456Z</time></trkpt><trkpt lat="45.187662" lon="8.2053158"><ele>139.0</ele><time>2026-04-18T10:00:33.456Z</time></trkpt><trkpt lat="45.1877157" lon="8.2052249"><ele>139.0</ele><time>2026-04-18T10:00:34.456Z</time></trkpt><trkpt lat="45.1877579" lon="8.2051015"><ele>139.0</ele><time>2026-04-18T10:00:35.456Z</time></trkpt><trkpt lat="45.1877938" lon="8.204953"><ele>139.0</ele><time>2026-04-18T10:00:36.456Z</time></trkpt><trkpt lat="45.1878396" lon="8.2047621"><ele>139.0</ele><time>2026-04-18T10:00:37.456Z</time></trkpt><trkpt lat="45.1878783" lon="8.2045724"><ele>139.0</ele><time>2026-04-18T10:00:38.456Z</time></trkpt><trkpt lat="45.1879133" lon="8.2044169"><ele>139.0</ele><time>2026-04-18T10:00:39.456Z</time></trkpt><trkpt lat="45.1879464" lon="8.2042715"><ele>139.0</ele><time>2026-04-18T10:00:40.456Z</time></trkpt><trkpt lat="45.1879844" lon="8.2041195"><ele>139.25</ele><time>2026-04-18T10:00:41.456Z</time></trkpt><trkpt lat="45.1880391" lon="8.2039683"><ele>139.5</ele><time>2026-04-18T10:00:42.456Z</time></trkpt><trkpt lat="45.1881041" lon="8.203819"><ele>139.75</ele><time>2026-04-18T10:00:43.456Z</time></trkpt><trkpt lat="45.188171" lon="8.2036741"><ele>140.0</ele><time>2026-04-18T10:00:44.456Z</time></trkpt><trkpt lat="45.1882345" lon="8.203541"><ele>140.0</ele><time>2026-04-18T10:00:45.456Z</time></trkpt><trkpt lat="45.1882891" lon="8.2034035"><ele>140.0</ele><time>2026-04-18T10:00:46.457Z</time></trkpt><trkpt lat="45.1883369" lon="8.2032722"><ele>140.0</ele><time>2026-04-18T10:00:47.456Z</time></trkpt><trkpt lat="45.1883741" lon="8.2031187"><ele>140.0</ele><time>2026-04-18T10:00:48.457Z</time></trkpt><trkpt lat="45.18839" lon="8.2029597"><ele>140.0</ele><time>2026-04-18T10:00:49.456Z</time></trkpt><trkpt lat="45.1884006" lon="8.2027884"><ele>140.0</ele><time>2026-04-18T10:00:50.456Z</time></trkpt><trkpt lat="45.1884014" lon="8.2026148"><ele>140.0</ele><time>2026-04-18T10:00:51.456Z</time></trkpt><trkpt lat="45.1883935" lon="8.202448"><ele>140.0</ele><time>2026-04-18T10:00:52.456Z</time></trkpt><trkpt lat="45.1883891" lon="8.2022853"><ele>140.0</ele><time>2026-04-18T10:00:53.456Z</time></trkpt><trkpt lat="45.188386" lon="8.2021392"><ele>140.0</ele><time>2026-04-18T10:00:54.457Z</time></trkpt><trkpt lat="45.1883883" lon="8.2019851"><ele>140.0</ele><time>2026-04-18T10:00:55.456Z</time></trkpt><trkpt lat="45.1884131" lon="8.2018355"><ele>140.0</ele><time>2026-04-18T10:00:56.456Z</time></trkpt><trkpt lat="45.1884452" lon="8.2016804"><ele>140.0</ele><time>2026-04-18T10:00:57.456Z</time></trkpt><trkpt lat="45.1884906" lon="8.2015288"><ele>140.0</ele><time>2026-04-18T10:00:58.457Z</time></trkpt><trkpt lat="45.1885324" lon="8.2013603"><ele>140.25</ele><time>2026-04-18T10:00:59.456Z</time></trkpt><trkpt lat="45.1885806" lon="8.2011954"><ele>140.5</ele><time>2026-04-18T10:01:00.456Z</time></trkpt><trkpt lat="45.1886301" lon="8.201017"><ele>140.75</ele><time>2026-04-18T10:01:01.456Z</time></trkpt><trkpt lat="45.1886709" lon="8.2008356"><ele>141.0</ele><time>2026-04-18T10:01:02.456Z</time></trkpt><trkpt lat="45.188703" lon="8.2006618"><ele>141.0</ele><time>2026-04-18T10:01:03.456Z</time></trkpt><trkpt lat="45.1887244" lon="8.2004898"><ele>141.0</ele><time>2026-04-18T10:01:04.456Z</time></trkpt><trkpt lat="45.1887473" lon="8.2003195"><ele>141.0</ele><time>2026-04-18T10:01:05.456Z</time></trkpt><trkpt lat="45.1887694" lon="8.200152"><ele>141.0</ele><time>2026-04-18T10:01:06.457Z</time></trkpt><trkpt lat="45.1887862" lon="8.1999919"><ele>141.0</ele><time>2026-04-18T10:01:07.456Z</time></trkpt><trkpt lat="45.1887926" lon="8.1998428"><ele>141.0</ele><time>2026-04-18T10:01:08.456Z</time></trkpt><trkpt lat="45.1887944" lon="8.1997132"><ele>141.0</ele><time>2026-04-18T10:01:09.456Z</time></trkpt><trkpt lat="45.1887884" lon="8.199599"><ele>141.0</ele><time>2026-04-18T10:01:10.457Z</time></trkpt><trkpt lat="45.1887857" lon="8.1994961"><ele>141.0</ele><time>2026-04-18T10:01:11.456Z</time></trkpt><trkpt lat="45.1888017" lon="8.1993317"><ele>140.8</ele><time>2026-04-18T10:01:13.456Z</time></trkpt><trkpt lat="45.1888783" lon="8.1992115"><ele>140.6</ele><time>2026-04-18T10:01:15.456Z</time></trkpt><trkpt lat="45.188923" lon="8.1990964"><ele>140.4</ele><time>2026-04-18T10:01:17.456Z</time></trkpt><trkpt lat="45.1889428" lon="8.1989825"><ele>140.2</ele><time>2026-04-18T10:01:18.456Z</time></trkpt><trkpt lat="45.1889411" lon="8.1988528"><ele>140.0</ele><time>2026-04-18T10:01:19.457Z</time></trkpt><trkpt lat="45.1889551" lon="8.1987155"><ele>140.0</ele><time>2026-04-18T10:01:20.456Z</time></trkpt><trkpt lat="45.1889569" lon="8.1985516"><ele>140.0</ele><time>2026-04-18T10:01:21.456Z</time></trkpt><trkpt lat="45.1889566" lon="8.1983717"><ele>140.0</ele><time>2026-04-18T10:01:22.456Z</time></trkpt><trkpt lat="45.1889596" lon="8.1981936"><ele>140.0</ele><time>2026-04-18T10:01:23.456Z</time></trkpt><trkpt lat="45.1889716" lon="8.1980282"><ele>140.0</ele><time>2026-04-18T10:01:24.456Z</time></trkpt><trkpt lat="45.1889917" lon="8.1978724"><ele>140.0</ele><time>2026-04-18T10:01:25.456Z</time></trkpt><trkpt lat="45.1889987" lon="8.1977234"><ele>140.0</ele><time>2026-04-18T10:01:26.457Z</time></trkpt><trkpt lat="45.1889861" lon="8.1975698"><ele>140.0</ele><time>2026-04-18T10:01:27.456Z</time></trkpt><trkpt lat="45.1889713" lon="8.197416"><ele>140.0</ele><time>2026-04-18T10:01:28.457Z</time></trkpt><trkpt lat="45.1889382" lon="8.1972658"><ele>140.25</ele><time>2026-04-18T10:01:29.457Z</time></trkpt><trkpt lat="45.1888957" lon="8.1971009"><ele>140.5</ele><time>2026-04-18T10:01:30.456Z</time></trkpt><trkpt lat="45.1888414" lon="8.1969401"><ele>140.75</ele><time>2026-04-18T10:01:31.456Z</time></trkpt><trkpt lat="45.1888013" lon="8.1967986"><ele>141.0</ele><time>2026-04-18T10:01:32.457Z</time></trkpt><trkpt lat="45.1887557" lon="8.1966602"><ele>141.0</ele><time>2026-04-18T10:01:33.457Z</time></trkpt><trkpt lat="45.1887174" lon="8.1965324"><ele>141.0</ele><time>2026-04-18T10:01:34.456Z</time></trkpt><trkpt lat="45.1886908" lon="8.1963964"><ele>141.0</ele><time>2026-04-18T10:01:35.457Z</time></trkpt><trkpt lat="45.1886845" lon="8.1962358"><ele>141.0</ele><time>2026-04-18T10:01:36.456Z</time></trkpt><trkpt lat="45.1886829" lon="8.196031"><ele>140.66666666666666</ele><time>2026-04-18T10:01:37.457Z</time></trkpt><trkpt lat="45.188682" lon="8.1958066"><ele>140.33333333333331</ele><time>2026-04-18T10:01:38.456Z</time></trkpt><trkpt lat="45.1886902" lon="8.1955641"><ele>140.0</ele><time>2026-04-18T10:01:39.456Z</time></trkpt><trkpt lat="45.1886918" lon="8.1953339"><ele>140.0</ele><time>2026-04-18T10:01:40.456Z</time></trkpt><trkpt lat="45.1886947" lon="8.1951146"><ele>140.0</ele><time>2026-04-18T10:01:41.457Z</time></trkpt><trkpt lat="45.1886993" lon="8.1948992"><ele>140.0</ele><time>2026-04-18T10:01:42.456Z</time></trkpt><trkpt lat="45.1887005" lon="8.1946794"><ele>140.0</ele><time>2026-04-18T10:01:43.456Z</time></trkpt><trkpt lat="45.1886885" lon="8.1944424"><ele>140.0</ele><time>2026-04-18T10:01:44.457Z</time></trkpt><trkpt lat="45.1886787" lon="8.1941816"><ele>140.0</ele><time>2026-04-18T10:01:45.457Z</time></trkpt><trkpt lat="45.1886732" lon="8.1939229"><ele>140.33333333333331</ele><time>2026-04-18T10:01:46.456Z</time></trkpt><trkpt lat="45.1886633" lon="8.1936826"><ele>140.66666666666666</ele><time>2026-04-18T10:01:47.457Z</time></trkpt><trkpt lat="45.1886602" lon="8.1934587"><ele>141.0</ele><time>2026-04-18T10:01:48.456Z</time></trkpt><trkpt lat="45.188665" lon="8.1932456"><ele>141.66666666666666</ele><time>2026-04-18T10:01:49.456Z</time></trkpt><trkpt lat="45.1886685" lon="8.1930336"><ele>142.33333333333331</ele><time>2026-04-18T10:01:50.457Z</time></trkpt><trkpt lat="45.1886585" lon="8.1928144"><ele>143.0</ele><time>2026-04-18T10:01:51.456Z</time></trkpt><trkpt lat="45.188646" lon="8.192605"><ele>143.0</ele><time>2026-04-18T10:01:52.456Z</time></trkpt><trkpt lat="45.1886346" lon="8.1923991"><ele>143.0</ele><time>2026-04-18T10:01:53.456Z</time></trkpt><trkpt lat="45.1886176" lon="8.1921893"><ele>143.0</ele><time>2026-04-18T10:01:54.456Z</time></trkpt><trkpt lat="45.188601" lon="8.191984"><ele>143.0</ele><time>2026-04-18T10:01:55.456Z</time></trkpt><trkpt lat="45.1885846" lon="8.191781"><ele>142.5</ele><time>2026-04-18T10:01:56.456Z</time></trkpt><trkpt lat="45.1885713" lon="8.1915791"><ele>142.0</ele><time>2026-04-18T10:01:57.456Z</time></trkpt><trkpt lat="45.1885626" lon="8.1913867"><ele>141.5</ele><time>2026-04-18T10:01:58.456Z</time></trkpt><trkpt lat="45.1885525" lon="8.1912095"><ele>141.0</ele><time>2026-04-18T10:01:59.456Z</time></trkpt><trkpt lat="45.1885419" lon="8.1910341"><ele>141.0</ele><time>2026-04-18T10:02:00.457Z</time></trkpt><trkpt lat="45.1885376" lon="8.1908547"><ele>141.0</ele><time>2026-04-18T10:02:01.456Z</time></trkpt><trkpt lat="45.1885337" lon="8.1906876"><ele>141.0</ele><time>2026-04-18T10:02:02.456Z</time></trkpt><trkpt lat="45.1885315" lon="8.1905323"><ele>141.0</ele><time>2026-04-18T10:02:03.456Z</time></trkpt><trkpt lat="45.1885284" lon="8.1903823"><ele>141.0</ele><time>2026-04-18T10:02:04.457Z</time></trkpt><trkpt lat="45.1885227" lon="8.1902367"><ele>141.0</ele><time>2026-04-18T10:02:05.456Z</time></trkpt><trkpt lat="45.188513" lon="8.1900933"><ele>141.0</ele><time>2026-04-18T10:02:06.456Z</time></trkpt><trkpt lat="45.1885059" lon="8.1899495"><ele>141.0</ele><time>2026-04-18T10:02:07.457Z</time></trkpt><trkpt lat="45.1885029" lon="8.1898025"><ele>141.0</ele><time>2026-04-18T10:02:08.456Z</time></trkpt><trkpt lat="45.1885006" lon="8.1896615"><ele>141.16666666666666</ele><time>2026-04-18T10:02:09.456Z</time></trkpt><trkpt lat="45.1884973" lon="8.1895319"><ele>141.33333333333334</ele><time>2026-04-18T10:02:10.456Z</time></trkpt><trkpt lat="45.1884911" lon="8.1894001"><ele>141.5</ele><time>2026-04-18T10:02:11.456Z</time></trkpt><trkpt lat="45.1884841" lon="8.1892797"><ele>141.66666666666669</ele><time>2026-04-18T10:02:12.457Z</time></trkpt><trkpt lat="45.1884749" lon="8.1891742"><ele>141.83333333333334</ele><time>2026-04-18T10:02:13.456Z</time></trkpt><trkpt lat="45.1884684" lon="8.1890747"><ele>142.0</ele><time>2026-04-18T10:02:14.456Z</time></trkpt><trkpt lat="45.1884625" lon="8.188979"><ele>142.0</ele><time>2026-04-18T10:02:15.456Z</time></trkpt><trkpt lat="45.1884559" lon="8.1888792"><ele>142.0</ele><time>2026-04-18T10:02:16.456Z</time></trkpt><trkpt lat="45.1884373" lon="8.1887146"><ele>142.0</ele><time>2026-04-18T10:02:18.456Z</time></trkpt><trkpt lat="45.1884196" lon="8.1885781"><ele>142.0</ele><time>2026-04-18T10:02:20.457Z</time></trkpt><trkpt lat="45.1883927" lon="8.1884538"><ele>142.0</ele><time>2026-04-18T10:02:22.456Z</time></trkpt><trkpt lat="45.1883793" lon="8.1883451"><ele>142.0</ele><time>2026-04-18T10:02:24.456Z</time></trkpt><trkpt lat="45.1883694" lon="8.1882347"><ele>142.0</ele><time>2026-04-18T10:02:26.456Z</time></trkpt><trkpt lat="45.1883506" lon="8.1881158"><ele>142.0</ele><time>2026-04-18T10:02:28.456Z</time></trkpt><trkpt lat="45.1883346" lon="8.1879932"><ele>142.0</ele><time>2026-04-18T10:02:30.456Z</time></trkpt><trkpt lat="45.1883202" lon="8.1878459"><ele>142.0</ele><time>2026-04-18T10:02:32.457Z</time></trkpt><trkpt lat="45.1883016" lon="8.1876918"><ele>142.2</ele><time>2026-04-18T10:02:34.456Z</time></trkpt><trkpt lat="45.1882793" lon="8.1875356"><ele>142.39999999999998</ele><time>2026-04-18T10:02:36.456Z</time></trkpt><trkpt lat="45.1882577" lon="8.1873767"><ele>142.60000000000002</ele><time>2026-04-18T10:02:38.456Z</time></trkpt><trkpt lat="45.1882368" lon="8.1872137"><ele>142.8</ele><time>2026-04-18T10:02:40.456Z</time></trkpt><trkpt lat="45.1882243" lon="8.1870802"><ele>143.0</ele><time>2026-04-18T10:02:42.457Z</time></trkpt><trkpt lat="45.1882083" lon="8.1869638"><ele>143.0</ele><time>2026-04-18T10:02:44.456Z</time></trkpt><trkpt lat="45.1881915" lon="8.1868352"><ele>143.0</ele><time>2026-04-18T10:02:47.456Z</time></trkpt><trkpt lat="45.1881784" lon="8.1867171"><ele>143.0</ele><time>2026-04-18T10:02:50.456Z</time></trkpt><trkpt lat="45.1881681" lon="8.1865824"><ele>143.0</ele><time>2026-04-18T10:02:53.456Z</time></trkpt><trkpt lat="45.1881668" lon="8.1864778"><ele>143.0</ele><time>2026-04-18T10:02:55.456Z</time></trkpt><trkpt lat="45.1881818" lon="8.1863249"><ele>143.0</ele><time>2026-04-18T10:02:57.456Z</time></trkpt><trkpt lat="45.1881768" lon="8.1862171"><ele>143.0</ele><time>2026-04-18T10:02:58.456Z</time></trkpt><trkpt lat="45.1881556" lon="8.1860701"><ele>143.0</ele><time>2026-04-18T10:02:59.456Z</time></trkpt><trkpt lat="45.1881257" lon="8.1858897"><ele>143.0</ele><time>2026-04-18T10:03:00.456Z</time></trkpt><trkpt lat="45.1880817" lon="8.1856852"><ele>142.33333333333331</ele><time>2026-04-18T10:03:01.456Z</time></trkpt><trkpt lat="45.1880211" lon="8.1854608"><ele>141.66666666666666</ele><time>2026-04-18T10:03:02.456Z</time></trkpt><trkpt lat="45.1879417" lon="8.1852492"><ele>141.0</ele><time>2026-04-18T10:03:03.456Z</time></trkpt><trkpt lat="45.1878812" lon="8.1850568"><ele>141.0</ele><time>2026-04-18T10:03:04.456Z</time></trkpt><trkpt lat="45.1878291" lon="8.1848741"><ele>141.0</ele><time>2026-04-18T10:03:05.456Z</time></trkpt><trkpt lat="45.187781" lon="8.1847128"><ele>141.0</ele><time>2026-04-18T10:03:06.457Z</time></trkpt><trkpt lat="45.1877477" lon="8.184563"><ele>141.0</ele><time>2026-04-18T10:03:07.456Z</time></trkpt><trkpt lat="45.1877301" lon="8.184413"><ele>141.0</ele><time>2026-04-18T10:03:08.456Z</time></trkpt><trkpt lat="45.1877239" lon="8.1842273"><ele>141.0</ele><time>2026-04-18T10:03:09.456Z</time></trkpt><trkpt lat="45.1877232" lon="8.1840139"><ele>141.0</ele><time>2026-04-18T10:03:10.457Z</time></trkpt><trkpt lat="45.1877277" lon="8.1838074"><ele>141.0</ele><time>2026-04-18T10:03:11.456Z</time></trkpt><trkpt lat="45.1877231" lon="8.1836155"><ele>141.0</ele><time>2026-04-18T10:03:12.456Z</time></trkpt><trkpt lat="45.1877242" lon="8.1834375"><ele>141.0</ele><time>2026-04-18T10:03:13.456Z</time></trkpt><trkpt lat="45.1877167" lon="8.1832761"><ele>141.0</ele><time>2026-04-18T10:03:14.457Z</time></trkpt><trkpt lat="45.1876968" lon="8.1831097"><ele>141.0</ele><time>2026-04-18T10:03:15.457Z</time></trkpt><trkpt lat="45.1876506" lon="8.1829429"><ele>141.0</ele><time>2026-04-18T10:03:16.456Z</time></trkpt><trkpt lat="45.1875825" lon="8.182766"><ele>141.0</ele><time>2026-04-18T10:03:17.456Z</time></trkpt><trkpt lat="45.1874899" lon="8.1825772"><ele>141.0</ele><time>2026-04-18T10:03:18.456Z</time></trkpt><trkpt lat="45.1873864" lon="8.1823468"><ele>141.0</ele><time>2026-04-18T10:03:19.456Z</time></trkpt><trkpt lat="45.1872905" lon="8.1820965"><ele>141.0</ele><time>2026-04-18T10:03:20.456Z</time></trkpt><trkpt lat="45.1872023" lon="8.1818463"><ele>141.0</ele><time>2026-04-18T10:03:21.456Z</time></trkpt><trkpt lat="45.1871259" lon="8.1816102"><ele>141.0</ele><time>2026-04-18T10:03:22.456Z</time></trkpt><trkpt lat="45.1870362" lon="8.1813864"><ele>141.0</ele><time>2026-04-18T10:03:23.457Z</time></trkpt><trkpt lat="45.1869605" lon="8.1811769"><ele>141.0</ele><time>2026-04-18T10:03:24.456Z</time></trkpt><trkpt lat="45.186896" lon="8.1809792"><ele>141.0</ele><time>2026-04-18T10:03:25.456Z</time></trkpt><trkpt lat="45.1868309" lon="8.180775"><ele>141.0</ele><time>2026-04-18T10:03:26.456Z</time></trkpt><trkpt lat="45.18677" lon="8.1805593"><ele>141.0</ele><time>2026-04-18T10:03:27.456Z</time></trkpt><trkpt lat="45.1867079" lon="8.1803449"><ele>141.33333333333334</ele><time>2026-04-18T10:03:28.456Z</time></trkpt><trkpt lat="45.1866429" lon="8.1801327"><ele>141.66666666666669</ele><time>2026-04-18T10:03:29.456Z</time></trkpt><trkpt lat="45.1865747" lon="8.1799113"><ele>142.0</ele><time>2026-04-18T10:03:30.456Z</time></trkpt><trkpt lat="45.1865065" lon="8.179682"><ele>142.0</ele><time>2026-04-18T10:03:31.456Z</time></trkpt><trkpt lat="45.1864292" lon="8.1794602"><ele>142.0</ele><time>2026-04-18T10:03:32.456Z</time></trkpt><trkpt lat="45.1863328" lon="8.1792276"><ele>142.0</ele><time>2026-04-18T10:03:33.456Z</time></trkpt><trkpt lat="45.1862348" lon="8.178987"><ele>141.66666666666669</ele><time>2026-04-18T10:03:34.456Z</time></trkpt><trkpt lat="45.1861373" lon="8.1787657"><ele>141.33333333333334</ele><time>2026-04-18T10:03:35.457Z</time></trkpt><trkpt lat="45.1860395" lon="8.1785469"><ele>141.0</ele><time>2026-04-18T10:03:36.456Z</time></trkpt><trkpt lat="45.185946" lon="8.178335"><ele>141.0</ele><time>2026-04-18T10:03:37.456Z</time></trkpt><trkpt lat="45.1858491" lon="8.1781397"><ele>141.0</ele><time>2026-04-18T10:03:38.456Z</time></trkpt><trkpt lat="45.1857525" lon="8.1779493"><ele>141.0</ele><time>2026-04-18T10:03:39.457Z</time></trkpt><trkpt lat="45.1856636" lon="8.177761"><ele>141.0</ele><time>2026-04-18T10:03:40.456Z</time></trkpt><trkpt lat="45.1855828" lon="8.1775692"><ele>141.0</ele><time>2026-04-18T10:03:41.456Z</time></trkpt><trkpt lat="45.1855056" lon="8.1773738"><ele>141.0</ele><time>2026-04-18T10:03:42.456Z</time></trkpt><trkpt lat="45.1854289" lon="8.177179"><ele>141.33333333333334</ele><time>2026-04-18T10:03:43.456Z</time></trkpt><trkpt lat="45.1853523" lon="8.1769897"><ele>141.66666666666669</ele><time>2026-04-18T10:03:44.456Z</time></trkpt><trkpt lat="45.1852779" lon="8.1768002"><ele>142.0</ele><time>2026-04-18T10:03:45.456Z</time></trkpt><trkpt lat="45.1851974" lon="8.1766055"><ele>141.66666666666669</ele><time>2026-04-18T10:03:46.456Z</time></trkpt><trkpt lat="45.1851083" lon="8.1764171"><ele>141.33333333333334</ele><time>2026-04-18T10:03:47.456Z</time></trkpt><trkpt lat="45.185023" lon="8.1762326"><ele>141.0</ele><time>2026-04-18T10:03:48.456Z</time></trkpt><trkpt lat="45.1849279" lon="8.1760446"><ele>141.33333333333334</ele><time>2026-04-18T10:03:49.456Z</time></trkpt><trkpt lat="45.1848361" lon="8.1758613"><ele>141.66666666666669</ele><time>2026-04-18T10:03:50.457Z</time></trkpt><trkpt lat="45.1847485" lon="8.175677"><ele>142.0</ele><time>2026-04-18T10:03:51.456Z</time></trkpt><trkpt lat="45.184665" lon="8.1754791"><ele>142.0</ele><time>2026-04-18T10:03:52.457Z</time></trkpt><trkpt lat="45.184575" lon="8.1752769"><ele>142.0</ele><time>2026-04-18T10:03:53.456Z</time></trkpt><trkpt lat="45.1844873" lon="8.1750683"><ele>142.0</ele><time>2026-04-18T10:03:54.457Z</time></trkpt><trkpt lat="45.1844054" lon="8.1748682"><ele>141.66666666666669</ele><time>2026-04-18T10:03:55.456Z</time></trkpt><trkpt lat="45.1843265" lon="8.1746701"><ele>141.33333333333334</ele><time>2026-04-18T10:03:56.457Z</time></trkpt><trkpt lat="45.1842477" lon="8.1744786"><ele>141.0</ele><time>2026-04-18T10:03:57.456Z</time></trkpt><trkpt lat="45.1841712" lon="8.174286"><ele>141.0</ele><time>2026-04-18T10:03:58.457Z</time></trkpt><trkpt lat="45.1840923" lon="8.1741084"><ele>141.0</ele><time>2026-04-18T10:03:59.456Z</time></trkpt><trkpt lat="45.1840165" lon="8.1739284"><ele>141.0</ele><time>2026-04-18T10:04:00.456Z</time></trkpt><trkpt lat="45.1839394" lon="8.173743"><ele>141.0</ele><time>2026-04-18T10:04:01.456Z</time></trkpt><trkpt lat="45.183864" lon="8.1735579"><ele>141.66666666666666</ele><time>2026-04-18T10:04:02.456Z</time></trkpt><trkpt lat="45.1837914" lon="8.1733679"><ele>142.33333333333331</ele><time>2026-04-18T10:04:03.456Z</time></trkpt><trkpt lat="45.1837186" lon="8.1731772"><ele>143.0</ele><time>2026-04-18T10:04:04.456Z</time></trkpt><trkpt lat="45.1836445" lon="8.1729831"><ele>143.0</ele><time>2026-04-18T10:04:05.457Z</time></trkpt><trkpt lat="45.1835758" lon="8.1727969"><ele>143.0</ele><time>2026-04-18T10:04:06.456Z</time></trkpt><trkpt lat="45.1835104" lon="8.1726074"><ele>143.0</ele><time>2026-04-18T10:04:07.456Z</time></trkpt><trkpt lat="45.183445" lon="8.1724171"><ele>143.0</ele><time>2026-04-18T10:04:08.456Z</time></trkpt><trkpt lat="45.1833817" lon="8.1722531"><ele>142.8</ele><time>2026-04-18T10:04:09.456Z</time></trkpt><trkpt lat="45.1833198" lon="8.1721129"><ele>142.60000000000002</ele><time>2026-04-18T10:04:10.457Z</time></trkpt><trkpt lat="45.1832477" lon="8.1719919"><ele>142.39999999999998</ele><time>2026-04-18T10:04:11.456Z</time></trkpt><trkpt lat="45.1831701" lon="8.1718837"><ele>142.2</ele><time>2026-04-18T10:04:12.456Z</time></trkpt><trkpt lat="45.1830946" lon="8.1717868"><ele>142.0</ele><time>2026-04-18T10:04:13.456Z</time></trkpt><trkpt lat="45.1830257" lon="8.1716909"><ele>142.4</ele><time>2026-04-18T10:04:14.456Z</time></trkpt><trkpt lat="45.1829655" lon="8.1716042"><ele>142.79999999999998</ele><time>2026-04-18T10:04:15.456Z</time></trkpt><trkpt lat="45.1829113" lon="8.171504"><ele>143.2</ele><time>2026-04-18T10:04:16.457Z</time></trkpt><trkpt lat="45.1828699" lon="8.1713707"><ele>143.6</ele><time>2026-04-18T10:04:17.457Z</time></trkpt><trkpt lat="45.1828389" lon="8.1712096"><ele>144.0</ele><time>2026-04-18T10:04:18.456Z</time></trkpt><trkpt lat="45.1828208" lon="8.1710459"><ele>144.0</ele><time>2026-04-18T10:04:19.456Z</time></trkpt><trkpt lat="45.1828118" lon="8.1709079"><ele>144.0</ele><time>2026-04-18T10:04:20.456Z</time></trkpt><trkpt lat="45.182806" lon="8.170788"><ele>144.0</ele><time>2026-04-18T10:04:21.456Z</time></trkpt><trkpt lat="45.1828098" lon="8.1706909"><ele>144.0</ele><time>2026-04-18T10:04:22.456Z</time></trkpt><trkpt lat="45.1828302" lon="8.1705856"><ele>144.0</ele><time>2026-04-18T10:04:23.456Z</time></trkpt><trkpt lat="45.1828779" lon="8.1704737"><ele>144.0</ele><time>2026-04-18T10:04:24.456Z</time></trkpt><trkpt lat="45.1829546" lon="8.1703425"><ele>143.75</ele><time>2026-04-18T10:04:25.456Z</time></trkpt><trkpt lat="45.1830329" lon="8.1701933"><ele>143.5</ele><time>2026-04-18T10:04:26.456Z</time></trkpt><trkpt lat="45.1830835" lon="8.1700467"><ele>143.25</ele><time>2026-04-18T10:04:27.456Z</time></trkpt><trkpt lat="45.1831255" lon="8.1698994"><ele>143.0</ele><time>2026-04-18T10:04:28.456Z</time></trkpt><trkpt lat="45.1831652" lon="8.1697426"><ele>143.0</ele><time>2026-04-18T10:04:29.456Z</time></trkpt><trkpt lat="45.1832007" lon="8.1695783"><ele>143.0</ele><time>2026-04-18T10:04:30.456Z</time></trkpt><trkpt lat="45.1832303" lon="8.1694205"><ele>143.0</ele><time>2026-04-18T10:04:31.457Z</time></trkpt><trkpt lat="45.1832521" lon="8.1692584"><ele>143.0</ele><time>2026-04-18T10:04:32.457Z</time></trkpt><trkpt lat="45.1832609" lon="8.1690872"><ele>143.25</ele><time>2026-04-18T10:04:33.456Z</time></trkpt><trkpt lat="45.1832636" lon="8.1688973"><ele>143.5</ele><time>2026-04-18T10:04:34.456Z</time></trkpt><trkpt lat="45.1832537" lon="8.1686821"><ele>143.75</ele><time>2026-04-18T10:04:35.457Z</time></trkpt><trkpt lat="45.1832339" lon="8.1684631"><ele>144.0</ele><time>2026-04-18T10:04:36.457Z</time></trkpt><trkpt lat="45.1832138" lon="8.1682527"><ele>144.0</ele><time>2026-04-18T10:04:37.456Z</time></trkpt><trkpt lat="45.1831932" lon="8.1680617"><ele>144.0</ele><time>2026-04-18T10:04:38.456Z</time></trkpt><trkpt lat="45.1831731" lon="8.1678762"><ele>144.0</ele><time>2026-04-18T10:04:39.456Z</time></trkpt><trkpt lat="45.1831578" lon="8.1676851"><ele>144.0</ele><time>2026-04-18T10:04:40.456Z</time></trkpt><trkpt lat="45.1831494" lon="8.1675034"><ele>143.75</ele><time>2026-04-18T10:04:41.456Z</time></trkpt><trkpt lat="45.1831455" lon="8.1673117"><ele>143.5</ele><time>2026-04-18T10:04:42.456Z</time></trkpt><trkpt lat="45.1831495" lon="8.1671199"><ele>143.25</ele><time>2026-04-18T10:04:43.456Z</time></trkpt><trkpt lat="45.1831569" lon="8.1669305"><ele>143.0</ele><time>2026-04-18T10:04:44.456Z</time></trkpt><trkpt lat="45.1831612" lon="8.1667403"><ele>143.0</ele><time>2026-04-18T10:04:45.456Z</time></trkpt><trkpt lat="45.1831607" lon="8.1665488"><ele>143.0</ele><time>2026-04-18T10:04:46.456Z</time></trkpt><trkpt lat="45.1831615" lon="8.1663726"><ele>143.0</ele><time>2026-04-18T10:04:47.456Z</time></trkpt><trkpt lat="45.1831582" lon="8.1662033"><ele>143.0</ele><time>2026-04-18T10:04:48.456Z</time></trkpt><trkpt lat="45.1831246" lon="8.166031"><ele>143.0</ele><time>2026-04-18T10:04:49.456Z</time></trkpt><trkpt lat="45.1830783" lon="8.1658371"><ele>143.0</ele><time>2026-04-18T10:04:50.456Z</time></trkpt><trkpt lat="45.1830256" lon="8.1656399"><ele>143.0</ele><time>2026-04-18T10:04:51.456Z</time></trkpt><trkpt lat="45.1829733" lon="8.1654332"><ele>143.0</ele><time>2026-04-18T10:04:52.457Z</time></trkpt><trkpt lat="45.1829191" lon="8.1652286"><ele>143.25</ele><time>2026-04-18T10:04:53.456Z</time></trkpt><trkpt lat="45.182865" lon="8.1650343"><ele>143.5</ele><time>2026-04-18T10:04:54.456Z</time></trkpt><trkpt lat="45.1828094" lon="8.1648513"><ele>143.75</ele><time>2026-04-18T10:04:55.457Z</time></trkpt><trkpt lat="45.1827569" lon="8.1646754"><ele>144.0</ele><time>2026-04-18T10:04:56.456Z</time></trkpt><trkpt lat="45.1826992" lon="8.164497"><ele>144.0</ele><time>2026-04-18T10:04:57.457Z</time></trkpt><trkpt lat="45.182649" lon="8.16432"><ele>144.0</ele><time>2026-04-18T10:04:58.456Z</time></trkpt><trkpt lat="45.1826111" lon="8.1641447"><ele>144.0</ele><time>2026-04-18T10:04:59.457Z</time></trkpt><trkpt lat="45.1825821" lon="8.163972"><ele>144.0</ele><time>2026-04-18T10:05:00.456Z</time></trkpt><trkpt lat="45.1825487" lon="8.1637948"><ele>144.0</ele><time>2026-04-18T10:05:01.456Z</time></trkpt><trkpt lat="45.1825158" lon="8.1636057"><ele>144.0</ele><time>2026-04-18T10:05:02.456Z</time></trkpt><trkpt lat="45.1824851" lon="8.1634031"><ele>144.0</ele><time>2026-04-18T10:05:03.456Z</time></trkpt><trkpt lat="45.1824533" lon="8.1632015"><ele>144.0</ele><time>2026-04-18T10:05:04.456Z</time></trkpt><trkpt lat="45.1824205" lon="8.1630011"><ele>144.0</ele><time>2026-04-18T10:05:05.456Z</time></trkpt><trkpt lat="45.1823833" lon="8.1628021"><ele>144.0</ele><time>2026-04-18T10:05:06.457Z</time></trkpt><trkpt lat="45.182341" lon="8.1625952"><ele>144.0</ele><time>2026-04-18T10:05:07.456Z</time></trkpt><trkpt lat="45.1822949" lon="8.1624055"><ele>144.0</ele><time>2026-04-18T10:05:08.456Z</time></trkpt><trkpt lat="45.1822577" lon="8.1622195"><ele>144.0</ele><time>2026-04-18T10:05:09.457Z</time></trkpt><trkpt lat="45.1822157" lon="8.1620457"><ele>144.0</ele><time>2026-04-18T10:05:10.456Z</time></trkpt><trkpt lat="45.182166" lon="8.1618788"><ele>144.0</ele><time>2026-04-18T10:05:11.457Z</time></trkpt><trkpt lat="45.1821155" lon="8.1617174"><ele>144.0</ele><time>2026-04-18T10:05:12.457Z</time></trkpt><trkpt lat="45.1820599" lon="8.1615521"><ele>143.75</ele><time>2026-04-18T10:05:13.456Z</time></trkpt><trkpt lat="45.182021" lon="8.1613909"><ele>143.5</ele><time>2026-04-18T10:05:14.456Z</time></trkpt><trkpt lat="45.1819995" lon="8.1612155"><ele>143.25</ele><time>2026-04-18T10:05:15.457Z</time></trkpt><trkpt lat="45.1819893" lon="8.1610454"><ele>143.0</ele><time>2026-04-18T10:05:16.457Z</time></trkpt><trkpt lat="45.1819782" lon="8.1608561"><ele>143.0</ele><time>2026-04-18T10:05:17.456Z</time></trkpt><trkpt lat="45.1819686" lon="8.1606667"><ele>143.0</ele><time>2026-04-18T10:05:18.456Z</time></trkpt><trkpt lat="45.1819569" lon="8.1604787"><ele>143.0</ele><time>2026-04-18T10:05:19.456Z</time></trkpt><trkpt lat="45.1819344" lon="8.1602965"><ele>143.0</ele><time>2026-04-18T10:05:20.456Z</time></trkpt><trkpt lat="45.1819075" lon="8.16011"><ele>143.0</ele><time>2026-04-18T10:05:21.456Z</time></trkpt><trkpt lat="45.1818867" lon="8.1599106"><ele>143.0</ele><time>2026-04-18T10:05:22.456Z</time></trkpt><trkpt lat="45.1818783" lon="8.1597283"><ele>143.0</ele><time>2026-04-18T10:05:23.456Z</time></trkpt><trkpt lat="45.1818633" lon="8.1595617"><ele>143.0</ele><time>2026-04-18T10:05:24.457Z</time></trkpt><trkpt lat="45.181847" lon="8.1593921"><ele>143.0</ele><time>2026-04-18T10:05:25.456Z</time></trkpt><trkpt lat="45.1818259" lon="8.1592308"><ele>143.0</ele><time>2026-04-18T10:05:26.456Z</time></trkpt><trkpt lat="45.181809" lon="8.1590724"><ele>143.0</ele><time>2026-04-18T10:05:27.456Z</time></trkpt><trkpt lat="45.1817928" lon="8.1589171"><ele>143.0</ele><time>2026-04-18T10:05:28.456Z</time></trkpt><trkpt lat="45.1817865" lon="8.1587658"><ele>143.0</ele><time>2026-04-18T10:05:29.457Z</time></trkpt><trkpt lat="45.1817866" lon="8.1586046"><ele>143.0</ele><time>2026-04-18T10:05:30.456Z</time></trkpt><trkpt lat="45.1817902" lon="8.1584434"><ele>143.0</ele><time>2026-04-18T10:05:31.456Z</time></trkpt><trkpt lat="45.1817884" lon="8.1582731"><ele>143.0</ele><time>2026-04-18T10:05:32.457Z</time></trkpt><trkpt lat="45.1817825" lon="8.1581088"><ele>143.0</ele><time>2026-04-18T10:05:33.456Z</time></trkpt><trkpt lat="45.1817694" lon="8.1579348"><ele>143.0</ele><time>2026-04-18T10:05:34.456Z</time></trkpt><trkpt lat="45.1817516" lon="8.1577576"><ele>143.0</ele><time>2026-04-18T10:05:35.456Z</time></trkpt><trkpt lat="45.1817353" lon="8.1575851"><ele>143.0</ele><time>2026-04-18T10:05:36.456Z</time></trkpt><trkpt lat="45.1817185" lon="8.1574138"><ele>143.0</ele><time>2026-04-18T10:05:37.456Z</time></trkpt><trkpt lat="45.1816925" lon="8.1572441"><ele>143.5</ele><time>2026-04-18T10:05:38.456Z</time></trkpt><trkpt lat="45.1816749" lon="8.1570743"><ele>144.0</ele><time>2026-04-18T10:05:39.456Z</time></trkpt><trkpt lat="45.1816591" lon="8.1569014"><ele>144.5</ele><time>2026-04-18T10:05:40.456Z</time></trkpt><trkpt lat="45.1816521" lon="8.1567261"><ele>145.0</ele><time>2026-04-18T10:05:41.457Z</time></trkpt><trkpt lat="45.1816428" lon="8.156559"><ele>144.75</ele><time>2026-04-18T10:05:42.456Z</time></trkpt><trkpt lat="45.1816342" lon="8.1563889"><ele>144.5</ele><time>2026-04-18T10:05:43.456Z</time></trkpt><trkpt lat="45.1816404" lon="8.156226"><ele>144.25</ele><time>2026-04-18T10:05:44.456Z</time></trkpt><trkpt lat="45.1816638" lon="8.1560722"><ele>144.0</ele><time>2026-04-18T10:05:45.457Z</time></trkpt><trkpt lat="45.1817019" lon="8.1559063"><ele>144.0</ele><time>2026-04-18T10:05:46.457Z</time></trkpt><trkpt lat="45.1817432" lon="8.1557384"><ele>144.0</ele><time>2026-04-18T10:05:47.456Z</time></trkpt><trkpt lat="45.1817755" lon="8.1555542"><ele>144.0</ele><time>2026-04-18T10:05:48.457Z</time></trkpt><trkpt lat="45.1818157" lon="8.1553664"><ele>144.0</ele><time>2026-04-18T10:05:49.456Z</time></trkpt><trkpt lat="45.1818715" lon="8.1551653"><ele>144.33333333333334</ele><time>2026-04-18T10:05:50.456Z</time></trkpt><trkpt lat="45.1819441" lon="8.1549517"><ele>144.66666666666669</ele><time>2026-04-18T10:05:51.456Z</time></trkpt><trkpt lat="45.1820134" lon="8.1547269"><ele>145.0</ele><time>2026-04-18T10:05:52.456Z</time></trkpt><trkpt lat="45.182087" lon="8.1544836"><ele>145.0</ele><time>2026-04-18T10:05:53.456Z</time></trkpt><trkpt lat="45.1821667" lon="8.1542332"><ele>145.0</ele><time>2026-04-18T10:05:54.456Z</time></trkpt><trkpt lat="45.1822475" lon="8.1539737"><ele>145.0</ele><time>2026-04-18T10:05:55.456Z</time></trkpt><trkpt lat="45.1823269" lon="8.1537059"><ele>145.0</ele><time>2026-04-18T10:05:56.457Z</time></trkpt><trkpt lat="45.182406" lon="8.1534264"><ele>145.0</ele><time>2026-04-18T10:05:57.456Z</time></trkpt><trkpt lat="45.1824883" lon="8.1531457"><ele>145.0</ele><time>2026-04-18T10:05:58.457Z</time></trkpt><trkpt lat="45.1825643" lon="8.1528629"><ele>145.0</ele><time>2026-04-18T10:05:59.456Z</time></trkpt><trkpt lat="45.1826438" lon="8.1525725"><ele>145.0</ele><time>2026-04-18T10:06:00.457Z</time></trkpt><trkpt lat="45.1827218" lon="8.1522845"><ele>145.0</ele><time>2026-04-18T10:06:01.457Z</time></trkpt><trkpt lat="45.1827918" lon="8.1519897"><ele>145.0</ele><time>2026-04-18T10:06:02.455Z</time></trkpt><trkpt lat="45.182857" lon="8.151692"><ele>145.0</ele><time>2026-04-18T10:06:03.455Z</time></trkpt><trkpt lat="45.1829176" lon="8.1513837"><ele>145.0</ele><time>2026-04-18T10:06:04.456Z</time></trkpt><trkpt lat="45.1829749" lon="8.1510732"><ele>145.0</ele><time>2026-04-18T10:06:05.456Z</time></trkpt><trkpt lat="45.1830262" lon="8.1507678"><ele>145.0</ele><time>2026-04-18T10:06:06.455Z</time></trkpt><trkpt lat="45.1830818" lon="8.1504656"><ele>145.0</ele><time>2026-04-18T10:06:07.456Z</time></trkpt><trkpt lat="45.1831401" lon="8.1501658"><ele>145.33333333333334</ele><time>2026-04-18T10:06:08.455Z</time></trkpt><trkpt lat="45.1832066" lon="8.1498605"><ele>145.66666666666666</ele><time>2026-04-18T10:06:09.456Z</time></trkpt><trkpt lat="45.1832685" lon="8.149558"><ele>146.0</ele><time>2026-04-18T10:06:10.455Z</time></trkpt><trkpt lat="45.1833334" lon="8.1492501"><ele>146.0</ele><time>2026-04-18T10:06:11.456Z</time></trkpt><trkpt lat="45.1833988" lon="8.1489378"><ele>146.0</ele><time>2026-04-18T10:06:12.455Z</time></trkpt><trkpt lat="45.1834688" lon="8.1486292"><ele>146.0</ele><time>2026-04-18T10:06:13.455Z</time></trkpt><trkpt lat="45.1835393" lon="8.1483072"><ele>146.0</ele><time>2026-04-18T10:06:14.455Z</time></trkpt><trkpt lat="45.1836121" lon="8.1479923"><ele>146.0</ele><time>2026-04-18T10:06:15.455Z</time></trkpt><trkpt lat="45.1836824" lon="8.1476753"><ele>146.0</ele><time>2026-04-18T10:06:16.456Z</time></trkpt><trkpt lat="45.1837483" lon="8.1473607"><ele>146.0</ele><time>2026-04-18T10:06:17.455Z</time></trkpt><trkpt lat="45.1838195" lon="8.1470401"><ele>146.0</ele><time>2026-04-18T10:06:18.456Z</time></trkpt><trkpt lat="45.1838925" lon="8.1467218"><ele>146.0</ele><time>2026-04-18T10:06:19.455Z</time></trkpt><trkpt lat="45.183961" lon="8.1464042"><ele>146.0</ele><time>2026-04-18T10:06:20.455Z</time></trkpt><trkpt lat="45.1840371" lon="8.1460956"><ele>146.0</ele><time>2026-04-18T10:06:21.455Z</time></trkpt><trkpt lat="45.184108" lon="8.1457964"><ele>146.0</ele><time>2026-04-18T10:06:22.455Z</time></trkpt><trkpt lat="45.1841753" lon="8.145507"><ele>146.0</ele><time>2026-04-18T10:06:23.455Z</time></trkpt><trkpt lat="45.1842375" lon="8.1452193"><ele>146.33333333333331</ele><time>2026-04-18T10:06:24.456Z</time></trkpt><trkpt lat="45.1842979" lon="8.1449438"><ele>146.66666666666666</ele><time>2026-04-18T10:06:25.455Z</time></trkpt><trkpt lat="45.1843598" lon="8.144671"><ele>147.0</ele><time>2026-04-18T10:06:26.456Z</time></trkpt><trkpt lat="45.184423" lon="8.1443972"><ele>147.0</ele><time>2026-04-18T10:06:27.455Z</time></trkpt><trkpt lat="45.1844871" lon="8.1441227"><ele>147.0</ele><time>2026-04-18T10:06:28.456Z</time></trkpt><trkpt lat="45.1845447" lon="8.1438619"><ele>147.0</ele><time>2026-04-18T10:06:29.455Z</time></trkpt><trkpt lat="45.1845989" lon="8.1436024"><ele>147.0</ele><time>2026-04-18T10:06:30.456Z</time></trkpt><trkpt lat="45.1846582" lon="8.1433473"><ele>147.0</ele><time>2026-04-18T10:06:31.455Z</time></trkpt><trkpt lat="45.184711" lon="8.1431026"><ele>147.0</ele><time>2026-04-18T10:06:32.455Z</time></trkpt><trkpt lat="45.1847565" lon="8.1428711"><ele>147.0</ele><time>2026-04-18T10:06:33.455Z</time></trkpt><trkpt lat="45.1848066" lon="8.1426463"><ele>147.0</ele><time>2026-04-18T10:06:34.455Z</time></trkpt><trkpt lat="45.1848575" lon="8.1424152"><ele>147.0</ele><time>2026-04-18T10:06:35.456Z</time></trkpt><trkpt lat="45.1849155" lon="8.1421781"><ele>147.0</ele><time>2026-04-18T10:06:36.455Z</time></trkpt><trkpt lat="45.1849742" lon="8.1419362"><ele>147.0</ele><time>2026-04-18T10:06:37.455Z</time></trkpt><trkpt lat="45.1850285" lon="8.1416941"><ele>147.0</ele><time>2026-04-18T10:06:38.455Z</time></trkpt><trkpt lat="45.1850858" lon="8.1414529"><ele>147.0</ele><time>2026-04-18T10:06:39.455Z</time></trkpt><trkpt lat="45.1851456" lon="8.1412108"><ele>147.0</ele><time>2026-04-18T10:06:40.456Z</time></trkpt><trkpt lat="45.1851985" lon="8.1409643"><ele>147.0</ele><time>2026-04-18T10:06:41.455Z</time></trkpt><trkpt lat="45.1852557" lon="8.1407201"><ele>146.66666666666666</ele><time>2026-04-18T10:06:42.455Z</time></trkpt><trkpt lat="45.185316" lon="8.1404799"><ele>146.33333333333331</ele><time>2026-04-18T10:06:43.455Z</time></trkpt><trkpt lat="45.1853755" lon="8.1402448"><ele>146.0</ele><time>2026-04-18T10:06:44.455Z</time></trkpt><trkpt lat="45.1854316" lon="8.1400069"><ele>145.66666666666666</ele><time>2026-04-18T10:06:45.455Z</time></trkpt><trkpt lat="45.185487" lon="8.1397703"><ele>145.33333333333334</ele><time>2026-04-18T10:06:46.455Z</time></trkpt><trkpt lat="45.1855364" lon="8.1395484"><ele>145.0</ele><time>2026-04-18T10:06:47.455Z</time></trkpt><trkpt lat="45.1855771" lon="8.1393459"><ele>145.0</ele><time>2026-04-18T10:06:48.456Z</time></trkpt><trkpt lat="45.1856141" lon="8.1391564"><ele>145.0</ele><time>2026-04-18T10:06:49.455Z</time></trkpt><trkpt lat="45.1856455" lon="8.1389703"><ele>145.0</ele><time>2026-04-18T10:06:50.455Z</time></trkpt><trkpt lat="45.1856661" lon="8.1387797"><ele>145.0</ele><time>2026-04-18T10:06:51.455Z</time></trkpt><trkpt lat="45.1856871" lon="8.1385756"><ele>145.0</ele><time>2026-04-18T10:06:52.456Z</time></trkpt><trkpt lat="45.1857033" lon="8.1383635"><ele>145.0</ele><time>2026-04-18T10:06:53.456Z</time></trkpt><trkpt lat="45.1857107" lon="8.1381387"><ele>145.0</ele><time>2026-04-18T10:06:54.455Z</time></trkpt><trkpt lat="45.1857061" lon="8.1378947"><ele>145.0</ele><time>2026-04-18T10:06:55.455Z</time></trkpt><trkpt lat="45.1856881" lon="8.1376245"><ele>145.0</ele><time>2026-04-18T10:06:56.455Z</time></trkpt><trkpt lat="45.1856604" lon="8.1373404"><ele>145.0</ele><time>2026-04-18T10:06:57.456Z</time></trkpt><trkpt lat="45.1856333" lon="8.1370613"><ele>145.33333333333334</ele><time>2026-04-18T10:06:58.455Z</time></trkpt><trkpt lat="45.1856097" lon="8.1368134"><ele>145.66666666666666</ele><time>2026-04-18T10:06:59.455Z</time></trkpt><trkpt lat="45.1855836" lon="8.1365727"><ele>146.0</ele><time>2026-04-18T10:07:00.456Z</time></trkpt><trkpt lat="45.1855535" lon="8.136343"><ele>146.33333333333331</ele><time>2026-04-18T10:07:01.455Z</time></trkpt><trkpt lat="45.1855284" lon="8.136113"><ele>146.66666666666666</ele><time>2026-04-18T10:07:02.455Z</time></trkpt><trkpt lat="45.185505" lon="8.1358822"><ele>147.0</ele><time>2026-04-18T10:07:03.455Z</time></trkpt><trkpt lat="45.1854824" lon="8.1356498"><ele>147.33333333333334</ele><time>2026-04-18T10:07:04.455Z</time></trkpt><trkpt lat="45.1854593" lon="8.1354156"><ele>147.66666666666669</ele><time>2026-04-18T10:07:05.456Z</time></trkpt><trkpt lat="45.1854369" lon="8.1351851"><ele>148.0</ele><time>2026-04-18T10:07:06.455Z</time></trkpt><trkpt lat="45.1854145" lon="8.1349587"><ele>148.0</ele><time>2026-04-18T10:07:07.455Z</time></trkpt><trkpt lat="45.1853953" lon="8.1347392"><ele>148.0</ele><time>2026-04-18T10:07:08.456Z</time></trkpt><trkpt lat="45.185377" lon="8.1345347"><ele>148.0</ele><time>2026-04-18T10:07:09.456Z</time></trkpt><trkpt lat="45.185361" lon="8.1343297"><ele>148.0</ele><time>2026-04-18T10:07:10.455Z</time></trkpt><trkpt lat="45.1853441" lon="8.1341285"><ele>148.0</ele><time>2026-04-18T10:07:11.455Z</time></trkpt><trkpt lat="45.1853329" lon="8.1339326"><ele>148.0</ele><time>2026-04-18T10:07:12.456Z</time></trkpt><trkpt lat="45.1853296" lon="8.1337361"><ele>148.0</ele><time>2026-04-18T10:07:13.456Z</time></trkpt><trkpt lat="45.1853318" lon="8.1335302"><ele>148.0</ele><time>2026-04-18T10:07:14.455Z</time></trkpt><trkpt lat="45.1853452" lon="8.1333129"><ele>147.75</ele><time>2026-04-18T10:07:15.456Z</time></trkpt><trkpt lat="45.1853663" lon="8.1331182"><ele>147.5</ele><time>2026-04-18T10:07:16.455Z</time></trkpt><trkpt lat="45.1853949" lon="8.1329235"><ele>147.25</ele><time>2026-04-18T10:07:17.455Z</time></trkpt><trkpt lat="45.185422" lon="8.1327439"><ele>147.0</ele><time>2026-04-18T10:07:18.455Z</time></trkpt><trkpt lat="45.1854453" lon="8.1325792"><ele>147.0</ele><time>2026-04-18T10:07:19.455Z</time></trkpt><trkpt lat="45.1854672" lon="8.1324264"><ele>147.0</ele><time>2026-04-18T10:07:20.455Z</time></trkpt><trkpt lat="45.185488" lon="8.1322792"><ele>147.0</ele><time>2026-04-18T10:07:21.455Z</time></trkpt><trkpt lat="45.1855022" lon="8.1321384"><ele>147.0</ele><time>2026-04-18T10:07:22.455Z</time></trkpt><trkpt lat="45.1855174" lon="8.1320118"><ele>147.0</ele><time>2026-04-18T10:07:23.455Z</time></trkpt><trkpt lat="45.1855271" lon="8.1318882"><ele>147.0</ele><time>2026-04-18T10:07:24.455Z</time></trkpt><trkpt lat="45.1855394" lon="8.131778"><ele>147.0</ele><time>2026-04-18T10:07:25.455Z</time></trkpt><trkpt lat="45.185552" lon="8.1316766"><ele>147.0</ele><time>2026-04-18T10:07:26.455Z</time></trkpt><trkpt lat="45.1855763" lon="8.1315852"><ele>147.0</ele><time>2026-04-18T10:07:27.455Z</time></trkpt><trkpt lat="45.1856241" lon="8.1315032"><ele>147.0</ele><time>2026-04-18T10:07:28.455Z</time></trkpt><trkpt lat="45.185691" lon="8.1314221"><ele>147.0</ele><time>2026-04-18T10:07:29.455Z</time></trkpt><trkpt lat="45.1857753" lon="8.1313389"><ele>146.75</ele><time>2026-04-18T10:07:30.456Z</time></trkpt><trkpt lat="45.1858642" lon="8.1312378"><ele>146.5</ele><time>2026-04-18T10:07:31.456Z</time></trkpt><trkpt lat="45.1859606" lon="8.1311242"><ele>146.25</ele><time>2026-04-18T10:07:32.455Z</time></trkpt><trkpt lat="45.1860614" lon="8.1310001"><ele>146.0</ele><time>2026-04-18T10:07:33.455Z</time></trkpt><trkpt lat="45.1861594" lon="8.1308595"><ele>146.0</ele><time>2026-04-18T10:07:34.456Z</time></trkpt><trkpt lat="45.1862632" lon="8.1306989"><ele>146.0</ele><time>2026-04-18T10:07:35.455Z</time></trkpt><trkpt lat="45.1863737" lon="8.130503"><ele>146.0</ele><time>2026-04-18T10:07:36.455Z</time></trkpt><trkpt lat="45.1864711" lon="8.1303132"><ele>146.0</ele><time>2026-04-18T10:07:37.455Z</time></trkpt><trkpt lat="45.186551" lon="8.1301533"><ele>146.0</ele><time>2026-04-18T10:07:38.455Z</time></trkpt><trkpt lat="45.1866199" lon="8.1300103"><ele>146.0</ele><time>2026-04-18T10:07:39.455Z</time></trkpt><trkpt lat="45.1866921" lon="8.1298606"><ele>146.0</ele><time>2026-04-18T10:07:40.456Z</time></trkpt><trkpt lat="45.1867637" lon="8.1296913"><ele>146.0</ele><time>2026-04-18T10:07:41.456Z</time></trkpt><trkpt lat="45.1868273" lon="8.1295081"><ele>146.0</ele><time>2026-04-18T10:07:42.455Z</time></trkpt><trkpt lat="45.1868818" lon="8.1293246"><ele>146.0</ele><time>2026-04-18T10:07:43.455Z</time></trkpt><trkpt lat="45.1869277" lon="8.1291534"><ele>146.0</ele><time>2026-04-18T10:07:44.455Z</time></trkpt><trkpt lat="45.1869675" lon="8.1289921"><ele>146.25</ele><time>2026-04-18T10:07:45.455Z</time></trkpt><trkpt lat="45.1870039" lon="8.1288358"><ele>146.5</ele><time>2026-04-18T10:07:46.455Z</time></trkpt><trkpt lat="45.1870342" lon="8.1286705"><ele>146.75</ele><time>2026-04-18T10:07:47.455Z</time></trkpt><trkpt lat="45.1870522" lon="8.128491"><ele>147.0</ele><time>2026-04-18T10:07:48.456Z</time></trkpt><trkpt lat="45.187057" lon="8.1283042"><ele>147.0</ele><time>2026-04-18T10:07:49.456Z</time></trkpt><trkpt lat="45.1870571" lon="8.1281081"><ele>147.0</ele><time>2026-04-18T10:07:50.455Z</time></trkpt><trkpt lat="45.1870585" lon="8.127899"><ele>147.0</ele><time>2026-04-18T10:07:51.455Z</time></trkpt><trkpt lat="45.1870553" lon="8.1276777"><ele>147.0</ele><time>2026-04-18T10:07:52.455Z</time></trkpt><trkpt lat="45.1870465" lon="8.1274629"><ele>147.0</ele><time>2026-04-18T10:07:53.455Z</time></trkpt><trkpt lat="45.1870301" lon="8.1272601"><ele>147.0</ele><time>2026-04-18T10:07:54.455Z</time></trkpt><trkpt lat="45.1869944" lon="8.1270496"><ele>147.0</ele><time>2026-04-18T10:07:55.455Z</time></trkpt><trkpt lat="45.1869367" lon="8.1268111"><ele>147.0</ele><time>2026-04-18T10:07:56.455Z</time></trkpt><trkpt lat="45.1868755" lon="8.126594"><ele>147.0</ele><time>2026-04-18T10:07:57.455Z</time></trkpt><trkpt lat="45.1868247" lon="8.1263979"><ele>147.0</ele><time>2026-04-18T10:07:58.455Z</time></trkpt><trkpt lat="45.186776" lon="8.1262086"><ele>147.0</ele><time>2026-04-18T10:07:59.456Z</time></trkpt><trkpt lat="45.1867334" lon="8.1260325"><ele>147.0</ele><time>2026-04-18T10:08:00.455Z</time></trkpt><trkpt lat="45.1866954" lon="8.1258446"><ele>147.0</ele><time>2026-04-18T10:08:01.455Z</time></trkpt><trkpt lat="45.186669" lon="8.1256438"><ele>147.0</ele><time>2026-04-18T10:08:02.456Z</time></trkpt><trkpt lat="45.1866506" lon="8.1254447"><ele>147.25</ele><time>2026-04-18T10:08:03.456Z</time></trkpt><trkpt lat="45.1866384" lon="8.1252477"><ele>147.5</ele><time>2026-04-18T10:08:04.455Z</time></trkpt><trkpt lat="45.1866397" lon="8.125051"><ele>147.75</ele><time>2026-04-18T10:08:05.455Z</time></trkpt><trkpt lat="45.1866476" lon="8.1248574"><ele>148.0</ele><time>2026-04-18T10:08:06.455Z</time></trkpt><trkpt lat="45.186667" lon="8.1246779"><ele>148.25</ele><time>2026-04-18T10:08:07.455Z</time></trkpt><trkpt lat="45.1866906" lon="8.1245004"><ele>148.5</ele><time>2026-04-18T10:08:08.456Z</time></trkpt><trkpt lat="45.1867279" lon="8.1243237"><ele>148.75</ele><time>2026-04-18T10:08:09.455Z</time></trkpt><trkpt lat="45.1867732" lon="8.12414"><ele>149.0</ele><time>2026-04-18T10:08:10.456Z</time></trkpt><trkpt lat="45.1868322" lon="8.1239697"><ele>149.66666666666666</ele><time>2026-04-18T10:08:11.456Z</time></trkpt><trkpt lat="45.18691" lon="8.1237604"><ele>150.33333333333334</ele><time>2026-04-18T10:08:12.455Z</time></trkpt><trkpt lat="45.1870129" lon="8.1235261"><ele>151.0</ele><time>2026-04-18T10:08:13.455Z</time></trkpt><trkpt lat="45.1871311" lon="8.123287"><ele>151.66666666666669</ele><time>2026-04-18T10:08:14.455Z</time></trkpt><trkpt lat="45.187246" lon="8.1230601"><ele>152.33333333333334</ele><time>2026-04-18T10:08:15.455Z</time></trkpt><trkpt lat="45.1873434" lon="8.1228709"><ele>153.0</ele><time>2026-04-18T10:08:16.455Z</time></trkpt><trkpt lat="45.1874308" lon="8.1227049"><ele>152.75</ele><time>2026-04-18T10:08:17.455Z</time></trkpt><trkpt lat="45.1875154" lon="8.1225403"><ele>152.5</ele><time>2026-04-18T10:08:18.455Z</time></trkpt><trkpt lat="45.1875966" lon="8.1223766"><ele>152.25</ele><time>2026-04-18T10:08:19.455Z</time></trkpt><trkpt lat="45.1876756" lon="8.1222125"><ele>152.0</ele><time>2026-04-18T10:08:20.456Z</time></trkpt><trkpt lat="45.1877531" lon="8.1220454"><ele>152.0</ele><time>2026-04-18T10:08:21.456Z</time></trkpt><trkpt lat="45.1878261" lon="8.1218691"><ele>152.0</ele><time>2026-04-18T10:08:22.456Z</time></trkpt><trkpt lat="45.1878933" lon="8.1216853"><ele>152.0</ele><time>2026-04-18T10:08:23.455Z</time></trkpt><trkpt lat="45.1879602" lon="8.1214962"><ele>152.0</ele><time>2026-04-18T10:08:24.455Z</time></trkpt><trkpt lat="45.1880283" lon="8.1213179"><ele>151.5</ele><time>2026-04-18T10:08:25.456Z</time></trkpt><trkpt lat="45.1880884" lon="8.1211534"><ele>151.0</ele><time>2026-04-18T10:08:26.455Z</time></trkpt><trkpt lat="45.1881413" lon="8.1209968"><ele>150.5</ele><time>2026-04-18T10:08:27.456Z</time></trkpt><trkpt lat="45.188191" lon="8.120843"><ele>150.0</ele><time>2026-04-18T10:08:28.456Z</time></trkpt><trkpt lat="45.1882374" lon="8.1206932"><ele>150.0</ele><time>2026-04-18T10:08:29.456Z</time></trkpt><trkpt lat="45.1882851" lon="8.1205419"><ele>150.0</ele><time>2026-04-18T10:08:30.456Z</time></trkpt><trkpt lat="45.1883302" lon="8.120388"><ele>150.0</ele><time>2026-04-18T10:08:31.455Z</time></trkpt><trkpt lat="45.1883655" lon="8.1202476"><ele>150.0</ele><time>2026-04-18T10:08:32.455Z</time></trkpt><trkpt lat="45.1884109" lon="8.1201117"><ele>150.0</ele><time>2026-04-18T10:08:33.455Z</time></trkpt><trkpt lat="45.1884484" lon="8.1199964"><ele>149.83333333333334</ele><time>2026-04-18T10:08:34.455Z</time></trkpt><trkpt lat="45.1884772" lon="8.1198859"><ele>149.66666666666666</ele><time>2026-04-18T10:08:35.455Z</time></trkpt><trkpt lat="45.1885052" lon="8.1197824"><ele>149.5</ele><time>2026-04-18T10:08:36.455Z</time></trkpt><trkpt lat="45.1885275" lon="8.1196877"><ele>149.33333333333331</ele><time>2026-04-18T10:08:37.455Z</time></trkpt><trkpt lat="45.1885442" lon="8.1195936"><ele>149.16666666666666</ele><time>2026-04-18T10:08:38.455Z</time></trkpt><trkpt lat="45.1886069" lon="8.1194685"><ele>149.0</ele><time>2026-04-18T10:08:40.456Z</time></trkpt><trkpt lat="45.1887332" lon="8.1194788"><ele>149.0</ele><time>2026-04-18T10:08:42.456Z</time></trkpt><trkpt lat="45.1888195" lon="8.1194846"><ele>149.0</ele><time>2026-04-18T10:08:43.455Z</time></trkpt><trkpt lat="45.1889137" lon="8.1194931"><ele>149.0</ele><time>2026-04-18T10:08:44.455Z</time></trkpt><trkpt lat="45.1890017" lon="8.1194789"><ele>149.0</ele><time>2026-04-18T10:08:45.455Z</time></trkpt><trkpt lat="45.1890793" lon="8.1194766"><ele>149.0</ele><time>2026-04-18T10:08:46.455Z</time></trkpt><trkpt lat="45.1891534" lon="8.1194929"><ele>149.0</ele><time>2026-04-18T10:08:47.455Z</time></trkpt><trkpt lat="45.1892306" lon="8.1195227"><ele>149.16666666666666</ele><time>2026-04-18T10:08:48.456Z</time></trkpt><trkpt lat="45.1892951" lon="8.1195462"><ele>149.33333333333331</ele><time>2026-04-18T10:08:49.455Z</time></trkpt><trkpt lat="45.1894199" lon="8.1194849"><ele>149.5</ele><time>2026-04-18T10:08:51.455Z</time></trkpt><trkpt lat="45.1894671" lon="8.1194175"><ele>149.66666666666666</ele><time>2026-04-18T10:08:52.456Z</time></trkpt><trkpt lat="45.1894888" lon="8.1193226"><ele>149.83333333333334</ele><time>2026-04-18T10:08:53.455Z</time></trkpt><trkpt lat="45.1894813" lon="8.1192292"><ele>150.0</ele><time>2026-04-18T10:08:54.455Z</time></trkpt><trkpt lat="45.1894557" lon="8.1191447"><ele>150.2</ele><time>2026-04-18T10:08:55.455Z</time></trkpt><trkpt lat="45.1894044" lon="8.1190628"><ele>150.4</ele><time>2026-04-18T10:08:56.455Z</time></trkpt><trkpt lat="45.1893308" lon="8.1189851"><ele>150.6</ele><time>2026-04-18T10:08:57.455Z</time></trkpt><trkpt lat="45.189259" lon="8.1188885"><ele>150.8</ele><time>2026-04-18T10:08:58.456Z</time></trkpt><trkpt lat="45.1891992" lon="8.1187663"><ele>151.0</ele><time>2026-04-18T10:08:59.455Z</time></trkpt><trkpt lat="45.1891459" lon="8.1185984"><ele>151.0</ele><time>2026-04-18T10:09:00.455Z</time></trkpt><trkpt lat="45.189091" lon="8.1184007"><ele>151.0</ele><time>2026-04-18T10:09:01.455Z</time></trkpt><trkpt lat="45.1890299" lon="8.118202"><ele>151.0</ele><time>2026-04-18T10:09:02.456Z</time></trkpt><trkpt lat="45.188961" lon="8.1179717"><ele>150.66666666666669</ele><time>2026-04-18T10:09:03.456Z</time></trkpt><trkpt lat="45.188898" lon="8.1177187"><ele>150.33333333333334</ele><time>2026-04-18T10:09:04.455Z</time></trkpt><trkpt lat="45.1888228" lon="8.117437"><ele>150.0</ele><time>2026-04-18T10:09:05.455Z</time></trkpt><trkpt lat="45.1887458" lon="8.1171408"><ele>150.0</ele><time>2026-04-18T10:09:06.455Z</time></trkpt><trkpt lat="45.1886708" lon="8.1168377"><ele>150.0</ele><time>2026-04-18T10:09:07.455Z</time></trkpt><trkpt lat="45.1885837" lon="8.116517"><ele>149.5</ele><time>2026-04-18T10:09:08.455Z</time></trkpt><trkpt lat="45.1884914" lon="8.116174"><ele>149.0</ele><time>2026-04-18T10:09:09.456Z</time></trkpt><trkpt lat="45.1883951" lon="8.1158243"><ele>148.5</ele><time>2026-04-18T10:09:10.455Z</time></trkpt><trkpt lat="45.1882996" lon="8.115469"><ele>148.0</ele><time>2026-04-18T10:09:11.455Z</time></trkpt><trkpt lat="45.1881985" lon="8.1150991"><ele>149.0</ele><time>2026-04-18T10:09:12.455Z</time></trkpt><trkpt lat="45.1880989" lon="8.1147303"><ele>150.0</ele><time>2026-04-18T10:09:13.455Z</time></trkpt><trkpt lat="45.1879939" lon="8.1143629"><ele>150.5</ele><time>2026-04-18T10:09:14.456Z</time></trkpt><trkpt lat="45.1878948" lon="8.1139902"><ele>151.0</ele><time>2026-04-18T10:09:15.455Z</time></trkpt><trkpt lat="45.1877969" lon="8.1136169"><ele>151.0</ele><time>2026-04-18T10:09:16.455Z</time></trkpt><trkpt lat="45.1877001" lon="8.1132462"><ele>151.0</ele><time>2026-04-18T10:09:17.456Z</time></trkpt><trkpt lat="45.1875963" lon="8.1128677"><ele>150.5</ele><time>2026-04-18T10:09:18.455Z</time></trkpt><trkpt lat="45.1874932" lon="8.1124887"><ele>150.0</ele><time>2026-04-18T10:09:19.455Z</time></trkpt><trkpt lat="45.1873902" lon="8.1121073"><ele>149.0</ele><time>2026-04-18T10:09:20.455Z</time></trkpt><trkpt lat="45.1872851" lon="8.1117189"><ele>148.0</ele><time>2026-04-18T10:09:21.456Z</time></trkpt><trkpt lat="45.1871721" lon="8.1113128"><ele>148.0</ele><time>2026-04-18T10:09:22.455Z</time></trkpt><trkpt lat="45.1870621" lon="8.1108981"><ele>148.0</ele><time>2026-04-18T10:09:23.456Z</time></trkpt><trkpt lat="45.1869505" lon="8.1104764"><ele>149.0</ele><time>2026-04-18T10:09:24.455Z</time></trkpt><trkpt lat="45.1868338" lon="8.1100442"><ele>150.0</ele><time>2026-04-18T10:09:25.455Z</time></trkpt><trkpt lat="45.1867161" lon="8.1096098"><ele>150.0</ele><time>2026-04-18T10:09:26.455Z</time></trkpt><trkpt lat="45.1865958" lon="8.109163"><ele>150.0</ele><time>2026-04-18T10:09:27.455Z</time></trkpt><trkpt lat="45.1864785" lon="8.1087167"><ele>150.0</ele><time>2026-04-18T10:09:28.455Z</time></trkpt><trkpt lat="45.1863662" lon="8.1082764"><ele>150.0</ele><time>2026-04-18T10:09:29.455Z</time></trkpt><trkpt lat="45.1862579" lon="8.1078553"><ele>150.0</ele><time>2026-04-18T10:09:30.455Z</time></trkpt><trkpt lat="45.186164" lon="8.1074543"><ele>150.0</ele><time>2026-04-18T10:09:31.456Z</time></trkpt><trkpt lat="45.186089" lon="8.1070522"><ele>150.0</ele><time>2026-04-18T10:09:32.455Z</time></trkpt><trkpt lat="45.1860252" lon="8.1066514"><ele>150.0</ele><time>2026-04-18T10:09:33.456Z</time></trkpt><trkpt lat="45.1859642" lon="8.1062682"><ele>149.0</ele><time>2026-04-18T10:09:34.456Z</time></trkpt><trkpt lat="45.1859143" lon="8.1058909"><ele>148.0</ele><time>2026-04-18T10:09:35.455Z</time></trkpt><trkpt lat="45.1858639" lon="8.1055195"><ele>148.0</ele><time>2026-04-18T10:09:36.456Z</time></trkpt><trkpt lat="45.1858273" lon="8.1051466"><ele>148.0</ele><time>2026-04-18T10:09:37.455Z</time></trkpt><trkpt lat="45.1857953" lon="8.1047807"><ele>149.0</ele><time>2026-04-18T10:09:38.456Z</time></trkpt><trkpt lat="45.1857659" lon="8.1044247"><ele>150.0</ele><time>2026-04-18T10:09:39.456Z</time></trkpt><trkpt lat="45.1857546" lon="8.1040742"><ele>150.0</ele><time>2026-04-18T10:09:40.455Z</time></trkpt><trkpt lat="45.185753" lon="8.1037294"><ele>150.0</ele><time>2026-04-18T10:09:41.456Z</time></trkpt><trkpt lat="45.1857494" lon="8.1033745"><ele>150.5</ele><time>2026-04-18T10:09:42.455Z</time></trkpt><trkpt lat="45.1857492" lon="8.1030249"><ele>151.0</ele><time>2026-04-18T10:09:43.455Z</time></trkpt><trkpt lat="45.1857527" lon="8.1026821"><ele>151.5</ele><time>2026-04-18T10:09:44.455Z</time></trkpt><trkpt lat="45.1857621" lon="8.1023395"><ele>152.0</ele><time>2026-04-18T10:09:45.455Z</time></trkpt><trkpt lat="45.1857705" lon="8.1019979"><ele>152.0</ele><time>2026-04-18T10:09:46.456Z</time></trkpt><trkpt lat="45.1857923" lon="8.1016522"><ele>152.0</ele><time>2026-04-18T10:09:47.455Z</time></trkpt><trkpt lat="45.1858189" lon="8.1013021"><ele>151.5</ele><time>2026-04-18T10:09:48.456Z</time></trkpt><trkpt lat="45.1858554" lon="8.1009491"><ele>151.0</ele><time>2026-04-18T10:09:49.455Z</time></trkpt><trkpt lat="45.1858969" lon="8.1006024"><ele>151.0</ele><time>2026-04-18T10:09:50.455Z</time></trkpt><trkpt lat="45.1859385" lon="8.1002488"><ele>151.0</ele><time>2026-04-18T10:09:51.455Z</time></trkpt><trkpt lat="45.1859861" lon="8.0998937"><ele>150.5</ele><time>2026-04-18T10:09:52.455Z</time></trkpt><trkpt lat="45.1860429" lon="8.0995401"><ele>150.0</ele><time>2026-04-18T10:09:53.455Z</time></trkpt><trkpt lat="45.1861114" lon="8.0991803"><ele>150.5</ele><time>2026-04-18T10:09:54.456Z</time></trkpt><trkpt lat="45.1861809" lon="8.0988157"><ele>151.0</ele><time>2026-04-18T10:09:55.455Z</time></trkpt><trkpt lat="45.1862595" lon="8.0984531"><ele>151.0</ele><time>2026-04-18T10:09:56.455Z</time></trkpt><trkpt lat="45.1863407" lon="8.0980993"><ele>151.0</ele><time>2026-04-18T10:09:57.455Z</time></trkpt><trkpt lat="45.1864304" lon="8.0977397"><ele>151.0</ele><time>2026-04-18T10:09:58.455Z</time></trkpt><trkpt lat="45.1865292" lon="8.0973813"><ele>151.0</ele><time>2026-04-18T10:09:59.455Z</time></trkpt><trkpt lat="45.1866287" lon="8.0970354"><ele>151.0</ele><time>2026-04-18T10:10:00.455Z</time></trkpt><trkpt lat="45.1867382" lon="8.096694"><ele>151.0</ele><time>2026-04-18T10:10:01.456Z</time></trkpt><trkpt lat="45.1868584" lon="8.0963625"><ele>151.0</ele><time>2026-04-18T10:10:02.455Z</time></trkpt><trkpt lat="45.1869788" lon="8.0960205"><ele>151.0</ele><time>2026-04-18T10:10:03.455Z</time></trkpt><trkpt lat="45.1871049" lon="8.0956903"><ele>151.0</ele><time>2026-04-18T10:10:04.455Z</time></trkpt><trkpt lat="45.1872417" lon="8.0953562"><ele>151.0</ele><time>2026-04-18T10:10:05.456Z</time></trkpt><trkpt lat="45.1873766" lon="8.0950253"><ele>151.0</ele><time>2026-04-18T10:10:06.455Z</time></trkpt><trkpt lat="45.1875214" lon="8.0946816"><ele>151.0</ele><time>2026-04-18T10:10:07.455Z</time></trkpt><trkpt lat="45.1876704" lon="8.094329"><ele>150.5</ele><time>2026-04-18T10:10:08.455Z</time></trkpt><trkpt lat="45.1878298" lon="8.0939633"><ele>150.0</ele><time>2026-04-18T10:10:09.456Z</time></trkpt><trkpt lat="45.1879834" lon="8.0936115"><ele>150.0</ele><time>2026-04-18T10:10:10.456Z</time></trkpt><trkpt lat="45.1881341" lon="8.0932531"><ele>150.0</ele><time>2026-04-18T10:10:11.455Z</time></trkpt><trkpt lat="45.1882857" lon="8.0928904"><ele>150.5</ele><time>2026-04-18T10:10:12.455Z</time></trkpt><trkpt lat="45.1884483" lon="8.0925136"><ele>151.0</ele><time>2026-04-18T10:10:13.455Z</time></trkpt><trkpt lat="45.1886155" lon="8.0921267"><ele>151.0</ele><time>2026-04-18T10:10:14.456Z</time></trkpt><trkpt lat="45.1887802" lon="8.0917332"><ele>151.0</ele><time>2026-04-18T10:10:15.455Z</time></trkpt><trkpt lat="45.1889532" lon="8.0913381"><ele>152.5</ele><time>2026-04-18T10:10:16.455Z</time></trkpt><trkpt lat="45.1891333" lon="8.0909376"><ele>154.0</ele><time>2026-04-18T10:10:17.456Z</time></trkpt><trkpt lat="45.1893172" lon="8.0905411"><ele>154.0</ele><time>2026-04-18T10:10:18.455Z</time></trkpt><trkpt lat="45.1895036" lon="8.0901336"><ele>154.0</ele><time>2026-04-18T10:10:19.455Z</time></trkpt><trkpt lat="45.1896841" lon="8.0897352"><ele>154.0</ele><time>2026-04-18T10:10:20.455Z</time></trkpt><trkpt lat="45.1898549" lon="8.0893405"><ele>154.0</ele><time>2026-04-18T10:10:21.456Z</time></trkpt><trkpt lat="45.1900208" lon="8.0889585"><ele>154.0</ele><time>2026-04-18T10:10:22.455Z</time></trkpt><trkpt lat="45.1901852" lon="8.0885775"><ele>154.0</ele><time>2026-04-18T10:10:23.455Z</time></trkpt><trkpt lat="45.1903513" lon="8.0882045"><ele>154.5</ele><time>2026-04-18T10:10:24.455Z</time></trkpt><trkpt lat="45.190516" lon="8.0878337"><ele>155.0</ele><time>2026-04-18T10:10:25.456Z</time></trkpt><trkpt lat="45.1906766" lon="8.0874646"><ele>155.0</ele><time>2026-04-18T10:10:26.455Z</time></trkpt><trkpt lat="45.1908372" lon="8.0870976"><ele>155.0</ele><time>2026-04-18T10:10:27.455Z</time></trkpt><trkpt lat="45.1909961" lon="8.086737"><ele>155.0</ele><time>2026-04-18T10:10:28.455Z</time></trkpt><trkpt lat="45.1911527" lon="8.0863805"><ele>155.0</ele><time>2026-04-18T10:10:29.455Z</time></trkpt><trkpt lat="45.1913005" lon="8.0860276"><ele>155.0</ele><time>2026-04-18T10:10:30.455Z</time></trkpt><trkpt lat="45.1914505" lon="8.0856808"><ele>155.0</ele><time>2026-04-18T10:10:31.456Z</time></trkpt><trkpt lat="45.1915971" lon="8.0853356"><ele>155.0</ele><time>2026-04-18T10:10:32.455Z</time></trkpt><trkpt lat="45.1917388" lon="8.0849866"><ele>155.0</ele><time>2026-04-18T10:10:33.455Z</time></trkpt><trkpt lat="45.1918848" lon="8.0846492"><ele>154.5</ele><time>2026-04-18T10:10:34.455Z</time></trkpt><trkpt lat="45.1920355" lon="8.0843176"><ele>154.0</ele><time>2026-04-18T10:10:35.455Z</time></trkpt><trkpt lat="45.1921754" lon="8.0839983"><ele>155.0</ele><time>2026-04-18T10:10:36.455Z</time></trkpt><trkpt lat="45.1923073" lon="8.0837016"><ele>156.0</ele><time>2026-04-18T10:10:37.455Z</time></trkpt><trkpt lat="45.1924249" lon="8.0834253"><ele>155.66666666666666</ele><time>2026-04-18T10:10:38.455Z</time></trkpt><trkpt lat="45.1925422" lon="8.0831655"><ele>155.33333333333331</ele><time>2026-04-18T10:10:39.455Z</time></trkpt><trkpt lat="45.1926436" lon="8.0829204"><ele>155.0</ele><time>2026-04-18T10:10:40.455Z</time></trkpt><trkpt lat="45.1927427" lon="8.0826921"><ele>155.0</ele><time>2026-04-18T10:10:41.455Z</time></trkpt><trkpt lat="45.1928291" lon="8.0824806"><ele>155.0</ele><time>2026-04-18T10:10:42.455Z</time></trkpt><trkpt lat="45.1929007" lon="8.0822733"><ele>155.0</ele><time>2026-04-18T10:10:43.455Z</time></trkpt><trkpt lat="45.1929653" lon="8.0820925"><ele>155.0</ele><time>2026-04-18T10:10:44.455Z</time></trkpt><trkpt lat="45.1930174" lon="8.0819189"><ele>155.0</ele><time>2026-04-18T10:10:45.456Z</time></trkpt><trkpt lat="45.1930711" lon="8.0817519"><ele>155.0</ele><time>2026-04-18T10:10:46.455Z</time></trkpt><trkpt lat="45.1931404" lon="8.0816233"><ele>155.0</ele><time>2026-04-18T10:10:47.456Z</time></trkpt><trkpt lat="45.1932237" lon="8.0815393"><ele>155.5</ele><time>2026-04-18T10:10:48.455Z</time></trkpt><trkpt lat="45.1933085" lon="8.0814751"><ele>156.0</ele><time>2026-04-18T10:10:49.455Z</time></trkpt><trkpt lat="45.1933865" lon="8.081461"><ele>156.5</ele><time>2026-04-18T10:10:50.455Z</time></trkpt><trkpt lat="45.1934658" lon="8.0814221"><ele>157.0</ele><time>2026-04-18T10:10:51.455Z</time></trkpt><trkpt lat="45.1935182" lon="8.0813713"><ele>157.5</ele><time>2026-04-18T10:10:52.456Z</time></trkpt><trkpt lat="45.1935472" lon="8.0812686"><ele>158.0</ele><time>2026-04-18T10:10:53.455Z</time></trkpt><trkpt lat="45.1935562" lon="8.081149"><ele>158.0</ele><time>2026-04-18T10:10:54.456Z</time></trkpt><trkpt lat="45.1935385" lon="8.0810347"><ele>158.0</ele><time>2026-04-18T10:10:55.455Z</time></trkpt><trkpt lat="45.193507" lon="8.0809039"><ele>158.0</ele><time>2026-04-18T10:10:56.456Z</time></trkpt><trkpt lat="45.1934922" lon="8.0807622"><ele>158.0</ele><time>2026-04-18T10:10:57.455Z</time></trkpt><trkpt lat="45.19349" lon="8.0806152"><ele>158.0</ele><time>2026-04-18T10:10:58.455Z</time></trkpt><trkpt lat="45.193506" lon="8.0804246"><ele>158.0</ele><time>2026-04-18T10:10:59.455Z</time></trkpt><trkpt lat="45.1935191" lon="8.0802285"><ele>158.0</ele><time>2026-04-18T10:11:00.455Z</time></trkpt><trkpt lat="45.1935379" lon="8.0800097"><ele>158.0</ele><time>2026-04-18T10:11:01.455Z</time></trkpt><trkpt lat="45.1935286" lon="8.0797516"><ele>158.66666666666666</ele><time>2026-04-18T10:11:02.456Z</time></trkpt><trkpt lat="45.1935142" lon="8.0794636"><ele>159.33333333333334</ele><time>2026-04-18T10:11:03.455Z</time></trkpt><trkpt lat="45.1935025" lon="8.0791531"><ele>160.0</ele><time>2026-04-18T10:11:04.455Z</time></trkpt><trkpt lat="45.1934984" lon="8.0788264"><ele>160.0</ele><time>2026-04-18T10:11:05.455Z</time></trkpt><trkpt lat="45.193491" lon="8.0784804"><ele>160.0</ele><time>2026-04-18T10:11:06.456Z</time></trkpt><trkpt lat="45.1934839" lon="8.0781245"><ele>159.0</ele><time>2026-04-18T10:11:07.456Z</time></trkpt><trkpt lat="45.1934727" lon="8.0777466"><ele>158.0</ele><time>2026-04-18T10:11:08.455Z</time></trkpt><trkpt lat="45.1934593" lon="8.0773615"><ele>157.0</ele><time>2026-04-18T10:11:09.455Z</time></trkpt><trkpt lat="45.1934593" lon="8.0769665"><ele>156.0</ele><time>2026-04-18T10:11:10.455Z</time></trkpt><trkpt lat="45.1934591" lon="8.0765801"><ele>156.0</ele><time>2026-04-18T10:11:11.455Z</time></trkpt><trkpt lat="45.1934556" lon="8.0761971"><ele>156.0</ele><time>2026-04-18T10:11:12.455Z</time></trkpt><trkpt lat="45.1934476" lon="8.0758065"><ele>156.0</ele><time>2026-04-18T10:11:13.455Z</time></trkpt><trkpt lat="45.1934334" lon="8.0754075"><ele>156.0</ele><time>2026-04-18T10:11:14.455Z</time></trkpt><trkpt lat="45.1934186" lon="8.0750041"><ele>155.5</ele><time>2026-04-18T10:11:15.455Z</time></trkpt><trkpt lat="45.1934039" lon="8.0746036"><ele>155.0</ele><time>2026-04-18T10:11:16.455Z</time></trkpt><trkpt lat="45.1933911" lon="8.0742106"><ele>156.0</ele><time>2026-04-18T10:11:17.455Z</time></trkpt><trkpt lat="45.1933827" lon="8.0738142"><ele>157.0</ele><time>2026-04-18T10:11:18.455Z</time></trkpt><trkpt lat="45.1933716" lon="8.0734226"><ele>158.0</ele><time>2026-04-18T10:11:19.455Z</time></trkpt><trkpt lat="45.1933633" lon="8.0730435"><ele>159.0</ele><time>2026-04-18T10:11:20.455Z</time></trkpt><trkpt lat="45.1933506" lon="8.0726697"><ele>158.5</ele><time>2026-04-18T10:11:21.455Z</time></trkpt><trkpt lat="45.1933384" lon="8.0723006"><ele>158.0</ele><time>2026-04-18T10:11:22.455Z</time></trkpt><trkpt lat="45.193329" lon="8.0719389"><ele>158.0</ele><time>2026-04-18T10:11:23.455Z</time></trkpt><trkpt lat="45.1933182" lon="8.0715961"><ele>158.0</ele><time>2026-04-18T10:11:24.455Z</time></trkpt><trkpt lat="45.1933124" lon="8.0712817"><ele>158.0</ele><time>2026-04-18T10:11:25.455Z</time></trkpt><trkpt lat="45.1933061" lon="8.070986"><ele>158.0</ele><time>2026-04-18T10:11:26.455Z</time></trkpt><trkpt lat="45.1933024" lon="8.0706919"><ele>158.0</ele><time>2026-04-18T10:11:27.455Z</time></trkpt><trkpt lat="45.1932901" lon="8.0703886"><ele>157.66666666666666</ele><time>2026-04-18T10:11:28.455Z</time></trkpt><trkpt lat="45.1932776" lon="8.0700947"><ele>157.33333333333334</ele><time>2026-04-18T10:11:29.455Z</time></trkpt><trkpt lat="45.1932684" lon="8.0698091"><ele>157.0</ele><time>2026-04-18T10:11:30.455Z</time></trkpt><trkpt lat="45.1932636" lon="8.0695179"><ele>157.0</ele><time>2026-04-18T10:11:31.456Z</time></trkpt><trkpt lat="45.1932538" lon="8.0692348"><ele>157.0</ele><time>2026-04-18T10:11:32.455Z</time></trkpt><trkpt lat="45.1932408" lon="8.06896"><ele>157.0</ele><time>2026-04-18T10:11:33.455Z</time></trkpt><trkpt lat="45.193233" lon="8.0686918"><ele>157.0</ele><time>2026-04-18T10:11:34.456Z</time></trkpt><trkpt lat="45.1932284" lon="8.0684446"><ele>157.0</ele><time>2026-04-18T10:11:35.455Z</time></trkpt><trkpt lat="45.1932251" lon="8.0682067"><ele>157.0</ele><time>2026-04-18T10:11:36.455Z</time></trkpt><trkpt lat="45.1932212" lon="8.0679894"><ele>157.0</ele><time>2026-04-18T10:11:37.455Z</time></trkpt><trkpt lat="45.1932179" lon="8.0677813"><ele>157.0</ele><time>2026-04-18T10:11:38.455Z</time></trkpt><trkpt lat="45.1932149" lon="8.0675992"><ele>157.0</ele><time>2026-04-18T10:11:39.455Z</time></trkpt><trkpt lat="45.1932024" lon="8.0674607"><ele>157.0</ele><time>2026-04-18T10:11:40.455Z</time></trkpt><trkpt lat="45.193179" lon="8.0673475"><ele>157.0</ele><time>2026-04-18T10:11:41.455Z</time></trkpt><trkpt lat="45.1931498" lon="8.0672682"><ele>157.0</ele><time>2026-04-18T10:11:42.455Z</time></trkpt><trkpt lat="45.1930965" lon="8.0672186"><ele>157.0</ele><time>2026-04-18T10:11:43.455Z</time></trkpt><trkpt lat="45.193031" lon="8.067204"><ele>157.0</ele><time>2026-04-18T10:11:44.455Z</time></trkpt><trkpt lat="45.192904" lon="8.0671865"><ele>157.0</ele><time>2026-04-18T10:11:46.455Z</time></trkpt><trkpt lat="45.1927907" lon="8.0671686"><ele>157.0</ele><time>2026-04-18T10:11:48.456Z</time></trkpt><trkpt lat="45.1927006" lon="8.0671305"><ele>157.0</ele><time>2026-04-18T10:11:50.455Z</time></trkpt><trkpt lat="45.1926371" lon="8.0671221"><ele>157.0</ele><time>2026-04-18T10:11:53.455Z</time></trkpt><trkpt lat="45.1925567" lon="8.0671556"><ele>157.0</ele><time>2026-04-18T10:11:56.456Z</time></trkpt><trkpt lat="45.1924766" lon="8.0672279"><ele>157.0</ele><time>2026-04-18T10:11:58.455Z</time></trkpt><trkpt lat="45.1923721" lon="8.0673285"><ele>157.0</ele><time>2026-04-18T10:12:00.455Z</time></trkpt><trkpt lat="45.1923055" lon="8.0673749"><ele>157.0</ele><time>2026-04-18T10:12:01.455Z</time></trkpt><trkpt lat="45.1922357" lon="8.0674204"><ele>156.79999999999998</ele><time>2026-04-18T10:12:02.455Z</time></trkpt><trkpt lat="45.1921596" lon="8.0674733"><ele>156.6</ele><time>2026-04-18T10:12:03.455Z</time></trkpt><trkpt lat="45.1920701" lon="8.067522"><ele>156.39999999999998</ele><time>2026-04-18T10:12:04.455Z</time></trkpt><trkpt lat="45.1919738" lon="8.0675643"><ele>156.2</ele><time>2026-04-18T10:12:05.455Z</time></trkpt><trkpt lat="45.1918763" lon="8.0676084"><ele>156.0</ele><time>2026-04-18T10:12:06.455Z</time></trkpt><trkpt lat="45.1917712" lon="8.0676572"><ele>156.0</ele><time>2026-04-18T10:12:07.455Z</time></trkpt><trkpt lat="45.1916522" lon="8.0677049"><ele>156.0</ele><time>2026-04-18T10:12:08.455Z</time></trkpt><trkpt lat="45.1915319" lon="8.0677583"><ele>156.0</ele><time>2026-04-18T10:12:09.455Z</time></trkpt><trkpt lat="45.1914163" lon="8.067821"><ele>156.0</ele><time>2026-04-18T10:12:10.455Z</time></trkpt><trkpt lat="45.1913072" lon="8.0678885"><ele>156.0</ele><time>2026-04-18T10:12:11.455Z</time></trkpt><trkpt lat="45.1912143" lon="8.0679473"><ele>156.0</ele><time>2026-04-18T10:12:12.455Z</time></trkpt><trkpt lat="45.1911278" lon="8.0680246"><ele>156.0</ele><time>2026-04-18T10:12:13.456Z</time></trkpt><trkpt lat="45.1910507" lon="8.0681085"><ele>156.0</ele><time>2026-04-18T10:12:14.455Z</time></trkpt><trkpt lat="45.1909786" lon="8.0681835"><ele>156.0</ele><time>2026-04-18T10:12:15.455Z</time></trkpt><trkpt lat="45.1909071" lon="8.0682555"><ele>156.0</ele><time>2026-04-18T10:12:16.455Z</time></trkpt><trkpt lat="45.1908382" lon="8.0683046"><ele>156.0</ele><time>2026-04-18T10:12:17.455Z</time></trkpt><trkpt lat="45.1907656" lon="8.0683218"><ele>156.0</ele><time>2026-04-18T10:12:18.455Z</time></trkpt><trkpt lat="45.190681" lon="8.0683063"><ele>156.0</ele><time>2026-04-18T10:12:19.455Z</time></trkpt><trkpt lat="45.190597" lon="8.0682732"><ele>156.0</ele><time>2026-04-18T10:12:20.456Z</time></trkpt><trkpt lat="45.1905074" lon="8.0682338"><ele>156.0</ele><time>2026-04-18T10:12:21.455Z</time></trkpt><trkpt lat="45.1904005" lon="8.0681748"><ele>156.0</ele><time>2026-04-18T10:12:22.455Z</time></trkpt><trkpt lat="45.1902936" lon="8.0681158"><ele>156.0</ele><time>2026-04-18T10:12:23.455Z</time></trkpt><trkpt lat="45.1901823" lon="8.0680527"><ele>156.0</ele><time>2026-04-18T10:12:24.456Z</time></trkpt><trkpt lat="45.1900605" lon="8.0679829"><ele>156.0</ele><time>2026-04-18T10:12:25.455Z</time></trkpt><trkpt lat="45.1899527" lon="8.0679259"><ele>156.2</ele><time>2026-04-18T10:12:26.455Z</time></trkpt><trkpt lat="45.1898367" lon="8.0678613"><ele>156.39999999999998</ele><time>2026-04-18T10:12:27.455Z</time></trkpt><trkpt lat="45.1897299" lon="8.0678022"><ele>156.6</ele><time>2026-04-18T10:12:28.455Z</time></trkpt><trkpt lat="45.1896356" lon="8.0677546"><ele>156.79999999999998</ele><time>2026-04-18T10:12:29.455Z</time></trkpt><trkpt lat="45.1895457" lon="8.0677208"><ele>157.0</ele><time>2026-04-18T10:12:30.455Z</time></trkpt><trkpt lat="45.1894675" lon="8.0676915"><ele>157.0</ele><time>2026-04-18T10:12:31.455Z</time></trkpt><trkpt lat="45.1893573" lon="8.0676406"><ele>157.0</ele><time>2026-04-18T10:12:33.455Z</time></trkpt><trkpt lat="45.1892876" lon="8.0675774"><ele>157.0</ele><time>2026-04-18T10:12:35.455Z</time></trkpt><trkpt lat="45.1892466" lon="8.0674241"><ele>157.0</ele><time>2026-04-18T10:12:37.455Z</time></trkpt><trkpt lat="45.1892505" lon="8.0673271"><ele>157.0</ele><time>2026-04-18T10:12:38.456Z</time></trkpt><trkpt lat="45.1892695" lon="8.0672101"><ele>157.0</ele><time>2026-04-18T10:12:39.455Z</time></trkpt><trkpt lat="45.1892886" lon="8.0670878"><ele>157.0</ele><time>2026-04-18T10:12:40.456Z</time></trkpt><trkpt lat="45.1893139" lon="8.0669671"><ele>157.0</ele><time>2026-04-18T10:12:41.455Z</time></trkpt><trkpt lat="45.1893387" lon="8.0668656"><ele>157.0</ele><time>2026-04-18T10:12:42.455Z</time></trkpt><trkpt lat="45.1893705" lon="8.0667775"><ele>157.0</ele><time>2026-04-18T10:12:43.455Z</time></trkpt><trkpt lat="45.1894359" lon="8.0666445"><ele>157.0</ele><time>2026-04-18T10:12:45.455Z</time></trkpt><trkpt lat="45.1894837" lon="8.0665429"><ele>157.0</ele><time>2026-04-18T10:12:47.455Z</time></trkpt><trkpt lat="45.1894499" lon="8.0664507"><ele>157.0</ele><time>2026-04-18T10:12:50.455Z</time></trkpt><trkpt lat="45.1893522" lon="8.0664187"><ele>157.0</ele><time>2026-04-18T10:13:05.455Z</time></trkpt></trkseg></trk></gpx>